<?xml version="1.0" encoding="UTF-8" standalone="no" ?>
<gpx xmlns="http://www.topografix.com/GPX/1/1" xmlns:xsi="http://www.w3.org/2001/XMLSchema-instance" xsi:schemaLocation="http://www.topografix.com/GPX/1/1 http://www.topografix.com/GPX/1/1/gpx.xsd" version="1.1" creator="VisuGPX - https://www.visugpx.com">
  <metadata>
    <name>Balade en Drome provencale</name>
    <desc><![CDATA[Préparation flêche: 150km 1200m D ]]></desc>
  </metadata>
  <trk>
    <name><![CDATA[Balade en Drome provencale_1]]></name>
    <cmt><![CDATA[Signal cardio perdu au repas]]></cmt>
    <trkseg>
      <trkpt lat="44.30431" lon="4.75498">
        <ele>75</ele>
        <time>2018-02-21T07:21:17Z</time>
      </trkpt>
      <trkpt lat="44.3043" lon="4.75499">
        <ele>72</ele>
        <time>2018-02-21T07:21:20Z</time>
      </trkpt>
      <trkpt lat="44.30431" lon="4.75502">
        <ele>72</ele>
        <time>2018-02-21T07:21:22Z</time>
      </trkpt>
      <trkpt lat="44.30433" lon="4.75508">
        <ele>73</ele>
        <time>2018-02-21T07:21:25Z</time>
      </trkpt>
      <trkpt lat="44.30436" lon="4.7551">
        <ele>73</ele>
        <time>2018-02-21T07:21:28Z</time>
      </trkpt>
      <trkpt lat="44.30438" lon="4.75506">
        <ele>73</ele>
        <time>2018-02-21T07:21:30Z</time>
      </trkpt>
      <trkpt lat="44.30438" lon="4.75501">
        <ele>73</ele>
        <time>2018-02-21T07:21:32Z</time>
      </trkpt>
      <trkpt lat="44.3044" lon="4.75495">
        <ele>74</ele>
        <time>2018-02-21T07:21:34Z</time>
      </trkpt>
      <trkpt lat="44.30442" lon="4.75488">
        <ele>74</ele>
        <time>2018-02-21T07:21:36Z</time>
      </trkpt>
      <trkpt lat="44.30444" lon="4.75478">
        <ele>73</ele>
        <time>2018-02-21T07:21:38Z</time>
      </trkpt>
      <trkpt lat="44.30447" lon="4.75468">
        <ele>74</ele>
        <time>2018-02-21T07:21:40Z</time>
      </trkpt>
      <trkpt lat="44.30452" lon="4.75462">
        <ele>75</ele>
        <time>2018-02-21T07:21:43Z</time>
      </trkpt>
      <trkpt lat="44.30454" lon="4.75461">
        <ele>75</ele>
        <time>2018-02-21T07:21:45Z</time>
      </trkpt>
      <trkpt lat="44.30457" lon="4.75457">
        <ele>76</ele>
        <time>2018-02-21T07:21:48Z</time>
      </trkpt>
      <trkpt lat="44.30458" lon="4.75452">
        <ele>76</ele>
        <time>2018-02-21T07:21:50Z</time>
      </trkpt>
      <trkpt lat="44.30459" lon="4.75447">
        <ele>77</ele>
        <time>2018-02-21T07:21:52Z</time>
      </trkpt>
      <trkpt lat="44.3046" lon="4.75441">
        <ele>77</ele>
        <time>2018-02-21T07:21:54Z</time>
      </trkpt>
      <trkpt lat="44.30457" lon="4.75429">
        <ele>78</ele>
        <time>2018-02-21T07:21:57Z</time>
      </trkpt>
      <trkpt lat="44.30452" lon="4.75418">
        <ele>77</ele>
        <time>2018-02-21T07:21:59Z</time>
      </trkpt>
      <trkpt lat="44.3045" lon="4.75404">
        <ele>77</ele>
        <time>2018-02-21T07:22:01Z</time>
      </trkpt>
      <trkpt lat="44.30449" lon="4.75381">
        <ele>76</ele>
        <time>2018-02-21T07:22:04Z</time>
      </trkpt>
      <trkpt lat="44.30432" lon="4.75372">
        <ele>76</ele>
        <time>2018-02-21T07:22:07Z</time>
      </trkpt>
      <trkpt lat="44.30418" lon="4.75371">
        <ele>75</ele>
        <time>2018-02-21T07:22:09Z</time>
      </trkpt>
      <trkpt lat="44.30408" lon="4.75359">
        <ele>74</ele>
        <time>2018-02-21T07:22:12Z</time>
      </trkpt>
      <trkpt lat="44.30397" lon="4.75331">
        <ele>73</ele>
        <time>2018-02-21T07:22:14Z</time>
      </trkpt>
      <trkpt lat="44.30381" lon="4.75309">
        <ele>71</ele>
        <time>2018-02-21T07:22:17Z</time>
      </trkpt>
      <trkpt lat="44.30365" lon="4.75293">
        <ele>68</ele>
        <time>2018-02-21T07:22:20Z</time>
      </trkpt>
      <trkpt lat="44.30348" lon="4.75276">
        <ele>66</ele>
        <time>2018-02-21T07:22:23Z</time>
      </trkpt>
      <trkpt lat="44.30335" lon="4.75252">
        <ele>65</ele>
        <time>2018-02-21T07:22:26Z</time>
      </trkpt>
      <trkpt lat="44.30324" lon="4.75226">
        <ele>63</ele>
        <time>2018-02-21T07:22:29Z</time>
      </trkpt>
      <trkpt lat="44.30313" lon="4.752">
        <ele>62</ele>
        <time>2018-02-21T07:22:32Z</time>
      </trkpt>
      <trkpt lat="44.30305" lon="4.75182">
        <ele>62</ele>
        <time>2018-02-21T07:22:34Z</time>
      </trkpt>
      <trkpt lat="44.30292" lon="4.75155">
        <ele>62</ele>
        <time>2018-02-21T07:22:37Z</time>
      </trkpt>
      <trkpt lat="44.30282" lon="4.75134">
        <ele>61</ele>
        <time>2018-02-21T07:22:40Z</time>
      </trkpt>
      <trkpt lat="44.30276" lon="4.75128">
        <ele>60</ele>
        <time>2018-02-21T07:22:42Z</time>
      </trkpt>
      <trkpt lat="44.30265" lon="4.75129">
        <ele>59</ele>
        <time>2018-02-21T07:22:45Z</time>
      </trkpt>
      <trkpt lat="44.30251" lon="4.75135">
        <ele>59</ele>
        <time>2018-02-21T07:22:48Z</time>
      </trkpt>
      <trkpt lat="44.30236" lon="4.75141">
        <ele>59</ele>
        <time>2018-02-21T07:22:51Z</time>
      </trkpt>
      <trkpt lat="44.30225" lon="4.75146">
        <ele>59</ele>
        <time>2018-02-21T07:22:53Z</time>
      </trkpt>
      <trkpt lat="44.30214" lon="4.75138">
        <ele>59</ele>
        <time>2018-02-21T07:22:56Z</time>
      </trkpt>
      <trkpt lat="44.30213" lon="4.75125">
        <ele>59</ele>
        <time>2018-02-21T07:22:58Z</time>
      </trkpt>
      <trkpt lat="44.30214" lon="4.7511">
        <ele>59</ele>
        <time>2018-02-21T07:23:00Z</time>
      </trkpt>
      <trkpt lat="44.30218" lon="4.75085">
        <ele>58</ele>
        <time>2018-02-21T07:23:03Z</time>
      </trkpt>
      <trkpt lat="44.3022" lon="4.7506">
        <ele>58</ele>
        <time>2018-02-21T07:23:06Z</time>
      </trkpt>
      <trkpt lat="44.30222" lon="4.75033">
        <ele>58</ele>
        <time>2018-02-21T07:23:09Z</time>
      </trkpt>
      <trkpt lat="44.30222" lon="4.75014">
        <ele>59</ele>
        <time>2018-02-21T07:23:11Z</time>
      </trkpt>
      <trkpt lat="44.30221" lon="4.74985">
        <ele>59</ele>
        <time>2018-02-21T07:23:14Z</time>
      </trkpt>
      <trkpt lat="44.30217" lon="4.74955">
        <ele>59</ele>
        <time>2018-02-21T07:23:17Z</time>
      </trkpt>
      <trkpt lat="44.3021" lon="4.74928">
        <ele>59</ele>
        <time>2018-02-21T07:23:20Z</time>
      </trkpt>
      <trkpt lat="44.30199" lon="4.74904">
        <ele>58</ele>
        <time>2018-02-21T07:23:23Z</time>
      </trkpt>
      <trkpt lat="44.30192" lon="4.74889">
        <ele>58</ele>
        <time>2018-02-21T07:23:25Z</time>
      </trkpt>
      <trkpt lat="44.3019" lon="4.7487">
        <ele>59</ele>
        <time>2018-02-21T07:23:27Z</time>
      </trkpt>
      <trkpt lat="44.30192" lon="4.74852">
        <ele>58</ele>
        <time>2018-02-21T07:23:29Z</time>
      </trkpt>
      <trkpt lat="44.30198" lon="4.74826">
        <ele>58</ele>
        <time>2018-02-21T07:23:32Z</time>
      </trkpt>
      <trkpt lat="44.30199" lon="4.748">
        <ele>58</ele>
        <time>2018-02-21T07:23:35Z</time>
      </trkpt>
      <trkpt lat="44.30187" lon="4.7478">
        <ele>58</ele>
        <time>2018-02-21T07:23:38Z</time>
      </trkpt>
      <trkpt lat="44.30181" lon="4.74754">
        <ele>59</ele>
        <time>2018-02-21T07:23:41Z</time>
      </trkpt>
      <trkpt lat="44.30167" lon="4.74734">
        <ele>59</ele>
        <time>2018-02-21T07:23:44Z</time>
      </trkpt>
      <trkpt lat="44.30148" lon="4.74743">
        <ele>59</ele>
        <time>2018-02-21T07:23:47Z</time>
      </trkpt>
      <trkpt lat="44.30135" lon="4.74764">
        <ele>59</ele>
        <time>2018-02-21T07:23:50Z</time>
      </trkpt>
      <trkpt lat="44.30123" lon="4.74774">
        <ele>58</ele>
        <time>2018-02-21T07:23:52Z</time>
      </trkpt>
      <trkpt lat="44.30111" lon="4.74783">
        <ele>58</ele>
        <time>2018-02-21T07:23:54Z</time>
      </trkpt>
      <trkpt lat="44.30099" lon="4.74792">
        <ele>58</ele>
        <time>2018-02-21T07:23:57Z</time>
      </trkpt>
      <trkpt lat="44.30081" lon="4.74806">
        <ele>58</ele>
        <time>2018-02-21T07:23:59Z</time>
      </trkpt>
      <trkpt lat="44.30063" lon="4.7482">
        <ele>58</ele>
        <time>2018-02-21T07:24:02Z</time>
      </trkpt>
      <trkpt lat="44.30045" lon="4.74835">
        <ele>58</ele>
        <time>2018-02-21T07:24:05Z</time>
      </trkpt>
      <trkpt lat="44.30033" lon="4.74845">
        <ele>58</ele>
        <time>2018-02-21T07:24:07Z</time>
      </trkpt>
      <trkpt lat="44.30015" lon="4.74861">
        <ele>58</ele>
        <time>2018-02-21T07:24:10Z</time>
      </trkpt>
      <trkpt lat="44.30003" lon="4.74872">
        <ele>58</ele>
        <time>2018-02-21T07:24:12Z</time>
      </trkpt>
      <trkpt lat="44.29985" lon="4.74887">
        <ele>58</ele>
        <time>2018-02-21T07:24:15Z</time>
      </trkpt>
      <trkpt lat="44.29967" lon="4.74902">
        <ele>58</ele>
        <time>2018-02-21T07:24:18Z</time>
      </trkpt>
      <trkpt lat="44.29955" lon="4.74913">
        <ele>59</ele>
        <time>2018-02-21T07:24:20Z</time>
      </trkpt>
      <trkpt lat="44.29944" lon="4.74923">
        <ele>59</ele>
        <time>2018-02-21T07:24:22Z</time>
      </trkpt>
      <trkpt lat="44.29932" lon="4.74933">
        <ele>59</ele>
        <time>2018-02-21T07:24:24Z</time>
      </trkpt>
      <trkpt lat="44.29921" lon="4.74943">
        <ele>60</ele>
        <time>2018-02-21T07:24:26Z</time>
      </trkpt>
      <trkpt lat="44.29909" lon="4.74953">
        <ele>60</ele>
        <time>2018-02-21T07:24:28Z</time>
      </trkpt>
      <trkpt lat="44.29893" lon="4.74968">
        <ele>60</ele>
        <time>2018-02-21T07:24:31Z</time>
      </trkpt>
      <trkpt lat="44.29882" lon="4.74976">
        <ele>60</ele>
        <time>2018-02-21T07:24:33Z</time>
      </trkpt>
      <trkpt lat="44.2987" lon="4.74977">
        <ele>59</ele>
        <time>2018-02-21T07:24:35Z</time>
      </trkpt>
      <trkpt lat="44.29857" lon="4.7498">
        <ele>59</ele>
        <time>2018-02-21T07:24:37Z</time>
      </trkpt>
      <trkpt lat="44.29847" lon="4.74993">
        <ele>59</ele>
        <time>2018-02-21T07:24:39Z</time>
      </trkpt>
      <trkpt lat="44.2984" lon="4.75009">
        <ele>59</ele>
        <time>2018-02-21T07:24:41Z</time>
      </trkpt>
      <trkpt lat="44.29824" lon="4.75026">
        <ele>59</ele>
        <time>2018-02-21T07:24:44Z</time>
      </trkpt>
      <trkpt lat="44.29806" lon="4.75042">
        <ele>59</ele>
        <time>2018-02-21T07:24:47Z</time>
      </trkpt>
      <trkpt lat="44.29795" lon="4.75054">
        <ele>59</ele>
        <time>2018-02-21T07:24:49Z</time>
      </trkpt>
      <trkpt lat="44.29783" lon="4.75064">
        <ele>59</ele>
        <time>2018-02-21T07:24:51Z</time>
      </trkpt>
      <trkpt lat="44.29771" lon="4.75075">
        <ele>59</ele>
        <time>2018-02-21T07:24:53Z</time>
      </trkpt>
      <trkpt lat="44.29759" lon="4.75086">
        <ele>59</ele>
        <time>2018-02-21T07:24:55Z</time>
      </trkpt>
      <trkpt lat="44.29747" lon="4.75096">
        <ele>59</ele>
        <time>2018-02-21T07:24:57Z</time>
      </trkpt>
      <trkpt lat="44.29735" lon="4.75107">
        <ele>60</ele>
        <time>2018-02-21T07:24:59Z</time>
      </trkpt>
      <trkpt lat="44.29717" lon="4.75123">
        <ele>59</ele>
        <time>2018-02-21T07:25:02Z</time>
      </trkpt>
      <trkpt lat="44.29705" lon="4.75134">
        <ele>58</ele>
        <time>2018-02-21T07:25:04Z</time>
      </trkpt>
      <trkpt lat="44.29692" lon="4.75145">
        <ele>58</ele>
        <time>2018-02-21T07:25:06Z</time>
      </trkpt>
      <trkpt lat="44.2968" lon="4.75156">
        <ele>58</ele>
        <time>2018-02-21T07:25:08Z</time>
      </trkpt>
      <trkpt lat="44.2966" lon="4.75172">
        <ele>58</ele>
        <time>2018-02-21T07:25:11Z</time>
      </trkpt>
      <trkpt lat="44.29648" lon="4.75184">
        <ele>59</ele>
        <time>2018-02-21T07:25:13Z</time>
      </trkpt>
      <trkpt lat="44.29635" lon="4.75195">
        <ele>59</ele>
        <time>2018-02-21T07:25:15Z</time>
      </trkpt>
      <trkpt lat="44.29622" lon="4.75206">
        <ele>60</ele>
        <time>2018-02-21T07:25:17Z</time>
      </trkpt>
      <trkpt lat="44.29603" lon="4.75223">
        <ele>59</ele>
        <time>2018-02-21T07:25:20Z</time>
      </trkpt>
      <trkpt lat="44.2959" lon="4.75233">
        <ele>59</ele>
        <time>2018-02-21T07:25:22Z</time>
      </trkpt>
      <trkpt lat="44.29577" lon="4.75243">
        <ele>58</ele>
        <time>2018-02-21T07:25:24Z</time>
      </trkpt>
      <trkpt lat="44.29556" lon="4.75256">
        <ele>58</ele>
        <time>2018-02-21T07:25:27Z</time>
      </trkpt>
      <trkpt lat="44.29535" lon="4.75268">
        <ele>59</ele>
        <time>2018-02-21T07:25:30Z</time>
      </trkpt>
      <trkpt lat="44.29522" lon="4.75275">
        <ele>60</ele>
        <time>2018-02-21T07:25:32Z</time>
      </trkpt>
      <trkpt lat="44.29509" lon="4.75282">
        <ele>60</ele>
        <time>2018-02-21T07:25:34Z</time>
      </trkpt>
      <trkpt lat="44.29488" lon="4.75289">
        <ele>60</ele>
        <time>2018-02-21T07:25:37Z</time>
      </trkpt>
      <trkpt lat="44.29467" lon="4.75296">
        <ele>58</ele>
        <time>2018-02-21T07:25:40Z</time>
      </trkpt>
      <trkpt lat="44.29445" lon="4.75301">
        <ele>58</ele>
        <time>2018-02-21T07:25:43Z</time>
      </trkpt>
      <trkpt lat="44.2943" lon="4.75303">
        <ele>58</ele>
        <time>2018-02-21T07:25:45Z</time>
      </trkpt>
      <trkpt lat="44.29415" lon="4.75304">
        <ele>58</ele>
        <time>2018-02-21T07:25:47Z</time>
      </trkpt>
      <trkpt lat="44.29399" lon="4.75305">
        <ele>59</ele>
        <time>2018-02-21T07:25:50Z</time>
      </trkpt>
      <trkpt lat="44.29377" lon="4.75306">
        <ele>59</ele>
        <time>2018-02-21T07:25:52Z</time>
      </trkpt>
      <trkpt lat="44.29362" lon="4.75306">
        <ele>59</ele>
        <time>2018-02-21T07:25:54Z</time>
      </trkpt>
      <trkpt lat="44.29348" lon="4.75301">
        <ele>60</ele>
        <time>2018-02-21T07:25:56Z</time>
      </trkpt>
      <trkpt lat="44.29327" lon="4.75296">
        <ele>60</ele>
        <time>2018-02-21T07:25:59Z</time>
      </trkpt>
      <trkpt lat="44.29313" lon="4.75303">
        <ele>60</ele>
        <time>2018-02-21T07:26:01Z</time>
      </trkpt>
      <trkpt lat="44.29298" lon="4.75309">
        <ele>60</ele>
        <time>2018-02-21T07:26:03Z</time>
      </trkpt>
      <trkpt lat="44.29276" lon="4.75314">
        <ele>60</ele>
        <time>2018-02-21T07:26:06Z</time>
      </trkpt>
      <trkpt lat="44.29261" lon="4.75317">
        <ele>60</ele>
        <time>2018-02-21T07:26:08Z</time>
      </trkpt>
      <trkpt lat="44.29239" lon="4.7532">
        <ele>59</ele>
        <time>2018-02-21T07:26:11Z</time>
      </trkpt>
      <trkpt lat="44.29224" lon="4.75322">
        <ele>59</ele>
        <time>2018-02-21T07:26:13Z</time>
      </trkpt>
      <trkpt lat="44.29208" lon="4.75324">
        <ele>59</ele>
        <time>2018-02-21T07:26:15Z</time>
      </trkpt>
      <trkpt lat="44.29193" lon="4.75326">
        <ele>59</ele>
        <time>2018-02-21T07:26:17Z</time>
      </trkpt>
      <trkpt lat="44.2917" lon="4.75327">
        <ele>59</ele>
        <time>2018-02-21T07:26:20Z</time>
      </trkpt>
      <trkpt lat="44.29155" lon="4.75327">
        <ele>59</ele>
        <time>2018-02-21T07:26:22Z</time>
      </trkpt>
      <trkpt lat="44.29132" lon="4.75327">
        <ele>59</ele>
        <time>2018-02-21T07:26:25Z</time>
      </trkpt>
      <trkpt lat="44.29109" lon="4.75326">
        <ele>59</ele>
        <time>2018-02-21T07:26:28Z</time>
      </trkpt>
      <trkpt lat="44.29094" lon="4.75324">
        <ele>59</ele>
        <time>2018-02-21T07:26:30Z</time>
      </trkpt>
      <trkpt lat="44.29079" lon="4.75322">
        <ele>58</ele>
        <time>2018-02-21T07:26:32Z</time>
      </trkpt>
      <trkpt lat="44.29063" lon="4.7532">
        <ele>58</ele>
        <time>2018-02-21T07:26:34Z</time>
      </trkpt>
      <trkpt lat="44.29048" lon="4.75316">
        <ele>58</ele>
        <time>2018-02-21T07:26:36Z</time>
      </trkpt>
      <trkpt lat="44.29033" lon="4.75312">
        <ele>58</ele>
        <time>2018-02-21T07:26:38Z</time>
      </trkpt>
      <trkpt lat="44.29012" lon="4.75303">
        <ele>58</ele>
        <time>2018-02-21T07:26:41Z</time>
      </trkpt>
      <trkpt lat="44.2899" lon="4.75291">
        <ele>58</ele>
        <time>2018-02-21T07:26:44Z</time>
      </trkpt>
      <trkpt lat="44.28977" lon="4.75282">
        <ele>58</ele>
        <time>2018-02-21T07:26:46Z</time>
      </trkpt>
      <trkpt lat="44.28963" lon="4.75271">
        <ele>57</ele>
        <time>2018-02-21T07:26:48Z</time>
      </trkpt>
      <trkpt lat="44.28951" lon="4.75259">
        <ele>57</ele>
        <time>2018-02-21T07:26:50Z</time>
      </trkpt>
      <trkpt lat="44.28933" lon="4.7524">
        <ele>57</ele>
        <time>2018-02-21T07:26:53Z</time>
      </trkpt>
      <trkpt lat="44.28917" lon="4.75219">
        <ele>57</ele>
        <time>2018-02-21T07:26:56Z</time>
      </trkpt>
      <trkpt lat="44.28902" lon="4.75197">
        <ele>58</ele>
        <time>2018-02-21T07:26:59Z</time>
      </trkpt>
      <trkpt lat="44.28895" lon="4.75172">
        <ele>57</ele>
        <time>2018-02-21T07:27:02Z</time>
      </trkpt>
      <trkpt lat="44.28897" lon="4.75149">
        <ele>57</ele>
        <time>2018-02-21T07:27:05Z</time>
      </trkpt>
      <trkpt lat="44.28899" lon="4.75134">
        <ele>58</ele>
        <time>2018-02-21T07:27:07Z</time>
      </trkpt>
      <trkpt lat="44.28901" lon="4.75118">
        <ele>58</ele>
        <time>2018-02-21T07:27:09Z</time>
      </trkpt>
      <trkpt lat="44.28902" lon="4.75102">
        <ele>59</ele>
        <time>2018-02-21T07:27:11Z</time>
      </trkpt>
      <trkpt lat="44.28901" lon="4.75075">
        <ele>58</ele>
        <time>2018-02-21T07:27:14Z</time>
      </trkpt>
      <trkpt lat="44.28898" lon="4.75057">
        <ele>58</ele>
        <time>2018-02-21T07:27:16Z</time>
      </trkpt>
      <trkpt lat="44.28894" lon="4.7504">
        <ele>58</ele>
        <time>2018-02-21T07:27:18Z</time>
      </trkpt>
      <trkpt lat="44.28889" lon="4.75023">
        <ele>58</ele>
        <time>2018-02-21T07:27:20Z</time>
      </trkpt>
      <trkpt lat="44.28881" lon="4.75008">
        <ele>58</ele>
        <time>2018-02-21T07:27:22Z</time>
      </trkpt>
      <trkpt lat="44.28872" lon="4.74995">
        <ele>58</ele>
        <time>2018-02-21T07:27:24Z</time>
      </trkpt>
      <trkpt lat="44.2886" lon="4.74984">
        <ele>57</ele>
        <time>2018-02-21T07:27:26Z</time>
      </trkpt>
      <trkpt lat="44.28846" lon="4.74979">
        <ele>57</ele>
        <time>2018-02-21T07:27:28Z</time>
      </trkpt>
      <trkpt lat="44.28831" lon="4.7498">
        <ele>57</ele>
        <time>2018-02-21T07:27:30Z</time>
      </trkpt>
      <trkpt lat="44.28817" lon="4.74988">
        <ele>57</ele>
        <time>2018-02-21T07:27:32Z</time>
      </trkpt>
      <trkpt lat="44.28806" lon="4.75">
        <ele>57</ele>
        <time>2018-02-21T07:27:34Z</time>
      </trkpt>
      <trkpt lat="44.28797" lon="4.75015">
        <ele>57</ele>
        <time>2018-02-21T07:27:36Z</time>
      </trkpt>
      <trkpt lat="44.28791" lon="4.75033">
        <ele>57</ele>
        <time>2018-02-21T07:27:38Z</time>
      </trkpt>
      <trkpt lat="44.28787" lon="4.75052">
        <ele>57</ele>
        <time>2018-02-21T07:27:40Z</time>
      </trkpt>
      <trkpt lat="44.28779" lon="4.75068">
        <ele>56</ele>
        <time>2018-02-21T07:27:42Z</time>
      </trkpt>
      <trkpt lat="44.28767" lon="4.75077">
        <ele>56</ele>
        <time>2018-02-21T07:27:44Z</time>
      </trkpt>
      <trkpt lat="44.28745" lon="4.75081">
        <ele>56</ele>
        <time>2018-02-21T07:27:47Z</time>
      </trkpt>
      <trkpt lat="44.2873" lon="4.75081">
        <ele>55</ele>
        <time>2018-02-21T07:27:49Z</time>
      </trkpt>
      <trkpt lat="44.28715" lon="4.75081">
        <ele>55</ele>
        <time>2018-02-21T07:27:51Z</time>
      </trkpt>
      <trkpt lat="44.287" lon="4.75081">
        <ele>55</ele>
        <time>2018-02-21T07:27:53Z</time>
      </trkpt>
      <trkpt lat="44.28686" lon="4.75082">
        <ele>55</ele>
        <time>2018-02-21T07:27:55Z</time>
      </trkpt>
      <trkpt lat="44.28669" lon="4.75082">
        <ele>54</ele>
        <time>2018-02-21T07:27:58Z</time>
      </trkpt>
      <trkpt lat="44.28661" lon="4.7508">
        <ele>54</ele>
        <time>2018-02-21T07:28:00Z</time>
      </trkpt>
      <trkpt lat="44.28653" lon="4.75076">
        <ele>54</ele>
        <time>2018-02-21T07:28:02Z</time>
      </trkpt>
      <trkpt lat="44.28644" lon="4.75077">
        <ele>53</ele>
        <time>2018-02-21T07:28:04Z</time>
      </trkpt>
      <trkpt lat="44.28629" lon="4.7508">
        <ele>53</ele>
        <time>2018-02-21T07:28:07Z</time>
      </trkpt>
      <trkpt lat="44.28616" lon="4.7508">
        <ele>54</ele>
        <time>2018-02-21T07:28:09Z</time>
      </trkpt>
      <trkpt lat="44.28602" lon="4.7508">
        <ele>54</ele>
        <time>2018-02-21T07:28:11Z</time>
      </trkpt>
      <trkpt lat="44.2858" lon="4.7508">
        <ele>54</ele>
        <time>2018-02-21T07:28:14Z</time>
      </trkpt>
      <trkpt lat="44.28564" lon="4.75079">
        <ele>54</ele>
        <time>2018-02-21T07:28:16Z</time>
      </trkpt>
      <trkpt lat="44.28548" lon="4.75079">
        <ele>54</ele>
        <time>2018-02-21T07:28:18Z</time>
      </trkpt>
      <trkpt lat="44.28533" lon="4.75079">
        <ele>54</ele>
        <time>2018-02-21T07:28:20Z</time>
      </trkpt>
      <trkpt lat="44.28519" lon="4.75078">
        <ele>54</ele>
        <time>2018-02-21T07:28:22Z</time>
      </trkpt>
      <trkpt lat="44.28506" lon="4.75077">
        <ele>54</ele>
        <time>2018-02-21T07:28:24Z</time>
      </trkpt>
      <trkpt lat="44.28486" lon="4.75077">
        <ele>54</ele>
        <time>2018-02-21T07:28:27Z</time>
      </trkpt>
      <trkpt lat="44.28472" lon="4.75077">
        <ele>54</ele>
        <time>2018-02-21T07:28:29Z</time>
      </trkpt>
      <trkpt lat="44.28458" lon="4.75077">
        <ele>54</ele>
        <time>2018-02-21T07:28:31Z</time>
      </trkpt>
      <trkpt lat="44.28445" lon="4.75077">
        <ele>54</ele>
        <time>2018-02-21T07:28:33Z</time>
      </trkpt>
      <trkpt lat="44.28433" lon="4.75073">
        <ele>54</ele>
        <time>2018-02-21T07:28:35Z</time>
      </trkpt>
      <trkpt lat="44.2842" lon="4.75071">
        <ele>54</ele>
        <time>2018-02-21T07:28:37Z</time>
      </trkpt>
      <trkpt lat="44.28399" lon="4.7507">
        <ele>54</ele>
        <time>2018-02-21T07:28:40Z</time>
      </trkpt>
      <trkpt lat="44.28385" lon="4.75073">
        <ele>53</ele>
        <time>2018-02-21T07:28:42Z</time>
      </trkpt>
      <trkpt lat="44.2837" lon="4.75075">
        <ele>52</ele>
        <time>2018-02-21T07:28:44Z</time>
      </trkpt>
      <trkpt lat="44.28348" lon="4.75075">
        <ele>51</ele>
        <time>2018-02-21T07:28:47Z</time>
      </trkpt>
      <trkpt lat="44.28334" lon="4.75074">
        <ele>51</ele>
        <time>2018-02-21T07:28:49Z</time>
      </trkpt>
      <trkpt lat="44.2832" lon="4.75074">
        <ele>51</ele>
        <time>2018-02-21T07:28:51Z</time>
      </trkpt>
      <trkpt lat="44.28307" lon="4.75074">
        <ele>51</ele>
        <time>2018-02-21T07:28:53Z</time>
      </trkpt>
      <trkpt lat="44.28294" lon="4.75073">
        <ele>51</ele>
        <time>2018-02-21T07:28:55Z</time>
      </trkpt>
      <trkpt lat="44.28285" lon="4.75073">
        <ele>51</ele>
        <time>2018-02-21T07:28:57Z</time>
      </trkpt>
      <trkpt lat="44.28277" lon="4.75071">
        <ele>51</ele>
        <time>2018-02-21T07:28:59Z</time>
      </trkpt>
      <trkpt lat="44.2827" lon="4.75069">
        <ele>51</ele>
        <time>2018-02-21T07:29:01Z</time>
      </trkpt>
      <trkpt lat="44.28262" lon="4.7507">
        <ele>51</ele>
        <time>2018-02-21T07:29:03Z</time>
      </trkpt>
      <trkpt lat="44.28255" lon="4.75072">
        <ele>51</ele>
        <time>2018-02-21T07:29:05Z</time>
      </trkpt>
      <trkpt lat="44.28247" lon="4.75072">
        <ele>51</ele>
        <time>2018-02-21T07:29:07Z</time>
      </trkpt>
      <trkpt lat="44.28238" lon="4.75073">
        <ele>51</ele>
        <time>2018-02-21T07:29:09Z</time>
      </trkpt>
      <trkpt lat="44.28223" lon="4.75074">
        <ele>51</ele>
        <time>2018-02-21T07:29:12Z</time>
      </trkpt>
      <trkpt lat="44.28214" lon="4.75072">
        <ele>51</ele>
        <time>2018-02-21T07:29:14Z</time>
      </trkpt>
      <trkpt lat="44.28201" lon="4.75071">
        <ele>50</ele>
        <time>2018-02-21T07:29:17Z</time>
      </trkpt>
      <trkpt lat="44.28192" lon="4.75064">
        <ele>50</ele>
        <time>2018-02-21T07:29:20Z</time>
      </trkpt>
      <trkpt lat="44.28187" lon="4.75058">
        <ele>49</ele>
        <time>2018-02-21T07:29:22Z</time>
      </trkpt>
      <trkpt lat="44.28186" lon="4.75048">
        <ele>49</ele>
        <time>2018-02-21T07:29:24Z</time>
      </trkpt>
      <trkpt lat="44.28188" lon="4.75038">
        <ele>49</ele>
        <time>2018-02-21T07:29:26Z</time>
      </trkpt>
      <trkpt lat="44.28192" lon="4.75026">
        <ele>48</ele>
        <time>2018-02-21T07:29:28Z</time>
      </trkpt>
      <trkpt lat="44.28194" lon="4.75013">
        <ele>49</ele>
        <time>2018-02-21T07:29:30Z</time>
      </trkpt>
      <trkpt lat="44.28194" lon="4.74994">
        <ele>48</ele>
        <time>2018-02-21T07:29:33Z</time>
      </trkpt>
      <trkpt lat="44.28189" lon="4.74987">
        <ele>48</ele>
        <time>2018-02-21T07:29:35Z</time>
      </trkpt>
      <trkpt lat="44.28181" lon="4.74981">
        <ele>48</ele>
        <time>2018-02-21T07:29:37Z</time>
      </trkpt>
      <trkpt lat="44.28173" lon="4.74978">
        <ele>48</ele>
        <time>2018-02-21T07:29:39Z</time>
      </trkpt>
      <trkpt lat="44.28165" lon="4.74972">
        <ele>48</ele>
        <time>2018-02-21T07:29:41Z</time>
      </trkpt>
      <trkpt lat="44.28157" lon="4.74954">
        <ele>50</ele>
        <time>2018-02-21T07:29:44Z</time>
      </trkpt>
      <trkpt lat="44.28149" lon="4.74946">
        <ele>50</ele>
        <time>2018-02-21T07:29:46Z</time>
      </trkpt>
      <trkpt lat="44.28139" lon="4.74943">
        <ele>50</ele>
        <time>2018-02-21T07:29:48Z</time>
      </trkpt>
      <trkpt lat="44.28127" lon="4.74941">
        <ele>49</ele>
        <time>2018-02-21T07:29:50Z</time>
      </trkpt>
      <trkpt lat="44.28109" lon="4.74939">
        <ele>49</ele>
        <time>2018-02-21T07:29:53Z</time>
      </trkpt>
      <trkpt lat="44.28091" lon="4.74938">
        <ele>49</ele>
        <time>2018-02-21T07:29:56Z</time>
      </trkpt>
      <trkpt lat="44.2808" lon="4.74938">
        <ele>49</ele>
        <time>2018-02-21T07:29:58Z</time>
      </trkpt>
      <trkpt lat="44.28067" lon="4.74937">
        <ele>49</ele>
        <time>2018-02-21T07:30:01Z</time>
      </trkpt>
      <trkpt lat="44.28063" lon="4.74929">
        <ele>49</ele>
        <time>2018-02-21T07:30:03Z</time>
      </trkpt>
      <trkpt lat="44.28063" lon="4.74916">
        <ele>49</ele>
        <time>2018-02-21T07:30:05Z</time>
      </trkpt>
      <trkpt lat="44.28065" lon="4.74896">
        <ele>49</ele>
        <time>2018-02-21T07:30:08Z</time>
      </trkpt>
      <trkpt lat="44.28061" lon="4.74885">
        <ele>50</ele>
        <time>2018-02-21T07:30:10Z</time>
      </trkpt>
      <trkpt lat="44.28051" lon="4.74883">
        <ele>50</ele>
        <time>2018-02-21T07:30:12Z</time>
      </trkpt>
      <trkpt lat="44.28042" lon="4.74886">
        <ele>50</ele>
        <time>2018-02-21T07:30:14Z</time>
      </trkpt>
      <trkpt lat="44.28033" lon="4.74886">
        <ele>49</ele>
        <time>2018-02-21T07:30:16Z</time>
      </trkpt>
      <trkpt lat="44.28027" lon="4.74876">
        <ele>49</ele>
        <time>2018-02-21T07:30:19Z</time>
      </trkpt>
      <trkpt lat="44.28025" lon="4.74868">
        <ele>49</ele>
        <time>2018-02-21T07:30:21Z</time>
      </trkpt>
      <trkpt lat="44.28024" lon="4.7486">
        <ele>48</ele>
        <time>2018-02-21T07:30:23Z</time>
      </trkpt>
      <trkpt lat="44.28025" lon="4.74853">
        <ele>49</ele>
        <time>2018-02-21T07:30:25Z</time>
      </trkpt>
      <trkpt lat="44.28024" lon="4.74851">
        <ele>49</ele>
        <time>2018-02-21T07:30:28Z</time>
      </trkpt>
      <trkpt lat="44.28024" lon="4.74851">
        <ele>49</ele>
        <time>2018-02-21T07:30:30Z</time>
      </trkpt>
      <trkpt lat="44.28023" lon="4.74851">
        <ele>49</ele>
        <time>2018-02-21T07:30:32Z</time>
      </trkpt>
      <trkpt lat="44.28022" lon="4.7485">
        <ele>49</ele>
        <time>2018-02-21T07:30:35Z</time>
      </trkpt>
      <trkpt lat="44.28022" lon="4.74849">
        <ele>49</ele>
        <time>2018-02-21T07:30:37Z</time>
      </trkpt>
      <trkpt lat="44.28021" lon="4.74849">
        <ele>48</ele>
        <time>2018-02-21T07:30:39Z</time>
      </trkpt>
      <trkpt lat="44.28021" lon="4.74849">
        <ele>49</ele>
        <time>2018-02-21T07:30:41Z</time>
      </trkpt>
      <trkpt lat="44.2802" lon="4.74849">
        <ele>49</ele>
        <time>2018-02-21T07:30:45Z</time>
      </trkpt>
      <trkpt lat="44.2802" lon="4.74849">
        <ele>49</ele>
        <time>2018-02-21T07:30:50Z</time>
      </trkpt>
      <trkpt lat="44.2802" lon="4.74849">
        <ele>49</ele>
        <time>2018-02-21T07:30:52Z</time>
      </trkpt>
      <trkpt lat="44.2802" lon="4.74849">
        <ele>49</ele>
        <time>2018-02-21T07:30:56Z</time>
      </trkpt>
      <trkpt lat="44.28019" lon="4.7485">
        <ele>49</ele>
        <time>2018-02-21T07:30:58Z</time>
      </trkpt>
      <trkpt lat="44.28018" lon="4.74851">
        <ele>49</ele>
        <time>2018-02-21T07:31:01Z</time>
      </trkpt>
      <trkpt lat="44.28017" lon="4.74853">
        <ele>49</ele>
        <time>2018-02-21T07:31:03Z</time>
      </trkpt>
      <trkpt lat="44.28017" lon="4.74854">
        <ele>49</ele>
        <time>2018-02-21T07:31:05Z</time>
      </trkpt>
      <trkpt lat="44.28017" lon="4.74854">
        <ele>49</ele>
        <time>2018-02-21T07:31:07Z</time>
      </trkpt>
      <trkpt lat="44.28017" lon="4.74854">
        <ele>49</ele>
        <time>2018-02-21T07:31:10Z</time>
      </trkpt>
      <trkpt lat="44.28017" lon="4.74854">
        <ele>49</ele>
        <time>2018-02-21T07:31:16Z</time>
      </trkpt>
      <trkpt lat="44.28017" lon="4.74854">
        <ele>50</ele>
        <time>2018-02-21T07:31:18Z</time>
      </trkpt>
      <trkpt lat="44.28017" lon="4.74854">
        <ele>51</ele>
        <time>2018-02-21T07:31:21Z</time>
      </trkpt>
      <trkpt lat="44.28017" lon="4.74854">
        <ele>51</ele>
        <time>2018-02-21T07:31:24Z</time>
      </trkpt>
      <trkpt lat="44.28017" lon="4.74853">
        <ele>51</ele>
        <time>2018-02-21T07:31:26Z</time>
      </trkpt>
      <trkpt lat="44.28017" lon="4.74853">
        <ele>51</ele>
        <time>2018-02-21T07:31:28Z</time>
      </trkpt>
      <trkpt lat="44.28017" lon="4.74853">
        <ele>50</ele>
        <time>2018-02-21T07:31:31Z</time>
      </trkpt>
      <trkpt lat="44.28017" lon="4.74852">
        <ele>49</ele>
        <time>2018-02-21T07:31:34Z</time>
      </trkpt>
      <trkpt lat="44.28017" lon="4.74852">
        <ele>49</ele>
        <time>2018-02-21T07:31:36Z</time>
      </trkpt>
      <trkpt lat="44.28017" lon="4.74852">
        <ele>49</ele>
        <time>2018-02-21T07:31:39Z</time>
      </trkpt>
      <trkpt lat="44.28018" lon="4.74852">
        <ele>49</ele>
        <time>2018-02-21T07:31:41Z</time>
      </trkpt>
      <trkpt lat="44.28018" lon="4.74852">
        <ele>49</ele>
        <time>2018-02-21T07:31:43Z</time>
      </trkpt>
      <trkpt lat="44.28019" lon="4.74851">
        <ele>49</ele>
        <time>2018-02-21T07:31:46Z</time>
      </trkpt>
      <trkpt lat="44.28019" lon="4.74851">
        <ele>49</ele>
        <time>2018-02-21T07:31:48Z</time>
      </trkpt>
      <trkpt lat="44.2802" lon="4.74851">
        <ele>49</ele>
        <time>2018-02-21T07:31:51Z</time>
      </trkpt>
      <trkpt lat="44.2802" lon="4.7485">
        <ele>50</ele>
        <time>2018-02-21T07:31:53Z</time>
      </trkpt>
      <trkpt lat="44.2802" lon="4.7485">
        <ele>50</ele>
        <time>2018-02-21T07:31:55Z</time>
      </trkpt>
      <trkpt lat="44.2802" lon="4.74849">
        <ele>50</ele>
        <time>2018-02-21T07:31:58Z</time>
      </trkpt>
      <trkpt lat="44.28021" lon="4.74849">
        <ele>49</ele>
        <time>2018-02-21T07:32:00Z</time>
      </trkpt>
      <trkpt lat="44.28021" lon="4.74849">
        <ele>49</ele>
        <time>2018-02-21T07:32:02Z</time>
      </trkpt>
      <trkpt lat="44.28021" lon="4.74849">
        <ele>49</ele>
        <time>2018-02-21T07:32:05Z</time>
      </trkpt>
      <trkpt lat="44.28021" lon="4.74849">
        <ele>49</ele>
        <time>2018-02-21T07:32:08Z</time>
      </trkpt>
      <trkpt lat="44.28021" lon="4.74851">
        <ele>49</ele>
        <time>2018-02-21T07:32:10Z</time>
      </trkpt>
      <trkpt lat="44.28022" lon="4.74855">
        <ele>49</ele>
        <time>2018-02-21T07:32:13Z</time>
      </trkpt>
      <trkpt lat="44.28022" lon="4.74861">
        <ele>49</ele>
        <time>2018-02-21T07:32:16Z</time>
      </trkpt>
      <trkpt lat="44.28022" lon="4.74866">
        <ele>50</ele>
        <time>2018-02-21T07:32:18Z</time>
      </trkpt>
      <trkpt lat="44.28019" lon="4.7487">
        <ele>50</ele>
        <time>2018-02-21T07:32:20Z</time>
      </trkpt>
      <trkpt lat="44.28016" lon="4.74878">
        <ele>50</ele>
        <time>2018-02-21T07:32:22Z</time>
      </trkpt>
      <trkpt lat="44.28016" lon="4.74887">
        <ele>50</ele>
        <time>2018-02-21T07:32:24Z</time>
      </trkpt>
      <trkpt lat="44.28016" lon="4.74901">
        <ele>50</ele>
        <time>2018-02-21T07:32:27Z</time>
      </trkpt>
      <trkpt lat="44.28016" lon="4.74911">
        <ele>50</ele>
        <time>2018-02-21T07:32:29Z</time>
      </trkpt>
      <trkpt lat="44.28016" lon="4.74927">
        <ele>50</ele>
        <time>2018-02-21T07:32:32Z</time>
      </trkpt>
      <trkpt lat="44.28016" lon="4.74937">
        <ele>49</ele>
        <time>2018-02-21T07:32:34Z</time>
      </trkpt>
      <trkpt lat="44.28018" lon="4.74947">
        <ele>49</ele>
        <time>2018-02-21T07:32:36Z</time>
      </trkpt>
      <trkpt lat="44.28025" lon="4.74951">
        <ele>48</ele>
        <time>2018-02-21T07:32:38Z</time>
      </trkpt>
      <trkpt lat="44.28035" lon="4.74946">
        <ele>48</ele>
        <time>2018-02-21T07:32:41Z</time>
      </trkpt>
      <trkpt lat="44.28044" lon="4.74944">
        <ele>48</ele>
        <time>2018-02-21T07:32:43Z</time>
      </trkpt>
      <trkpt lat="44.28053" lon="4.74942">
        <ele>49</ele>
        <time>2018-02-21T07:32:45Z</time>
      </trkpt>
      <trkpt lat="44.28063" lon="4.74941">
        <ele>49</ele>
        <time>2018-02-21T07:32:47Z</time>
      </trkpt>
      <trkpt lat="44.28072" lon="4.74943">
        <ele>49</ele>
        <time>2018-02-21T07:32:49Z</time>
      </trkpt>
      <trkpt lat="44.28083" lon="4.74945">
        <ele>50</ele>
        <time>2018-02-21T07:32:52Z</time>
      </trkpt>
      <trkpt lat="44.28092" lon="4.74945">
        <ele>49</ele>
        <time>2018-02-21T07:32:54Z</time>
      </trkpt>
      <trkpt lat="44.28101" lon="4.74945">
        <ele>49</ele>
        <time>2018-02-21T07:32:56Z</time>
      </trkpt>
      <trkpt lat="44.28109" lon="4.74947">
        <ele>48</ele>
        <time>2018-02-21T07:32:58Z</time>
      </trkpt>
      <trkpt lat="44.28121" lon="4.74948">
        <ele>48</ele>
        <time>2018-02-21T07:33:01Z</time>
      </trkpt>
      <trkpt lat="44.28129" lon="4.74949">
        <ele>48</ele>
        <time>2018-02-21T07:33:03Z</time>
      </trkpt>
      <trkpt lat="44.2814" lon="4.74953">
        <ele>48</ele>
        <time>2018-02-21T07:33:06Z</time>
      </trkpt>
      <trkpt lat="44.28146" lon="4.74959">
        <ele>48</ele>
        <time>2018-02-21T07:33:08Z</time>
      </trkpt>
      <trkpt lat="44.28151" lon="4.74965">
        <ele>48</ele>
        <time>2018-02-21T07:33:10Z</time>
      </trkpt>
      <trkpt lat="44.28156" lon="4.74973">
        <ele>48</ele>
        <time>2018-02-21T07:33:12Z</time>
      </trkpt>
      <trkpt lat="44.28166" lon="4.74979">
        <ele>48</ele>
        <time>2018-02-21T07:33:15Z</time>
      </trkpt>
      <trkpt lat="44.28173" lon="4.74981">
        <ele>48</ele>
        <time>2018-02-21T07:33:18Z</time>
      </trkpt>
      <trkpt lat="44.2818" lon="4.74982">
        <ele>50</ele>
        <time>2018-02-21T07:33:20Z</time>
      </trkpt>
      <trkpt lat="44.28188" lon="4.74987">
        <ele>50</ele>
        <time>2018-02-21T07:33:23Z</time>
      </trkpt>
      <trkpt lat="44.28188" lon="4.75001">
        <ele>49</ele>
        <time>2018-02-21T07:33:26Z</time>
      </trkpt>
      <trkpt lat="44.28186" lon="4.7501">
        <ele>48</ele>
        <time>2018-02-21T07:33:28Z</time>
      </trkpt>
      <trkpt lat="44.28184" lon="4.7502">
        <ele>47</ele>
        <time>2018-02-21T07:33:30Z</time>
      </trkpt>
      <trkpt lat="44.28182" lon="4.75029">
        <ele>47</ele>
        <time>2018-02-21T07:33:32Z</time>
      </trkpt>
      <trkpt lat="44.2818" lon="4.75038">
        <ele>46</ele>
        <time>2018-02-21T07:33:34Z</time>
      </trkpt>
      <trkpt lat="44.28178" lon="4.75053">
        <ele>47</ele>
        <time>2018-02-21T07:33:37Z</time>
      </trkpt>
      <trkpt lat="44.28177" lon="4.75068">
        <ele>47</ele>
        <time>2018-02-21T07:33:40Z</time>
      </trkpt>
      <trkpt lat="44.28177" lon="4.75079">
        <ele>47</ele>
        <time>2018-02-21T07:33:42Z</time>
      </trkpt>
      <trkpt lat="44.28178" lon="4.75097">
        <ele>48</ele>
        <time>2018-02-21T07:33:45Z</time>
      </trkpt>
      <trkpt lat="44.28176" lon="4.75108">
        <ele>48</ele>
        <time>2018-02-21T07:33:47Z</time>
      </trkpt>
      <trkpt lat="44.28172" lon="4.75124">
        <ele>48</ele>
        <time>2018-02-21T07:33:50Z</time>
      </trkpt>
      <trkpt lat="44.28166" lon="4.75133">
        <ele>48</ele>
        <time>2018-02-21T07:33:52Z</time>
      </trkpt>
      <trkpt lat="44.28158" lon="4.75137">
        <ele>49</ele>
        <time>2018-02-21T07:33:54Z</time>
      </trkpt>
      <trkpt lat="44.2815" lon="4.7514">
        <ele>48</ele>
        <time>2018-02-21T07:33:56Z</time>
      </trkpt>
      <trkpt lat="44.28141" lon="4.75142">
        <ele>49</ele>
        <time>2018-02-21T07:33:58Z</time>
      </trkpt>
      <trkpt lat="44.28132" lon="4.75145">
        <ele>49</ele>
        <time>2018-02-21T07:34:00Z</time>
      </trkpt>
      <trkpt lat="44.28119" lon="4.75148">
        <ele>48</ele>
        <time>2018-02-21T07:34:03Z</time>
      </trkpt>
      <trkpt lat="44.28107" lon="4.75151">
        <ele>49</ele>
        <time>2018-02-21T07:34:06Z</time>
      </trkpt>
      <trkpt lat="44.28098" lon="4.75153">
        <ele>48</ele>
        <time>2018-02-21T07:34:08Z</time>
      </trkpt>
      <trkpt lat="44.2809" lon="4.75155">
        <ele>48</ele>
        <time>2018-02-21T07:34:10Z</time>
      </trkpt>
      <trkpt lat="44.28081" lon="4.75157">
        <ele>48</ele>
        <time>2018-02-21T07:34:12Z</time>
      </trkpt>
      <trkpt lat="44.28072" lon="4.75158">
        <ele>48</ele>
        <time>2018-02-21T07:34:14Z</time>
      </trkpt>
      <trkpt lat="44.28063" lon="4.7516">
        <ele>48</ele>
        <time>2018-02-21T07:34:16Z</time>
      </trkpt>
      <trkpt lat="44.2805" lon="4.75161">
        <ele>48</ele>
        <time>2018-02-21T07:34:19Z</time>
      </trkpt>
      <trkpt lat="44.28041" lon="4.75163">
        <ele>49</ele>
        <time>2018-02-21T07:34:21Z</time>
      </trkpt>
      <trkpt lat="44.28029" lon="4.75164">
        <ele>49</ele>
        <time>2018-02-21T07:34:24Z</time>
      </trkpt>
      <trkpt lat="44.2802" lon="4.75166">
        <ele>49</ele>
        <time>2018-02-21T07:34:26Z</time>
      </trkpt>
      <trkpt lat="44.28012" lon="4.75167">
        <ele>48</ele>
        <time>2018-02-21T07:34:28Z</time>
      </trkpt>
      <trkpt lat="44.28003" lon="4.75168">
        <ele>48</ele>
        <time>2018-02-21T07:34:30Z</time>
      </trkpt>
      <trkpt lat="44.27995" lon="4.75169">
        <ele>48</ele>
        <time>2018-02-21T07:34:32Z</time>
      </trkpt>
      <trkpt lat="44.27982" lon="4.7517">
        <ele>49</ele>
        <time>2018-02-21T07:34:35Z</time>
      </trkpt>
      <trkpt lat="44.27974" lon="4.75171">
        <ele>49</ele>
        <time>2018-02-21T07:34:37Z</time>
      </trkpt>
      <trkpt lat="44.27961" lon="4.75173">
        <ele>49</ele>
        <time>2018-02-21T07:34:40Z</time>
      </trkpt>
      <trkpt lat="44.27954" lon="4.75176">
        <ele>49</ele>
        <time>2018-02-21T07:34:42Z</time>
      </trkpt>
      <trkpt lat="44.27946" lon="4.75177">
        <ele>49</ele>
        <time>2018-02-21T07:34:44Z</time>
      </trkpt>
      <trkpt lat="44.27939" lon="4.7518">
        <ele>49</ele>
        <time>2018-02-21T07:34:46Z</time>
      </trkpt>
      <trkpt lat="44.2793" lon="4.75189">
        <ele>50</ele>
        <time>2018-02-21T07:34:49Z</time>
      </trkpt>
      <trkpt lat="44.27925" lon="4.75198">
        <ele>50</ele>
        <time>2018-02-21T07:34:51Z</time>
      </trkpt>
      <trkpt lat="44.27919" lon="4.75212">
        <ele>51</ele>
        <time>2018-02-21T07:34:54Z</time>
      </trkpt>
      <trkpt lat="44.27915" lon="4.75222">
        <ele>51</ele>
        <time>2018-02-21T07:34:56Z</time>
      </trkpt>
      <trkpt lat="44.27907" lon="4.75237">
        <ele>51</ele>
        <time>2018-02-21T07:34:59Z</time>
      </trkpt>
      <trkpt lat="44.27902" lon="4.75246">
        <ele>51</ele>
        <time>2018-02-21T07:35:01Z</time>
      </trkpt>
      <trkpt lat="44.27898" lon="4.75256">
        <ele>51</ele>
        <time>2018-02-21T07:35:03Z</time>
      </trkpt>
      <trkpt lat="44.27893" lon="4.75267">
        <ele>52</ele>
        <time>2018-02-21T07:35:05Z</time>
      </trkpt>
      <trkpt lat="44.27887" lon="4.75282">
        <ele>52</ele>
        <time>2018-02-21T07:35:08Z</time>
      </trkpt>
      <trkpt lat="44.27882" lon="4.75293">
        <ele>52</ele>
        <time>2018-02-21T07:35:10Z</time>
      </trkpt>
      <trkpt lat="44.27875" lon="4.7531">
        <ele>52</ele>
        <time>2018-02-21T07:35:13Z</time>
      </trkpt>
      <trkpt lat="44.2787" lon="4.75321">
        <ele>52</ele>
        <time>2018-02-21T07:35:15Z</time>
      </trkpt>
      <trkpt lat="44.27865" lon="4.75332">
        <ele>53</ele>
        <time>2018-02-21T07:35:17Z</time>
      </trkpt>
      <trkpt lat="44.27858" lon="4.75348">
        <ele>53</ele>
        <time>2018-02-21T07:35:20Z</time>
      </trkpt>
      <trkpt lat="44.27853" lon="4.75359">
        <ele>53</ele>
        <time>2018-02-21T07:35:22Z</time>
      </trkpt>
      <trkpt lat="44.27846" lon="4.75376">
        <ele>53</ele>
        <time>2018-02-21T07:35:25Z</time>
      </trkpt>
      <trkpt lat="44.2784" lon="4.75386">
        <ele>53</ele>
        <time>2018-02-21T07:35:27Z</time>
      </trkpt>
      <trkpt lat="44.27835" lon="4.75397">
        <ele>53</ele>
        <time>2018-02-21T07:35:29Z</time>
      </trkpt>
      <trkpt lat="44.2783" lon="4.75407">
        <ele>53</ele>
        <time>2018-02-21T07:35:31Z</time>
      </trkpt>
      <trkpt lat="44.27825" lon="4.75417">
        <ele>53</ele>
        <time>2018-02-21T07:35:33Z</time>
      </trkpt>
      <trkpt lat="44.2782" lon="4.75427">
        <ele>53</ele>
        <time>2018-02-21T07:35:35Z</time>
      </trkpt>
      <trkpt lat="44.27812" lon="4.75443">
        <ele>53</ele>
        <time>2018-02-21T07:35:38Z</time>
      </trkpt>
      <trkpt lat="44.27805" lon="4.75459">
        <ele>53</ele>
        <time>2018-02-21T07:35:41Z</time>
      </trkpt>
      <trkpt lat="44.278" lon="4.7547">
        <ele>53</ele>
        <time>2018-02-21T07:35:43Z</time>
      </trkpt>
      <trkpt lat="44.27793" lon="4.75486">
        <ele>53</ele>
        <time>2018-02-21T07:35:46Z</time>
      </trkpt>
      <trkpt lat="44.27789" lon="4.75498">
        <ele>53</ele>
        <time>2018-02-21T07:35:48Z</time>
      </trkpt>
      <trkpt lat="44.27784" lon="4.75516">
        <ele>53</ele>
        <time>2018-02-21T07:35:51Z</time>
      </trkpt>
      <trkpt lat="44.27782" lon="4.75534">
        <ele>54</ele>
        <time>2018-02-21T07:35:54Z</time>
      </trkpt>
      <trkpt lat="44.27781" lon="4.75546">
        <ele>54</ele>
        <time>2018-02-21T07:35:56Z</time>
      </trkpt>
      <trkpt lat="44.27779" lon="4.75564">
        <ele>54</ele>
        <time>2018-02-21T07:35:59Z</time>
      </trkpt>
      <trkpt lat="44.27778" lon="4.75575">
        <ele>54</ele>
        <time>2018-02-21T07:36:01Z</time>
      </trkpt>
      <trkpt lat="44.27777" lon="4.75587">
        <ele>54</ele>
        <time>2018-02-21T07:36:03Z</time>
      </trkpt>
      <trkpt lat="44.27776" lon="4.75597">
        <ele>54</ele>
        <time>2018-02-21T07:36:05Z</time>
      </trkpt>
      <trkpt lat="44.27775" lon="4.75614">
        <ele>55</ele>
        <time>2018-02-21T07:36:08Z</time>
      </trkpt>
      <trkpt lat="44.27774" lon="4.75625">
        <ele>55</ele>
        <time>2018-02-21T07:36:10Z</time>
      </trkpt>
      <trkpt lat="44.27773" lon="4.75636">
        <ele>56</ele>
        <time>2018-02-21T07:36:12Z</time>
      </trkpt>
      <trkpt lat="44.27772" lon="4.75653">
        <ele>56</ele>
        <time>2018-02-21T07:36:15Z</time>
      </trkpt>
      <trkpt lat="44.2777" lon="4.7567">
        <ele>55</ele>
        <time>2018-02-21T07:36:18Z</time>
      </trkpt>
      <trkpt lat="44.27768" lon="4.75688">
        <ele>55</ele>
        <time>2018-02-21T07:36:21Z</time>
      </trkpt>
      <trkpt lat="44.27768" lon="4.75704">
        <ele>55</ele>
        <time>2018-02-21T07:36:24Z</time>
      </trkpt>
      <trkpt lat="44.27766" lon="4.75721">
        <ele>56</ele>
        <time>2018-02-21T07:36:27Z</time>
      </trkpt>
      <trkpt lat="44.27764" lon="4.75732">
        <ele>56</ele>
        <time>2018-02-21T07:36:29Z</time>
      </trkpt>
      <trkpt lat="44.27762" lon="4.75743">
        <ele>57</ele>
        <time>2018-02-21T07:36:31Z</time>
      </trkpt>
      <trkpt lat="44.27757" lon="4.75759">
        <ele>57</ele>
        <time>2018-02-21T07:36:34Z</time>
      </trkpt>
      <trkpt lat="44.27754" lon="4.75769">
        <ele>57</ele>
        <time>2018-02-21T07:36:36Z</time>
      </trkpt>
      <trkpt lat="44.27752" lon="4.7578">
        <ele>57</ele>
        <time>2018-02-21T07:36:38Z</time>
      </trkpt>
      <trkpt lat="44.27749" lon="4.75789">
        <ele>57</ele>
        <time>2018-02-21T07:36:40Z</time>
      </trkpt>
      <trkpt lat="44.27745" lon="4.75801">
        <ele>57</ele>
        <time>2018-02-21T07:36:43Z</time>
      </trkpt>
      <trkpt lat="44.27744" lon="4.75807">
        <ele>57</ele>
        <time>2018-02-21T07:36:46Z</time>
      </trkpt>
      <trkpt lat="44.27742" lon="4.75811">
        <ele>57</ele>
        <time>2018-02-21T07:36:48Z</time>
      </trkpt>
      <trkpt lat="44.27739" lon="4.75816">
        <ele>57</ele>
        <time>2018-02-21T07:36:50Z</time>
      </trkpt>
      <trkpt lat="44.27735" lon="4.75824">
        <ele>57</ele>
        <time>2018-02-21T07:36:53Z</time>
      </trkpt>
      <trkpt lat="44.27734" lon="4.75831">
        <ele>57</ele>
        <time>2018-02-21T07:36:55Z</time>
      </trkpt>
      <trkpt lat="44.2774" lon="4.75839">
        <ele>57</ele>
        <time>2018-02-21T07:36:58Z</time>
      </trkpt>
      <trkpt lat="44.27746" lon="4.7584">
        <ele>58</ele>
        <time>2018-02-21T07:37:00Z</time>
      </trkpt>
      <trkpt lat="44.27752" lon="4.7584">
        <ele>58</ele>
        <time>2018-02-21T07:37:02Z</time>
      </trkpt>
      <trkpt lat="44.27757" lon="4.75842">
        <ele>58</ele>
        <time>2018-02-21T07:37:04Z</time>
      </trkpt>
      <trkpt lat="44.27762" lon="4.75844">
        <ele>58</ele>
        <time>2018-02-21T07:37:06Z</time>
      </trkpt>
      <trkpt lat="44.27763" lon="4.75849">
        <ele>57</ele>
        <time>2018-02-21T07:37:09Z</time>
      </trkpt>
      <trkpt lat="44.27763" lon="4.75852">
        <ele>56</ele>
        <time>2018-02-21T07:37:11Z</time>
      </trkpt>
      <trkpt lat="44.2776" lon="4.75853">
        <ele>55</ele>
        <time>2018-02-21T07:37:13Z</time>
      </trkpt>
      <trkpt lat="44.27754" lon="4.75853">
        <ele>55</ele>
        <time>2018-02-21T07:37:16Z</time>
      </trkpt>
      <trkpt lat="44.27749" lon="4.75855">
        <ele>55</ele>
        <time>2018-02-21T07:37:18Z</time>
      </trkpt>
      <trkpt lat="44.27743" lon="4.75862">
        <ele>55</ele>
        <time>2018-02-21T07:37:20Z</time>
      </trkpt>
      <trkpt lat="44.2774" lon="4.75872">
        <ele>56</ele>
        <time>2018-02-21T07:37:22Z</time>
      </trkpt>
      <trkpt lat="44.27737" lon="4.75892">
        <ele>55</ele>
        <time>2018-02-21T07:37:25Z</time>
      </trkpt>
      <trkpt lat="44.27733" lon="4.75904">
        <ele>55</ele>
        <time>2018-02-21T07:37:27Z</time>
      </trkpt>
      <trkpt lat="44.2773" lon="4.75915">
        <ele>55</ele>
        <time>2018-02-21T07:37:29Z</time>
      </trkpt>
      <trkpt lat="44.27725" lon="4.75932">
        <ele>54</ele>
        <time>2018-02-21T07:37:32Z</time>
      </trkpt>
      <trkpt lat="44.27723" lon="4.75943">
        <ele>54</ele>
        <time>2018-02-21T07:37:34Z</time>
      </trkpt>
      <trkpt lat="44.27719" lon="4.75961">
        <ele>54</ele>
        <time>2018-02-21T07:37:37Z</time>
      </trkpt>
      <trkpt lat="44.27718" lon="4.75974">
        <ele>54</ele>
        <time>2018-02-21T07:37:39Z</time>
      </trkpt>
      <trkpt lat="44.27717" lon="4.75985">
        <ele>54</ele>
        <time>2018-02-21T07:37:41Z</time>
      </trkpt>
      <trkpt lat="44.27718" lon="4.76002">
        <ele>54</ele>
        <time>2018-02-21T07:37:44Z</time>
      </trkpt>
      <trkpt lat="44.27719" lon="4.76014">
        <ele>54</ele>
        <time>2018-02-21T07:37:46Z</time>
      </trkpt>
      <trkpt lat="44.27719" lon="4.76026">
        <ele>54</ele>
        <time>2018-02-21T07:37:48Z</time>
      </trkpt>
      <trkpt lat="44.27721" lon="4.76045">
        <ele>55</ele>
        <time>2018-02-21T07:37:51Z</time>
      </trkpt>
      <trkpt lat="44.27724" lon="4.76063">
        <ele>55</ele>
        <time>2018-02-21T07:37:54Z</time>
      </trkpt>
      <trkpt lat="44.27725" lon="4.76075">
        <ele>55</ele>
        <time>2018-02-21T07:37:56Z</time>
      </trkpt>
      <trkpt lat="44.27726" lon="4.76087">
        <ele>54</ele>
        <time>2018-02-21T07:37:58Z</time>
      </trkpt>
      <trkpt lat="44.27729" lon="4.76104">
        <ele>54</ele>
        <time>2018-02-21T07:38:01Z</time>
      </trkpt>
      <trkpt lat="44.27731" lon="4.76116">
        <ele>55</ele>
        <time>2018-02-21T07:38:03Z</time>
      </trkpt>
      <trkpt lat="44.27734" lon="4.76133">
        <ele>55</ele>
        <time>2018-02-21T07:38:06Z</time>
      </trkpt>
      <trkpt lat="44.27735" lon="4.76145">
        <ele>56</ele>
        <time>2018-02-21T07:38:08Z</time>
      </trkpt>
      <trkpt lat="44.27737" lon="4.76156">
        <ele>56</ele>
        <time>2018-02-21T07:38:10Z</time>
      </trkpt>
      <trkpt lat="44.27741" lon="4.76172">
        <ele>55</ele>
        <time>2018-02-21T07:38:13Z</time>
      </trkpt>
      <trkpt lat="44.27742" lon="4.76183">
        <ele>55</ele>
        <time>2018-02-21T07:38:15Z</time>
      </trkpt>
      <trkpt lat="44.27743" lon="4.76194">
        <ele>56</ele>
        <time>2018-02-21T07:38:17Z</time>
      </trkpt>
      <trkpt lat="44.27744" lon="4.76205">
        <ele>56</ele>
        <time>2018-02-21T07:38:19Z</time>
      </trkpt>
      <trkpt lat="44.27745" lon="4.76222">
        <ele>56</ele>
        <time>2018-02-21T07:38:22Z</time>
      </trkpt>
      <trkpt lat="44.27748" lon="4.7624">
        <ele>56</ele>
        <time>2018-02-21T07:38:25Z</time>
      </trkpt>
      <trkpt lat="44.27748" lon="4.76253">
        <ele>56</ele>
        <time>2018-02-21T07:38:27Z</time>
      </trkpt>
      <trkpt lat="44.27751" lon="4.76272">
        <ele>55</ele>
        <time>2018-02-21T07:38:30Z</time>
      </trkpt>
      <trkpt lat="44.27753" lon="4.76285">
        <ele>55</ele>
        <time>2018-02-21T07:38:32Z</time>
      </trkpt>
      <trkpt lat="44.27755" lon="4.76297">
        <ele>55</ele>
        <time>2018-02-21T07:38:34Z</time>
      </trkpt>
      <trkpt lat="44.27757" lon="4.76318">
        <ele>55</ele>
        <time>2018-02-21T07:38:37Z</time>
      </trkpt>
      <trkpt lat="44.2776" lon="4.76331">
        <ele>55</ele>
        <time>2018-02-21T07:38:39Z</time>
      </trkpt>
      <trkpt lat="44.27763" lon="4.76349">
        <ele>56</ele>
        <time>2018-02-21T07:38:42Z</time>
      </trkpt>
      <trkpt lat="44.27765" lon="4.76361">
        <ele>56</ele>
        <time>2018-02-21T07:38:44Z</time>
      </trkpt>
      <trkpt lat="44.27767" lon="4.76378">
        <ele>56</ele>
        <time>2018-02-21T07:38:47Z</time>
      </trkpt>
      <trkpt lat="44.27769" lon="4.76388">
        <ele>55</ele>
        <time>2018-02-21T07:38:49Z</time>
      </trkpt>
      <trkpt lat="44.2777" lon="4.76406">
        <ele>55</ele>
        <time>2018-02-21T07:38:52Z</time>
      </trkpt>
      <trkpt lat="44.2777" lon="4.76419">
        <ele>56</ele>
        <time>2018-02-21T07:38:54Z</time>
      </trkpt>
      <trkpt lat="44.27771" lon="4.7644">
        <ele>56</ele>
        <time>2018-02-21T07:38:57Z</time>
      </trkpt>
      <trkpt lat="44.2777" lon="4.76453">
        <ele>56</ele>
        <time>2018-02-21T07:38:59Z</time>
      </trkpt>
      <trkpt lat="44.27769" lon="4.76467">
        <ele>55</ele>
        <time>2018-02-21T07:39:01Z</time>
      </trkpt>
      <trkpt lat="44.27769" lon="4.76487">
        <ele>55</ele>
        <time>2018-02-21T07:39:04Z</time>
      </trkpt>
      <trkpt lat="44.27769" lon="4.765">
        <ele>55</ele>
        <time>2018-02-21T07:39:06Z</time>
      </trkpt>
      <trkpt lat="44.2777" lon="4.76513">
        <ele>55</ele>
        <time>2018-02-21T07:39:08Z</time>
      </trkpt>
      <trkpt lat="44.2777" lon="4.76532">
        <ele>55</ele>
        <time>2018-02-21T07:39:11Z</time>
      </trkpt>
      <trkpt lat="44.2777" lon="4.76545">
        <ele>55</ele>
        <time>2018-02-21T07:39:13Z</time>
      </trkpt>
      <trkpt lat="44.2777" lon="4.76567">
        <ele>54</ele>
        <time>2018-02-21T07:39:16Z</time>
      </trkpt>
      <trkpt lat="44.2777" lon="4.7658">
        <ele>54</ele>
        <time>2018-02-21T07:39:18Z</time>
      </trkpt>
      <trkpt lat="44.27771" lon="4.766">
        <ele>55</ele>
        <time>2018-02-21T07:39:21Z</time>
      </trkpt>
      <trkpt lat="44.27771" lon="4.76612">
        <ele>55</ele>
        <time>2018-02-21T07:39:23Z</time>
      </trkpt>
      <trkpt lat="44.27772" lon="4.76624">
        <ele>55</ele>
        <time>2018-02-21T07:39:25Z</time>
      </trkpt>
      <trkpt lat="44.27773" lon="4.76636">
        <ele>55</ele>
        <time>2018-02-21T07:39:27Z</time>
      </trkpt>
      <trkpt lat="44.27775" lon="4.76653">
        <ele>55</ele>
        <time>2018-02-21T07:39:30Z</time>
      </trkpt>
      <trkpt lat="44.27777" lon="4.76666">
        <ele>55</ele>
        <time>2018-02-21T07:39:32Z</time>
      </trkpt>
      <trkpt lat="44.27778" lon="4.76679">
        <ele>55</ele>
        <time>2018-02-21T07:39:34Z</time>
      </trkpt>
      <trkpt lat="44.27781" lon="4.76691">
        <ele>55</ele>
        <time>2018-02-21T07:39:36Z</time>
      </trkpt>
      <trkpt lat="44.27783" lon="4.76703">
        <ele>55</ele>
        <time>2018-02-21T07:39:38Z</time>
      </trkpt>
      <trkpt lat="44.27787" lon="4.7672">
        <ele>55</ele>
        <time>2018-02-21T07:39:41Z</time>
      </trkpt>
      <trkpt lat="44.27789" lon="4.76731">
        <ele>55</ele>
        <time>2018-02-21T07:39:43Z</time>
      </trkpt>
      <trkpt lat="44.27793" lon="4.76747">
        <ele>55</ele>
        <time>2018-02-21T07:39:46Z</time>
      </trkpt>
      <trkpt lat="44.27795" lon="4.76758">
        <ele>56</ele>
        <time>2018-02-21T07:39:48Z</time>
      </trkpt>
      <trkpt lat="44.27797" lon="4.76771">
        <ele>56</ele>
        <time>2018-02-21T07:39:50Z</time>
      </trkpt>
      <trkpt lat="44.27799" lon="4.76784">
        <ele>56</ele>
        <time>2018-02-21T07:39:52Z</time>
      </trkpt>
      <trkpt lat="44.27803" lon="4.76802">
        <ele>57</ele>
        <time>2018-02-21T07:39:55Z</time>
      </trkpt>
      <trkpt lat="44.27805" lon="4.76814">
        <ele>57</ele>
        <time>2018-02-21T07:39:57Z</time>
      </trkpt>
      <trkpt lat="44.27807" lon="4.76825">
        <ele>57</ele>
        <time>2018-02-21T07:39:59Z</time>
      </trkpt>
      <trkpt lat="44.27811" lon="4.76844">
        <ele>57</ele>
        <time>2018-02-21T07:40:02Z</time>
      </trkpt>
      <trkpt lat="44.27814" lon="4.76861">
        <ele>57</ele>
        <time>2018-02-21T07:40:05Z</time>
      </trkpt>
      <trkpt lat="44.27816" lon="4.76873">
        <ele>57</ele>
        <time>2018-02-21T07:40:07Z</time>
      </trkpt>
      <trkpt lat="44.27818" lon="4.76885">
        <ele>57</ele>
        <time>2018-02-21T07:40:09Z</time>
      </trkpt>
      <trkpt lat="44.27821" lon="4.76901">
        <ele>57</ele>
        <time>2018-02-21T07:40:12Z</time>
      </trkpt>
      <trkpt lat="44.27824" lon="4.76918">
        <ele>58</ele>
        <time>2018-02-21T07:40:15Z</time>
      </trkpt>
      <trkpt lat="44.27827" lon="4.76936">
        <ele>58</ele>
        <time>2018-02-21T07:40:18Z</time>
      </trkpt>
      <trkpt lat="44.27829" lon="4.7695">
        <ele>59</ele>
        <time>2018-02-21T07:40:20Z</time>
      </trkpt>
      <trkpt lat="44.2783" lon="4.76962">
        <ele>59</ele>
        <time>2018-02-21T07:40:22Z</time>
      </trkpt>
      <trkpt lat="44.27832" lon="4.76979">
        <ele>58</ele>
        <time>2018-02-21T07:40:25Z</time>
      </trkpt>
      <trkpt lat="44.27833" lon="4.7699">
        <ele>57</ele>
        <time>2018-02-21T07:40:27Z</time>
      </trkpt>
      <trkpt lat="44.27835" lon="4.77002">
        <ele>57</ele>
        <time>2018-02-21T07:40:29Z</time>
      </trkpt>
      <trkpt lat="44.27837" lon="4.77013">
        <ele>56</ele>
        <time>2018-02-21T07:40:31Z</time>
      </trkpt>
      <trkpt lat="44.2784" lon="4.7703">
        <ele>56</ele>
        <time>2018-02-21T07:40:34Z</time>
      </trkpt>
      <trkpt lat="44.27842" lon="4.77042">
        <ele>56</ele>
        <time>2018-02-21T07:40:36Z</time>
      </trkpt>
      <trkpt lat="44.27845" lon="4.77054">
        <ele>56</ele>
        <time>2018-02-21T07:40:38Z</time>
      </trkpt>
      <trkpt lat="44.27848" lon="4.77071">
        <ele>56</ele>
        <time>2018-02-21T07:40:41Z</time>
      </trkpt>
      <trkpt lat="44.2785" lon="4.77082">
        <ele>56</ele>
        <time>2018-02-21T07:40:43Z</time>
      </trkpt>
      <trkpt lat="44.27855" lon="4.77099">
        <ele>56</ele>
        <time>2018-02-21T07:40:46Z</time>
      </trkpt>
      <trkpt lat="44.27857" lon="4.77109">
        <ele>56</ele>
        <time>2018-02-21T07:40:48Z</time>
      </trkpt>
      <trkpt lat="44.27859" lon="4.77121">
        <ele>55</ele>
        <time>2018-02-21T07:40:50Z</time>
      </trkpt>
      <trkpt lat="44.27861" lon="4.77133">
        <ele>55</ele>
        <time>2018-02-21T07:40:52Z</time>
      </trkpt>
      <trkpt lat="44.27862" lon="4.77142">
        <ele>55</ele>
        <time>2018-02-21T07:40:54Z</time>
      </trkpt>
      <trkpt lat="44.27863" lon="4.77157">
        <ele>56</ele>
        <time>2018-02-21T07:40:57Z</time>
      </trkpt>
      <trkpt lat="44.27862" lon="4.77169">
        <ele>56</ele>
        <time>2018-02-21T07:40:59Z</time>
      </trkpt>
      <trkpt lat="44.27863" lon="4.77181">
        <ele>56</ele>
        <time>2018-02-21T07:41:01Z</time>
      </trkpt>
      <trkpt lat="44.27865" lon="4.77194">
        <ele>56</ele>
        <time>2018-02-21T07:41:03Z</time>
      </trkpt>
      <trkpt lat="44.27868" lon="4.77214">
        <ele>56</ele>
        <time>2018-02-21T07:41:06Z</time>
      </trkpt>
      <trkpt lat="44.2787" lon="4.77227">
        <ele>56</ele>
        <time>2018-02-21T07:41:08Z</time>
      </trkpt>
      <trkpt lat="44.27875" lon="4.77246">
        <ele>58</ele>
        <time>2018-02-21T07:41:11Z</time>
      </trkpt>
      <trkpt lat="44.27878" lon="4.77257">
        <ele>59</ele>
        <time>2018-02-21T07:41:13Z</time>
      </trkpt>
      <trkpt lat="44.27883" lon="4.77275">
        <ele>59</ele>
        <time>2018-02-21T07:41:16Z</time>
      </trkpt>
      <trkpt lat="44.27889" lon="4.77293">
        <ele>57</ele>
        <time>2018-02-21T07:41:19Z</time>
      </trkpt>
      <trkpt lat="44.27892" lon="4.77306">
        <ele>57</ele>
        <time>2018-02-21T07:41:21Z</time>
      </trkpt>
      <trkpt lat="44.27895" lon="4.77318">
        <ele>56</ele>
        <time>2018-02-21T07:41:23Z</time>
      </trkpt>
      <trkpt lat="44.27897" lon="4.7733">
        <ele>55</ele>
        <time>2018-02-21T07:41:25Z</time>
      </trkpt>
      <trkpt lat="44.279" lon="4.77348">
        <ele>55</ele>
        <time>2018-02-21T07:41:28Z</time>
      </trkpt>
      <trkpt lat="44.27901" lon="4.77361">
        <ele>55</ele>
        <time>2018-02-21T07:41:30Z</time>
      </trkpt>
      <trkpt lat="44.27901" lon="4.77381">
        <ele>56</ele>
        <time>2018-02-21T07:41:33Z</time>
      </trkpt>
      <trkpt lat="44.279" lon="4.77394">
        <ele>56</ele>
        <time>2018-02-21T07:41:35Z</time>
      </trkpt>
      <trkpt lat="44.279" lon="4.77407">
        <ele>56</ele>
        <time>2018-02-21T07:41:37Z</time>
      </trkpt>
      <trkpt lat="44.27898" lon="4.7742">
        <ele>55</ele>
        <time>2018-02-21T07:41:39Z</time>
      </trkpt>
      <trkpt lat="44.27897" lon="4.77432">
        <ele>56</ele>
        <time>2018-02-21T07:41:41Z</time>
      </trkpt>
      <trkpt lat="44.27894" lon="4.77451">
        <ele>56</ele>
        <time>2018-02-21T07:41:44Z</time>
      </trkpt>
      <trkpt lat="44.27893" lon="4.77463">
        <ele>56</ele>
        <time>2018-02-21T07:41:46Z</time>
      </trkpt>
      <trkpt lat="44.27892" lon="4.77476">
        <ele>55</ele>
        <time>2018-02-21T07:41:48Z</time>
      </trkpt>
      <trkpt lat="44.2789" lon="4.77495">
        <ele>55</ele>
        <time>2018-02-21T07:41:51Z</time>
      </trkpt>
      <trkpt lat="44.27889" lon="4.77508">
        <ele>55</ele>
        <time>2018-02-21T07:41:53Z</time>
      </trkpt>
      <trkpt lat="44.27888" lon="4.77521">
        <ele>55</ele>
        <time>2018-02-21T07:41:55Z</time>
      </trkpt>
      <trkpt lat="44.27887" lon="4.77534">
        <ele>55</ele>
        <time>2018-02-21T07:41:57Z</time>
      </trkpt>
      <trkpt lat="44.27885" lon="4.77553">
        <ele>55</ele>
        <time>2018-02-21T07:42:00Z</time>
      </trkpt>
      <trkpt lat="44.27885" lon="4.77565">
        <ele>55</ele>
        <time>2018-02-21T07:42:02Z</time>
      </trkpt>
      <trkpt lat="44.27886" lon="4.77577">
        <ele>55</ele>
        <time>2018-02-21T07:42:04Z</time>
      </trkpt>
      <trkpt lat="44.2789" lon="4.77596">
        <ele>56</ele>
        <time>2018-02-21T07:42:07Z</time>
      </trkpt>
      <trkpt lat="44.27893" lon="4.77607">
        <ele>56</ele>
        <time>2018-02-21T07:42:09Z</time>
      </trkpt>
      <trkpt lat="44.27898" lon="4.77617">
        <ele>56</ele>
        <time>2018-02-21T07:42:11Z</time>
      </trkpt>
      <trkpt lat="44.27903" lon="4.77629">
        <ele>56</ele>
        <time>2018-02-21T07:42:13Z</time>
      </trkpt>
      <trkpt lat="44.2791" lon="4.77646">
        <ele>56</ele>
        <time>2018-02-21T07:42:16Z</time>
      </trkpt>
      <trkpt lat="44.27914" lon="4.77665">
        <ele>56</ele>
        <time>2018-02-21T07:42:19Z</time>
      </trkpt>
      <trkpt lat="44.27917" lon="4.77678">
        <ele>56</ele>
        <time>2018-02-21T07:42:21Z</time>
      </trkpt>
      <trkpt lat="44.27919" lon="4.77691">
        <ele>56</ele>
        <time>2018-02-21T07:42:23Z</time>
      </trkpt>
      <trkpt lat="44.27921" lon="4.77704">
        <ele>56</ele>
        <time>2018-02-21T07:42:25Z</time>
      </trkpt>
      <trkpt lat="44.27924" lon="4.77723">
        <ele>57</ele>
        <time>2018-02-21T07:42:28Z</time>
      </trkpt>
      <trkpt lat="44.27927" lon="4.77735">
        <ele>57</ele>
        <time>2018-02-21T07:42:30Z</time>
      </trkpt>
      <trkpt lat="44.27931" lon="4.77748">
        <ele>56</ele>
        <time>2018-02-21T07:42:32Z</time>
      </trkpt>
      <trkpt lat="44.27935" lon="4.7776">
        <ele>56</ele>
        <time>2018-02-21T07:42:34Z</time>
      </trkpt>
      <trkpt lat="44.27939" lon="4.77771">
        <ele>56</ele>
        <time>2018-02-21T07:42:36Z</time>
      </trkpt>
      <trkpt lat="44.27944" lon="4.77788">
        <ele>56</ele>
        <time>2018-02-21T07:42:39Z</time>
      </trkpt>
      <trkpt lat="44.27949" lon="4.77799">
        <ele>56</ele>
        <time>2018-02-21T07:42:41Z</time>
      </trkpt>
      <trkpt lat="44.27953" lon="4.7781">
        <ele>56</ele>
        <time>2018-02-21T07:42:43Z</time>
      </trkpt>
      <trkpt lat="44.27958" lon="4.77821">
        <ele>56</ele>
        <time>2018-02-21T07:42:45Z</time>
      </trkpt>
      <trkpt lat="44.27962" lon="4.77832">
        <ele>56</ele>
        <time>2018-02-21T07:42:47Z</time>
      </trkpt>
      <trkpt lat="44.27968" lon="4.7785">
        <ele>56</ele>
        <time>2018-02-21T07:42:50Z</time>
      </trkpt>
      <trkpt lat="44.27972" lon="4.77862">
        <ele>56</ele>
        <time>2018-02-21T07:42:52Z</time>
      </trkpt>
      <trkpt lat="44.27976" lon="4.77874">
        <ele>56</ele>
        <time>2018-02-21T07:42:54Z</time>
      </trkpt>
      <trkpt lat="44.2798" lon="4.77886">
        <ele>56</ele>
        <time>2018-02-21T07:42:56Z</time>
      </trkpt>
      <trkpt lat="44.27986" lon="4.77905">
        <ele>56</ele>
        <time>2018-02-21T07:42:59Z</time>
      </trkpt>
      <trkpt lat="44.2799" lon="4.77917">
        <ele>56</ele>
        <time>2018-02-21T07:43:01Z</time>
      </trkpt>
      <trkpt lat="44.27993" lon="4.7793">
        <ele>56</ele>
        <time>2018-02-21T07:43:03Z</time>
      </trkpt>
      <trkpt lat="44.27997" lon="4.77943">
        <ele>56</ele>
        <time>2018-02-21T07:43:05Z</time>
      </trkpt>
      <trkpt lat="44.28" lon="4.77955">
        <ele>56</ele>
        <time>2018-02-21T07:43:07Z</time>
      </trkpt>
      <trkpt lat="44.28003" lon="4.77968">
        <ele>57</ele>
        <time>2018-02-21T07:43:09Z</time>
      </trkpt>
      <trkpt lat="44.28006" lon="4.77987">
        <ele>56</ele>
        <time>2018-02-21T07:43:12Z</time>
      </trkpt>
      <trkpt lat="44.28009" lon="4.77999">
        <ele>57</ele>
        <time>2018-02-21T07:43:14Z</time>
      </trkpt>
      <trkpt lat="44.28011" lon="4.78011">
        <ele>56</ele>
        <time>2018-02-21T07:43:16Z</time>
      </trkpt>
      <trkpt lat="44.28014" lon="4.78025">
        <ele>56</ele>
        <time>2018-02-21T07:43:19Z</time>
      </trkpt>
      <trkpt lat="44.28014" lon="4.78032">
        <ele>57</ele>
        <time>2018-02-21T07:43:21Z</time>
      </trkpt>
      <trkpt lat="44.28011" lon="4.78044">
        <ele>56</ele>
        <time>2018-02-21T07:43:24Z</time>
      </trkpt>
      <trkpt lat="44.28004" lon="4.78048">
        <ele>56</ele>
        <time>2018-02-21T07:43:26Z</time>
      </trkpt>
      <trkpt lat="44.27997" lon="4.78051">
        <ele>56</ele>
        <time>2018-02-21T07:43:28Z</time>
      </trkpt>
      <trkpt lat="44.27986" lon="4.78054">
        <ele>56</ele>
        <time>2018-02-21T07:43:31Z</time>
      </trkpt>
      <trkpt lat="44.27979" lon="4.78055">
        <ele>56</ele>
        <time>2018-02-21T07:43:33Z</time>
      </trkpt>
      <trkpt lat="44.27972" lon="4.78056">
        <ele>57</ele>
        <time>2018-02-21T07:43:35Z</time>
      </trkpt>
      <trkpt lat="44.27966" lon="4.78057">
        <ele>57</ele>
        <time>2018-02-21T07:43:37Z</time>
      </trkpt>
      <trkpt lat="44.2796" lon="4.78058">
        <ele>57</ele>
        <time>2018-02-21T07:43:39Z</time>
      </trkpt>
      <trkpt lat="44.27951" lon="4.78059">
        <ele>57</ele>
        <time>2018-02-21T07:43:42Z</time>
      </trkpt>
      <trkpt lat="44.27946" lon="4.7806">
        <ele>58</ele>
        <time>2018-02-21T07:43:44Z</time>
      </trkpt>
      <trkpt lat="44.27942" lon="4.78061">
        <ele>58</ele>
        <time>2018-02-21T07:43:46Z</time>
      </trkpt>
      <trkpt lat="44.27938" lon="4.78061">
        <ele>58</ele>
        <time>2018-02-21T07:43:48Z</time>
      </trkpt>
      <trkpt lat="44.27937" lon="4.78062">
        <ele>59</ele>
        <time>2018-02-21T07:43:51Z</time>
      </trkpt>
      <trkpt lat="44.27936" lon="4.78063">
        <ele>59</ele>
        <time>2018-02-21T07:43:53Z</time>
      </trkpt>
      <trkpt lat="44.27936" lon="4.78063">
        <ele>59</ele>
        <time>2018-02-21T07:43:55Z</time>
      </trkpt>
      <trkpt lat="44.27936" lon="4.78063">
        <ele>59</ele>
        <time>2018-02-21T07:43:58Z</time>
      </trkpt>
      <trkpt lat="44.27936" lon="4.78063">
        <ele>58</ele>
        <time>2018-02-21T07:44:01Z</time>
      </trkpt>
      <trkpt lat="44.27935" lon="4.78063">
        <ele>58</ele>
        <time>2018-02-21T07:44:03Z</time>
      </trkpt>
      <trkpt lat="44.27935" lon="4.78063">
        <ele>58</ele>
        <time>2018-02-21T07:44:05Z</time>
      </trkpt>
      <trkpt lat="44.27935" lon="4.78063">
        <ele>58</ele>
        <time>2018-02-21T07:44:07Z</time>
      </trkpt>
      <trkpt lat="44.27933" lon="4.78065">
        <ele>59</ele>
        <time>2018-02-21T07:44:10Z</time>
      </trkpt>
      <trkpt lat="44.27932" lon="4.78067">
        <ele>59</ele>
        <time>2018-02-21T07:44:12Z</time>
      </trkpt>
      <trkpt lat="44.27931" lon="4.78072">
        <ele>59</ele>
        <time>2018-02-21T07:44:14Z</time>
      </trkpt>
      <trkpt lat="44.27933" lon="4.78081">
        <ele>59</ele>
        <time>2018-02-21T07:44:17Z</time>
      </trkpt>
      <trkpt lat="44.27934" lon="4.78093">
        <ele>59</ele>
        <time>2018-02-21T07:44:20Z</time>
      </trkpt>
      <trkpt lat="44.27935" lon="4.78101">
        <ele>59</ele>
        <time>2018-02-21T07:44:22Z</time>
      </trkpt>
      <trkpt lat="44.27937" lon="4.7811">
        <ele>59</ele>
        <time>2018-02-21T07:44:24Z</time>
      </trkpt>
      <trkpt lat="44.27938" lon="4.78119">
        <ele>59</ele>
        <time>2018-02-21T07:44:26Z</time>
      </trkpt>
      <trkpt lat="44.2794" lon="4.78127">
        <ele>59</ele>
        <time>2018-02-21T07:44:28Z</time>
      </trkpt>
      <trkpt lat="44.27942" lon="4.78135">
        <ele>59</ele>
        <time>2018-02-21T07:44:30Z</time>
      </trkpt>
      <trkpt lat="44.27943" lon="4.78144">
        <ele>60</ele>
        <time>2018-02-21T07:44:32Z</time>
      </trkpt>
      <trkpt lat="44.27945" lon="4.78153">
        <ele>60</ele>
        <time>2018-02-21T07:44:34Z</time>
      </trkpt>
      <trkpt lat="44.27946" lon="4.78161">
        <ele>60</ele>
        <time>2018-02-21T07:44:36Z</time>
      </trkpt>
      <trkpt lat="44.27946" lon="4.78175">
        <ele>60</ele>
        <time>2018-02-21T07:44:39Z</time>
      </trkpt>
      <trkpt lat="44.27943" lon="4.78184">
        <ele>60</ele>
        <time>2018-02-21T07:44:41Z</time>
      </trkpt>
      <trkpt lat="44.2794" lon="4.78192">
        <ele>60</ele>
        <time>2018-02-21T07:44:43Z</time>
      </trkpt>
      <trkpt lat="44.27935" lon="4.78205">
        <ele>59</ele>
        <time>2018-02-21T07:44:46Z</time>
      </trkpt>
      <trkpt lat="44.27932" lon="4.78214">
        <ele>59</ele>
        <time>2018-02-21T07:44:48Z</time>
      </trkpt>
      <trkpt lat="44.2793" lon="4.78223">
        <ele>59</ele>
        <time>2018-02-21T07:44:50Z</time>
      </trkpt>
      <trkpt lat="44.27927" lon="4.78232">
        <ele>60</ele>
        <time>2018-02-21T07:44:52Z</time>
      </trkpt>
      <trkpt lat="44.27924" lon="4.78242">
        <ele>60</ele>
        <time>2018-02-21T07:44:54Z</time>
      </trkpt>
      <trkpt lat="44.2792" lon="4.78257">
        <ele>60</ele>
        <time>2018-02-21T07:44:57Z</time>
      </trkpt>
      <trkpt lat="44.27916" lon="4.78273">
        <ele>61</ele>
        <time>2018-02-21T07:45:00Z</time>
      </trkpt>
      <trkpt lat="44.27913" lon="4.78283">
        <ele>61</ele>
        <time>2018-02-21T07:45:02Z</time>
      </trkpt>
      <trkpt lat="44.2791" lon="4.78294">
        <ele>62</ele>
        <time>2018-02-21T07:45:04Z</time>
      </trkpt>
      <trkpt lat="44.27908" lon="4.78304">
        <ele>63</ele>
        <time>2018-02-21T07:45:06Z</time>
      </trkpt>
      <trkpt lat="44.27905" lon="4.78313">
        <ele>63</ele>
        <time>2018-02-21T07:45:08Z</time>
      </trkpt>
      <trkpt lat="44.27901" lon="4.78328">
        <ele>63</ele>
        <time>2018-02-21T07:45:11Z</time>
      </trkpt>
      <trkpt lat="44.27898" lon="4.78337">
        <ele>63</ele>
        <time>2018-02-21T07:45:13Z</time>
      </trkpt>
      <trkpt lat="44.27894" lon="4.78352">
        <ele>62</ele>
        <time>2018-02-21T07:45:16Z</time>
      </trkpt>
      <trkpt lat="44.27892" lon="4.78362">
        <ele>62</ele>
        <time>2018-02-21T07:45:18Z</time>
      </trkpt>
      <trkpt lat="44.27888" lon="4.78376">
        <ele>62</ele>
        <time>2018-02-21T07:45:21Z</time>
      </trkpt>
      <trkpt lat="44.27884" lon="4.78392">
        <ele>62</ele>
        <time>2018-02-21T07:45:24Z</time>
      </trkpt>
      <trkpt lat="44.27882" lon="4.78402">
        <ele>63</ele>
        <time>2018-02-21T07:45:26Z</time>
      </trkpt>
      <trkpt lat="44.27879" lon="4.78412">
        <ele>63</ele>
        <time>2018-02-21T07:45:28Z</time>
      </trkpt>
      <trkpt lat="44.27876" lon="4.78423">
        <ele>63</ele>
        <time>2018-02-21T07:45:30Z</time>
      </trkpt>
      <trkpt lat="44.27873" lon="4.78434">
        <ele>63</ele>
        <time>2018-02-21T07:45:32Z</time>
      </trkpt>
      <trkpt lat="44.27869" lon="4.78449">
        <ele>63</ele>
        <time>2018-02-21T07:45:35Z</time>
      </trkpt>
      <trkpt lat="44.27866" lon="4.7846">
        <ele>63</ele>
        <time>2018-02-21T07:45:37Z</time>
      </trkpt>
      <trkpt lat="44.27863" lon="4.7847">
        <ele>63</ele>
        <time>2018-02-21T07:45:39Z</time>
      </trkpt>
      <trkpt lat="44.27858" lon="4.78485">
        <ele>64</ele>
        <time>2018-02-21T07:45:42Z</time>
      </trkpt>
      <trkpt lat="44.27853" lon="4.78501">
        <ele>64</ele>
        <time>2018-02-21T07:45:45Z</time>
      </trkpt>
      <trkpt lat="44.27849" lon="4.78512">
        <ele>64</ele>
        <time>2018-02-21T07:45:47Z</time>
      </trkpt>
      <trkpt lat="44.27843" lon="4.78529">
        <ele>63</ele>
        <time>2018-02-21T07:45:50Z</time>
      </trkpt>
      <trkpt lat="44.27839" lon="4.7854">
        <ele>64</ele>
        <time>2018-02-21T07:45:52Z</time>
      </trkpt>
      <trkpt lat="44.27835" lon="4.7855">
        <ele>64</ele>
        <time>2018-02-21T07:45:54Z</time>
      </trkpt>
      <trkpt lat="44.27831" lon="4.78561">
        <ele>65</ele>
        <time>2018-02-21T07:45:56Z</time>
      </trkpt>
      <trkpt lat="44.27824" lon="4.78577">
        <ele>65</ele>
        <time>2018-02-21T07:45:59Z</time>
      </trkpt>
      <trkpt lat="44.27819" lon="4.78587">
        <ele>65</ele>
        <time>2018-02-21T07:46:01Z</time>
      </trkpt>
      <trkpt lat="44.27812" lon="4.78602">
        <ele>65</ele>
        <time>2018-02-21T07:46:04Z</time>
      </trkpt>
      <trkpt lat="44.27808" lon="4.78612">
        <ele>65</ele>
        <time>2018-02-21T07:46:06Z</time>
      </trkpt>
      <trkpt lat="44.278" lon="4.78627">
        <ele>65</ele>
        <time>2018-02-21T07:46:09Z</time>
      </trkpt>
      <trkpt lat="44.27795" lon="4.78637">
        <ele>65</ele>
        <time>2018-02-21T07:46:11Z</time>
      </trkpt>
      <trkpt lat="44.2779" lon="4.78647">
        <ele>65</ele>
        <time>2018-02-21T07:46:13Z</time>
      </trkpt>
      <trkpt lat="44.27785" lon="4.78656">
        <ele>65</ele>
        <time>2018-02-21T07:46:15Z</time>
      </trkpt>
      <trkpt lat="44.27779" lon="4.78666">
        <ele>66</ele>
        <time>2018-02-21T07:46:17Z</time>
      </trkpt>
      <trkpt lat="44.27771" lon="4.78681">
        <ele>66</ele>
        <time>2018-02-21T07:46:20Z</time>
      </trkpt>
      <trkpt lat="44.27766" lon="4.7869">
        <ele>66</ele>
        <time>2018-02-21T07:46:22Z</time>
      </trkpt>
      <trkpt lat="44.27758" lon="4.78705">
        <ele>66</ele>
        <time>2018-02-21T07:46:25Z</time>
      </trkpt>
      <trkpt lat="44.27749" lon="4.78719">
        <ele>67</ele>
        <time>2018-02-21T07:46:28Z</time>
      </trkpt>
      <trkpt lat="44.27744" lon="4.78728">
        <ele>67</ele>
        <time>2018-02-21T07:46:30Z</time>
      </trkpt>
      <trkpt lat="44.27735" lon="4.78742">
        <ele>67</ele>
        <time>2018-02-21T07:46:33Z</time>
      </trkpt>
      <trkpt lat="44.27729" lon="4.78751">
        <ele>67</ele>
        <time>2018-02-21T07:46:35Z</time>
      </trkpt>
      <trkpt lat="44.27719" lon="4.78765">
        <ele>67</ele>
        <time>2018-02-21T07:46:38Z</time>
      </trkpt>
      <trkpt lat="44.2771" lon="4.78778">
        <ele>67</ele>
        <time>2018-02-21T07:46:41Z</time>
      </trkpt>
      <trkpt lat="44.277" lon="4.78791">
        <ele>67</ele>
        <time>2018-02-21T07:46:44Z</time>
      </trkpt>
      <trkpt lat="44.27694" lon="4.78799">
        <ele>67</ele>
        <time>2018-02-21T07:46:46Z</time>
      </trkpt>
      <trkpt lat="44.27687" lon="4.78807">
        <ele>68</ele>
        <time>2018-02-21T07:46:48Z</time>
      </trkpt>
      <trkpt lat="44.2768" lon="4.78815">
        <ele>68</ele>
        <time>2018-02-21T07:46:50Z</time>
      </trkpt>
      <trkpt lat="44.27673" lon="4.78823">
        <ele>68</ele>
        <time>2018-02-21T07:46:52Z</time>
      </trkpt>
      <trkpt lat="44.27663" lon="4.78834">
        <ele>68</ele>
        <time>2018-02-21T07:46:55Z</time>
      </trkpt>
      <trkpt lat="44.27655" lon="4.78842">
        <ele>68</ele>
        <time>2018-02-21T07:46:57Z</time>
      </trkpt>
      <trkpt lat="44.27648" lon="4.7885">
        <ele>68</ele>
        <time>2018-02-21T07:46:59Z</time>
      </trkpt>
      <trkpt lat="44.27638" lon="4.78861">
        <ele>68</ele>
        <time>2018-02-21T07:47:02Z</time>
      </trkpt>
      <trkpt lat="44.27631" lon="4.78869">
        <ele>68</ele>
        <time>2018-02-21T07:47:04Z</time>
      </trkpt>
      <trkpt lat="44.27624" lon="4.78876">
        <ele>68</ele>
        <time>2018-02-21T07:47:06Z</time>
      </trkpt>
      <trkpt lat="44.27617" lon="4.78883">
        <ele>68</ele>
        <time>2018-02-21T07:47:08Z</time>
      </trkpt>
      <trkpt lat="44.27606" lon="4.78894">
        <ele>68</ele>
        <time>2018-02-21T07:47:11Z</time>
      </trkpt>
      <trkpt lat="44.27599" lon="4.78902">
        <ele>68</ele>
        <time>2018-02-21T07:47:13Z</time>
      </trkpt>
      <trkpt lat="44.27588" lon="4.78913">
        <ele>68</ele>
        <time>2018-02-21T07:47:16Z</time>
      </trkpt>
      <trkpt lat="44.27581" lon="4.7892">
        <ele>68</ele>
        <time>2018-02-21T07:47:18Z</time>
      </trkpt>
      <trkpt lat="44.2757" lon="4.78932">
        <ele>68</ele>
        <time>2018-02-21T07:47:21Z</time>
      </trkpt>
      <trkpt lat="44.2756" lon="4.78944">
        <ele>69</ele>
        <time>2018-02-21T07:47:24Z</time>
      </trkpt>
      <trkpt lat="44.27553" lon="4.78953">
        <ele>69</ele>
        <time>2018-02-21T07:47:26Z</time>
      </trkpt>
      <trkpt lat="44.27547" lon="4.78962">
        <ele>69</ele>
        <time>2018-02-21T07:47:28Z</time>
      </trkpt>
      <trkpt lat="44.27538" lon="4.78977">
        <ele>69</ele>
        <time>2018-02-21T07:47:31Z</time>
      </trkpt>
      <trkpt lat="44.27532" lon="4.78987">
        <ele>69</ele>
        <time>2018-02-21T07:47:33Z</time>
      </trkpt>
      <trkpt lat="44.27524" lon="4.79002">
        <ele>70</ele>
        <time>2018-02-21T07:47:36Z</time>
      </trkpt>
      <trkpt lat="44.27517" lon="4.79018">
        <ele>70</ele>
        <time>2018-02-21T07:47:39Z</time>
      </trkpt>
      <trkpt lat="44.27512" lon="4.7903">
        <ele>70</ele>
        <time>2018-02-21T07:47:41Z</time>
      </trkpt>
      <trkpt lat="44.27507" lon="4.79041">
        <ele>70</ele>
        <time>2018-02-21T07:47:43Z</time>
      </trkpt>
      <trkpt lat="44.27502" lon="4.79059">
        <ele>71</ele>
        <time>2018-02-21T07:47:46Z</time>
      </trkpt>
      <trkpt lat="44.27497" lon="4.79077">
        <ele>70</ele>
        <time>2018-02-21T07:47:49Z</time>
      </trkpt>
      <trkpt lat="44.27494" lon="4.79089">
        <ele>70</ele>
        <time>2018-02-21T07:47:51Z</time>
      </trkpt>
      <trkpt lat="44.27492" lon="4.79101">
        <ele>71</ele>
        <time>2018-02-21T07:47:53Z</time>
      </trkpt>
      <trkpt lat="44.27489" lon="4.79118">
        <ele>71</ele>
        <time>2018-02-21T07:47:56Z</time>
      </trkpt>
      <trkpt lat="44.27487" lon="4.7913">
        <ele>71</ele>
        <time>2018-02-21T07:47:58Z</time>
      </trkpt>
      <trkpt lat="44.27484" lon="4.79146">
        <ele>71</ele>
        <time>2018-02-21T07:48:01Z</time>
      </trkpt>
      <trkpt lat="44.27482" lon="4.79157">
        <ele>70</ele>
        <time>2018-02-21T07:48:03Z</time>
      </trkpt>
      <trkpt lat="44.2748" lon="4.79174">
        <ele>71</ele>
        <time>2018-02-21T07:48:06Z</time>
      </trkpt>
      <trkpt lat="44.27478" lon="4.79185">
        <ele>72</ele>
        <time>2018-02-21T07:48:08Z</time>
      </trkpt>
      <trkpt lat="44.27475" lon="4.79196">
        <ele>72</ele>
        <time>2018-02-21T07:48:10Z</time>
      </trkpt>
      <trkpt lat="44.27473" lon="4.79208">
        <ele>72</ele>
        <time>2018-02-21T07:48:12Z</time>
      </trkpt>
      <trkpt lat="44.27469" lon="4.79224">
        <ele>72</ele>
        <time>2018-02-21T07:48:15Z</time>
      </trkpt>
      <trkpt lat="44.27467" lon="4.79235">
        <ele>73</ele>
        <time>2018-02-21T07:48:17Z</time>
      </trkpt>
      <trkpt lat="44.27462" lon="4.79252">
        <ele>73</ele>
        <time>2018-02-21T07:48:20Z</time>
      </trkpt>
      <trkpt lat="44.27459" lon="4.79263">
        <ele>73</ele>
        <time>2018-02-21T07:48:22Z</time>
      </trkpt>
      <trkpt lat="44.27453" lon="4.79281">
        <ele>73</ele>
        <time>2018-02-21T07:48:25Z</time>
      </trkpt>
      <trkpt lat="44.27449" lon="4.79292">
        <ele>73</ele>
        <time>2018-02-21T07:48:27Z</time>
      </trkpt>
      <trkpt lat="44.27443" lon="4.79309">
        <ele>73</ele>
        <time>2018-02-21T07:48:30Z</time>
      </trkpt>
      <trkpt lat="44.27439" lon="4.7932">
        <ele>74</ele>
        <time>2018-02-21T07:48:32Z</time>
      </trkpt>
      <trkpt lat="44.27433" lon="4.79335">
        <ele>74</ele>
        <time>2018-02-21T07:48:35Z</time>
      </trkpt>
      <trkpt lat="44.27429" lon="4.79345">
        <ele>75</ele>
        <time>2018-02-21T07:48:37Z</time>
      </trkpt>
      <trkpt lat="44.27423" lon="4.7936">
        <ele>75</ele>
        <time>2018-02-21T07:48:40Z</time>
      </trkpt>
      <trkpt lat="44.2742" lon="4.7937">
        <ele>74</ele>
        <time>2018-02-21T07:48:42Z</time>
      </trkpt>
      <trkpt lat="44.27413" lon="4.79386">
        <ele>74</ele>
        <time>2018-02-21T07:48:45Z</time>
      </trkpt>
      <trkpt lat="44.27409" lon="4.79397">
        <ele>74</ele>
        <time>2018-02-21T07:48:47Z</time>
      </trkpt>
      <trkpt lat="44.27402" lon="4.79414">
        <ele>74</ele>
        <time>2018-02-21T07:48:50Z</time>
      </trkpt>
      <trkpt lat="44.27398" lon="4.79425">
        <ele>74</ele>
        <time>2018-02-21T07:48:52Z</time>
      </trkpt>
      <trkpt lat="44.27394" lon="4.79436">
        <ele>74</ele>
        <time>2018-02-21T07:48:54Z</time>
      </trkpt>
      <trkpt lat="44.27387" lon="4.79454">
        <ele>75</ele>
        <time>2018-02-21T07:48:57Z</time>
      </trkpt>
      <trkpt lat="44.27382" lon="4.79465">
        <ele>75</ele>
        <time>2018-02-21T07:48:59Z</time>
      </trkpt>
      <trkpt lat="44.27378" lon="4.79477">
        <ele>75</ele>
        <time>2018-02-21T07:49:01Z</time>
      </trkpt>
      <trkpt lat="44.27373" lon="4.79488">
        <ele>75</ele>
        <time>2018-02-21T07:49:03Z</time>
      </trkpt>
      <trkpt lat="44.27369" lon="4.795">
        <ele>75</ele>
        <time>2018-02-21T07:49:05Z</time>
      </trkpt>
      <trkpt lat="44.27362" lon="4.79518">
        <ele>75</ele>
        <time>2018-02-21T07:49:08Z</time>
      </trkpt>
      <trkpt lat="44.27356" lon="4.79536">
        <ele>76</ele>
        <time>2018-02-21T07:49:11Z</time>
      </trkpt>
      <trkpt lat="44.27351" lon="4.79549">
        <ele>76</ele>
        <time>2018-02-21T07:49:13Z</time>
      </trkpt>
      <trkpt lat="44.27347" lon="4.79561">
        <ele>77</ele>
        <time>2018-02-21T07:49:15Z</time>
      </trkpt>
      <trkpt lat="44.27343" lon="4.79574">
        <ele>77</ele>
        <time>2018-02-21T07:49:17Z</time>
      </trkpt>
      <trkpt lat="44.27339" lon="4.79587">
        <ele>77</ele>
        <time>2018-02-21T07:49:19Z</time>
      </trkpt>
      <trkpt lat="44.27335" lon="4.79599">
        <ele>77</ele>
        <time>2018-02-21T07:49:21Z</time>
      </trkpt>
      <trkpt lat="44.27328" lon="4.79618">
        <ele>78</ele>
        <time>2018-02-21T07:49:24Z</time>
      </trkpt>
      <trkpt lat="44.27322" lon="4.79637">
        <ele>78</ele>
        <time>2018-02-21T07:49:27Z</time>
      </trkpt>
      <trkpt lat="44.27318" lon="4.79649">
        <ele>78</ele>
        <time>2018-02-21T07:49:29Z</time>
      </trkpt>
      <trkpt lat="44.27312" lon="4.79668">
        <ele>78</ele>
        <time>2018-02-21T07:49:32Z</time>
      </trkpt>
      <trkpt lat="44.27309" lon="4.7968">
        <ele>78</ele>
        <time>2018-02-21T07:49:34Z</time>
      </trkpt>
      <trkpt lat="44.27303" lon="4.79699">
        <ele>78</ele>
        <time>2018-02-21T07:49:37Z</time>
      </trkpt>
      <trkpt lat="44.27299" lon="4.79712">
        <ele>78</ele>
        <time>2018-02-21T07:49:39Z</time>
      </trkpt>
      <trkpt lat="44.27296" lon="4.79725">
        <ele>78</ele>
        <time>2018-02-21T07:49:41Z</time>
      </trkpt>
      <trkpt lat="44.27292" lon="4.79738">
        <ele>78</ele>
        <time>2018-02-21T07:49:43Z</time>
      </trkpt>
      <trkpt lat="44.27288" lon="4.7975">
        <ele>78</ele>
        <time>2018-02-21T07:49:45Z</time>
      </trkpt>
      <trkpt lat="44.27285" lon="4.79763">
        <ele>79</ele>
        <time>2018-02-21T07:49:47Z</time>
      </trkpt>
      <trkpt lat="44.2728" lon="4.79782">
        <ele>79</ele>
        <time>2018-02-21T07:49:50Z</time>
      </trkpt>
      <trkpt lat="44.27277" lon="4.79794">
        <ele>79</ele>
        <time>2018-02-21T07:49:52Z</time>
      </trkpt>
      <trkpt lat="44.27273" lon="4.79807">
        <ele>79</ele>
        <time>2018-02-21T07:49:54Z</time>
      </trkpt>
      <trkpt lat="44.2727" lon="4.7982">
        <ele>79</ele>
        <time>2018-02-21T07:49:56Z</time>
      </trkpt>
      <trkpt lat="44.27265" lon="4.79839">
        <ele>79</ele>
        <time>2018-02-21T07:49:59Z</time>
      </trkpt>
      <trkpt lat="44.27262" lon="4.79852">
        <ele>79</ele>
        <time>2018-02-21T07:50:01Z</time>
      </trkpt>
      <trkpt lat="44.27259" lon="4.79865">
        <ele>79</ele>
        <time>2018-02-21T07:50:03Z</time>
      </trkpt>
      <trkpt lat="44.27256" lon="4.79878">
        <ele>79</ele>
        <time>2018-02-21T07:50:05Z</time>
      </trkpt>
      <trkpt lat="44.27251" lon="4.79897">
        <ele>80</ele>
        <time>2018-02-21T07:50:08Z</time>
      </trkpt>
      <trkpt lat="44.27248" lon="4.7991">
        <ele>80</ele>
        <time>2018-02-21T07:50:10Z</time>
      </trkpt>
      <trkpt lat="44.27245" lon="4.79923">
        <ele>80</ele>
        <time>2018-02-21T07:50:12Z</time>
      </trkpt>
      <trkpt lat="44.27243" lon="4.79936">
        <ele>81</ele>
        <time>2018-02-21T07:50:14Z</time>
      </trkpt>
      <trkpt lat="44.27238" lon="4.79955">
        <ele>82</ele>
        <time>2018-02-21T07:50:17Z</time>
      </trkpt>
      <trkpt lat="44.27236" lon="4.79968">
        <ele>82</ele>
        <time>2018-02-21T07:50:19Z</time>
      </trkpt>
      <trkpt lat="44.27233" lon="4.7998">
        <ele>82</ele>
        <time>2018-02-21T07:50:21Z</time>
      </trkpt>
      <trkpt lat="44.2723" lon="4.79992">
        <ele>81</ele>
        <time>2018-02-21T07:50:23Z</time>
      </trkpt>
      <trkpt lat="44.27226" lon="4.8001">
        <ele>81</ele>
        <time>2018-02-21T07:50:26Z</time>
      </trkpt>
      <trkpt lat="44.27224" lon="4.80023">
        <ele>80</ele>
        <time>2018-02-21T07:50:28Z</time>
      </trkpt>
      <trkpt lat="44.27221" lon="4.80035">
        <ele>80</ele>
        <time>2018-02-21T07:50:30Z</time>
      </trkpt>
      <trkpt lat="44.27217" lon="4.80055">
        <ele>79</ele>
        <time>2018-02-21T07:50:33Z</time>
      </trkpt>
      <trkpt lat="44.27214" lon="4.80068">
        <ele>79</ele>
        <time>2018-02-21T07:50:35Z</time>
      </trkpt>
      <trkpt lat="44.27211" lon="4.80081">
        <ele>79</ele>
        <time>2018-02-21T07:50:37Z</time>
      </trkpt>
      <trkpt lat="44.27206" lon="4.801">
        <ele>80</ele>
        <time>2018-02-21T07:50:40Z</time>
      </trkpt>
      <trkpt lat="44.27203" lon="4.80113">
        <ele>80</ele>
        <time>2018-02-21T07:50:42Z</time>
      </trkpt>
      <trkpt lat="44.272" lon="4.80126">
        <ele>80</ele>
        <time>2018-02-21T07:50:44Z</time>
      </trkpt>
      <trkpt lat="44.27197" lon="4.80138">
        <ele>80</ele>
        <time>2018-02-21T07:50:46Z</time>
      </trkpt>
      <trkpt lat="44.27193" lon="4.8015">
        <ele>80</ele>
        <time>2018-02-21T07:50:48Z</time>
      </trkpt>
      <trkpt lat="44.2719" lon="4.80163">
        <ele>80</ele>
        <time>2018-02-21T07:50:50Z</time>
      </trkpt>
      <trkpt lat="44.27185" lon="4.80182">
        <ele>80</ele>
        <time>2018-02-21T07:50:53Z</time>
      </trkpt>
      <trkpt lat="44.27182" lon="4.80195">
        <ele>80</ele>
        <time>2018-02-21T07:50:55Z</time>
      </trkpt>
      <trkpt lat="44.27179" lon="4.80208">
        <ele>80</ele>
        <time>2018-02-21T07:50:57Z</time>
      </trkpt>
      <trkpt lat="44.27176" lon="4.80221">
        <ele>80</ele>
        <time>2018-02-21T07:50:59Z</time>
      </trkpt>
      <trkpt lat="44.27173" lon="4.80233">
        <ele>80</ele>
        <time>2018-02-21T07:51:01Z</time>
      </trkpt>
      <trkpt lat="44.27168" lon="4.80253">
        <ele>80</ele>
        <time>2018-02-21T07:51:04Z</time>
      </trkpt>
      <trkpt lat="44.27164" lon="4.80266">
        <ele>80</ele>
        <time>2018-02-21T07:51:06Z</time>
      </trkpt>
      <trkpt lat="44.27161" lon="4.8028">
        <ele>80</ele>
        <time>2018-02-21T07:51:08Z</time>
      </trkpt>
      <trkpt lat="44.27158" lon="4.80293">
        <ele>80</ele>
        <time>2018-02-21T07:51:10Z</time>
      </trkpt>
      <trkpt lat="44.27154" lon="4.80306">
        <ele>81</ele>
        <time>2018-02-21T07:51:12Z</time>
      </trkpt>
      <trkpt lat="44.27151" lon="4.80319">
        <ele>81</ele>
        <time>2018-02-21T07:51:14Z</time>
      </trkpt>
      <trkpt lat="44.27148" lon="4.80332">
        <ele>81</ele>
        <time>2018-02-21T07:51:16Z</time>
      </trkpt>
      <trkpt lat="44.27143" lon="4.80351">
        <ele>81</ele>
        <time>2018-02-21T07:51:19Z</time>
      </trkpt>
      <trkpt lat="44.27137" lon="4.80371">
        <ele>81</ele>
        <time>2018-02-21T07:51:22Z</time>
      </trkpt>
      <trkpt lat="44.27134" lon="4.80384">
        <ele>81</ele>
        <time>2018-02-21T07:51:24Z</time>
      </trkpt>
      <trkpt lat="44.27128" lon="4.80403">
        <ele>82</ele>
        <time>2018-02-21T07:51:27Z</time>
      </trkpt>
      <trkpt lat="44.27122" lon="4.80422">
        <ele>82</ele>
        <time>2018-02-21T07:51:30Z</time>
      </trkpt>
      <trkpt lat="44.27118" lon="4.80434">
        <ele>82</ele>
        <time>2018-02-21T07:51:32Z</time>
      </trkpt>
      <trkpt lat="44.27113" lon="4.80446">
        <ele>81</ele>
        <time>2018-02-21T07:51:34Z</time>
      </trkpt>
      <trkpt lat="44.27108" lon="4.80459">
        <ele>81</ele>
        <time>2018-02-21T07:51:36Z</time>
      </trkpt>
      <trkpt lat="44.27101" lon="4.80478">
        <ele>81</ele>
        <time>2018-02-21T07:51:39Z</time>
      </trkpt>
      <trkpt lat="44.27093" lon="4.80497">
        <ele>81</ele>
        <time>2018-02-21T07:51:42Z</time>
      </trkpt>
      <trkpt lat="44.27085" lon="4.80515">
        <ele>82</ele>
        <time>2018-02-21T07:51:45Z</time>
      </trkpt>
      <trkpt lat="44.2708" lon="4.80527">
        <ele>82</ele>
        <time>2018-02-21T07:51:47Z</time>
      </trkpt>
      <trkpt lat="44.27075" lon="4.8054">
        <ele>82</ele>
        <time>2018-02-21T07:51:49Z</time>
      </trkpt>
      <trkpt lat="44.27069" lon="4.80552">
        <ele>82</ele>
        <time>2018-02-21T07:51:51Z</time>
      </trkpt>
      <trkpt lat="44.27063" lon="4.80563">
        <ele>82</ele>
        <time>2018-02-21T07:51:53Z</time>
      </trkpt>
      <trkpt lat="44.27055" lon="4.80582">
        <ele>82</ele>
        <time>2018-02-21T07:51:56Z</time>
      </trkpt>
      <trkpt lat="44.27048" lon="4.80594">
        <ele>82</ele>
        <time>2018-02-21T07:51:58Z</time>
      </trkpt>
      <trkpt lat="44.27038" lon="4.80611">
        <ele>82</ele>
        <time>2018-02-21T07:52:01Z</time>
      </trkpt>
      <trkpt lat="44.27028" lon="4.80628">
        <ele>82</ele>
        <time>2018-02-21T07:52:04Z</time>
      </trkpt>
      <trkpt lat="44.27021" lon="4.8064">
        <ele>82</ele>
        <time>2018-02-21T07:52:06Z</time>
      </trkpt>
      <trkpt lat="44.2701" lon="4.80656">
        <ele>82</ele>
        <time>2018-02-21T07:52:09Z</time>
      </trkpt>
      <trkpt lat="44.27002" lon="4.80667">
        <ele>82</ele>
        <time>2018-02-21T07:52:11Z</time>
      </trkpt>
      <trkpt lat="44.26991" lon="4.80684">
        <ele>82</ele>
        <time>2018-02-21T07:52:14Z</time>
      </trkpt>
      <trkpt lat="44.26983" lon="4.80695">
        <ele>82</ele>
        <time>2018-02-21T07:52:16Z</time>
      </trkpt>
      <trkpt lat="44.26976" lon="4.80705">
        <ele>82</ele>
        <time>2018-02-21T07:52:18Z</time>
      </trkpt>
      <trkpt lat="44.26964" lon="4.80721">
        <ele>82</ele>
        <time>2018-02-21T07:52:21Z</time>
      </trkpt>
      <trkpt lat="44.26957" lon="4.80731">
        <ele>81</ele>
        <time>2018-02-21T07:52:23Z</time>
      </trkpt>
      <trkpt lat="44.26945" lon="4.80747">
        <ele>82</ele>
        <time>2018-02-21T07:52:26Z</time>
      </trkpt>
      <trkpt lat="44.26938" lon="4.80757">
        <ele>81</ele>
        <time>2018-02-21T07:52:28Z</time>
      </trkpt>
      <trkpt lat="44.26927" lon="4.80772">
        <ele>82</ele>
        <time>2018-02-21T07:52:31Z</time>
      </trkpt>
      <trkpt lat="44.26919" lon="4.80782">
        <ele>82</ele>
        <time>2018-02-21T07:52:33Z</time>
      </trkpt>
      <trkpt lat="44.26908" lon="4.80797">
        <ele>82</ele>
        <time>2018-02-21T07:52:36Z</time>
      </trkpt>
      <trkpt lat="44.269" lon="4.80807">
        <ele>83</ele>
        <time>2018-02-21T07:52:38Z</time>
      </trkpt>
      <trkpt lat="44.26893" lon="4.80817">
        <ele>83</ele>
        <time>2018-02-21T07:52:40Z</time>
      </trkpt>
      <trkpt lat="44.26883" lon="4.80834">
        <ele>83</ele>
        <time>2018-02-21T07:52:43Z</time>
      </trkpt>
      <trkpt lat="44.26876" lon="4.80845">
        <ele>83</ele>
        <time>2018-02-21T07:52:45Z</time>
      </trkpt>
      <trkpt lat="44.26869" lon="4.80857">
        <ele>83</ele>
        <time>2018-02-21T07:52:47Z</time>
      </trkpt>
      <trkpt lat="44.26862" lon="4.80868">
        <ele>83</ele>
        <time>2018-02-21T07:52:49Z</time>
      </trkpt>
      <trkpt lat="44.26852" lon="4.80886">
        <ele>83</ele>
        <time>2018-02-21T07:52:52Z</time>
      </trkpt>
      <trkpt lat="44.26846" lon="4.80898">
        <ele>83</ele>
        <time>2018-02-21T07:52:54Z</time>
      </trkpt>
      <trkpt lat="44.26836" lon="4.80916">
        <ele>83</ele>
        <time>2018-02-21T07:52:57Z</time>
      </trkpt>
      <trkpt lat="44.26827" lon="4.80934">
        <ele>83</ele>
        <time>2018-02-21T07:53:00Z</time>
      </trkpt>
      <trkpt lat="44.26821" lon="4.80945">
        <ele>83</ele>
        <time>2018-02-21T07:53:02Z</time>
      </trkpt>
      <trkpt lat="44.26815" lon="4.80958">
        <ele>84</ele>
        <time>2018-02-21T07:53:04Z</time>
      </trkpt>
      <trkpt lat="44.26809" lon="4.8097">
        <ele>84</ele>
        <time>2018-02-21T07:53:06Z</time>
      </trkpt>
      <trkpt lat="44.26801" lon="4.80988">
        <ele>84</ele>
        <time>2018-02-21T07:53:09Z</time>
      </trkpt>
      <trkpt lat="44.26794" lon="4.81001">
        <ele>84</ele>
        <time>2018-02-21T07:53:11Z</time>
      </trkpt>
      <trkpt lat="44.26789" lon="4.81013">
        <ele>85</ele>
        <time>2018-02-21T07:53:13Z</time>
      </trkpt>
      <trkpt lat="44.26783" lon="4.81026">
        <ele>85</ele>
        <time>2018-02-21T07:53:15Z</time>
      </trkpt>
      <trkpt lat="44.26773" lon="4.81044">
        <ele>85</ele>
        <time>2018-02-21T07:53:18Z</time>
      </trkpt>
      <trkpt lat="44.26768" lon="4.81056">
        <ele>85</ele>
        <time>2018-02-21T07:53:20Z</time>
      </trkpt>
      <trkpt lat="44.26762" lon="4.81068">
        <ele>85</ele>
        <time>2018-02-21T07:53:22Z</time>
      </trkpt>
      <trkpt lat="44.26756" lon="4.8108">
        <ele>85</ele>
        <time>2018-02-21T07:53:24Z</time>
      </trkpt>
      <trkpt lat="44.26747" lon="4.81099">
        <ele>85</ele>
        <time>2018-02-21T07:53:27Z</time>
      </trkpt>
      <trkpt lat="44.26742" lon="4.8111">
        <ele>85</ele>
        <time>2018-02-21T07:53:29Z</time>
      </trkpt>
      <trkpt lat="44.26736" lon="4.81122">
        <ele>84</ele>
        <time>2018-02-21T07:53:31Z</time>
      </trkpt>
      <trkpt lat="44.2673" lon="4.81134">
        <ele>84</ele>
        <time>2018-02-21T07:53:33Z</time>
      </trkpt>
      <trkpt lat="44.26722" lon="4.81152">
        <ele>84</ele>
        <time>2018-02-21T07:53:36Z</time>
      </trkpt>
      <trkpt lat="44.26715" lon="4.81164">
        <ele>84</ele>
        <time>2018-02-21T07:53:38Z</time>
      </trkpt>
      <trkpt lat="44.26709" lon="4.81177">
        <ele>84</ele>
        <time>2018-02-21T07:53:40Z</time>
      </trkpt>
      <trkpt lat="44.26703" lon="4.8119">
        <ele>84</ele>
        <time>2018-02-21T07:53:42Z</time>
      </trkpt>
      <trkpt lat="44.26697" lon="4.81203">
        <ele>84</ele>
        <time>2018-02-21T07:53:44Z</time>
      </trkpt>
      <trkpt lat="44.26687" lon="4.81223">
        <ele>83</ele>
        <time>2018-02-21T07:53:47Z</time>
      </trkpt>
      <trkpt lat="44.26681" lon="4.81236">
        <ele>83</ele>
        <time>2018-02-21T07:53:49Z</time>
      </trkpt>
      <trkpt lat="44.26671" lon="4.81256">
        <ele>83</ele>
        <time>2018-02-21T07:53:52Z</time>
      </trkpt>
      <trkpt lat="44.26664" lon="4.81269">
        <ele>85</ele>
        <time>2018-02-21T07:53:54Z</time>
      </trkpt>
      <trkpt lat="44.26658" lon="4.81282">
        <ele>85</ele>
        <time>2018-02-21T07:53:56Z</time>
      </trkpt>
      <trkpt lat="44.26652" lon="4.81295">
        <ele>85</ele>
        <time>2018-02-21T07:53:58Z</time>
      </trkpt>
      <trkpt lat="44.26642" lon="4.81315">
        <ele>84</ele>
        <time>2018-02-21T07:54:01Z</time>
      </trkpt>
      <trkpt lat="44.26636" lon="4.81328">
        <ele>83</ele>
        <time>2018-02-21T07:54:03Z</time>
      </trkpt>
      <trkpt lat="44.26626" lon="4.81348">
        <ele>83</ele>
        <time>2018-02-21T07:54:06Z</time>
      </trkpt>
      <trkpt lat="44.2662" lon="4.8136">
        <ele>83</ele>
        <time>2018-02-21T07:54:08Z</time>
      </trkpt>
      <trkpt lat="44.2661" lon="4.8138">
        <ele>83</ele>
        <time>2018-02-21T07:54:11Z</time>
      </trkpt>
      <trkpt lat="44.26604" lon="4.81393">
        <ele>83</ele>
        <time>2018-02-21T07:54:13Z</time>
      </trkpt>
      <trkpt lat="44.26595" lon="4.81412">
        <ele>83</ele>
        <time>2018-02-21T07:54:16Z</time>
      </trkpt>
      <trkpt lat="44.26589" lon="4.81425">
        <ele>84</ele>
        <time>2018-02-21T07:54:18Z</time>
      </trkpt>
      <trkpt lat="44.2658" lon="4.81444">
        <ele>84</ele>
        <time>2018-02-21T07:54:21Z</time>
      </trkpt>
      <trkpt lat="44.26573" lon="4.81457">
        <ele>84</ele>
        <time>2018-02-21T07:54:23Z</time>
      </trkpt>
      <trkpt lat="44.26564" lon="4.81476">
        <ele>84</ele>
        <time>2018-02-21T07:54:26Z</time>
      </trkpt>
      <trkpt lat="44.26558" lon="4.81489">
        <ele>85</ele>
        <time>2018-02-21T07:54:28Z</time>
      </trkpt>
      <trkpt lat="44.26548" lon="4.81508">
        <ele>85</ele>
        <time>2018-02-21T07:54:31Z</time>
      </trkpt>
      <trkpt lat="44.26542" lon="4.81521">
        <ele>85</ele>
        <time>2018-02-21T07:54:33Z</time>
      </trkpt>
      <trkpt lat="44.26532" lon="4.81541">
        <ele>85</ele>
        <time>2018-02-21T07:54:36Z</time>
      </trkpt>
      <trkpt lat="44.26526" lon="4.81554">
        <ele>85</ele>
        <time>2018-02-21T07:54:38Z</time>
      </trkpt>
      <trkpt lat="44.26517" lon="4.81573">
        <ele>85</ele>
        <time>2018-02-21T07:54:41Z</time>
      </trkpt>
      <trkpt lat="44.2651" lon="4.81586">
        <ele>86</ele>
        <time>2018-02-21T07:54:43Z</time>
      </trkpt>
      <trkpt lat="44.26501" lon="4.81604">
        <ele>86</ele>
        <time>2018-02-21T07:54:46Z</time>
      </trkpt>
      <trkpt lat="44.26495" lon="4.81617">
        <ele>86</ele>
        <time>2018-02-21T07:54:48Z</time>
      </trkpt>
      <trkpt lat="44.26486" lon="4.81636">
        <ele>86</ele>
        <time>2018-02-21T07:54:51Z</time>
      </trkpt>
      <trkpt lat="44.2648" lon="4.81648">
        <ele>86</ele>
        <time>2018-02-21T07:54:53Z</time>
      </trkpt>
      <trkpt lat="44.2647" lon="4.81667">
        <ele>87</ele>
        <time>2018-02-21T07:54:56Z</time>
      </trkpt>
      <trkpt lat="44.26464" lon="4.81679">
        <ele>87</ele>
        <time>2018-02-21T07:54:58Z</time>
      </trkpt>
      <trkpt lat="44.26458" lon="4.81692">
        <ele>87</ele>
        <time>2018-02-21T07:55:00Z</time>
      </trkpt>
      <trkpt lat="44.26449" lon="4.8171">
        <ele>87</ele>
        <time>2018-02-21T07:55:03Z</time>
      </trkpt>
      <trkpt lat="44.26443" lon="4.81722">
        <ele>86</ele>
        <time>2018-02-21T07:55:05Z</time>
      </trkpt>
      <trkpt lat="44.26435" lon="4.8174">
        <ele>87</ele>
        <time>2018-02-21T07:55:08Z</time>
      </trkpt>
      <trkpt lat="44.26429" lon="4.81752">
        <ele>87</ele>
        <time>2018-02-21T07:55:10Z</time>
      </trkpt>
      <trkpt lat="44.26421" lon="4.8177">
        <ele>88</ele>
        <time>2018-02-21T07:55:13Z</time>
      </trkpt>
      <trkpt lat="44.26415" lon="4.81782">
        <ele>88</ele>
        <time>2018-02-21T07:55:15Z</time>
      </trkpt>
      <trkpt lat="44.26409" lon="4.81794">
        <ele>88</ele>
        <time>2018-02-21T07:55:17Z</time>
      </trkpt>
      <trkpt lat="44.264" lon="4.81812">
        <ele>89</ele>
        <time>2018-02-21T07:55:20Z</time>
      </trkpt>
      <trkpt lat="44.26394" lon="4.81824">
        <ele>89</ele>
        <time>2018-02-21T07:55:22Z</time>
      </trkpt>
      <trkpt lat="44.26386" lon="4.81841">
        <ele>89</ele>
        <time>2018-02-21T07:55:25Z</time>
      </trkpt>
      <trkpt lat="44.26381" lon="4.81852">
        <ele>89</ele>
        <time>2018-02-21T07:55:27Z</time>
      </trkpt>
      <trkpt lat="44.26376" lon="4.81863">
        <ele>90</ele>
        <time>2018-02-21T07:55:29Z</time>
      </trkpt>
      <trkpt lat="44.26367" lon="4.8188">
        <ele>90</ele>
        <time>2018-02-21T07:55:32Z</time>
      </trkpt>
      <trkpt lat="44.26362" lon="4.81891">
        <ele>90</ele>
        <time>2018-02-21T07:55:34Z</time>
      </trkpt>
      <trkpt lat="44.26356" lon="4.81903">
        <ele>90</ele>
        <time>2018-02-21T07:55:36Z</time>
      </trkpt>
      <trkpt lat="44.26348" lon="4.81919">
        <ele>91</ele>
        <time>2018-02-21T07:55:39Z</time>
      </trkpt>
      <trkpt lat="44.26343" lon="4.81929">
        <ele>91</ele>
        <time>2018-02-21T07:55:41Z</time>
      </trkpt>
      <trkpt lat="44.26336" lon="4.81944">
        <ele>93</ele>
        <time>2018-02-21T07:55:44Z</time>
      </trkpt>
      <trkpt lat="44.26331" lon="4.81953">
        <ele>93</ele>
        <time>2018-02-21T07:55:46Z</time>
      </trkpt>
      <trkpt lat="44.26325" lon="4.81967">
        <ele>93</ele>
        <time>2018-02-21T07:55:49Z</time>
      </trkpt>
      <trkpt lat="44.2632" lon="4.81977">
        <ele>94</ele>
        <time>2018-02-21T07:55:51Z</time>
      </trkpt>
      <trkpt lat="44.26315" lon="4.81987">
        <ele>94</ele>
        <time>2018-02-21T07:55:53Z</time>
      </trkpt>
      <trkpt lat="44.26308" lon="4.82001">
        <ele>94</ele>
        <time>2018-02-21T07:55:56Z</time>
      </trkpt>
      <trkpt lat="44.26302" lon="4.82012">
        <ele>95</ele>
        <time>2018-02-21T07:55:58Z</time>
      </trkpt>
      <trkpt lat="44.26297" lon="4.82022">
        <ele>95</ele>
        <time>2018-02-21T07:56:00Z</time>
      </trkpt>
      <trkpt lat="44.26292" lon="4.82032">
        <ele>96</ele>
        <time>2018-02-21T07:56:02Z</time>
      </trkpt>
      <trkpt lat="44.26287" lon="4.82043">
        <ele>96</ele>
        <time>2018-02-21T07:56:04Z</time>
      </trkpt>
      <trkpt lat="44.2628" lon="4.82058">
        <ele>96</ele>
        <time>2018-02-21T07:56:07Z</time>
      </trkpt>
      <trkpt lat="44.26274" lon="4.82068">
        <ele>96</ele>
        <time>2018-02-21T07:56:09Z</time>
      </trkpt>
      <trkpt lat="44.26267" lon="4.82084">
        <ele>96</ele>
        <time>2018-02-21T07:56:12Z</time>
      </trkpt>
      <trkpt lat="44.26262" lon="4.82094">
        <ele>97</ele>
        <time>2018-02-21T07:56:14Z</time>
      </trkpt>
      <trkpt lat="44.26257" lon="4.82104">
        <ele>97</ele>
        <time>2018-02-21T07:56:16Z</time>
      </trkpt>
      <trkpt lat="44.26248" lon="4.8212">
        <ele>98</ele>
        <time>2018-02-21T07:56:19Z</time>
      </trkpt>
      <trkpt lat="44.26242" lon="4.8213">
        <ele>98</ele>
        <time>2018-02-21T07:56:21Z</time>
      </trkpt>
      <trkpt lat="44.26237" lon="4.8214">
        <ele>98</ele>
        <time>2018-02-21T07:56:23Z</time>
      </trkpt>
      <trkpt lat="44.26228" lon="4.82155">
        <ele>99</ele>
        <time>2018-02-21T07:56:26Z</time>
      </trkpt>
      <trkpt lat="44.26222" lon="4.82164">
        <ele>99</ele>
        <time>2018-02-21T07:56:28Z</time>
      </trkpt>
      <trkpt lat="44.26215" lon="4.82173">
        <ele>99</ele>
        <time>2018-02-21T07:56:30Z</time>
      </trkpt>
      <trkpt lat="44.26205" lon="4.82186">
        <ele>98</ele>
        <time>2018-02-21T07:56:33Z</time>
      </trkpt>
      <trkpt lat="44.26195" lon="4.82198">
        <ele>98</ele>
        <time>2018-02-21T07:56:36Z</time>
      </trkpt>
      <trkpt lat="44.26184" lon="4.8221">
        <ele>98</ele>
        <time>2018-02-21T07:56:39Z</time>
      </trkpt>
      <trkpt lat="44.26176" lon="4.82218">
        <ele>99</ele>
        <time>2018-02-21T07:56:41Z</time>
      </trkpt>
      <trkpt lat="44.26168" lon="4.82225">
        <ele>99</ele>
        <time>2018-02-21T07:56:43Z</time>
      </trkpt>
      <trkpt lat="44.26156" lon="4.82235">
        <ele>99</ele>
        <time>2018-02-21T07:56:46Z</time>
      </trkpt>
      <trkpt lat="44.26147" lon="4.82242">
        <ele>99</ele>
        <time>2018-02-21T07:56:48Z</time>
      </trkpt>
      <trkpt lat="44.26133" lon="4.82251">
        <ele>99</ele>
        <time>2018-02-21T07:56:51Z</time>
      </trkpt>
      <trkpt lat="44.26118" lon="4.82258">
        <ele>99</ele>
        <time>2018-02-21T07:56:54Z</time>
      </trkpt>
      <trkpt lat="44.26108" lon="4.82263">
        <ele>100</ele>
        <time>2018-02-21T07:56:56Z</time>
      </trkpt>
      <trkpt lat="44.26098" lon="4.82266">
        <ele>99</ele>
        <time>2018-02-21T07:56:58Z</time>
      </trkpt>
      <trkpt lat="44.26083" lon="4.82271">
        <ele>99</ele>
        <time>2018-02-21T07:57:01Z</time>
      </trkpt>
      <trkpt lat="44.26068" lon="4.82275">
        <ele>99</ele>
        <time>2018-02-21T07:57:04Z</time>
      </trkpt>
      <trkpt lat="44.26053" lon="4.82279">
        <ele>99</ele>
        <time>2018-02-21T07:57:07Z</time>
      </trkpt>
      <trkpt lat="44.26038" lon="4.82282">
        <ele>100</ele>
        <time>2018-02-21T07:57:10Z</time>
      </trkpt>
      <trkpt lat="44.26022" lon="4.82285">
        <ele>100</ele>
        <time>2018-02-21T07:57:13Z</time>
      </trkpt>
      <trkpt lat="44.26006" lon="4.82289">
        <ele>100</ele>
        <time>2018-02-21T07:57:16Z</time>
      </trkpt>
      <trkpt lat="44.2599" lon="4.82292">
        <ele>100</ele>
        <time>2018-02-21T07:57:19Z</time>
      </trkpt>
      <trkpt lat="44.25975" lon="4.82294">
        <ele>100</ele>
        <time>2018-02-21T07:57:22Z</time>
      </trkpt>
      <trkpt lat="44.25965" lon="4.82296">
        <ele>100</ele>
        <time>2018-02-21T07:57:24Z</time>
      </trkpt>
      <trkpt lat="44.25955" lon="4.82298">
        <ele>100</ele>
        <time>2018-02-21T07:57:26Z</time>
      </trkpt>
      <trkpt lat="44.2594" lon="4.823">
        <ele>100</ele>
        <time>2018-02-21T07:57:29Z</time>
      </trkpt>
      <trkpt lat="44.25924" lon="4.82303">
        <ele>100</ele>
        <time>2018-02-21T07:57:32Z</time>
      </trkpt>
      <trkpt lat="44.25908" lon="4.82306">
        <ele>100</ele>
        <time>2018-02-21T07:57:35Z</time>
      </trkpt>
      <trkpt lat="44.25893" lon="4.82309">
        <ele>100</ele>
        <time>2018-02-21T07:57:38Z</time>
      </trkpt>
      <trkpt lat="44.25882" lon="4.82312">
        <ele>101</ele>
        <time>2018-02-21T07:57:40Z</time>
      </trkpt>
      <trkpt lat="44.25867" lon="4.82315">
        <ele>100</ele>
        <time>2018-02-21T07:57:43Z</time>
      </trkpt>
      <trkpt lat="44.25851" lon="4.82319">
        <ele>101</ele>
        <time>2018-02-21T07:57:46Z</time>
      </trkpt>
      <trkpt lat="44.2584" lon="4.82323">
        <ele>101</ele>
        <time>2018-02-21T07:57:48Z</time>
      </trkpt>
      <trkpt lat="44.25825" lon="4.82328">
        <ele>101</ele>
        <time>2018-02-21T07:57:51Z</time>
      </trkpt>
      <trkpt lat="44.25814" lon="4.82331">
        <ele>101</ele>
        <time>2018-02-21T07:57:53Z</time>
      </trkpt>
      <trkpt lat="44.25803" lon="4.82334">
        <ele>101</ele>
        <time>2018-02-21T07:57:55Z</time>
      </trkpt>
      <trkpt lat="44.25788" lon="4.8234">
        <ele>101</ele>
        <time>2018-02-21T07:57:58Z</time>
      </trkpt>
      <trkpt lat="44.25777" lon="4.82344">
        <ele>101</ele>
        <time>2018-02-21T07:58:00Z</time>
      </trkpt>
      <trkpt lat="44.25761" lon="4.8235">
        <ele>101</ele>
        <time>2018-02-21T07:58:03Z</time>
      </trkpt>
      <trkpt lat="44.25751" lon="4.82355">
        <ele>102</ele>
        <time>2018-02-21T07:58:05Z</time>
      </trkpt>
      <trkpt lat="44.25735" lon="4.82361">
        <ele>102</ele>
        <time>2018-02-21T07:58:08Z</time>
      </trkpt>
      <trkpt lat="44.25724" lon="4.82366">
        <ele>102</ele>
        <time>2018-02-21T07:58:10Z</time>
      </trkpt>
      <trkpt lat="44.25714" lon="4.8237">
        <ele>102</ele>
        <time>2018-02-21T07:58:12Z</time>
      </trkpt>
      <trkpt lat="44.25699" lon="4.82376">
        <ele>102</ele>
        <time>2018-02-21T07:58:15Z</time>
      </trkpt>
      <trkpt lat="44.25689" lon="4.82381">
        <ele>102</ele>
        <time>2018-02-21T07:58:17Z</time>
      </trkpt>
      <trkpt lat="44.25674" lon="4.82387">
        <ele>102</ele>
        <time>2018-02-21T07:58:20Z</time>
      </trkpt>
      <trkpt lat="44.25664" lon="4.82391">
        <ele>102</ele>
        <time>2018-02-21T07:58:22Z</time>
      </trkpt>
      <trkpt lat="44.25649" lon="4.82397">
        <ele>103</ele>
        <time>2018-02-21T07:58:25Z</time>
      </trkpt>
      <trkpt lat="44.25639" lon="4.82401">
        <ele>103</ele>
        <time>2018-02-21T07:58:27Z</time>
      </trkpt>
      <trkpt lat="44.25629" lon="4.82405">
        <ele>103</ele>
        <time>2018-02-21T07:58:29Z</time>
      </trkpt>
      <trkpt lat="44.25614" lon="4.82412">
        <ele>103</ele>
        <time>2018-02-21T07:58:32Z</time>
      </trkpt>
      <trkpt lat="44.25604" lon="4.82416">
        <ele>103</ele>
        <time>2018-02-21T07:58:34Z</time>
      </trkpt>
      <trkpt lat="44.25588" lon="4.82422">
        <ele>103</ele>
        <time>2018-02-21T07:58:37Z</time>
      </trkpt>
      <trkpt lat="44.25578" lon="4.82427">
        <ele>103</ele>
        <time>2018-02-21T07:58:39Z</time>
      </trkpt>
      <trkpt lat="44.25563" lon="4.82433">
        <ele>104</ele>
        <time>2018-02-21T07:58:42Z</time>
      </trkpt>
      <trkpt lat="44.25553" lon="4.82437">
        <ele>104</ele>
        <time>2018-02-21T07:58:44Z</time>
      </trkpt>
      <trkpt lat="44.25537" lon="4.82444">
        <ele>105</ele>
        <time>2018-02-21T07:58:47Z</time>
      </trkpt>
      <trkpt lat="44.25527" lon="4.82448">
        <ele>105</ele>
        <time>2018-02-21T07:58:49Z</time>
      </trkpt>
      <trkpt lat="44.25516" lon="4.82453">
        <ele>104</ele>
        <time>2018-02-21T07:58:51Z</time>
      </trkpt>
      <trkpt lat="44.25501" lon="4.82459">
        <ele>104</ele>
        <time>2018-02-21T07:58:54Z</time>
      </trkpt>
      <trkpt lat="44.25491" lon="4.82463">
        <ele>103</ele>
        <time>2018-02-21T07:58:56Z</time>
      </trkpt>
      <trkpt lat="44.25476" lon="4.82469">
        <ele>103</ele>
        <time>2018-02-21T07:58:59Z</time>
      </trkpt>
      <trkpt lat="44.25467" lon="4.82473">
        <ele>103</ele>
        <time>2018-02-21T07:59:01Z</time>
      </trkpt>
      <trkpt lat="44.25457" lon="4.82477">
        <ele>103</ele>
        <time>2018-02-21T07:59:03Z</time>
      </trkpt>
      <trkpt lat="44.25442" lon="4.82483">
        <ele>103</ele>
        <time>2018-02-21T07:59:06Z</time>
      </trkpt>
      <trkpt lat="44.25432" lon="4.82488">
        <ele>103</ele>
        <time>2018-02-21T07:59:08Z</time>
      </trkpt>
      <trkpt lat="44.25417" lon="4.82495">
        <ele>103</ele>
        <time>2018-02-21T07:59:11Z</time>
      </trkpt>
      <trkpt lat="44.25407" lon="4.82499">
        <ele>104</ele>
        <time>2018-02-21T07:59:13Z</time>
      </trkpt>
      <trkpt lat="44.25392" lon="4.82505">
        <ele>104</ele>
        <time>2018-02-21T07:59:16Z</time>
      </trkpt>
      <trkpt lat="44.25382" lon="4.8251">
        <ele>105</ele>
        <time>2018-02-21T07:59:18Z</time>
      </trkpt>
      <trkpt lat="44.25372" lon="4.82514">
        <ele>106</ele>
        <time>2018-02-21T07:59:20Z</time>
      </trkpt>
      <trkpt lat="44.25358" lon="4.8252">
        <ele>106</ele>
        <time>2018-02-21T07:59:23Z</time>
      </trkpt>
      <trkpt lat="44.25348" lon="4.82524">
        <ele>106</ele>
        <time>2018-02-21T07:59:25Z</time>
      </trkpt>
      <trkpt lat="44.25333" lon="4.82531">
        <ele>105</ele>
        <time>2018-02-21T07:59:28Z</time>
      </trkpt>
      <trkpt lat="44.25324" lon="4.82536">
        <ele>105</ele>
        <time>2018-02-21T07:59:30Z</time>
      </trkpt>
      <trkpt lat="44.25309" lon="4.82543">
        <ele>105</ele>
        <time>2018-02-21T07:59:33Z</time>
      </trkpt>
      <trkpt lat="44.25296" lon="4.82551">
        <ele>105</ele>
        <time>2018-02-21T07:59:36Z</time>
      </trkpt>
      <trkpt lat="44.25284" lon="4.82559">
        <ele>105</ele>
        <time>2018-02-21T07:59:39Z</time>
      </trkpt>
      <trkpt lat="44.25275" lon="4.82567">
        <ele>105</ele>
        <time>2018-02-21T07:59:42Z</time>
      </trkpt>
      <trkpt lat="44.25266" lon="4.82576">
        <ele>106</ele>
        <time>2018-02-21T07:59:45Z</time>
      </trkpt>
      <trkpt lat="44.25261" lon="4.82581">
        <ele>106</ele>
        <time>2018-02-21T07:59:47Z</time>
      </trkpt>
      <trkpt lat="44.25254" lon="4.82588">
        <ele>107</ele>
        <time>2018-02-21T07:59:50Z</time>
      </trkpt>
      <trkpt lat="44.2525" lon="4.82593">
        <ele>107</ele>
        <time>2018-02-21T07:59:52Z</time>
      </trkpt>
      <trkpt lat="44.25245" lon="4.82599">
        <ele>107</ele>
        <time>2018-02-21T07:59:54Z</time>
      </trkpt>
      <trkpt lat="44.25238" lon="4.82607">
        <ele>107</ele>
        <time>2018-02-21T07:59:57Z</time>
      </trkpt>
      <trkpt lat="44.25233" lon="4.82613">
        <ele>107</ele>
        <time>2018-02-21T07:59:59Z</time>
      </trkpt>
      <trkpt lat="44.25226" lon="4.82623">
        <ele>107</ele>
        <time>2018-02-21T08:00:02Z</time>
      </trkpt>
      <trkpt lat="44.25222" lon="4.82629">
        <ele>106</ele>
        <time>2018-02-21T08:00:04Z</time>
      </trkpt>
      <trkpt lat="44.25217" lon="4.82634">
        <ele>106</ele>
        <time>2018-02-21T08:00:06Z</time>
      </trkpt>
      <trkpt lat="44.25212" lon="4.82643">
        <ele>106</ele>
        <time>2018-02-21T08:00:09Z</time>
      </trkpt>
      <trkpt lat="44.25207" lon="4.82649">
        <ele>106</ele>
        <time>2018-02-21T08:00:11Z</time>
      </trkpt>
      <trkpt lat="44.25201" lon="4.82658">
        <ele>107</ele>
        <time>2018-02-21T08:00:14Z</time>
      </trkpt>
      <trkpt lat="44.25196" lon="4.82664">
        <ele>108</ele>
        <time>2018-02-21T08:00:16Z</time>
      </trkpt>
      <trkpt lat="44.25189" lon="4.82674">
        <ele>108</ele>
        <time>2018-02-21T08:00:19Z</time>
      </trkpt>
      <trkpt lat="44.25185" lon="4.8268">
        <ele>107</ele>
        <time>2018-02-21T08:00:21Z</time>
      </trkpt>
      <trkpt lat="44.2518" lon="4.82687">
        <ele>107</ele>
        <time>2018-02-21T08:00:23Z</time>
      </trkpt>
      <trkpt lat="44.25173" lon="4.82696">
        <ele>107</ele>
        <time>2018-02-21T08:00:26Z</time>
      </trkpt>
      <trkpt lat="44.25168" lon="4.82703">
        <ele>107</ele>
        <time>2018-02-21T08:00:28Z</time>
      </trkpt>
      <trkpt lat="44.25164" lon="4.8271">
        <ele>107</ele>
        <time>2018-02-21T08:00:30Z</time>
      </trkpt>
      <trkpt lat="44.25156" lon="4.82721">
        <ele>107</ele>
        <time>2018-02-21T08:00:33Z</time>
      </trkpt>
      <trkpt lat="44.25151" lon="4.82728">
        <ele>107</ele>
        <time>2018-02-21T08:00:35Z</time>
      </trkpt>
      <trkpt lat="44.25143" lon="4.82738">
        <ele>107</ele>
        <time>2018-02-21T08:00:38Z</time>
      </trkpt>
      <trkpt lat="44.25138" lon="4.82745">
        <ele>107</ele>
        <time>2018-02-21T08:00:40Z</time>
      </trkpt>
      <trkpt lat="44.25133" lon="4.82752">
        <ele>108</ele>
        <time>2018-02-21T08:00:42Z</time>
      </trkpt>
      <trkpt lat="44.25128" lon="4.82758">
        <ele>108</ele>
        <time>2018-02-21T08:00:44Z</time>
      </trkpt>
      <trkpt lat="44.25121" lon="4.82769">
        <ele>109</ele>
        <time>2018-02-21T08:00:47Z</time>
      </trkpt>
      <trkpt lat="44.25116" lon="4.82776">
        <ele>109</ele>
        <time>2018-02-21T08:00:49Z</time>
      </trkpt>
      <trkpt lat="44.25108" lon="4.82787">
        <ele>108</ele>
        <time>2018-02-21T08:00:52Z</time>
      </trkpt>
      <trkpt lat="44.25102" lon="4.82794">
        <ele>108</ele>
        <time>2018-02-21T08:00:54Z</time>
      </trkpt>
      <trkpt lat="44.25097" lon="4.82802">
        <ele>109</ele>
        <time>2018-02-21T08:00:56Z</time>
      </trkpt>
      <trkpt lat="44.25089" lon="4.82813">
        <ele>109</ele>
        <time>2018-02-21T08:00:59Z</time>
      </trkpt>
      <trkpt lat="44.25084" lon="4.8282">
        <ele>109</ele>
        <time>2018-02-21T08:01:01Z</time>
      </trkpt>
      <trkpt lat="44.25077" lon="4.8283">
        <ele>109</ele>
        <time>2018-02-21T08:01:04Z</time>
      </trkpt>
      <trkpt lat="44.25071" lon="4.82837">
        <ele>109</ele>
        <time>2018-02-21T08:01:06Z</time>
      </trkpt>
      <trkpt lat="44.25067" lon="4.82843">
        <ele>109</ele>
        <time>2018-02-21T08:01:08Z</time>
      </trkpt>
      <trkpt lat="44.25063" lon="4.82849">
        <ele>109</ele>
        <time>2018-02-21T08:01:10Z</time>
      </trkpt>
      <trkpt lat="44.25058" lon="4.82855">
        <ele>109</ele>
        <time>2018-02-21T08:01:12Z</time>
      </trkpt>
      <trkpt lat="44.2505" lon="4.82863">
        <ele>110</ele>
        <time>2018-02-21T08:01:15Z</time>
      </trkpt>
      <trkpt lat="44.25043" lon="4.82872">
        <ele>110</ele>
        <time>2018-02-21T08:01:18Z</time>
      </trkpt>
      <trkpt lat="44.2504" lon="4.8288">
        <ele>110</ele>
        <time>2018-02-21T08:01:20Z</time>
      </trkpt>
      <trkpt lat="44.25035" lon="4.82891">
        <ele>110</ele>
        <time>2018-02-21T08:01:23Z</time>
      </trkpt>
      <trkpt lat="44.25031" lon="4.82897">
        <ele>110</ele>
        <time>2018-02-21T08:01:25Z</time>
      </trkpt>
      <trkpt lat="44.25024" lon="4.82908">
        <ele>110</ele>
        <time>2018-02-21T08:01:28Z</time>
      </trkpt>
      <trkpt lat="44.25019" lon="4.82915">
        <ele>110</ele>
        <time>2018-02-21T08:01:30Z</time>
      </trkpt>
      <trkpt lat="44.25013" lon="4.82926">
        <ele>110</ele>
        <time>2018-02-21T08:01:33Z</time>
      </trkpt>
      <trkpt lat="44.25009" lon="4.82932">
        <ele>110</ele>
        <time>2018-02-21T08:01:35Z</time>
      </trkpt>
      <trkpt lat="44.25004" lon="4.82938">
        <ele>110</ele>
        <time>2018-02-21T08:01:37Z</time>
      </trkpt>
      <trkpt lat="44.24997" lon="4.82948">
        <ele>110</ele>
        <time>2018-02-21T08:01:40Z</time>
      </trkpt>
      <trkpt lat="44.24993" lon="4.82956">
        <ele>110</ele>
        <time>2018-02-21T08:01:42Z</time>
      </trkpt>
      <trkpt lat="44.24986" lon="4.82966">
        <ele>110</ele>
        <time>2018-02-21T08:01:45Z</time>
      </trkpt>
      <trkpt lat="44.24981" lon="4.82974">
        <ele>110</ele>
        <time>2018-02-21T08:01:47Z</time>
      </trkpt>
      <trkpt lat="44.24977" lon="4.82981">
        <ele>110</ele>
        <time>2018-02-21T08:01:49Z</time>
      </trkpt>
      <trkpt lat="44.2497" lon="4.82992">
        <ele>110</ele>
        <time>2018-02-21T08:01:52Z</time>
      </trkpt>
      <trkpt lat="44.24966" lon="4.82999">
        <ele>111</ele>
        <time>2018-02-21T08:01:54Z</time>
      </trkpt>
      <trkpt lat="44.24958" lon="4.83009">
        <ele>111</ele>
        <time>2018-02-21T08:01:57Z</time>
      </trkpt>
      <trkpt lat="44.24954" lon="4.83016">
        <ele>112</ele>
        <time>2018-02-21T08:01:59Z</time>
      </trkpt>
      <trkpt lat="44.2495" lon="4.83023">
        <ele>112</ele>
        <time>2018-02-21T08:02:01Z</time>
      </trkpt>
      <trkpt lat="44.24943" lon="4.83034">
        <ele>113</ele>
        <time>2018-02-21T08:02:04Z</time>
      </trkpt>
      <trkpt lat="44.24936" lon="4.83045">
        <ele>113</ele>
        <time>2018-02-21T08:02:07Z</time>
      </trkpt>
      <trkpt lat="44.24931" lon="4.83052">
        <ele>113</ele>
        <time>2018-02-21T08:02:09Z</time>
      </trkpt>
      <trkpt lat="44.24927" lon="4.83059">
        <ele>113</ele>
        <time>2018-02-21T08:02:11Z</time>
      </trkpt>
      <trkpt lat="44.24922" lon="4.83066">
        <ele>113</ele>
        <time>2018-02-21T08:02:13Z</time>
      </trkpt>
      <trkpt lat="44.24916" lon="4.83077">
        <ele>113</ele>
        <time>2018-02-21T08:02:16Z</time>
      </trkpt>
      <trkpt lat="44.24912" lon="4.83083">
        <ele>113</ele>
        <time>2018-02-21T08:02:18Z</time>
      </trkpt>
      <trkpt lat="44.24906" lon="4.83093">
        <ele>113</ele>
        <time>2018-02-21T08:02:21Z</time>
      </trkpt>
      <trkpt lat="44.24902" lon="4.83098">
        <ele>113</ele>
        <time>2018-02-21T08:02:23Z</time>
      </trkpt>
      <trkpt lat="44.24898" lon="4.83105">
        <ele>113</ele>
        <time>2018-02-21T08:02:26Z</time>
      </trkpt>
      <trkpt lat="44.24895" lon="4.83109">
        <ele>113</ele>
        <time>2018-02-21T08:02:28Z</time>
      </trkpt>
      <trkpt lat="44.24894" lon="4.83109">
        <ele>113</ele>
        <time>2018-02-21T08:02:30Z</time>
      </trkpt>
      <trkpt lat="44.24894" lon="4.8311">
        <ele>113</ele>
        <time>2018-02-21T08:02:33Z</time>
      </trkpt>
      <trkpt lat="44.24894" lon="4.8311">
        <ele>114</ele>
        <time>2018-02-21T08:02:36Z</time>
      </trkpt>
      <trkpt lat="44.24894" lon="4.8311">
        <ele>114</ele>
        <time>2018-02-21T08:02:40Z</time>
      </trkpt>
      <trkpt lat="44.24892" lon="4.83114">
        <ele>114</ele>
        <time>2018-02-21T08:02:43Z</time>
      </trkpt>
      <trkpt lat="44.24891" lon="4.83119">
        <ele>114</ele>
        <time>2018-02-21T08:02:45Z</time>
      </trkpt>
      <trkpt lat="44.24889" lon="4.83123">
        <ele>114</ele>
        <time>2018-02-21T08:02:47Z</time>
      </trkpt>
      <trkpt lat="44.24884" lon="4.83131">
        <ele>114</ele>
        <time>2018-02-21T08:02:50Z</time>
      </trkpt>
      <trkpt lat="44.24879" lon="4.83137">
        <ele>114</ele>
        <time>2018-02-21T08:02:52Z</time>
      </trkpt>
      <trkpt lat="44.24873" lon="4.83144">
        <ele>114</ele>
        <time>2018-02-21T08:02:54Z</time>
      </trkpt>
      <trkpt lat="44.24866" lon="4.83156">
        <ele>114</ele>
        <time>2018-02-21T08:02:57Z</time>
      </trkpt>
      <trkpt lat="44.24861" lon="4.83165">
        <ele>114</ele>
        <time>2018-02-21T08:02:59Z</time>
      </trkpt>
      <trkpt lat="44.24853" lon="4.83178">
        <ele>115</ele>
        <time>2018-02-21T08:03:02Z</time>
      </trkpt>
      <trkpt lat="44.24847" lon="4.83187">
        <ele>115</ele>
        <time>2018-02-21T08:03:04Z</time>
      </trkpt>
      <trkpt lat="44.2484" lon="4.832">
        <ele>115</ele>
        <time>2018-02-21T08:03:07Z</time>
      </trkpt>
      <trkpt lat="44.24832" lon="4.83214">
        <ele>115</ele>
        <time>2018-02-21T08:03:10Z</time>
      </trkpt>
      <trkpt lat="44.24826" lon="4.8323">
        <ele>115</ele>
        <time>2018-02-21T08:03:13Z</time>
      </trkpt>
      <trkpt lat="44.24822" lon="4.83243">
        <ele>115</ele>
        <time>2018-02-21T08:03:15Z</time>
      </trkpt>
      <trkpt lat="44.24818" lon="4.83265">
        <ele>115</ele>
        <time>2018-02-21T08:03:18Z</time>
      </trkpt>
      <trkpt lat="44.24817" lon="4.83281">
        <ele>115</ele>
        <time>2018-02-21T08:03:20Z</time>
      </trkpt>
      <trkpt lat="44.24817" lon="4.83298">
        <ele>115</ele>
        <time>2018-02-21T08:03:22Z</time>
      </trkpt>
      <trkpt lat="44.24817" lon="4.83326">
        <ele>115</ele>
        <time>2018-02-21T08:03:25Z</time>
      </trkpt>
      <trkpt lat="44.24818" lon="4.83355">
        <ele>114</ele>
        <time>2018-02-21T08:03:28Z</time>
      </trkpt>
      <trkpt lat="44.24819" lon="4.83375">
        <ele>114</ele>
        <time>2018-02-21T08:03:30Z</time>
      </trkpt>
      <trkpt lat="44.2482" lon="4.83394">
        <ele>114</ele>
        <time>2018-02-21T08:03:32Z</time>
      </trkpt>
      <trkpt lat="44.24821" lon="4.83423">
        <ele>114</ele>
        <time>2018-02-21T08:03:35Z</time>
      </trkpt>
      <trkpt lat="44.24823" lon="4.83452">
        <ele>113</ele>
        <time>2018-02-21T08:03:38Z</time>
      </trkpt>
      <trkpt lat="44.24823" lon="4.83472">
        <ele>113</ele>
        <time>2018-02-21T08:03:40Z</time>
      </trkpt>
      <trkpt lat="44.24824" lon="4.83491">
        <ele>113</ele>
        <time>2018-02-21T08:03:42Z</time>
      </trkpt>
      <trkpt lat="44.24825" lon="4.83511">
        <ele>113</ele>
        <time>2018-02-21T08:03:44Z</time>
      </trkpt>
      <trkpt lat="44.24826" lon="4.8354">
        <ele>112</ele>
        <time>2018-02-21T08:03:47Z</time>
      </trkpt>
      <trkpt lat="44.24827" lon="4.8356">
        <ele>112</ele>
        <time>2018-02-21T08:03:49Z</time>
      </trkpt>
      <trkpt lat="44.24828" lon="4.8358">
        <ele>111</ele>
        <time>2018-02-21T08:03:51Z</time>
      </trkpt>
      <trkpt lat="44.2483" lon="4.83611">
        <ele>110</ele>
        <time>2018-02-21T08:03:54Z</time>
      </trkpt>
      <trkpt lat="44.24831" lon="4.83631">
        <ele>110</ele>
        <time>2018-02-21T08:03:56Z</time>
      </trkpt>
      <trkpt lat="44.24834" lon="4.83662">
        <ele>108</ele>
        <time>2018-02-21T08:03:59Z</time>
      </trkpt>
      <trkpt lat="44.24835" lon="4.83682">
        <ele>108</ele>
        <time>2018-02-21T08:04:01Z</time>
      </trkpt>
      <trkpt lat="44.24837" lon="4.83703">
        <ele>109</ele>
        <time>2018-02-21T08:04:03Z</time>
      </trkpt>
      <trkpt lat="44.24838" lon="4.83723">
        <ele>109</ele>
        <time>2018-02-21T08:04:05Z</time>
      </trkpt>
      <trkpt lat="44.2484" lon="4.83743">
        <ele>110</ele>
        <time>2018-02-21T08:04:07Z</time>
      </trkpt>
      <trkpt lat="44.24843" lon="4.83772">
        <ele>112</ele>
        <time>2018-02-21T08:04:10Z</time>
      </trkpt>
      <trkpt lat="44.24845" lon="4.838">
        <ele>110</ele>
        <time>2018-02-21T08:04:13Z</time>
      </trkpt>
      <trkpt lat="44.24847" lon="4.83819">
        <ele>109</ele>
        <time>2018-02-21T08:04:15Z</time>
      </trkpt>
      <trkpt lat="44.24848" lon="4.83839">
        <ele>106</ele>
        <time>2018-02-21T08:04:17Z</time>
      </trkpt>
      <trkpt lat="44.2485" lon="4.8387">
        <ele>103</ele>
        <time>2018-02-21T08:04:20Z</time>
      </trkpt>
      <trkpt lat="44.24852" lon="4.8389">
        <ele>103</ele>
        <time>2018-02-21T08:04:22Z</time>
      </trkpt>
      <trkpt lat="44.24854" lon="4.8392">
        <ele>103</ele>
        <time>2018-02-21T08:04:25Z</time>
      </trkpt>
      <trkpt lat="44.24855" lon="4.83949">
        <ele>103</ele>
        <time>2018-02-21T08:04:28Z</time>
      </trkpt>
      <trkpt lat="44.24856" lon="4.83976">
        <ele>102</ele>
        <time>2018-02-21T08:04:31Z</time>
      </trkpt>
      <trkpt lat="44.24857" lon="4.83994">
        <ele>102</ele>
        <time>2018-02-21T08:04:33Z</time>
      </trkpt>
      <trkpt lat="44.24858" lon="4.84013">
        <ele>102</ele>
        <time>2018-02-21T08:04:35Z</time>
      </trkpt>
      <trkpt lat="44.2486" lon="4.8404">
        <ele>101</ele>
        <time>2018-02-21T08:04:38Z</time>
      </trkpt>
      <trkpt lat="44.24862" lon="4.84058">
        <ele>101</ele>
        <time>2018-02-21T08:04:40Z</time>
      </trkpt>
      <trkpt lat="44.24863" lon="4.84086">
        <ele>100</ele>
        <time>2018-02-21T08:04:43Z</time>
      </trkpt>
      <trkpt lat="44.24865" lon="4.84112">
        <ele>100</ele>
        <time>2018-02-21T08:04:46Z</time>
      </trkpt>
      <trkpt lat="44.24866" lon="4.84138">
        <ele>100</ele>
        <time>2018-02-21T08:04:49Z</time>
      </trkpt>
      <trkpt lat="44.24868" lon="4.84163">
        <ele>100</ele>
        <time>2018-02-21T08:04:52Z</time>
      </trkpt>
      <trkpt lat="44.24869" lon="4.84179">
        <ele>99</ele>
        <time>2018-02-21T08:04:54Z</time>
      </trkpt>
      <trkpt lat="44.24871" lon="4.84204">
        <ele>99</ele>
        <time>2018-02-21T08:04:57Z</time>
      </trkpt>
      <trkpt lat="44.24872" lon="4.8422">
        <ele>98</ele>
        <time>2018-02-21T08:04:59Z</time>
      </trkpt>
      <trkpt lat="44.24873" lon="4.84244">
        <ele>98</ele>
        <time>2018-02-21T08:05:02Z</time>
      </trkpt>
      <trkpt lat="44.24875" lon="4.84269">
        <ele>98</ele>
        <time>2018-02-21T08:05:05Z</time>
      </trkpt>
      <trkpt lat="44.24876" lon="4.84293">
        <ele>98</ele>
        <time>2018-02-21T08:05:08Z</time>
      </trkpt>
      <trkpt lat="44.24878" lon="4.84317">
        <ele>98</ele>
        <time>2018-02-21T08:05:11Z</time>
      </trkpt>
      <trkpt lat="44.24879" lon="4.84342">
        <ele>97</ele>
        <time>2018-02-21T08:05:14Z</time>
      </trkpt>
      <trkpt lat="44.24881" lon="4.84367">
        <ele>97</ele>
        <time>2018-02-21T08:05:17Z</time>
      </trkpt>
      <trkpt lat="44.24882" lon="4.84392">
        <ele>98</ele>
        <time>2018-02-21T08:05:20Z</time>
      </trkpt>
      <trkpt lat="44.24884" lon="4.84416">
        <ele>98</ele>
        <time>2018-02-21T08:05:23Z</time>
      </trkpt>
      <trkpt lat="44.24884" lon="4.84433">
        <ele>98</ele>
        <time>2018-02-21T08:05:25Z</time>
      </trkpt>
      <trkpt lat="44.24885" lon="4.84448">
        <ele>98</ele>
        <time>2018-02-21T08:05:27Z</time>
      </trkpt>
      <trkpt lat="44.24886" lon="4.84472">
        <ele>98</ele>
        <time>2018-02-21T08:05:30Z</time>
      </trkpt>
      <trkpt lat="44.24888" lon="4.84496">
        <ele>99</ele>
        <time>2018-02-21T08:05:33Z</time>
      </trkpt>
      <trkpt lat="44.24889" lon="4.84512">
        <ele>100</ele>
        <time>2018-02-21T08:05:35Z</time>
      </trkpt>
      <trkpt lat="44.2489" lon="4.84536">
        <ele>101</ele>
        <time>2018-02-21T08:05:38Z</time>
      </trkpt>
      <trkpt lat="44.24891" lon="4.84551">
        <ele>101</ele>
        <time>2018-02-21T08:05:40Z</time>
      </trkpt>
      <trkpt lat="44.24892" lon="4.84567">
        <ele>100</ele>
        <time>2018-02-21T08:05:42Z</time>
      </trkpt>
      <trkpt lat="44.24893" lon="4.84583">
        <ele>99</ele>
        <time>2018-02-21T08:05:44Z</time>
      </trkpt>
      <trkpt lat="44.24894" lon="4.84607">
        <ele>97</ele>
        <time>2018-02-21T08:05:47Z</time>
      </trkpt>
      <trkpt lat="44.24895" lon="4.84623">
        <ele>97</ele>
        <time>2018-02-21T08:05:49Z</time>
      </trkpt>
      <trkpt lat="44.24897" lon="4.84648">
        <ele>98</ele>
        <time>2018-02-21T08:05:52Z</time>
      </trkpt>
      <trkpt lat="44.24898" lon="4.84664">
        <ele>98</ele>
        <time>2018-02-21T08:05:54Z</time>
      </trkpt>
      <trkpt lat="44.24899" lon="4.8468">
        <ele>98</ele>
        <time>2018-02-21T08:05:56Z</time>
      </trkpt>
      <trkpt lat="44.249" lon="4.84704">
        <ele>98</ele>
        <time>2018-02-21T08:05:59Z</time>
      </trkpt>
      <trkpt lat="44.24901" lon="4.8472">
        <ele>98</ele>
        <time>2018-02-21T08:06:01Z</time>
      </trkpt>
      <trkpt lat="44.24902" lon="4.84735">
        <ele>97</ele>
        <time>2018-02-21T08:06:03Z</time>
      </trkpt>
      <trkpt lat="44.24903" lon="4.84751">
        <ele>97</ele>
        <time>2018-02-21T08:06:05Z</time>
      </trkpt>
      <trkpt lat="44.24904" lon="4.84775">
        <ele>97</ele>
        <time>2018-02-21T08:06:08Z</time>
      </trkpt>
      <trkpt lat="44.24905" lon="4.84791">
        <ele>97</ele>
        <time>2018-02-21T08:06:10Z</time>
      </trkpt>
      <trkpt lat="44.24906" lon="4.84807">
        <ele>97</ele>
        <time>2018-02-21T08:06:12Z</time>
      </trkpt>
      <trkpt lat="44.24908" lon="4.84824">
        <ele>97</ele>
        <time>2018-02-21T08:06:14Z</time>
      </trkpt>
      <trkpt lat="44.24909" lon="4.84847">
        <ele>97</ele>
        <time>2018-02-21T08:06:17Z</time>
      </trkpt>
      <trkpt lat="44.2491" lon="4.84863">
        <ele>97</ele>
        <time>2018-02-21T08:06:19Z</time>
      </trkpt>
      <trkpt lat="44.24911" lon="4.84879">
        <ele>97</ele>
        <time>2018-02-21T08:06:21Z</time>
      </trkpt>
      <trkpt lat="44.24912" lon="4.84903">
        <ele>98</ele>
        <time>2018-02-21T08:06:24Z</time>
      </trkpt>
      <trkpt lat="44.24913" lon="4.8492">
        <ele>98</ele>
        <time>2018-02-21T08:06:26Z</time>
      </trkpt>
      <trkpt lat="44.24914" lon="4.84937">
        <ele>98</ele>
        <time>2018-02-21T08:06:28Z</time>
      </trkpt>
      <trkpt lat="44.24915" lon="4.84962">
        <ele>97</ele>
        <time>2018-02-21T08:06:31Z</time>
      </trkpt>
      <trkpt lat="44.24916" lon="4.84979">
        <ele>98</ele>
        <time>2018-02-21T08:06:33Z</time>
      </trkpt>
      <trkpt lat="44.24917" lon="4.84996">
        <ele>98</ele>
        <time>2018-02-21T08:06:35Z</time>
      </trkpt>
      <trkpt lat="44.24919" lon="4.85021">
        <ele>98</ele>
        <time>2018-02-21T08:06:38Z</time>
      </trkpt>
      <trkpt lat="44.2492" lon="4.85037">
        <ele>98</ele>
        <time>2018-02-21T08:06:40Z</time>
      </trkpt>
      <trkpt lat="44.24921" lon="4.85054">
        <ele>98</ele>
        <time>2018-02-21T08:06:42Z</time>
      </trkpt>
      <trkpt lat="44.24922" lon="4.85078">
        <ele>98</ele>
        <time>2018-02-21T08:06:45Z</time>
      </trkpt>
      <trkpt lat="44.24923" lon="4.85095">
        <ele>98</ele>
        <time>2018-02-21T08:06:47Z</time>
      </trkpt>
      <trkpt lat="44.24924" lon="4.85111">
        <ele>98</ele>
        <time>2018-02-21T08:06:49Z</time>
      </trkpt>
      <trkpt lat="44.24925" lon="4.85127">
        <ele>98</ele>
        <time>2018-02-21T08:06:51Z</time>
      </trkpt>
      <trkpt lat="44.24926" lon="4.85142">
        <ele>99</ele>
        <time>2018-02-21T08:06:53Z</time>
      </trkpt>
      <trkpt lat="44.24927" lon="4.85158">
        <ele>99</ele>
        <time>2018-02-21T08:06:55Z</time>
      </trkpt>
      <trkpt lat="44.24928" lon="4.85182">
        <ele>98</ele>
        <time>2018-02-21T08:06:58Z</time>
      </trkpt>
      <trkpt lat="44.24929" lon="4.85197">
        <ele>98</ele>
        <time>2018-02-21T08:07:00Z</time>
      </trkpt>
      <trkpt lat="44.2493" lon="4.85213">
        <ele>99</ele>
        <time>2018-02-21T08:07:02Z</time>
      </trkpt>
      <trkpt lat="44.24931" lon="4.85237">
        <ele>98</ele>
        <time>2018-02-21T08:07:05Z</time>
      </trkpt>
      <trkpt lat="44.24932" lon="4.85253">
        <ele>99</ele>
        <time>2018-02-21T08:07:07Z</time>
      </trkpt>
      <trkpt lat="44.24933" lon="4.85269">
        <ele>98</ele>
        <time>2018-02-21T08:07:09Z</time>
      </trkpt>
      <trkpt lat="44.24934" lon="4.85285">
        <ele>98</ele>
        <time>2018-02-21T08:07:11Z</time>
      </trkpt>
      <trkpt lat="44.24936" lon="4.85309">
        <ele>99</ele>
        <time>2018-02-21T08:07:14Z</time>
      </trkpt>
      <trkpt lat="44.24937" lon="4.85325">
        <ele>99</ele>
        <time>2018-02-21T08:07:16Z</time>
      </trkpt>
      <trkpt lat="44.24938" lon="4.85342">
        <ele>99</ele>
        <time>2018-02-21T08:07:18Z</time>
      </trkpt>
      <trkpt lat="44.24939" lon="4.85357">
        <ele>99</ele>
        <time>2018-02-21T08:07:20Z</time>
      </trkpt>
      <trkpt lat="44.2494" lon="4.8538">
        <ele>99</ele>
        <time>2018-02-21T08:07:23Z</time>
      </trkpt>
      <trkpt lat="44.24941" lon="4.85395">
        <ele>98</ele>
        <time>2018-02-21T08:07:25Z</time>
      </trkpt>
      <trkpt lat="44.24942" lon="4.85417">
        <ele>98</ele>
        <time>2018-02-21T08:07:28Z</time>
      </trkpt>
      <trkpt lat="44.24943" lon="4.85432">
        <ele>98</ele>
        <time>2018-02-21T08:07:30Z</time>
      </trkpt>
      <trkpt lat="44.24944" lon="4.85447">
        <ele>98</ele>
        <time>2018-02-21T08:07:32Z</time>
      </trkpt>
      <trkpt lat="44.24945" lon="4.85468">
        <ele>99</ele>
        <time>2018-02-21T08:07:35Z</time>
      </trkpt>
      <trkpt lat="44.24946" lon="4.85483">
        <ele>99</ele>
        <time>2018-02-21T08:07:37Z</time>
      </trkpt>
      <trkpt lat="44.24947" lon="4.85497">
        <ele>99</ele>
        <time>2018-02-21T08:07:39Z</time>
      </trkpt>
      <trkpt lat="44.24948" lon="4.85518">
        <ele>98</ele>
        <time>2018-02-21T08:07:42Z</time>
      </trkpt>
      <trkpt lat="44.24949" lon="4.85532">
        <ele>99</ele>
        <time>2018-02-21T08:07:44Z</time>
      </trkpt>
      <trkpt lat="44.2495" lon="4.85545">
        <ele>99</ele>
        <time>2018-02-21T08:07:46Z</time>
      </trkpt>
      <trkpt lat="44.24951" lon="4.85566">
        <ele>99</ele>
        <time>2018-02-21T08:07:49Z</time>
      </trkpt>
      <trkpt lat="44.24952" lon="4.85579">
        <ele>99</ele>
        <time>2018-02-21T08:07:51Z</time>
      </trkpt>
      <trkpt lat="44.24953" lon="4.85592">
        <ele>99</ele>
        <time>2018-02-21T08:07:53Z</time>
      </trkpt>
      <trkpt lat="44.24954" lon="4.85612">
        <ele>99</ele>
        <time>2018-02-21T08:07:56Z</time>
      </trkpt>
      <trkpt lat="44.24955" lon="4.85625">
        <ele>99</ele>
        <time>2018-02-21T08:07:58Z</time>
      </trkpt>
      <trkpt lat="44.24956" lon="4.85638">
        <ele>100</ele>
        <time>2018-02-21T08:08:00Z</time>
      </trkpt>
      <trkpt lat="44.24957" lon="4.85657">
        <ele>100</ele>
        <time>2018-02-21T08:08:03Z</time>
      </trkpt>
      <trkpt lat="44.24958" lon="4.85669">
        <ele>100</ele>
        <time>2018-02-21T08:08:05Z</time>
      </trkpt>
      <trkpt lat="44.24958" lon="4.85681">
        <ele>100</ele>
        <time>2018-02-21T08:08:07Z</time>
      </trkpt>
      <trkpt lat="44.24959" lon="4.857">
        <ele>100</ele>
        <time>2018-02-21T08:08:10Z</time>
      </trkpt>
      <trkpt lat="44.2496" lon="4.85713">
        <ele>100</ele>
        <time>2018-02-21T08:08:12Z</time>
      </trkpt>
      <trkpt lat="44.24961" lon="4.85726">
        <ele>101</ele>
        <time>2018-02-21T08:08:14Z</time>
      </trkpt>
      <trkpt lat="44.24961" lon="4.85739">
        <ele>101</ele>
        <time>2018-02-21T08:08:16Z</time>
      </trkpt>
      <trkpt lat="44.24962" lon="4.85752">
        <ele>102</ele>
        <time>2018-02-21T08:08:18Z</time>
      </trkpt>
      <trkpt lat="44.24963" lon="4.85766">
        <ele>102</ele>
        <time>2018-02-21T08:08:20Z</time>
      </trkpt>
      <trkpt lat="44.24964" lon="4.85779">
        <ele>102</ele>
        <time>2018-02-21T08:08:22Z</time>
      </trkpt>
      <trkpt lat="44.24965" lon="4.85792">
        <ele>102</ele>
        <time>2018-02-21T08:08:24Z</time>
      </trkpt>
      <trkpt lat="44.24966" lon="4.85811">
        <ele>101</ele>
        <time>2018-02-21T08:08:27Z</time>
      </trkpt>
      <trkpt lat="44.24967" lon="4.85824">
        <ele>102</ele>
        <time>2018-02-21T08:08:29Z</time>
      </trkpt>
      <trkpt lat="44.24968" lon="4.85838">
        <ele>102</ele>
        <time>2018-02-21T08:08:31Z</time>
      </trkpt>
      <trkpt lat="44.24968" lon="4.85857">
        <ele>102</ele>
        <time>2018-02-21T08:08:34Z</time>
      </trkpt>
      <trkpt lat="44.24969" lon="4.8587">
        <ele>103</ele>
        <time>2018-02-21T08:08:36Z</time>
      </trkpt>
      <trkpt lat="44.2497" lon="4.8589">
        <ele>103</ele>
        <time>2018-02-21T08:08:39Z</time>
      </trkpt>
      <trkpt lat="44.24971" lon="4.85903">
        <ele>103</ele>
        <time>2018-02-21T08:08:41Z</time>
      </trkpt>
      <trkpt lat="44.24972" lon="4.85916">
        <ele>103</ele>
        <time>2018-02-21T08:08:43Z</time>
      </trkpt>
      <trkpt lat="44.24973" lon="4.8593">
        <ele>102</ele>
        <time>2018-02-21T08:08:45Z</time>
      </trkpt>
      <trkpt lat="44.24974" lon="4.85951">
        <ele>102</ele>
        <time>2018-02-21T08:08:48Z</time>
      </trkpt>
      <trkpt lat="44.24975" lon="4.85965">
        <ele>102</ele>
        <time>2018-02-21T08:08:50Z</time>
      </trkpt>
      <trkpt lat="44.24975" lon="4.85979">
        <ele>103</ele>
        <time>2018-02-21T08:08:52Z</time>
      </trkpt>
      <trkpt lat="44.24976" lon="4.86">
        <ele>104</ele>
        <time>2018-02-21T08:08:55Z</time>
      </trkpt>
      <trkpt lat="44.24978" lon="4.86022">
        <ele>104</ele>
        <time>2018-02-21T08:08:58Z</time>
      </trkpt>
      <trkpt lat="44.24979" lon="4.86045">
        <ele>105</ele>
        <time>2018-02-21T08:09:01Z</time>
      </trkpt>
      <trkpt lat="44.2498" lon="4.8606">
        <ele>104</ele>
        <time>2018-02-21T08:09:03Z</time>
      </trkpt>
      <trkpt lat="44.24982" lon="4.86085">
        <ele>104</ele>
        <time>2018-02-21T08:09:06Z</time>
      </trkpt>
      <trkpt lat="44.24983" lon="4.86101">
        <ele>103</ele>
        <time>2018-02-21T08:09:08Z</time>
      </trkpt>
      <trkpt lat="44.24984" lon="4.86117">
        <ele>102</ele>
        <time>2018-02-21T08:09:10Z</time>
      </trkpt>
      <trkpt lat="44.24985" lon="4.86142">
        <ele>101</ele>
        <time>2018-02-21T08:09:13Z</time>
      </trkpt>
      <trkpt lat="44.24986" lon="4.86158">
        <ele>100</ele>
        <time>2018-02-21T08:09:15Z</time>
      </trkpt>
      <trkpt lat="44.24987" lon="4.86182">
        <ele>100</ele>
        <time>2018-02-21T08:09:18Z</time>
      </trkpt>
      <trkpt lat="44.24988" lon="4.86206">
        <ele>100</ele>
        <time>2018-02-21T08:09:21Z</time>
      </trkpt>
      <trkpt lat="44.24988" lon="4.86231">
        <ele>101</ele>
        <time>2018-02-21T08:09:24Z</time>
      </trkpt>
      <trkpt lat="44.24989" lon="4.86247">
        <ele>101</ele>
        <time>2018-02-21T08:09:26Z</time>
      </trkpt>
      <trkpt lat="44.24989" lon="4.86263">
        <ele>100</ele>
        <time>2018-02-21T08:09:28Z</time>
      </trkpt>
      <trkpt lat="44.24988" lon="4.86279">
        <ele>101</ele>
        <time>2018-02-21T08:09:30Z</time>
      </trkpt>
      <trkpt lat="44.24987" lon="4.86303">
        <ele>100</ele>
        <time>2018-02-21T08:09:33Z</time>
      </trkpt>
      <trkpt lat="44.24987" lon="4.8632">
        <ele>100</ele>
        <time>2018-02-21T08:09:35Z</time>
      </trkpt>
      <trkpt lat="44.24986" lon="4.86345">
        <ele>99</ele>
        <time>2018-02-21T08:09:38Z</time>
      </trkpt>
      <trkpt lat="44.24984" lon="4.86369">
        <ele>98</ele>
        <time>2018-02-21T08:09:41Z</time>
      </trkpt>
      <trkpt lat="44.24983" lon="4.86392">
        <ele>99</ele>
        <time>2018-02-21T08:09:44Z</time>
      </trkpt>
      <trkpt lat="44.24981" lon="4.86414">
        <ele>99</ele>
        <time>2018-02-21T08:09:47Z</time>
      </trkpt>
      <trkpt lat="44.24978" lon="4.86436">
        <ele>98</ele>
        <time>2018-02-21T08:09:50Z</time>
      </trkpt>
      <trkpt lat="44.24976" lon="4.86458">
        <ele>99</ele>
        <time>2018-02-21T08:09:53Z</time>
      </trkpt>
      <trkpt lat="44.24973" lon="4.86481">
        <ele>99</ele>
        <time>2018-02-21T08:09:56Z</time>
      </trkpt>
      <trkpt lat="44.24971" lon="4.86496">
        <ele>100</ele>
        <time>2018-02-21T08:09:58Z</time>
      </trkpt>
      <trkpt lat="44.24967" lon="4.86518">
        <ele>99</ele>
        <time>2018-02-21T08:10:01Z</time>
      </trkpt>
      <trkpt lat="44.24964" lon="4.8654">
        <ele>99</ele>
        <time>2018-02-21T08:10:04Z</time>
      </trkpt>
      <trkpt lat="44.2496" lon="4.86561">
        <ele>99</ele>
        <time>2018-02-21T08:10:07Z</time>
      </trkpt>
      <trkpt lat="44.24957" lon="4.86582">
        <ele>100</ele>
        <time>2018-02-21T08:10:10Z</time>
      </trkpt>
      <trkpt lat="44.24953" lon="4.86604">
        <ele>100</ele>
        <time>2018-02-21T08:10:13Z</time>
      </trkpt>
      <trkpt lat="44.2495" lon="4.86619">
        <ele>100</ele>
        <time>2018-02-21T08:10:15Z</time>
      </trkpt>
      <trkpt lat="44.24946" lon="4.86641">
        <ele>100</ele>
        <time>2018-02-21T08:10:18Z</time>
      </trkpt>
      <trkpt lat="44.24942" lon="4.86662">
        <ele>100</ele>
        <time>2018-02-21T08:10:21Z</time>
      </trkpt>
      <trkpt lat="44.24938" lon="4.86683">
        <ele>100</ele>
        <time>2018-02-21T08:10:24Z</time>
      </trkpt>
      <trkpt lat="44.24936" lon="4.86697">
        <ele>100</ele>
        <time>2018-02-21T08:10:26Z</time>
      </trkpt>
      <trkpt lat="44.24931" lon="4.86719">
        <ele>100</ele>
        <time>2018-02-21T08:10:29Z</time>
      </trkpt>
      <trkpt lat="44.24927" lon="4.86739">
        <ele>100</ele>
        <time>2018-02-21T08:10:32Z</time>
      </trkpt>
      <trkpt lat="44.24923" lon="4.86759">
        <ele>101</ele>
        <time>2018-02-21T08:10:35Z</time>
      </trkpt>
      <trkpt lat="44.24919" lon="4.8678">
        <ele>101</ele>
        <time>2018-02-21T08:10:38Z</time>
      </trkpt>
      <trkpt lat="44.24915" lon="4.86801">
        <ele>102</ele>
        <time>2018-02-21T08:10:41Z</time>
      </trkpt>
      <trkpt lat="44.24912" lon="4.8682">
        <ele>100</ele>
        <time>2018-02-21T08:10:44Z</time>
      </trkpt>
      <trkpt lat="44.24908" lon="4.8684">
        <ele>99</ele>
        <time>2018-02-21T08:10:47Z</time>
      </trkpt>
      <trkpt lat="44.24904" lon="4.86861">
        <ele>99</ele>
        <time>2018-02-21T08:10:50Z</time>
      </trkpt>
      <trkpt lat="44.24901" lon="4.86875">
        <ele>99</ele>
        <time>2018-02-21T08:10:52Z</time>
      </trkpt>
      <trkpt lat="44.24898" lon="4.8689">
        <ele>99</ele>
        <time>2018-02-21T08:10:54Z</time>
      </trkpt>
      <trkpt lat="44.24894" lon="4.86912">
        <ele>99</ele>
        <time>2018-02-21T08:10:57Z</time>
      </trkpt>
      <trkpt lat="44.2489" lon="4.86932">
        <ele>99</ele>
        <time>2018-02-21T08:11:00Z</time>
      </trkpt>
      <trkpt lat="44.24886" lon="4.86952">
        <ele>99</ele>
        <time>2018-02-21T08:11:03Z</time>
      </trkpt>
      <trkpt lat="44.24882" lon="4.86973">
        <ele>100</ele>
        <time>2018-02-21T08:11:06Z</time>
      </trkpt>
      <trkpt lat="44.24878" lon="4.86995">
        <ele>101</ele>
        <time>2018-02-21T08:11:09Z</time>
      </trkpt>
      <trkpt lat="44.24875" lon="4.8701">
        <ele>102</ele>
        <time>2018-02-21T08:11:11Z</time>
      </trkpt>
      <trkpt lat="44.2487" lon="4.87033">
        <ele>102</ele>
        <time>2018-02-21T08:11:14Z</time>
      </trkpt>
      <trkpt lat="44.24867" lon="4.87048">
        <ele>102</ele>
        <time>2018-02-21T08:11:16Z</time>
      </trkpt>
      <trkpt lat="44.24863" lon="4.8707">
        <ele>102</ele>
        <time>2018-02-21T08:11:19Z</time>
      </trkpt>
      <trkpt lat="44.2486" lon="4.87083">
        <ele>102</ele>
        <time>2018-02-21T08:11:21Z</time>
      </trkpt>
      <trkpt lat="44.24856" lon="4.87104">
        <ele>102</ele>
        <time>2018-02-21T08:11:24Z</time>
      </trkpt>
      <trkpt lat="44.24852" lon="4.87124">
        <ele>101</ele>
        <time>2018-02-21T08:11:27Z</time>
      </trkpt>
      <trkpt lat="44.24848" lon="4.87144">
        <ele>101</ele>
        <time>2018-02-21T08:11:30Z</time>
      </trkpt>
      <trkpt lat="44.24844" lon="4.87165">
        <ele>100</ele>
        <time>2018-02-21T08:11:33Z</time>
      </trkpt>
      <trkpt lat="44.24839" lon="4.87185">
        <ele>100</ele>
        <time>2018-02-21T08:11:36Z</time>
      </trkpt>
      <trkpt lat="44.24835" lon="4.87207">
        <ele>100</ele>
        <time>2018-02-21T08:11:39Z</time>
      </trkpt>
      <trkpt lat="44.24832" lon="4.87222">
        <ele>100</ele>
        <time>2018-02-21T08:11:41Z</time>
      </trkpt>
      <trkpt lat="44.24827" lon="4.87245">
        <ele>101</ele>
        <time>2018-02-21T08:11:44Z</time>
      </trkpt>
      <trkpt lat="44.24823" lon="4.87267">
        <ele>101</ele>
        <time>2018-02-21T08:11:47Z</time>
      </trkpt>
      <trkpt lat="44.24818" lon="4.8729">
        <ele>102</ele>
        <time>2018-02-21T08:11:50Z</time>
      </trkpt>
      <trkpt lat="44.24813" lon="4.87312">
        <ele>102</ele>
        <time>2018-02-21T08:11:53Z</time>
      </trkpt>
      <trkpt lat="44.24809" lon="4.87333">
        <ele>102</ele>
        <time>2018-02-21T08:11:56Z</time>
      </trkpt>
      <trkpt lat="44.24805" lon="4.87354">
        <ele>102</ele>
        <time>2018-02-21T08:11:59Z</time>
      </trkpt>
      <trkpt lat="44.24801" lon="4.87375">
        <ele>102</ele>
        <time>2018-02-21T08:12:02Z</time>
      </trkpt>
      <trkpt lat="44.24797" lon="4.87396">
        <ele>103</ele>
        <time>2018-02-21T08:12:05Z</time>
      </trkpt>
      <trkpt lat="44.24794" lon="4.8741">
        <ele>103</ele>
        <time>2018-02-21T08:12:07Z</time>
      </trkpt>
      <trkpt lat="44.2479" lon="4.87431">
        <ele>103</ele>
        <time>2018-02-21T08:12:10Z</time>
      </trkpt>
      <trkpt lat="44.24788" lon="4.87446">
        <ele>103</ele>
        <time>2018-02-21T08:12:12Z</time>
      </trkpt>
      <trkpt lat="44.24784" lon="4.87468">
        <ele>103</ele>
        <time>2018-02-21T08:12:15Z</time>
      </trkpt>
      <trkpt lat="44.24782" lon="4.87483">
        <ele>103</ele>
        <time>2018-02-21T08:12:17Z</time>
      </trkpt>
      <trkpt lat="44.2478" lon="4.87498">
        <ele>103</ele>
        <time>2018-02-21T08:12:19Z</time>
      </trkpt>
      <trkpt lat="44.24777" lon="4.87521">
        <ele>104</ele>
        <time>2018-02-21T08:12:22Z</time>
      </trkpt>
      <trkpt lat="44.24775" lon="4.87536">
        <ele>104</ele>
        <time>2018-02-21T08:12:24Z</time>
      </trkpt>
      <trkpt lat="44.24773" lon="4.87557">
        <ele>106</ele>
        <time>2018-02-21T08:12:27Z</time>
      </trkpt>
      <trkpt lat="44.24772" lon="4.8757">
        <ele>107</ele>
        <time>2018-02-21T08:12:29Z</time>
      </trkpt>
      <trkpt lat="44.24771" lon="4.87589">
        <ele>107</ele>
        <time>2018-02-21T08:12:32Z</time>
      </trkpt>
      <trkpt lat="44.2477" lon="4.87602">
        <ele>106</ele>
        <time>2018-02-21T08:12:34Z</time>
      </trkpt>
      <trkpt lat="44.24769" lon="4.87621">
        <ele>104</ele>
        <time>2018-02-21T08:12:37Z</time>
      </trkpt>
      <trkpt lat="44.24767" lon="4.87642">
        <ele>103</ele>
        <time>2018-02-21T08:12:40Z</time>
      </trkpt>
      <trkpt lat="44.24767" lon="4.87656">
        <ele>104</ele>
        <time>2018-02-21T08:12:42Z</time>
      </trkpt>
      <trkpt lat="44.24766" lon="4.87671">
        <ele>105</ele>
        <time>2018-02-21T08:12:44Z</time>
      </trkpt>
      <trkpt lat="44.24765" lon="4.87694">
        <ele>105</ele>
        <time>2018-02-21T08:12:47Z</time>
      </trkpt>
      <trkpt lat="44.24765" lon="4.87717">
        <ele>105</ele>
        <time>2018-02-21T08:12:50Z</time>
      </trkpt>
      <trkpt lat="44.24763" lon="4.87739">
        <ele>105</ele>
        <time>2018-02-21T08:12:53Z</time>
      </trkpt>
      <trkpt lat="44.24763" lon="4.87754">
        <ele>106</ele>
        <time>2018-02-21T08:12:55Z</time>
      </trkpt>
      <trkpt lat="44.24762" lon="4.87776">
        <ele>106</ele>
        <time>2018-02-21T08:12:58Z</time>
      </trkpt>
      <trkpt lat="44.24761" lon="4.8779">
        <ele>106</ele>
        <time>2018-02-21T08:13:00Z</time>
      </trkpt>
      <trkpt lat="44.2476" lon="4.87812">
        <ele>105</ele>
        <time>2018-02-21T08:13:03Z</time>
      </trkpt>
      <trkpt lat="44.24759" lon="4.87833">
        <ele>106</ele>
        <time>2018-02-21T08:13:06Z</time>
      </trkpt>
      <trkpt lat="44.24757" lon="4.87847">
        <ele>106</ele>
        <time>2018-02-21T08:13:08Z</time>
      </trkpt>
      <trkpt lat="44.24757" lon="4.8786">
        <ele>106</ele>
        <time>2018-02-21T08:13:10Z</time>
      </trkpt>
      <trkpt lat="44.24755" lon="4.87874">
        <ele>105</ele>
        <time>2018-02-21T08:13:12Z</time>
      </trkpt>
      <trkpt lat="44.24753" lon="4.87895">
        <ele>105</ele>
        <time>2018-02-21T08:13:15Z</time>
      </trkpt>
      <trkpt lat="44.24751" lon="4.87909">
        <ele>105</ele>
        <time>2018-02-21T08:13:17Z</time>
      </trkpt>
      <trkpt lat="44.24749" lon="4.87922">
        <ele>105</ele>
        <time>2018-02-21T08:13:19Z</time>
      </trkpt>
      <trkpt lat="44.24745" lon="4.87942">
        <ele>105</ele>
        <time>2018-02-21T08:13:22Z</time>
      </trkpt>
      <trkpt lat="44.24742" lon="4.87955">
        <ele>104</ele>
        <time>2018-02-21T08:13:24Z</time>
      </trkpt>
      <trkpt lat="44.24738" lon="4.87973">
        <ele>104</ele>
        <time>2018-02-21T08:13:27Z</time>
      </trkpt>
      <trkpt lat="44.24734" lon="4.87992">
        <ele>104</ele>
        <time>2018-02-21T08:13:30Z</time>
      </trkpt>
      <trkpt lat="44.24728" lon="4.88012">
        <ele>103</ele>
        <time>2018-02-21T08:13:33Z</time>
      </trkpt>
      <trkpt lat="44.24724" lon="4.88031">
        <ele>103</ele>
        <time>2018-02-21T08:13:36Z</time>
      </trkpt>
      <trkpt lat="44.24719" lon="4.88048">
        <ele>103</ele>
        <time>2018-02-21T08:13:39Z</time>
      </trkpt>
      <trkpt lat="44.24715" lon="4.88061">
        <ele>103</ele>
        <time>2018-02-21T08:13:41Z</time>
      </trkpt>
      <trkpt lat="44.24712" lon="4.88081">
        <ele>103</ele>
        <time>2018-02-21T08:13:44Z</time>
      </trkpt>
      <trkpt lat="44.2471" lon="4.88096">
        <ele>103</ele>
        <time>2018-02-21T08:13:46Z</time>
      </trkpt>
      <trkpt lat="44.24709" lon="4.88117">
        <ele>104</ele>
        <time>2018-02-21T08:13:49Z</time>
      </trkpt>
      <trkpt lat="44.24708" lon="4.88132">
        <ele>104</ele>
        <time>2018-02-21T08:13:51Z</time>
      </trkpt>
      <trkpt lat="44.24708" lon="4.88153">
        <ele>105</ele>
        <time>2018-02-21T08:13:54Z</time>
      </trkpt>
      <trkpt lat="44.24708" lon="4.88166">
        <ele>106</ele>
        <time>2018-02-21T08:13:56Z</time>
      </trkpt>
      <trkpt lat="44.24708" lon="4.88185">
        <ele>105</ele>
        <time>2018-02-21T08:13:59Z</time>
      </trkpt>
      <trkpt lat="44.24708" lon="4.88206">
        <ele>105</ele>
        <time>2018-02-21T08:14:02Z</time>
      </trkpt>
      <trkpt lat="44.24707" lon="4.8822">
        <ele>105</ele>
        <time>2018-02-21T08:14:04Z</time>
      </trkpt>
      <trkpt lat="44.24706" lon="4.88241">
        <ele>105</ele>
        <time>2018-02-21T08:14:07Z</time>
      </trkpt>
      <trkpt lat="44.24706" lon="4.88253">
        <ele>105</ele>
        <time>2018-02-21T08:14:09Z</time>
      </trkpt>
      <trkpt lat="44.24706" lon="4.88273">
        <ele>105</ele>
        <time>2018-02-21T08:14:12Z</time>
      </trkpt>
      <trkpt lat="44.24705" lon="4.88293">
        <ele>106</ele>
        <time>2018-02-21T08:14:15Z</time>
      </trkpt>
      <trkpt lat="44.24703" lon="4.88313">
        <ele>107</ele>
        <time>2018-02-21T08:14:18Z</time>
      </trkpt>
      <trkpt lat="44.24702" lon="4.88327">
        <ele>108</ele>
        <time>2018-02-21T08:14:20Z</time>
      </trkpt>
      <trkpt lat="44.247" lon="4.88341">
        <ele>107</ele>
        <time>2018-02-21T08:14:22Z</time>
      </trkpt>
      <trkpt lat="44.24697" lon="4.88361">
        <ele>107</ele>
        <time>2018-02-21T08:14:25Z</time>
      </trkpt>
      <trkpt lat="44.24695" lon="4.88375">
        <ele>106</ele>
        <time>2018-02-21T08:14:27Z</time>
      </trkpt>
      <trkpt lat="44.24691" lon="4.88396">
        <ele>106</ele>
        <time>2018-02-21T08:14:30Z</time>
      </trkpt>
      <trkpt lat="44.24689" lon="4.88408">
        <ele>106</ele>
        <time>2018-02-21T08:14:32Z</time>
      </trkpt>
      <trkpt lat="44.24686" lon="4.88425">
        <ele>106</ele>
        <time>2018-02-21T08:14:35Z</time>
      </trkpt>
      <trkpt lat="44.24684" lon="4.88438">
        <ele>106</ele>
        <time>2018-02-21T08:14:37Z</time>
      </trkpt>
      <trkpt lat="44.2468" lon="4.88456">
        <ele>107</ele>
        <time>2018-02-21T08:14:40Z</time>
      </trkpt>
      <trkpt lat="44.24676" lon="4.88473">
        <ele>107</ele>
        <time>2018-02-21T08:14:43Z</time>
      </trkpt>
      <trkpt lat="44.24674" lon="4.88484">
        <ele>107</ele>
        <time>2018-02-21T08:14:45Z</time>
      </trkpt>
      <trkpt lat="44.24672" lon="4.88499">
        <ele>107</ele>
        <time>2018-02-21T08:14:48Z</time>
      </trkpt>
      <trkpt lat="44.2467" lon="4.8851">
        <ele>108</ele>
        <time>2018-02-21T08:14:50Z</time>
      </trkpt>
      <trkpt lat="44.24667" lon="4.88529">
        <ele>109</ele>
        <time>2018-02-21T08:14:53Z</time>
      </trkpt>
      <trkpt lat="44.24663" lon="4.88547">
        <ele>109</ele>
        <time>2018-02-21T08:14:56Z</time>
      </trkpt>
      <trkpt lat="44.24655" lon="4.88561">
        <ele>109</ele>
        <time>2018-02-21T08:14:59Z</time>
      </trkpt>
      <trkpt lat="44.24641" lon="4.88566">
        <ele>108</ele>
        <time>2018-02-21T08:15:02Z</time>
      </trkpt>
      <trkpt lat="44.24633" lon="4.88567">
        <ele>107</ele>
        <time>2018-02-21T08:15:04Z</time>
      </trkpt>
      <trkpt lat="44.2462" lon="4.88572">
        <ele>107</ele>
        <time>2018-02-21T08:15:07Z</time>
      </trkpt>
      <trkpt lat="44.24609" lon="4.88583">
        <ele>107</ele>
        <time>2018-02-21T08:15:10Z</time>
      </trkpt>
      <trkpt lat="44.24602" lon="4.886">
        <ele>107</ele>
        <time>2018-02-21T08:15:13Z</time>
      </trkpt>
      <trkpt lat="44.24597" lon="4.8862">
        <ele>108</ele>
        <time>2018-02-21T08:15:16Z</time>
      </trkpt>
      <trkpt lat="44.24592" lon="4.88639">
        <ele>108</ele>
        <time>2018-02-21T08:15:19Z</time>
      </trkpt>
      <trkpt lat="44.24586" lon="4.88658">
        <ele>108</ele>
        <time>2018-02-21T08:15:22Z</time>
      </trkpt>
      <trkpt lat="44.24581" lon="4.88679">
        <ele>108</ele>
        <time>2018-02-21T08:15:25Z</time>
      </trkpt>
      <trkpt lat="44.24575" lon="4.887">
        <ele>108</ele>
        <time>2018-02-21T08:15:28Z</time>
      </trkpt>
      <trkpt lat="44.24569" lon="4.88714">
        <ele>108</ele>
        <time>2018-02-21T08:15:30Z</time>
      </trkpt>
      <trkpt lat="44.2456" lon="4.88733">
        <ele>108</ele>
        <time>2018-02-21T08:15:33Z</time>
      </trkpt>
      <trkpt lat="44.24548" lon="4.88748">
        <ele>108</ele>
        <time>2018-02-21T08:15:36Z</time>
      </trkpt>
      <trkpt lat="44.2454" lon="4.88758">
        <ele>107</ele>
        <time>2018-02-21T08:15:38Z</time>
      </trkpt>
      <trkpt lat="44.24528" lon="4.88769">
        <ele>108</ele>
        <time>2018-02-21T08:15:41Z</time>
      </trkpt>
      <trkpt lat="44.2452" lon="4.88787">
        <ele>106</ele>
        <time>2018-02-21T08:15:44Z</time>
      </trkpt>
      <trkpt lat="44.2452" lon="4.88802">
        <ele>106</ele>
        <time>2018-02-21T08:15:46Z</time>
      </trkpt>
      <trkpt lat="44.24521" lon="4.88825">
        <ele>105</ele>
        <time>2018-02-21T08:15:49Z</time>
      </trkpt>
      <trkpt lat="44.24522" lon="4.88841">
        <ele>106</ele>
        <time>2018-02-21T08:15:51Z</time>
      </trkpt>
      <trkpt lat="44.24524" lon="4.88864">
        <ele>107</ele>
        <time>2018-02-21T08:15:54Z</time>
      </trkpt>
      <trkpt lat="44.24526" lon="4.88886">
        <ele>108</ele>
        <time>2018-02-21T08:15:57Z</time>
      </trkpt>
      <trkpt lat="44.24527" lon="4.889">
        <ele>108</ele>
        <time>2018-02-21T08:15:59Z</time>
      </trkpt>
      <trkpt lat="44.24529" lon="4.88922">
        <ele>108</ele>
        <time>2018-02-21T08:16:02Z</time>
      </trkpt>
      <trkpt lat="44.24529" lon="4.88936">
        <ele>108</ele>
        <time>2018-02-21T08:16:04Z</time>
      </trkpt>
      <trkpt lat="44.2453" lon="4.88951">
        <ele>108</ele>
        <time>2018-02-21T08:16:06Z</time>
      </trkpt>
      <trkpt lat="44.24531" lon="4.88966">
        <ele>108</ele>
        <time>2018-02-21T08:16:08Z</time>
      </trkpt>
      <trkpt lat="44.24533" lon="4.88989">
        <ele>107</ele>
        <time>2018-02-21T08:16:11Z</time>
      </trkpt>
      <trkpt lat="44.24534" lon="4.89004">
        <ele>107</ele>
        <time>2018-02-21T08:16:13Z</time>
      </trkpt>
      <trkpt lat="44.24535" lon="4.89027">
        <ele>108</ele>
        <time>2018-02-21T08:16:16Z</time>
      </trkpt>
      <trkpt lat="44.24536" lon="4.89041">
        <ele>109</ele>
        <time>2018-02-21T08:16:18Z</time>
      </trkpt>
      <trkpt lat="44.24537" lon="4.8906">
        <ele>110</ele>
        <time>2018-02-21T08:16:21Z</time>
      </trkpt>
      <trkpt lat="44.24537" lon="4.89073">
        <ele>111</ele>
        <time>2018-02-21T08:16:23Z</time>
      </trkpt>
      <trkpt lat="44.24538" lon="4.89092">
        <ele>111</ele>
        <time>2018-02-21T08:16:26Z</time>
      </trkpt>
      <trkpt lat="44.24539" lon="4.89106">
        <ele>111</ele>
        <time>2018-02-21T08:16:28Z</time>
      </trkpt>
      <trkpt lat="44.2454" lon="4.89126">
        <ele>110</ele>
        <time>2018-02-21T08:16:31Z</time>
      </trkpt>
      <trkpt lat="44.2454" lon="4.89139">
        <ele>111</ele>
        <time>2018-02-21T08:16:33Z</time>
      </trkpt>
      <trkpt lat="44.24541" lon="4.89152">
        <ele>111</ele>
        <time>2018-02-21T08:16:35Z</time>
      </trkpt>
      <trkpt lat="44.24541" lon="4.89172">
        <ele>110</ele>
        <time>2018-02-21T08:16:38Z</time>
      </trkpt>
      <trkpt lat="44.24542" lon="4.89185">
        <ele>110</ele>
        <time>2018-02-21T08:16:40Z</time>
      </trkpt>
      <trkpt lat="44.24543" lon="4.89206">
        <ele>109</ele>
        <time>2018-02-21T08:16:43Z</time>
      </trkpt>
      <trkpt lat="44.24543" lon="4.89219">
        <ele>110</ele>
        <time>2018-02-21T08:16:45Z</time>
      </trkpt>
      <trkpt lat="44.2454" lon="4.89236">
        <ele>110</ele>
        <time>2018-02-21T08:16:48Z</time>
      </trkpt>
      <trkpt lat="44.24531" lon="4.89251">
        <ele>110</ele>
        <time>2018-02-21T08:16:51Z</time>
      </trkpt>
      <trkpt lat="44.24517" lon="4.89257">
        <ele>111</ele>
        <time>2018-02-21T08:16:54Z</time>
      </trkpt>
      <trkpt lat="44.24502" lon="4.89261">
        <ele>111</ele>
        <time>2018-02-21T08:16:57Z</time>
      </trkpt>
      <trkpt lat="44.24492" lon="4.89265">
        <ele>112</ele>
        <time>2018-02-21T08:16:59Z</time>
      </trkpt>
      <trkpt lat="44.24476" lon="4.8927">
        <ele>111</ele>
        <time>2018-02-21T08:17:02Z</time>
      </trkpt>
      <trkpt lat="44.24464" lon="4.89273">
        <ele>111</ele>
        <time>2018-02-21T08:17:04Z</time>
      </trkpt>
      <trkpt lat="44.24447" lon="4.8928">
        <ele>111</ele>
        <time>2018-02-21T08:17:07Z</time>
      </trkpt>
      <trkpt lat="44.24435" lon="4.89285">
        <ele>110</ele>
        <time>2018-02-21T08:17:09Z</time>
      </trkpt>
      <trkpt lat="44.24417" lon="4.89292">
        <ele>111</ele>
        <time>2018-02-21T08:17:12Z</time>
      </trkpt>
      <trkpt lat="44.24405" lon="4.89297">
        <ele>110</ele>
        <time>2018-02-21T08:17:14Z</time>
      </trkpt>
      <trkpt lat="44.24388" lon="4.89306">
        <ele>109</ele>
        <time>2018-02-21T08:17:17Z</time>
      </trkpt>
      <trkpt lat="44.24373" lon="4.89318">
        <ele>108</ele>
        <time>2018-02-21T08:17:20Z</time>
      </trkpt>
      <trkpt lat="44.2436" lon="4.89332">
        <ele>109</ele>
        <time>2018-02-21T08:17:23Z</time>
      </trkpt>
      <trkpt lat="44.24353" lon="4.89341">
        <ele>109</ele>
        <time>2018-02-21T08:17:25Z</time>
      </trkpt>
      <trkpt lat="44.24342" lon="4.89358">
        <ele>110</ele>
        <time>2018-02-21T08:17:28Z</time>
      </trkpt>
      <trkpt lat="44.24333" lon="4.89376">
        <ele>110</ele>
        <time>2018-02-21T08:17:31Z</time>
      </trkpt>
      <trkpt lat="44.24325" lon="4.89394">
        <ele>111</ele>
        <time>2018-02-21T08:17:34Z</time>
      </trkpt>
      <trkpt lat="44.24317" lon="4.89412">
        <ele>111</ele>
        <time>2018-02-21T08:17:37Z</time>
      </trkpt>
      <trkpt lat="44.24312" lon="4.89424">
        <ele>111</ele>
        <time>2018-02-21T08:17:39Z</time>
      </trkpt>
      <trkpt lat="44.24304" lon="4.89444">
        <ele>110</ele>
        <time>2018-02-21T08:17:42Z</time>
      </trkpt>
      <trkpt lat="44.24297" lon="4.89465">
        <ele>110</ele>
        <time>2018-02-21T08:17:45Z</time>
      </trkpt>
      <trkpt lat="44.24289" lon="4.89487">
        <ele>110</ele>
        <time>2018-02-21T08:17:48Z</time>
      </trkpt>
      <trkpt lat="44.24283" lon="4.89508">
        <ele>110</ele>
        <time>2018-02-21T08:17:51Z</time>
      </trkpt>
      <trkpt lat="44.24277" lon="4.8953">
        <ele>110</ele>
        <time>2018-02-21T08:17:54Z</time>
      </trkpt>
      <trkpt lat="44.24271" lon="4.89552">
        <ele>110</ele>
        <time>2018-02-21T08:17:57Z</time>
      </trkpt>
      <trkpt lat="44.24267" lon="4.89575">
        <ele>110</ele>
        <time>2018-02-21T08:18:00Z</time>
      </trkpt>
      <trkpt lat="44.24264" lon="4.89599">
        <ele>111</ele>
        <time>2018-02-21T08:18:03Z</time>
      </trkpt>
      <trkpt lat="44.24262" lon="4.89615">
        <ele>112</ele>
        <time>2018-02-21T08:18:05Z</time>
      </trkpt>
      <trkpt lat="44.24261" lon="4.89631">
        <ele>112</ele>
        <time>2018-02-21T08:18:07Z</time>
      </trkpt>
      <trkpt lat="44.24258" lon="4.89653">
        <ele>112</ele>
        <time>2018-02-21T08:18:10Z</time>
      </trkpt>
      <trkpt lat="44.24257" lon="4.89667">
        <ele>112</ele>
        <time>2018-02-21T08:18:12Z</time>
      </trkpt>
      <trkpt lat="44.24255" lon="4.89688">
        <ele>112</ele>
        <time>2018-02-21T08:18:15Z</time>
      </trkpt>
      <trkpt lat="44.24254" lon="4.89703">
        <ele>112</ele>
        <time>2018-02-21T08:18:17Z</time>
      </trkpt>
      <trkpt lat="44.24253" lon="4.89716">
        <ele>112</ele>
        <time>2018-02-21T08:18:19Z</time>
      </trkpt>
      <trkpt lat="44.24251" lon="4.89736">
        <ele>112</ele>
        <time>2018-02-21T08:18:22Z</time>
      </trkpt>
      <trkpt lat="44.2425" lon="4.89749">
        <ele>113</ele>
        <time>2018-02-21T08:18:24Z</time>
      </trkpt>
      <trkpt lat="44.24248" lon="4.89763">
        <ele>113</ele>
        <time>2018-02-21T08:18:26Z</time>
      </trkpt>
      <trkpt lat="44.24246" lon="4.89777">
        <ele>112</ele>
        <time>2018-02-21T08:18:28Z</time>
      </trkpt>
      <trkpt lat="44.24243" lon="4.89799">
        <ele>112</ele>
        <time>2018-02-21T08:18:31Z</time>
      </trkpt>
      <trkpt lat="44.24239" lon="4.89821">
        <ele>112</ele>
        <time>2018-02-21T08:18:34Z</time>
      </trkpt>
      <trkpt lat="44.24236" lon="4.89836">
        <ele>112</ele>
        <time>2018-02-21T08:18:36Z</time>
      </trkpt>
      <trkpt lat="44.24232" lon="4.89851">
        <ele>112</ele>
        <time>2018-02-21T08:18:38Z</time>
      </trkpt>
      <trkpt lat="44.24228" lon="4.89873">
        <ele>112</ele>
        <time>2018-02-21T08:18:41Z</time>
      </trkpt>
      <trkpt lat="44.24223" lon="4.89894">
        <ele>112</ele>
        <time>2018-02-21T08:18:44Z</time>
      </trkpt>
      <trkpt lat="44.24219" lon="4.89909">
        <ele>112</ele>
        <time>2018-02-21T08:18:46Z</time>
      </trkpt>
      <trkpt lat="44.24214" lon="4.89929">
        <ele>112</ele>
        <time>2018-02-21T08:18:49Z</time>
      </trkpt>
      <trkpt lat="44.24209" lon="4.89948">
        <ele>112</ele>
        <time>2018-02-21T08:18:52Z</time>
      </trkpt>
      <trkpt lat="44.24203" lon="4.89967">
        <ele>112</ele>
        <time>2018-02-21T08:18:55Z</time>
      </trkpt>
      <trkpt lat="44.24197" lon="4.89986">
        <ele>112</ele>
        <time>2018-02-21T08:18:58Z</time>
      </trkpt>
      <trkpt lat="44.24192" lon="4.90004">
        <ele>113</ele>
        <time>2018-02-21T08:19:01Z</time>
      </trkpt>
      <trkpt lat="44.24188" lon="4.90016">
        <ele>113</ele>
        <time>2018-02-21T08:19:03Z</time>
      </trkpt>
      <trkpt lat="44.24182" lon="4.90034">
        <ele>113</ele>
        <time>2018-02-21T08:19:06Z</time>
      </trkpt>
      <trkpt lat="44.24176" lon="4.90053">
        <ele>113</ele>
        <time>2018-02-21T08:19:09Z</time>
      </trkpt>
      <trkpt lat="44.2417" lon="4.90073">
        <ele>113</ele>
        <time>2018-02-21T08:19:12Z</time>
      </trkpt>
      <trkpt lat="44.24163" lon="4.90094">
        <ele>113</ele>
        <time>2018-02-21T08:19:15Z</time>
      </trkpt>
      <trkpt lat="44.24157" lon="4.90115">
        <ele>113</ele>
        <time>2018-02-21T08:19:18Z</time>
      </trkpt>
      <trkpt lat="44.24153" lon="4.90129">
        <ele>113</ele>
        <time>2018-02-21T08:19:20Z</time>
      </trkpt>
      <trkpt lat="44.24146" lon="4.9015">
        <ele>113</ele>
        <time>2018-02-21T08:19:23Z</time>
      </trkpt>
      <trkpt lat="44.2414" lon="4.90171">
        <ele>113</ele>
        <time>2018-02-21T08:19:26Z</time>
      </trkpt>
      <trkpt lat="44.24136" lon="4.90185">
        <ele>113</ele>
        <time>2018-02-21T08:19:28Z</time>
      </trkpt>
      <trkpt lat="44.24129" lon="4.90207">
        <ele>113</ele>
        <time>2018-02-21T08:19:31Z</time>
      </trkpt>
      <trkpt lat="44.24125" lon="4.9022">
        <ele>113</ele>
        <time>2018-02-21T08:19:33Z</time>
      </trkpt>
      <trkpt lat="44.24118" lon="4.90242">
        <ele>113</ele>
        <time>2018-02-21T08:19:36Z</time>
      </trkpt>
      <trkpt lat="44.24111" lon="4.90263">
        <ele>113</ele>
        <time>2018-02-21T08:19:39Z</time>
      </trkpt>
      <trkpt lat="44.24107" lon="4.90277">
        <ele>113</ele>
        <time>2018-02-21T08:19:41Z</time>
      </trkpt>
      <trkpt lat="44.24103" lon="4.9029">
        <ele>114</ele>
        <time>2018-02-21T08:19:43Z</time>
      </trkpt>
      <trkpt lat="44.24097" lon="4.90309">
        <ele>114</ele>
        <time>2018-02-21T08:19:46Z</time>
      </trkpt>
      <trkpt lat="44.24091" lon="4.90328">
        <ele>114</ele>
        <time>2018-02-21T08:19:49Z</time>
      </trkpt>
      <trkpt lat="44.24087" lon="4.9034">
        <ele>113</ele>
        <time>2018-02-21T08:19:51Z</time>
      </trkpt>
      <trkpt lat="44.24082" lon="4.90357">
        <ele>113</ele>
        <time>2018-02-21T08:19:54Z</time>
      </trkpt>
      <trkpt lat="44.24078" lon="4.90369">
        <ele>113</ele>
        <time>2018-02-21T08:19:56Z</time>
      </trkpt>
      <trkpt lat="44.24073" lon="4.90387">
        <ele>113</ele>
        <time>2018-02-21T08:19:59Z</time>
      </trkpt>
      <trkpt lat="44.24069" lon="4.90399">
        <ele>113</ele>
        <time>2018-02-21T08:20:01Z</time>
      </trkpt>
      <trkpt lat="44.24063" lon="4.90416">
        <ele>113</ele>
        <time>2018-02-21T08:20:04Z</time>
      </trkpt>
      <trkpt lat="44.24058" lon="4.90435">
        <ele>114</ele>
        <time>2018-02-21T08:20:07Z</time>
      </trkpt>
      <trkpt lat="44.24054" lon="4.90448">
        <ele>114</ele>
        <time>2018-02-21T08:20:09Z</time>
      </trkpt>
      <trkpt lat="44.24048" lon="4.90467">
        <ele>114</ele>
        <time>2018-02-21T08:20:12Z</time>
      </trkpt>
      <trkpt lat="44.24042" lon="4.90486">
        <ele>114</ele>
        <time>2018-02-21T08:20:15Z</time>
      </trkpt>
      <trkpt lat="44.24038" lon="4.90499">
        <ele>114</ele>
        <time>2018-02-21T08:20:17Z</time>
      </trkpt>
      <trkpt lat="44.24032" lon="4.90518">
        <ele>115</ele>
        <time>2018-02-21T08:20:20Z</time>
      </trkpt>
      <trkpt lat="44.24026" lon="4.90538">
        <ele>115</ele>
        <time>2018-02-21T08:20:23Z</time>
      </trkpt>
      <trkpt lat="44.24022" lon="4.90551">
        <ele>115</ele>
        <time>2018-02-21T08:20:25Z</time>
      </trkpt>
      <trkpt lat="44.24016" lon="4.9057">
        <ele>115</ele>
        <time>2018-02-21T08:20:28Z</time>
      </trkpt>
      <trkpt lat="44.2401" lon="4.90589">
        <ele>115</ele>
        <time>2018-02-21T08:20:31Z</time>
      </trkpt>
      <trkpt lat="44.24006" lon="4.90602">
        <ele>115</ele>
        <time>2018-02-21T08:20:33Z</time>
      </trkpt>
      <trkpt lat="44.24" lon="4.90622">
        <ele>114</ele>
        <time>2018-02-21T08:20:36Z</time>
      </trkpt>
      <trkpt lat="44.23994" lon="4.90642">
        <ele>115</ele>
        <time>2018-02-21T08:20:39Z</time>
      </trkpt>
      <trkpt lat="44.23989" lon="4.90655">
        <ele>114</ele>
        <time>2018-02-21T08:20:41Z</time>
      </trkpt>
      <trkpt lat="44.23983" lon="4.90674">
        <ele>115</ele>
        <time>2018-02-21T08:20:44Z</time>
      </trkpt>
      <trkpt lat="44.23977" lon="4.90694">
        <ele>115</ele>
        <time>2018-02-21T08:20:47Z</time>
      </trkpt>
      <trkpt lat="44.23973" lon="4.90706">
        <ele>115</ele>
        <time>2018-02-21T08:20:49Z</time>
      </trkpt>
      <trkpt lat="44.23967" lon="4.90725">
        <ele>115</ele>
        <time>2018-02-21T08:20:52Z</time>
      </trkpt>
      <trkpt lat="44.23961" lon="4.90744">
        <ele>115</ele>
        <time>2018-02-21T08:20:55Z</time>
      </trkpt>
      <trkpt lat="44.23957" lon="4.90758">
        <ele>115</ele>
        <time>2018-02-21T08:20:57Z</time>
      </trkpt>
      <trkpt lat="44.23951" lon="4.90777">
        <ele>115</ele>
        <time>2018-02-21T08:21:00Z</time>
      </trkpt>
      <trkpt lat="44.23944" lon="4.90798">
        <ele>115</ele>
        <time>2018-02-21T08:21:03Z</time>
      </trkpt>
      <trkpt lat="44.23938" lon="4.90817">
        <ele>116</ele>
        <time>2018-02-21T08:21:06Z</time>
      </trkpt>
      <trkpt lat="44.2393" lon="4.90836">
        <ele>116</ele>
        <time>2018-02-21T08:21:09Z</time>
      </trkpt>
      <trkpt lat="44.23923" lon="4.90854">
        <ele>116</ele>
        <time>2018-02-21T08:21:12Z</time>
      </trkpt>
      <trkpt lat="44.23915" lon="4.90872">
        <ele>116</ele>
        <time>2018-02-21T08:21:15Z</time>
      </trkpt>
      <trkpt lat="44.23909" lon="4.90884">
        <ele>116</ele>
        <time>2018-02-21T08:21:17Z</time>
      </trkpt>
      <trkpt lat="44.239" lon="4.90901">
        <ele>116</ele>
        <time>2018-02-21T08:21:20Z</time>
      </trkpt>
      <trkpt lat="44.23893" lon="4.90912">
        <ele>116</ele>
        <time>2018-02-21T08:21:22Z</time>
      </trkpt>
      <trkpt lat="44.23883" lon="4.90928">
        <ele>116</ele>
        <time>2018-02-21T08:21:25Z</time>
      </trkpt>
      <trkpt lat="44.23872" lon="4.90943">
        <ele>116</ele>
        <time>2018-02-21T08:21:28Z</time>
      </trkpt>
      <trkpt lat="44.23859" lon="4.90958">
        <ele>116</ele>
        <time>2018-02-21T08:21:31Z</time>
      </trkpt>
      <trkpt lat="44.23846" lon="4.90972">
        <ele>116</ele>
        <time>2018-02-21T08:21:34Z</time>
      </trkpt>
      <trkpt lat="44.23833" lon="4.90984">
        <ele>115</ele>
        <time>2018-02-21T08:21:37Z</time>
      </trkpt>
      <trkpt lat="44.23824" lon="4.90991">
        <ele>115</ele>
        <time>2018-02-21T08:21:39Z</time>
      </trkpt>
      <trkpt lat="44.2381" lon="4.91002">
        <ele>115</ele>
        <time>2018-02-21T08:21:42Z</time>
      </trkpt>
      <trkpt lat="44.238" lon="4.91007">
        <ele>115</ele>
        <time>2018-02-21T08:21:44Z</time>
      </trkpt>
      <trkpt lat="44.23783" lon="4.91016">
        <ele>115</ele>
        <time>2018-02-21T08:21:47Z</time>
      </trkpt>
      <trkpt lat="44.23772" lon="4.91022">
        <ele>115</ele>
        <time>2018-02-21T08:21:49Z</time>
      </trkpt>
      <trkpt lat="44.23761" lon="4.91027">
        <ele>115</ele>
        <time>2018-02-21T08:21:51Z</time>
      </trkpt>
      <trkpt lat="44.23743" lon="4.91034">
        <ele>115</ele>
        <time>2018-02-21T08:21:54Z</time>
      </trkpt>
      <trkpt lat="44.23732" lon="4.91039">
        <ele>115</ele>
        <time>2018-02-21T08:21:56Z</time>
      </trkpt>
      <trkpt lat="44.23715" lon="4.91045">
        <ele>114</ele>
        <time>2018-02-21T08:21:59Z</time>
      </trkpt>
      <trkpt lat="44.23698" lon="4.9105">
        <ele>114</ele>
        <time>2018-02-21T08:22:02Z</time>
      </trkpt>
      <trkpt lat="44.23681" lon="4.91055">
        <ele>115</ele>
        <time>2018-02-21T08:22:05Z</time>
      </trkpt>
      <trkpt lat="44.23663" lon="4.91061">
        <ele>114</ele>
        <time>2018-02-21T08:22:08Z</time>
      </trkpt>
      <trkpt lat="44.23646" lon="4.91066">
        <ele>115</ele>
        <time>2018-02-21T08:22:11Z</time>
      </trkpt>
      <trkpt lat="44.23629" lon="4.91071">
        <ele>114</ele>
        <time>2018-02-21T08:22:14Z</time>
      </trkpt>
      <trkpt lat="44.23616" lon="4.91074">
        <ele>114</ele>
        <time>2018-02-21T08:22:16Z</time>
      </trkpt>
      <trkpt lat="44.23604" lon="4.91078">
        <ele>114</ele>
        <time>2018-02-21T08:22:18Z</time>
      </trkpt>
      <trkpt lat="44.23592" lon="4.91082">
        <ele>114</ele>
        <time>2018-02-21T08:22:20Z</time>
      </trkpt>
      <trkpt lat="44.23573" lon="4.91087">
        <ele>114</ele>
        <time>2018-02-21T08:22:23Z</time>
      </trkpt>
      <trkpt lat="44.23554" lon="4.91092">
        <ele>114</ele>
        <time>2018-02-21T08:22:26Z</time>
      </trkpt>
      <trkpt lat="44.23536" lon="4.91098">
        <ele>114</ele>
        <time>2018-02-21T08:22:29Z</time>
      </trkpt>
      <trkpt lat="44.23523" lon="4.91102">
        <ele>114</ele>
        <time>2018-02-21T08:22:31Z</time>
      </trkpt>
      <trkpt lat="44.23511" lon="4.91105">
        <ele>114</ele>
        <time>2018-02-21T08:22:33Z</time>
      </trkpt>
      <trkpt lat="44.23493" lon="4.91111">
        <ele>113</ele>
        <time>2018-02-21T08:22:36Z</time>
      </trkpt>
      <trkpt lat="44.23481" lon="4.91114">
        <ele>114</ele>
        <time>2018-02-21T08:22:38Z</time>
      </trkpt>
      <trkpt lat="44.23462" lon="4.91119">
        <ele>113</ele>
        <time>2018-02-21T08:22:41Z</time>
      </trkpt>
      <trkpt lat="44.23443" lon="4.91124">
        <ele>113</ele>
        <time>2018-02-21T08:22:44Z</time>
      </trkpt>
      <trkpt lat="44.23431" lon="4.91128">
        <ele>113</ele>
        <time>2018-02-21T08:22:46Z</time>
      </trkpt>
      <trkpt lat="44.23418" lon="4.91132">
        <ele>113</ele>
        <time>2018-02-21T08:22:48Z</time>
      </trkpt>
      <trkpt lat="44.23406" lon="4.91136">
        <ele>113</ele>
        <time>2018-02-21T08:22:50Z</time>
      </trkpt>
      <trkpt lat="44.23388" lon="4.91144">
        <ele>113</ele>
        <time>2018-02-21T08:22:53Z</time>
      </trkpt>
      <trkpt lat="44.2337" lon="4.91153">
        <ele>113</ele>
        <time>2018-02-21T08:22:56Z</time>
      </trkpt>
      <trkpt lat="44.23352" lon="4.91163">
        <ele>113</ele>
        <time>2018-02-21T08:22:59Z</time>
      </trkpt>
      <trkpt lat="44.23336" lon="4.91175">
        <ele>113</ele>
        <time>2018-02-21T08:23:02Z</time>
      </trkpt>
      <trkpt lat="44.2332" lon="4.91187">
        <ele>113</ele>
        <time>2018-02-21T08:23:05Z</time>
      </trkpt>
      <trkpt lat="44.23309" lon="4.91196">
        <ele>113</ele>
        <time>2018-02-21T08:23:07Z</time>
      </trkpt>
      <trkpt lat="44.23293" lon="4.91211">
        <ele>113</ele>
        <time>2018-02-21T08:23:10Z</time>
      </trkpt>
      <trkpt lat="44.23283" lon="4.91222">
        <ele>113</ele>
        <time>2018-02-21T08:23:12Z</time>
      </trkpt>
      <trkpt lat="44.23269" lon="4.91237">
        <ele>113</ele>
        <time>2018-02-21T08:23:15Z</time>
      </trkpt>
      <trkpt lat="44.23259" lon="4.91249">
        <ele>113</ele>
        <time>2018-02-21T08:23:17Z</time>
      </trkpt>
      <trkpt lat="44.2325" lon="4.91262">
        <ele>112</ele>
        <time>2018-02-21T08:23:19Z</time>
      </trkpt>
      <trkpt lat="44.23237" lon="4.91281">
        <ele>112</ele>
        <time>2018-02-21T08:23:22Z</time>
      </trkpt>
      <trkpt lat="44.23225" lon="4.913">
        <ele>113</ele>
        <time>2018-02-21T08:23:25Z</time>
      </trkpt>
      <trkpt lat="44.23217" lon="4.91312">
        <ele>113</ele>
        <time>2018-02-21T08:23:27Z</time>
      </trkpt>
      <trkpt lat="44.23206" lon="4.9133">
        <ele>113</ele>
        <time>2018-02-21T08:23:30Z</time>
      </trkpt>
      <trkpt lat="44.23195" lon="4.91349">
        <ele>113</ele>
        <time>2018-02-21T08:23:33Z</time>
      </trkpt>
      <trkpt lat="44.23183" lon="4.91367">
        <ele>113</ele>
        <time>2018-02-21T08:23:36Z</time>
      </trkpt>
      <trkpt lat="44.23172" lon="4.91386">
        <ele>114</ele>
        <time>2018-02-21T08:23:39Z</time>
      </trkpt>
      <trkpt lat="44.23161" lon="4.91405">
        <ele>113</ele>
        <time>2018-02-21T08:23:42Z</time>
      </trkpt>
      <trkpt lat="44.23149" lon="4.91424">
        <ele>113</ele>
        <time>2018-02-21T08:23:45Z</time>
      </trkpt>
      <trkpt lat="44.23142" lon="4.91437">
        <ele>112</ele>
        <time>2018-02-21T08:23:47Z</time>
      </trkpt>
      <trkpt lat="44.23134" lon="4.9145">
        <ele>112</ele>
        <time>2018-02-21T08:23:49Z</time>
      </trkpt>
      <trkpt lat="44.23123" lon="4.91468">
        <ele>113</ele>
        <time>2018-02-21T08:23:52Z</time>
      </trkpt>
      <trkpt lat="44.23115" lon="4.91481">
        <ele>112</ele>
        <time>2018-02-21T08:23:54Z</time>
      </trkpt>
      <trkpt lat="44.23104" lon="4.915">
        <ele>113</ele>
        <time>2018-02-21T08:23:57Z</time>
      </trkpt>
      <trkpt lat="44.23093" lon="4.91519">
        <ele>113</ele>
        <time>2018-02-21T08:24:00Z</time>
      </trkpt>
      <trkpt lat="44.23085" lon="4.91532">
        <ele>113</ele>
        <time>2018-02-21T08:24:02Z</time>
      </trkpt>
      <trkpt lat="44.23074" lon="4.91551">
        <ele>112</ele>
        <time>2018-02-21T08:24:05Z</time>
      </trkpt>
      <trkpt lat="44.23063" lon="4.91571">
        <ele>112</ele>
        <time>2018-02-21T08:24:08Z</time>
      </trkpt>
      <trkpt lat="44.23056" lon="4.91584">
        <ele>112</ele>
        <time>2018-02-21T08:24:10Z</time>
      </trkpt>
      <trkpt lat="44.23046" lon="4.91605">
        <ele>112</ele>
        <time>2018-02-21T08:24:13Z</time>
      </trkpt>
      <trkpt lat="44.23037" lon="4.91626">
        <ele>113</ele>
        <time>2018-02-21T08:24:16Z</time>
      </trkpt>
      <trkpt lat="44.23031" lon="4.91641">
        <ele>112</ele>
        <time>2018-02-21T08:24:18Z</time>
      </trkpt>
      <trkpt lat="44.23026" lon="4.91655">
        <ele>112</ele>
        <time>2018-02-21T08:24:20Z</time>
      </trkpt>
      <trkpt lat="44.23019" lon="4.91677">
        <ele>112</ele>
        <time>2018-02-21T08:24:23Z</time>
      </trkpt>
      <trkpt lat="44.23014" lon="4.91692">
        <ele>111</ele>
        <time>2018-02-21T08:24:25Z</time>
      </trkpt>
      <trkpt lat="44.23009" lon="4.91716">
        <ele>112</ele>
        <time>2018-02-21T08:24:28Z</time>
      </trkpt>
      <trkpt lat="44.23003" lon="4.9174">
        <ele>112</ele>
        <time>2018-02-21T08:24:31Z</time>
      </trkpt>
      <trkpt lat="44.22999" lon="4.91765">
        <ele>111</ele>
        <time>2018-02-21T08:24:34Z</time>
      </trkpt>
      <trkpt lat="44.22996" lon="4.91788">
        <ele>112</ele>
        <time>2018-02-21T08:24:37Z</time>
      </trkpt>
      <trkpt lat="44.22994" lon="4.91812">
        <ele>113</ele>
        <time>2018-02-21T08:24:40Z</time>
      </trkpt>
      <trkpt lat="44.22992" lon="4.91835">
        <ele>114</ele>
        <time>2018-02-21T08:24:43Z</time>
      </trkpt>
      <trkpt lat="44.22991" lon="4.91851">
        <ele>114</ele>
        <time>2018-02-21T08:24:45Z</time>
      </trkpt>
      <trkpt lat="44.22991" lon="4.91873">
        <ele>114</ele>
        <time>2018-02-21T08:24:48Z</time>
      </trkpt>
      <trkpt lat="44.22991" lon="4.91896">
        <ele>113</ele>
        <time>2018-02-21T08:24:51Z</time>
      </trkpt>
      <trkpt lat="44.22991" lon="4.91919">
        <ele>114</ele>
        <time>2018-02-21T08:24:54Z</time>
      </trkpt>
      <trkpt lat="44.22992" lon="4.9194">
        <ele>114</ele>
        <time>2018-02-21T08:24:57Z</time>
      </trkpt>
      <trkpt lat="44.22992" lon="4.91961">
        <ele>114</ele>
        <time>2018-02-21T08:25:00Z</time>
      </trkpt>
      <trkpt lat="44.22993" lon="4.91982">
        <ele>115</ele>
        <time>2018-02-21T08:25:03Z</time>
      </trkpt>
      <trkpt lat="44.22993" lon="4.92004">
        <ele>116</ele>
        <time>2018-02-21T08:25:06Z</time>
      </trkpt>
      <trkpt lat="44.22993" lon="4.9202">
        <ele>116</ele>
        <time>2018-02-21T08:25:08Z</time>
      </trkpt>
      <trkpt lat="44.22993" lon="4.92034">
        <ele>116</ele>
        <time>2018-02-21T08:25:10Z</time>
      </trkpt>
      <trkpt lat="44.22993" lon="4.92056">
        <ele>116</ele>
        <time>2018-02-21T08:25:13Z</time>
      </trkpt>
      <trkpt lat="44.22994" lon="4.92079">
        <ele>116</ele>
        <time>2018-02-21T08:25:16Z</time>
      </trkpt>
      <trkpt lat="44.22994" lon="4.92101">
        <ele>116</ele>
        <time>2018-02-21T08:25:19Z</time>
      </trkpt>
      <trkpt lat="44.22994" lon="4.92123">
        <ele>117</ele>
        <time>2018-02-21T08:25:22Z</time>
      </trkpt>
      <trkpt lat="44.22995" lon="4.92144">
        <ele>117</ele>
        <time>2018-02-21T08:25:25Z</time>
      </trkpt>
      <trkpt lat="44.22995" lon="4.92166">
        <ele>118</ele>
        <time>2018-02-21T08:25:28Z</time>
      </trkpt>
      <trkpt lat="44.22995" lon="4.92188">
        <ele>118</ele>
        <time>2018-02-21T08:25:31Z</time>
      </trkpt>
      <trkpt lat="44.22996" lon="4.92209">
        <ele>119</ele>
        <time>2018-02-21T08:25:34Z</time>
      </trkpt>
      <trkpt lat="44.22996" lon="4.92223">
        <ele>119</ele>
        <time>2018-02-21T08:25:36Z</time>
      </trkpt>
      <trkpt lat="44.22996" lon="4.92238">
        <ele>119</ele>
        <time>2018-02-21T08:25:38Z</time>
      </trkpt>
      <trkpt lat="44.22996" lon="4.9226">
        <ele>118</ele>
        <time>2018-02-21T08:25:41Z</time>
      </trkpt>
      <trkpt lat="44.22996" lon="4.92275">
        <ele>117</ele>
        <time>2018-02-21T08:25:43Z</time>
      </trkpt>
      <trkpt lat="44.22997" lon="4.92297">
        <ele>118</ele>
        <time>2018-02-21T08:25:46Z</time>
      </trkpt>
      <trkpt lat="44.22997" lon="4.92317">
        <ele>118</ele>
        <time>2018-02-21T08:25:49Z</time>
      </trkpt>
      <trkpt lat="44.22997" lon="4.92331">
        <ele>117</ele>
        <time>2018-02-21T08:25:51Z</time>
      </trkpt>
      <trkpt lat="44.22997" lon="4.92352">
        <ele>117</ele>
        <time>2018-02-21T08:25:54Z</time>
      </trkpt>
      <trkpt lat="44.22997" lon="4.92367">
        <ele>117</ele>
        <time>2018-02-21T08:25:56Z</time>
      </trkpt>
      <trkpt lat="44.22998" lon="4.92387">
        <ele>118</ele>
        <time>2018-02-21T08:25:59Z</time>
      </trkpt>
      <trkpt lat="44.22998" lon="4.92401">
        <ele>119</ele>
        <time>2018-02-21T08:26:01Z</time>
      </trkpt>
      <trkpt lat="44.22998" lon="4.92414">
        <ele>119</ele>
        <time>2018-02-21T08:26:03Z</time>
      </trkpt>
      <trkpt lat="44.22998" lon="4.92434">
        <ele>119</ele>
        <time>2018-02-21T08:26:06Z</time>
      </trkpt>
      <trkpt lat="44.22998" lon="4.92453">
        <ele>120</ele>
        <time>2018-02-21T08:26:09Z</time>
      </trkpt>
      <trkpt lat="44.22998" lon="4.92465">
        <ele>121</ele>
        <time>2018-02-21T08:26:11Z</time>
      </trkpt>
      <trkpt lat="44.22998" lon="4.92483">
        <ele>122</ele>
        <time>2018-02-21T08:26:14Z</time>
      </trkpt>
      <trkpt lat="44.22998" lon="4.92495">
        <ele>122</ele>
        <time>2018-02-21T08:26:16Z</time>
      </trkpt>
      <trkpt lat="44.22998" lon="4.92515">
        <ele>123</ele>
        <time>2018-02-21T08:26:19Z</time>
      </trkpt>
      <trkpt lat="44.22999" lon="4.92534">
        <ele>123</ele>
        <time>2018-02-21T08:26:22Z</time>
      </trkpt>
      <trkpt lat="44.22999" lon="4.92548">
        <ele>123</ele>
        <time>2018-02-21T08:26:24Z</time>
      </trkpt>
      <trkpt lat="44.22999" lon="4.92568">
        <ele>124</ele>
        <time>2018-02-21T08:26:27Z</time>
      </trkpt>
      <trkpt lat="44.23" lon="4.92589">
        <ele>124</ele>
        <time>2018-02-21T08:26:30Z</time>
      </trkpt>
      <trkpt lat="44.23" lon="4.92602">
        <ele>124</ele>
        <time>2018-02-21T08:26:32Z</time>
      </trkpt>
      <trkpt lat="44.23" lon="4.92615">
        <ele>124</ele>
        <time>2018-02-21T08:26:34Z</time>
      </trkpt>
      <trkpt lat="44.23" lon="4.92629">
        <ele>124</ele>
        <time>2018-02-21T08:26:36Z</time>
      </trkpt>
      <trkpt lat="44.23" lon="4.9265">
        <ele>125</ele>
        <time>2018-02-21T08:26:39Z</time>
      </trkpt>
      <trkpt lat="44.23" lon="4.92663">
        <ele>125</ele>
        <time>2018-02-21T08:26:41Z</time>
      </trkpt>
      <trkpt lat="44.23001" lon="4.92684">
        <ele>126</ele>
        <time>2018-02-21T08:26:44Z</time>
      </trkpt>
      <trkpt lat="44.23001" lon="4.92697">
        <ele>126</ele>
        <time>2018-02-21T08:26:46Z</time>
      </trkpt>
      <trkpt lat="44.23001" lon="4.92718">
        <ele>127</ele>
        <time>2018-02-21T08:26:49Z</time>
      </trkpt>
      <trkpt lat="44.23001" lon="4.92738">
        <ele>127</ele>
        <time>2018-02-21T08:26:52Z</time>
      </trkpt>
      <trkpt lat="44.23001" lon="4.92752">
        <ele>127</ele>
        <time>2018-02-21T08:26:54Z</time>
      </trkpt>
      <trkpt lat="44.23001" lon="4.92773">
        <ele>129</ele>
        <time>2018-02-21T08:26:57Z</time>
      </trkpt>
      <trkpt lat="44.23002" lon="4.92793">
        <ele>130</ele>
        <time>2018-02-21T08:27:00Z</time>
      </trkpt>
      <trkpt lat="44.23002" lon="4.92806">
        <ele>131</ele>
        <time>2018-02-21T08:27:02Z</time>
      </trkpt>
      <trkpt lat="44.23002" lon="4.92825">
        <ele>130</ele>
        <time>2018-02-21T08:27:05Z</time>
      </trkpt>
      <trkpt lat="44.23003" lon="4.92837">
        <ele>129</ele>
        <time>2018-02-21T08:27:07Z</time>
      </trkpt>
      <trkpt lat="44.23003" lon="4.92857">
        <ele>129</ele>
        <time>2018-02-21T08:27:10Z</time>
      </trkpt>
      <trkpt lat="44.23003" lon="4.92869">
        <ele>130</ele>
        <time>2018-02-21T08:27:12Z</time>
      </trkpt>
      <trkpt lat="44.23003" lon="4.92888">
        <ele>130</ele>
        <time>2018-02-21T08:27:15Z</time>
      </trkpt>
      <trkpt lat="44.23003" lon="4.929">
        <ele>130</ele>
        <time>2018-02-21T08:27:17Z</time>
      </trkpt>
      <trkpt lat="44.23003" lon="4.92919">
        <ele>130</ele>
        <time>2018-02-21T08:27:20Z</time>
      </trkpt>
      <trkpt lat="44.23004" lon="4.92932">
        <ele>130</ele>
        <time>2018-02-21T08:27:22Z</time>
      </trkpt>
      <trkpt lat="44.23004" lon="4.92951">
        <ele>132</ele>
        <time>2018-02-21T08:27:25Z</time>
      </trkpt>
      <trkpt lat="44.23004" lon="4.92968">
        <ele>133</ele>
        <time>2018-02-21T08:27:28Z</time>
      </trkpt>
      <trkpt lat="44.23004" lon="4.92979">
        <ele>134</ele>
        <time>2018-02-21T08:27:30Z</time>
      </trkpt>
      <trkpt lat="44.23004" lon="4.92999">
        <ele>135</ele>
        <time>2018-02-21T08:27:33Z</time>
      </trkpt>
      <trkpt lat="44.23004" lon="4.93012">
        <ele>135</ele>
        <time>2018-02-21T08:27:35Z</time>
      </trkpt>
      <trkpt lat="44.23004" lon="4.93025">
        <ele>135</ele>
        <time>2018-02-21T08:27:37Z</time>
      </trkpt>
      <trkpt lat="44.23004" lon="4.93045">
        <ele>135</ele>
        <time>2018-02-21T08:27:40Z</time>
      </trkpt>
      <trkpt lat="44.23005" lon="4.93058">
        <ele>135</ele>
        <time>2018-02-21T08:27:42Z</time>
      </trkpt>
      <trkpt lat="44.23004" lon="4.93078">
        <ele>135</ele>
        <time>2018-02-21T08:27:45Z</time>
      </trkpt>
      <trkpt lat="44.23004" lon="4.9309">
        <ele>135</ele>
        <time>2018-02-21T08:27:47Z</time>
      </trkpt>
      <trkpt lat="44.23004" lon="4.93109">
        <ele>135</ele>
        <time>2018-02-21T08:27:50Z</time>
      </trkpt>
      <trkpt lat="44.23004" lon="4.93122">
        <ele>136</ele>
        <time>2018-02-21T08:27:52Z</time>
      </trkpt>
      <trkpt lat="44.23003" lon="4.9314">
        <ele>136</ele>
        <time>2018-02-21T08:27:55Z</time>
      </trkpt>
      <trkpt lat="44.23003" lon="4.93151">
        <ele>137</ele>
        <time>2018-02-21T08:27:57Z</time>
      </trkpt>
      <trkpt lat="44.23" lon="4.93167">
        <ele>137</ele>
        <time>2018-02-21T08:28:00Z</time>
      </trkpt>
      <trkpt lat="44.22996" lon="4.9318">
        <ele>137</ele>
        <time>2018-02-21T08:28:03Z</time>
      </trkpt>
      <trkpt lat="44.22993" lon="4.93185">
        <ele>137</ele>
        <time>2018-02-21T08:28:05Z</time>
      </trkpt>
      <trkpt lat="44.22987" lon="4.93192">
        <ele>137</ele>
        <time>2018-02-21T08:28:08Z</time>
      </trkpt>
      <trkpt lat="44.22979" lon="4.93199">
        <ele>137</ele>
        <time>2018-02-21T08:28:11Z</time>
      </trkpt>
      <trkpt lat="44.22972" lon="4.93202">
        <ele>138</ele>
        <time>2018-02-21T08:28:13Z</time>
      </trkpt>
      <trkpt lat="44.22962" lon="4.93207">
        <ele>138</ele>
        <time>2018-02-21T08:28:16Z</time>
      </trkpt>
      <trkpt lat="44.22951" lon="4.93211">
        <ele>138</ele>
        <time>2018-02-21T08:28:19Z</time>
      </trkpt>
      <trkpt lat="44.2294" lon="4.93215">
        <ele>138</ele>
        <time>2018-02-21T08:28:22Z</time>
      </trkpt>
      <trkpt lat="44.22929" lon="4.93218">
        <ele>139</ele>
        <time>2018-02-21T08:28:25Z</time>
      </trkpt>
      <trkpt lat="44.22917" lon="4.93222">
        <ele>139</ele>
        <time>2018-02-21T08:28:28Z</time>
      </trkpt>
      <trkpt lat="44.22906" lon="4.93226">
        <ele>138</ele>
        <time>2018-02-21T08:28:31Z</time>
      </trkpt>
      <trkpt lat="44.22898" lon="4.93229">
        <ele>138</ele>
        <time>2018-02-21T08:28:33Z</time>
      </trkpt>
      <trkpt lat="44.22887" lon="4.93233">
        <ele>138</ele>
        <time>2018-02-21T08:28:36Z</time>
      </trkpt>
      <trkpt lat="44.22879" lon="4.93236">
        <ele>139</ele>
        <time>2018-02-21T08:28:38Z</time>
      </trkpt>
      <trkpt lat="44.22869" lon="4.93239">
        <ele>139</ele>
        <time>2018-02-21T08:28:41Z</time>
      </trkpt>
      <trkpt lat="44.2286" lon="4.93237">
        <ele>139</ele>
        <time>2018-02-21T08:28:44Z</time>
      </trkpt>
      <trkpt lat="44.22853" lon="4.93233">
        <ele>140</ele>
        <time>2018-02-21T08:28:47Z</time>
      </trkpt>
      <trkpt lat="44.22845" lon="4.93232">
        <ele>141</ele>
        <time>2018-02-21T08:28:50Z</time>
      </trkpt>
      <trkpt lat="44.22837" lon="4.93236">
        <ele>141</ele>
        <time>2018-02-21T08:28:53Z</time>
      </trkpt>
      <trkpt lat="44.22833" lon="4.93242">
        <ele>141</ele>
        <time>2018-02-21T08:28:55Z</time>
      </trkpt>
      <trkpt lat="44.22831" lon="4.93252">
        <ele>142</ele>
        <time>2018-02-21T08:28:58Z</time>
      </trkpt>
      <trkpt lat="44.22834" lon="4.93263">
        <ele>142</ele>
        <time>2018-02-21T08:29:01Z</time>
      </trkpt>
      <trkpt lat="44.22839" lon="4.93272">
        <ele>142</ele>
        <time>2018-02-21T08:29:03Z</time>
      </trkpt>
      <trkpt lat="44.22839" lon="4.93287">
        <ele>142</ele>
        <time>2018-02-21T08:29:06Z</time>
      </trkpt>
      <trkpt lat="44.22837" lon="4.93296">
        <ele>141</ele>
        <time>2018-02-21T08:29:09Z</time>
      </trkpt>
      <trkpt lat="44.22836" lon="4.93304">
        <ele>141</ele>
        <time>2018-02-21T08:29:12Z</time>
      </trkpt>
      <trkpt lat="44.22836" lon="4.93308">
        <ele>141</ele>
        <time>2018-02-21T08:29:14Z</time>
      </trkpt>
      <trkpt lat="44.22834" lon="4.93313">
        <ele>141</ele>
        <time>2018-02-21T08:29:17Z</time>
      </trkpt>
      <trkpt lat="44.22833" lon="4.93319">
        <ele>141</ele>
        <time>2018-02-21T08:29:20Z</time>
      </trkpt>
      <trkpt lat="44.22832" lon="4.93324">
        <ele>141</ele>
        <time>2018-02-21T08:29:22Z</time>
      </trkpt>
      <trkpt lat="44.22831" lon="4.93329">
        <ele>142</ele>
        <time>2018-02-21T08:29:24Z</time>
      </trkpt>
      <trkpt lat="44.22828" lon="4.93337">
        <ele>142</ele>
        <time>2018-02-21T08:29:27Z</time>
      </trkpt>
      <trkpt lat="44.22826" lon="4.93345">
        <ele>142</ele>
        <time>2018-02-21T08:29:29Z</time>
      </trkpt>
      <trkpt lat="44.22823" lon="4.93355">
        <ele>143</ele>
        <time>2018-02-21T08:29:31Z</time>
      </trkpt>
      <trkpt lat="44.2282" lon="4.93366">
        <ele>143</ele>
        <time>2018-02-21T08:29:33Z</time>
      </trkpt>
      <trkpt lat="44.22817" lon="4.93377">
        <ele>143</ele>
        <time>2018-02-21T08:29:35Z</time>
      </trkpt>
      <trkpt lat="44.22815" lon="4.93388">
        <ele>143</ele>
        <time>2018-02-21T08:29:37Z</time>
      </trkpt>
      <trkpt lat="44.2281" lon="4.93404">
        <ele>144</ele>
        <time>2018-02-21T08:29:40Z</time>
      </trkpt>
      <trkpt lat="44.22806" lon="4.9342">
        <ele>144</ele>
        <time>2018-02-21T08:29:43Z</time>
      </trkpt>
      <trkpt lat="44.22802" lon="4.93436">
        <ele>145</ele>
        <time>2018-02-21T08:29:46Z</time>
      </trkpt>
      <trkpt lat="44.228" lon="4.93445">
        <ele>144</ele>
        <time>2018-02-21T08:29:48Z</time>
      </trkpt>
      <trkpt lat="44.22796" lon="4.93458">
        <ele>144</ele>
        <time>2018-02-21T08:29:51Z</time>
      </trkpt>
      <trkpt lat="44.22793" lon="4.93468">
        <ele>144</ele>
        <time>2018-02-21T08:29:54Z</time>
      </trkpt>
      <trkpt lat="44.22792" lon="4.93474">
        <ele>144</ele>
        <time>2018-02-21T08:29:56Z</time>
      </trkpt>
      <trkpt lat="44.22789" lon="4.93478">
        <ele>145</ele>
        <time>2018-02-21T08:29:58Z</time>
      </trkpt>
      <trkpt lat="44.22787" lon="4.93484">
        <ele>145</ele>
        <time>2018-02-21T08:30:01Z</time>
      </trkpt>
      <trkpt lat="44.22787" lon="4.93488">
        <ele>145</ele>
        <time>2018-02-21T08:30:03Z</time>
      </trkpt>
      <trkpt lat="44.22786" lon="4.93491">
        <ele>145</ele>
        <time>2018-02-21T08:30:05Z</time>
      </trkpt>
      <trkpt lat="44.22784" lon="4.93497">
        <ele>145</ele>
        <time>2018-02-21T08:30:08Z</time>
      </trkpt>
      <trkpt lat="44.22783" lon="4.93504">
        <ele>145</ele>
        <time>2018-02-21T08:30:11Z</time>
      </trkpt>
      <trkpt lat="44.22781" lon="4.9351">
        <ele>145</ele>
        <time>2018-02-21T08:30:14Z</time>
      </trkpt>
      <trkpt lat="44.2278" lon="4.93514">
        <ele>145</ele>
        <time>2018-02-21T08:30:16Z</time>
      </trkpt>
      <trkpt lat="44.22779" lon="4.93519">
        <ele>145</ele>
        <time>2018-02-21T08:30:19Z</time>
      </trkpt>
      <trkpt lat="44.22778" lon="4.93522">
        <ele>144</ele>
        <time>2018-02-21T08:30:21Z</time>
      </trkpt>
      <trkpt lat="44.22777" lon="4.93525">
        <ele>144</ele>
        <time>2018-02-21T08:30:23Z</time>
      </trkpt>
      <trkpt lat="44.22776" lon="4.93529">
        <ele>144</ele>
        <time>2018-02-21T08:30:25Z</time>
      </trkpt>
      <trkpt lat="44.22775" lon="4.93534">
        <ele>144</ele>
        <time>2018-02-21T08:30:28Z</time>
      </trkpt>
      <trkpt lat="44.22775" lon="4.93538">
        <ele>144</ele>
        <time>2018-02-21T08:30:30Z</time>
      </trkpt>
      <trkpt lat="44.22775" lon="4.93541">
        <ele>144</ele>
        <time>2018-02-21T08:30:32Z</time>
      </trkpt>
      <trkpt lat="44.22773" lon="4.93545">
        <ele>144</ele>
        <time>2018-02-21T08:30:34Z</time>
      </trkpt>
      <trkpt lat="44.22771" lon="4.9355">
        <ele>144</ele>
        <time>2018-02-21T08:30:37Z</time>
      </trkpt>
      <trkpt lat="44.2277" lon="4.93551">
        <ele>144</ele>
        <time>2018-02-21T08:30:40Z</time>
      </trkpt>
      <trkpt lat="44.2277" lon="4.93552">
        <ele>145</ele>
        <time>2018-02-21T08:30:43Z</time>
      </trkpt>
      <trkpt lat="44.2277" lon="4.93552">
        <ele>145</ele>
        <time>2018-02-21T08:30:45Z</time>
      </trkpt>
      <trkpt lat="44.2277" lon="4.93552">
        <ele>145</ele>
        <time>2018-02-21T08:30:48Z</time>
      </trkpt>
      <trkpt lat="44.2277" lon="4.93553">
        <ele>145</ele>
        <time>2018-02-21T08:30:50Z</time>
      </trkpt>
      <trkpt lat="44.22772" lon="4.93555">
        <ele>145</ele>
        <time>2018-02-21T08:30:53Z</time>
      </trkpt>
      <trkpt lat="44.22773" lon="4.93552">
        <ele>145</ele>
        <time>2018-02-21T08:30:55Z</time>
      </trkpt>
      <trkpt lat="44.22774" lon="4.93548">
        <ele>145</ele>
        <time>2018-02-21T08:30:57Z</time>
      </trkpt>
      <trkpt lat="44.22777" lon="4.93538">
        <ele>144</ele>
        <time>2018-02-21T08:31:00Z</time>
      </trkpt>
      <trkpt lat="44.22781" lon="4.93526">
        <ele>145</ele>
        <time>2018-02-21T08:31:03Z</time>
      </trkpt>
      <trkpt lat="44.22783" lon="4.93514">
        <ele>145</ele>
        <time>2018-02-21T08:31:06Z</time>
      </trkpt>
      <trkpt lat="44.22786" lon="4.93503">
        <ele>145</ele>
        <time>2018-02-21T08:31:09Z</time>
      </trkpt>
      <trkpt lat="44.22787" lon="4.93496">
        <ele>145</ele>
        <time>2018-02-21T08:31:11Z</time>
      </trkpt>
      <trkpt lat="44.2279" lon="4.93489">
        <ele>145</ele>
        <time>2018-02-21T08:31:13Z</time>
      </trkpt>
      <trkpt lat="44.22792" lon="4.93481">
        <ele>146</ele>
        <time>2018-02-21T08:31:15Z</time>
      </trkpt>
      <trkpt lat="44.22795" lon="4.9347">
        <ele>146</ele>
        <time>2018-02-21T08:31:18Z</time>
      </trkpt>
      <trkpt lat="44.22798" lon="4.93461">
        <ele>146</ele>
        <time>2018-02-21T08:31:20Z</time>
      </trkpt>
      <trkpt lat="44.22801" lon="4.93447">
        <ele>147</ele>
        <time>2018-02-21T08:31:23Z</time>
      </trkpt>
      <trkpt lat="44.22805" lon="4.93437">
        <ele>147</ele>
        <time>2018-02-21T08:31:25Z</time>
      </trkpt>
      <trkpt lat="44.22807" lon="4.93426">
        <ele>148</ele>
        <time>2018-02-21T08:31:27Z</time>
      </trkpt>
      <trkpt lat="44.22812" lon="4.93409">
        <ele>147</ele>
        <time>2018-02-21T08:31:30Z</time>
      </trkpt>
      <trkpt lat="44.22815" lon="4.93397">
        <ele>148</ele>
        <time>2018-02-21T08:31:32Z</time>
      </trkpt>
      <trkpt lat="44.22818" lon="4.93385">
        <ele>147</ele>
        <time>2018-02-21T08:31:34Z</time>
      </trkpt>
      <trkpt lat="44.22824" lon="4.93368">
        <ele>147</ele>
        <time>2018-02-21T08:31:37Z</time>
      </trkpt>
      <trkpt lat="44.22827" lon="4.93355">
        <ele>147</ele>
        <time>2018-02-21T08:31:39Z</time>
      </trkpt>
      <trkpt lat="44.2283" lon="4.93344">
        <ele>148</ele>
        <time>2018-02-21T08:31:41Z</time>
      </trkpt>
      <trkpt lat="44.22835" lon="4.93327">
        <ele>147</ele>
        <time>2018-02-21T08:31:44Z</time>
      </trkpt>
      <trkpt lat="44.22838" lon="4.93315">
        <ele>146</ele>
        <time>2018-02-21T08:31:46Z</time>
      </trkpt>
      <trkpt lat="44.22841" lon="4.93303">
        <ele>145</ele>
        <time>2018-02-21T08:31:48Z</time>
      </trkpt>
      <trkpt lat="44.22843" lon="4.9329">
        <ele>143</ele>
        <time>2018-02-21T08:31:50Z</time>
      </trkpt>
      <trkpt lat="44.22849" lon="4.93271">
        <ele>143</ele>
        <time>2018-02-21T08:31:53Z</time>
      </trkpt>
      <trkpt lat="44.22853" lon="4.93261">
        <ele>143</ele>
        <time>2018-02-21T08:31:55Z</time>
      </trkpt>
      <trkpt lat="44.22855" lon="4.93248">
        <ele>143</ele>
        <time>2018-02-21T08:31:57Z</time>
      </trkpt>
      <trkpt lat="44.2285" lon="4.93237">
        <ele>143</ele>
        <time>2018-02-21T08:31:59Z</time>
      </trkpt>
      <trkpt lat="44.22838" lon="4.93236">
        <ele>142</ele>
        <time>2018-02-21T08:32:02Z</time>
      </trkpt>
      <trkpt lat="44.22834" lon="4.93243">
        <ele>142</ele>
        <time>2018-02-21T08:32:04Z</time>
      </trkpt>
      <trkpt lat="44.22834" lon="4.93254">
        <ele>142</ele>
        <time>2018-02-21T08:32:06Z</time>
      </trkpt>
      <trkpt lat="44.22838" lon="4.93264">
        <ele>143</ele>
        <time>2018-02-21T08:32:08Z</time>
      </trkpt>
      <trkpt lat="44.22841" lon="4.93285">
        <ele>144</ele>
        <time>2018-02-21T08:32:11Z</time>
      </trkpt>
      <trkpt lat="44.22838" lon="4.93303">
        <ele>144</ele>
        <time>2018-02-21T08:32:14Z</time>
      </trkpt>
      <trkpt lat="44.22835" lon="4.93315">
        <ele>143</ele>
        <time>2018-02-21T08:32:16Z</time>
      </trkpt>
      <trkpt lat="44.2283" lon="4.93332">
        <ele>142</ele>
        <time>2018-02-21T08:32:19Z</time>
      </trkpt>
      <trkpt lat="44.22827" lon="4.93344">
        <ele>143</ele>
        <time>2018-02-21T08:32:21Z</time>
      </trkpt>
      <trkpt lat="44.22824" lon="4.93357">
        <ele>143</ele>
        <time>2018-02-21T08:32:23Z</time>
      </trkpt>
      <trkpt lat="44.2282" lon="4.93369">
        <ele>144</ele>
        <time>2018-02-21T08:32:25Z</time>
      </trkpt>
      <trkpt lat="44.22817" lon="4.93382">
        <ele>144</ele>
        <time>2018-02-21T08:32:27Z</time>
      </trkpt>
      <trkpt lat="44.22814" lon="4.93394">
        <ele>144</ele>
        <time>2018-02-21T08:32:29Z</time>
      </trkpt>
      <trkpt lat="44.22811" lon="4.93406">
        <ele>144</ele>
        <time>2018-02-21T08:32:31Z</time>
      </trkpt>
      <trkpt lat="44.22806" lon="4.93424">
        <ele>144</ele>
        <time>2018-02-21T08:32:34Z</time>
      </trkpt>
      <trkpt lat="44.22802" lon="4.93436">
        <ele>144</ele>
        <time>2018-02-21T08:32:36Z</time>
      </trkpt>
      <trkpt lat="44.22797" lon="4.93455">
        <ele>145</ele>
        <time>2018-02-21T08:32:39Z</time>
      </trkpt>
      <trkpt lat="44.22793" lon="4.93474">
        <ele>146</ele>
        <time>2018-02-21T08:32:42Z</time>
      </trkpt>
      <trkpt lat="44.2279" lon="4.93486">
        <ele>146</ele>
        <time>2018-02-21T08:32:44Z</time>
      </trkpt>
      <trkpt lat="44.22786" lon="4.93499">
        <ele>146</ele>
        <time>2018-02-21T08:32:46Z</time>
      </trkpt>
      <trkpt lat="44.22781" lon="4.93517">
        <ele>146</ele>
        <time>2018-02-21T08:32:49Z</time>
      </trkpt>
      <trkpt lat="44.22778" lon="4.93531">
        <ele>147</ele>
        <time>2018-02-21T08:32:51Z</time>
      </trkpt>
      <trkpt lat="44.22774" lon="4.93544">
        <ele>146</ele>
        <time>2018-02-21T08:32:53Z</time>
      </trkpt>
      <trkpt lat="44.22768" lon="4.93564">
        <ele>146</ele>
        <time>2018-02-21T08:32:56Z</time>
      </trkpt>
      <trkpt lat="44.22765" lon="4.93577">
        <ele>146</ele>
        <time>2018-02-21T08:32:58Z</time>
      </trkpt>
      <trkpt lat="44.22759" lon="4.93597">
        <ele>146</ele>
        <time>2018-02-21T08:33:01Z</time>
      </trkpt>
      <trkpt lat="44.22754" lon="4.93618">
        <ele>146</ele>
        <time>2018-02-21T08:33:04Z</time>
      </trkpt>
      <trkpt lat="44.2275" lon="4.93632">
        <ele>147</ele>
        <time>2018-02-21T08:33:06Z</time>
      </trkpt>
      <trkpt lat="44.22745" lon="4.93652">
        <ele>147</ele>
        <time>2018-02-21T08:33:09Z</time>
      </trkpt>
      <trkpt lat="44.22741" lon="4.93666">
        <ele>147</ele>
        <time>2018-02-21T08:33:11Z</time>
      </trkpt>
      <trkpt lat="44.22738" lon="4.9368">
        <ele>147</ele>
        <time>2018-02-21T08:33:13Z</time>
      </trkpt>
      <trkpt lat="44.22734" lon="4.937">
        <ele>147</ele>
        <time>2018-02-21T08:33:16Z</time>
      </trkpt>
      <trkpt lat="44.22729" lon="4.93722">
        <ele>147</ele>
        <time>2018-02-21T08:33:19Z</time>
      </trkpt>
      <trkpt lat="44.22726" lon="4.93743">
        <ele>147</ele>
        <time>2018-02-21T08:33:22Z</time>
      </trkpt>
      <trkpt lat="44.22723" lon="4.93764">
        <ele>148</ele>
        <time>2018-02-21T08:33:25Z</time>
      </trkpt>
      <trkpt lat="44.2272" lon="4.93786">
        <ele>148</ele>
        <time>2018-02-21T08:33:28Z</time>
      </trkpt>
      <trkpt lat="44.22718" lon="4.938">
        <ele>148</ele>
        <time>2018-02-21T08:33:30Z</time>
      </trkpt>
      <trkpt lat="44.22715" lon="4.93821">
        <ele>147</ele>
        <time>2018-02-21T08:33:33Z</time>
      </trkpt>
      <trkpt lat="44.22713" lon="4.93837">
        <ele>147</ele>
        <time>2018-02-21T08:33:35Z</time>
      </trkpt>
      <trkpt lat="44.2271" lon="4.9386">
        <ele>148</ele>
        <time>2018-02-21T08:33:38Z</time>
      </trkpt>
      <trkpt lat="44.22708" lon="4.93877">
        <ele>148</ele>
        <time>2018-02-21T08:33:40Z</time>
      </trkpt>
      <trkpt lat="44.22706" lon="4.93892">
        <ele>149</ele>
        <time>2018-02-21T08:33:42Z</time>
      </trkpt>
      <trkpt lat="44.22704" lon="4.93908">
        <ele>149</ele>
        <time>2018-02-21T08:33:44Z</time>
      </trkpt>
      <trkpt lat="44.22701" lon="4.93932">
        <ele>149</ele>
        <time>2018-02-21T08:33:47Z</time>
      </trkpt>
      <trkpt lat="44.22698" lon="4.93949">
        <ele>149</ele>
        <time>2018-02-21T08:33:49Z</time>
      </trkpt>
      <trkpt lat="44.22695" lon="4.93973">
        <ele>149</ele>
        <time>2018-02-21T08:33:52Z</time>
      </trkpt>
      <trkpt lat="44.22693" lon="4.93989">
        <ele>148</ele>
        <time>2018-02-21T08:33:54Z</time>
      </trkpt>
      <trkpt lat="44.22691" lon="4.94005">
        <ele>147</ele>
        <time>2018-02-21T08:33:56Z</time>
      </trkpt>
      <trkpt lat="44.22689" lon="4.94021">
        <ele>145</ele>
        <time>2018-02-21T08:33:58Z</time>
      </trkpt>
      <trkpt lat="44.22686" lon="4.94045">
        <ele>144</ele>
        <time>2018-02-21T08:34:01Z</time>
      </trkpt>
      <trkpt lat="44.22683" lon="4.9407">
        <ele>144</ele>
        <time>2018-02-21T08:34:04Z</time>
      </trkpt>
      <trkpt lat="44.22679" lon="4.94095">
        <ele>143</ele>
        <time>2018-02-21T08:34:07Z</time>
      </trkpt>
      <trkpt lat="44.22676" lon="4.94112">
        <ele>142</ele>
        <time>2018-02-21T08:34:09Z</time>
      </trkpt>
      <trkpt lat="44.22673" lon="4.94137">
        <ele>141</ele>
        <time>2018-02-21T08:34:12Z</time>
      </trkpt>
      <trkpt lat="44.2267" lon="4.9416">
        <ele>141</ele>
        <time>2018-02-21T08:34:15Z</time>
      </trkpt>
      <trkpt lat="44.22668" lon="4.94176">
        <ele>142</ele>
        <time>2018-02-21T08:34:17Z</time>
      </trkpt>
      <trkpt lat="44.22665" lon="4.94199">
        <ele>142</ele>
        <time>2018-02-21T08:34:20Z</time>
      </trkpt>
      <trkpt lat="44.22663" lon="4.94215">
        <ele>142</ele>
        <time>2018-02-21T08:34:22Z</time>
      </trkpt>
      <trkpt lat="44.22661" lon="4.9423">
        <ele>142</ele>
        <time>2018-02-21T08:34:24Z</time>
      </trkpt>
      <trkpt lat="44.22659" lon="4.94245">
        <ele>143</ele>
        <time>2018-02-21T08:34:26Z</time>
      </trkpt>
      <trkpt lat="44.22657" lon="4.9426">
        <ele>142</ele>
        <time>2018-02-21T08:34:28Z</time>
      </trkpt>
      <trkpt lat="44.22655" lon="4.94276">
        <ele>143</ele>
        <time>2018-02-21T08:34:30Z</time>
      </trkpt>
      <trkpt lat="44.22653" lon="4.94291">
        <ele>143</ele>
        <time>2018-02-21T08:34:32Z</time>
      </trkpt>
      <trkpt lat="44.22651" lon="4.94306">
        <ele>143</ele>
        <time>2018-02-21T08:34:34Z</time>
      </trkpt>
      <trkpt lat="44.22649" lon="4.94321">
        <ele>143</ele>
        <time>2018-02-21T08:34:36Z</time>
      </trkpt>
      <trkpt lat="44.22646" lon="4.94344">
        <ele>144</ele>
        <time>2018-02-21T08:34:39Z</time>
      </trkpt>
      <trkpt lat="44.22644" lon="4.94359">
        <ele>144</ele>
        <time>2018-02-21T08:34:41Z</time>
      </trkpt>
      <trkpt lat="44.22642" lon="4.94374">
        <ele>144</ele>
        <time>2018-02-21T08:34:43Z</time>
      </trkpt>
      <trkpt lat="44.22641" lon="4.94389">
        <ele>144</ele>
        <time>2018-02-21T08:34:45Z</time>
      </trkpt>
      <trkpt lat="44.22639" lon="4.94404">
        <ele>143</ele>
        <time>2018-02-21T08:34:47Z</time>
      </trkpt>
      <trkpt lat="44.22638" lon="4.94419">
        <ele>143</ele>
        <time>2018-02-21T08:34:49Z</time>
      </trkpt>
      <trkpt lat="44.22637" lon="4.94434">
        <ele>143</ele>
        <time>2018-02-21T08:34:51Z</time>
      </trkpt>
      <trkpt lat="44.22636" lon="4.94448">
        <ele>143</ele>
        <time>2018-02-21T08:34:53Z</time>
      </trkpt>
      <trkpt lat="44.22636" lon="4.94463">
        <ele>143</ele>
        <time>2018-02-21T08:34:55Z</time>
      </trkpt>
      <trkpt lat="44.22635" lon="4.94477">
        <ele>143</ele>
        <time>2018-02-21T08:34:57Z</time>
      </trkpt>
      <trkpt lat="44.22634" lon="4.94497">
        <ele>142</ele>
        <time>2018-02-21T08:35:00Z</time>
      </trkpt>
      <trkpt lat="44.22633" lon="4.94519">
        <ele>143</ele>
        <time>2018-02-21T08:35:03Z</time>
      </trkpt>
      <trkpt lat="44.22633" lon="4.94533">
        <ele>144</ele>
        <time>2018-02-21T08:35:05Z</time>
      </trkpt>
      <trkpt lat="44.22633" lon="4.94554">
        <ele>145</ele>
        <time>2018-02-21T08:35:08Z</time>
      </trkpt>
      <trkpt lat="44.22632" lon="4.94575">
        <ele>146</ele>
        <time>2018-02-21T08:35:11Z</time>
      </trkpt>
      <trkpt lat="44.22631" lon="4.94596">
        <ele>146</ele>
        <time>2018-02-21T08:35:14Z</time>
      </trkpt>
      <trkpt lat="44.22631" lon="4.94617">
        <ele>146</ele>
        <time>2018-02-21T08:35:17Z</time>
      </trkpt>
      <trkpt lat="44.22631" lon="4.94631">
        <ele>146</ele>
        <time>2018-02-21T08:35:19Z</time>
      </trkpt>
      <trkpt lat="44.2263" lon="4.94645">
        <ele>147</ele>
        <time>2018-02-21T08:35:21Z</time>
      </trkpt>
      <trkpt lat="44.2263" lon="4.94666">
        <ele>147</ele>
        <time>2018-02-21T08:35:24Z</time>
      </trkpt>
      <trkpt lat="44.22629" lon="4.94687">
        <ele>148</ele>
        <time>2018-02-21T08:35:27Z</time>
      </trkpt>
      <trkpt lat="44.22628" lon="4.94708">
        <ele>148</ele>
        <time>2018-02-21T08:35:30Z</time>
      </trkpt>
      <trkpt lat="44.22628" lon="4.94728">
        <ele>148</ele>
        <time>2018-02-21T08:35:33Z</time>
      </trkpt>
      <trkpt lat="44.22628" lon="4.94748">
        <ele>149</ele>
        <time>2018-02-21T08:35:36Z</time>
      </trkpt>
      <trkpt lat="44.22627" lon="4.94768">
        <ele>150</ele>
        <time>2018-02-21T08:35:39Z</time>
      </trkpt>
      <trkpt lat="44.22627" lon="4.94788">
        <ele>149</ele>
        <time>2018-02-21T08:35:42Z</time>
      </trkpt>
      <trkpt lat="44.22626" lon="4.94808">
        <ele>149</ele>
        <time>2018-02-21T08:35:45Z</time>
      </trkpt>
      <trkpt lat="44.22626" lon="4.94822">
        <ele>149</ele>
        <time>2018-02-21T08:35:47Z</time>
      </trkpt>
      <trkpt lat="44.22625" lon="4.94836">
        <ele>149</ele>
        <time>2018-02-21T08:35:49Z</time>
      </trkpt>
      <trkpt lat="44.22625" lon="4.94856">
        <ele>149</ele>
        <time>2018-02-21T08:35:52Z</time>
      </trkpt>
      <trkpt lat="44.22625" lon="4.94869">
        <ele>149</ele>
        <time>2018-02-21T08:35:54Z</time>
      </trkpt>
      <trkpt lat="44.22624" lon="4.94889">
        <ele>150</ele>
        <time>2018-02-21T08:35:57Z</time>
      </trkpt>
      <trkpt lat="44.22624" lon="4.94903">
        <ele>150</ele>
        <time>2018-02-21T08:35:59Z</time>
      </trkpt>
      <trkpt lat="44.22623" lon="4.94916">
        <ele>150</ele>
        <time>2018-02-21T08:36:01Z</time>
      </trkpt>
      <trkpt lat="44.22623" lon="4.94929">
        <ele>151</ele>
        <time>2018-02-21T08:36:03Z</time>
      </trkpt>
      <trkpt lat="44.22622" lon="4.94943">
        <ele>151</ele>
        <time>2018-02-21T08:36:05Z</time>
      </trkpt>
      <trkpt lat="44.22622" lon="4.94956">
        <ele>151</ele>
        <time>2018-02-21T08:36:07Z</time>
      </trkpt>
      <trkpt lat="44.22621" lon="4.94977">
        <ele>152</ele>
        <time>2018-02-21T08:36:10Z</time>
      </trkpt>
      <trkpt lat="44.22621" lon="4.94991">
        <ele>152</ele>
        <time>2018-02-21T08:36:12Z</time>
      </trkpt>
      <trkpt lat="44.22621" lon="4.95005">
        <ele>153</ele>
        <time>2018-02-21T08:36:14Z</time>
      </trkpt>
      <trkpt lat="44.2262" lon="4.95025">
        <ele>153</ele>
        <time>2018-02-21T08:36:17Z</time>
      </trkpt>
      <trkpt lat="44.2262" lon="4.9504">
        <ele>153</ele>
        <time>2018-02-21T08:36:19Z</time>
      </trkpt>
      <trkpt lat="44.2262" lon="4.95054">
        <ele>153</ele>
        <time>2018-02-21T08:36:21Z</time>
      </trkpt>
      <trkpt lat="44.2262" lon="4.95076">
        <ele>153</ele>
        <time>2018-02-21T08:36:24Z</time>
      </trkpt>
      <trkpt lat="44.22619" lon="4.9509">
        <ele>153</ele>
        <time>2018-02-21T08:36:26Z</time>
      </trkpt>
      <trkpt lat="44.22618" lon="4.95104">
        <ele>153</ele>
        <time>2018-02-21T08:36:28Z</time>
      </trkpt>
      <trkpt lat="44.22618" lon="4.95118">
        <ele>154</ele>
        <time>2018-02-21T08:36:30Z</time>
      </trkpt>
      <trkpt lat="44.22617" lon="4.9514">
        <ele>154</ele>
        <time>2018-02-21T08:36:33Z</time>
      </trkpt>
      <trkpt lat="44.22617" lon="4.95154">
        <ele>153</ele>
        <time>2018-02-21T08:36:35Z</time>
      </trkpt>
      <trkpt lat="44.22617" lon="4.95169">
        <ele>153</ele>
        <time>2018-02-21T08:36:37Z</time>
      </trkpt>
      <trkpt lat="44.22616" lon="4.95183">
        <ele>153</ele>
        <time>2018-02-21T08:36:39Z</time>
      </trkpt>
      <trkpt lat="44.22615" lon="4.95197">
        <ele>152</ele>
        <time>2018-02-21T08:36:41Z</time>
      </trkpt>
      <trkpt lat="44.22615" lon="4.95212">
        <ele>152</ele>
        <time>2018-02-21T08:36:43Z</time>
      </trkpt>
      <trkpt lat="44.22615" lon="4.95226">
        <ele>153</ele>
        <time>2018-02-21T08:36:45Z</time>
      </trkpt>
      <trkpt lat="44.22615" lon="4.9524">
        <ele>153</ele>
        <time>2018-02-21T08:36:47Z</time>
      </trkpt>
      <trkpt lat="44.22614" lon="4.95261">
        <ele>153</ele>
        <time>2018-02-21T08:36:50Z</time>
      </trkpt>
      <trkpt lat="44.22614" lon="4.95276">
        <ele>154</ele>
        <time>2018-02-21T08:36:52Z</time>
      </trkpt>
      <trkpt lat="44.22613" lon="4.9529">
        <ele>154</ele>
        <time>2018-02-21T08:36:54Z</time>
      </trkpt>
      <trkpt lat="44.22612" lon="4.95312">
        <ele>154</ele>
        <time>2018-02-21T08:36:57Z</time>
      </trkpt>
      <trkpt lat="44.22612" lon="4.95327">
        <ele>154</ele>
        <time>2018-02-21T08:36:59Z</time>
      </trkpt>
      <trkpt lat="44.22612" lon="4.95341">
        <ele>154</ele>
        <time>2018-02-21T08:37:01Z</time>
      </trkpt>
      <trkpt lat="44.22611" lon="4.95356">
        <ele>153</ele>
        <time>2018-02-21T08:37:03Z</time>
      </trkpt>
      <trkpt lat="44.2261" lon="4.9537">
        <ele>154</ele>
        <time>2018-02-21T08:37:05Z</time>
      </trkpt>
      <trkpt lat="44.2261" lon="4.95385">
        <ele>154</ele>
        <time>2018-02-21T08:37:07Z</time>
      </trkpt>
      <trkpt lat="44.2261" lon="4.95399">
        <ele>154</ele>
        <time>2018-02-21T08:37:09Z</time>
      </trkpt>
      <trkpt lat="44.22609" lon="4.95421">
        <ele>154</ele>
        <time>2018-02-21T08:37:12Z</time>
      </trkpt>
      <trkpt lat="44.22609" lon="4.95435">
        <ele>154</ele>
        <time>2018-02-21T08:37:14Z</time>
      </trkpt>
      <trkpt lat="44.22608" lon="4.9545">
        <ele>154</ele>
        <time>2018-02-21T08:37:16Z</time>
      </trkpt>
      <trkpt lat="44.22608" lon="4.95464">
        <ele>155</ele>
        <time>2018-02-21T08:37:18Z</time>
      </trkpt>
      <trkpt lat="44.22607" lon="4.95485">
        <ele>155</ele>
        <time>2018-02-21T08:37:21Z</time>
      </trkpt>
      <trkpt lat="44.22607" lon="4.955">
        <ele>155</ele>
        <time>2018-02-21T08:37:23Z</time>
      </trkpt>
      <trkpt lat="44.22606" lon="4.95514">
        <ele>155</ele>
        <time>2018-02-21T08:37:25Z</time>
      </trkpt>
      <trkpt lat="44.22606" lon="4.95536">
        <ele>155</ele>
        <time>2018-02-21T08:37:28Z</time>
      </trkpt>
      <trkpt lat="44.22605" lon="4.9555">
        <ele>155</ele>
        <time>2018-02-21T08:37:30Z</time>
      </trkpt>
      <trkpt lat="44.22604" lon="4.95572">
        <ele>154</ele>
        <time>2018-02-21T08:37:33Z</time>
      </trkpt>
      <trkpt lat="44.22604" lon="4.95586">
        <ele>154</ele>
        <time>2018-02-21T08:37:35Z</time>
      </trkpt>
      <trkpt lat="44.22604" lon="4.956">
        <ele>154</ele>
        <time>2018-02-21T08:37:37Z</time>
      </trkpt>
      <trkpt lat="44.22603" lon="4.95614">
        <ele>154</ele>
        <time>2018-02-21T08:37:39Z</time>
      </trkpt>
      <trkpt lat="44.22603" lon="4.95628">
        <ele>155</ele>
        <time>2018-02-21T08:37:41Z</time>
      </trkpt>
      <trkpt lat="44.22602" lon="4.9565">
        <ele>155</ele>
        <time>2018-02-21T08:37:44Z</time>
      </trkpt>
      <trkpt lat="44.22602" lon="4.95664">
        <ele>155</ele>
        <time>2018-02-21T08:37:46Z</time>
      </trkpt>
      <trkpt lat="44.22601" lon="4.95678">
        <ele>156</ele>
        <time>2018-02-21T08:37:48Z</time>
      </trkpt>
      <trkpt lat="44.22601" lon="4.95692">
        <ele>156</ele>
        <time>2018-02-21T08:37:50Z</time>
      </trkpt>
      <trkpt lat="44.22601" lon="4.95706">
        <ele>156</ele>
        <time>2018-02-21T08:37:52Z</time>
      </trkpt>
      <trkpt lat="44.226" lon="4.9572">
        <ele>155</ele>
        <time>2018-02-21T08:37:54Z</time>
      </trkpt>
      <trkpt lat="44.22599" lon="4.95741">
        <ele>155</ele>
        <time>2018-02-21T08:37:57Z</time>
      </trkpt>
      <trkpt lat="44.22599" lon="4.95755">
        <ele>155</ele>
        <time>2018-02-21T08:37:59Z</time>
      </trkpt>
      <trkpt lat="44.22598" lon="4.95775">
        <ele>155</ele>
        <time>2018-02-21T08:38:02Z</time>
      </trkpt>
      <trkpt lat="44.22598" lon="4.95788">
        <ele>156</ele>
        <time>2018-02-21T08:38:04Z</time>
      </trkpt>
      <trkpt lat="44.22597" lon="4.95801">
        <ele>156</ele>
        <time>2018-02-21T08:38:06Z</time>
      </trkpt>
      <trkpt lat="44.22597" lon="4.95814">
        <ele>156</ele>
        <time>2018-02-21T08:38:08Z</time>
      </trkpt>
      <trkpt lat="44.22596" lon="4.95826">
        <ele>157</ele>
        <time>2018-02-21T08:38:10Z</time>
      </trkpt>
      <trkpt lat="44.22596" lon="4.95844">
        <ele>157</ele>
        <time>2018-02-21T08:38:13Z</time>
      </trkpt>
      <trkpt lat="44.22596" lon="4.95856">
        <ele>157</ele>
        <time>2018-02-21T08:38:15Z</time>
      </trkpt>
      <trkpt lat="44.22595" lon="4.95874">
        <ele>157</ele>
        <time>2018-02-21T08:38:18Z</time>
      </trkpt>
      <trkpt lat="44.22595" lon="4.95886">
        <ele>157</ele>
        <time>2018-02-21T08:38:20Z</time>
      </trkpt>
      <trkpt lat="44.22594" lon="4.95898">
        <ele>157</ele>
        <time>2018-02-21T08:38:22Z</time>
      </trkpt>
      <trkpt lat="44.22594" lon="4.95916">
        <ele>158</ele>
        <time>2018-02-21T08:38:25Z</time>
      </trkpt>
      <trkpt lat="44.22594" lon="4.95927">
        <ele>158</ele>
        <time>2018-02-21T08:38:27Z</time>
      </trkpt>
      <trkpt lat="44.22593" lon="4.95939">
        <ele>158</ele>
        <time>2018-02-21T08:38:29Z</time>
      </trkpt>
      <trkpt lat="44.22593" lon="4.95951">
        <ele>159</ele>
        <time>2018-02-21T08:38:31Z</time>
      </trkpt>
      <trkpt lat="44.22592" lon="4.95963">
        <ele>159</ele>
        <time>2018-02-21T08:38:33Z</time>
      </trkpt>
      <trkpt lat="44.22592" lon="4.95981">
        <ele>159</ele>
        <time>2018-02-21T08:38:36Z</time>
      </trkpt>
      <trkpt lat="44.22592" lon="4.95993">
        <ele>158</ele>
        <time>2018-02-21T08:38:38Z</time>
      </trkpt>
      <trkpt lat="44.22591" lon="4.96004">
        <ele>159</ele>
        <time>2018-02-21T08:38:40Z</time>
      </trkpt>
      <trkpt lat="44.22591" lon="4.96017">
        <ele>159</ele>
        <time>2018-02-21T08:38:42Z</time>
      </trkpt>
      <trkpt lat="44.2259" lon="4.9603">
        <ele>160</ele>
        <time>2018-02-21T08:38:44Z</time>
      </trkpt>
      <trkpt lat="44.22589" lon="4.96049">
        <ele>160</ele>
        <time>2018-02-21T08:38:47Z</time>
      </trkpt>
      <trkpt lat="44.22588" lon="4.96063">
        <ele>160</ele>
        <time>2018-02-21T08:38:49Z</time>
      </trkpt>
      <trkpt lat="44.22588" lon="4.96075">
        <ele>160</ele>
        <time>2018-02-21T08:38:51Z</time>
      </trkpt>
      <trkpt lat="44.22587" lon="4.96088">
        <ele>161</ele>
        <time>2018-02-21T08:38:53Z</time>
      </trkpt>
      <trkpt lat="44.22586" lon="4.96109">
        <ele>161</ele>
        <time>2018-02-21T08:38:56Z</time>
      </trkpt>
      <trkpt lat="44.22586" lon="4.96123">
        <ele>161</ele>
        <time>2018-02-21T08:38:58Z</time>
      </trkpt>
      <trkpt lat="44.22586" lon="4.96137">
        <ele>161</ele>
        <time>2018-02-21T08:39:00Z</time>
      </trkpt>
      <trkpt lat="44.22585" lon="4.96152">
        <ele>161</ele>
        <time>2018-02-21T08:39:02Z</time>
      </trkpt>
      <trkpt lat="44.22585" lon="4.96167">
        <ele>162</ele>
        <time>2018-02-21T08:39:04Z</time>
      </trkpt>
      <trkpt lat="44.22584" lon="4.96181">
        <ele>162</ele>
        <time>2018-02-21T08:39:06Z</time>
      </trkpt>
      <trkpt lat="44.22584" lon="4.96202">
        <ele>164</ele>
        <time>2018-02-21T08:39:09Z</time>
      </trkpt>
      <trkpt lat="44.22584" lon="4.96215">
        <ele>164</ele>
        <time>2018-02-21T08:39:11Z</time>
      </trkpt>
      <trkpt lat="44.22583" lon="4.96229">
        <ele>164</ele>
        <time>2018-02-21T08:39:13Z</time>
      </trkpt>
      <trkpt lat="44.22583" lon="4.96249">
        <ele>163</ele>
        <time>2018-02-21T08:39:16Z</time>
      </trkpt>
      <trkpt lat="44.22583" lon="4.96263">
        <ele>163</ele>
        <time>2018-02-21T08:39:18Z</time>
      </trkpt>
      <trkpt lat="44.22582" lon="4.96284">
        <ele>163</ele>
        <time>2018-02-21T08:39:21Z</time>
      </trkpt>
      <trkpt lat="44.2258" lon="4.96305">
        <ele>164</ele>
        <time>2018-02-21T08:39:24Z</time>
      </trkpt>
      <trkpt lat="44.22577" lon="4.96326">
        <ele>163</ele>
        <time>2018-02-21T08:39:27Z</time>
      </trkpt>
      <trkpt lat="44.22574" lon="4.96349">
        <ele>164</ele>
        <time>2018-02-21T08:39:30Z</time>
      </trkpt>
      <trkpt lat="44.2257" lon="4.96372">
        <ele>164</ele>
        <time>2018-02-21T08:39:33Z</time>
      </trkpt>
      <trkpt lat="44.22567" lon="4.96394">
        <ele>163</ele>
        <time>2018-02-21T08:39:36Z</time>
      </trkpt>
      <trkpt lat="44.22564" lon="4.96417">
        <ele>162</ele>
        <time>2018-02-21T08:39:39Z</time>
      </trkpt>
      <trkpt lat="44.22562" lon="4.96432">
        <ele>162</ele>
        <time>2018-02-21T08:39:41Z</time>
      </trkpt>
      <trkpt lat="44.22561" lon="4.96448">
        <ele>162</ele>
        <time>2018-02-21T08:39:43Z</time>
      </trkpt>
      <trkpt lat="44.22559" lon="4.96471">
        <ele>162</ele>
        <time>2018-02-21T08:39:46Z</time>
      </trkpt>
      <trkpt lat="44.22559" lon="4.96487">
        <ele>163</ele>
        <time>2018-02-21T08:39:48Z</time>
      </trkpt>
      <trkpt lat="44.22559" lon="4.9651">
        <ele>164</ele>
        <time>2018-02-21T08:39:51Z</time>
      </trkpt>
      <trkpt lat="44.22559" lon="4.96524">
        <ele>165</ele>
        <time>2018-02-21T08:39:53Z</time>
      </trkpt>
      <trkpt lat="44.22559" lon="4.96547">
        <ele>165</ele>
        <time>2018-02-21T08:39:56Z</time>
      </trkpt>
      <trkpt lat="44.22559" lon="4.96561">
        <ele>164</ele>
        <time>2018-02-21T08:39:58Z</time>
      </trkpt>
      <trkpt lat="44.22559" lon="4.96576">
        <ele>164</ele>
        <time>2018-02-21T08:40:00Z</time>
      </trkpt>
      <trkpt lat="44.22558" lon="4.96599">
        <ele>164</ele>
        <time>2018-02-21T08:40:03Z</time>
      </trkpt>
      <trkpt lat="44.22558" lon="4.96614">
        <ele>164</ele>
        <time>2018-02-21T08:40:05Z</time>
      </trkpt>
      <trkpt lat="44.22557" lon="4.96636">
        <ele>165</ele>
        <time>2018-02-21T08:40:08Z</time>
      </trkpt>
      <trkpt lat="44.22557" lon="4.96651">
        <ele>164</ele>
        <time>2018-02-21T08:40:10Z</time>
      </trkpt>
      <trkpt lat="44.22557" lon="4.96666">
        <ele>164</ele>
        <time>2018-02-21T08:40:12Z</time>
      </trkpt>
      <trkpt lat="44.22557" lon="4.96681">
        <ele>164</ele>
        <time>2018-02-21T08:40:14Z</time>
      </trkpt>
      <trkpt lat="44.22556" lon="4.96703">
        <ele>164</ele>
        <time>2018-02-21T08:40:17Z</time>
      </trkpt>
      <trkpt lat="44.22556" lon="4.96718">
        <ele>164</ele>
        <time>2018-02-21T08:40:19Z</time>
      </trkpt>
      <trkpt lat="44.22556" lon="4.96732">
        <ele>164</ele>
        <time>2018-02-21T08:40:21Z</time>
      </trkpt>
      <trkpt lat="44.22556" lon="4.96746">
        <ele>164</ele>
        <time>2018-02-21T08:40:23Z</time>
      </trkpt>
      <trkpt lat="44.22556" lon="4.96768">
        <ele>164</ele>
        <time>2018-02-21T08:40:26Z</time>
      </trkpt>
      <trkpt lat="44.22556" lon="4.96789">
        <ele>164</ele>
        <time>2018-02-21T08:40:29Z</time>
      </trkpt>
      <trkpt lat="44.22556" lon="4.96804">
        <ele>164</ele>
        <time>2018-02-21T08:40:31Z</time>
      </trkpt>
      <trkpt lat="44.22555" lon="4.96826">
        <ele>164</ele>
        <time>2018-02-21T08:40:34Z</time>
      </trkpt>
      <trkpt lat="44.22555" lon="4.9684">
        <ele>165</ele>
        <time>2018-02-21T08:40:36Z</time>
      </trkpt>
      <trkpt lat="44.22555" lon="4.96854">
        <ele>166</ele>
        <time>2018-02-21T08:40:38Z</time>
      </trkpt>
      <trkpt lat="44.22556" lon="4.96869">
        <ele>166</ele>
        <time>2018-02-21T08:40:40Z</time>
      </trkpt>
      <trkpt lat="44.22558" lon="4.9689">
        <ele>167</ele>
        <time>2018-02-21T08:40:43Z</time>
      </trkpt>
      <trkpt lat="44.22561" lon="4.9691">
        <ele>167</ele>
        <time>2018-02-21T08:40:46Z</time>
      </trkpt>
      <trkpt lat="44.22565" lon="4.96931">
        <ele>167</ele>
        <time>2018-02-21T08:40:49Z</time>
      </trkpt>
      <trkpt lat="44.2257" lon="4.96951">
        <ele>167</ele>
        <time>2018-02-21T08:40:52Z</time>
      </trkpt>
      <trkpt lat="44.22574" lon="4.9697">
        <ele>168</ele>
        <time>2018-02-21T08:40:55Z</time>
      </trkpt>
      <trkpt lat="44.22577" lon="4.96982">
        <ele>168</ele>
        <time>2018-02-21T08:40:57Z</time>
      </trkpt>
      <trkpt lat="44.22581" lon="4.97001">
        <ele>168</ele>
        <time>2018-02-21T08:41:00Z</time>
      </trkpt>
      <trkpt lat="44.22585" lon="4.97019">
        <ele>169</ele>
        <time>2018-02-21T08:41:03Z</time>
      </trkpt>
      <trkpt lat="44.22588" lon="4.97032">
        <ele>169</ele>
        <time>2018-02-21T08:41:05Z</time>
      </trkpt>
      <trkpt lat="44.22592" lon="4.9705">
        <ele>169</ele>
        <time>2018-02-21T08:41:08Z</time>
      </trkpt>
      <trkpt lat="44.22596" lon="4.97069">
        <ele>169</ele>
        <time>2018-02-21T08:41:11Z</time>
      </trkpt>
      <trkpt lat="44.22601" lon="4.97087">
        <ele>170</ele>
        <time>2018-02-21T08:41:14Z</time>
      </trkpt>
      <trkpt lat="44.22603" lon="4.97099">
        <ele>170</ele>
        <time>2018-02-21T08:41:16Z</time>
      </trkpt>
      <trkpt lat="44.22607" lon="4.97118">
        <ele>172</ele>
        <time>2018-02-21T08:41:19Z</time>
      </trkpt>
      <trkpt lat="44.22611" lon="4.97135">
        <ele>173</ele>
        <time>2018-02-21T08:41:22Z</time>
      </trkpt>
      <trkpt lat="44.22615" lon="4.97153">
        <ele>174</ele>
        <time>2018-02-21T08:41:25Z</time>
      </trkpt>
      <trkpt lat="44.22617" lon="4.97165">
        <ele>174</ele>
        <time>2018-02-21T08:41:27Z</time>
      </trkpt>
      <trkpt lat="44.22618" lon="4.97183">
        <ele>174</ele>
        <time>2018-02-21T08:41:30Z</time>
      </trkpt>
      <trkpt lat="44.22617" lon="4.97195">
        <ele>174</ele>
        <time>2018-02-21T08:41:32Z</time>
      </trkpt>
      <trkpt lat="44.22613" lon="4.97212">
        <ele>174</ele>
        <time>2018-02-21T08:41:35Z</time>
      </trkpt>
      <trkpt lat="44.22607" lon="4.97228">
        <ele>175</ele>
        <time>2018-02-21T08:41:38Z</time>
      </trkpt>
      <trkpt lat="44.22602" lon="4.97238">
        <ele>176</ele>
        <time>2018-02-21T08:41:40Z</time>
      </trkpt>
      <trkpt lat="44.22596" lon="4.97247">
        <ele>176</ele>
        <time>2018-02-21T08:41:42Z</time>
      </trkpt>
      <trkpt lat="44.22588" lon="4.97261">
        <ele>177</ele>
        <time>2018-02-21T08:41:45Z</time>
      </trkpt>
      <trkpt lat="44.22582" lon="4.97271">
        <ele>177</ele>
        <time>2018-02-21T08:41:47Z</time>
      </trkpt>
      <trkpt lat="44.22576" lon="4.9728">
        <ele>178</ele>
        <time>2018-02-21T08:41:49Z</time>
      </trkpt>
      <trkpt lat="44.22567" lon="4.97294">
        <ele>179</ele>
        <time>2018-02-21T08:41:52Z</time>
      </trkpt>
      <trkpt lat="44.22559" lon="4.97309">
        <ele>180</ele>
        <time>2018-02-21T08:41:55Z</time>
      </trkpt>
      <trkpt lat="44.22553" lon="4.97318">
        <ele>180</ele>
        <time>2018-02-21T08:41:57Z</time>
      </trkpt>
      <trkpt lat="44.22548" lon="4.97328">
        <ele>180</ele>
        <time>2018-02-21T08:41:59Z</time>
      </trkpt>
      <trkpt lat="44.22542" lon="4.97337">
        <ele>180</ele>
        <time>2018-02-21T08:42:01Z</time>
      </trkpt>
      <trkpt lat="44.22535" lon="4.97353">
        <ele>180</ele>
        <time>2018-02-21T08:42:04Z</time>
      </trkpt>
      <trkpt lat="44.22532" lon="4.97364">
        <ele>181</ele>
        <time>2018-02-21T08:42:06Z</time>
      </trkpt>
      <trkpt lat="44.22529" lon="4.97382">
        <ele>182</ele>
        <time>2018-02-21T08:42:09Z</time>
      </trkpt>
      <trkpt lat="44.22528" lon="4.97394">
        <ele>182</ele>
        <time>2018-02-21T08:42:11Z</time>
      </trkpt>
      <trkpt lat="44.22527" lon="4.97412">
        <ele>183</ele>
        <time>2018-02-21T08:42:14Z</time>
      </trkpt>
      <trkpt lat="44.22527" lon="4.97424">
        <ele>183</ele>
        <time>2018-02-21T08:42:16Z</time>
      </trkpt>
      <trkpt lat="44.22526" lon="4.97436">
        <ele>184</ele>
        <time>2018-02-21T08:42:18Z</time>
      </trkpt>
      <trkpt lat="44.22526" lon="4.97447">
        <ele>184</ele>
        <time>2018-02-21T08:42:20Z</time>
      </trkpt>
      <trkpt lat="44.22526" lon="4.97458">
        <ele>184</ele>
        <time>2018-02-21T08:42:22Z</time>
      </trkpt>
      <trkpt lat="44.22525" lon="4.97469">
        <ele>185</ele>
        <time>2018-02-21T08:42:24Z</time>
      </trkpt>
      <trkpt lat="44.22525" lon="4.97481">
        <ele>185</ele>
        <time>2018-02-21T08:42:26Z</time>
      </trkpt>
      <trkpt lat="44.22525" lon="4.97493">
        <ele>186</ele>
        <time>2018-02-21T08:42:28Z</time>
      </trkpt>
      <trkpt lat="44.22526" lon="4.97509">
        <ele>187</ele>
        <time>2018-02-21T08:42:31Z</time>
      </trkpt>
      <trkpt lat="44.22526" lon="4.9752">
        <ele>187</ele>
        <time>2018-02-21T08:42:33Z</time>
      </trkpt>
      <trkpt lat="44.22525" lon="4.97536">
        <ele>187</ele>
        <time>2018-02-21T08:42:36Z</time>
      </trkpt>
      <trkpt lat="44.22525" lon="4.97547">
        <ele>188</ele>
        <time>2018-02-21T08:42:38Z</time>
      </trkpt>
      <trkpt lat="44.22525" lon="4.97563">
        <ele>188</ele>
        <time>2018-02-21T08:42:41Z</time>
      </trkpt>
      <trkpt lat="44.22525" lon="4.97573">
        <ele>189</ele>
        <time>2018-02-21T08:42:43Z</time>
      </trkpt>
      <trkpt lat="44.22525" lon="4.97583">
        <ele>189</ele>
        <time>2018-02-21T08:42:45Z</time>
      </trkpt>
      <trkpt lat="44.22525" lon="4.97593">
        <ele>189</ele>
        <time>2018-02-21T08:42:47Z</time>
      </trkpt>
      <trkpt lat="44.22525" lon="4.97603">
        <ele>190</ele>
        <time>2018-02-21T08:42:49Z</time>
      </trkpt>
      <trkpt lat="44.22525" lon="4.97619">
        <ele>191</ele>
        <time>2018-02-21T08:42:52Z</time>
      </trkpt>
      <trkpt lat="44.22525" lon="4.97629">
        <ele>191</ele>
        <time>2018-02-21T08:42:54Z</time>
      </trkpt>
      <trkpt lat="44.22524" lon="4.97645">
        <ele>192</ele>
        <time>2018-02-21T08:42:57Z</time>
      </trkpt>
      <trkpt lat="44.22524" lon="4.97656">
        <ele>192</ele>
        <time>2018-02-21T08:42:59Z</time>
      </trkpt>
      <trkpt lat="44.22525" lon="4.97672">
        <ele>193</ele>
        <time>2018-02-21T08:43:02Z</time>
      </trkpt>
      <trkpt lat="44.22526" lon="4.97683">
        <ele>194</ele>
        <time>2018-02-21T08:43:04Z</time>
      </trkpt>
      <trkpt lat="44.22528" lon="4.97699">
        <ele>195</ele>
        <time>2018-02-21T08:43:07Z</time>
      </trkpt>
      <trkpt lat="44.22533" lon="4.97714">
        <ele>196</ele>
        <time>2018-02-21T08:43:10Z</time>
      </trkpt>
      <trkpt lat="44.22538" lon="4.97728">
        <ele>197</ele>
        <time>2018-02-21T08:43:13Z</time>
      </trkpt>
      <trkpt lat="44.22542" lon="4.97737">
        <ele>197</ele>
        <time>2018-02-21T08:43:15Z</time>
      </trkpt>
      <trkpt lat="44.22549" lon="4.97751">
        <ele>198</ele>
        <time>2018-02-21T08:43:18Z</time>
      </trkpt>
      <trkpt lat="44.22555" lon="4.97764">
        <ele>199</ele>
        <time>2018-02-21T08:43:21Z</time>
      </trkpt>
      <trkpt lat="44.22559" lon="4.97773">
        <ele>199</ele>
        <time>2018-02-21T08:43:23Z</time>
      </trkpt>
      <trkpt lat="44.22565" lon="4.97787">
        <ele>200</ele>
        <time>2018-02-21T08:43:26Z</time>
      </trkpt>
      <trkpt lat="44.22572" lon="4.978">
        <ele>201</ele>
        <time>2018-02-21T08:43:29Z</time>
      </trkpt>
      <trkpt lat="44.22576" lon="4.97809">
        <ele>201</ele>
        <time>2018-02-21T08:43:31Z</time>
      </trkpt>
      <trkpt lat="44.22582" lon="4.97821">
        <ele>202</ele>
        <time>2018-02-21T08:43:34Z</time>
      </trkpt>
      <trkpt lat="44.22588" lon="4.97834">
        <ele>202</ele>
        <time>2018-02-21T08:43:37Z</time>
      </trkpt>
      <trkpt lat="44.22592" lon="4.97842">
        <ele>202</ele>
        <time>2018-02-21T08:43:39Z</time>
      </trkpt>
      <trkpt lat="44.22598" lon="4.97856">
        <ele>202</ele>
        <time>2018-02-21T08:43:42Z</time>
      </trkpt>
      <trkpt lat="44.22604" lon="4.97869">
        <ele>202</ele>
        <time>2018-02-21T08:43:45Z</time>
      </trkpt>
      <trkpt lat="44.22611" lon="4.97882">
        <ele>202</ele>
        <time>2018-02-21T08:43:48Z</time>
      </trkpt>
      <trkpt lat="44.22618" lon="4.97895">
        <ele>204</ele>
        <time>2018-02-21T08:43:51Z</time>
      </trkpt>
      <trkpt lat="44.22626" lon="4.97907">
        <ele>205</ele>
        <time>2018-02-21T08:43:54Z</time>
      </trkpt>
      <trkpt lat="44.22634" lon="4.97919">
        <ele>206</ele>
        <time>2018-02-21T08:43:57Z</time>
      </trkpt>
      <trkpt lat="44.22643" lon="4.97929">
        <ele>207</ele>
        <time>2018-02-21T08:44:00Z</time>
      </trkpt>
      <trkpt lat="44.22648" lon="4.97937">
        <ele>207</ele>
        <time>2018-02-21T08:44:02Z</time>
      </trkpt>
      <trkpt lat="44.22654" lon="4.97945">
        <ele>208</ele>
        <time>2018-02-21T08:44:04Z</time>
      </trkpt>
      <trkpt lat="44.22659" lon="4.97952">
        <ele>208</ele>
        <time>2018-02-21T08:44:06Z</time>
      </trkpt>
      <trkpt lat="44.22667" lon="4.97962">
        <ele>210</ele>
        <time>2018-02-21T08:44:09Z</time>
      </trkpt>
      <trkpt lat="44.22673" lon="4.97969">
        <ele>210</ele>
        <time>2018-02-21T08:44:11Z</time>
      </trkpt>
      <trkpt lat="44.22678" lon="4.97977">
        <ele>211</ele>
        <time>2018-02-21T08:44:13Z</time>
      </trkpt>
      <trkpt lat="44.22684" lon="4.97984">
        <ele>211</ele>
        <time>2018-02-21T08:44:15Z</time>
      </trkpt>
      <trkpt lat="44.2269" lon="4.97991">
        <ele>211</ele>
        <time>2018-02-21T08:44:17Z</time>
      </trkpt>
      <trkpt lat="44.22698" lon="4.98001">
        <ele>211</ele>
        <time>2018-02-21T08:44:20Z</time>
      </trkpt>
      <trkpt lat="44.22704" lon="4.98008">
        <ele>213</ele>
        <time>2018-02-21T08:44:22Z</time>
      </trkpt>
      <trkpt lat="44.22712" lon="4.98019">
        <ele>213</ele>
        <time>2018-02-21T08:44:25Z</time>
      </trkpt>
      <trkpt lat="44.22718" lon="4.98026">
        <ele>214</ele>
        <time>2018-02-21T08:44:27Z</time>
      </trkpt>
      <trkpt lat="44.22724" lon="4.98033">
        <ele>214</ele>
        <time>2018-02-21T08:44:29Z</time>
      </trkpt>
      <trkpt lat="44.22733" lon="4.98043">
        <ele>214</ele>
        <time>2018-02-21T08:44:32Z</time>
      </trkpt>
      <trkpt lat="44.22739" lon="4.98049">
        <ele>215</ele>
        <time>2018-02-21T08:44:34Z</time>
      </trkpt>
      <trkpt lat="44.22745" lon="4.98055">
        <ele>215</ele>
        <time>2018-02-21T08:44:36Z</time>
      </trkpt>
      <trkpt lat="44.22753" lon="4.98063">
        <ele>215</ele>
        <time>2018-02-21T08:44:39Z</time>
      </trkpt>
      <trkpt lat="44.22758" lon="4.98069">
        <ele>215</ele>
        <time>2018-02-21T08:44:41Z</time>
      </trkpt>
      <trkpt lat="44.22766" lon="4.98076">
        <ele>215</ele>
        <time>2018-02-21T08:44:44Z</time>
      </trkpt>
      <trkpt lat="44.22771" lon="4.98081">
        <ele>215</ele>
        <time>2018-02-21T08:44:46Z</time>
      </trkpt>
      <trkpt lat="44.22779" lon="4.98089">
        <ele>216</ele>
        <time>2018-02-21T08:44:49Z</time>
      </trkpt>
      <trkpt lat="44.22784" lon="4.98095">
        <ele>217</ele>
        <time>2018-02-21T08:44:51Z</time>
      </trkpt>
      <trkpt lat="44.22792" lon="4.98102">
        <ele>217</ele>
        <time>2018-02-21T08:44:54Z</time>
      </trkpt>
      <trkpt lat="44.22797" lon="4.98107">
        <ele>218</ele>
        <time>2018-02-21T08:44:56Z</time>
      </trkpt>
      <trkpt lat="44.22805" lon="4.98115">
        <ele>218</ele>
        <time>2018-02-21T08:44:59Z</time>
      </trkpt>
      <trkpt lat="44.2281" lon="4.9812">
        <ele>219</ele>
        <time>2018-02-21T08:45:01Z</time>
      </trkpt>
      <trkpt lat="44.22815" lon="4.98125">
        <ele>220</ele>
        <time>2018-02-21T08:45:03Z</time>
      </trkpt>
      <trkpt lat="44.22821" lon="4.98131">
        <ele>220</ele>
        <time>2018-02-21T08:45:06Z</time>
      </trkpt>
      <trkpt lat="44.22825" lon="4.98135">
        <ele>220</ele>
        <time>2018-02-21T08:45:08Z</time>
      </trkpt>
      <trkpt lat="44.22829" lon="4.98139">
        <ele>220</ele>
        <time>2018-02-21T08:45:10Z</time>
      </trkpt>
      <trkpt lat="44.22836" lon="4.98145">
        <ele>221</ele>
        <time>2018-02-21T08:45:13Z</time>
      </trkpt>
      <trkpt lat="44.22839" lon="4.9815">
        <ele>221</ele>
        <time>2018-02-21T08:45:15Z</time>
      </trkpt>
      <trkpt lat="44.22844" lon="4.98154">
        <ele>222</ele>
        <time>2018-02-21T08:45:17Z</time>
      </trkpt>
      <trkpt lat="44.2285" lon="4.98161">
        <ele>222</ele>
        <time>2018-02-21T08:45:20Z</time>
      </trkpt>
      <trkpt lat="44.22855" lon="4.98166">
        <ele>223</ele>
        <time>2018-02-21T08:45:22Z</time>
      </trkpt>
      <trkpt lat="44.2286" lon="4.98171">
        <ele>223</ele>
        <time>2018-02-21T08:45:24Z</time>
      </trkpt>
      <trkpt lat="44.22864" lon="4.98176">
        <ele>223</ele>
        <time>2018-02-21T08:45:26Z</time>
      </trkpt>
      <trkpt lat="44.22871" lon="4.98182">
        <ele>223</ele>
        <time>2018-02-21T08:45:29Z</time>
      </trkpt>
      <trkpt lat="44.22875" lon="4.98186">
        <ele>223</ele>
        <time>2018-02-21T08:45:31Z</time>
      </trkpt>
      <trkpt lat="44.22879" lon="4.9819">
        <ele>222</ele>
        <time>2018-02-21T08:45:33Z</time>
      </trkpt>
      <trkpt lat="44.22882" lon="4.98195">
        <ele>222</ele>
        <time>2018-02-21T08:45:35Z</time>
      </trkpt>
      <trkpt lat="44.22886" lon="4.98202">
        <ele>222</ele>
        <time>2018-02-21T08:45:38Z</time>
      </trkpt>
      <trkpt lat="44.2289" lon="4.98208">
        <ele>221</ele>
        <time>2018-02-21T08:45:41Z</time>
      </trkpt>
      <trkpt lat="44.22894" lon="4.98209">
        <ele>221</ele>
        <time>2018-02-21T08:45:43Z</time>
      </trkpt>
      <trkpt lat="44.22898" lon="4.98207">
        <ele>220</ele>
        <time>2018-02-21T08:45:46Z</time>
      </trkpt>
      <trkpt lat="44.22898" lon="4.98204">
        <ele>220</ele>
        <time>2018-02-21T08:45:48Z</time>
      </trkpt>
      <trkpt lat="44.22897" lon="4.98201">
        <ele>220</ele>
        <time>2018-02-21T08:45:50Z</time>
      </trkpt>
      <trkpt lat="44.22898" lon="4.98196">
        <ele>219</ele>
        <time>2018-02-21T08:45:53Z</time>
      </trkpt>
      <trkpt lat="44.22897" lon="4.98191">
        <ele>220</ele>
        <time>2018-02-21T08:45:56Z</time>
      </trkpt>
      <trkpt lat="44.22895" lon="4.98189">
        <ele>220</ele>
        <time>2018-02-21T08:45:58Z</time>
      </trkpt>
      <trkpt lat="44.22892" lon="4.98188">
        <ele>220</ele>
        <time>2018-02-21T08:46:00Z</time>
      </trkpt>
      <trkpt lat="44.22887" lon="4.98193">
        <ele>220</ele>
        <time>2018-02-21T08:46:03Z</time>
      </trkpt>
      <trkpt lat="44.22888" lon="4.982">
        <ele>221</ele>
        <time>2018-02-21T08:46:05Z</time>
      </trkpt>
      <trkpt lat="44.22894" lon="4.98207">
        <ele>221</ele>
        <time>2018-02-21T08:46:08Z</time>
      </trkpt>
      <trkpt lat="44.22897" lon="4.98209">
        <ele>220</ele>
        <time>2018-02-21T08:46:10Z</time>
      </trkpt>
      <trkpt lat="44.22902" lon="4.98212">
        <ele>221</ele>
        <time>2018-02-21T08:46:13Z</time>
      </trkpt>
      <trkpt lat="44.22905" lon="4.98215">
        <ele>221</ele>
        <time>2018-02-21T08:46:15Z</time>
      </trkpt>
      <trkpt lat="44.22907" lon="4.98219">
        <ele>221</ele>
        <time>2018-02-21T08:46:18Z</time>
      </trkpt>
      <trkpt lat="44.2291" lon="4.98224">
        <ele>221</ele>
        <time>2018-02-21T08:46:21Z</time>
      </trkpt>
      <trkpt lat="44.22912" lon="4.98226">
        <ele>221</ele>
        <time>2018-02-21T08:46:23Z</time>
      </trkpt>
      <trkpt lat="44.22915" lon="4.98229">
        <ele>221</ele>
        <time>2018-02-21T08:46:25Z</time>
      </trkpt>
      <trkpt lat="44.22916" lon="4.98232">
        <ele>222</ele>
        <time>2018-02-21T08:46:27Z</time>
      </trkpt>
      <trkpt lat="44.22919" lon="4.98237">
        <ele>222</ele>
        <time>2018-02-21T08:46:30Z</time>
      </trkpt>
      <trkpt lat="44.22921" lon="4.98241">
        <ele>222</ele>
        <time>2018-02-21T08:46:32Z</time>
      </trkpt>
      <trkpt lat="44.22923" lon="4.98245">
        <ele>221</ele>
        <time>2018-02-21T08:46:34Z</time>
      </trkpt>
      <trkpt lat="44.22925" lon="4.98252">
        <ele>221</ele>
        <time>2018-02-21T08:46:37Z</time>
      </trkpt>
      <trkpt lat="44.22928" lon="4.98258">
        <ele>221</ele>
        <time>2018-02-21T08:46:40Z</time>
      </trkpt>
      <trkpt lat="44.2293" lon="4.98263">
        <ele>221</ele>
        <time>2018-02-21T08:46:42Z</time>
      </trkpt>
      <trkpt lat="44.22931" lon="4.98267">
        <ele>221</ele>
        <time>2018-02-21T08:46:44Z</time>
      </trkpt>
      <trkpt lat="44.22933" lon="4.98272">
        <ele>221</ele>
        <time>2018-02-21T08:46:46Z</time>
      </trkpt>
      <trkpt lat="44.22935" lon="4.98279">
        <ele>221</ele>
        <time>2018-02-21T08:46:49Z</time>
      </trkpt>
      <trkpt lat="44.22937" lon="4.98284">
        <ele>221</ele>
        <time>2018-02-21T08:46:51Z</time>
      </trkpt>
      <trkpt lat="44.22937" lon="4.98289">
        <ele>222</ele>
        <time>2018-02-21T08:46:53Z</time>
      </trkpt>
      <trkpt lat="44.22939" lon="4.98295">
        <ele>222</ele>
        <time>2018-02-21T08:46:55Z</time>
      </trkpt>
      <trkpt lat="44.22942" lon="4.98303">
        <ele>222</ele>
        <time>2018-02-21T08:46:58Z</time>
      </trkpt>
      <trkpt lat="44.22945" lon="4.98309">
        <ele>222</ele>
        <time>2018-02-21T08:47:01Z</time>
      </trkpt>
      <trkpt lat="44.22947" lon="4.98314">
        <ele>222</ele>
        <time>2018-02-21T08:47:03Z</time>
      </trkpt>
      <trkpt lat="44.22949" lon="4.9832">
        <ele>222</ele>
        <time>2018-02-21T08:47:05Z</time>
      </trkpt>
      <trkpt lat="44.22951" lon="4.98326">
        <ele>222</ele>
        <time>2018-02-21T08:47:07Z</time>
      </trkpt>
      <trkpt lat="44.22955" lon="4.98335">
        <ele>223</ele>
        <time>2018-02-21T08:47:10Z</time>
      </trkpt>
      <trkpt lat="44.22956" lon="4.98342">
        <ele>223</ele>
        <time>2018-02-21T08:47:12Z</time>
      </trkpt>
      <trkpt lat="44.22958" lon="4.98349">
        <ele>223</ele>
        <time>2018-02-21T08:47:14Z</time>
      </trkpt>
      <trkpt lat="44.22961" lon="4.98356">
        <ele>223</ele>
        <time>2018-02-21T08:47:16Z</time>
      </trkpt>
      <trkpt lat="44.22964" lon="4.98366">
        <ele>223</ele>
        <time>2018-02-21T08:47:19Z</time>
      </trkpt>
      <trkpt lat="44.22966" lon="4.98373">
        <ele>223</ele>
        <time>2018-02-21T08:47:21Z</time>
      </trkpt>
      <trkpt lat="44.22969" lon="4.98383">
        <ele>223</ele>
        <time>2018-02-21T08:47:24Z</time>
      </trkpt>
      <trkpt lat="44.22972" lon="4.98389">
        <ele>223</ele>
        <time>2018-02-21T08:47:26Z</time>
      </trkpt>
      <trkpt lat="44.22975" lon="4.984">
        <ele>223</ele>
        <time>2018-02-21T08:47:29Z</time>
      </trkpt>
      <trkpt lat="44.22978" lon="4.98411">
        <ele>223</ele>
        <time>2018-02-21T08:47:32Z</time>
      </trkpt>
      <trkpt lat="44.2298" lon="4.98419">
        <ele>222</ele>
        <time>2018-02-21T08:47:34Z</time>
      </trkpt>
      <trkpt lat="44.22982" lon="4.98431">
        <ele>222</ele>
        <time>2018-02-21T08:47:37Z</time>
      </trkpt>
      <trkpt lat="44.22985" lon="4.98442">
        <ele>223</ele>
        <time>2018-02-21T08:47:40Z</time>
      </trkpt>
      <trkpt lat="44.22987" lon="4.98454">
        <ele>223</ele>
        <time>2018-02-21T08:47:43Z</time>
      </trkpt>
      <trkpt lat="44.22989" lon="4.98467">
        <ele>223</ele>
        <time>2018-02-21T08:47:46Z</time>
      </trkpt>
      <trkpt lat="44.22991" lon="4.98475">
        <ele>223</ele>
        <time>2018-02-21T08:47:48Z</time>
      </trkpt>
      <trkpt lat="44.22993" lon="4.98489">
        <ele>223</ele>
        <time>2018-02-21T08:47:51Z</time>
      </trkpt>
      <trkpt lat="44.22996" lon="4.985">
        <ele>223</ele>
        <time>2018-02-21T08:47:54Z</time>
      </trkpt>
      <trkpt lat="44.22997" lon="4.98514">
        <ele>223</ele>
        <time>2018-02-21T08:47:57Z</time>
      </trkpt>
      <trkpt lat="44.22998" lon="4.98528">
        <ele>223</ele>
        <time>2018-02-21T08:48:00Z</time>
      </trkpt>
      <trkpt lat="44.23" lon="4.98545">
        <ele>224</ele>
        <time>2018-02-21T08:48:03Z</time>
      </trkpt>
      <trkpt lat="44.23" lon="4.98563">
        <ele>223</ele>
        <time>2018-02-21T08:48:06Z</time>
      </trkpt>
      <trkpt lat="44.22997" lon="4.98576">
        <ele>223</ele>
        <time>2018-02-21T08:48:08Z</time>
      </trkpt>
      <trkpt lat="44.22992" lon="4.98588">
        <ele>222</ele>
        <time>2018-02-21T08:48:10Z</time>
      </trkpt>
      <trkpt lat="44.22983" lon="4.98597">
        <ele>222</ele>
        <time>2018-02-21T08:48:12Z</time>
      </trkpt>
      <trkpt lat="44.22965" lon="4.98602">
        <ele>222</ele>
        <time>2018-02-21T08:48:15Z</time>
      </trkpt>
      <trkpt lat="44.2295" lon="4.98602">
        <ele>221</ele>
        <time>2018-02-21T08:48:17Z</time>
      </trkpt>
      <trkpt lat="44.22928" lon="4.98602">
        <ele>221</ele>
        <time>2018-02-21T08:48:20Z</time>
      </trkpt>
      <trkpt lat="44.22911" lon="4.986">
        <ele>221</ele>
        <time>2018-02-21T08:48:22Z</time>
      </trkpt>
      <trkpt lat="44.22885" lon="4.98601">
        <ele>220</ele>
        <time>2018-02-21T08:48:25Z</time>
      </trkpt>
      <trkpt lat="44.22867" lon="4.98606">
        <ele>219</ele>
        <time>2018-02-21T08:48:27Z</time>
      </trkpt>
      <trkpt lat="44.2284" lon="4.98619">
        <ele>218</ele>
        <time>2018-02-21T08:48:30Z</time>
      </trkpt>
      <trkpt lat="44.22824" lon="4.98627">
        <ele>217</ele>
        <time>2018-02-21T08:48:32Z</time>
      </trkpt>
      <trkpt lat="44.22798" lon="4.98641">
        <ele>216</ele>
        <time>2018-02-21T08:48:35Z</time>
      </trkpt>
      <trkpt lat="44.2277" lon="4.98654">
        <ele>215</ele>
        <time>2018-02-21T08:48:38Z</time>
      </trkpt>
      <trkpt lat="44.22751" lon="4.98664">
        <ele>214</ele>
        <time>2018-02-21T08:48:40Z</time>
      </trkpt>
      <trkpt lat="44.22721" lon="4.98679">
        <ele>213</ele>
        <time>2018-02-21T08:48:43Z</time>
      </trkpt>
      <trkpt lat="44.22702" lon="4.98689">
        <ele>212</ele>
        <time>2018-02-21T08:48:45Z</time>
      </trkpt>
      <trkpt lat="44.22683" lon="4.98699">
        <ele>210</ele>
        <time>2018-02-21T08:48:47Z</time>
      </trkpt>
      <trkpt lat="44.22664" lon="4.98708">
        <ele>209</ele>
        <time>2018-02-21T08:48:49Z</time>
      </trkpt>
      <trkpt lat="44.22645" lon="4.98719">
        <ele>207</ele>
        <time>2018-02-21T08:48:51Z</time>
      </trkpt>
      <trkpt lat="44.22615" lon="4.98737">
        <ele>206</ele>
        <time>2018-02-21T08:48:54Z</time>
      </trkpt>
      <trkpt lat="44.22597" lon="4.98752">
        <ele>205</ele>
        <time>2018-02-21T08:48:56Z</time>
      </trkpt>
      <trkpt lat="44.22579" lon="4.9877">
        <ele>204</ele>
        <time>2018-02-21T08:48:58Z</time>
      </trkpt>
      <trkpt lat="44.22556" lon="4.98799">
        <ele>201</ele>
        <time>2018-02-21T08:49:01Z</time>
      </trkpt>
      <trkpt lat="44.22542" lon="4.98818">
        <ele>199</ele>
        <time>2018-02-21T08:49:03Z</time>
      </trkpt>
      <trkpt lat="44.22531" lon="4.98838">
        <ele>198</ele>
        <time>2018-02-21T08:49:05Z</time>
      </trkpt>
      <trkpt lat="44.22518" lon="4.9886">
        <ele>196</ele>
        <time>2018-02-21T08:49:08Z</time>
      </trkpt>
      <trkpt lat="44.22508" lon="4.98871">
        <ele>195</ele>
        <time>2018-02-21T08:49:10Z</time>
      </trkpt>
      <trkpt lat="44.22495" lon="4.98878">
        <ele>194</ele>
        <time>2018-02-21T08:49:12Z</time>
      </trkpt>
      <trkpt lat="44.22477" lon="4.98884">
        <ele>193</ele>
        <time>2018-02-21T08:49:15Z</time>
      </trkpt>
      <trkpt lat="44.2247" lon="4.98897">
        <ele>193</ele>
        <time>2018-02-21T08:49:17Z</time>
      </trkpt>
      <trkpt lat="44.22472" lon="4.9891">
        <ele>193</ele>
        <time>2018-02-21T08:49:19Z</time>
      </trkpt>
      <trkpt lat="44.22478" lon="4.9892">
        <ele>194</ele>
        <time>2018-02-21T08:49:21Z</time>
      </trkpt>
      <trkpt lat="44.22492" lon="4.98928">
        <ele>194</ele>
        <time>2018-02-21T08:49:24Z</time>
      </trkpt>
      <trkpt lat="44.22502" lon="4.98935">
        <ele>195</ele>
        <time>2018-02-21T08:49:26Z</time>
      </trkpt>
      <trkpt lat="44.22512" lon="4.98945">
        <ele>196</ele>
        <time>2018-02-21T08:49:28Z</time>
      </trkpt>
      <trkpt lat="44.22525" lon="4.98963">
        <ele>196</ele>
        <time>2018-02-21T08:49:31Z</time>
      </trkpt>
      <trkpt lat="44.22537" lon="4.98981">
        <ele>198</ele>
        <time>2018-02-21T08:49:34Z</time>
      </trkpt>
      <trkpt lat="44.22545" lon="4.98991">
        <ele>197</ele>
        <time>2018-02-21T08:49:36Z</time>
      </trkpt>
      <trkpt lat="44.22553" lon="4.99001">
        <ele>198</ele>
        <time>2018-02-21T08:49:38Z</time>
      </trkpt>
      <trkpt lat="44.2256" lon="4.99009">
        <ele>197</ele>
        <time>2018-02-21T08:49:40Z</time>
      </trkpt>
      <trkpt lat="44.22568" lon="4.99016">
        <ele>195</ele>
        <time>2018-02-21T08:49:42Z</time>
      </trkpt>
      <trkpt lat="44.2258" lon="4.99028">
        <ele>193</ele>
        <time>2018-02-21T08:49:45Z</time>
      </trkpt>
      <trkpt lat="44.22588" lon="4.99036">
        <ele>193</ele>
        <time>2018-02-21T08:49:47Z</time>
      </trkpt>
      <trkpt lat="44.22601" lon="4.99049">
        <ele>192</ele>
        <time>2018-02-21T08:49:50Z</time>
      </trkpt>
      <trkpt lat="44.22613" lon="4.99064">
        <ele>190</ele>
        <time>2018-02-21T08:49:53Z</time>
      </trkpt>
      <trkpt lat="44.22624" lon="4.99081">
        <ele>188</ele>
        <time>2018-02-21T08:49:56Z</time>
      </trkpt>
      <trkpt lat="44.22634" lon="4.991">
        <ele>188</ele>
        <time>2018-02-21T08:49:59Z</time>
      </trkpt>
      <trkpt lat="44.22641" lon="4.99113">
        <ele>188</ele>
        <time>2018-02-21T08:50:01Z</time>
      </trkpt>
      <trkpt lat="44.22651" lon="4.99133">
        <ele>188</ele>
        <time>2018-02-21T08:50:04Z</time>
      </trkpt>
      <trkpt lat="44.22658" lon="4.99147">
        <ele>187</ele>
        <time>2018-02-21T08:50:06Z</time>
      </trkpt>
      <trkpt lat="44.22669" lon="4.99167">
        <ele>185</ele>
        <time>2018-02-21T08:50:09Z</time>
      </trkpt>
      <trkpt lat="44.22676" lon="4.99182">
        <ele>184</ele>
        <time>2018-02-21T08:50:11Z</time>
      </trkpt>
      <trkpt lat="44.22687" lon="4.99204">
        <ele>183</ele>
        <time>2018-02-21T08:50:14Z</time>
      </trkpt>
      <trkpt lat="44.22695" lon="4.9922">
        <ele>183</ele>
        <time>2018-02-21T08:50:16Z</time>
      </trkpt>
      <trkpt lat="44.22703" lon="4.99235">
        <ele>183</ele>
        <time>2018-02-21T08:50:18Z</time>
      </trkpt>
      <trkpt lat="44.2271" lon="4.9925">
        <ele>184</ele>
        <time>2018-02-21T08:50:20Z</time>
      </trkpt>
      <trkpt lat="44.22718" lon="4.99265">
        <ele>185</ele>
        <time>2018-02-21T08:50:22Z</time>
      </trkpt>
      <trkpt lat="44.22728" lon="4.99288">
        <ele>184</ele>
        <time>2018-02-21T08:50:25Z</time>
      </trkpt>
      <trkpt lat="44.22736" lon="4.99304">
        <ele>182</ele>
        <time>2018-02-21T08:50:27Z</time>
      </trkpt>
      <trkpt lat="44.22749" lon="4.9933">
        <ele>179</ele>
        <time>2018-02-21T08:50:30Z</time>
      </trkpt>
      <trkpt lat="44.22757" lon="4.99348">
        <ele>178</ele>
        <time>2018-02-21T08:50:32Z</time>
      </trkpt>
      <trkpt lat="44.22771" lon="4.99376">
        <ele>178</ele>
        <time>2018-02-21T08:50:35Z</time>
      </trkpt>
      <trkpt lat="44.22785" lon="4.99404">
        <ele>179</ele>
        <time>2018-02-21T08:50:38Z</time>
      </trkpt>
      <trkpt lat="44.22795" lon="4.99421">
        <ele>179</ele>
        <time>2018-02-21T08:50:40Z</time>
      </trkpt>
      <trkpt lat="44.22815" lon="4.99436">
        <ele>178</ele>
        <time>2018-02-21T08:50:43Z</time>
      </trkpt>
      <trkpt lat="44.2283" lon="4.99438">
        <ele>178</ele>
        <time>2018-02-21T08:50:45Z</time>
      </trkpt>
      <trkpt lat="44.22853" lon="4.99437">
        <ele>179</ele>
        <time>2018-02-21T08:50:48Z</time>
      </trkpt>
      <trkpt lat="44.22874" lon="4.99435">
        <ele>179</ele>
        <time>2018-02-21T08:50:51Z</time>
      </trkpt>
      <trkpt lat="44.22888" lon="4.99435">
        <ele>179</ele>
        <time>2018-02-21T08:50:53Z</time>
      </trkpt>
      <trkpt lat="44.22908" lon="4.99442">
        <ele>177</ele>
        <time>2018-02-21T08:50:56Z</time>
      </trkpt>
      <trkpt lat="44.22918" lon="4.99454">
        <ele>175</ele>
        <time>2018-02-21T08:50:58Z</time>
      </trkpt>
      <trkpt lat="44.22928" lon="4.99477">
        <ele>173</ele>
        <time>2018-02-21T08:51:01Z</time>
      </trkpt>
      <trkpt lat="44.22932" lon="4.99502">
        <ele>171</ele>
        <time>2018-02-21T08:51:04Z</time>
      </trkpt>
      <trkpt lat="44.22928" lon="4.99518">
        <ele>170</ele>
        <time>2018-02-21T08:51:06Z</time>
      </trkpt>
      <trkpt lat="44.22915" lon="4.99535">
        <ele>168</ele>
        <time>2018-02-21T08:51:09Z</time>
      </trkpt>
      <trkpt lat="44.22905" lon="4.99544">
        <ele>168</ele>
        <time>2018-02-21T08:51:11Z</time>
      </trkpt>
      <trkpt lat="44.22889" lon="4.99559">
        <ele>168</ele>
        <time>2018-02-21T08:51:14Z</time>
      </trkpt>
      <trkpt lat="44.22879" lon="4.99569">
        <ele>168</ele>
        <time>2018-02-21T08:51:16Z</time>
      </trkpt>
      <trkpt lat="44.22867" lon="4.99579">
        <ele>168</ele>
        <time>2018-02-21T08:51:18Z</time>
      </trkpt>
      <trkpt lat="44.22851" lon="4.99594">
        <ele>167</ele>
        <time>2018-02-21T08:51:21Z</time>
      </trkpt>
      <trkpt lat="44.22841" lon="4.99606">
        <ele>167</ele>
        <time>2018-02-21T08:51:23Z</time>
      </trkpt>
      <trkpt lat="44.22831" lon="4.99618">
        <ele>167</ele>
        <time>2018-02-21T08:51:25Z</time>
      </trkpt>
      <trkpt lat="44.22824" lon="4.99632">
        <ele>167</ele>
        <time>2018-02-21T08:51:27Z</time>
      </trkpt>
      <trkpt lat="44.22816" lon="4.99657">
        <ele>166</ele>
        <time>2018-02-21T08:51:30Z</time>
      </trkpt>
      <trkpt lat="44.22814" lon="4.99685">
        <ele>166</ele>
        <time>2018-02-21T08:51:33Z</time>
      </trkpt>
      <trkpt lat="44.22816" lon="4.99703">
        <ele>167</ele>
        <time>2018-02-21T08:51:35Z</time>
      </trkpt>
      <trkpt lat="44.2282" lon="4.99719">
        <ele>167</ele>
        <time>2018-02-21T08:51:37Z</time>
      </trkpt>
      <trkpt lat="44.22826" lon="4.99736">
        <ele>167</ele>
        <time>2018-02-21T08:51:39Z</time>
      </trkpt>
      <trkpt lat="44.22836" lon="4.99759">
        <ele>168</ele>
        <time>2018-02-21T08:51:42Z</time>
      </trkpt>
      <trkpt lat="44.22844" lon="4.99774">
        <ele>169</ele>
        <time>2018-02-21T08:51:44Z</time>
      </trkpt>
      <trkpt lat="44.22852" lon="4.99788">
        <ele>169</ele>
        <time>2018-02-21T08:51:46Z</time>
      </trkpt>
      <trkpt lat="44.22863" lon="4.99808">
        <ele>169</ele>
        <time>2018-02-21T08:51:49Z</time>
      </trkpt>
      <trkpt lat="44.22872" lon="4.99821">
        <ele>170</ele>
        <time>2018-02-21T08:51:51Z</time>
      </trkpt>
      <trkpt lat="44.22885" lon="4.99839">
        <ele>170</ele>
        <time>2018-02-21T08:51:54Z</time>
      </trkpt>
      <trkpt lat="44.229" lon="4.99855">
        <ele>170</ele>
        <time>2018-02-21T08:51:57Z</time>
      </trkpt>
      <trkpt lat="44.2291" lon="4.99864">
        <ele>169</ele>
        <time>2018-02-21T08:51:59Z</time>
      </trkpt>
      <trkpt lat="44.2292" lon="4.99872">
        <ele>169</ele>
        <time>2018-02-21T08:52:01Z</time>
      </trkpt>
      <trkpt lat="44.22937" lon="4.9988">
        <ele>168</ele>
        <time>2018-02-21T08:52:04Z</time>
      </trkpt>
      <trkpt lat="44.22954" lon="4.99884">
        <ele>168</ele>
        <time>2018-02-21T08:52:07Z</time>
      </trkpt>
      <trkpt lat="44.22972" lon="4.99885">
        <ele>168</ele>
        <time>2018-02-21T08:52:10Z</time>
      </trkpt>
      <trkpt lat="44.22989" lon="4.99889">
        <ele>168</ele>
        <time>2018-02-21T08:52:13Z</time>
      </trkpt>
      <trkpt lat="44.23006" lon="4.99898">
        <ele>170</ele>
        <time>2018-02-21T08:52:16Z</time>
      </trkpt>
      <trkpt lat="44.23022" lon="4.99911">
        <ele>169</ele>
        <time>2018-02-21T08:52:19Z</time>
      </trkpt>
      <trkpt lat="44.23037" lon="4.99925">
        <ele>170</ele>
        <time>2018-02-21T08:52:22Z</time>
      </trkpt>
      <trkpt lat="44.23047" lon="4.99932">
        <ele>170</ele>
        <time>2018-02-21T08:52:24Z</time>
      </trkpt>
      <trkpt lat="44.23063" lon="4.99938">
        <ele>171</ele>
        <time>2018-02-21T08:52:27Z</time>
      </trkpt>
      <trkpt lat="44.2308" lon="4.99941">
        <ele>171</ele>
        <time>2018-02-21T08:52:30Z</time>
      </trkpt>
      <trkpt lat="44.23096" lon="4.99942">
        <ele>171</ele>
        <time>2018-02-21T08:52:33Z</time>
      </trkpt>
      <trkpt lat="44.23112" lon="4.99942">
        <ele>170</ele>
        <time>2018-02-21T08:52:36Z</time>
      </trkpt>
      <trkpt lat="44.23128" lon="4.99941">
        <ele>170</ele>
        <time>2018-02-21T08:52:39Z</time>
      </trkpt>
      <trkpt lat="44.23139" lon="4.9994">
        <ele>170</ele>
        <time>2018-02-21T08:52:41Z</time>
      </trkpt>
      <trkpt lat="44.2315" lon="4.9994">
        <ele>170</ele>
        <time>2018-02-21T08:52:43Z</time>
      </trkpt>
      <trkpt lat="44.23166" lon="4.99937">
        <ele>170</ele>
        <time>2018-02-21T08:52:46Z</time>
      </trkpt>
      <trkpt lat="44.23183" lon="4.99933">
        <ele>170</ele>
        <time>2018-02-21T08:52:49Z</time>
      </trkpt>
      <trkpt lat="44.23193" lon="4.99929">
        <ele>169</ele>
        <time>2018-02-21T08:52:51Z</time>
      </trkpt>
      <trkpt lat="44.23204" lon="4.99924">
        <ele>170</ele>
        <time>2018-02-21T08:52:53Z</time>
      </trkpt>
      <trkpt lat="44.2322" lon="4.99917">
        <ele>169</ele>
        <time>2018-02-21T08:52:56Z</time>
      </trkpt>
      <trkpt lat="44.23232" lon="4.99912">
        <ele>169</ele>
        <time>2018-02-21T08:52:58Z</time>
      </trkpt>
      <trkpt lat="44.23243" lon="4.99907">
        <ele>167</ele>
        <time>2018-02-21T08:53:00Z</time>
      </trkpt>
      <trkpt lat="44.23255" lon="4.99902">
        <ele>167</ele>
        <time>2018-02-21T08:53:02Z</time>
      </trkpt>
      <trkpt lat="44.23273" lon="4.99898">
        <ele>166</ele>
        <time>2018-02-21T08:53:05Z</time>
      </trkpt>
      <trkpt lat="44.23285" lon="4.99896">
        <ele>166</ele>
        <time>2018-02-21T08:53:07Z</time>
      </trkpt>
      <trkpt lat="44.23302" lon="4.99897">
        <ele>166</ele>
        <time>2018-02-21T08:53:10Z</time>
      </trkpt>
      <trkpt lat="44.2332" lon="4.99898">
        <ele>166</ele>
        <time>2018-02-21T08:53:13Z</time>
      </trkpt>
      <trkpt lat="44.23337" lon="4.999">
        <ele>167</ele>
        <time>2018-02-21T08:53:16Z</time>
      </trkpt>
      <trkpt lat="44.23348" lon="4.99901">
        <ele>167</ele>
        <time>2018-02-21T08:53:18Z</time>
      </trkpt>
      <trkpt lat="44.23366" lon="4.99903">
        <ele>166</ele>
        <time>2018-02-21T08:53:21Z</time>
      </trkpt>
      <trkpt lat="44.23383" lon="4.99908">
        <ele>167</ele>
        <time>2018-02-21T08:53:24Z</time>
      </trkpt>
      <trkpt lat="44.234" lon="4.99916">
        <ele>167</ele>
        <time>2018-02-21T08:53:27Z</time>
      </trkpt>
      <trkpt lat="44.23411" lon="4.99923">
        <ele>166</ele>
        <time>2018-02-21T08:53:29Z</time>
      </trkpt>
      <trkpt lat="44.23422" lon="4.9993">
        <ele>166</ele>
        <time>2018-02-21T08:53:31Z</time>
      </trkpt>
      <trkpt lat="44.23437" lon="4.99941">
        <ele>165</ele>
        <time>2018-02-21T08:53:34Z</time>
      </trkpt>
      <trkpt lat="44.23451" lon="4.99953">
        <ele>165</ele>
        <time>2018-02-21T08:53:37Z</time>
      </trkpt>
      <trkpt lat="44.23466" lon="4.99965">
        <ele>165</ele>
        <time>2018-02-21T08:53:40Z</time>
      </trkpt>
      <trkpt lat="44.2348" lon="4.99977">
        <ele>165</ele>
        <time>2018-02-21T08:53:43Z</time>
      </trkpt>
      <trkpt lat="44.23494" lon="4.99988">
        <ele>165</ele>
        <time>2018-02-21T08:53:46Z</time>
      </trkpt>
      <trkpt lat="44.23508" lon="5">
        <ele>165</ele>
        <time>2018-02-21T08:53:49Z</time>
      </trkpt>
      <trkpt lat="44.23521" lon="5.00015">
        <ele>165</ele>
        <time>2018-02-21T08:53:52Z</time>
      </trkpt>
      <trkpt lat="44.23529" lon="5.00025">
        <ele>164</ele>
        <time>2018-02-21T08:53:54Z</time>
      </trkpt>
      <trkpt lat="44.2354" lon="5.00041">
        <ele>164</ele>
        <time>2018-02-21T08:53:57Z</time>
      </trkpt>
      <trkpt lat="44.23547" lon="5.00052">
        <ele>164</ele>
        <time>2018-02-21T08:53:59Z</time>
      </trkpt>
      <trkpt lat="44.23555" lon="5.00062">
        <ele>164</ele>
        <time>2018-02-21T08:54:01Z</time>
      </trkpt>
      <trkpt lat="44.23562" lon="5.00072">
        <ele>164</ele>
        <time>2018-02-21T08:54:03Z</time>
      </trkpt>
      <trkpt lat="44.23574" lon="5.00089">
        <ele>165</ele>
        <time>2018-02-21T08:54:06Z</time>
      </trkpt>
      <trkpt lat="44.23581" lon="5.00099">
        <ele>165</ele>
        <time>2018-02-21T08:54:08Z</time>
      </trkpt>
      <trkpt lat="44.23587" lon="5.00109">
        <ele>165</ele>
        <time>2018-02-21T08:54:10Z</time>
      </trkpt>
      <trkpt lat="44.23594" lon="5.00119">
        <ele>166</ele>
        <time>2018-02-21T08:54:12Z</time>
      </trkpt>
      <trkpt lat="44.23602" lon="5.00129">
        <ele>166</ele>
        <time>2018-02-21T08:54:14Z</time>
      </trkpt>
      <trkpt lat="44.23614" lon="5.00142">
        <ele>165</ele>
        <time>2018-02-21T08:54:17Z</time>
      </trkpt>
      <trkpt lat="44.23623" lon="5.00151">
        <ele>165</ele>
        <time>2018-02-21T08:54:19Z</time>
      </trkpt>
      <trkpt lat="44.23635" lon="5.00167">
        <ele>164</ele>
        <time>2018-02-21T08:54:22Z</time>
      </trkpt>
      <trkpt lat="44.23642" lon="5.00178">
        <ele>164</ele>
        <time>2018-02-21T08:54:24Z</time>
      </trkpt>
      <trkpt lat="44.23651" lon="5.00197">
        <ele>165</ele>
        <time>2018-02-21T08:54:27Z</time>
      </trkpt>
      <trkpt lat="44.23659" lon="5.00216">
        <ele>165</ele>
        <time>2018-02-21T08:54:30Z</time>
      </trkpt>
      <trkpt lat="44.23666" lon="5.00235">
        <ele>165</ele>
        <time>2018-02-21T08:54:33Z</time>
      </trkpt>
      <trkpt lat="44.23672" lon="5.00254">
        <ele>166</ele>
        <time>2018-02-21T08:54:36Z</time>
      </trkpt>
      <trkpt lat="44.23679" lon="5.00274">
        <ele>167</ele>
        <time>2018-02-21T08:54:39Z</time>
      </trkpt>
      <trkpt lat="44.23684" lon="5.00287">
        <ele>167</ele>
        <time>2018-02-21T08:54:41Z</time>
      </trkpt>
      <trkpt lat="44.23689" lon="5.003">
        <ele>167</ele>
        <time>2018-02-21T08:54:43Z</time>
      </trkpt>
      <trkpt lat="44.23693" lon="5.00313">
        <ele>166</ele>
        <time>2018-02-21T08:54:45Z</time>
      </trkpt>
      <trkpt lat="44.237" lon="5.0033">
        <ele>166</ele>
        <time>2018-02-21T08:54:48Z</time>
      </trkpt>
      <trkpt lat="44.23707" lon="5.00348">
        <ele>167</ele>
        <time>2018-02-21T08:54:51Z</time>
      </trkpt>
      <trkpt lat="44.23713" lon="5.00366">
        <ele>167</ele>
        <time>2018-02-21T08:54:54Z</time>
      </trkpt>
      <trkpt lat="44.23719" lon="5.00384">
        <ele>168</ele>
        <time>2018-02-21T08:54:57Z</time>
      </trkpt>
      <trkpt lat="44.23723" lon="5.00404">
        <ele>168</ele>
        <time>2018-02-21T08:55:00Z</time>
      </trkpt>
      <trkpt lat="44.23724" lon="5.00424">
        <ele>167</ele>
        <time>2018-02-21T08:55:03Z</time>
      </trkpt>
      <trkpt lat="44.23725" lon="5.00438">
        <ele>167</ele>
        <time>2018-02-21T08:55:05Z</time>
      </trkpt>
      <trkpt lat="44.23726" lon="5.00459">
        <ele>167</ele>
        <time>2018-02-21T08:55:08Z</time>
      </trkpt>
      <trkpt lat="44.23726" lon="5.00473">
        <ele>166</ele>
        <time>2018-02-21T08:55:10Z</time>
      </trkpt>
      <trkpt lat="44.23727" lon="5.00494">
        <ele>166</ele>
        <time>2018-02-21T08:55:13Z</time>
      </trkpt>
      <trkpt lat="44.23728" lon="5.00508">
        <ele>166</ele>
        <time>2018-02-21T08:55:15Z</time>
      </trkpt>
      <trkpt lat="44.23729" lon="5.00522">
        <ele>166</ele>
        <time>2018-02-21T08:55:17Z</time>
      </trkpt>
      <trkpt lat="44.2373" lon="5.00542">
        <ele>166</ele>
        <time>2018-02-21T08:55:20Z</time>
      </trkpt>
      <trkpt lat="44.23732" lon="5.00556">
        <ele>166</ele>
        <time>2018-02-21T08:55:22Z</time>
      </trkpt>
      <trkpt lat="44.23734" lon="5.00578">
        <ele>166</ele>
        <time>2018-02-21T08:55:25Z</time>
      </trkpt>
      <trkpt lat="44.23735" lon="5.00592">
        <ele>166</ele>
        <time>2018-02-21T08:55:27Z</time>
      </trkpt>
      <trkpt lat="44.23737" lon="5.00607">
        <ele>166</ele>
        <time>2018-02-21T08:55:29Z</time>
      </trkpt>
      <trkpt lat="44.23738" lon="5.00628">
        <ele>166</ele>
        <time>2018-02-21T08:55:32Z</time>
      </trkpt>
      <trkpt lat="44.23739" lon="5.00642">
        <ele>166</ele>
        <time>2018-02-21T08:55:34Z</time>
      </trkpt>
      <trkpt lat="44.23741" lon="5.00661">
        <ele>166</ele>
        <time>2018-02-21T08:55:37Z</time>
      </trkpt>
      <trkpt lat="44.23745" lon="5.0068">
        <ele>166</ele>
        <time>2018-02-21T08:55:40Z</time>
      </trkpt>
      <trkpt lat="44.23751" lon="5.00699">
        <ele>166</ele>
        <time>2018-02-21T08:55:43Z</time>
      </trkpt>
      <trkpt lat="44.2376" lon="5.00716">
        <ele>166</ele>
        <time>2018-02-21T08:55:46Z</time>
      </trkpt>
      <trkpt lat="44.2377" lon="5.00732">
        <ele>167</ele>
        <time>2018-02-21T08:55:49Z</time>
      </trkpt>
      <trkpt lat="44.2378" lon="5.00747">
        <ele>167</ele>
        <time>2018-02-21T08:55:52Z</time>
      </trkpt>
      <trkpt lat="44.2379" lon="5.00762">
        <ele>168</ele>
        <time>2018-02-21T08:55:55Z</time>
      </trkpt>
      <trkpt lat="44.23801" lon="5.00778">
        <ele>168</ele>
        <time>2018-02-21T08:55:58Z</time>
      </trkpt>
      <trkpt lat="44.23808" lon="5.00788">
        <ele>168</ele>
        <time>2018-02-21T08:56:00Z</time>
      </trkpt>
      <trkpt lat="44.23819" lon="5.00803">
        <ele>169</ele>
        <time>2018-02-21T08:56:03Z</time>
      </trkpt>
      <trkpt lat="44.2383" lon="5.00819">
        <ele>169</ele>
        <time>2018-02-21T08:56:06Z</time>
      </trkpt>
      <trkpt lat="44.2384" lon="5.00834">
        <ele>169</ele>
        <time>2018-02-21T08:56:09Z</time>
      </trkpt>
      <trkpt lat="44.2385" lon="5.00848">
        <ele>168</ele>
        <time>2018-02-21T08:56:12Z</time>
      </trkpt>
      <trkpt lat="44.2386" lon="5.00862">
        <ele>168</ele>
        <time>2018-02-21T08:56:15Z</time>
      </trkpt>
      <trkpt lat="44.2387" lon="5.00876">
        <ele>169</ele>
        <time>2018-02-21T08:56:18Z</time>
      </trkpt>
      <trkpt lat="44.2388" lon="5.0089">
        <ele>169</ele>
        <time>2018-02-21T08:56:21Z</time>
      </trkpt>
      <trkpt lat="44.2389" lon="5.00904">
        <ele>168</ele>
        <time>2018-02-21T08:56:24Z</time>
      </trkpt>
      <trkpt lat="44.23896" lon="5.00914">
        <ele>168</ele>
        <time>2018-02-21T08:56:26Z</time>
      </trkpt>
      <trkpt lat="44.23906" lon="5.00928">
        <ele>169</ele>
        <time>2018-02-21T08:56:29Z</time>
      </trkpt>
      <trkpt lat="44.23917" lon="5.00943">
        <ele>170</ele>
        <time>2018-02-21T08:56:32Z</time>
      </trkpt>
      <trkpt lat="44.23928" lon="5.00958">
        <ele>170</ele>
        <time>2018-02-21T08:56:35Z</time>
      </trkpt>
      <trkpt lat="44.23938" lon="5.00972">
        <ele>170</ele>
        <time>2018-02-21T08:56:38Z</time>
      </trkpt>
      <trkpt lat="44.23948" lon="5.00986">
        <ele>170</ele>
        <time>2018-02-21T08:56:41Z</time>
      </trkpt>
      <trkpt lat="44.23958" lon="5.01001">
        <ele>169</ele>
        <time>2018-02-21T08:56:44Z</time>
      </trkpt>
      <trkpt lat="44.23964" lon="5.01011">
        <ele>170</ele>
        <time>2018-02-21T08:56:46Z</time>
      </trkpt>
      <trkpt lat="44.23974" lon="5.01025">
        <ele>171</ele>
        <time>2018-02-21T08:56:49Z</time>
      </trkpt>
      <trkpt lat="44.23985" lon="5.0104">
        <ele>172</ele>
        <time>2018-02-21T08:56:52Z</time>
      </trkpt>
      <trkpt lat="44.23991" lon="5.01049">
        <ele>173</ele>
        <time>2018-02-21T08:56:54Z</time>
      </trkpt>
      <trkpt lat="44.23998" lon="5.01059">
        <ele>173</ele>
        <time>2018-02-21T08:56:56Z</time>
      </trkpt>
      <trkpt lat="44.24009" lon="5.01074">
        <ele>172</ele>
        <time>2018-02-21T08:56:59Z</time>
      </trkpt>
      <trkpt lat="44.24015" lon="5.01084">
        <ele>172</ele>
        <time>2018-02-21T08:57:01Z</time>
      </trkpt>
      <trkpt lat="44.24025" lon="5.01098">
        <ele>171</ele>
        <time>2018-02-21T08:57:04Z</time>
      </trkpt>
      <trkpt lat="44.24035" lon="5.01113">
        <ele>171</ele>
        <time>2018-02-21T08:57:07Z</time>
      </trkpt>
      <trkpt lat="44.24045" lon="5.01127">
        <ele>171</ele>
        <time>2018-02-21T08:57:10Z</time>
      </trkpt>
      <trkpt lat="44.24055" lon="5.01142">
        <ele>172</ele>
        <time>2018-02-21T08:57:13Z</time>
      </trkpt>
      <trkpt lat="44.24062" lon="5.01151">
        <ele>172</ele>
        <time>2018-02-21T08:57:15Z</time>
      </trkpt>
      <trkpt lat="44.24072" lon="5.01165">
        <ele>173</ele>
        <time>2018-02-21T08:57:18Z</time>
      </trkpt>
      <trkpt lat="44.24082" lon="5.0118">
        <ele>173</ele>
        <time>2018-02-21T08:57:21Z</time>
      </trkpt>
      <trkpt lat="44.24092" lon="5.01195">
        <ele>174</ele>
        <time>2018-02-21T08:57:24Z</time>
      </trkpt>
      <trkpt lat="44.24099" lon="5.01205">
        <ele>174</ele>
        <time>2018-02-21T08:57:26Z</time>
      </trkpt>
      <trkpt lat="44.24109" lon="5.0122">
        <ele>173</ele>
        <time>2018-02-21T08:57:29Z</time>
      </trkpt>
      <trkpt lat="44.24116" lon="5.01231">
        <ele>172</ele>
        <time>2018-02-21T08:57:31Z</time>
      </trkpt>
      <trkpt lat="44.24127" lon="5.01246">
        <ele>171</ele>
        <time>2018-02-21T08:57:34Z</time>
      </trkpt>
      <trkpt lat="44.24137" lon="5.01262">
        <ele>172</ele>
        <time>2018-02-21T08:57:37Z</time>
      </trkpt>
      <trkpt lat="44.24144" lon="5.01272">
        <ele>172</ele>
        <time>2018-02-21T08:57:39Z</time>
      </trkpt>
      <trkpt lat="44.24155" lon="5.01287">
        <ele>171</ele>
        <time>2018-02-21T08:57:42Z</time>
      </trkpt>
      <trkpt lat="44.24165" lon="5.01302">
        <ele>172</ele>
        <time>2018-02-21T08:57:45Z</time>
      </trkpt>
      <trkpt lat="44.24175" lon="5.01317">
        <ele>172</ele>
        <time>2018-02-21T08:57:48Z</time>
      </trkpt>
      <trkpt lat="44.24185" lon="5.01332">
        <ele>171</ele>
        <time>2018-02-21T08:57:51Z</time>
      </trkpt>
      <trkpt lat="44.24192" lon="5.01341">
        <ele>171</ele>
        <time>2018-02-21T08:57:53Z</time>
      </trkpt>
      <trkpt lat="44.24199" lon="5.0135">
        <ele>172</ele>
        <time>2018-02-21T08:57:55Z</time>
      </trkpt>
      <trkpt lat="44.24206" lon="5.01359">
        <ele>172</ele>
        <time>2018-02-21T08:57:57Z</time>
      </trkpt>
      <trkpt lat="44.24217" lon="5.0137">
        <ele>172</ele>
        <time>2018-02-21T08:58:00Z</time>
      </trkpt>
      <trkpt lat="44.24226" lon="5.01376">
        <ele>173</ele>
        <time>2018-02-21T08:58:02Z</time>
      </trkpt>
      <trkpt lat="44.2424" lon="5.01384">
        <ele>172</ele>
        <time>2018-02-21T08:58:05Z</time>
      </trkpt>
      <trkpt lat="44.24255" lon="5.01392">
        <ele>172</ele>
        <time>2018-02-21T08:58:08Z</time>
      </trkpt>
      <trkpt lat="44.24264" lon="5.01398">
        <ele>171</ele>
        <time>2018-02-21T08:58:10Z</time>
      </trkpt>
      <trkpt lat="44.24273" lon="5.01404">
        <ele>171</ele>
        <time>2018-02-21T08:58:12Z</time>
      </trkpt>
      <trkpt lat="44.24287" lon="5.01414">
        <ele>171</ele>
        <time>2018-02-21T08:58:15Z</time>
      </trkpt>
      <trkpt lat="44.24295" lon="5.0142">
        <ele>172</ele>
        <time>2018-02-21T08:58:17Z</time>
      </trkpt>
      <trkpt lat="44.24302" lon="5.01427">
        <ele>173</ele>
        <time>2018-02-21T08:58:19Z</time>
      </trkpt>
      <trkpt lat="44.24312" lon="5.01441">
        <ele>173</ele>
        <time>2018-02-21T08:58:22Z</time>
      </trkpt>
      <trkpt lat="44.2432" lon="5.01458">
        <ele>173</ele>
        <time>2018-02-21T08:58:25Z</time>
      </trkpt>
      <trkpt lat="44.24326" lon="5.01469">
        <ele>172</ele>
        <time>2018-02-21T08:58:27Z</time>
      </trkpt>
      <trkpt lat="44.24331" lon="5.0148">
        <ele>173</ele>
        <time>2018-02-21T08:58:29Z</time>
      </trkpt>
      <trkpt lat="44.24339" lon="5.01496">
        <ele>173</ele>
        <time>2018-02-21T08:58:32Z</time>
      </trkpt>
      <trkpt lat="44.24347" lon="5.01512">
        <ele>174</ele>
        <time>2018-02-21T08:58:35Z</time>
      </trkpt>
      <trkpt lat="44.24355" lon="5.01527">
        <ele>174</ele>
        <time>2018-02-21T08:58:38Z</time>
      </trkpt>
      <trkpt lat="44.24361" lon="5.01537">
        <ele>174</ele>
        <time>2018-02-21T08:58:40Z</time>
      </trkpt>
      <trkpt lat="44.24371" lon="5.01552">
        <ele>174</ele>
        <time>2018-02-21T08:58:43Z</time>
      </trkpt>
      <trkpt lat="44.24382" lon="5.01569">
        <ele>174</ele>
        <time>2018-02-21T08:58:46Z</time>
      </trkpt>
      <trkpt lat="44.24392" lon="5.01585">
        <ele>174</ele>
        <time>2018-02-21T08:58:49Z</time>
      </trkpt>
      <trkpt lat="44.24402" lon="5.01601">
        <ele>175</ele>
        <time>2018-02-21T08:58:52Z</time>
      </trkpt>
      <trkpt lat="44.24409" lon="5.01612">
        <ele>175</ele>
        <time>2018-02-21T08:58:54Z</time>
      </trkpt>
      <trkpt lat="44.24416" lon="5.01623">
        <ele>175</ele>
        <time>2018-02-21T08:58:56Z</time>
      </trkpt>
      <trkpt lat="44.24426" lon="5.01641">
        <ele>175</ele>
        <time>2018-02-21T08:58:59Z</time>
      </trkpt>
      <trkpt lat="44.24436" lon="5.01657">
        <ele>176</ele>
        <time>2018-02-21T08:59:02Z</time>
      </trkpt>
      <trkpt lat="44.24443" lon="5.01668">
        <ele>175</ele>
        <time>2018-02-21T08:59:04Z</time>
      </trkpt>
      <trkpt lat="44.24453" lon="5.01685">
        <ele>176</ele>
        <time>2018-02-21T08:59:07Z</time>
      </trkpt>
      <trkpt lat="44.24464" lon="5.017">
        <ele>176</ele>
        <time>2018-02-21T08:59:10Z</time>
      </trkpt>
      <trkpt lat="44.2447" lon="5.0171">
        <ele>177</ele>
        <time>2018-02-21T08:59:12Z</time>
      </trkpt>
      <trkpt lat="44.24479" lon="5.01725">
        <ele>177</ele>
        <time>2018-02-21T08:59:15Z</time>
      </trkpt>
      <trkpt lat="44.2448" lon="5.0174">
        <ele>176</ele>
        <time>2018-02-21T08:59:18Z</time>
      </trkpt>
      <trkpt lat="44.24469" lon="5.01748">
        <ele>176</ele>
        <time>2018-02-21T08:59:21Z</time>
      </trkpt>
      <trkpt lat="44.2446" lon="5.01748">
        <ele>176</ele>
        <time>2018-02-21T08:59:23Z</time>
      </trkpt>
      <trkpt lat="44.24451" lon="5.01746">
        <ele>176</ele>
        <time>2018-02-21T08:59:25Z</time>
      </trkpt>
      <trkpt lat="44.24436" lon="5.01744">
        <ele>176</ele>
        <time>2018-02-21T08:59:28Z</time>
      </trkpt>
      <trkpt lat="44.2442" lon="5.01741">
        <ele>176</ele>
        <time>2018-02-21T08:59:31Z</time>
      </trkpt>
      <trkpt lat="44.24405" lon="5.01738">
        <ele>176</ele>
        <time>2018-02-21T08:59:34Z</time>
      </trkpt>
      <trkpt lat="44.24395" lon="5.01737">
        <ele>176</ele>
        <time>2018-02-21T08:59:36Z</time>
      </trkpt>
      <trkpt lat="44.24379" lon="5.01733">
        <ele>175</ele>
        <time>2018-02-21T08:59:39Z</time>
      </trkpt>
      <trkpt lat="44.24363" lon="5.0173">
        <ele>175</ele>
        <time>2018-02-21T08:59:42Z</time>
      </trkpt>
      <trkpt lat="44.24346" lon="5.01726">
        <ele>175</ele>
        <time>2018-02-21T08:59:45Z</time>
      </trkpt>
      <trkpt lat="44.24334" lon="5.01724">
        <ele>175</ele>
        <time>2018-02-21T08:59:47Z</time>
      </trkpt>
      <trkpt lat="44.24316" lon="5.01721">
        <ele>175</ele>
        <time>2018-02-21T08:59:50Z</time>
      </trkpt>
      <trkpt lat="44.24299" lon="5.01717">
        <ele>175</ele>
        <time>2018-02-21T08:59:53Z</time>
      </trkpt>
      <trkpt lat="44.24287" lon="5.01714">
        <ele>175</ele>
        <time>2018-02-21T08:59:55Z</time>
      </trkpt>
      <trkpt lat="44.24275" lon="5.01712">
        <ele>175</ele>
        <time>2018-02-21T08:59:57Z</time>
      </trkpt>
      <trkpt lat="44.24256" lon="5.01708">
        <ele>175</ele>
        <time>2018-02-21T09:00:00Z</time>
      </trkpt>
      <trkpt lat="44.24244" lon="5.01705">
        <ele>174</ele>
        <time>2018-02-21T09:00:02Z</time>
      </trkpt>
      <trkpt lat="44.24231" lon="5.01702">
        <ele>174</ele>
        <time>2018-02-21T09:00:04Z</time>
      </trkpt>
      <trkpt lat="44.24213" lon="5.01698">
        <ele>173</ele>
        <time>2018-02-21T09:00:07Z</time>
      </trkpt>
      <trkpt lat="44.24202" lon="5.01695">
        <ele>173</ele>
        <time>2018-02-21T09:00:09Z</time>
      </trkpt>
      <trkpt lat="44.24183" lon="5.01691">
        <ele>174</ele>
        <time>2018-02-21T09:00:12Z</time>
      </trkpt>
      <trkpt lat="44.24164" lon="5.01687">
        <ele>173</ele>
        <time>2018-02-21T09:00:15Z</time>
      </trkpt>
      <trkpt lat="44.24152" lon="5.01684">
        <ele>173</ele>
        <time>2018-02-21T09:00:17Z</time>
      </trkpt>
      <trkpt lat="44.24139" lon="5.01682">
        <ele>173</ele>
        <time>2018-02-21T09:00:19Z</time>
      </trkpt>
      <trkpt lat="44.2412" lon="5.01678">
        <ele>173</ele>
        <time>2018-02-21T09:00:22Z</time>
      </trkpt>
      <trkpt lat="44.24108" lon="5.01675">
        <ele>173</ele>
        <time>2018-02-21T09:00:24Z</time>
      </trkpt>
      <trkpt lat="44.24089" lon="5.01671">
        <ele>173</ele>
        <time>2018-02-21T09:00:27Z</time>
      </trkpt>
      <trkpt lat="44.24071" lon="5.01666">
        <ele>173</ele>
        <time>2018-02-21T09:00:30Z</time>
      </trkpt>
      <trkpt lat="44.24058" lon="5.01664">
        <ele>173</ele>
        <time>2018-02-21T09:00:32Z</time>
      </trkpt>
      <trkpt lat="44.24045" lon="5.01661">
        <ele>173</ele>
        <time>2018-02-21T09:00:34Z</time>
      </trkpt>
      <trkpt lat="44.24025" lon="5.01657">
        <ele>172</ele>
        <time>2018-02-21T09:00:37Z</time>
      </trkpt>
      <trkpt lat="44.24005" lon="5.01654">
        <ele>172</ele>
        <time>2018-02-21T09:00:40Z</time>
      </trkpt>
      <trkpt lat="44.23986" lon="5.0165">
        <ele>172</ele>
        <time>2018-02-21T09:00:43Z</time>
      </trkpt>
      <trkpt lat="44.23973" lon="5.01649">
        <ele>172</ele>
        <time>2018-02-21T09:00:45Z</time>
      </trkpt>
      <trkpt lat="44.23962" lon="5.01648">
        <ele>172</ele>
        <time>2018-02-21T09:00:47Z</time>
      </trkpt>
      <trkpt lat="44.23951" lon="5.01647">
        <ele>172</ele>
        <time>2018-02-21T09:00:49Z</time>
      </trkpt>
      <trkpt lat="44.2394" lon="5.01646">
        <ele>172</ele>
        <time>2018-02-21T09:00:51Z</time>
      </trkpt>
      <trkpt lat="44.23925" lon="5.01645">
        <ele>172</ele>
        <time>2018-02-21T09:00:54Z</time>
      </trkpt>
      <trkpt lat="44.23915" lon="5.01648">
        <ele>173</ele>
        <time>2018-02-21T09:00:56Z</time>
      </trkpt>
      <trkpt lat="44.239" lon="5.01648">
        <ele>174</ele>
        <time>2018-02-21T09:00:59Z</time>
      </trkpt>
      <trkpt lat="44.23891" lon="5.01649">
        <ele>174</ele>
        <time>2018-02-21T09:01:01Z</time>
      </trkpt>
      <trkpt lat="44.23882" lon="5.01653">
        <ele>174</ele>
        <time>2018-02-21T09:01:04Z</time>
      </trkpt>
      <trkpt lat="44.23882" lon="5.01668">
        <ele>175</ele>
        <time>2018-02-21T09:01:07Z</time>
      </trkpt>
      <trkpt lat="44.23885" lon="5.0168">
        <ele>176</ele>
        <time>2018-02-21T09:01:09Z</time>
      </trkpt>
      <trkpt lat="44.2389" lon="5.017">
        <ele>176</ele>
        <time>2018-02-21T09:01:12Z</time>
      </trkpt>
      <trkpt lat="44.23896" lon="5.0172">
        <ele>176</ele>
        <time>2018-02-21T09:01:15Z</time>
      </trkpt>
      <trkpt lat="44.23898" lon="5.01733">
        <ele>176</ele>
        <time>2018-02-21T09:01:17Z</time>
      </trkpt>
      <trkpt lat="44.23902" lon="5.01754">
        <ele>177</ele>
        <time>2018-02-21T09:01:20Z</time>
      </trkpt>
      <trkpt lat="44.23905" lon="5.01767">
        <ele>177</ele>
        <time>2018-02-21T09:01:22Z</time>
      </trkpt>
      <trkpt lat="44.23909" lon="5.01788">
        <ele>177</ele>
        <time>2018-02-21T09:01:25Z</time>
      </trkpt>
      <trkpt lat="44.23911" lon="5.0181">
        <ele>176</ele>
        <time>2018-02-21T09:01:28Z</time>
      </trkpt>
      <trkpt lat="44.23913" lon="5.01825">
        <ele>177</ele>
        <time>2018-02-21T09:01:30Z</time>
      </trkpt>
      <trkpt lat="44.23916" lon="5.01845">
        <ele>176</ele>
        <time>2018-02-21T09:01:33Z</time>
      </trkpt>
      <trkpt lat="44.23917" lon="5.01858">
        <ele>176</ele>
        <time>2018-02-21T09:01:35Z</time>
      </trkpt>
      <trkpt lat="44.23919" lon="5.01877">
        <ele>176</ele>
        <time>2018-02-21T09:01:38Z</time>
      </trkpt>
      <trkpt lat="44.2392" lon="5.01889">
        <ele>177</ele>
        <time>2018-02-21T09:01:40Z</time>
      </trkpt>
      <trkpt lat="44.23922" lon="5.01907">
        <ele>176</ele>
        <time>2018-02-21T09:01:43Z</time>
      </trkpt>
      <trkpt lat="44.23925" lon="5.01919">
        <ele>176</ele>
        <time>2018-02-21T09:01:45Z</time>
      </trkpt>
      <trkpt lat="44.23927" lon="5.0194">
        <ele>176</ele>
        <time>2018-02-21T09:01:48Z</time>
      </trkpt>
      <trkpt lat="44.23928" lon="5.01955">
        <ele>177</ele>
        <time>2018-02-21T09:01:50Z</time>
      </trkpt>
      <trkpt lat="44.2393" lon="5.01971">
        <ele>177</ele>
        <time>2018-02-21T09:01:52Z</time>
      </trkpt>
      <trkpt lat="44.23932" lon="5.01994">
        <ele>177</ele>
        <time>2018-02-21T09:01:55Z</time>
      </trkpt>
      <trkpt lat="44.23933" lon="5.02009">
        <ele>177</ele>
        <time>2018-02-21T09:01:57Z</time>
      </trkpt>
      <trkpt lat="44.23936" lon="5.02032">
        <ele>177</ele>
        <time>2018-02-21T09:02:00Z</time>
      </trkpt>
      <trkpt lat="44.23938" lon="5.02047">
        <ele>177</ele>
        <time>2018-02-21T09:02:02Z</time>
      </trkpt>
      <trkpt lat="44.2394" lon="5.02062">
        <ele>178</ele>
        <time>2018-02-21T09:02:04Z</time>
      </trkpt>
      <trkpt lat="44.23942" lon="5.02076">
        <ele>178</ele>
        <time>2018-02-21T09:02:06Z</time>
      </trkpt>
      <trkpt lat="44.23943" lon="5.02099">
        <ele>177</ele>
        <time>2018-02-21T09:02:09Z</time>
      </trkpt>
      <trkpt lat="44.23946" lon="5.02121">
        <ele>177</ele>
        <time>2018-02-21T09:02:12Z</time>
      </trkpt>
      <trkpt lat="44.23947" lon="5.02136">
        <ele>176</ele>
        <time>2018-02-21T09:02:14Z</time>
      </trkpt>
      <trkpt lat="44.23949" lon="5.0215">
        <ele>177</ele>
        <time>2018-02-21T09:02:16Z</time>
      </trkpt>
      <trkpt lat="44.23951" lon="5.02171">
        <ele>177</ele>
        <time>2018-02-21T09:02:19Z</time>
      </trkpt>
      <trkpt lat="44.23953" lon="5.02185">
        <ele>177</ele>
        <time>2018-02-21T09:02:21Z</time>
      </trkpt>
      <trkpt lat="44.23954" lon="5.022">
        <ele>178</ele>
        <time>2018-02-21T09:02:23Z</time>
      </trkpt>
      <trkpt lat="44.23956" lon="5.02213">
        <ele>177</ele>
        <time>2018-02-21T09:02:25Z</time>
      </trkpt>
      <trkpt lat="44.23958" lon="5.02234">
        <ele>178</ele>
        <time>2018-02-21T09:02:28Z</time>
      </trkpt>
      <trkpt lat="44.23959" lon="5.02247">
        <ele>179</ele>
        <time>2018-02-21T09:02:30Z</time>
      </trkpt>
      <trkpt lat="44.23961" lon="5.02267">
        <ele>179</ele>
        <time>2018-02-21T09:02:33Z</time>
      </trkpt>
      <trkpt lat="44.23962" lon="5.02279">
        <ele>179</ele>
        <time>2018-02-21T09:02:35Z</time>
      </trkpt>
      <trkpt lat="44.23963" lon="5.02292">
        <ele>179</ele>
        <time>2018-02-21T09:02:37Z</time>
      </trkpt>
      <trkpt lat="44.23966" lon="5.02309">
        <ele>179</ele>
        <time>2018-02-21T09:02:40Z</time>
      </trkpt>
      <trkpt lat="44.23968" lon="5.02319">
        <ele>180</ele>
        <time>2018-02-21T09:02:42Z</time>
      </trkpt>
      <trkpt lat="44.2397" lon="5.02336">
        <ele>180</ele>
        <time>2018-02-21T09:02:45Z</time>
      </trkpt>
      <trkpt lat="44.23972" lon="5.02349">
        <ele>180</ele>
        <time>2018-02-21T09:02:47Z</time>
      </trkpt>
      <trkpt lat="44.23973" lon="5.02362">
        <ele>180</ele>
        <time>2018-02-21T09:02:49Z</time>
      </trkpt>
      <trkpt lat="44.23975" lon="5.02374">
        <ele>180</ele>
        <time>2018-02-21T09:02:51Z</time>
      </trkpt>
      <trkpt lat="44.23977" lon="5.02391">
        <ele>180</ele>
        <time>2018-02-21T09:02:54Z</time>
      </trkpt>
      <trkpt lat="44.23978" lon="5.02404">
        <ele>180</ele>
        <time>2018-02-21T09:02:56Z</time>
      </trkpt>
      <trkpt lat="44.23979" lon="5.02416">
        <ele>180</ele>
        <time>2018-02-21T09:02:58Z</time>
      </trkpt>
      <trkpt lat="44.2398" lon="5.02434">
        <ele>181</ele>
        <time>2018-02-21T09:03:01Z</time>
      </trkpt>
      <trkpt lat="44.23982" lon="5.02446">
        <ele>182</ele>
        <time>2018-02-21T09:03:03Z</time>
      </trkpt>
      <trkpt lat="44.23983" lon="5.02458">
        <ele>182</ele>
        <time>2018-02-21T09:03:05Z</time>
      </trkpt>
      <trkpt lat="44.23984" lon="5.02471">
        <ele>181</ele>
        <time>2018-02-21T09:03:07Z</time>
      </trkpt>
      <trkpt lat="44.23986" lon="5.0249">
        <ele>181</ele>
        <time>2018-02-21T09:03:10Z</time>
      </trkpt>
      <trkpt lat="44.23987" lon="5.02501">
        <ele>181</ele>
        <time>2018-02-21T09:03:12Z</time>
      </trkpt>
      <trkpt lat="44.23988" lon="5.02518">
        <ele>182</ele>
        <time>2018-02-21T09:03:15Z</time>
      </trkpt>
      <trkpt lat="44.2399" lon="5.02529">
        <ele>182</ele>
        <time>2018-02-21T09:03:17Z</time>
      </trkpt>
      <trkpt lat="44.23991" lon="5.02541">
        <ele>182</ele>
        <time>2018-02-21T09:03:19Z</time>
      </trkpt>
      <trkpt lat="44.23992" lon="5.02558">
        <ele>182</ele>
        <time>2018-02-21T09:03:22Z</time>
      </trkpt>
      <trkpt lat="44.23994" lon="5.0257">
        <ele>182</ele>
        <time>2018-02-21T09:03:24Z</time>
      </trkpt>
      <trkpt lat="44.23994" lon="5.02583">
        <ele>182</ele>
        <time>2018-02-21T09:03:26Z</time>
      </trkpt>
      <trkpt lat="44.23996" lon="5.02601">
        <ele>182</ele>
        <time>2018-02-21T09:03:29Z</time>
      </trkpt>
      <trkpt lat="44.23997" lon="5.02614">
        <ele>183</ele>
        <time>2018-02-21T09:03:31Z</time>
      </trkpt>
      <trkpt lat="44.23999" lon="5.02633">
        <ele>183</ele>
        <time>2018-02-21T09:03:34Z</time>
      </trkpt>
      <trkpt lat="44.24001" lon="5.02645">
        <ele>183</ele>
        <time>2018-02-21T09:03:36Z</time>
      </trkpt>
      <trkpt lat="44.24002" lon="5.02659">
        <ele>184</ele>
        <time>2018-02-21T09:03:38Z</time>
      </trkpt>
      <trkpt lat="44.24003" lon="5.02672">
        <ele>183</ele>
        <time>2018-02-21T09:03:40Z</time>
      </trkpt>
      <trkpt lat="44.24005" lon="5.02691">
        <ele>183</ele>
        <time>2018-02-21T09:03:43Z</time>
      </trkpt>
      <trkpt lat="44.24006" lon="5.02703">
        <ele>183</ele>
        <time>2018-02-21T09:03:45Z</time>
      </trkpt>
      <trkpt lat="44.24008" lon="5.02721">
        <ele>183</ele>
        <time>2018-02-21T09:03:48Z</time>
      </trkpt>
      <trkpt lat="44.24009" lon="5.02733">
        <ele>183</ele>
        <time>2018-02-21T09:03:50Z</time>
      </trkpt>
      <trkpt lat="44.24011" lon="5.02746">
        <ele>184</ele>
        <time>2018-02-21T09:03:52Z</time>
      </trkpt>
      <trkpt lat="44.24012" lon="5.02759">
        <ele>184</ele>
        <time>2018-02-21T09:03:54Z</time>
      </trkpt>
      <trkpt lat="44.24014" lon="5.02778">
        <ele>184</ele>
        <time>2018-02-21T09:03:57Z</time>
      </trkpt>
      <trkpt lat="44.24015" lon="5.02791">
        <ele>184</ele>
        <time>2018-02-21T09:03:59Z</time>
      </trkpt>
      <trkpt lat="44.24016" lon="5.02804">
        <ele>184</ele>
        <time>2018-02-21T09:04:01Z</time>
      </trkpt>
      <trkpt lat="44.24017" lon="5.02817">
        <ele>184</ele>
        <time>2018-02-21T09:04:03Z</time>
      </trkpt>
      <trkpt lat="44.2402" lon="5.02836">
        <ele>185</ele>
        <time>2018-02-21T09:04:06Z</time>
      </trkpt>
      <trkpt lat="44.24022" lon="5.02849">
        <ele>185</ele>
        <time>2018-02-21T09:04:08Z</time>
      </trkpt>
      <trkpt lat="44.24024" lon="5.02861">
        <ele>185</ele>
        <time>2018-02-21T09:04:10Z</time>
      </trkpt>
      <trkpt lat="44.24026" lon="5.02873">
        <ele>185</ele>
        <time>2018-02-21T09:04:12Z</time>
      </trkpt>
      <trkpt lat="44.2403" lon="5.02892">
        <ele>185</ele>
        <time>2018-02-21T09:04:15Z</time>
      </trkpt>
      <trkpt lat="44.24034" lon="5.02905">
        <ele>185</ele>
        <time>2018-02-21T09:04:17Z</time>
      </trkpt>
      <trkpt lat="44.24039" lon="5.02923">
        <ele>185</ele>
        <time>2018-02-21T09:04:20Z</time>
      </trkpt>
      <trkpt lat="44.24046" lon="5.02942">
        <ele>186</ele>
        <time>2018-02-21T09:04:23Z</time>
      </trkpt>
      <trkpt lat="44.2405" lon="5.02954">
        <ele>186</ele>
        <time>2018-02-21T09:04:25Z</time>
      </trkpt>
      <trkpt lat="44.24057" lon="5.02971">
        <ele>186</ele>
        <time>2018-02-21T09:04:28Z</time>
      </trkpt>
      <trkpt lat="44.24064" lon="5.02988">
        <ele>187</ele>
        <time>2018-02-21T09:04:31Z</time>
      </trkpt>
      <trkpt lat="44.2407" lon="5.03005">
        <ele>188</ele>
        <time>2018-02-21T09:04:34Z</time>
      </trkpt>
      <trkpt lat="44.24075" lon="5.03016">
        <ele>188</ele>
        <time>2018-02-21T09:04:36Z</time>
      </trkpt>
      <trkpt lat="44.2408" lon="5.03028">
        <ele>187</ele>
        <time>2018-02-21T09:04:38Z</time>
      </trkpt>
      <trkpt lat="44.24087" lon="5.03046">
        <ele>187</ele>
        <time>2018-02-21T09:04:41Z</time>
      </trkpt>
      <trkpt lat="44.24094" lon="5.03062">
        <ele>186</ele>
        <time>2018-02-21T09:04:44Z</time>
      </trkpt>
      <trkpt lat="44.241" lon="5.0308">
        <ele>186</ele>
        <time>2018-02-21T09:04:47Z</time>
      </trkpt>
      <trkpt lat="44.24107" lon="5.03097">
        <ele>187</ele>
        <time>2018-02-21T09:04:50Z</time>
      </trkpt>
      <trkpt lat="44.24113" lon="5.03113">
        <ele>187</ele>
        <time>2018-02-21T09:04:53Z</time>
      </trkpt>
      <trkpt lat="44.2412" lon="5.03129">
        <ele>187</ele>
        <time>2018-02-21T09:04:56Z</time>
      </trkpt>
      <trkpt lat="44.24127" lon="5.03145">
        <ele>187</ele>
        <time>2018-02-21T09:04:59Z</time>
      </trkpt>
      <trkpt lat="44.24133" lon="5.03162">
        <ele>187</ele>
        <time>2018-02-21T09:05:02Z</time>
      </trkpt>
      <trkpt lat="44.24138" lon="5.03174">
        <ele>187</ele>
        <time>2018-02-21T09:05:04Z</time>
      </trkpt>
      <trkpt lat="44.24142" lon="5.03185">
        <ele>188</ele>
        <time>2018-02-21T09:05:06Z</time>
      </trkpt>
      <trkpt lat="44.24149" lon="5.03202">
        <ele>188</ele>
        <time>2018-02-21T09:05:09Z</time>
      </trkpt>
      <trkpt lat="44.24155" lon="5.0322">
        <ele>189</ele>
        <time>2018-02-21T09:05:12Z</time>
      </trkpt>
      <trkpt lat="44.24163" lon="5.03237">
        <ele>189</ele>
        <time>2018-02-21T09:05:15Z</time>
      </trkpt>
      <trkpt lat="44.2417" lon="5.03255">
        <ele>189</ele>
        <time>2018-02-21T09:05:18Z</time>
      </trkpt>
      <trkpt lat="44.24177" lon="5.03273">
        <ele>188</ele>
        <time>2018-02-21T09:05:21Z</time>
      </trkpt>
      <trkpt lat="44.24184" lon="5.03291">
        <ele>190</ele>
        <time>2018-02-21T09:05:24Z</time>
      </trkpt>
      <trkpt lat="44.24191" lon="5.03307">
        <ele>192</ele>
        <time>2018-02-21T09:05:27Z</time>
      </trkpt>
      <trkpt lat="44.24197" lon="5.03322">
        <ele>192</ele>
        <time>2018-02-21T09:05:30Z</time>
      </trkpt>
      <trkpt lat="44.24201" lon="5.03332">
        <ele>191</ele>
        <time>2018-02-21T09:05:32Z</time>
      </trkpt>
      <trkpt lat="44.24205" lon="5.03343">
        <ele>190</ele>
        <time>2018-02-21T09:05:34Z</time>
      </trkpt>
      <trkpt lat="44.24212" lon="5.03359">
        <ele>189</ele>
        <time>2018-02-21T09:05:37Z</time>
      </trkpt>
      <trkpt lat="44.24219" lon="5.03377">
        <ele>188</ele>
        <time>2018-02-21T09:05:40Z</time>
      </trkpt>
      <trkpt lat="44.24226" lon="5.03395">
        <ele>188</ele>
        <time>2018-02-21T09:05:43Z</time>
      </trkpt>
      <trkpt lat="44.24231" lon="5.03406">
        <ele>189</ele>
        <time>2018-02-21T09:05:45Z</time>
      </trkpt>
      <trkpt lat="44.24236" lon="5.03417">
        <ele>190</ele>
        <time>2018-02-21T09:05:47Z</time>
      </trkpt>
      <trkpt lat="44.2424" lon="5.03429">
        <ele>190</ele>
        <time>2018-02-21T09:05:49Z</time>
      </trkpt>
      <trkpt lat="44.24246" lon="5.03445">
        <ele>191</ele>
        <time>2018-02-21T09:05:52Z</time>
      </trkpt>
      <trkpt lat="44.2425" lon="5.03455">
        <ele>190</ele>
        <time>2018-02-21T09:05:54Z</time>
      </trkpt>
      <trkpt lat="44.24256" lon="5.0347">
        <ele>190</ele>
        <time>2018-02-21T09:05:57Z</time>
      </trkpt>
      <trkpt lat="44.24262" lon="5.03486">
        <ele>189</ele>
        <time>2018-02-21T09:06:00Z</time>
      </trkpt>
      <trkpt lat="44.24268" lon="5.03502">
        <ele>189</ele>
        <time>2018-02-21T09:06:03Z</time>
      </trkpt>
      <trkpt lat="44.24274" lon="5.03516">
        <ele>189</ele>
        <time>2018-02-21T09:06:06Z</time>
      </trkpt>
      <trkpt lat="44.24277" lon="5.0353">
        <ele>189</ele>
        <time>2018-02-21T09:06:09Z</time>
      </trkpt>
      <trkpt lat="44.24279" lon="5.03539">
        <ele>190</ele>
        <time>2018-02-21T09:06:11Z</time>
      </trkpt>
      <trkpt lat="44.24282" lon="5.03549">
        <ele>190</ele>
        <time>2018-02-21T09:06:13Z</time>
      </trkpt>
      <trkpt lat="44.24285" lon="5.0356">
        <ele>190</ele>
        <time>2018-02-21T09:06:15Z</time>
      </trkpt>
      <trkpt lat="44.24289" lon="5.03577">
        <ele>190</ele>
        <time>2018-02-21T09:06:18Z</time>
      </trkpt>
      <trkpt lat="44.24291" lon="5.03587">
        <ele>190</ele>
        <time>2018-02-21T09:06:20Z</time>
      </trkpt>
      <trkpt lat="44.24294" lon="5.03598">
        <ele>190</ele>
        <time>2018-02-21T09:06:22Z</time>
      </trkpt>
      <trkpt lat="44.24296" lon="5.03608">
        <ele>190</ele>
        <time>2018-02-21T09:06:24Z</time>
      </trkpt>
      <trkpt lat="44.243" lon="5.03624">
        <ele>190</ele>
        <time>2018-02-21T09:06:27Z</time>
      </trkpt>
      <trkpt lat="44.24303" lon="5.03643">
        <ele>190</ele>
        <time>2018-02-21T09:06:30Z</time>
      </trkpt>
      <trkpt lat="44.24305" lon="5.03655">
        <ele>191</ele>
        <time>2018-02-21T09:06:32Z</time>
      </trkpt>
      <trkpt lat="44.24308" lon="5.03668">
        <ele>191</ele>
        <time>2018-02-21T09:06:34Z</time>
      </trkpt>
      <trkpt lat="44.24312" lon="5.03689">
        <ele>191</ele>
        <time>2018-02-21T09:06:37Z</time>
      </trkpt>
      <trkpt lat="44.24315" lon="5.03709">
        <ele>191</ele>
        <time>2018-02-21T09:06:40Z</time>
      </trkpt>
      <trkpt lat="44.24318" lon="5.03722">
        <ele>191</ele>
        <time>2018-02-21T09:06:42Z</time>
      </trkpt>
      <trkpt lat="44.2432" lon="5.03742">
        <ele>191</ele>
        <time>2018-02-21T09:06:45Z</time>
      </trkpt>
      <trkpt lat="44.24323" lon="5.03755">
        <ele>190</ele>
        <time>2018-02-21T09:06:47Z</time>
      </trkpt>
      <trkpt lat="44.24326" lon="5.03776">
        <ele>190</ele>
        <time>2018-02-21T09:06:50Z</time>
      </trkpt>
      <trkpt lat="44.24328" lon="5.03789">
        <ele>190</ele>
        <time>2018-02-21T09:06:52Z</time>
      </trkpt>
      <trkpt lat="44.2433" lon="5.03802">
        <ele>190</ele>
        <time>2018-02-21T09:06:54Z</time>
      </trkpt>
      <trkpt lat="44.24334" lon="5.03822">
        <ele>190</ele>
        <time>2018-02-21T09:06:57Z</time>
      </trkpt>
      <trkpt lat="44.24336" lon="5.03835">
        <ele>190</ele>
        <time>2018-02-21T09:06:59Z</time>
      </trkpt>
      <trkpt lat="44.2434" lon="5.03855">
        <ele>190</ele>
        <time>2018-02-21T09:07:02Z</time>
      </trkpt>
      <trkpt lat="44.24343" lon="5.03875">
        <ele>190</ele>
        <time>2018-02-21T09:07:05Z</time>
      </trkpt>
      <trkpt lat="44.24345" lon="5.03889">
        <ele>190</ele>
        <time>2018-02-21T09:07:07Z</time>
      </trkpt>
      <trkpt lat="44.2435" lon="5.03909">
        <ele>190</ele>
        <time>2018-02-21T09:07:10Z</time>
      </trkpt>
      <trkpt lat="44.24352" lon="5.03924">
        <ele>190</ele>
        <time>2018-02-21T09:07:12Z</time>
      </trkpt>
      <trkpt lat="44.24353" lon="5.03939">
        <ele>191</ele>
        <time>2018-02-21T09:07:14Z</time>
      </trkpt>
      <trkpt lat="44.24356" lon="5.0396">
        <ele>191</ele>
        <time>2018-02-21T09:07:17Z</time>
      </trkpt>
      <trkpt lat="44.24359" lon="5.03974">
        <ele>191</ele>
        <time>2018-02-21T09:07:19Z</time>
      </trkpt>
      <trkpt lat="44.24362" lon="5.03996">
        <ele>192</ele>
        <time>2018-02-21T09:07:22Z</time>
      </trkpt>
      <trkpt lat="44.24365" lon="5.0401">
        <ele>192</ele>
        <time>2018-02-21T09:07:24Z</time>
      </trkpt>
      <trkpt lat="44.24367" lon="5.04024">
        <ele>193</ele>
        <time>2018-02-21T09:07:26Z</time>
      </trkpt>
      <trkpt lat="44.24371" lon="5.04045">
        <ele>192</ele>
        <time>2018-02-21T09:07:29Z</time>
      </trkpt>
      <trkpt lat="44.24374" lon="5.04065">
        <ele>192</ele>
        <time>2018-02-21T09:07:32Z</time>
      </trkpt>
      <trkpt lat="44.24376" lon="5.04077">
        <ele>192</ele>
        <time>2018-02-21T09:07:34Z</time>
      </trkpt>
      <trkpt lat="44.24379" lon="5.04088">
        <ele>191</ele>
        <time>2018-02-21T09:07:36Z</time>
      </trkpt>
      <trkpt lat="44.24382" lon="5.04105">
        <ele>190</ele>
        <time>2018-02-21T09:07:39Z</time>
      </trkpt>
      <trkpt lat="44.24384" lon="5.04114">
        <ele>189</ele>
        <time>2018-02-21T09:07:41Z</time>
      </trkpt>
      <trkpt lat="44.24386" lon="5.04124">
        <ele>189</ele>
        <time>2018-02-21T09:07:44Z</time>
      </trkpt>
      <trkpt lat="44.24388" lon="5.04132">
        <ele>189</ele>
        <time>2018-02-21T09:07:46Z</time>
      </trkpt>
      <trkpt lat="44.2439" lon="5.04141">
        <ele>189</ele>
        <time>2018-02-21T09:07:48Z</time>
      </trkpt>
      <trkpt lat="44.24393" lon="5.04152">
        <ele>189</ele>
        <time>2018-02-21T09:07:50Z</time>
      </trkpt>
      <trkpt lat="44.24397" lon="5.04165">
        <ele>190</ele>
        <time>2018-02-21T09:07:52Z</time>
      </trkpt>
      <trkpt lat="44.244" lon="5.04188">
        <ele>190</ele>
        <time>2018-02-21T09:07:55Z</time>
      </trkpt>
      <trkpt lat="44.24404" lon="5.04211">
        <ele>191</ele>
        <time>2018-02-21T09:07:58Z</time>
      </trkpt>
      <trkpt lat="44.24406" lon="5.04227">
        <ele>191</ele>
        <time>2018-02-21T09:08:00Z</time>
      </trkpt>
      <trkpt lat="44.2441" lon="5.04249">
        <ele>191</ele>
        <time>2018-02-21T09:08:03Z</time>
      </trkpt>
      <trkpt lat="44.24414" lon="5.04273">
        <ele>190</ele>
        <time>2018-02-21T09:08:06Z</time>
      </trkpt>
      <trkpt lat="44.24417" lon="5.04295">
        <ele>190</ele>
        <time>2018-02-21T09:08:09Z</time>
      </trkpt>
      <trkpt lat="44.24421" lon="5.04318">
        <ele>189</ele>
        <time>2018-02-21T09:08:12Z</time>
      </trkpt>
      <trkpt lat="44.24425" lon="5.0434">
        <ele>189</ele>
        <time>2018-02-21T09:08:15Z</time>
      </trkpt>
      <trkpt lat="44.24427" lon="5.04354">
        <ele>190</ele>
        <time>2018-02-21T09:08:17Z</time>
      </trkpt>
      <trkpt lat="44.24429" lon="5.04368">
        <ele>190</ele>
        <time>2018-02-21T09:08:19Z</time>
      </trkpt>
      <trkpt lat="44.24432" lon="5.04384">
        <ele>190</ele>
        <time>2018-02-21T09:08:21Z</time>
      </trkpt>
      <trkpt lat="44.24436" lon="5.04409">
        <ele>190</ele>
        <time>2018-02-21T09:08:24Z</time>
      </trkpt>
      <trkpt lat="44.24439" lon="5.04424">
        <ele>189</ele>
        <time>2018-02-21T09:08:26Z</time>
      </trkpt>
      <trkpt lat="44.24442" lon="5.04439">
        <ele>189</ele>
        <time>2018-02-21T09:08:28Z</time>
      </trkpt>
      <trkpt lat="44.24444" lon="5.04455">
        <ele>189</ele>
        <time>2018-02-21T09:08:30Z</time>
      </trkpt>
      <trkpt lat="44.24448" lon="5.0448">
        <ele>189</ele>
        <time>2018-02-21T09:08:33Z</time>
      </trkpt>
      <trkpt lat="44.24451" lon="5.04496">
        <ele>190</ele>
        <time>2018-02-21T09:08:35Z</time>
      </trkpt>
      <trkpt lat="44.24455" lon="5.04519">
        <ele>189</ele>
        <time>2018-02-21T09:08:38Z</time>
      </trkpt>
      <trkpt lat="44.24456" lon="5.04533">
        <ele>188</ele>
        <time>2018-02-21T09:08:40Z</time>
      </trkpt>
      <trkpt lat="44.24458" lon="5.04555">
        <ele>186</ele>
        <time>2018-02-21T09:08:43Z</time>
      </trkpt>
      <trkpt lat="44.24458" lon="5.04568">
        <ele>186</ele>
        <time>2018-02-21T09:08:45Z</time>
      </trkpt>
      <trkpt lat="44.24459" lon="5.04582">
        <ele>186</ele>
        <time>2018-02-21T09:08:47Z</time>
      </trkpt>
      <trkpt lat="44.24459" lon="5.04596">
        <ele>186</ele>
        <time>2018-02-21T09:08:49Z</time>
      </trkpt>
      <trkpt lat="44.24459" lon="5.04617">
        <ele>187</ele>
        <time>2018-02-21T09:08:52Z</time>
      </trkpt>
      <trkpt lat="44.24458" lon="5.04636">
        <ele>186</ele>
        <time>2018-02-21T09:08:55Z</time>
      </trkpt>
      <trkpt lat="44.24457" lon="5.04648">
        <ele>186</ele>
        <time>2018-02-21T09:08:57Z</time>
      </trkpt>
      <trkpt lat="44.24455" lon="5.04661">
        <ele>186</ele>
        <time>2018-02-21T09:08:59Z</time>
      </trkpt>
      <trkpt lat="44.24453" lon="5.04674">
        <ele>186</ele>
        <time>2018-02-21T09:09:01Z</time>
      </trkpt>
      <trkpt lat="44.24449" lon="5.04694">
        <ele>187</ele>
        <time>2018-02-21T09:09:04Z</time>
      </trkpt>
      <trkpt lat="44.24447" lon="5.04707">
        <ele>187</ele>
        <time>2018-02-21T09:09:06Z</time>
      </trkpt>
      <trkpt lat="44.24444" lon="5.04719">
        <ele>188</ele>
        <time>2018-02-21T09:09:08Z</time>
      </trkpt>
      <trkpt lat="44.24441" lon="5.04731">
        <ele>188</ele>
        <time>2018-02-21T09:09:10Z</time>
      </trkpt>
      <trkpt lat="44.24435" lon="5.04749">
        <ele>188</ele>
        <time>2018-02-21T09:09:13Z</time>
      </trkpt>
      <trkpt lat="44.24432" lon="5.04761">
        <ele>188</ele>
        <time>2018-02-21T09:09:15Z</time>
      </trkpt>
      <trkpt lat="44.2443" lon="5.04769">
        <ele>187</ele>
        <time>2018-02-21T09:09:17Z</time>
      </trkpt>
      <trkpt lat="44.24424" lon="5.04785">
        <ele>188</ele>
        <time>2018-02-21T09:09:20Z</time>
      </trkpt>
      <trkpt lat="44.24416" lon="5.04802">
        <ele>188</ele>
        <time>2018-02-21T09:09:23Z</time>
      </trkpt>
      <trkpt lat="44.2441" lon="5.04812">
        <ele>188</ele>
        <time>2018-02-21T09:09:25Z</time>
      </trkpt>
      <trkpt lat="44.24404" lon="5.04822">
        <ele>188</ele>
        <time>2018-02-21T09:09:27Z</time>
      </trkpt>
      <trkpt lat="44.24394" lon="5.04839">
        <ele>187</ele>
        <time>2018-02-21T09:09:30Z</time>
      </trkpt>
      <trkpt lat="44.24387" lon="5.04849">
        <ele>187</ele>
        <time>2018-02-21T09:09:32Z</time>
      </trkpt>
      <trkpt lat="44.24376" lon="5.04863">
        <ele>187</ele>
        <time>2018-02-21T09:09:35Z</time>
      </trkpt>
      <trkpt lat="44.24368" lon="5.04872">
        <ele>187</ele>
        <time>2018-02-21T09:09:37Z</time>
      </trkpt>
      <trkpt lat="44.24355" lon="5.04885">
        <ele>187</ele>
        <time>2018-02-21T09:09:40Z</time>
      </trkpt>
      <trkpt lat="44.24341" lon="5.04898">
        <ele>187</ele>
        <time>2018-02-21T09:09:43Z</time>
      </trkpt>
      <trkpt lat="44.24327" lon="5.0491">
        <ele>188</ele>
        <time>2018-02-21T09:09:46Z</time>
      </trkpt>
      <trkpt lat="44.24317" lon="5.04917">
        <ele>188</ele>
        <time>2018-02-21T09:09:48Z</time>
      </trkpt>
      <trkpt lat="44.24303" lon="5.04927">
        <ele>187</ele>
        <time>2018-02-21T09:09:51Z</time>
      </trkpt>
      <trkpt lat="44.24288" lon="5.04936">
        <ele>187</ele>
        <time>2018-02-21T09:09:54Z</time>
      </trkpt>
      <trkpt lat="44.24277" lon="5.0494">
        <ele>187</ele>
        <time>2018-02-21T09:09:56Z</time>
      </trkpt>
      <trkpt lat="44.24262" lon="5.04947">
        <ele>187</ele>
        <time>2018-02-21T09:09:59Z</time>
      </trkpt>
      <trkpt lat="44.24246" lon="5.04952">
        <ele>187</ele>
        <time>2018-02-21T09:10:02Z</time>
      </trkpt>
      <trkpt lat="44.24231" lon="5.04956">
        <ele>187</ele>
        <time>2018-02-21T09:10:05Z</time>
      </trkpt>
      <trkpt lat="44.24215" lon="5.04958">
        <ele>188</ele>
        <time>2018-02-21T09:10:08Z</time>
      </trkpt>
      <trkpt lat="44.24199" lon="5.04959">
        <ele>188</ele>
        <time>2018-02-21T09:10:11Z</time>
      </trkpt>
      <trkpt lat="44.24189" lon="5.04959">
        <ele>188</ele>
        <time>2018-02-21T09:10:13Z</time>
      </trkpt>
      <trkpt lat="44.24178" lon="5.04959">
        <ele>188</ele>
        <time>2018-02-21T09:10:15Z</time>
      </trkpt>
      <trkpt lat="44.24163" lon="5.04958">
        <ele>188</ele>
        <time>2018-02-21T09:10:18Z</time>
      </trkpt>
      <trkpt lat="44.24152" lon="5.04958">
        <ele>188</ele>
        <time>2018-02-21T09:10:20Z</time>
      </trkpt>
      <trkpt lat="44.24137" lon="5.04957">
        <ele>188</ele>
        <time>2018-02-21T09:10:23Z</time>
      </trkpt>
      <trkpt lat="44.24127" lon="5.04956">
        <ele>189</ele>
        <time>2018-02-21T09:10:25Z</time>
      </trkpt>
      <trkpt lat="44.24117" lon="5.04956">
        <ele>189</ele>
        <time>2018-02-21T09:10:27Z</time>
      </trkpt>
      <trkpt lat="44.24108" lon="5.04955">
        <ele>189</ele>
        <time>2018-02-21T09:10:29Z</time>
      </trkpt>
      <trkpt lat="44.24098" lon="5.04955">
        <ele>189</ele>
        <time>2018-02-21T09:10:31Z</time>
      </trkpt>
      <trkpt lat="44.24083" lon="5.04954">
        <ele>189</ele>
        <time>2018-02-21T09:10:34Z</time>
      </trkpt>
      <trkpt lat="44.24073" lon="5.04954">
        <ele>189</ele>
        <time>2018-02-21T09:10:36Z</time>
      </trkpt>
      <trkpt lat="44.24063" lon="5.04954">
        <ele>189</ele>
        <time>2018-02-21T09:10:38Z</time>
      </trkpt>
      <trkpt lat="44.24047" lon="5.04955">
        <ele>189</ele>
        <time>2018-02-21T09:10:41Z</time>
      </trkpt>
      <trkpt lat="44.24037" lon="5.04957">
        <ele>190</ele>
        <time>2018-02-21T09:10:43Z</time>
      </trkpt>
      <trkpt lat="44.24022" lon="5.0496">
        <ele>189</ele>
        <time>2018-02-21T09:10:46Z</time>
      </trkpt>
      <trkpt lat="44.24012" lon="5.04963">
        <ele>189</ele>
        <time>2018-02-21T09:10:48Z</time>
      </trkpt>
      <trkpt lat="44.23998" lon="5.04967">
        <ele>189</ele>
        <time>2018-02-21T09:10:51Z</time>
      </trkpt>
      <trkpt lat="44.23984" lon="5.04973">
        <ele>189</ele>
        <time>2018-02-21T09:10:54Z</time>
      </trkpt>
      <trkpt lat="44.2397" lon="5.0498">
        <ele>190</ele>
        <time>2018-02-21T09:10:57Z</time>
      </trkpt>
      <trkpt lat="44.23956" lon="5.04987">
        <ele>189</ele>
        <time>2018-02-21T09:11:00Z</time>
      </trkpt>
      <trkpt lat="44.23948" lon="5.04993">
        <ele>189</ele>
        <time>2018-02-21T09:11:02Z</time>
      </trkpt>
      <trkpt lat="44.23939" lon="5.05">
        <ele>190</ele>
        <time>2018-02-21T09:11:04Z</time>
      </trkpt>
      <trkpt lat="44.23926" lon="5.05011">
        <ele>190</ele>
        <time>2018-02-21T09:11:07Z</time>
      </trkpt>
      <trkpt lat="44.23913" lon="5.05023">
        <ele>190</ele>
        <time>2018-02-21T09:11:10Z</time>
      </trkpt>
      <trkpt lat="44.23901" lon="5.05035">
        <ele>191</ele>
        <time>2018-02-21T09:11:13Z</time>
      </trkpt>
      <trkpt lat="44.2389" lon="5.05048">
        <ele>191</ele>
        <time>2018-02-21T09:11:16Z</time>
      </trkpt>
      <trkpt lat="44.23879" lon="5.05063">
        <ele>191</ele>
        <time>2018-02-21T09:11:19Z</time>
      </trkpt>
      <trkpt lat="44.23869" lon="5.05076">
        <ele>191</ele>
        <time>2018-02-21T09:11:22Z</time>
      </trkpt>
      <trkpt lat="44.23862" lon="5.05087">
        <ele>192</ele>
        <time>2018-02-21T09:11:24Z</time>
      </trkpt>
      <trkpt lat="44.23853" lon="5.05102">
        <ele>192</ele>
        <time>2018-02-21T09:11:27Z</time>
      </trkpt>
      <trkpt lat="44.23845" lon="5.05118">
        <ele>192</ele>
        <time>2018-02-21T09:11:30Z</time>
      </trkpt>
      <trkpt lat="44.2384" lon="5.05128">
        <ele>192</ele>
        <time>2018-02-21T09:11:32Z</time>
      </trkpt>
      <trkpt lat="44.23833" lon="5.05145">
        <ele>192</ele>
        <time>2018-02-21T09:11:35Z</time>
      </trkpt>
      <trkpt lat="44.23827" lon="5.0516">
        <ele>191</ele>
        <time>2018-02-21T09:11:38Z</time>
      </trkpt>
      <trkpt lat="44.23823" lon="5.0517">
        <ele>191</ele>
        <time>2018-02-21T09:11:40Z</time>
      </trkpt>
      <trkpt lat="44.23818" lon="5.05184">
        <ele>190</ele>
        <time>2018-02-21T09:11:43Z</time>
      </trkpt>
      <trkpt lat="44.23816" lon="5.05192">
        <ele>190</ele>
        <time>2018-02-21T09:11:45Z</time>
      </trkpt>
      <trkpt lat="44.23814" lon="5.05203">
        <ele>191</ele>
        <time>2018-02-21T09:11:47Z</time>
      </trkpt>
      <trkpt lat="44.2381" lon="5.05222">
        <ele>191</ele>
        <time>2018-02-21T09:11:50Z</time>
      </trkpt>
      <trkpt lat="44.23809" lon="5.05233">
        <ele>192</ele>
        <time>2018-02-21T09:11:52Z</time>
      </trkpt>
      <trkpt lat="44.23806" lon="5.05251">
        <ele>192</ele>
        <time>2018-02-21T09:11:55Z</time>
      </trkpt>
      <trkpt lat="44.23803" lon="5.05271">
        <ele>192</ele>
        <time>2018-02-21T09:11:58Z</time>
      </trkpt>
      <trkpt lat="44.238" lon="5.0529">
        <ele>193</ele>
        <time>2018-02-21T09:12:01Z</time>
      </trkpt>
      <trkpt lat="44.23799" lon="5.05308">
        <ele>193</ele>
        <time>2018-02-21T09:12:04Z</time>
      </trkpt>
      <trkpt lat="44.23798" lon="5.05325">
        <ele>193</ele>
        <time>2018-02-21T09:12:07Z</time>
      </trkpt>
      <trkpt lat="44.23797" lon="5.05336">
        <ele>192</ele>
        <time>2018-02-21T09:12:09Z</time>
      </trkpt>
      <trkpt lat="44.23795" lon="5.05351">
        <ele>192</ele>
        <time>2018-02-21T09:12:12Z</time>
      </trkpt>
      <trkpt lat="44.23792" lon="5.05362">
        <ele>193</ele>
        <time>2018-02-21T09:12:15Z</time>
      </trkpt>
      <trkpt lat="44.23788" lon="5.05369">
        <ele>193</ele>
        <time>2018-02-21T09:12:17Z</time>
      </trkpt>
      <trkpt lat="44.2378" lon="5.0538">
        <ele>193</ele>
        <time>2018-02-21T09:12:20Z</time>
      </trkpt>
      <trkpt lat="44.23781" lon="5.05396">
        <ele>193</ele>
        <time>2018-02-21T09:12:23Z</time>
      </trkpt>
      <trkpt lat="44.23786" lon="5.05407">
        <ele>193</ele>
        <time>2018-02-21T09:12:25Z</time>
      </trkpt>
      <trkpt lat="44.23789" lon="5.0543">
        <ele>193</ele>
        <time>2018-02-21T09:12:28Z</time>
      </trkpt>
      <trkpt lat="44.2379" lon="5.05445">
        <ele>193</ele>
        <time>2018-02-21T09:12:30Z</time>
      </trkpt>
      <trkpt lat="44.23792" lon="5.05468">
        <ele>193</ele>
        <time>2018-02-21T09:12:33Z</time>
      </trkpt>
      <trkpt lat="44.23792" lon="5.05483">
        <ele>193</ele>
        <time>2018-02-21T09:12:35Z</time>
      </trkpt>
      <trkpt lat="44.23792" lon="5.05497">
        <ele>193</ele>
        <time>2018-02-21T09:12:37Z</time>
      </trkpt>
      <trkpt lat="44.23792" lon="5.0552">
        <ele>193</ele>
        <time>2018-02-21T09:12:40Z</time>
      </trkpt>
      <trkpt lat="44.23792" lon="5.05545">
        <ele>193</ele>
        <time>2018-02-21T09:12:43Z</time>
      </trkpt>
      <trkpt lat="44.23792" lon="5.05569">
        <ele>193</ele>
        <time>2018-02-21T09:12:46Z</time>
      </trkpt>
      <trkpt lat="44.23791" lon="5.05592">
        <ele>192</ele>
        <time>2018-02-21T09:12:49Z</time>
      </trkpt>
      <trkpt lat="44.23793" lon="5.05607">
        <ele>192</ele>
        <time>2018-02-21T09:12:51Z</time>
      </trkpt>
      <trkpt lat="44.23794" lon="5.05628">
        <ele>192</ele>
        <time>2018-02-21T09:12:54Z</time>
      </trkpt>
      <trkpt lat="44.23794" lon="5.05642">
        <ele>192</ele>
        <time>2018-02-21T09:12:56Z</time>
      </trkpt>
      <trkpt lat="44.23791" lon="5.05662">
        <ele>192</ele>
        <time>2018-02-21T09:12:59Z</time>
      </trkpt>
      <trkpt lat="44.2379" lon="5.05675">
        <ele>192</ele>
        <time>2018-02-21T09:13:01Z</time>
      </trkpt>
      <trkpt lat="44.23788" lon="5.05687">
        <ele>192</ele>
        <time>2018-02-21T09:13:03Z</time>
      </trkpt>
      <trkpt lat="44.23787" lon="5.05703">
        <ele>192</ele>
        <time>2018-02-21T09:13:06Z</time>
      </trkpt>
      <trkpt lat="44.23788" lon="5.05714">
        <ele>193</ele>
        <time>2018-02-21T09:13:08Z</time>
      </trkpt>
      <trkpt lat="44.23792" lon="5.05727">
        <ele>193</ele>
        <time>2018-02-21T09:13:11Z</time>
      </trkpt>
      <trkpt lat="44.23795" lon="5.05738">
        <ele>194</ele>
        <time>2018-02-21T09:13:14Z</time>
      </trkpt>
      <trkpt lat="44.23796" lon="5.05747">
        <ele>194</ele>
        <time>2018-02-21T09:13:17Z</time>
      </trkpt>
      <trkpt lat="44.23796" lon="5.05754">
        <ele>195</ele>
        <time>2018-02-21T09:13:19Z</time>
      </trkpt>
      <trkpt lat="44.23798" lon="5.0576">
        <ele>195</ele>
        <time>2018-02-21T09:13:21Z</time>
      </trkpt>
      <trkpt lat="44.238" lon="5.05768">
        <ele>195</ele>
        <time>2018-02-21T09:13:24Z</time>
      </trkpt>
      <trkpt lat="44.23802" lon="5.05773">
        <ele>196</ele>
        <time>2018-02-21T09:13:26Z</time>
      </trkpt>
      <trkpt lat="44.23804" lon="5.05788">
        <ele>197</ele>
        <time>2018-02-21T09:13:29Z</time>
      </trkpt>
      <trkpt lat="44.23806" lon="5.05805">
        <ele>198</ele>
        <time>2018-02-21T09:13:32Z</time>
      </trkpt>
      <trkpt lat="44.23807" lon="5.05818">
        <ele>198</ele>
        <time>2018-02-21T09:13:34Z</time>
      </trkpt>
      <trkpt lat="44.23808" lon="5.0583">
        <ele>199</ele>
        <time>2018-02-21T09:13:36Z</time>
      </trkpt>
      <trkpt lat="44.23808" lon="5.05847">
        <ele>198</ele>
        <time>2018-02-21T09:13:39Z</time>
      </trkpt>
      <trkpt lat="44.23809" lon="5.05858">
        <ele>198</ele>
        <time>2018-02-21T09:13:41Z</time>
      </trkpt>
      <trkpt lat="44.23809" lon="5.05869">
        <ele>198</ele>
        <time>2018-02-21T09:13:43Z</time>
      </trkpt>
      <trkpt lat="44.2381" lon="5.0588">
        <ele>198</ele>
        <time>2018-02-21T09:13:45Z</time>
      </trkpt>
      <trkpt lat="44.23812" lon="5.05895">
        <ele>198</ele>
        <time>2018-02-21T09:13:48Z</time>
      </trkpt>
      <trkpt lat="44.23814" lon="5.05911">
        <ele>198</ele>
        <time>2018-02-21T09:13:51Z</time>
      </trkpt>
      <trkpt lat="44.23816" lon="5.05921">
        <ele>198</ele>
        <time>2018-02-21T09:13:53Z</time>
      </trkpt>
      <trkpt lat="44.23818" lon="5.05936">
        <ele>198</ele>
        <time>2018-02-21T09:13:56Z</time>
      </trkpt>
      <trkpt lat="44.23822" lon="5.05952">
        <ele>198</ele>
        <time>2018-02-21T09:13:59Z</time>
      </trkpt>
      <trkpt lat="44.23825" lon="5.05968">
        <ele>198</ele>
        <time>2018-02-21T09:14:02Z</time>
      </trkpt>
      <trkpt lat="44.23829" lon="5.05984">
        <ele>199</ele>
        <time>2018-02-21T09:14:05Z</time>
      </trkpt>
      <trkpt lat="44.23832" lon="5.05999">
        <ele>199</ele>
        <time>2018-02-21T09:14:08Z</time>
      </trkpt>
      <trkpt lat="44.23836" lon="5.06015">
        <ele>199</ele>
        <time>2018-02-21T09:14:11Z</time>
      </trkpt>
      <trkpt lat="44.2384" lon="5.06032">
        <ele>200</ele>
        <time>2018-02-21T09:14:14Z</time>
      </trkpt>
      <trkpt lat="44.23844" lon="5.06044">
        <ele>200</ele>
        <time>2018-02-21T09:14:16Z</time>
      </trkpt>
      <trkpt lat="44.23848" lon="5.06054">
        <ele>200</ele>
        <time>2018-02-21T09:14:18Z</time>
      </trkpt>
      <trkpt lat="44.23855" lon="5.06071">
        <ele>200</ele>
        <time>2018-02-21T09:14:21Z</time>
      </trkpt>
      <trkpt lat="44.23864" lon="5.06085">
        <ele>201</ele>
        <time>2018-02-21T09:14:24Z</time>
      </trkpt>
      <trkpt lat="44.23875" lon="5.06098">
        <ele>201</ele>
        <time>2018-02-21T09:14:27Z</time>
      </trkpt>
      <trkpt lat="44.23888" lon="5.06107">
        <ele>201</ele>
        <time>2018-02-21T09:14:30Z</time>
      </trkpt>
      <trkpt lat="44.23902" lon="5.06114">
        <ele>200</ele>
        <time>2018-02-21T09:14:33Z</time>
      </trkpt>
      <trkpt lat="44.23916" lon="5.06122">
        <ele>200</ele>
        <time>2018-02-21T09:14:36Z</time>
      </trkpt>
      <trkpt lat="44.2393" lon="5.06129">
        <ele>200</ele>
        <time>2018-02-21T09:14:39Z</time>
      </trkpt>
      <trkpt lat="44.23939" lon="5.06133">
        <ele>201</ele>
        <time>2018-02-21T09:14:41Z</time>
      </trkpt>
      <trkpt lat="44.23949" lon="5.06138">
        <ele>201</ele>
        <time>2018-02-21T09:14:43Z</time>
      </trkpt>
      <trkpt lat="44.23964" lon="5.06145">
        <ele>202</ele>
        <time>2018-02-21T09:14:46Z</time>
      </trkpt>
      <trkpt lat="44.23978" lon="5.06153">
        <ele>202</ele>
        <time>2018-02-21T09:14:49Z</time>
      </trkpt>
      <trkpt lat="44.23988" lon="5.06159">
        <ele>202</ele>
        <time>2018-02-21T09:14:51Z</time>
      </trkpt>
      <trkpt lat="44.23997" lon="5.06167">
        <ele>202</ele>
        <time>2018-02-21T09:14:53Z</time>
      </trkpt>
      <trkpt lat="44.24011" lon="5.06179">
        <ele>202</ele>
        <time>2018-02-21T09:14:56Z</time>
      </trkpt>
      <trkpt lat="44.24019" lon="5.06189">
        <ele>202</ele>
        <time>2018-02-21T09:14:58Z</time>
      </trkpt>
      <trkpt lat="44.2403" lon="5.06205">
        <ele>202</ele>
        <time>2018-02-21T09:15:01Z</time>
      </trkpt>
      <trkpt lat="44.24037" lon="5.06215">
        <ele>202</ele>
        <time>2018-02-21T09:15:03Z</time>
      </trkpt>
      <trkpt lat="44.24047" lon="5.06232">
        <ele>203</ele>
        <time>2018-02-21T09:15:06Z</time>
      </trkpt>
      <trkpt lat="44.24053" lon="5.06243">
        <ele>203</ele>
        <time>2018-02-21T09:15:08Z</time>
      </trkpt>
      <trkpt lat="44.24061" lon="5.06261">
        <ele>203</ele>
        <time>2018-02-21T09:15:11Z</time>
      </trkpt>
      <trkpt lat="44.24065" lon="5.06275">
        <ele>203</ele>
        <time>2018-02-21T09:15:13Z</time>
      </trkpt>
      <trkpt lat="44.24068" lon="5.06296">
        <ele>204</ele>
        <time>2018-02-21T09:15:16Z</time>
      </trkpt>
      <trkpt lat="44.2407" lon="5.06317">
        <ele>204</ele>
        <time>2018-02-21T09:15:19Z</time>
      </trkpt>
      <trkpt lat="44.24072" lon="5.06339">
        <ele>205</ele>
        <time>2018-02-21T09:15:22Z</time>
      </trkpt>
      <trkpt lat="44.24073" lon="5.0636">
        <ele>204</ele>
        <time>2018-02-21T09:15:25Z</time>
      </trkpt>
      <trkpt lat="44.24074" lon="5.06375">
        <ele>205</ele>
        <time>2018-02-21T09:15:27Z</time>
      </trkpt>
      <trkpt lat="44.24075" lon="5.06396">
        <ele>204</ele>
        <time>2018-02-21T09:15:30Z</time>
      </trkpt>
      <trkpt lat="44.24076" lon="5.0641">
        <ele>204</ele>
        <time>2018-02-21T09:15:32Z</time>
      </trkpt>
      <trkpt lat="44.24078" lon="5.06431">
        <ele>204</ele>
        <time>2018-02-21T09:15:35Z</time>
      </trkpt>
      <trkpt lat="44.2408" lon="5.06444">
        <ele>204</ele>
        <time>2018-02-21T09:15:37Z</time>
      </trkpt>
      <trkpt lat="44.24082" lon="5.06465">
        <ele>202</ele>
        <time>2018-02-21T09:15:40Z</time>
      </trkpt>
      <trkpt lat="44.24083" lon="5.06478">
        <ele>201</ele>
        <time>2018-02-21T09:15:42Z</time>
      </trkpt>
      <trkpt lat="44.24084" lon="5.06498">
        <ele>201</ele>
        <time>2018-02-21T09:15:45Z</time>
      </trkpt>
      <trkpt lat="44.24086" lon="5.06518">
        <ele>201</ele>
        <time>2018-02-21T09:15:48Z</time>
      </trkpt>
      <trkpt lat="44.24088" lon="5.06531">
        <ele>202</ele>
        <time>2018-02-21T09:15:50Z</time>
      </trkpt>
      <trkpt lat="44.24089" lon="5.06545">
        <ele>203</ele>
        <time>2018-02-21T09:15:52Z</time>
      </trkpt>
      <trkpt lat="44.24089" lon="5.06565">
        <ele>203</ele>
        <time>2018-02-21T09:15:55Z</time>
      </trkpt>
      <trkpt lat="44.24089" lon="5.06585">
        <ele>202</ele>
        <time>2018-02-21T09:15:58Z</time>
      </trkpt>
      <trkpt lat="44.24089" lon="5.06599">
        <ele>201</ele>
        <time>2018-02-21T09:16:00Z</time>
      </trkpt>
      <trkpt lat="44.24091" lon="5.06618">
        <ele>200</ele>
        <time>2018-02-21T09:16:03Z</time>
      </trkpt>
      <trkpt lat="44.24092" lon="5.06639">
        <ele>200</ele>
        <time>2018-02-21T09:16:06Z</time>
      </trkpt>
      <trkpt lat="44.24092" lon="5.06653">
        <ele>201</ele>
        <time>2018-02-21T09:16:08Z</time>
      </trkpt>
      <trkpt lat="44.24092" lon="5.06675">
        <ele>201</ele>
        <time>2018-02-21T09:16:11Z</time>
      </trkpt>
      <trkpt lat="44.24093" lon="5.06689">
        <ele>201</ele>
        <time>2018-02-21T09:16:13Z</time>
      </trkpt>
      <trkpt lat="44.24094" lon="5.0671">
        <ele>200</ele>
        <time>2018-02-21T09:16:16Z</time>
      </trkpt>
      <trkpt lat="44.24095" lon="5.06725">
        <ele>200</ele>
        <time>2018-02-21T09:16:18Z</time>
      </trkpt>
      <trkpt lat="44.24096" lon="5.06744">
        <ele>200</ele>
        <time>2018-02-21T09:16:21Z</time>
      </trkpt>
      <trkpt lat="44.24096" lon="5.06766">
        <ele>200</ele>
        <time>2018-02-21T09:16:24Z</time>
      </trkpt>
      <trkpt lat="44.24096" lon="5.06781">
        <ele>200</ele>
        <time>2018-02-21T09:16:26Z</time>
      </trkpt>
      <trkpt lat="44.24097" lon="5.06803">
        <ele>200</ele>
        <time>2018-02-21T09:16:29Z</time>
      </trkpt>
      <trkpt lat="44.24097" lon="5.06816">
        <ele>200</ele>
        <time>2018-02-21T09:16:31Z</time>
      </trkpt>
      <trkpt lat="44.24096" lon="5.06828">
        <ele>201</ele>
        <time>2018-02-21T09:16:33Z</time>
      </trkpt>
      <trkpt lat="44.24096" lon="5.06846">
        <ele>201</ele>
        <time>2018-02-21T09:16:36Z</time>
      </trkpt>
      <trkpt lat="44.24097" lon="5.06859">
        <ele>201</ele>
        <time>2018-02-21T09:16:38Z</time>
      </trkpt>
      <trkpt lat="44.24098" lon="5.06879">
        <ele>201</ele>
        <time>2018-02-21T09:16:41Z</time>
      </trkpt>
      <trkpt lat="44.24099" lon="5.06891">
        <ele>201</ele>
        <time>2018-02-21T09:16:43Z</time>
      </trkpt>
      <trkpt lat="44.24099" lon="5.06901">
        <ele>201</ele>
        <time>2018-02-21T09:16:45Z</time>
      </trkpt>
      <trkpt lat="44.24099" lon="5.06918">
        <ele>201</ele>
        <time>2018-02-21T09:16:48Z</time>
      </trkpt>
      <trkpt lat="44.24099" lon="5.0693">
        <ele>202</ele>
        <time>2018-02-21T09:16:50Z</time>
      </trkpt>
      <trkpt lat="44.241" lon="5.06947">
        <ele>202</ele>
        <time>2018-02-21T09:16:53Z</time>
      </trkpt>
      <trkpt lat="44.24101" lon="5.06958">
        <ele>202</ele>
        <time>2018-02-21T09:16:55Z</time>
      </trkpt>
      <trkpt lat="44.24098" lon="5.06974">
        <ele>201</ele>
        <time>2018-02-21T09:16:58Z</time>
      </trkpt>
      <trkpt lat="44.2409" lon="5.06985">
        <ele>202</ele>
        <time>2018-02-21T09:17:01Z</time>
      </trkpt>
      <trkpt lat="44.24083" lon="5.0699">
        <ele>202</ele>
        <time>2018-02-21T09:17:03Z</time>
      </trkpt>
      <trkpt lat="44.24072" lon="5.07001">
        <ele>202</ele>
        <time>2018-02-21T09:17:06Z</time>
      </trkpt>
      <trkpt lat="44.24067" lon="5.07012">
        <ele>202</ele>
        <time>2018-02-21T09:17:08Z</time>
      </trkpt>
      <trkpt lat="44.24062" lon="5.07028">
        <ele>202</ele>
        <time>2018-02-21T09:17:11Z</time>
      </trkpt>
      <trkpt lat="44.24059" lon="5.07043">
        <ele>202</ele>
        <time>2018-02-21T09:17:14Z</time>
      </trkpt>
      <trkpt lat="44.24054" lon="5.07059">
        <ele>202</ele>
        <time>2018-02-21T09:17:17Z</time>
      </trkpt>
      <trkpt lat="44.24049" lon="5.07078">
        <ele>202</ele>
        <time>2018-02-21T09:17:20Z</time>
      </trkpt>
      <trkpt lat="44.24046" lon="5.07089">
        <ele>202</ele>
        <time>2018-02-21T09:17:22Z</time>
      </trkpt>
      <trkpt lat="44.24042" lon="5.07104">
        <ele>202</ele>
        <time>2018-02-21T09:17:25Z</time>
      </trkpt>
      <trkpt lat="44.24039" lon="5.07116">
        <ele>202</ele>
        <time>2018-02-21T09:17:27Z</time>
      </trkpt>
      <trkpt lat="44.24035" lon="5.07133">
        <ele>203</ele>
        <time>2018-02-21T09:17:30Z</time>
      </trkpt>
      <trkpt lat="44.24033" lon="5.07145">
        <ele>203</ele>
        <time>2018-02-21T09:17:32Z</time>
      </trkpt>
      <trkpt lat="44.24031" lon="5.07163">
        <ele>204</ele>
        <time>2018-02-21T09:17:35Z</time>
      </trkpt>
      <trkpt lat="44.24029" lon="5.07182">
        <ele>204</ele>
        <time>2018-02-21T09:17:38Z</time>
      </trkpt>
      <trkpt lat="44.24027" lon="5.072">
        <ele>203</ele>
        <time>2018-02-21T09:17:41Z</time>
      </trkpt>
      <trkpt lat="44.24024" lon="5.07217">
        <ele>203</ele>
        <time>2018-02-21T09:17:44Z</time>
      </trkpt>
      <trkpt lat="44.24021" lon="5.07235">
        <ele>204</ele>
        <time>2018-02-21T09:17:47Z</time>
      </trkpt>
      <trkpt lat="44.24019" lon="5.07246">
        <ele>204</ele>
        <time>2018-02-21T09:17:49Z</time>
      </trkpt>
      <trkpt lat="44.24018" lon="5.07256">
        <ele>204</ele>
        <time>2018-02-21T09:17:51Z</time>
      </trkpt>
      <trkpt lat="44.24014" lon="5.07274">
        <ele>205</ele>
        <time>2018-02-21T09:17:54Z</time>
      </trkpt>
      <trkpt lat="44.24012" lon="5.07289">
        <ele>205</ele>
        <time>2018-02-21T09:17:57Z</time>
      </trkpt>
      <trkpt lat="44.24009" lon="5.07305">
        <ele>205</ele>
        <time>2018-02-21T09:18:00Z</time>
      </trkpt>
      <trkpt lat="44.24006" lon="5.07316">
        <ele>205</ele>
        <time>2018-02-21T09:18:02Z</time>
      </trkpt>
      <trkpt lat="44.24004" lon="5.07331">
        <ele>205</ele>
        <time>2018-02-21T09:18:05Z</time>
      </trkpt>
      <trkpt lat="44.24001" lon="5.07341">
        <ele>205</ele>
        <time>2018-02-21T09:18:07Z</time>
      </trkpt>
      <trkpt lat="44.23996" lon="5.07357">
        <ele>205</ele>
        <time>2018-02-21T09:18:09Z</time>
      </trkpt>
      <trkpt lat="44.23992" lon="5.07368">
        <ele>206</ele>
        <time>2018-02-21T09:18:12Z</time>
      </trkpt>
      <trkpt lat="44.23987" lon="5.07378">
        <ele>206</ele>
        <time>2018-02-21T09:18:14Z</time>
      </trkpt>
      <trkpt lat="44.23982" lon="5.07393">
        <ele>207</ele>
        <time>2018-02-21T09:18:17Z</time>
      </trkpt>
      <trkpt lat="44.23977" lon="5.07402">
        <ele>207</ele>
        <time>2018-02-21T09:18:19Z</time>
      </trkpt>
      <trkpt lat="44.23969" lon="5.07416">
        <ele>207</ele>
        <time>2018-02-21T09:18:22Z</time>
      </trkpt>
      <trkpt lat="44.23964" lon="5.07426">
        <ele>207</ele>
        <time>2018-02-21T09:18:24Z</time>
      </trkpt>
      <trkpt lat="44.23959" lon="5.07439">
        <ele>207</ele>
        <time>2018-02-21T09:18:27Z</time>
      </trkpt>
      <trkpt lat="44.23953" lon="5.0745">
        <ele>208</ele>
        <time>2018-02-21T09:18:30Z</time>
      </trkpt>
      <trkpt lat="44.23947" lon="5.07454">
        <ele>209</ele>
        <time>2018-02-21T09:18:32Z</time>
      </trkpt>
      <trkpt lat="44.23941" lon="5.07458">
        <ele>209</ele>
        <time>2018-02-21T09:18:34Z</time>
      </trkpt>
      <trkpt lat="44.2393" lon="5.07463">
        <ele>209</ele>
        <time>2018-02-21T09:18:37Z</time>
      </trkpt>
      <trkpt lat="44.23917" lon="5.07468">
        <ele>209</ele>
        <time>2018-02-21T09:18:40Z</time>
      </trkpt>
      <trkpt lat="44.23908" lon="5.07483">
        <ele>209</ele>
        <time>2018-02-21T09:18:43Z</time>
      </trkpt>
      <trkpt lat="44.23901" lon="5.07494">
        <ele>210</ele>
        <time>2018-02-21T09:18:45Z</time>
      </trkpt>
      <trkpt lat="44.23895" lon="5.07505">
        <ele>209</ele>
        <time>2018-02-21T09:18:47Z</time>
      </trkpt>
      <trkpt lat="44.23883" lon="5.07526">
        <ele>209</ele>
        <time>2018-02-21T09:18:50Z</time>
      </trkpt>
      <trkpt lat="44.23872" lon="5.0755">
        <ele>209</ele>
        <time>2018-02-21T09:18:53Z</time>
      </trkpt>
      <trkpt lat="44.23862" lon="5.0758">
        <ele>208</ele>
        <time>2018-02-21T09:18:56Z</time>
      </trkpt>
      <trkpt lat="44.23852" lon="5.07609">
        <ele>208</ele>
        <time>2018-02-21T09:18:59Z</time>
      </trkpt>
      <trkpt lat="44.23843" lon="5.07636">
        <ele>208</ele>
        <time>2018-02-21T09:19:02Z</time>
      </trkpt>
      <trkpt lat="44.23834" lon="5.07659">
        <ele>208</ele>
        <time>2018-02-21T09:19:05Z</time>
      </trkpt>
      <trkpt lat="44.23826" lon="5.07679">
        <ele>209</ele>
        <time>2018-02-21T09:19:08Z</time>
      </trkpt>
      <trkpt lat="44.2382" lon="5.07693">
        <ele>209</ele>
        <time>2018-02-21T09:19:10Z</time>
      </trkpt>
      <trkpt lat="44.23811" lon="5.07713">
        <ele>210</ele>
        <time>2018-02-21T09:19:13Z</time>
      </trkpt>
      <trkpt lat="44.23802" lon="5.07734">
        <ele>210</ele>
        <time>2018-02-21T09:19:16Z</time>
      </trkpt>
      <trkpt lat="44.23797" lon="5.07747">
        <ele>209</ele>
        <time>2018-02-21T09:19:18Z</time>
      </trkpt>
      <trkpt lat="44.23792" lon="5.0776">
        <ele>209</ele>
        <time>2018-02-21T09:19:20Z</time>
      </trkpt>
      <trkpt lat="44.23788" lon="5.0778">
        <ele>209</ele>
        <time>2018-02-21T09:19:23Z</time>
      </trkpt>
      <trkpt lat="44.23786" lon="5.07799">
        <ele>209</ele>
        <time>2018-02-21T09:19:26Z</time>
      </trkpt>
      <trkpt lat="44.23785" lon="5.07812">
        <ele>209</ele>
        <time>2018-02-21T09:19:28Z</time>
      </trkpt>
      <trkpt lat="44.23786" lon="5.07833">
        <ele>209</ele>
        <time>2018-02-21T09:19:31Z</time>
      </trkpt>
      <trkpt lat="44.23787" lon="5.07846">
        <ele>209</ele>
        <time>2018-02-21T09:19:33Z</time>
      </trkpt>
      <trkpt lat="44.23788" lon="5.0786">
        <ele>209</ele>
        <time>2018-02-21T09:19:35Z</time>
      </trkpt>
      <trkpt lat="44.23788" lon="5.07881">
        <ele>209</ele>
        <time>2018-02-21T09:19:38Z</time>
      </trkpt>
      <trkpt lat="44.23788" lon="5.07895">
        <ele>209</ele>
        <time>2018-02-21T09:19:40Z</time>
      </trkpt>
      <trkpt lat="44.23788" lon="5.07908">
        <ele>210</ele>
        <time>2018-02-21T09:19:42Z</time>
      </trkpt>
      <trkpt lat="44.23788" lon="5.07922">
        <ele>210</ele>
        <time>2018-02-21T09:19:44Z</time>
      </trkpt>
      <trkpt lat="44.23791" lon="5.07943">
        <ele>210</ele>
        <time>2018-02-21T09:19:47Z</time>
      </trkpt>
      <trkpt lat="44.23794" lon="5.07965">
        <ele>210</ele>
        <time>2018-02-21T09:19:50Z</time>
      </trkpt>
      <trkpt lat="44.23793" lon="5.07978">
        <ele>210</ele>
        <time>2018-02-21T09:19:52Z</time>
      </trkpt>
      <trkpt lat="44.23793" lon="5.07992">
        <ele>210</ele>
        <time>2018-02-21T09:19:54Z</time>
      </trkpt>
      <trkpt lat="44.23791" lon="5.08011">
        <ele>212</ele>
        <time>2018-02-21T09:19:57Z</time>
      </trkpt>
      <trkpt lat="44.2379" lon="5.08024">
        <ele>212</ele>
        <time>2018-02-21T09:19:59Z</time>
      </trkpt>
      <trkpt lat="44.23787" lon="5.08037">
        <ele>212</ele>
        <time>2018-02-21T09:20:01Z</time>
      </trkpt>
      <trkpt lat="44.23782" lon="5.08054">
        <ele>212</ele>
        <time>2018-02-21T09:20:04Z</time>
      </trkpt>
      <trkpt lat="44.23777" lon="5.08066">
        <ele>212</ele>
        <time>2018-02-21T09:20:06Z</time>
      </trkpt>
      <trkpt lat="44.2377" lon="5.08083">
        <ele>212</ele>
        <time>2018-02-21T09:20:09Z</time>
      </trkpt>
      <trkpt lat="44.23761" lon="5.081">
        <ele>212</ele>
        <time>2018-02-21T09:20:12Z</time>
      </trkpt>
      <trkpt lat="44.23751" lon="5.08114">
        <ele>213</ele>
        <time>2018-02-21T09:20:15Z</time>
      </trkpt>
      <trkpt lat="44.2374" lon="5.08129">
        <ele>213</ele>
        <time>2018-02-21T09:20:18Z</time>
      </trkpt>
      <trkpt lat="44.23733" lon="5.08138">
        <ele>213</ele>
        <time>2018-02-21T09:20:20Z</time>
      </trkpt>
      <trkpt lat="44.23721" lon="5.08152">
        <ele>214</ele>
        <time>2018-02-21T09:20:23Z</time>
      </trkpt>
      <trkpt lat="44.2371" lon="5.08167">
        <ele>214</ele>
        <time>2018-02-21T09:20:26Z</time>
      </trkpt>
      <trkpt lat="44.237" lon="5.08184">
        <ele>214</ele>
        <time>2018-02-21T09:20:29Z</time>
      </trkpt>
      <trkpt lat="44.23694" lon="5.08197">
        <ele>214</ele>
        <time>2018-02-21T09:20:31Z</time>
      </trkpt>
      <trkpt lat="44.2369" lon="5.08211">
        <ele>214</ele>
        <time>2018-02-21T09:20:33Z</time>
      </trkpt>
      <trkpt lat="44.23688" lon="5.08231">
        <ele>214</ele>
        <time>2018-02-21T09:20:36Z</time>
      </trkpt>
      <trkpt lat="44.23689" lon="5.08244">
        <ele>214</ele>
        <time>2018-02-21T09:20:38Z</time>
      </trkpt>
      <trkpt lat="44.23691" lon="5.08265">
        <ele>214</ele>
        <time>2018-02-21T09:20:41Z</time>
      </trkpt>
      <trkpt lat="44.23694" lon="5.08285">
        <ele>215</ele>
        <time>2018-02-21T09:20:44Z</time>
      </trkpt>
      <trkpt lat="44.23698" lon="5.08307">
        <ele>214</ele>
        <time>2018-02-21T09:20:47Z</time>
      </trkpt>
      <trkpt lat="44.23697" lon="5.08329">
        <ele>214</ele>
        <time>2018-02-21T09:20:50Z</time>
      </trkpt>
      <trkpt lat="44.23692" lon="5.08341">
        <ele>214</ele>
        <time>2018-02-21T09:20:52Z</time>
      </trkpt>
      <trkpt lat="44.23684" lon="5.0836">
        <ele>214</ele>
        <time>2018-02-21T09:20:55Z</time>
      </trkpt>
      <trkpt lat="44.2368" lon="5.08373">
        <ele>214</ele>
        <time>2018-02-21T09:20:57Z</time>
      </trkpt>
      <trkpt lat="44.2368" lon="5.08397">
        <ele>214</ele>
        <time>2018-02-21T09:21:00Z</time>
      </trkpt>
      <trkpt lat="44.23683" lon="5.08422">
        <ele>213</ele>
        <time>2018-02-21T09:21:03Z</time>
      </trkpt>
      <trkpt lat="44.2368" lon="5.08448">
        <ele>213</ele>
        <time>2018-02-21T09:21:06Z</time>
      </trkpt>
      <trkpt lat="44.23671" lon="5.0847">
        <ele>212</ele>
        <time>2018-02-21T09:21:09Z</time>
      </trkpt>
      <trkpt lat="44.23665" lon="5.08484">
        <ele>213</ele>
        <time>2018-02-21T09:21:11Z</time>
      </trkpt>
      <trkpt lat="44.23655" lon="5.08502">
        <ele>212</ele>
        <time>2018-02-21T09:21:14Z</time>
      </trkpt>
      <trkpt lat="44.23646" lon="5.08518">
        <ele>212</ele>
        <time>2018-02-21T09:21:17Z</time>
      </trkpt>
      <trkpt lat="44.23639" lon="5.08528">
        <ele>212</ele>
        <time>2018-02-21T09:21:19Z</time>
      </trkpt>
      <trkpt lat="44.23631" lon="5.0854">
        <ele>213</ele>
        <time>2018-02-21T09:21:22Z</time>
      </trkpt>
      <trkpt lat="44.23622" lon="5.08554">
        <ele>214</ele>
        <time>2018-02-21T09:21:25Z</time>
      </trkpt>
      <trkpt lat="44.23615" lon="5.08568">
        <ele>214</ele>
        <time>2018-02-21T09:21:28Z</time>
      </trkpt>
      <trkpt lat="44.23608" lon="5.08584">
        <ele>215</ele>
        <time>2018-02-21T09:21:31Z</time>
      </trkpt>
      <trkpt lat="44.23602" lon="5.086">
        <ele>216</ele>
        <time>2018-02-21T09:21:34Z</time>
      </trkpt>
      <trkpt lat="44.23596" lon="5.08616">
        <ele>217</ele>
        <time>2018-02-21T09:21:37Z</time>
      </trkpt>
      <trkpt lat="44.2359" lon="5.08632">
        <ele>216</ele>
        <time>2018-02-21T09:21:40Z</time>
      </trkpt>
      <trkpt lat="44.23584" lon="5.08647">
        <ele>216</ele>
        <time>2018-02-21T09:21:43Z</time>
      </trkpt>
      <trkpt lat="44.23581" lon="5.08655">
        <ele>216</ele>
        <time>2018-02-21T09:21:45Z</time>
      </trkpt>
      <trkpt lat="44.23579" lon="5.08661">
        <ele>216</ele>
        <time>2018-02-21T09:21:47Z</time>
      </trkpt>
      <trkpt lat="44.23574" lon="5.08668">
        <ele>216</ele>
        <time>2018-02-21T09:21:50Z</time>
      </trkpt>
      <trkpt lat="44.23568" lon="5.08676">
        <ele>217</ele>
        <time>2018-02-21T09:21:53Z</time>
      </trkpt>
      <trkpt lat="44.23558" lon="5.08684">
        <ele>217</ele>
        <time>2018-02-21T09:21:56Z</time>
      </trkpt>
      <trkpt lat="44.23547" lon="5.08695">
        <ele>217</ele>
        <time>2018-02-21T09:21:59Z</time>
      </trkpt>
      <trkpt lat="44.23535" lon="5.08707">
        <ele>216</ele>
        <time>2018-02-21T09:22:02Z</time>
      </trkpt>
      <trkpt lat="44.23523" lon="5.0872">
        <ele>216</ele>
        <time>2018-02-21T09:22:05Z</time>
      </trkpt>
      <trkpt lat="44.2351" lon="5.08734">
        <ele>217</ele>
        <time>2018-02-21T09:22:08Z</time>
      </trkpt>
      <trkpt lat="44.23498" lon="5.08747">
        <ele>217</ele>
        <time>2018-02-21T09:22:11Z</time>
      </trkpt>
      <trkpt lat="44.2349" lon="5.08756">
        <ele>217</ele>
        <time>2018-02-21T09:22:13Z</time>
      </trkpt>
      <trkpt lat="44.23477" lon="5.0877">
        <ele>217</ele>
        <time>2018-02-21T09:22:16Z</time>
      </trkpt>
      <trkpt lat="44.23464" lon="5.08783">
        <ele>217</ele>
        <time>2018-02-21T09:22:19Z</time>
      </trkpt>
      <trkpt lat="44.23452" lon="5.08797">
        <ele>217</ele>
        <time>2018-02-21T09:22:22Z</time>
      </trkpt>
      <trkpt lat="44.23439" lon="5.08811">
        <ele>217</ele>
        <time>2018-02-21T09:22:25Z</time>
      </trkpt>
      <trkpt lat="44.23427" lon="5.08823">
        <ele>217</ele>
        <time>2018-02-21T09:22:28Z</time>
      </trkpt>
      <trkpt lat="44.23414" lon="5.08837">
        <ele>217</ele>
        <time>2018-02-21T09:22:31Z</time>
      </trkpt>
      <trkpt lat="44.23402" lon="5.08851">
        <ele>216</ele>
        <time>2018-02-21T09:22:34Z</time>
      </trkpt>
      <trkpt lat="44.2339" lon="5.08868">
        <ele>217</ele>
        <time>2018-02-21T09:22:37Z</time>
      </trkpt>
      <trkpt lat="44.23381" lon="5.0888">
        <ele>216</ele>
        <time>2018-02-21T09:22:39Z</time>
      </trkpt>
      <trkpt lat="44.23373" lon="5.0889">
        <ele>216</ele>
        <time>2018-02-21T09:22:41Z</time>
      </trkpt>
      <trkpt lat="44.23359" lon="5.08902">
        <ele>216</ele>
        <time>2018-02-21T09:22:44Z</time>
      </trkpt>
      <trkpt lat="44.23351" lon="5.0891">
        <ele>216</ele>
        <time>2018-02-21T09:22:46Z</time>
      </trkpt>
      <trkpt lat="44.23342" lon="5.08917">
        <ele>217</ele>
        <time>2018-02-21T09:22:49Z</time>
      </trkpt>
      <trkpt lat="44.2334" lon="5.08924">
        <ele>216</ele>
        <time>2018-02-21T09:22:51Z</time>
      </trkpt>
      <trkpt lat="44.23343" lon="5.08936">
        <ele>216</ele>
        <time>2018-02-21T09:22:54Z</time>
      </trkpt>
      <trkpt lat="44.23345" lon="5.08949">
        <ele>217</ele>
        <time>2018-02-21T09:22:57Z</time>
      </trkpt>
      <trkpt lat="44.23341" lon="5.08961">
        <ele>218</ele>
        <time>2018-02-21T09:22:59Z</time>
      </trkpt>
      <trkpt lat="44.23336" lon="5.08968">
        <ele>218</ele>
        <time>2018-02-21T09:23:02Z</time>
      </trkpt>
      <trkpt lat="44.23328" lon="5.08973">
        <ele>218</ele>
        <time>2018-02-21T09:23:04Z</time>
      </trkpt>
      <trkpt lat="44.2332" lon="5.08976">
        <ele>219</ele>
        <time>2018-02-21T09:23:06Z</time>
      </trkpt>
      <trkpt lat="44.23308" lon="5.08981">
        <ele>219</ele>
        <time>2018-02-21T09:23:09Z</time>
      </trkpt>
      <trkpt lat="44.23296" lon="5.08985">
        <ele>219</ele>
        <time>2018-02-21T09:23:12Z</time>
      </trkpt>
      <trkpt lat="44.23288" lon="5.08989">
        <ele>220</ele>
        <time>2018-02-21T09:23:14Z</time>
      </trkpt>
      <trkpt lat="44.23279" lon="5.08992">
        <ele>220</ele>
        <time>2018-02-21T09:23:16Z</time>
      </trkpt>
      <trkpt lat="44.23271" lon="5.08994">
        <ele>220</ele>
        <time>2018-02-21T09:23:18Z</time>
      </trkpt>
      <trkpt lat="44.23259" lon="5.08998">
        <ele>221</ele>
        <time>2018-02-21T09:23:21Z</time>
      </trkpt>
      <trkpt lat="44.23246" lon="5.08998">
        <ele>221</ele>
        <time>2018-02-21T09:23:24Z</time>
      </trkpt>
      <trkpt lat="44.23239" lon="5.08997">
        <ele>222</ele>
        <time>2018-02-21T09:23:26Z</time>
      </trkpt>
      <trkpt lat="44.2323" lon="5.08995">
        <ele>222</ele>
        <time>2018-02-21T09:23:28Z</time>
      </trkpt>
      <trkpt lat="44.23218" lon="5.08991">
        <ele>222</ele>
        <time>2018-02-21T09:23:31Z</time>
      </trkpt>
      <trkpt lat="44.23206" lon="5.08987">
        <ele>223</ele>
        <time>2018-02-21T09:23:34Z</time>
      </trkpt>
      <trkpt lat="44.23198" lon="5.08984">
        <ele>223</ele>
        <time>2018-02-21T09:23:36Z</time>
      </trkpt>
      <trkpt lat="44.23185" lon="5.08981">
        <ele>224</ele>
        <time>2018-02-21T09:23:39Z</time>
      </trkpt>
      <trkpt lat="44.23176" lon="5.08979">
        <ele>224</ele>
        <time>2018-02-21T09:23:41Z</time>
      </trkpt>
      <trkpt lat="44.23168" lon="5.0898">
        <ele>224</ele>
        <time>2018-02-21T09:23:43Z</time>
      </trkpt>
      <trkpt lat="44.23156" lon="5.08983">
        <ele>225</ele>
        <time>2018-02-21T09:23:46Z</time>
      </trkpt>
      <trkpt lat="44.23145" lon="5.08992">
        <ele>225</ele>
        <time>2018-02-21T09:23:49Z</time>
      </trkpt>
      <trkpt lat="44.23139" lon="5.09001">
        <ele>226</ele>
        <time>2018-02-21T09:23:51Z</time>
      </trkpt>
      <trkpt lat="44.23133" lon="5.09015">
        <ele>226</ele>
        <time>2018-02-21T09:23:54Z</time>
      </trkpt>
      <trkpt lat="44.23129" lon="5.09032">
        <ele>226</ele>
        <time>2018-02-21T09:23:57Z</time>
      </trkpt>
      <trkpt lat="44.23128" lon="5.09044">
        <ele>227</ele>
        <time>2018-02-21T09:23:59Z</time>
      </trkpt>
      <trkpt lat="44.23127" lon="5.09061">
        <ele>228</ele>
        <time>2018-02-21T09:24:02Z</time>
      </trkpt>
      <trkpt lat="44.23125" lon="5.09078">
        <ele>229</ele>
        <time>2018-02-21T09:24:05Z</time>
      </trkpt>
      <trkpt lat="44.23125" lon="5.09095">
        <ele>229</ele>
        <time>2018-02-21T09:24:08Z</time>
      </trkpt>
      <trkpt lat="44.23124" lon="5.09107">
        <ele>229</ele>
        <time>2018-02-21T09:24:10Z</time>
      </trkpt>
      <trkpt lat="44.23122" lon="5.09125">
        <ele>229</ele>
        <time>2018-02-21T09:24:13Z</time>
      </trkpt>
      <trkpt lat="44.23122" lon="5.09137">
        <ele>229</ele>
        <time>2018-02-21T09:24:15Z</time>
      </trkpt>
      <trkpt lat="44.2312" lon="5.09155">
        <ele>229</ele>
        <time>2018-02-21T09:24:18Z</time>
      </trkpt>
      <trkpt lat="44.23119" lon="5.09167">
        <ele>230</ele>
        <time>2018-02-21T09:24:20Z</time>
      </trkpt>
      <trkpt lat="44.23119" lon="5.09179">
        <ele>230</ele>
        <time>2018-02-21T09:24:22Z</time>
      </trkpt>
      <trkpt lat="44.23117" lon="5.09196">
        <ele>231</ele>
        <time>2018-02-21T09:24:25Z</time>
      </trkpt>
      <trkpt lat="44.23117" lon="5.09208">
        <ele>231</ele>
        <time>2018-02-21T09:24:27Z</time>
      </trkpt>
      <trkpt lat="44.23116" lon="5.09219">
        <ele>232</ele>
        <time>2018-02-21T09:24:29Z</time>
      </trkpt>
      <trkpt lat="44.23115" lon="5.09236">
        <ele>233</ele>
        <time>2018-02-21T09:24:32Z</time>
      </trkpt>
      <trkpt lat="44.23114" lon="5.09248">
        <ele>233</ele>
        <time>2018-02-21T09:24:34Z</time>
      </trkpt>
      <trkpt lat="44.23113" lon="5.09259">
        <ele>234</ele>
        <time>2018-02-21T09:24:36Z</time>
      </trkpt>
      <trkpt lat="44.23112" lon="5.09277">
        <ele>235</ele>
        <time>2018-02-21T09:24:39Z</time>
      </trkpt>
      <trkpt lat="44.23112" lon="5.09289">
        <ele>235</ele>
        <time>2018-02-21T09:24:41Z</time>
      </trkpt>
      <trkpt lat="44.23111" lon="5.093">
        <ele>236</ele>
        <time>2018-02-21T09:24:43Z</time>
      </trkpt>
      <trkpt lat="44.2311" lon="5.09315">
        <ele>237</ele>
        <time>2018-02-21T09:24:46Z</time>
      </trkpt>
      <trkpt lat="44.23109" lon="5.0933">
        <ele>237</ele>
        <time>2018-02-21T09:24:49Z</time>
      </trkpt>
      <trkpt lat="44.23109" lon="5.0934">
        <ele>237</ele>
        <time>2018-02-21T09:24:51Z</time>
      </trkpt>
      <trkpt lat="44.23108" lon="5.09355">
        <ele>237</ele>
        <time>2018-02-21T09:24:54Z</time>
      </trkpt>
      <trkpt lat="44.23107" lon="5.09366">
        <ele>237</ele>
        <time>2018-02-21T09:24:56Z</time>
      </trkpt>
      <trkpt lat="44.23106" lon="5.09377">
        <ele>237</ele>
        <time>2018-02-21T09:24:58Z</time>
      </trkpt>
      <trkpt lat="44.23104" lon="5.09394">
        <ele>237</ele>
        <time>2018-02-21T09:25:01Z</time>
      </trkpt>
      <trkpt lat="44.23104" lon="5.09406">
        <ele>236</ele>
        <time>2018-02-21T09:25:03Z</time>
      </trkpt>
      <trkpt lat="44.23103" lon="5.09418">
        <ele>236</ele>
        <time>2018-02-21T09:25:05Z</time>
      </trkpt>
      <trkpt lat="44.23102" lon="5.0943">
        <ele>236</ele>
        <time>2018-02-21T09:25:07Z</time>
      </trkpt>
      <trkpt lat="44.23099" lon="5.09448">
        <ele>236</ele>
        <time>2018-02-21T09:25:10Z</time>
      </trkpt>
      <trkpt lat="44.23098" lon="5.09459">
        <ele>236</ele>
        <time>2018-02-21T09:25:12Z</time>
      </trkpt>
      <trkpt lat="44.23095" lon="5.09477">
        <ele>236</ele>
        <time>2018-02-21T09:25:15Z</time>
      </trkpt>
      <trkpt lat="44.2309" lon="5.09494">
        <ele>236</ele>
        <time>2018-02-21T09:25:18Z</time>
      </trkpt>
      <trkpt lat="44.23087" lon="5.09511">
        <ele>236</ele>
        <time>2018-02-21T09:25:21Z</time>
      </trkpt>
      <trkpt lat="44.23083" lon="5.09527">
        <ele>236</ele>
        <time>2018-02-21T09:25:24Z</time>
      </trkpt>
      <trkpt lat="44.2308" lon="5.09538">
        <ele>236</ele>
        <time>2018-02-21T09:25:26Z</time>
      </trkpt>
      <trkpt lat="44.23078" lon="5.09549">
        <ele>236</ele>
        <time>2018-02-21T09:25:28Z</time>
      </trkpt>
      <trkpt lat="44.23074" lon="5.09564">
        <ele>237</ele>
        <time>2018-02-21T09:25:31Z</time>
      </trkpt>
      <trkpt lat="44.23071" lon="5.09581">
        <ele>237</ele>
        <time>2018-02-21T09:25:34Z</time>
      </trkpt>
      <trkpt lat="44.23067" lon="5.09597">
        <ele>238</ele>
        <time>2018-02-21T09:25:37Z</time>
      </trkpt>
      <trkpt lat="44.23064" lon="5.09612">
        <ele>239</ele>
        <time>2018-02-21T09:25:40Z</time>
      </trkpt>
      <trkpt lat="44.23062" lon="5.09622">
        <ele>239</ele>
        <time>2018-02-21T09:25:42Z</time>
      </trkpt>
      <trkpt lat="44.2306" lon="5.09636">
        <ele>239</ele>
        <time>2018-02-21T09:25:45Z</time>
      </trkpt>
      <trkpt lat="44.23058" lon="5.09646">
        <ele>240</ele>
        <time>2018-02-21T09:25:47Z</time>
      </trkpt>
      <trkpt lat="44.23052" lon="5.09657">
        <ele>240</ele>
        <time>2018-02-21T09:25:50Z</time>
      </trkpt>
      <trkpt lat="44.23044" lon="5.09666">
        <ele>240</ele>
        <time>2018-02-21T09:25:53Z</time>
      </trkpt>
      <trkpt lat="44.23037" lon="5.09673">
        <ele>240</ele>
        <time>2018-02-21T09:25:55Z</time>
      </trkpt>
      <trkpt lat="44.23025" lon="5.09686">
        <ele>240</ele>
        <time>2018-02-21T09:25:58Z</time>
      </trkpt>
      <trkpt lat="44.23016" lon="5.09696">
        <ele>240</ele>
        <time>2018-02-21T09:26:00Z</time>
      </trkpt>
      <trkpt lat="44.23003" lon="5.09712">
        <ele>239</ele>
        <time>2018-02-21T09:26:03Z</time>
      </trkpt>
      <trkpt lat="44.22993" lon="5.09724">
        <ele>239</ele>
        <time>2018-02-21T09:26:05Z</time>
      </trkpt>
      <trkpt lat="44.22981" lon="5.09743">
        <ele>239</ele>
        <time>2018-02-21T09:26:08Z</time>
      </trkpt>
      <trkpt lat="44.22973" lon="5.09757">
        <ele>239</ele>
        <time>2018-02-21T09:26:10Z</time>
      </trkpt>
      <trkpt lat="44.22964" lon="5.09769">
        <ele>239</ele>
        <time>2018-02-21T09:26:12Z</time>
      </trkpt>
      <trkpt lat="44.22955" lon="5.09782">
        <ele>238</ele>
        <time>2018-02-21T09:26:14Z</time>
      </trkpt>
      <trkpt lat="44.22946" lon="5.09793">
        <ele>238</ele>
        <time>2018-02-21T09:26:16Z</time>
      </trkpt>
      <trkpt lat="44.22933" lon="5.09807">
        <ele>238</ele>
        <time>2018-02-21T09:26:19Z</time>
      </trkpt>
      <trkpt lat="44.22919" lon="5.0982">
        <ele>238</ele>
        <time>2018-02-21T09:26:22Z</time>
      </trkpt>
      <trkpt lat="44.22906" lon="5.09833">
        <ele>238</ele>
        <time>2018-02-21T09:26:25Z</time>
      </trkpt>
      <trkpt lat="44.22893" lon="5.09848">
        <ele>238</ele>
        <time>2018-02-21T09:26:28Z</time>
      </trkpt>
      <trkpt lat="44.22885" lon="5.09859">
        <ele>237</ele>
        <time>2018-02-21T09:26:30Z</time>
      </trkpt>
      <trkpt lat="44.22877" lon="5.09869">
        <ele>237</ele>
        <time>2018-02-21T09:26:32Z</time>
      </trkpt>
      <trkpt lat="44.22867" lon="5.09885">
        <ele>237</ele>
        <time>2018-02-21T09:26:35Z</time>
      </trkpt>
      <trkpt lat="44.22859" lon="5.09904">
        <ele>237</ele>
        <time>2018-02-21T09:26:38Z</time>
      </trkpt>
      <trkpt lat="44.22852" lon="5.09916">
        <ele>237</ele>
        <time>2018-02-21T09:26:40Z</time>
      </trkpt>
      <trkpt lat="44.22845" lon="5.09928">
        <ele>236</ele>
        <time>2018-02-21T09:26:42Z</time>
      </trkpt>
      <trkpt lat="44.22832" lon="5.09945">
        <ele>236</ele>
        <time>2018-02-21T09:26:45Z</time>
      </trkpt>
      <trkpt lat="44.22822" lon="5.09954">
        <ele>236</ele>
        <time>2018-02-21T09:26:47Z</time>
      </trkpt>
      <trkpt lat="44.2281" lon="5.09961">
        <ele>236</ele>
        <time>2018-02-21T09:26:49Z</time>
      </trkpt>
      <trkpt lat="44.22794" lon="5.09974">
        <ele>236</ele>
        <time>2018-02-21T09:26:52Z</time>
      </trkpt>
      <trkpt lat="44.22784" lon="5.09987">
        <ele>235</ele>
        <time>2018-02-21T09:26:54Z</time>
      </trkpt>
      <trkpt lat="44.22776" lon="5.10002">
        <ele>235</ele>
        <time>2018-02-21T09:26:56Z</time>
      </trkpt>
      <trkpt lat="44.22763" lon="5.10026">
        <ele>235</ele>
        <time>2018-02-21T09:26:59Z</time>
      </trkpt>
      <trkpt lat="44.22755" lon="5.10043">
        <ele>236</ele>
        <time>2018-02-21T09:27:01Z</time>
      </trkpt>
      <trkpt lat="44.22743" lon="5.10067">
        <ele>236</ele>
        <time>2018-02-21T09:27:04Z</time>
      </trkpt>
      <trkpt lat="44.22735" lon="5.10084">
        <ele>235</ele>
        <time>2018-02-21T09:27:06Z</time>
      </trkpt>
      <trkpt lat="44.22721" lon="5.10109">
        <ele>235</ele>
        <time>2018-02-21T09:27:09Z</time>
      </trkpt>
      <trkpt lat="44.2271" lon="5.10123">
        <ele>235</ele>
        <time>2018-02-21T09:27:11Z</time>
      </trkpt>
      <trkpt lat="44.22697" lon="5.10143">
        <ele>234</ele>
        <time>2018-02-21T09:27:14Z</time>
      </trkpt>
      <trkpt lat="44.22686" lon="5.10163">
        <ele>233</ele>
        <time>2018-02-21T09:27:16Z</time>
      </trkpt>
      <trkpt lat="44.22681" lon="5.10177">
        <ele>233</ele>
        <time>2018-02-21T09:27:19Z</time>
      </trkpt>
      <trkpt lat="44.22677" lon="5.10191">
        <ele>233</ele>
        <time>2018-02-21T09:27:21Z</time>
      </trkpt>
      <trkpt lat="44.22672" lon="5.10212">
        <ele>234</ele>
        <time>2018-02-21T09:27:24Z</time>
      </trkpt>
      <trkpt lat="44.22667" lon="5.1023">
        <ele>235</ele>
        <time>2018-02-21T09:27:27Z</time>
      </trkpt>
      <trkpt lat="44.22662" lon="5.10246">
        <ele>236</ele>
        <time>2018-02-21T09:27:30Z</time>
      </trkpt>
      <trkpt lat="44.22656" lon="5.10261">
        <ele>237</ele>
        <time>2018-02-21T09:27:33Z</time>
      </trkpt>
      <trkpt lat="44.22651" lon="5.10277">
        <ele>236</ele>
        <time>2018-02-21T09:27:35Z</time>
      </trkpt>
      <trkpt lat="44.22645" lon="5.10292">
        <ele>237</ele>
        <time>2018-02-21T09:27:38Z</time>
      </trkpt>
      <trkpt lat="44.22642" lon="5.10303">
        <ele>237</ele>
        <time>2018-02-21T09:27:41Z</time>
      </trkpt>
      <trkpt lat="44.22638" lon="5.10313">
        <ele>238</ele>
        <time>2018-02-21T09:27:43Z</time>
      </trkpt>
      <trkpt lat="44.22634" lon="5.10329">
        <ele>239</ele>
        <time>2018-02-21T09:27:45Z</time>
      </trkpt>
      <trkpt lat="44.22633" lon="5.10345">
        <ele>239</ele>
        <time>2018-02-21T09:27:48Z</time>
      </trkpt>
      <trkpt lat="44.22633" lon="5.10361">
        <ele>240</ele>
        <time>2018-02-21T09:27:52Z</time>
      </trkpt>
      <trkpt lat="44.22636" lon="5.10378">
        <ele>240</ele>
        <time>2018-02-21T09:27:54Z</time>
      </trkpt>
      <trkpt lat="44.22638" lon="5.10389">
        <ele>240</ele>
        <time>2018-02-21T09:27:56Z</time>
      </trkpt>
      <trkpt lat="44.22641" lon="5.10399">
        <ele>241</ele>
        <time>2018-02-21T09:27:58Z</time>
      </trkpt>
      <trkpt lat="44.22645" lon="5.10409">
        <ele>242</ele>
        <time>2018-02-21T09:28:01Z</time>
      </trkpt>
      <trkpt lat="44.2265" lon="5.10422">
        <ele>242</ele>
        <time>2018-02-21T09:28:04Z</time>
      </trkpt>
      <trkpt lat="44.22655" lon="5.1043">
        <ele>243</ele>
        <time>2018-02-21T09:28:06Z</time>
      </trkpt>
      <trkpt lat="44.22662" lon="5.10443">
        <ele>243</ele>
        <time>2018-02-21T09:28:09Z</time>
      </trkpt>
      <trkpt lat="44.2267" lon="5.10455">
        <ele>244</ele>
        <time>2018-02-21T09:28:12Z</time>
      </trkpt>
      <trkpt lat="44.22675" lon="5.10463">
        <ele>244</ele>
        <time>2018-02-21T09:28:14Z</time>
      </trkpt>
      <trkpt lat="44.22683" lon="5.10474">
        <ele>245</ele>
        <time>2018-02-21T09:28:17Z</time>
      </trkpt>
      <trkpt lat="44.22691" lon="5.10485">
        <ele>245</ele>
        <time>2018-02-21T09:28:20Z</time>
      </trkpt>
      <trkpt lat="44.22697" lon="5.10499">
        <ele>247</ele>
        <time>2018-02-21T09:28:22Z</time>
      </trkpt>
      <trkpt lat="44.22699" lon="5.1051">
        <ele>247</ele>
        <time>2018-02-21T09:28:25Z</time>
      </trkpt>
      <trkpt lat="44.22697" lon="5.10525">
        <ele>248</ele>
        <time>2018-02-21T09:28:27Z</time>
      </trkpt>
      <trkpt lat="44.22693" lon="5.10534">
        <ele>248</ele>
        <time>2018-02-21T09:28:30Z</time>
      </trkpt>
      <trkpt lat="44.22683" lon="5.10543">
        <ele>249</ele>
        <time>2018-02-21T09:28:32Z</time>
      </trkpt>
      <trkpt lat="44.22676" lon="5.10549">
        <ele>250</ele>
        <time>2018-02-21T09:28:35Z</time>
      </trkpt>
      <trkpt lat="44.22664" lon="5.10557">
        <ele>250</ele>
        <time>2018-02-21T09:28:37Z</time>
      </trkpt>
      <trkpt lat="44.22654" lon="5.10565">
        <ele>251</ele>
        <time>2018-02-21T09:28:41Z</time>
      </trkpt>
      <trkpt lat="44.22646" lon="5.10576">
        <ele>252</ele>
        <time>2018-02-21T09:28:44Z</time>
      </trkpt>
      <trkpt lat="44.22639" lon="5.1059">
        <ele>253</ele>
        <time>2018-02-21T09:28:46Z</time>
      </trkpt>
      <trkpt lat="44.22636" lon="5.10599">
        <ele>253</ele>
        <time>2018-02-21T09:28:48Z</time>
      </trkpt>
      <trkpt lat="44.22631" lon="5.10614">
        <ele>254</ele>
        <time>2018-02-21T09:28:51Z</time>
      </trkpt>
      <trkpt lat="44.22626" lon="5.10629">
        <ele>254</ele>
        <time>2018-02-21T09:28:54Z</time>
      </trkpt>
      <trkpt lat="44.22622" lon="5.10639">
        <ele>255</ele>
        <time>2018-02-21T09:28:56Z</time>
      </trkpt>
      <trkpt lat="44.22618" lon="5.10655">
        <ele>256</ele>
        <time>2018-02-21T09:28:59Z</time>
      </trkpt>
      <trkpt lat="44.22614" lon="5.10664">
        <ele>257</ele>
        <time>2018-02-21T09:29:01Z</time>
      </trkpt>
      <trkpt lat="44.22609" lon="5.1068">
        <ele>257</ele>
        <time>2018-02-21T09:29:04Z</time>
      </trkpt>
      <trkpt lat="44.22605" lon="5.1069">
        <ele>258</ele>
        <time>2018-02-21T09:29:06Z</time>
      </trkpt>
      <trkpt lat="44.22602" lon="5.107">
        <ele>258</ele>
        <time>2018-02-21T09:29:09Z</time>
      </trkpt>
      <trkpt lat="44.22598" lon="5.10713">
        <ele>259</ele>
        <time>2018-02-21T09:29:12Z</time>
      </trkpt>
      <trkpt lat="44.22595" lon="5.10728">
        <ele>260</ele>
        <time>2018-02-21T09:29:14Z</time>
      </trkpt>
      <trkpt lat="44.22592" lon="5.10743">
        <ele>261</ele>
        <time>2018-02-21T09:29:17Z</time>
      </trkpt>
      <trkpt lat="44.22591" lon="5.10759">
        <ele>261</ele>
        <time>2018-02-21T09:29:20Z</time>
      </trkpt>
      <trkpt lat="44.2259" lon="5.10769">
        <ele>262</ele>
        <time>2018-02-21T09:29:23Z</time>
      </trkpt>
      <trkpt lat="44.22589" lon="5.10785">
        <ele>262</ele>
        <time>2018-02-21T09:29:25Z</time>
      </trkpt>
      <trkpt lat="44.22589" lon="5.10795">
        <ele>263</ele>
        <time>2018-02-21T09:29:27Z</time>
      </trkpt>
      <trkpt lat="44.22589" lon="5.10806">
        <ele>263</ele>
        <time>2018-02-21T09:29:30Z</time>
      </trkpt>
      <trkpt lat="44.2259" lon="5.10821">
        <ele>264</ele>
        <time>2018-02-21T09:29:32Z</time>
      </trkpt>
      <trkpt lat="44.2259" lon="5.10838">
        <ele>265</ele>
        <time>2018-02-21T09:29:36Z</time>
      </trkpt>
      <trkpt lat="44.2259" lon="5.10852">
        <ele>265</ele>
        <time>2018-02-21T09:29:38Z</time>
      </trkpt>
      <trkpt lat="44.22589" lon="5.10861">
        <ele>265</ele>
        <time>2018-02-21T09:29:41Z</time>
      </trkpt>
      <trkpt lat="44.22585" lon="5.10876">
        <ele>266</ele>
        <time>2018-02-21T09:29:43Z</time>
      </trkpt>
      <trkpt lat="44.22576" lon="5.10889">
        <ele>266</ele>
        <time>2018-02-21T09:29:46Z</time>
      </trkpt>
      <trkpt lat="44.22566" lon="5.109">
        <ele>267</ele>
        <time>2018-02-21T09:29:49Z</time>
      </trkpt>
      <trkpt lat="44.22555" lon="5.10909">
        <ele>268</ele>
        <time>2018-02-21T09:29:52Z</time>
      </trkpt>
      <trkpt lat="44.22548" lon="5.10914">
        <ele>268</ele>
        <time>2018-02-21T09:29:54Z</time>
      </trkpt>
      <trkpt lat="44.22538" lon="5.10921">
        <ele>269</ele>
        <time>2018-02-21T09:29:57Z</time>
      </trkpt>
      <trkpt lat="44.22526" lon="5.10929">
        <ele>269</ele>
        <time>2018-02-21T09:30:00Z</time>
      </trkpt>
      <trkpt lat="44.22514" lon="5.10936">
        <ele>269</ele>
        <time>2018-02-21T09:30:04Z</time>
      </trkpt>
      <trkpt lat="44.22502" lon="5.10945">
        <ele>269</ele>
        <time>2018-02-21T09:30:06Z</time>
      </trkpt>
      <trkpt lat="44.22493" lon="5.10951">
        <ele>269</ele>
        <time>2018-02-21T09:30:08Z</time>
      </trkpt>
      <trkpt lat="44.22485" lon="5.10957">
        <ele>269</ele>
        <time>2018-02-21T09:30:11Z</time>
      </trkpt>
      <trkpt lat="44.22474" lon="5.10968">
        <ele>268</ele>
        <time>2018-02-21T09:30:13Z</time>
      </trkpt>
      <trkpt lat="44.22467" lon="5.10976">
        <ele>268</ele>
        <time>2018-02-21T09:30:16Z</time>
      </trkpt>
      <trkpt lat="44.22456" lon="5.10987">
        <ele>268</ele>
        <time>2018-02-21T09:30:19Z</time>
      </trkpt>
      <trkpt lat="44.22447" lon="5.10999">
        <ele>268</ele>
        <time>2018-02-21T09:30:21Z</time>
      </trkpt>
      <trkpt lat="44.22437" lon="5.11012">
        <ele>268</ele>
        <time>2018-02-21T09:30:24Z</time>
      </trkpt>
      <trkpt lat="44.22432" lon="5.11023">
        <ele>267</ele>
        <time>2018-02-21T09:30:27Z</time>
      </trkpt>
      <trkpt lat="44.22427" lon="5.1104">
        <ele>268</ele>
        <time>2018-02-21T09:30:30Z</time>
      </trkpt>
      <trkpt lat="44.22423" lon="5.11059">
        <ele>269</ele>
        <time>2018-02-21T09:30:32Z</time>
      </trkpt>
      <trkpt lat="44.22419" lon="5.11076">
        <ele>270</ele>
        <time>2018-02-21T09:30:35Z</time>
      </trkpt>
      <trkpt lat="44.22417" lon="5.11088">
        <ele>270</ele>
        <time>2018-02-21T09:30:38Z</time>
      </trkpt>
      <trkpt lat="44.22413" lon="5.11105">
        <ele>270</ele>
        <time>2018-02-21T09:30:41Z</time>
      </trkpt>
      <trkpt lat="44.2241" lon="5.11122">
        <ele>270</ele>
        <time>2018-02-21T09:30:43Z</time>
      </trkpt>
      <trkpt lat="44.22406" lon="5.11138">
        <ele>270</ele>
        <time>2018-02-21T09:30:46Z</time>
      </trkpt>
      <trkpt lat="44.22402" lon="5.11155">
        <ele>271</ele>
        <time>2018-02-21T09:30:50Z</time>
      </trkpt>
      <trkpt lat="44.22399" lon="5.1117">
        <ele>271</ele>
        <time>2018-02-21T09:30:53Z</time>
      </trkpt>
      <trkpt lat="44.22396" lon="5.11186">
        <ele>271</ele>
        <time>2018-02-21T09:30:55Z</time>
      </trkpt>
      <trkpt lat="44.22393" lon="5.11201">
        <ele>271</ele>
        <time>2018-02-21T09:30:59Z</time>
      </trkpt>
      <trkpt lat="44.22389" lon="5.11216">
        <ele>271</ele>
        <time>2018-02-21T09:31:01Z</time>
      </trkpt>
      <trkpt lat="44.22385" lon="5.11235">
        <ele>270</ele>
        <time>2018-02-21T09:31:04Z</time>
      </trkpt>
      <trkpt lat="44.22382" lon="5.11249">
        <ele>270</ele>
        <time>2018-02-21T09:31:07Z</time>
      </trkpt>
      <trkpt lat="44.22372" lon="5.11273">
        <ele>270</ele>
        <time>2018-02-21T09:31:09Z</time>
      </trkpt>
      <trkpt lat="44.22362" lon="5.1129">
        <ele>269</ele>
        <time>2018-02-21T09:31:11Z</time>
      </trkpt>
      <trkpt lat="44.22352" lon="5.11307">
        <ele>269</ele>
        <time>2018-02-21T09:31:13Z</time>
      </trkpt>
      <trkpt lat="44.22341" lon="5.11341">
        <ele>268</ele>
        <time>2018-02-21T09:31:16Z</time>
      </trkpt>
      <trkpt lat="44.22342" lon="5.11383">
        <ele>267</ele>
        <time>2018-02-21T09:31:19Z</time>
      </trkpt>
      <trkpt lat="44.22349" lon="5.11426">
        <ele>266</ele>
        <time>2018-02-21T09:31:22Z</time>
      </trkpt>
      <trkpt lat="44.22356" lon="5.11472">
        <ele>265</ele>
        <time>2018-02-21T09:31:25Z</time>
      </trkpt>
      <trkpt lat="44.22366" lon="5.11518">
        <ele>264</ele>
        <time>2018-02-21T09:31:28Z</time>
      </trkpt>
      <trkpt lat="44.22375" lon="5.11548">
        <ele>264</ele>
        <time>2018-02-21T09:31:30Z</time>
      </trkpt>
      <trkpt lat="44.22393" lon="5.11591">
        <ele>263</ele>
        <time>2018-02-21T09:31:33Z</time>
      </trkpt>
      <trkpt lat="44.2241" lon="5.11633">
        <ele>263</ele>
        <time>2018-02-21T09:31:36Z</time>
      </trkpt>
      <trkpt lat="44.22421" lon="5.11661">
        <ele>262</ele>
        <time>2018-02-21T09:31:38Z</time>
      </trkpt>
      <trkpt lat="44.22431" lon="5.11688">
        <ele>260</ele>
        <time>2018-02-21T09:31:40Z</time>
      </trkpt>
      <trkpt lat="44.22441" lon="5.11728">
        <ele>255</ele>
        <time>2018-02-21T09:31:43Z</time>
      </trkpt>
      <trkpt lat="44.22447" lon="5.11753">
        <ele>253</ele>
        <time>2018-02-21T09:31:45Z</time>
      </trkpt>
      <trkpt lat="44.22454" lon="5.1179">
        <ele>250</ele>
        <time>2018-02-21T09:31:48Z</time>
      </trkpt>
      <trkpt lat="44.22459" lon="5.11812">
        <ele>248</ele>
        <time>2018-02-21T09:31:50Z</time>
      </trkpt>
      <trkpt lat="44.22465" lon="5.11845">
        <ele>247</ele>
        <time>2018-02-21T09:31:53Z</time>
      </trkpt>
      <trkpt lat="44.22471" lon="5.11876">
        <ele>246</ele>
        <time>2018-02-21T09:31:56Z</time>
      </trkpt>
      <trkpt lat="44.22477" lon="5.11907">
        <ele>246</ele>
        <time>2018-02-21T09:31:59Z</time>
      </trkpt>
      <trkpt lat="44.22481" lon="5.11927">
        <ele>247</ele>
        <time>2018-02-21T09:32:01Z</time>
      </trkpt>
      <trkpt lat="44.22485" lon="5.11948">
        <ele>247</ele>
        <time>2018-02-21T09:32:03Z</time>
      </trkpt>
      <trkpt lat="44.22489" lon="5.11968">
        <ele>247</ele>
        <time>2018-02-21T09:32:05Z</time>
      </trkpt>
      <trkpt lat="44.22493" lon="5.11988">
        <ele>247</ele>
        <time>2018-02-21T09:32:07Z</time>
      </trkpt>
      <trkpt lat="44.22498" lon="5.12007">
        <ele>246</ele>
        <time>2018-02-21T09:32:10Z</time>
      </trkpt>
      <trkpt lat="44.22506" lon="5.12035">
        <ele>247</ele>
        <time>2018-02-21T09:32:12Z</time>
      </trkpt>
      <trkpt lat="44.22515" lon="5.12061">
        <ele>247</ele>
        <time>2018-02-21T09:32:15Z</time>
      </trkpt>
      <trkpt lat="44.22524" lon="5.12087">
        <ele>247</ele>
        <time>2018-02-21T09:32:18Z</time>
      </trkpt>
      <trkpt lat="44.22533" lon="5.12112">
        <ele>247</ele>
        <time>2018-02-21T09:32:21Z</time>
      </trkpt>
      <trkpt lat="44.22542" lon="5.12137">
        <ele>247</ele>
        <time>2018-02-21T09:32:24Z</time>
      </trkpt>
      <trkpt lat="44.22551" lon="5.12162">
        <ele>246</ele>
        <time>2018-02-21T09:32:27Z</time>
      </trkpt>
      <trkpt lat="44.2256" lon="5.12187">
        <ele>245</ele>
        <time>2018-02-21T09:32:30Z</time>
      </trkpt>
      <trkpt lat="44.22569" lon="5.12213">
        <ele>244</ele>
        <time>2018-02-21T09:32:33Z</time>
      </trkpt>
      <trkpt lat="44.22576" lon="5.12229">
        <ele>244</ele>
        <time>2018-02-21T09:32:35Z</time>
      </trkpt>
      <trkpt lat="44.22583" lon="5.12246">
        <ele>244</ele>
        <time>2018-02-21T09:32:38Z</time>
      </trkpt>
      <trkpt lat="44.22596" lon="5.12269">
        <ele>244</ele>
        <time>2018-02-21T09:32:40Z</time>
      </trkpt>
      <trkpt lat="44.22606" lon="5.12284">
        <ele>244</ele>
        <time>2018-02-21T09:32:42Z</time>
      </trkpt>
      <trkpt lat="44.22615" lon="5.12298">
        <ele>244</ele>
        <time>2018-02-21T09:32:44Z</time>
      </trkpt>
      <trkpt lat="44.22624" lon="5.12312">
        <ele>244</ele>
        <time>2018-02-21T09:32:46Z</time>
      </trkpt>
      <trkpt lat="44.22633" lon="5.12326">
        <ele>244</ele>
        <time>2018-02-21T09:32:48Z</time>
      </trkpt>
      <trkpt lat="44.22646" lon="5.12347">
        <ele>245</ele>
        <time>2018-02-21T09:32:51Z</time>
      </trkpt>
      <trkpt lat="44.22655" lon="5.12361">
        <ele>245</ele>
        <time>2018-02-21T09:32:53Z</time>
      </trkpt>
      <trkpt lat="44.22663" lon="5.12376">
        <ele>245</ele>
        <time>2018-02-21T09:32:55Z</time>
      </trkpt>
      <trkpt lat="44.22671" lon="5.1239">
        <ele>245</ele>
        <time>2018-02-21T09:32:57Z</time>
      </trkpt>
      <trkpt lat="44.22683" lon="5.12413">
        <ele>245</ele>
        <time>2018-02-21T09:33:00Z</time>
      </trkpt>
      <trkpt lat="44.22691" lon="5.12428">
        <ele>246</ele>
        <time>2018-02-21T09:33:02Z</time>
      </trkpt>
      <trkpt lat="44.22697" lon="5.12444">
        <ele>247</ele>
        <time>2018-02-21T09:33:04Z</time>
      </trkpt>
      <trkpt lat="44.22702" lon="5.1246">
        <ele>247</ele>
        <time>2018-02-21T09:33:06Z</time>
      </trkpt>
      <trkpt lat="44.22707" lon="5.12476">
        <ele>247</ele>
        <time>2018-02-21T09:33:08Z</time>
      </trkpt>
      <trkpt lat="44.22714" lon="5.12501">
        <ele>247</ele>
        <time>2018-02-21T09:33:11Z</time>
      </trkpt>
      <trkpt lat="44.2272" lon="5.12526">
        <ele>247</ele>
        <time>2018-02-21T09:33:14Z</time>
      </trkpt>
      <trkpt lat="44.22725" lon="5.12542">
        <ele>247</ele>
        <time>2018-02-21T09:33:16Z</time>
      </trkpt>
      <trkpt lat="44.2273" lon="5.12567">
        <ele>248</ele>
        <time>2018-02-21T09:33:19Z</time>
      </trkpt>
      <trkpt lat="44.22732" lon="5.12584">
        <ele>248</ele>
        <time>2018-02-21T09:33:21Z</time>
      </trkpt>
      <trkpt lat="44.22734" lon="5.12609">
        <ele>248</ele>
        <time>2018-02-21T09:33:24Z</time>
      </trkpt>
      <trkpt lat="44.22736" lon="5.12633">
        <ele>248</ele>
        <time>2018-02-21T09:33:27Z</time>
      </trkpt>
      <trkpt lat="44.22736" lon="5.12657">
        <ele>248</ele>
        <time>2018-02-21T09:33:30Z</time>
      </trkpt>
      <trkpt lat="44.22735" lon="5.12681">
        <ele>248</ele>
        <time>2018-02-21T09:33:33Z</time>
      </trkpt>
      <trkpt lat="44.22731" lon="5.12705">
        <ele>248</ele>
        <time>2018-02-21T09:33:36Z</time>
      </trkpt>
      <trkpt lat="44.22728" lon="5.1272">
        <ele>249</ele>
        <time>2018-02-21T09:33:38Z</time>
      </trkpt>
      <trkpt lat="44.22723" lon="5.12735">
        <ele>249</ele>
        <time>2018-02-21T09:33:40Z</time>
      </trkpt>
      <trkpt lat="44.22717" lon="5.12758">
        <ele>249</ele>
        <time>2018-02-21T09:33:43Z</time>
      </trkpt>
      <trkpt lat="44.2271" lon="5.12781">
        <ele>249</ele>
        <time>2018-02-21T09:33:46Z</time>
      </trkpt>
      <trkpt lat="44.22706" lon="5.12797">
        <ele>249</ele>
        <time>2018-02-21T09:33:48Z</time>
      </trkpt>
      <trkpt lat="44.22701" lon="5.12821">
        <ele>249</ele>
        <time>2018-02-21T09:33:51Z</time>
      </trkpt>
      <trkpt lat="44.22702" lon="5.12845">
        <ele>249</ele>
        <time>2018-02-21T09:33:54Z</time>
      </trkpt>
      <trkpt lat="44.22703" lon="5.1286">
        <ele>249</ele>
        <time>2018-02-21T09:33:56Z</time>
      </trkpt>
      <trkpt lat="44.22704" lon="5.12877">
        <ele>249</ele>
        <time>2018-02-21T09:33:58Z</time>
      </trkpt>
      <trkpt lat="44.227" lon="5.12899">
        <ele>248</ele>
        <time>2018-02-21T09:34:01Z</time>
      </trkpt>
      <trkpt lat="44.22694" lon="5.12912">
        <ele>248</ele>
        <time>2018-02-21T09:34:03Z</time>
      </trkpt>
      <trkpt lat="44.22683" lon="5.12931">
        <ele>248</ele>
        <time>2018-02-21T09:34:06Z</time>
      </trkpt>
      <trkpt lat="44.22675" lon="5.1295">
        <ele>248</ele>
        <time>2018-02-21T09:34:09Z</time>
      </trkpt>
      <trkpt lat="44.22672" lon="5.12973">
        <ele>248</ele>
        <time>2018-02-21T09:34:12Z</time>
      </trkpt>
      <trkpt lat="44.22672" lon="5.12996">
        <ele>248</ele>
        <time>2018-02-21T09:34:15Z</time>
      </trkpt>
      <trkpt lat="44.22672" lon="5.1302">
        <ele>248</ele>
        <time>2018-02-21T09:34:18Z</time>
      </trkpt>
      <trkpt lat="44.22672" lon="5.13044">
        <ele>248</ele>
        <time>2018-02-21T09:34:21Z</time>
      </trkpt>
      <trkpt lat="44.2267" lon="5.13068">
        <ele>249</ele>
        <time>2018-02-21T09:34:24Z</time>
      </trkpt>
      <trkpt lat="44.22668" lon="5.13084">
        <ele>249</ele>
        <time>2018-02-21T09:34:26Z</time>
      </trkpt>
      <trkpt lat="44.22667" lon="5.131">
        <ele>250</ele>
        <time>2018-02-21T09:34:28Z</time>
      </trkpt>
      <trkpt lat="44.22665" lon="5.13123">
        <ele>250</ele>
        <time>2018-02-21T09:34:31Z</time>
      </trkpt>
      <trkpt lat="44.22665" lon="5.13147">
        <ele>251</ele>
        <time>2018-02-21T09:34:34Z</time>
      </trkpt>
      <trkpt lat="44.22668" lon="5.1317">
        <ele>251</ele>
        <time>2018-02-21T09:34:37Z</time>
      </trkpt>
      <trkpt lat="44.22676" lon="5.13191">
        <ele>251</ele>
        <time>2018-02-21T09:34:40Z</time>
      </trkpt>
      <trkpt lat="44.22684" lon="5.13202">
        <ele>252</ele>
        <time>2018-02-21T09:34:42Z</time>
      </trkpt>
      <trkpt lat="44.22698" lon="5.13214">
        <ele>252</ele>
        <time>2018-02-21T09:34:45Z</time>
      </trkpt>
      <trkpt lat="44.22712" lon="5.13225">
        <ele>252</ele>
        <time>2018-02-21T09:34:48Z</time>
      </trkpt>
      <trkpt lat="44.22727" lon="5.13235">
        <ele>253</ele>
        <time>2018-02-21T09:34:51Z</time>
      </trkpt>
      <trkpt lat="44.22741" lon="5.13244">
        <ele>254</ele>
        <time>2018-02-21T09:34:54Z</time>
      </trkpt>
      <trkpt lat="44.22751" lon="5.1325">
        <ele>254</ele>
        <time>2018-02-21T09:34:56Z</time>
      </trkpt>
      <trkpt lat="44.22766" lon="5.13259">
        <ele>255</ele>
        <time>2018-02-21T09:34:59Z</time>
      </trkpt>
      <trkpt lat="44.22776" lon="5.13265">
        <ele>255</ele>
        <time>2018-02-21T09:35:01Z</time>
      </trkpt>
      <trkpt lat="44.2279" lon="5.13274">
        <ele>255</ele>
        <time>2018-02-21T09:35:04Z</time>
      </trkpt>
      <trkpt lat="44.22805" lon="5.13283">
        <ele>255</ele>
        <time>2018-02-21T09:35:07Z</time>
      </trkpt>
      <trkpt lat="44.22814" lon="5.13289">
        <ele>255</ele>
        <time>2018-02-21T09:35:09Z</time>
      </trkpt>
      <trkpt lat="44.22829" lon="5.13298">
        <ele>256</ele>
        <time>2018-02-21T09:35:12Z</time>
      </trkpt>
      <trkpt lat="44.22839" lon="5.13304">
        <ele>257</ele>
        <time>2018-02-21T09:35:14Z</time>
      </trkpt>
      <trkpt lat="44.22853" lon="5.13312">
        <ele>258</ele>
        <time>2018-02-21T09:35:17Z</time>
      </trkpt>
      <trkpt lat="44.22863" lon="5.13318">
        <ele>258</ele>
        <time>2018-02-21T09:35:19Z</time>
      </trkpt>
      <trkpt lat="44.22877" lon="5.13328">
        <ele>258</ele>
        <time>2018-02-21T09:35:22Z</time>
      </trkpt>
      <trkpt lat="44.22886" lon="5.13334">
        <ele>259</ele>
        <time>2018-02-21T09:35:24Z</time>
      </trkpt>
      <trkpt lat="44.22897" lon="5.13345">
        <ele>259</ele>
        <time>2018-02-21T09:35:27Z</time>
      </trkpt>
      <trkpt lat="44.22903" lon="5.13362">
        <ele>260</ele>
        <time>2018-02-21T09:35:30Z</time>
      </trkpt>
      <trkpt lat="44.22907" lon="5.13381">
        <ele>260</ele>
        <time>2018-02-21T09:35:33Z</time>
      </trkpt>
      <trkpt lat="44.2291" lon="5.13394">
        <ele>260</ele>
        <time>2018-02-21T09:35:35Z</time>
      </trkpt>
      <trkpt lat="44.22912" lon="5.13406">
        <ele>260</ele>
        <time>2018-02-21T09:35:37Z</time>
      </trkpt>
      <trkpt lat="44.22915" lon="5.13418">
        <ele>259</ele>
        <time>2018-02-21T09:35:39Z</time>
      </trkpt>
      <trkpt lat="44.22919" lon="5.13436">
        <ele>259</ele>
        <time>2018-02-21T09:35:42Z</time>
      </trkpt>
      <trkpt lat="44.22922" lon="5.13449">
        <ele>259</ele>
        <time>2018-02-21T09:35:44Z</time>
      </trkpt>
      <trkpt lat="44.22926" lon="5.13467">
        <ele>259</ele>
        <time>2018-02-21T09:35:47Z</time>
      </trkpt>
      <trkpt lat="44.22928" lon="5.1348">
        <ele>259</ele>
        <time>2018-02-21T09:35:49Z</time>
      </trkpt>
      <trkpt lat="44.22931" lon="5.13492">
        <ele>259</ele>
        <time>2018-02-21T09:35:51Z</time>
      </trkpt>
      <trkpt lat="44.22933" lon="5.13506">
        <ele>259</ele>
        <time>2018-02-21T09:35:53Z</time>
      </trkpt>
      <trkpt lat="44.22935" lon="5.13527">
        <ele>259</ele>
        <time>2018-02-21T09:35:56Z</time>
      </trkpt>
      <trkpt lat="44.22937" lon="5.13549">
        <ele>259</ele>
        <time>2018-02-21T09:35:59Z</time>
      </trkpt>
      <trkpt lat="44.22937" lon="5.13564">
        <ele>259</ele>
        <time>2018-02-21T09:36:01Z</time>
      </trkpt>
      <trkpt lat="44.22937" lon="5.13587">
        <ele>259</ele>
        <time>2018-02-21T09:36:04Z</time>
      </trkpt>
      <trkpt lat="44.22939" lon="5.1361">
        <ele>258</ele>
        <time>2018-02-21T09:36:07Z</time>
      </trkpt>
      <trkpt lat="44.22936" lon="5.13632">
        <ele>258</ele>
        <time>2018-02-21T09:36:10Z</time>
      </trkpt>
      <trkpt lat="44.22929" lon="5.1365">
        <ele>257</ele>
        <time>2018-02-21T09:36:13Z</time>
      </trkpt>
      <trkpt lat="44.22925" lon="5.13661">
        <ele>257</ele>
        <time>2018-02-21T09:36:15Z</time>
      </trkpt>
      <trkpt lat="44.22921" lon="5.13674">
        <ele>257</ele>
        <time>2018-02-21T09:36:18Z</time>
      </trkpt>
      <trkpt lat="44.22918" lon="5.13682">
        <ele>257</ele>
        <time>2018-02-21T09:36:20Z</time>
      </trkpt>
      <trkpt lat="44.22915" lon="5.1369">
        <ele>257</ele>
        <time>2018-02-21T09:36:22Z</time>
      </trkpt>
      <trkpt lat="44.22908" lon="5.13696">
        <ele>257</ele>
        <time>2018-02-21T09:36:25Z</time>
      </trkpt>
      <trkpt lat="44.22904" lon="5.13695">
        <ele>256</ele>
        <time>2018-02-21T09:36:27Z</time>
      </trkpt>
      <trkpt lat="44.22902" lon="5.13694">
        <ele>256</ele>
        <time>2018-02-21T09:36:30Z</time>
      </trkpt>
      <trkpt lat="44.22901" lon="5.13693">
        <ele>255</ele>
        <time>2018-02-21T09:36:33Z</time>
      </trkpt>
      <trkpt lat="44.22901" lon="5.13693">
        <ele>255</ele>
        <time>2018-02-21T09:36:35Z</time>
      </trkpt>
      <trkpt lat="44.22901" lon="5.13694">
        <ele>255</ele>
        <time>2018-02-21T09:36:37Z</time>
      </trkpt>
      <trkpt lat="44.22901" lon="5.13694">
        <ele>255</ele>
        <time>2018-02-21T09:36:40Z</time>
      </trkpt>
      <trkpt lat="44.22901" lon="5.13694">
        <ele>255</ele>
        <time>2018-02-21T09:36:42Z</time>
      </trkpt>
      <trkpt lat="44.22901" lon="5.13694">
        <ele>255</ele>
        <time>2018-02-21T09:36:50Z</time>
      </trkpt>
      <trkpt lat="44.22901" lon="5.13694">
        <ele>255</ele>
        <time>2018-02-21T09:36:53Z</time>
      </trkpt>
      <trkpt lat="44.22901" lon="5.13693">
        <ele>255</ele>
        <time>2018-02-21T09:36:55Z</time>
      </trkpt>
      <trkpt lat="44.22901" lon="5.13693">
        <ele>255</ele>
        <time>2018-02-21T09:36:58Z</time>
      </trkpt>
      <trkpt lat="44.22901" lon="5.13693">
        <ele>255</ele>
        <time>2018-02-21T09:37:00Z</time>
      </trkpt>
      <trkpt lat="44.229" lon="5.13692">
        <ele>255</ele>
        <time>2018-02-21T09:37:04Z</time>
      </trkpt>
      <trkpt lat="44.229" lon="5.13692">
        <ele>255</ele>
        <time>2018-02-21T09:37:08Z</time>
      </trkpt>
      <trkpt lat="44.229" lon="5.13692">
        <ele>255</ele>
        <time>2018-02-21T09:37:10Z</time>
      </trkpt>
      <trkpt lat="44.229" lon="5.13692">
        <ele>255</ele>
        <time>2018-02-21T09:37:15Z</time>
      </trkpt>
      <trkpt lat="44.229" lon="5.13691">
        <ele>255</ele>
        <time>2018-02-21T09:37:17Z</time>
      </trkpt>
      <trkpt lat="44.229" lon="5.13691">
        <ele>255</ele>
        <time>2018-02-21T09:37:20Z</time>
      </trkpt>
      <trkpt lat="44.229" lon="5.13691">
        <ele>255</ele>
        <time>2018-02-21T09:37:23Z</time>
      </trkpt>
      <trkpt lat="44.229" lon="5.13691">
        <ele>255</ele>
        <time>2018-02-21T09:37:27Z</time>
      </trkpt>
      <trkpt lat="44.229" lon="5.1369">
        <ele>255</ele>
        <time>2018-02-21T09:37:29Z</time>
      </trkpt>
      <trkpt lat="44.229" lon="5.1369">
        <ele>255</ele>
        <time>2018-02-21T09:37:35Z</time>
      </trkpt>
      <trkpt lat="44.229" lon="5.13691">
        <ele>255</ele>
        <time>2018-02-21T09:37:37Z</time>
      </trkpt>
      <trkpt lat="44.229" lon="5.13691">
        <ele>254</ele>
        <time>2018-02-21T09:37:39Z</time>
      </trkpt>
      <trkpt lat="44.229" lon="5.1369">
        <ele>255</ele>
        <time>2018-02-21T09:37:42Z</time>
      </trkpt>
      <trkpt lat="44.22899" lon="5.1369">
        <ele>255</ele>
        <time>2018-02-21T09:37:45Z</time>
      </trkpt>
      <trkpt lat="44.22898" lon="5.13689">
        <ele>255</ele>
        <time>2018-02-21T09:37:47Z</time>
      </trkpt>
      <trkpt lat="44.22898" lon="5.13689">
        <ele>255</ele>
        <time>2018-02-21T09:37:49Z</time>
      </trkpt>
      <trkpt lat="44.22898" lon="5.13688">
        <ele>255</ele>
        <time>2018-02-21T09:37:51Z</time>
      </trkpt>
      <trkpt lat="44.22897" lon="5.13687">
        <ele>255</ele>
        <time>2018-02-21T09:37:54Z</time>
      </trkpt>
      <trkpt lat="44.22897" lon="5.13687">
        <ele>255</ele>
        <time>2018-02-21T09:37:56Z</time>
      </trkpt>
      <trkpt lat="44.22896" lon="5.13687">
        <ele>255</ele>
        <time>2018-02-21T09:37:59Z</time>
      </trkpt>
      <trkpt lat="44.22896" lon="5.13687">
        <ele>255</ele>
        <time>2018-02-21T09:38:03Z</time>
      </trkpt>
      <trkpt lat="44.22896" lon="5.13687">
        <ele>255</ele>
        <time>2018-02-21T09:38:06Z</time>
      </trkpt>
      <trkpt lat="44.22896" lon="5.13688">
        <ele>255</ele>
        <time>2018-02-21T09:38:09Z</time>
      </trkpt>
      <trkpt lat="44.22896" lon="5.13688">
        <ele>255</ele>
        <time>2018-02-21T09:38:13Z</time>
      </trkpt>
      <trkpt lat="44.22895" lon="5.13687">
        <ele>255</ele>
        <time>2018-02-21T09:38:16Z</time>
      </trkpt>
      <trkpt lat="44.22894" lon="5.13686">
        <ele>255</ele>
        <time>2018-02-21T09:38:19Z</time>
      </trkpt>
      <trkpt lat="44.22894" lon="5.13685">
        <ele>255</ele>
        <time>2018-02-21T09:38:21Z</time>
      </trkpt>
      <trkpt lat="44.22893" lon="5.13684">
        <ele>255</ele>
        <time>2018-02-21T09:38:23Z</time>
      </trkpt>
      <trkpt lat="44.22892" lon="5.13683">
        <ele>255</ele>
        <time>2018-02-21T09:38:25Z</time>
      </trkpt>
      <trkpt lat="44.22892" lon="5.13683">
        <ele>255</ele>
        <time>2018-02-21T09:38:27Z</time>
      </trkpt>
      <trkpt lat="44.22892" lon="5.13683">
        <ele>255</ele>
        <time>2018-02-21T09:38:30Z</time>
      </trkpt>
      <trkpt lat="44.22892" lon="5.13683">
        <ele>256</ele>
        <time>2018-02-21T09:38:32Z</time>
      </trkpt>
      <trkpt lat="44.22893" lon="5.13683">
        <ele>255</ele>
        <time>2018-02-21T09:38:34Z</time>
      </trkpt>
      <trkpt lat="44.22893" lon="5.13685">
        <ele>255</ele>
        <time>2018-02-21T09:38:37Z</time>
      </trkpt>
      <trkpt lat="44.22894" lon="5.13685">
        <ele>255</ele>
        <time>2018-02-21T09:38:39Z</time>
      </trkpt>
      <trkpt lat="44.22894" lon="5.13686">
        <ele>255</ele>
        <time>2018-02-21T09:38:41Z</time>
      </trkpt>
      <trkpt lat="44.22895" lon="5.13687">
        <ele>256</ele>
        <time>2018-02-21T09:38:44Z</time>
      </trkpt>
      <trkpt lat="44.22895" lon="5.13688">
        <ele>256</ele>
        <time>2018-02-21T09:38:46Z</time>
      </trkpt>
      <trkpt lat="44.22895" lon="5.13689">
        <ele>256</ele>
        <time>2018-02-21T09:38:49Z</time>
      </trkpt>
      <trkpt lat="44.22895" lon="5.13689">
        <ele>256</ele>
        <time>2018-02-21T09:38:52Z</time>
      </trkpt>
      <trkpt lat="44.22895" lon="5.13689">
        <ele>255</ele>
        <time>2018-02-21T09:38:54Z</time>
      </trkpt>
      <trkpt lat="44.22895" lon="5.13689">
        <ele>256</ele>
        <time>2018-02-21T09:38:57Z</time>
      </trkpt>
      <trkpt lat="44.22895" lon="5.13689">
        <ele>256</ele>
        <time>2018-02-21T09:39:03Z</time>
      </trkpt>
      <trkpt lat="44.22895" lon="5.13689">
        <ele>256</ele>
        <time>2018-02-21T09:39:05Z</time>
      </trkpt>
      <trkpt lat="44.22895" lon="5.13689">
        <ele>255</ele>
        <time>2018-02-21T09:39:09Z</time>
      </trkpt>
      <trkpt lat="44.22895" lon="5.13689">
        <ele>256</ele>
        <time>2018-02-21T09:39:14Z</time>
      </trkpt>
      <trkpt lat="44.22895" lon="5.13689">
        <ele>256</ele>
        <time>2018-02-21T09:39:17Z</time>
      </trkpt>
      <trkpt lat="44.22895" lon="5.13689">
        <ele>256</ele>
        <time>2018-02-21T09:39:20Z</time>
      </trkpt>
      <trkpt lat="44.22895" lon="5.13688">
        <ele>255</ele>
        <time>2018-02-21T09:39:24Z</time>
      </trkpt>
      <trkpt lat="44.22895" lon="5.13688">
        <ele>255</ele>
        <time>2018-02-21T09:39:27Z</time>
      </trkpt>
      <trkpt lat="44.22895" lon="5.13688">
        <ele>255</ele>
        <time>2018-02-21T09:39:29Z</time>
      </trkpt>
      <trkpt lat="44.22895" lon="5.13688">
        <ele>255</ele>
        <time>2018-02-21T09:39:34Z</time>
      </trkpt>
      <trkpt lat="44.22895" lon="5.13688">
        <ele>255</ele>
        <time>2018-02-21T09:39:39Z</time>
      </trkpt>
      <trkpt lat="44.22895" lon="5.13688">
        <ele>255</ele>
        <time>2018-02-21T09:39:43Z</time>
      </trkpt>
      <trkpt lat="44.22895" lon="5.13688">
        <ele>255</ele>
        <time>2018-02-21T09:39:47Z</time>
      </trkpt>
      <trkpt lat="44.22895" lon="5.13688">
        <ele>255</ele>
        <time>2018-02-21T09:39:50Z</time>
      </trkpt>
      <trkpt lat="44.22894" lon="5.13688">
        <ele>255</ele>
        <time>2018-02-21T09:39:54Z</time>
      </trkpt>
      <trkpt lat="44.22894" lon="5.13687">
        <ele>256</ele>
        <time>2018-02-21T09:39:57Z</time>
      </trkpt>
      <trkpt lat="44.22894" lon="5.13687">
        <ele>256</ele>
        <time>2018-02-21T09:39:59Z</time>
      </trkpt>
      <trkpt lat="44.22894" lon="5.13687">
        <ele>255</ele>
        <time>2018-02-21T09:40:02Z</time>
      </trkpt>
      <trkpt lat="44.22893" lon="5.13687">
        <ele>255</ele>
        <time>2018-02-21T09:40:05Z</time>
      </trkpt>
      <trkpt lat="44.22893" lon="5.13686">
        <ele>255</ele>
        <time>2018-02-21T09:40:07Z</time>
      </trkpt>
      <trkpt lat="44.22893" lon="5.13686">
        <ele>255</ele>
        <time>2018-02-21T09:40:09Z</time>
      </trkpt>
      <trkpt lat="44.22893" lon="5.13686">
        <ele>256</ele>
        <time>2018-02-21T09:40:12Z</time>
      </trkpt>
      <trkpt lat="44.22893" lon="5.13685">
        <ele>256</ele>
        <time>2018-02-21T09:40:15Z</time>
      </trkpt>
      <trkpt lat="44.22893" lon="5.13685">
        <ele>256</ele>
        <time>2018-02-21T09:40:17Z</time>
      </trkpt>
      <trkpt lat="44.22893" lon="5.13685">
        <ele>255</ele>
        <time>2018-02-21T09:40:20Z</time>
      </trkpt>
      <trkpt lat="44.22893" lon="5.13685">
        <ele>255</ele>
        <time>2018-02-21T09:40:23Z</time>
      </trkpt>
      <trkpt lat="44.22893" lon="5.13685">
        <ele>255</ele>
        <time>2018-02-21T09:40:26Z</time>
      </trkpt>
      <trkpt lat="44.22893" lon="5.13684">
        <ele>256</ele>
        <time>2018-02-21T09:40:29Z</time>
      </trkpt>
      <trkpt lat="44.22893" lon="5.13684">
        <ele>256</ele>
        <time>2018-02-21T09:40:31Z</time>
      </trkpt>
      <trkpt lat="44.22894" lon="5.13684">
        <ele>255</ele>
        <time>2018-02-21T09:40:34Z</time>
      </trkpt>
      <trkpt lat="44.22894" lon="5.13684">
        <ele>255</ele>
        <time>2018-02-21T09:40:47Z</time>
      </trkpt>
      <trkpt lat="44.22894" lon="5.13684">
        <ele>256</ele>
        <time>2018-02-21T09:40:52Z</time>
      </trkpt>
      <trkpt lat="44.22894" lon="5.13684">
        <ele>255</ele>
        <time>2018-02-21T09:40:58Z</time>
      </trkpt>
      <trkpt lat="44.22893" lon="5.13685">
        <ele>255</ele>
        <time>2018-02-21T09:41:00Z</time>
      </trkpt>
      <trkpt lat="44.22894" lon="5.13687">
        <ele>255</ele>
        <time>2018-02-21T09:41:03Z</time>
      </trkpt>
      <trkpt lat="44.22894" lon="5.13687">
        <ele>255</ele>
        <time>2018-02-21T09:41:05Z</time>
      </trkpt>
      <trkpt lat="44.22894" lon="5.13688">
        <ele>255</ele>
        <time>2018-02-21T09:41:08Z</time>
      </trkpt>
      <trkpt lat="44.22895" lon="5.13688">
        <ele>255</ele>
        <time>2018-02-21T09:41:11Z</time>
      </trkpt>
      <trkpt lat="44.22895" lon="5.13688">
        <ele>255</ele>
        <time>2018-02-21T09:41:14Z</time>
      </trkpt>
      <trkpt lat="44.22895" lon="5.13689">
        <ele>255</ele>
        <time>2018-02-21T09:41:17Z</time>
      </trkpt>
      <trkpt lat="44.22895" lon="5.13689">
        <ele>255</ele>
        <time>2018-02-21T09:41:19Z</time>
      </trkpt>
      <trkpt lat="44.22895" lon="5.1369">
        <ele>255</ele>
        <time>2018-02-21T09:41:22Z</time>
      </trkpt>
      <trkpt lat="44.22896" lon="5.1369">
        <ele>255</ele>
        <time>2018-02-21T09:41:25Z</time>
      </trkpt>
      <trkpt lat="44.22896" lon="5.13691">
        <ele>255</ele>
        <time>2018-02-21T09:41:28Z</time>
      </trkpt>
      <trkpt lat="44.22896" lon="5.13691">
        <ele>255</ele>
        <time>2018-02-21T09:41:30Z</time>
      </trkpt>
      <trkpt lat="44.22896" lon="5.13692">
        <ele>255</ele>
        <time>2018-02-21T09:41:33Z</time>
      </trkpt>
      <trkpt lat="44.22898" lon="5.13693">
        <ele>255</ele>
        <time>2018-02-21T09:41:36Z</time>
      </trkpt>
      <trkpt lat="44.229" lon="5.13694">
        <ele>255</ele>
        <time>2018-02-21T09:41:38Z</time>
      </trkpt>
      <trkpt lat="44.22901" lon="5.13695">
        <ele>255</ele>
        <time>2018-02-21T09:41:40Z</time>
      </trkpt>
      <trkpt lat="44.22903" lon="5.13693">
        <ele>255</ele>
        <time>2018-02-21T09:41:42Z</time>
      </trkpt>
      <trkpt lat="44.22907" lon="5.13688">
        <ele>255</ele>
        <time>2018-02-21T09:41:45Z</time>
      </trkpt>
      <trkpt lat="44.22908" lon="5.13684">
        <ele>255</ele>
        <time>2018-02-21T09:41:47Z</time>
      </trkpt>
      <trkpt lat="44.22909" lon="5.13683">
        <ele>256</ele>
        <time>2018-02-21T09:41:51Z</time>
      </trkpt>
      <trkpt lat="44.2291" lon="5.13682">
        <ele>255</ele>
        <time>2018-02-21T09:41:55Z</time>
      </trkpt>
      <trkpt lat="44.2291" lon="5.13682">
        <ele>255</ele>
        <time>2018-02-21T09:41:58Z</time>
      </trkpt>
      <trkpt lat="44.2291" lon="5.13682">
        <ele>255</ele>
        <time>2018-02-21T09:42:00Z</time>
      </trkpt>
      <trkpt lat="44.22911" lon="5.13682">
        <ele>255</ele>
        <time>2018-02-21T09:42:02Z</time>
      </trkpt>
      <trkpt lat="44.22911" lon="5.13682">
        <ele>255</ele>
        <time>2018-02-21T09:42:06Z</time>
      </trkpt>
      <trkpt lat="44.22911" lon="5.13682">
        <ele>256</ele>
        <time>2018-02-21T09:42:08Z</time>
      </trkpt>
      <trkpt lat="44.22911" lon="5.13681">
        <ele>256</ele>
        <time>2018-02-21T09:42:11Z</time>
      </trkpt>
      <trkpt lat="44.22912" lon="5.13681">
        <ele>256</ele>
        <time>2018-02-21T09:42:14Z</time>
      </trkpt>
      <trkpt lat="44.22912" lon="5.13681">
        <ele>256</ele>
        <time>2018-02-21T09:42:17Z</time>
      </trkpt>
      <trkpt lat="44.22912" lon="5.13681">
        <ele>256</ele>
        <time>2018-02-21T09:42:20Z</time>
      </trkpt>
      <trkpt lat="44.22913" lon="5.1368">
        <ele>256</ele>
        <time>2018-02-21T09:42:23Z</time>
      </trkpt>
      <trkpt lat="44.22913" lon="5.1368">
        <ele>256</ele>
        <time>2018-02-21T09:42:25Z</time>
      </trkpt>
      <trkpt lat="44.22913" lon="5.1368">
        <ele>256</ele>
        <time>2018-02-21T09:42:28Z</time>
      </trkpt>
      <trkpt lat="44.22913" lon="5.13679">
        <ele>256</ele>
        <time>2018-02-21T09:42:30Z</time>
      </trkpt>
      <trkpt lat="44.22913" lon="5.13679">
        <ele>256</ele>
        <time>2018-02-21T09:42:34Z</time>
      </trkpt>
      <trkpt lat="44.22913" lon="5.13679">
        <ele>256</ele>
        <time>2018-02-21T09:42:37Z</time>
      </trkpt>
      <trkpt lat="44.22913" lon="5.13679">
        <ele>256</ele>
        <time>2018-02-21T09:42:40Z</time>
      </trkpt>
      <trkpt lat="44.22914" lon="5.13679">
        <ele>256</ele>
        <time>2018-02-21T09:42:43Z</time>
      </trkpt>
      <trkpt lat="44.22915" lon="5.13679">
        <ele>256</ele>
        <time>2018-02-21T09:42:46Z</time>
      </trkpt>
      <trkpt lat="44.22915" lon="5.13679">
        <ele>255</ele>
        <time>2018-02-21T09:42:48Z</time>
      </trkpt>
      <trkpt lat="44.22915" lon="5.1368">
        <ele>256</ele>
        <time>2018-02-21T09:42:50Z</time>
      </trkpt>
      <trkpt lat="44.22915" lon="5.1368">
        <ele>256</ele>
        <time>2018-02-21T09:42:53Z</time>
      </trkpt>
      <trkpt lat="44.22915" lon="5.1368">
        <ele>256</ele>
        <time>2018-02-21T09:42:56Z</time>
      </trkpt>
      <trkpt lat="44.22916" lon="5.1368">
        <ele>256</ele>
        <time>2018-02-21T09:42:58Z</time>
      </trkpt>
      <trkpt lat="44.22915" lon="5.13682">
        <ele>256</ele>
        <time>2018-02-21T09:43:01Z</time>
      </trkpt>
      <trkpt lat="44.22914" lon="5.13683">
        <ele>256</ele>
        <time>2018-02-21T09:43:03Z</time>
      </trkpt>
      <trkpt lat="44.22913" lon="5.13685">
        <ele>257</ele>
        <time>2018-02-21T09:43:05Z</time>
      </trkpt>
      <trkpt lat="44.22913" lon="5.13685">
        <ele>257</ele>
        <time>2018-02-21T09:43:08Z</time>
      </trkpt>
      <trkpt lat="44.22913" lon="5.13686">
        <ele>257</ele>
        <time>2018-02-21T09:43:11Z</time>
      </trkpt>
      <trkpt lat="44.22913" lon="5.13687">
        <ele>256</ele>
        <time>2018-02-21T09:43:13Z</time>
      </trkpt>
      <trkpt lat="44.22913" lon="5.1369">
        <ele>256</ele>
        <time>2018-02-21T09:43:15Z</time>
      </trkpt>
      <trkpt lat="44.22914" lon="5.13693">
        <ele>256</ele>
        <time>2018-02-21T09:43:18Z</time>
      </trkpt>
      <trkpt lat="44.22915" lon="5.13696">
        <ele>255</ele>
        <time>2018-02-21T09:43:20Z</time>
      </trkpt>
      <trkpt lat="44.22919" lon="5.137">
        <ele>255</ele>
        <time>2018-02-21T09:43:22Z</time>
      </trkpt>
      <trkpt lat="44.2293" lon="5.13706">
        <ele>254</ele>
        <time>2018-02-21T09:43:25Z</time>
      </trkpt>
      <trkpt lat="44.22939" lon="5.13712">
        <ele>254</ele>
        <time>2018-02-21T09:43:27Z</time>
      </trkpt>
      <trkpt lat="44.22951" lon="5.13722">
        <ele>255</ele>
        <time>2018-02-21T09:43:30Z</time>
      </trkpt>
      <trkpt lat="44.22959" lon="5.1373">
        <ele>255</ele>
        <time>2018-02-21T09:43:32Z</time>
      </trkpt>
      <trkpt lat="44.22969" lon="5.13738">
        <ele>255</ele>
        <time>2018-02-21T09:43:34Z</time>
      </trkpt>
      <trkpt lat="44.22986" lon="5.13751">
        <ele>255</ele>
        <time>2018-02-21T09:43:37Z</time>
      </trkpt>
      <trkpt lat="44.23001" lon="5.13766">
        <ele>255</ele>
        <time>2018-02-21T09:43:40Z</time>
      </trkpt>
      <trkpt lat="44.2301" lon="5.13776">
        <ele>254</ele>
        <time>2018-02-21T09:43:42Z</time>
      </trkpt>
      <trkpt lat="44.23022" lon="5.13789">
        <ele>253</ele>
        <time>2018-02-21T09:43:45Z</time>
      </trkpt>
      <trkpt lat="44.2303" lon="5.13797">
        <ele>252</ele>
        <time>2018-02-21T09:43:47Z</time>
      </trkpt>
      <trkpt lat="44.23041" lon="5.13806">
        <ele>251</ele>
        <time>2018-02-21T09:43:50Z</time>
      </trkpt>
      <trkpt lat="44.23051" lon="5.13817">
        <ele>251</ele>
        <time>2018-02-21T09:43:53Z</time>
      </trkpt>
      <trkpt lat="44.2306" lon="5.13826">
        <ele>251</ele>
        <time>2018-02-21T09:43:56Z</time>
      </trkpt>
      <trkpt lat="44.23068" lon="5.13834">
        <ele>252</ele>
        <time>2018-02-21T09:43:59Z</time>
      </trkpt>
      <trkpt lat="44.23077" lon="5.13842">
        <ele>252</ele>
        <time>2018-02-21T09:44:02Z</time>
      </trkpt>
      <trkpt lat="44.23083" lon="5.13848">
        <ele>252</ele>
        <time>2018-02-21T09:44:04Z</time>
      </trkpt>
      <trkpt lat="44.23089" lon="5.13855">
        <ele>251</ele>
        <time>2018-02-21T09:44:06Z</time>
      </trkpt>
      <trkpt lat="44.231" lon="5.13867">
        <ele>252</ele>
        <time>2018-02-21T09:44:09Z</time>
      </trkpt>
      <trkpt lat="44.2311" lon="5.13879">
        <ele>253</ele>
        <time>2018-02-21T09:44:12Z</time>
      </trkpt>
      <trkpt lat="44.23117" lon="5.13888">
        <ele>253</ele>
        <time>2018-02-21T09:44:14Z</time>
      </trkpt>
      <trkpt lat="44.23126" lon="5.13903">
        <ele>253</ele>
        <time>2018-02-21T09:44:17Z</time>
      </trkpt>
      <trkpt lat="44.23136" lon="5.13918">
        <ele>253</ele>
        <time>2018-02-21T09:44:20Z</time>
      </trkpt>
      <trkpt lat="44.23143" lon="5.13928">
        <ele>254</ele>
        <time>2018-02-21T09:44:22Z</time>
      </trkpt>
      <trkpt lat="44.23154" lon="5.13943">
        <ele>254</ele>
        <time>2018-02-21T09:44:25Z</time>
      </trkpt>
      <trkpt lat="44.23165" lon="5.13957">
        <ele>254</ele>
        <time>2018-02-21T09:44:28Z</time>
      </trkpt>
      <trkpt lat="44.23174" lon="5.13966">
        <ele>253</ele>
        <time>2018-02-21T09:44:30Z</time>
      </trkpt>
      <trkpt lat="44.23183" lon="5.13975">
        <ele>253</ele>
        <time>2018-02-21T09:44:32Z</time>
      </trkpt>
      <trkpt lat="44.23191" lon="5.13983">
        <ele>253</ele>
        <time>2018-02-21T09:44:34Z</time>
      </trkpt>
      <trkpt lat="44.23205" lon="5.13994">
        <ele>253</ele>
        <time>2018-02-21T09:44:37Z</time>
      </trkpt>
      <trkpt lat="44.2322" lon="5.14004">
        <ele>253</ele>
        <time>2018-02-21T09:44:40Z</time>
      </trkpt>
      <trkpt lat="44.23233" lon="5.14014">
        <ele>254</ele>
        <time>2018-02-21T09:44:43Z</time>
      </trkpt>
      <trkpt lat="44.23247" lon="5.14023">
        <ele>254</ele>
        <time>2018-02-21T09:44:46Z</time>
      </trkpt>
      <trkpt lat="44.23261" lon="5.14033">
        <ele>254</ele>
        <time>2018-02-21T09:44:49Z</time>
      </trkpt>
      <trkpt lat="44.23275" lon="5.14042">
        <ele>254</ele>
        <time>2018-02-21T09:44:52Z</time>
      </trkpt>
      <trkpt lat="44.23288" lon="5.14051">
        <ele>255</ele>
        <time>2018-02-21T09:44:55Z</time>
      </trkpt>
      <trkpt lat="44.23302" lon="5.14059">
        <ele>255</ele>
        <time>2018-02-21T09:44:58Z</time>
      </trkpt>
      <trkpt lat="44.23311" lon="5.14064">
        <ele>254</ele>
        <time>2018-02-21T09:45:00Z</time>
      </trkpt>
      <trkpt lat="44.23325" lon="5.1407">
        <ele>254</ele>
        <time>2018-02-21T09:45:03Z</time>
      </trkpt>
      <trkpt lat="44.2334" lon="5.14075">
        <ele>254</ele>
        <time>2018-02-21T09:45:06Z</time>
      </trkpt>
      <trkpt lat="44.23354" lon="5.14078">
        <ele>255</ele>
        <time>2018-02-21T09:45:09Z</time>
      </trkpt>
      <trkpt lat="44.23369" lon="5.14081">
        <ele>255</ele>
        <time>2018-02-21T09:45:12Z</time>
      </trkpt>
      <trkpt lat="44.23379" lon="5.14083">
        <ele>255</ele>
        <time>2018-02-21T09:45:14Z</time>
      </trkpt>
      <trkpt lat="44.23394" lon="5.14085">
        <ele>255</ele>
        <time>2018-02-21T09:45:17Z</time>
      </trkpt>
      <trkpt lat="44.23409" lon="5.14088">
        <ele>255</ele>
        <time>2018-02-21T09:45:20Z</time>
      </trkpt>
      <trkpt lat="44.23424" lon="5.14093">
        <ele>255</ele>
        <time>2018-02-21T09:45:23Z</time>
      </trkpt>
      <trkpt lat="44.23433" lon="5.14096">
        <ele>256</ele>
        <time>2018-02-21T09:45:25Z</time>
      </trkpt>
      <trkpt lat="44.23447" lon="5.14103">
        <ele>256</ele>
        <time>2018-02-21T09:45:28Z</time>
      </trkpt>
      <trkpt lat="44.23461" lon="5.14112">
        <ele>256</ele>
        <time>2018-02-21T09:45:31Z</time>
      </trkpt>
      <trkpt lat="44.2347" lon="5.14118">
        <ele>256</ele>
        <time>2018-02-21T09:45:33Z</time>
      </trkpt>
      <trkpt lat="44.23478" lon="5.14125">
        <ele>256</ele>
        <time>2018-02-21T09:45:35Z</time>
      </trkpt>
      <trkpt lat="44.23491" lon="5.14138">
        <ele>256</ele>
        <time>2018-02-21T09:45:38Z</time>
      </trkpt>
      <trkpt lat="44.23503" lon="5.14152">
        <ele>256</ele>
        <time>2018-02-21T09:45:41Z</time>
      </trkpt>
      <trkpt lat="44.23514" lon="5.14168">
        <ele>256</ele>
        <time>2018-02-21T09:45:44Z</time>
      </trkpt>
      <trkpt lat="44.23525" lon="5.14185">
        <ele>256</ele>
        <time>2018-02-21T09:45:47Z</time>
      </trkpt>
      <trkpt lat="44.23532" lon="5.14197">
        <ele>256</ele>
        <time>2018-02-21T09:45:49Z</time>
      </trkpt>
      <trkpt lat="44.23541" lon="5.14217">
        <ele>256</ele>
        <time>2018-02-21T09:45:52Z</time>
      </trkpt>
      <trkpt lat="44.23549" lon="5.14236">
        <ele>257</ele>
        <time>2018-02-21T09:45:55Z</time>
      </trkpt>
      <trkpt lat="44.23557" lon="5.14257">
        <ele>257</ele>
        <time>2018-02-21T09:45:58Z</time>
      </trkpt>
      <trkpt lat="44.23565" lon="5.14278">
        <ele>257</ele>
        <time>2018-02-21T09:46:01Z</time>
      </trkpt>
      <trkpt lat="44.23572" lon="5.14299">
        <ele>258</ele>
        <time>2018-02-21T09:46:04Z</time>
      </trkpt>
      <trkpt lat="44.23578" lon="5.1432">
        <ele>258</ele>
        <time>2018-02-21T09:46:07Z</time>
      </trkpt>
      <trkpt lat="44.23585" lon="5.1434">
        <ele>258</ele>
        <time>2018-02-21T09:46:10Z</time>
      </trkpt>
      <trkpt lat="44.2359" lon="5.14354">
        <ele>258</ele>
        <time>2018-02-21T09:46:12Z</time>
      </trkpt>
      <trkpt lat="44.23594" lon="5.14368">
        <ele>258</ele>
        <time>2018-02-21T09:46:14Z</time>
      </trkpt>
      <trkpt lat="44.236" lon="5.1439">
        <ele>258</ele>
        <time>2018-02-21T09:46:17Z</time>
      </trkpt>
      <trkpt lat="44.23606" lon="5.14412">
        <ele>258</ele>
        <time>2018-02-21T09:46:20Z</time>
      </trkpt>
      <trkpt lat="44.23611" lon="5.14435">
        <ele>258</ele>
        <time>2018-02-21T09:46:23Z</time>
      </trkpt>
      <trkpt lat="44.23615" lon="5.14457">
        <ele>258</ele>
        <time>2018-02-21T09:46:26Z</time>
      </trkpt>
      <trkpt lat="44.23619" lon="5.1448">
        <ele>258</ele>
        <time>2018-02-21T09:46:29Z</time>
      </trkpt>
      <trkpt lat="44.23622" lon="5.14502">
        <ele>258</ele>
        <time>2018-02-21T09:46:32Z</time>
      </trkpt>
      <trkpt lat="44.23626" lon="5.14524">
        <ele>258</ele>
        <time>2018-02-21T09:46:35Z</time>
      </trkpt>
      <trkpt lat="44.23629" lon="5.14545">
        <ele>259</ele>
        <time>2018-02-21T09:46:38Z</time>
      </trkpt>
      <trkpt lat="44.23631" lon="5.14559">
        <ele>259</ele>
        <time>2018-02-21T09:46:40Z</time>
      </trkpt>
      <trkpt lat="44.23634" lon="5.14574">
        <ele>259</ele>
        <time>2018-02-21T09:46:42Z</time>
      </trkpt>
      <trkpt lat="44.23638" lon="5.14595">
        <ele>259</ele>
        <time>2018-02-21T09:46:45Z</time>
      </trkpt>
      <trkpt lat="44.23643" lon="5.14616">
        <ele>259</ele>
        <time>2018-02-21T09:46:48Z</time>
      </trkpt>
      <trkpt lat="44.2365" lon="5.14636">
        <ele>259</ele>
        <time>2018-02-21T09:46:51Z</time>
      </trkpt>
      <trkpt lat="44.2366" lon="5.14654">
        <ele>260</ele>
        <time>2018-02-21T09:46:54Z</time>
      </trkpt>
      <trkpt lat="44.2367" lon="5.14672">
        <ele>260</ele>
        <time>2018-02-21T09:46:57Z</time>
      </trkpt>
      <trkpt lat="44.2368" lon="5.14689">
        <ele>261</ele>
        <time>2018-02-21T09:47:00Z</time>
      </trkpt>
      <trkpt lat="44.23691" lon="5.14705">
        <ele>262</ele>
        <time>2018-02-21T09:47:03Z</time>
      </trkpt>
      <trkpt lat="44.23698" lon="5.14716">
        <ele>262</ele>
        <time>2018-02-21T09:47:05Z</time>
      </trkpt>
      <trkpt lat="44.23708" lon="5.14732">
        <ele>262</ele>
        <time>2018-02-21T09:47:08Z</time>
      </trkpt>
      <trkpt lat="44.23719" lon="5.14749">
        <ele>262</ele>
        <time>2018-02-21T09:47:11Z</time>
      </trkpt>
      <trkpt lat="44.23727" lon="5.14767">
        <ele>263</ele>
        <time>2018-02-21T09:47:14Z</time>
      </trkpt>
      <trkpt lat="44.23735" lon="5.14787">
        <ele>264</ele>
        <time>2018-02-21T09:47:17Z</time>
      </trkpt>
      <trkpt lat="44.23739" lon="5.14807">
        <ele>264</ele>
        <time>2018-02-21T09:47:20Z</time>
      </trkpt>
      <trkpt lat="44.23742" lon="5.14825">
        <ele>265</ele>
        <time>2018-02-21T09:47:23Z</time>
      </trkpt>
      <trkpt lat="44.23742" lon="5.14833">
        <ele>265</ele>
        <time>2018-02-21T09:47:26Z</time>
      </trkpt>
      <trkpt lat="44.23751" lon="5.14854">
        <ele>265</ele>
        <time>2018-02-21T09:47:31Z</time>
      </trkpt>
      <trkpt lat="44.23747" lon="5.14876">
        <ele>266</ele>
        <time>2018-02-21T09:47:34Z</time>
      </trkpt>
      <trkpt lat="44.23741" lon="5.14891">
        <ele>267</ele>
        <time>2018-02-21T09:47:36Z</time>
      </trkpt>
      <trkpt lat="44.23735" lon="5.14907">
        <ele>268</ele>
        <time>2018-02-21T09:47:38Z</time>
      </trkpt>
      <trkpt lat="44.23729" lon="5.14922">
        <ele>269</ele>
        <time>2018-02-21T09:47:40Z</time>
      </trkpt>
      <trkpt lat="44.23719" lon="5.14944">
        <ele>270</ele>
        <time>2018-02-21T09:47:43Z</time>
      </trkpt>
      <trkpt lat="44.23707" lon="5.14964">
        <ele>270</ele>
        <time>2018-02-21T09:47:46Z</time>
      </trkpt>
      <trkpt lat="44.23695" lon="5.14982">
        <ele>270</ele>
        <time>2018-02-21T09:47:49Z</time>
      </trkpt>
      <trkpt lat="44.23681" lon="5.14997">
        <ele>270</ele>
        <time>2018-02-21T09:47:52Z</time>
      </trkpt>
      <trkpt lat="44.23672" lon="5.15006">
        <ele>270</ele>
        <time>2018-02-21T09:47:54Z</time>
      </trkpt>
      <trkpt lat="44.23663" lon="5.15014">
        <ele>271</ele>
        <time>2018-02-21T09:47:56Z</time>
      </trkpt>
      <trkpt lat="44.23649" lon="5.15025">
        <ele>271</ele>
        <time>2018-02-21T09:47:59Z</time>
      </trkpt>
      <trkpt lat="44.23635" lon="5.15036">
        <ele>271</ele>
        <time>2018-02-21T09:48:02Z</time>
      </trkpt>
      <trkpt lat="44.23621" lon="5.15047">
        <ele>271</ele>
        <time>2018-02-21T09:48:05Z</time>
      </trkpt>
      <trkpt lat="44.23607" lon="5.15057">
        <ele>271</ele>
        <time>2018-02-21T09:48:08Z</time>
      </trkpt>
      <trkpt lat="44.23598" lon="5.15063">
        <ele>272</ele>
        <time>2018-02-21T09:48:10Z</time>
      </trkpt>
      <trkpt lat="44.23585" lon="5.15072">
        <ele>271</ele>
        <time>2018-02-21T09:48:13Z</time>
      </trkpt>
      <trkpt lat="44.23576" lon="5.15079">
        <ele>272</ele>
        <time>2018-02-21T09:48:15Z</time>
      </trkpt>
      <trkpt lat="44.23563" lon="5.15089">
        <ele>272</ele>
        <time>2018-02-21T09:48:18Z</time>
      </trkpt>
      <trkpt lat="44.23555" lon="5.15097">
        <ele>272</ele>
        <time>2018-02-21T09:48:20Z</time>
      </trkpt>
      <trkpt lat="44.23546" lon="5.15104">
        <ele>272</ele>
        <time>2018-02-21T09:48:22Z</time>
      </trkpt>
      <trkpt lat="44.23535" lon="5.15119">
        <ele>272</ele>
        <time>2018-02-21T09:48:25Z</time>
      </trkpt>
      <trkpt lat="44.23528" lon="5.15128">
        <ele>272</ele>
        <time>2018-02-21T09:48:27Z</time>
      </trkpt>
      <trkpt lat="44.23521" lon="5.15139">
        <ele>273</ele>
        <time>2018-02-21T09:48:29Z</time>
      </trkpt>
      <trkpt lat="44.23512" lon="5.15157">
        <ele>272</ele>
        <time>2018-02-21T09:48:32Z</time>
      </trkpt>
      <trkpt lat="44.23505" lon="5.15174">
        <ele>273</ele>
        <time>2018-02-21T09:48:35Z</time>
      </trkpt>
      <trkpt lat="44.23501" lon="5.15187">
        <ele>273</ele>
        <time>2018-02-21T09:48:37Z</time>
      </trkpt>
      <trkpt lat="44.23496" lon="5.15206">
        <ele>273</ele>
        <time>2018-02-21T09:48:40Z</time>
      </trkpt>
      <trkpt lat="44.23494" lon="5.1522">
        <ele>273</ele>
        <time>2018-02-21T09:48:42Z</time>
      </trkpt>
      <trkpt lat="44.23492" lon="5.15241">
        <ele>273</ele>
        <time>2018-02-21T09:48:45Z</time>
      </trkpt>
      <trkpt lat="44.23491" lon="5.15262">
        <ele>274</ele>
        <time>2018-02-21T09:48:48Z</time>
      </trkpt>
      <trkpt lat="44.23493" lon="5.15283">
        <ele>274</ele>
        <time>2018-02-21T09:48:51Z</time>
      </trkpt>
      <trkpt lat="44.23494" lon="5.15298">
        <ele>274</ele>
        <time>2018-02-21T09:48:53Z</time>
      </trkpt>
      <trkpt lat="44.23496" lon="5.15312">
        <ele>274</ele>
        <time>2018-02-21T09:48:55Z</time>
      </trkpt>
      <trkpt lat="44.235" lon="5.15334">
        <ele>275</ele>
        <time>2018-02-21T09:48:58Z</time>
      </trkpt>
      <trkpt lat="44.23503" lon="5.15355">
        <ele>276</ele>
        <time>2018-02-21T09:49:01Z</time>
      </trkpt>
      <trkpt lat="44.23505" lon="5.1537">
        <ele>276</ele>
        <time>2018-02-21T09:49:03Z</time>
      </trkpt>
      <trkpt lat="44.23508" lon="5.15384">
        <ele>277</ele>
        <time>2018-02-21T09:49:05Z</time>
      </trkpt>
      <trkpt lat="44.23511" lon="5.15405">
        <ele>277</ele>
        <time>2018-02-21T09:49:08Z</time>
      </trkpt>
      <trkpt lat="44.23513" lon="5.15419">
        <ele>277</ele>
        <time>2018-02-21T09:49:10Z</time>
      </trkpt>
      <trkpt lat="44.23515" lon="5.15433">
        <ele>278</ele>
        <time>2018-02-21T09:49:12Z</time>
      </trkpt>
      <trkpt lat="44.23516" lon="5.15455">
        <ele>278</ele>
        <time>2018-02-21T09:49:15Z</time>
      </trkpt>
      <trkpt lat="44.23516" lon="5.15477">
        <ele>278</ele>
        <time>2018-02-21T09:49:18Z</time>
      </trkpt>
      <trkpt lat="44.23515" lon="5.15498">
        <ele>277</ele>
        <time>2018-02-21T09:49:21Z</time>
      </trkpt>
      <trkpt lat="44.23515" lon="5.15513">
        <ele>278</ele>
        <time>2018-02-21T09:49:23Z</time>
      </trkpt>
      <trkpt lat="44.23514" lon="5.15527">
        <ele>278</ele>
        <time>2018-02-21T09:49:25Z</time>
      </trkpt>
      <trkpt lat="44.23512" lon="5.15546">
        <ele>278</ele>
        <time>2018-02-21T09:49:28Z</time>
      </trkpt>
      <trkpt lat="44.2351" lon="5.15561">
        <ele>278</ele>
        <time>2018-02-21T09:49:31Z</time>
      </trkpt>
      <trkpt lat="44.23508" lon="5.15576">
        <ele>278</ele>
        <time>2018-02-21T09:49:34Z</time>
      </trkpt>
      <trkpt lat="44.23507" lon="5.1559">
        <ele>279</ele>
        <time>2018-02-21T09:49:37Z</time>
      </trkpt>
      <trkpt lat="44.23504" lon="5.15605">
        <ele>279</ele>
        <time>2018-02-21T09:49:40Z</time>
      </trkpt>
      <trkpt lat="44.23501" lon="5.1562">
        <ele>279</ele>
        <time>2018-02-21T09:49:43Z</time>
      </trkpt>
      <trkpt lat="44.23499" lon="5.15635">
        <ele>279</ele>
        <time>2018-02-21T09:49:46Z</time>
      </trkpt>
      <trkpt lat="44.23497" lon="5.15651">
        <ele>279</ele>
        <time>2018-02-21T09:49:49Z</time>
      </trkpt>
      <trkpt lat="44.23495" lon="5.15661">
        <ele>279</ele>
        <time>2018-02-21T09:49:51Z</time>
      </trkpt>
      <trkpt lat="44.23494" lon="5.15672">
        <ele>279</ele>
        <time>2018-02-21T09:49:53Z</time>
      </trkpt>
      <trkpt lat="44.23492" lon="5.15689">
        <ele>279</ele>
        <time>2018-02-21T09:49:56Z</time>
      </trkpt>
      <trkpt lat="44.23489" lon="5.15704">
        <ele>278</ele>
        <time>2018-02-21T09:49:59Z</time>
      </trkpt>
      <trkpt lat="44.23486" lon="5.15722">
        <ele>279</ele>
        <time>2018-02-21T09:50:02Z</time>
      </trkpt>
      <trkpt lat="44.23481" lon="5.15739">
        <ele>280</ele>
        <time>2018-02-21T09:50:05Z</time>
      </trkpt>
      <trkpt lat="44.23478" lon="5.15757">
        <ele>281</ele>
        <time>2018-02-21T09:50:08Z</time>
      </trkpt>
      <trkpt lat="44.23475" lon="5.15775">
        <ele>281</ele>
        <time>2018-02-21T09:50:11Z</time>
      </trkpt>
      <trkpt lat="44.23473" lon="5.15795">
        <ele>281</ele>
        <time>2018-02-21T09:50:14Z</time>
      </trkpt>
      <trkpt lat="44.2347" lon="5.15813">
        <ele>282</ele>
        <time>2018-02-21T09:50:17Z</time>
      </trkpt>
      <trkpt lat="44.23468" lon="5.15826">
        <ele>282</ele>
        <time>2018-02-21T09:50:19Z</time>
      </trkpt>
      <trkpt lat="44.23465" lon="5.15844">
        <ele>282</ele>
        <time>2018-02-21T09:50:22Z</time>
      </trkpt>
      <trkpt lat="44.23462" lon="5.15863">
        <ele>282</ele>
        <time>2018-02-21T09:50:25Z</time>
      </trkpt>
      <trkpt lat="44.2346" lon="5.15875">
        <ele>282</ele>
        <time>2018-02-21T09:50:27Z</time>
      </trkpt>
      <trkpt lat="44.23457" lon="5.15894">
        <ele>283</ele>
        <time>2018-02-21T09:50:30Z</time>
      </trkpt>
      <trkpt lat="44.23456" lon="5.15906">
        <ele>283</ele>
        <time>2018-02-21T09:50:32Z</time>
      </trkpt>
      <trkpt lat="44.23453" lon="5.15924">
        <ele>283</ele>
        <time>2018-02-21T09:50:35Z</time>
      </trkpt>
      <trkpt lat="44.2345" lon="5.15942">
        <ele>284</ele>
        <time>2018-02-21T09:50:38Z</time>
      </trkpt>
      <trkpt lat="44.23448" lon="5.15961">
        <ele>284</ele>
        <time>2018-02-21T09:50:41Z</time>
      </trkpt>
      <trkpt lat="44.23444" lon="5.1598">
        <ele>284</ele>
        <time>2018-02-21T09:50:44Z</time>
      </trkpt>
      <trkpt lat="44.23442" lon="5.15993">
        <ele>284</ele>
        <time>2018-02-21T09:50:46Z</time>
      </trkpt>
      <trkpt lat="44.23441" lon="5.16006">
        <ele>284</ele>
        <time>2018-02-21T09:50:48Z</time>
      </trkpt>
      <trkpt lat="44.23438" lon="5.16026">
        <ele>284</ele>
        <time>2018-02-21T09:50:51Z</time>
      </trkpt>
      <trkpt lat="44.23435" lon="5.16046">
        <ele>285</ele>
        <time>2018-02-21T09:50:54Z</time>
      </trkpt>
      <trkpt lat="44.23432" lon="5.16066">
        <ele>285</ele>
        <time>2018-02-21T09:50:57Z</time>
      </trkpt>
      <trkpt lat="44.2343" lon="5.16085">
        <ele>285</ele>
        <time>2018-02-21T09:51:00Z</time>
      </trkpt>
      <trkpt lat="44.23429" lon="5.16098">
        <ele>285</ele>
        <time>2018-02-21T09:51:02Z</time>
      </trkpt>
      <trkpt lat="44.23428" lon="5.16112">
        <ele>285</ele>
        <time>2018-02-21T09:51:04Z</time>
      </trkpt>
      <trkpt lat="44.23428" lon="5.16132">
        <ele>285</ele>
        <time>2018-02-21T09:51:07Z</time>
      </trkpt>
      <trkpt lat="44.23429" lon="5.16151">
        <ele>285</ele>
        <time>2018-02-21T09:51:10Z</time>
      </trkpt>
      <trkpt lat="44.23429" lon="5.16164">
        <ele>285</ele>
        <time>2018-02-21T09:51:12Z</time>
      </trkpt>
      <trkpt lat="44.23433" lon="5.16184">
        <ele>285</ele>
        <time>2018-02-21T09:51:15Z</time>
      </trkpt>
      <trkpt lat="44.23438" lon="5.16203">
        <ele>286</ele>
        <time>2018-02-21T09:51:18Z</time>
      </trkpt>
      <trkpt lat="44.23444" lon="5.16221">
        <ele>287</ele>
        <time>2018-02-21T09:51:21Z</time>
      </trkpt>
      <trkpt lat="44.23448" lon="5.16232">
        <ele>287</ele>
        <time>2018-02-21T09:51:23Z</time>
      </trkpt>
      <trkpt lat="44.23457" lon="5.16248">
        <ele>288</ele>
        <time>2018-02-21T09:51:26Z</time>
      </trkpt>
      <trkpt lat="44.23466" lon="5.16253">
        <ele>289</ele>
        <time>2018-02-21T09:51:28Z</time>
      </trkpt>
      <trkpt lat="44.23475" lon="5.16254">
        <ele>288</ele>
        <time>2018-02-21T09:51:30Z</time>
      </trkpt>
      <trkpt lat="44.23489" lon="5.16257">
        <ele>288</ele>
        <time>2018-02-21T09:51:33Z</time>
      </trkpt>
      <trkpt lat="44.235" lon="5.16269">
        <ele>288</ele>
        <time>2018-02-21T09:51:36Z</time>
      </trkpt>
      <trkpt lat="44.23507" lon="5.16285">
        <ele>288</ele>
        <time>2018-02-21T09:51:39Z</time>
      </trkpt>
      <trkpt lat="44.23513" lon="5.16301">
        <ele>289</ele>
        <time>2018-02-21T09:51:42Z</time>
      </trkpt>
      <trkpt lat="44.2352" lon="5.16319">
        <ele>290</ele>
        <time>2018-02-21T09:51:45Z</time>
      </trkpt>
      <trkpt lat="44.23525" lon="5.16336">
        <ele>290</ele>
        <time>2018-02-21T09:51:48Z</time>
      </trkpt>
      <trkpt lat="44.2353" lon="5.16355">
        <ele>292</ele>
        <time>2018-02-21T09:51:51Z</time>
      </trkpt>
      <trkpt lat="44.23535" lon="5.16372">
        <ele>292</ele>
        <time>2018-02-21T09:51:54Z</time>
      </trkpt>
      <trkpt lat="44.23537" lon="5.16385">
        <ele>293</ele>
        <time>2018-02-21T09:51:56Z</time>
      </trkpt>
      <trkpt lat="44.23536" lon="5.16397">
        <ele>293</ele>
        <time>2018-02-21T09:51:58Z</time>
      </trkpt>
      <trkpt lat="44.23533" lon="5.16416">
        <ele>293</ele>
        <time>2018-02-21T09:52:01Z</time>
      </trkpt>
      <trkpt lat="44.23532" lon="5.1643">
        <ele>294</ele>
        <time>2018-02-21T09:52:03Z</time>
      </trkpt>
      <trkpt lat="44.2353" lon="5.1645">
        <ele>294</ele>
        <time>2018-02-21T09:52:06Z</time>
      </trkpt>
      <trkpt lat="44.23527" lon="5.16469">
        <ele>295</ele>
        <time>2018-02-21T09:52:09Z</time>
      </trkpt>
      <trkpt lat="44.23523" lon="5.16489">
        <ele>295</ele>
        <time>2018-02-21T09:52:12Z</time>
      </trkpt>
      <trkpt lat="44.2352" lon="5.16508">
        <ele>295</ele>
        <time>2018-02-21T09:52:15Z</time>
      </trkpt>
      <trkpt lat="44.23517" lon="5.16528">
        <ele>295</ele>
        <time>2018-02-21T09:52:18Z</time>
      </trkpt>
      <trkpt lat="44.23513" lon="5.16547">
        <ele>295</ele>
        <time>2018-02-21T09:52:21Z</time>
      </trkpt>
      <trkpt lat="44.2351" lon="5.1656">
        <ele>295</ele>
        <time>2018-02-21T09:52:23Z</time>
      </trkpt>
      <trkpt lat="44.23507" lon="5.1658">
        <ele>296</ele>
        <time>2018-02-21T09:52:26Z</time>
      </trkpt>
      <trkpt lat="44.23502" lon="5.16599">
        <ele>296</ele>
        <time>2018-02-21T09:52:29Z</time>
      </trkpt>
      <trkpt lat="44.23498" lon="5.16617">
        <ele>296</ele>
        <time>2018-02-21T09:52:32Z</time>
      </trkpt>
      <trkpt lat="44.23494" lon="5.16635">
        <ele>297</ele>
        <time>2018-02-21T09:52:35Z</time>
      </trkpt>
      <trkpt lat="44.23487" lon="5.16654">
        <ele>298</ele>
        <time>2018-02-21T09:52:38Z</time>
      </trkpt>
      <trkpt lat="44.23483" lon="5.16667">
        <ele>298</ele>
        <time>2018-02-21T09:52:40Z</time>
      </trkpt>
      <trkpt lat="44.23476" lon="5.16686">
        <ele>298</ele>
        <time>2018-02-21T09:52:43Z</time>
      </trkpt>
      <trkpt lat="44.2347" lon="5.16705">
        <ele>298</ele>
        <time>2018-02-21T09:52:46Z</time>
      </trkpt>
      <trkpt lat="44.23463" lon="5.16724">
        <ele>299</ele>
        <time>2018-02-21T09:52:49Z</time>
      </trkpt>
      <trkpt lat="44.23459" lon="5.16738">
        <ele>299</ele>
        <time>2018-02-21T09:52:51Z</time>
      </trkpt>
      <trkpt lat="44.23455" lon="5.1675">
        <ele>299</ele>
        <time>2018-02-21T09:52:53Z</time>
      </trkpt>
      <trkpt lat="44.23448" lon="5.1677">
        <ele>299</ele>
        <time>2018-02-21T09:52:56Z</time>
      </trkpt>
      <trkpt lat="44.23442" lon="5.1679">
        <ele>300</ele>
        <time>2018-02-21T09:52:59Z</time>
      </trkpt>
      <trkpt lat="44.23436" lon="5.1681">
        <ele>300</ele>
        <time>2018-02-21T09:53:02Z</time>
      </trkpt>
      <trkpt lat="44.23429" lon="5.1683">
        <ele>300</ele>
        <time>2018-02-21T09:53:05Z</time>
      </trkpt>
      <trkpt lat="44.23423" lon="5.1685">
        <ele>300</ele>
        <time>2018-02-21T09:53:08Z</time>
      </trkpt>
      <trkpt lat="44.23416" lon="5.1687">
        <ele>301</ele>
        <time>2018-02-21T09:53:11Z</time>
      </trkpt>
      <trkpt lat="44.23409" lon="5.16891">
        <ele>301</ele>
        <time>2018-02-21T09:53:14Z</time>
      </trkpt>
      <trkpt lat="44.23403" lon="5.16911">
        <ele>301</ele>
        <time>2018-02-21T09:53:17Z</time>
      </trkpt>
      <trkpt lat="44.23399" lon="5.16925">
        <ele>301</ele>
        <time>2018-02-21T09:53:19Z</time>
      </trkpt>
      <trkpt lat="44.23396" lon="5.16939">
        <ele>301</ele>
        <time>2018-02-21T09:53:21Z</time>
      </trkpt>
      <trkpt lat="44.2339" lon="5.16961">
        <ele>301</ele>
        <time>2018-02-21T09:53:24Z</time>
      </trkpt>
      <trkpt lat="44.23386" lon="5.16983">
        <ele>301</ele>
        <time>2018-02-21T09:53:27Z</time>
      </trkpt>
      <trkpt lat="44.23382" lon="5.17005">
        <ele>302</ele>
        <time>2018-02-21T09:53:30Z</time>
      </trkpt>
      <trkpt lat="44.23378" lon="5.17028">
        <ele>303</ele>
        <time>2018-02-21T09:53:33Z</time>
      </trkpt>
      <trkpt lat="44.23375" lon="5.17051">
        <ele>303</ele>
        <time>2018-02-21T09:53:36Z</time>
      </trkpt>
      <trkpt lat="44.23374" lon="5.17066">
        <ele>303</ele>
        <time>2018-02-21T09:53:38Z</time>
      </trkpt>
      <trkpt lat="44.23372" lon="5.17081">
        <ele>303</ele>
        <time>2018-02-21T09:53:40Z</time>
      </trkpt>
      <trkpt lat="44.23371" lon="5.17105">
        <ele>303</ele>
        <time>2018-02-21T09:53:43Z</time>
      </trkpt>
      <trkpt lat="44.2337" lon="5.17128">
        <ele>302</ele>
        <time>2018-02-21T09:53:46Z</time>
      </trkpt>
      <trkpt lat="44.2337" lon="5.17144">
        <ele>301</ele>
        <time>2018-02-21T09:53:48Z</time>
      </trkpt>
      <trkpt lat="44.23368" lon="5.17167">
        <ele>300</ele>
        <time>2018-02-21T09:53:51Z</time>
      </trkpt>
      <trkpt lat="44.23368" lon="5.17183">
        <ele>300</ele>
        <time>2018-02-21T09:53:53Z</time>
      </trkpt>
      <trkpt lat="44.23367" lon="5.17199">
        <ele>300</ele>
        <time>2018-02-21T09:53:55Z</time>
      </trkpt>
      <trkpt lat="44.23367" lon="5.17222">
        <ele>300</ele>
        <time>2018-02-21T09:53:58Z</time>
      </trkpt>
      <trkpt lat="44.23365" lon="5.17239">
        <ele>300</ele>
        <time>2018-02-21T09:54:00Z</time>
      </trkpt>
      <trkpt lat="44.23363" lon="5.17263">
        <ele>300</ele>
        <time>2018-02-21T09:54:03Z</time>
      </trkpt>
      <trkpt lat="44.2336" lon="5.17287">
        <ele>299</ele>
        <time>2018-02-21T09:54:06Z</time>
      </trkpt>
      <trkpt lat="44.23355" lon="5.1731">
        <ele>299</ele>
        <time>2018-02-21T09:54:09Z</time>
      </trkpt>
      <trkpt lat="44.23351" lon="5.17334">
        <ele>299</ele>
        <time>2018-02-21T09:54:12Z</time>
      </trkpt>
      <trkpt lat="44.23347" lon="5.17356">
        <ele>299</ele>
        <time>2018-02-21T09:54:15Z</time>
      </trkpt>
      <trkpt lat="44.23343" lon="5.17379">
        <ele>299</ele>
        <time>2018-02-21T09:54:18Z</time>
      </trkpt>
      <trkpt lat="44.23338" lon="5.17402">
        <ele>300</ele>
        <time>2018-02-21T09:54:21Z</time>
      </trkpt>
      <trkpt lat="44.23335" lon="5.17425">
        <ele>300</ele>
        <time>2018-02-21T09:54:24Z</time>
      </trkpt>
      <trkpt lat="44.23333" lon="5.1744">
        <ele>299</ele>
        <time>2018-02-21T09:54:26Z</time>
      </trkpt>
      <trkpt lat="44.23331" lon="5.17463">
        <ele>299</ele>
        <time>2018-02-21T09:54:29Z</time>
      </trkpt>
      <trkpt lat="44.2333" lon="5.17479">
        <ele>298</ele>
        <time>2018-02-21T09:54:31Z</time>
      </trkpt>
      <trkpt lat="44.23329" lon="5.17493">
        <ele>298</ele>
        <time>2018-02-21T09:54:33Z</time>
      </trkpt>
      <trkpt lat="44.23329" lon="5.17515">
        <ele>298</ele>
        <time>2018-02-21T09:54:36Z</time>
      </trkpt>
      <trkpt lat="44.23329" lon="5.17529">
        <ele>298</ele>
        <time>2018-02-21T09:54:38Z</time>
      </trkpt>
      <trkpt lat="44.23331" lon="5.1755">
        <ele>298</ele>
        <time>2018-02-21T09:54:41Z</time>
      </trkpt>
      <trkpt lat="44.23332" lon="5.17572">
        <ele>298</ele>
        <time>2018-02-21T09:54:44Z</time>
      </trkpt>
      <trkpt lat="44.23333" lon="5.17587">
        <ele>298</ele>
        <time>2018-02-21T09:54:46Z</time>
      </trkpt>
      <trkpt lat="44.23334" lon="5.17601">
        <ele>298</ele>
        <time>2018-02-21T09:54:48Z</time>
      </trkpt>
      <trkpt lat="44.23335" lon="5.17623">
        <ele>297</ele>
        <time>2018-02-21T09:54:51Z</time>
      </trkpt>
      <trkpt lat="44.23336" lon="5.17645">
        <ele>297</ele>
        <time>2018-02-21T09:54:54Z</time>
      </trkpt>
      <trkpt lat="44.23338" lon="5.17667">
        <ele>297</ele>
        <time>2018-02-21T09:54:57Z</time>
      </trkpt>
      <trkpt lat="44.23338" lon="5.17689">
        <ele>297</ele>
        <time>2018-02-21T09:55:00Z</time>
      </trkpt>
      <trkpt lat="44.23339" lon="5.17711">
        <ele>297</ele>
        <time>2018-02-21T09:55:03Z</time>
      </trkpt>
      <trkpt lat="44.23338" lon="5.17725">
        <ele>297</ele>
        <time>2018-02-21T09:55:05Z</time>
      </trkpt>
      <trkpt lat="44.23337" lon="5.1774">
        <ele>297</ele>
        <time>2018-02-21T09:55:07Z</time>
      </trkpt>
      <trkpt lat="44.23335" lon="5.17762">
        <ele>296</ele>
        <time>2018-02-21T09:55:10Z</time>
      </trkpt>
      <trkpt lat="44.23333" lon="5.17785">
        <ele>296</ele>
        <time>2018-02-21T09:55:13Z</time>
      </trkpt>
      <trkpt lat="44.23332" lon="5.178">
        <ele>296</ele>
        <time>2018-02-21T09:55:15Z</time>
      </trkpt>
      <trkpt lat="44.23331" lon="5.17814">
        <ele>296</ele>
        <time>2018-02-21T09:55:17Z</time>
      </trkpt>
      <trkpt lat="44.23329" lon="5.17836">
        <ele>297</ele>
        <time>2018-02-21T09:55:20Z</time>
      </trkpt>
      <trkpt lat="44.23328" lon="5.1785">
        <ele>297</ele>
        <time>2018-02-21T09:55:22Z</time>
      </trkpt>
      <trkpt lat="44.23327" lon="5.17864">
        <ele>296</ele>
        <time>2018-02-21T09:55:24Z</time>
      </trkpt>
      <trkpt lat="44.23326" lon="5.17878">
        <ele>296</ele>
        <time>2018-02-21T09:55:26Z</time>
      </trkpt>
      <trkpt lat="44.23326" lon="5.17899">
        <ele>296</ele>
        <time>2018-02-21T09:55:29Z</time>
      </trkpt>
      <trkpt lat="44.23326" lon="5.17913">
        <ele>296</ele>
        <time>2018-02-21T09:55:31Z</time>
      </trkpt>
      <trkpt lat="44.23327" lon="5.17932">
        <ele>296</ele>
        <time>2018-02-21T09:55:34Z</time>
      </trkpt>
      <trkpt lat="44.23328" lon="5.17946">
        <ele>297</ele>
        <time>2018-02-21T09:55:36Z</time>
      </trkpt>
      <trkpt lat="44.23329" lon="5.17959">
        <ele>297</ele>
        <time>2018-02-21T09:55:38Z</time>
      </trkpt>
      <trkpt lat="44.23332" lon="5.17979">
        <ele>298</ele>
        <time>2018-02-21T09:55:41Z</time>
      </trkpt>
      <trkpt lat="44.23336" lon="5.17999">
        <ele>298</ele>
        <time>2018-02-21T09:55:44Z</time>
      </trkpt>
      <trkpt lat="44.23341" lon="5.18019">
        <ele>298</ele>
        <time>2018-02-21T09:55:47Z</time>
      </trkpt>
      <trkpt lat="44.23346" lon="5.18039">
        <ele>297</ele>
        <time>2018-02-21T09:55:50Z</time>
      </trkpt>
      <trkpt lat="44.23352" lon="5.18058">
        <ele>297</ele>
        <time>2018-02-21T09:55:53Z</time>
      </trkpt>
      <trkpt lat="44.23357" lon="5.18071">
        <ele>297</ele>
        <time>2018-02-21T09:55:55Z</time>
      </trkpt>
      <trkpt lat="44.23364" lon="5.1809">
        <ele>297</ele>
        <time>2018-02-21T09:55:58Z</time>
      </trkpt>
      <trkpt lat="44.23371" lon="5.1811">
        <ele>297</ele>
        <time>2018-02-21T09:56:01Z</time>
      </trkpt>
      <trkpt lat="44.23378" lon="5.1813">
        <ele>296</ele>
        <time>2018-02-21T09:56:04Z</time>
      </trkpt>
      <trkpt lat="44.23386" lon="5.18149">
        <ele>296</ele>
        <time>2018-02-21T09:56:07Z</time>
      </trkpt>
      <trkpt lat="44.23391" lon="5.18162">
        <ele>296</ele>
        <time>2018-02-21T09:56:09Z</time>
      </trkpt>
      <trkpt lat="44.23397" lon="5.1818">
        <ele>297</ele>
        <time>2018-02-21T09:56:12Z</time>
      </trkpt>
      <trkpt lat="44.23404" lon="5.18199">
        <ele>297</ele>
        <time>2018-02-21T09:56:15Z</time>
      </trkpt>
      <trkpt lat="44.23411" lon="5.18217">
        <ele>296</ele>
        <time>2018-02-21T09:56:18Z</time>
      </trkpt>
      <trkpt lat="44.23418" lon="5.18236">
        <ele>296</ele>
        <time>2018-02-21T09:56:21Z</time>
      </trkpt>
      <trkpt lat="44.23423" lon="5.18249">
        <ele>297</ele>
        <time>2018-02-21T09:56:23Z</time>
      </trkpt>
      <trkpt lat="44.23427" lon="5.18261">
        <ele>296</ele>
        <time>2018-02-21T09:56:25Z</time>
      </trkpt>
      <trkpt lat="44.23434" lon="5.18279">
        <ele>296</ele>
        <time>2018-02-21T09:56:28Z</time>
      </trkpt>
      <trkpt lat="44.2344" lon="5.18298">
        <ele>296</ele>
        <time>2018-02-21T09:56:31Z</time>
      </trkpt>
      <trkpt lat="44.23442" lon="5.18312">
        <ele>296</ele>
        <time>2018-02-21T09:56:33Z</time>
      </trkpt>
      <trkpt lat="44.23444" lon="5.1833">
        <ele>296</ele>
        <time>2018-02-21T09:56:36Z</time>
      </trkpt>
      <trkpt lat="44.23444" lon="5.18336">
        <ele>295</ele>
        <time>2018-02-21T09:56:38Z</time>
      </trkpt>
      <trkpt lat="44.23444" lon="5.18339">
        <ele>294</ele>
        <time>2018-02-21T09:56:40Z</time>
      </trkpt>
      <trkpt lat="44.23445" lon="5.18347">
        <ele>293</ele>
        <time>2018-02-21T09:56:43Z</time>
      </trkpt>
      <trkpt lat="44.23449" lon="5.18357">
        <ele>293</ele>
        <time>2018-02-21T09:56:46Z</time>
      </trkpt>
      <trkpt lat="44.23453" lon="5.18369">
        <ele>293</ele>
        <time>2018-02-21T09:56:49Z</time>
      </trkpt>
      <trkpt lat="44.23455" lon="5.18379">
        <ele>293</ele>
        <time>2018-02-21T09:56:51Z</time>
      </trkpt>
      <trkpt lat="44.23457" lon="5.18389">
        <ele>294</ele>
        <time>2018-02-21T09:56:53Z</time>
      </trkpt>
      <trkpt lat="44.23458" lon="5.18405">
        <ele>294</ele>
        <time>2018-02-21T09:56:56Z</time>
      </trkpt>
      <trkpt lat="44.2346" lon="5.18421">
        <ele>295</ele>
        <time>2018-02-21T09:56:59Z</time>
      </trkpt>
      <trkpt lat="44.2346" lon="5.18432">
        <ele>295</ele>
        <time>2018-02-21T09:57:01Z</time>
      </trkpt>
      <trkpt lat="44.2346" lon="5.1845">
        <ele>295</ele>
        <time>2018-02-21T09:57:04Z</time>
      </trkpt>
      <trkpt lat="44.2346" lon="5.18463">
        <ele>294</ele>
        <time>2018-02-21T09:57:06Z</time>
      </trkpt>
      <trkpt lat="44.23459" lon="5.18476">
        <ele>295</ele>
        <time>2018-02-21T09:57:08Z</time>
      </trkpt>
      <trkpt lat="44.23459" lon="5.1849">
        <ele>294</ele>
        <time>2018-02-21T09:57:10Z</time>
      </trkpt>
      <trkpt lat="44.23459" lon="5.18504">
        <ele>294</ele>
        <time>2018-02-21T09:57:12Z</time>
      </trkpt>
      <trkpt lat="44.23458" lon="5.18519">
        <ele>294</ele>
        <time>2018-02-21T09:57:14Z</time>
      </trkpt>
      <trkpt lat="44.23458" lon="5.18542">
        <ele>294</ele>
        <time>2018-02-21T09:57:17Z</time>
      </trkpt>
      <trkpt lat="44.23458" lon="5.18557">
        <ele>294</ele>
        <time>2018-02-21T09:57:19Z</time>
      </trkpt>
      <trkpt lat="44.23459" lon="5.18579">
        <ele>294</ele>
        <time>2018-02-21T09:57:22Z</time>
      </trkpt>
      <trkpt lat="44.23461" lon="5.186">
        <ele>294</ele>
        <time>2018-02-21T09:57:25Z</time>
      </trkpt>
      <trkpt lat="44.23464" lon="5.1862">
        <ele>293</ele>
        <time>2018-02-21T09:57:28Z</time>
      </trkpt>
      <trkpt lat="44.23469" lon="5.18641">
        <ele>293</ele>
        <time>2018-02-21T09:57:31Z</time>
      </trkpt>
      <trkpt lat="44.23475" lon="5.1866">
        <ele>292</ele>
        <time>2018-02-21T09:57:34Z</time>
      </trkpt>
      <trkpt lat="44.23479" lon="5.18672">
        <ele>292</ele>
        <time>2018-02-21T09:57:36Z</time>
      </trkpt>
      <trkpt lat="44.23484" lon="5.18683">
        <ele>292</ele>
        <time>2018-02-21T09:57:38Z</time>
      </trkpt>
      <trkpt lat="44.2349" lon="5.18699">
        <ele>293</ele>
        <time>2018-02-21T09:57:41Z</time>
      </trkpt>
      <trkpt lat="44.23497" lon="5.18714">
        <ele>293</ele>
        <time>2018-02-21T09:57:44Z</time>
      </trkpt>
      <trkpt lat="44.23504" lon="5.18729">
        <ele>293</ele>
        <time>2018-02-21T09:57:47Z</time>
      </trkpt>
      <trkpt lat="44.23509" lon="5.18739">
        <ele>293</ele>
        <time>2018-02-21T09:57:49Z</time>
      </trkpt>
      <trkpt lat="44.23517" lon="5.18755">
        <ele>293</ele>
        <time>2018-02-21T09:57:52Z</time>
      </trkpt>
      <trkpt lat="44.23521" lon="5.18765">
        <ele>293</ele>
        <time>2018-02-21T09:57:54Z</time>
      </trkpt>
      <trkpt lat="44.23527" lon="5.18781">
        <ele>293</ele>
        <time>2018-02-21T09:57:57Z</time>
      </trkpt>
      <trkpt lat="44.23533" lon="5.18798">
        <ele>293</ele>
        <time>2018-02-21T09:58:00Z</time>
      </trkpt>
      <trkpt lat="44.23541" lon="5.18815">
        <ele>293</ele>
        <time>2018-02-21T09:58:03Z</time>
      </trkpt>
      <trkpt lat="44.23551" lon="5.18831">
        <ele>292</ele>
        <time>2018-02-21T09:58:06Z</time>
      </trkpt>
      <trkpt lat="44.23558" lon="5.18839">
        <ele>292</ele>
        <time>2018-02-21T09:58:08Z</time>
      </trkpt>
      <trkpt lat="44.23565" lon="5.18846">
        <ele>292</ele>
        <time>2018-02-21T09:58:10Z</time>
      </trkpt>
      <trkpt lat="44.23576" lon="5.18857">
        <ele>292</ele>
        <time>2018-02-21T09:58:13Z</time>
      </trkpt>
      <trkpt lat="44.23586" lon="5.18871">
        <ele>292</ele>
        <time>2018-02-21T09:58:16Z</time>
      </trkpt>
      <trkpt lat="44.23592" lon="5.18881">
        <ele>292</ele>
        <time>2018-02-21T09:58:18Z</time>
      </trkpt>
      <trkpt lat="44.23596" lon="5.18891">
        <ele>293</ele>
        <time>2018-02-21T09:58:20Z</time>
      </trkpt>
      <trkpt lat="44.23601" lon="5.18904">
        <ele>293</ele>
        <time>2018-02-21T09:58:23Z</time>
      </trkpt>
      <trkpt lat="44.23603" lon="5.18914">
        <ele>293</ele>
        <time>2018-02-21T09:58:25Z</time>
      </trkpt>
      <trkpt lat="44.23603" lon="5.18928">
        <ele>294</ele>
        <time>2018-02-21T09:58:28Z</time>
      </trkpt>
      <trkpt lat="44.23602" lon="5.18937">
        <ele>294</ele>
        <time>2018-02-21T09:58:30Z</time>
      </trkpt>
      <trkpt lat="44.23599" lon="5.18946">
        <ele>295</ele>
        <time>2018-02-21T09:58:32Z</time>
      </trkpt>
      <trkpt lat="44.23596" lon="5.18955">
        <ele>295</ele>
        <time>2018-02-21T09:58:34Z</time>
      </trkpt>
      <trkpt lat="44.2359" lon="5.18965">
        <ele>295</ele>
        <time>2018-02-21T09:58:37Z</time>
      </trkpt>
      <trkpt lat="44.23587" lon="5.1897">
        <ele>295</ele>
        <time>2018-02-21T09:58:39Z</time>
      </trkpt>
      <trkpt lat="44.23584" lon="5.18979">
        <ele>296</ele>
        <time>2018-02-21T09:58:42Z</time>
      </trkpt>
      <trkpt lat="44.23588" lon="5.18988">
        <ele>296</ele>
        <time>2018-02-21T09:58:45Z</time>
      </trkpt>
      <trkpt lat="44.23592" lon="5.18995">
        <ele>296</ele>
        <time>2018-02-21T09:58:47Z</time>
      </trkpt>
      <trkpt lat="44.23597" lon="5.19006">
        <ele>295</ele>
        <time>2018-02-21T09:58:50Z</time>
      </trkpt>
      <trkpt lat="44.236" lon="5.19015">
        <ele>295</ele>
        <time>2018-02-21T09:58:52Z</time>
      </trkpt>
      <trkpt lat="44.23606" lon="5.19029">
        <ele>296</ele>
        <time>2018-02-21T09:58:55Z</time>
      </trkpt>
      <trkpt lat="44.2361" lon="5.19039">
        <ele>296</ele>
        <time>2018-02-21T09:58:57Z</time>
      </trkpt>
      <trkpt lat="44.23615" lon="5.19047">
        <ele>297</ele>
        <time>2018-02-21T09:58:59Z</time>
      </trkpt>
      <trkpt lat="44.23621" lon="5.19056">
        <ele>298</ele>
        <time>2018-02-21T09:59:02Z</time>
      </trkpt>
      <trkpt lat="44.23626" lon="5.19062">
        <ele>298</ele>
        <time>2018-02-21T09:59:04Z</time>
      </trkpt>
      <trkpt lat="44.23632" lon="5.19071">
        <ele>299</ele>
        <time>2018-02-21T09:59:07Z</time>
      </trkpt>
      <trkpt lat="44.23638" lon="5.19078">
        <ele>299</ele>
        <time>2018-02-21T09:59:10Z</time>
      </trkpt>
      <trkpt lat="44.23643" lon="5.19087">
        <ele>298</ele>
        <time>2018-02-21T09:59:13Z</time>
      </trkpt>
      <trkpt lat="44.23645" lon="5.19096">
        <ele>298</ele>
        <time>2018-02-21T09:59:16Z</time>
      </trkpt>
      <trkpt lat="44.23649" lon="5.19106">
        <ele>298</ele>
        <time>2018-02-21T09:59:19Z</time>
      </trkpt>
      <trkpt lat="44.23653" lon="5.19116">
        <ele>297</ele>
        <time>2018-02-21T09:59:21Z</time>
      </trkpt>
      <trkpt lat="44.23658" lon="5.19133">
        <ele>296</ele>
        <time>2018-02-21T09:59:24Z</time>
      </trkpt>
      <trkpt lat="44.23664" lon="5.19157">
        <ele>297</ele>
        <time>2018-02-21T09:59:27Z</time>
      </trkpt>
      <trkpt lat="44.23669" lon="5.19172">
        <ele>296</ele>
        <time>2018-02-21T09:59:29Z</time>
      </trkpt>
      <trkpt lat="44.23677" lon="5.19191">
        <ele>297</ele>
        <time>2018-02-21T09:59:32Z</time>
      </trkpt>
      <trkpt lat="44.23685" lon="5.19208">
        <ele>297</ele>
        <time>2018-02-21T09:59:35Z</time>
      </trkpt>
      <trkpt lat="44.2369" lon="5.19219">
        <ele>297</ele>
        <time>2018-02-21T09:59:37Z</time>
      </trkpt>
      <trkpt lat="44.23695" lon="5.19231">
        <ele>297</ele>
        <time>2018-02-21T09:59:39Z</time>
      </trkpt>
      <trkpt lat="44.23699" lon="5.19242">
        <ele>297</ele>
        <time>2018-02-21T09:59:41Z</time>
      </trkpt>
      <trkpt lat="44.23705" lon="5.1925">
        <ele>297</ele>
        <time>2018-02-21T09:59:43Z</time>
      </trkpt>
      <trkpt lat="44.23715" lon="5.19263">
        <ele>297</ele>
        <time>2018-02-21T09:59:46Z</time>
      </trkpt>
      <trkpt lat="44.23722" lon="5.19271">
        <ele>297</ele>
        <time>2018-02-21T09:59:48Z</time>
      </trkpt>
      <trkpt lat="44.23728" lon="5.19279">
        <ele>297</ele>
        <time>2018-02-21T09:59:50Z</time>
      </trkpt>
      <trkpt lat="44.23735" lon="5.19287">
        <ele>297</ele>
        <time>2018-02-21T09:59:52Z</time>
      </trkpt>
      <trkpt lat="44.23744" lon="5.19298">
        <ele>298</ele>
        <time>2018-02-21T09:59:55Z</time>
      </trkpt>
      <trkpt lat="44.23753" lon="5.1931">
        <ele>298</ele>
        <time>2018-02-21T09:59:58Z</time>
      </trkpt>
      <trkpt lat="44.23762" lon="5.19323">
        <ele>298</ele>
        <time>2018-02-21T10:00:01Z</time>
      </trkpt>
      <trkpt lat="44.23769" lon="5.19337">
        <ele>298</ele>
        <time>2018-02-21T10:00:04Z</time>
      </trkpt>
      <trkpt lat="44.23777" lon="5.19351">
        <ele>298</ele>
        <time>2018-02-21T10:00:07Z</time>
      </trkpt>
      <trkpt lat="44.23786" lon="5.19363">
        <ele>299</ele>
        <time>2018-02-21T10:00:10Z</time>
      </trkpt>
      <trkpt lat="44.23794" lon="5.19377">
        <ele>300</ele>
        <time>2018-02-21T10:00:13Z</time>
      </trkpt>
      <trkpt lat="44.238" lon="5.19385">
        <ele>300</ele>
        <time>2018-02-21T10:00:15Z</time>
      </trkpt>
      <trkpt lat="44.23805" lon="5.19395">
        <ele>300</ele>
        <time>2018-02-21T10:00:17Z</time>
      </trkpt>
      <trkpt lat="44.23813" lon="5.19408">
        <ele>300</ele>
        <time>2018-02-21T10:00:20Z</time>
      </trkpt>
      <trkpt lat="44.23822" lon="5.19421">
        <ele>300</ele>
        <time>2018-02-21T10:00:23Z</time>
      </trkpt>
      <trkpt lat="44.23831" lon="5.19436">
        <ele>300</ele>
        <time>2018-02-21T10:00:26Z</time>
      </trkpt>
      <trkpt lat="44.23839" lon="5.19449">
        <ele>301</ele>
        <time>2018-02-21T10:00:29Z</time>
      </trkpt>
      <trkpt lat="44.23845" lon="5.19457">
        <ele>302</ele>
        <time>2018-02-21T10:00:31Z</time>
      </trkpt>
      <trkpt lat="44.23853" lon="5.19471">
        <ele>302</ele>
        <time>2018-02-21T10:00:34Z</time>
      </trkpt>
      <trkpt lat="44.23861" lon="5.19484">
        <ele>303</ele>
        <time>2018-02-21T10:00:37Z</time>
      </trkpt>
      <trkpt lat="44.23869" lon="5.19497">
        <ele>302</ele>
        <time>2018-02-21T10:00:40Z</time>
      </trkpt>
      <trkpt lat="44.23874" lon="5.19506">
        <ele>302</ele>
        <time>2018-02-21T10:00:42Z</time>
      </trkpt>
      <trkpt lat="44.23882" lon="5.1952">
        <ele>301</ele>
        <time>2018-02-21T10:00:45Z</time>
      </trkpt>
      <trkpt lat="44.2389" lon="5.19535">
        <ele>301</ele>
        <time>2018-02-21T10:00:48Z</time>
      </trkpt>
      <trkpt lat="44.23896" lon="5.19552">
        <ele>302</ele>
        <time>2018-02-21T10:00:51Z</time>
      </trkpt>
      <trkpt lat="44.23901" lon="5.19569">
        <ele>302</ele>
        <time>2018-02-21T10:00:54Z</time>
      </trkpt>
      <trkpt lat="44.23904" lon="5.19588">
        <ele>303</ele>
        <time>2018-02-21T10:00:57Z</time>
      </trkpt>
      <trkpt lat="44.23905" lon="5.196">
        <ele>303</ele>
        <time>2018-02-21T10:00:59Z</time>
      </trkpt>
      <trkpt lat="44.23906" lon="5.19612">
        <ele>304</ele>
        <time>2018-02-21T10:01:01Z</time>
      </trkpt>
      <trkpt lat="44.23907" lon="5.19624">
        <ele>304</ele>
        <time>2018-02-21T10:01:03Z</time>
      </trkpt>
      <trkpt lat="44.23908" lon="5.19635">
        <ele>303</ele>
        <time>2018-02-21T10:01:05Z</time>
      </trkpt>
      <trkpt lat="44.23909" lon="5.19652">
        <ele>303</ele>
        <time>2018-02-21T10:01:08Z</time>
      </trkpt>
      <trkpt lat="44.2391" lon="5.19663">
        <ele>303</ele>
        <time>2018-02-21T10:01:10Z</time>
      </trkpt>
      <trkpt lat="44.23912" lon="5.19674">
        <ele>304</ele>
        <time>2018-02-21T10:01:12Z</time>
      </trkpt>
      <trkpt lat="44.23912" lon="5.19685">
        <ele>304</ele>
        <time>2018-02-21T10:01:14Z</time>
      </trkpt>
      <trkpt lat="44.23913" lon="5.19702">
        <ele>305</ele>
        <time>2018-02-21T10:01:17Z</time>
      </trkpt>
      <trkpt lat="44.23914" lon="5.19712">
        <ele>305</ele>
        <time>2018-02-21T10:01:19Z</time>
      </trkpt>
      <trkpt lat="44.23914" lon="5.19723">
        <ele>305</ele>
        <time>2018-02-21T10:01:21Z</time>
      </trkpt>
      <trkpt lat="44.23915" lon="5.19739">
        <ele>306</ele>
        <time>2018-02-21T10:01:24Z</time>
      </trkpt>
      <trkpt lat="44.23916" lon="5.19751">
        <ele>306</ele>
        <time>2018-02-21T10:01:26Z</time>
      </trkpt>
      <trkpt lat="44.23917" lon="5.19762">
        <ele>306</ele>
        <time>2018-02-21T10:01:28Z</time>
      </trkpt>
      <trkpt lat="44.23918" lon="5.19778">
        <ele>306</ele>
        <time>2018-02-21T10:01:31Z</time>
      </trkpt>
      <trkpt lat="44.2392" lon="5.1979">
        <ele>306</ele>
        <time>2018-02-21T10:01:33Z</time>
      </trkpt>
      <trkpt lat="44.23921" lon="5.198">
        <ele>307</ele>
        <time>2018-02-21T10:01:35Z</time>
      </trkpt>
      <trkpt lat="44.23922" lon="5.1981">
        <ele>307</ele>
        <time>2018-02-21T10:01:37Z</time>
      </trkpt>
      <trkpt lat="44.23923" lon="5.19825">
        <ele>307</ele>
        <time>2018-02-21T10:01:40Z</time>
      </trkpt>
      <trkpt lat="44.23924" lon="5.19835">
        <ele>308</ele>
        <time>2018-02-21T10:01:42Z</time>
      </trkpt>
      <trkpt lat="44.23925" lon="5.19845">
        <ele>308</ele>
        <time>2018-02-21T10:01:44Z</time>
      </trkpt>
      <trkpt lat="44.23927" lon="5.19855">
        <ele>309</ele>
        <time>2018-02-21T10:01:46Z</time>
      </trkpt>
      <trkpt lat="44.23929" lon="5.19871">
        <ele>310</ele>
        <time>2018-02-21T10:01:49Z</time>
      </trkpt>
      <trkpt lat="44.23931" lon="5.19888">
        <ele>311</ele>
        <time>2018-02-21T10:01:52Z</time>
      </trkpt>
      <trkpt lat="44.23934" lon="5.19904">
        <ele>312</ele>
        <time>2018-02-21T10:01:55Z</time>
      </trkpt>
      <trkpt lat="44.23935" lon="5.19916">
        <ele>312</ele>
        <time>2018-02-21T10:01:57Z</time>
      </trkpt>
      <trkpt lat="44.23938" lon="5.19934">
        <ele>313</ele>
        <time>2018-02-21T10:02:00Z</time>
      </trkpt>
      <trkpt lat="44.23938" lon="5.19946">
        <ele>313</ele>
        <time>2018-02-21T10:02:02Z</time>
      </trkpt>
      <trkpt lat="44.23939" lon="5.19958">
        <ele>314</ele>
        <time>2018-02-21T10:02:04Z</time>
      </trkpt>
      <trkpt lat="44.2394" lon="5.19975">
        <ele>314</ele>
        <time>2018-02-21T10:02:07Z</time>
      </trkpt>
      <trkpt lat="44.23941" lon="5.19986">
        <ele>314</ele>
        <time>2018-02-21T10:02:09Z</time>
      </trkpt>
      <trkpt lat="44.23941" lon="5.20003">
        <ele>314</ele>
        <time>2018-02-21T10:02:12Z</time>
      </trkpt>
      <trkpt lat="44.23942" lon="5.20014">
        <ele>315</ele>
        <time>2018-02-21T10:02:14Z</time>
      </trkpt>
      <trkpt lat="44.23942" lon="5.20025">
        <ele>315</ele>
        <time>2018-02-21T10:02:16Z</time>
      </trkpt>
      <trkpt lat="44.23943" lon="5.20041">
        <ele>315</ele>
        <time>2018-02-21T10:02:19Z</time>
      </trkpt>
      <trkpt lat="44.23943" lon="5.20057">
        <ele>316</ele>
        <time>2018-02-21T10:02:22Z</time>
      </trkpt>
      <trkpt lat="44.23944" lon="5.20068">
        <ele>316</ele>
        <time>2018-02-21T10:02:24Z</time>
      </trkpt>
      <trkpt lat="44.23945" lon="5.20084">
        <ele>317</ele>
        <time>2018-02-21T10:02:27Z</time>
      </trkpt>
      <trkpt lat="44.23946" lon="5.20095">
        <ele>317</ele>
        <time>2018-02-21T10:02:29Z</time>
      </trkpt>
      <trkpt lat="44.23946" lon="5.20112">
        <ele>318</ele>
        <time>2018-02-21T10:02:32Z</time>
      </trkpt>
      <trkpt lat="44.23946" lon="5.20122">
        <ele>318</ele>
        <time>2018-02-21T10:02:34Z</time>
      </trkpt>
      <trkpt lat="44.23948" lon="5.20139">
        <ele>319</ele>
        <time>2018-02-21T10:02:37Z</time>
      </trkpt>
      <trkpt lat="44.23949" lon="5.20149">
        <ele>319</ele>
        <time>2018-02-21T10:02:39Z</time>
      </trkpt>
      <trkpt lat="44.23949" lon="5.20159">
        <ele>319</ele>
        <time>2018-02-21T10:02:41Z</time>
      </trkpt>
      <trkpt lat="44.23949" lon="5.2017">
        <ele>320</ele>
        <time>2018-02-21T10:02:43Z</time>
      </trkpt>
      <trkpt lat="44.2395" lon="5.20186">
        <ele>321</ele>
        <time>2018-02-21T10:02:46Z</time>
      </trkpt>
      <trkpt lat="44.2395" lon="5.20201">
        <ele>321</ele>
        <time>2018-02-21T10:02:49Z</time>
      </trkpt>
      <trkpt lat="44.23951" lon="5.20213">
        <ele>322</ele>
        <time>2018-02-21T10:02:51Z</time>
      </trkpt>
      <trkpt lat="44.23952" lon="5.20224">
        <ele>322</ele>
        <time>2018-02-21T10:02:53Z</time>
      </trkpt>
      <trkpt lat="44.23953" lon="5.2024">
        <ele>323</ele>
        <time>2018-02-21T10:02:56Z</time>
      </trkpt>
      <trkpt lat="44.23955" lon="5.20251">
        <ele>323</ele>
        <time>2018-02-21T10:02:58Z</time>
      </trkpt>
      <trkpt lat="44.23959" lon="5.20267">
        <ele>323</ele>
        <time>2018-02-21T10:03:01Z</time>
      </trkpt>
      <trkpt lat="44.23961" lon="5.20278">
        <ele>324</ele>
        <time>2018-02-21T10:03:03Z</time>
      </trkpt>
      <trkpt lat="44.23965" lon="5.20288">
        <ele>325</ele>
        <time>2018-02-21T10:03:05Z</time>
      </trkpt>
      <trkpt lat="44.2397" lon="5.20302">
        <ele>325</ele>
        <time>2018-02-21T10:03:08Z</time>
      </trkpt>
      <trkpt lat="44.23977" lon="5.20317">
        <ele>326</ele>
        <time>2018-02-21T10:03:11Z</time>
      </trkpt>
      <trkpt lat="44.23983" lon="5.20331">
        <ele>326</ele>
        <time>2018-02-21T10:03:14Z</time>
      </trkpt>
      <trkpt lat="44.23989" lon="5.20346">
        <ele>327</ele>
        <time>2018-02-21T10:03:17Z</time>
      </trkpt>
      <trkpt lat="44.23996" lon="5.20361">
        <ele>327</ele>
        <time>2018-02-21T10:03:20Z</time>
      </trkpt>
      <trkpt lat="44.24002" lon="5.20376">
        <ele>327</ele>
        <time>2018-02-21T10:03:23Z</time>
      </trkpt>
      <trkpt lat="44.24008" lon="5.20392">
        <ele>328</ele>
        <time>2018-02-21T10:03:26Z</time>
      </trkpt>
      <trkpt lat="44.24013" lon="5.20408">
        <ele>329</ele>
        <time>2018-02-21T10:03:29Z</time>
      </trkpt>
      <trkpt lat="44.24017" lon="5.20419">
        <ele>329</ele>
        <time>2018-02-21T10:03:31Z</time>
      </trkpt>
      <trkpt lat="44.2402" lon="5.2043">
        <ele>330</ele>
        <time>2018-02-21T10:03:33Z</time>
      </trkpt>
      <trkpt lat="44.24025" lon="5.20446">
        <ele>330</ele>
        <time>2018-02-21T10:03:36Z</time>
      </trkpt>
      <trkpt lat="44.2403" lon="5.20462">
        <ele>330</ele>
        <time>2018-02-21T10:03:39Z</time>
      </trkpt>
      <trkpt lat="44.24034" lon="5.20479">
        <ele>330</ele>
        <time>2018-02-21T10:03:42Z</time>
      </trkpt>
      <trkpt lat="44.24038" lon="5.2049">
        <ele>331</ele>
        <time>2018-02-21T10:03:44Z</time>
      </trkpt>
      <trkpt lat="44.24042" lon="5.20506">
        <ele>331</ele>
        <time>2018-02-21T10:03:47Z</time>
      </trkpt>
      <trkpt lat="44.24047" lon="5.20521">
        <ele>332</ele>
        <time>2018-02-21T10:03:50Z</time>
      </trkpt>
      <trkpt lat="44.24051" lon="5.20537">
        <ele>333</ele>
        <time>2018-02-21T10:03:53Z</time>
      </trkpt>
      <trkpt lat="44.24054" lon="5.20548">
        <ele>333</ele>
        <time>2018-02-21T10:03:55Z</time>
      </trkpt>
      <trkpt lat="44.24056" lon="5.20559">
        <ele>333</ele>
        <time>2018-02-21T10:03:57Z</time>
      </trkpt>
      <trkpt lat="44.24059" lon="5.20577">
        <ele>332</ele>
        <time>2018-02-21T10:04:00Z</time>
      </trkpt>
      <trkpt lat="44.2406" lon="5.2059">
        <ele>332</ele>
        <time>2018-02-21T10:04:02Z</time>
      </trkpt>
      <trkpt lat="44.24061" lon="5.20604">
        <ele>332</ele>
        <time>2018-02-21T10:04:04Z</time>
      </trkpt>
      <trkpt lat="44.2406" lon="5.20625">
        <ele>333</ele>
        <time>2018-02-21T10:04:07Z</time>
      </trkpt>
      <trkpt lat="44.24058" lon="5.20647">
        <ele>333</ele>
        <time>2018-02-21T10:04:10Z</time>
      </trkpt>
      <trkpt lat="44.24056" lon="5.20671">
        <ele>332</ele>
        <time>2018-02-21T10:04:13Z</time>
      </trkpt>
      <trkpt lat="44.24057" lon="5.20695">
        <ele>331</ele>
        <time>2018-02-21T10:04:16Z</time>
      </trkpt>
      <trkpt lat="44.24061" lon="5.20712">
        <ele>330</ele>
        <time>2018-02-21T10:04:18Z</time>
      </trkpt>
      <trkpt lat="44.24067" lon="5.20728">
        <ele>329</ele>
        <time>2018-02-21T10:04:20Z</time>
      </trkpt>
      <trkpt lat="44.24081" lon="5.2075">
        <ele>329</ele>
        <time>2018-02-21T10:04:23Z</time>
      </trkpt>
      <trkpt lat="44.24091" lon="5.20764">
        <ele>328</ele>
        <time>2018-02-21T10:04:25Z</time>
      </trkpt>
      <trkpt lat="44.24103" lon="5.20779">
        <ele>327</ele>
        <time>2018-02-21T10:04:27Z</time>
      </trkpt>
      <trkpt lat="44.24121" lon="5.20801">
        <ele>327</ele>
        <time>2018-02-21T10:04:30Z</time>
      </trkpt>
      <trkpt lat="44.24133" lon="5.20815">
        <ele>326</ele>
        <time>2018-02-21T10:04:32Z</time>
      </trkpt>
      <trkpt lat="44.2415" lon="5.20838">
        <ele>326</ele>
        <time>2018-02-21T10:04:35Z</time>
      </trkpt>
      <trkpt lat="44.24161" lon="5.20855">
        <ele>326</ele>
        <time>2018-02-21T10:04:37Z</time>
      </trkpt>
      <trkpt lat="44.24174" lon="5.20883">
        <ele>326</ele>
        <time>2018-02-21T10:04:40Z</time>
      </trkpt>
      <trkpt lat="44.24181" lon="5.20902">
        <ele>326</ele>
        <time>2018-02-21T10:04:42Z</time>
      </trkpt>
      <trkpt lat="44.24191" lon="5.2093">
        <ele>326</ele>
        <time>2018-02-21T10:04:45Z</time>
      </trkpt>
      <trkpt lat="44.24202" lon="5.20957">
        <ele>326</ele>
        <time>2018-02-21T10:04:48Z</time>
      </trkpt>
      <trkpt lat="44.24214" lon="5.20982">
        <ele>325</ele>
        <time>2018-02-21T10:04:51Z</time>
      </trkpt>
      <trkpt lat="44.24224" lon="5.20997">
        <ele>325</ele>
        <time>2018-02-21T10:04:53Z</time>
      </trkpt>
      <trkpt lat="44.2424" lon="5.21017">
        <ele>324</ele>
        <time>2018-02-21T10:04:56Z</time>
      </trkpt>
      <trkpt lat="44.24257" lon="5.21033">
        <ele>324</ele>
        <time>2018-02-21T10:04:59Z</time>
      </trkpt>
      <trkpt lat="44.24272" lon="5.21046">
        <ele>324</ele>
        <time>2018-02-21T10:05:02Z</time>
      </trkpt>
      <trkpt lat="44.24285" lon="5.21058">
        <ele>325</ele>
        <time>2018-02-21T10:05:05Z</time>
      </trkpt>
      <trkpt lat="44.24292" lon="5.21065">
        <ele>325</ele>
        <time>2018-02-21T10:05:07Z</time>
      </trkpt>
      <trkpt lat="44.243" lon="5.21071">
        <ele>325</ele>
        <time>2018-02-21T10:05:09Z</time>
      </trkpt>
      <trkpt lat="44.24311" lon="5.2108">
        <ele>324</ele>
        <time>2018-02-21T10:05:12Z</time>
      </trkpt>
      <trkpt lat="44.24324" lon="5.21091">
        <ele>324</ele>
        <time>2018-02-21T10:05:15Z</time>
      </trkpt>
      <trkpt lat="44.24335" lon="5.211">
        <ele>324</ele>
        <time>2018-02-21T10:05:18Z</time>
      </trkpt>
      <trkpt lat="44.24342" lon="5.21107">
        <ele>324</ele>
        <time>2018-02-21T10:05:20Z</time>
      </trkpt>
      <trkpt lat="44.24349" lon="5.21113">
        <ele>324</ele>
        <time>2018-02-21T10:05:22Z</time>
      </trkpt>
      <trkpt lat="44.24359" lon="5.21123">
        <ele>324</ele>
        <time>2018-02-21T10:05:25Z</time>
      </trkpt>
      <trkpt lat="44.24367" lon="5.21129">
        <ele>325</ele>
        <time>2018-02-21T10:05:27Z</time>
      </trkpt>
      <trkpt lat="44.24378" lon="5.21139">
        <ele>326</ele>
        <time>2018-02-21T10:05:30Z</time>
      </trkpt>
      <trkpt lat="44.24385" lon="5.21146">
        <ele>326</ele>
        <time>2018-02-21T10:05:32Z</time>
      </trkpt>
      <trkpt lat="44.24396" lon="5.21156">
        <ele>327</ele>
        <time>2018-02-21T10:05:35Z</time>
      </trkpt>
      <trkpt lat="44.24407" lon="5.21166">
        <ele>327</ele>
        <time>2018-02-21T10:05:38Z</time>
      </trkpt>
      <trkpt lat="44.24414" lon="5.21174">
        <ele>327</ele>
        <time>2018-02-21T10:05:40Z</time>
      </trkpt>
      <trkpt lat="44.24425" lon="5.21187">
        <ele>327</ele>
        <time>2018-02-21T10:05:43Z</time>
      </trkpt>
      <trkpt lat="44.24431" lon="5.21196">
        <ele>327</ele>
        <time>2018-02-21T10:05:45Z</time>
      </trkpt>
      <trkpt lat="44.24441" lon="5.2121">
        <ele>327</ele>
        <time>2018-02-21T10:05:48Z</time>
      </trkpt>
      <trkpt lat="44.2445" lon="5.21224">
        <ele>327</ele>
        <time>2018-02-21T10:05:51Z</time>
      </trkpt>
      <trkpt lat="44.24457" lon="5.21233">
        <ele>327</ele>
        <time>2018-02-21T10:05:53Z</time>
      </trkpt>
      <trkpt lat="44.24463" lon="5.21243">
        <ele>327</ele>
        <time>2018-02-21T10:05:55Z</time>
      </trkpt>
      <trkpt lat="44.24469" lon="5.21254">
        <ele>328</ele>
        <time>2018-02-21T10:05:57Z</time>
      </trkpt>
      <trkpt lat="44.2448" lon="5.2127">
        <ele>329</ele>
        <time>2018-02-21T10:06:00Z</time>
      </trkpt>
      <trkpt lat="44.24491" lon="5.21287">
        <ele>328</ele>
        <time>2018-02-21T10:06:03Z</time>
      </trkpt>
      <trkpt lat="44.24499" lon="5.21299">
        <ele>327</ele>
        <time>2018-02-21T10:06:05Z</time>
      </trkpt>
      <trkpt lat="44.24511" lon="5.2132">
        <ele>326</ele>
        <time>2018-02-21T10:06:08Z</time>
      </trkpt>
      <trkpt lat="44.24522" lon="5.21344">
        <ele>325</ele>
        <time>2018-02-21T10:06:11Z</time>
      </trkpt>
      <trkpt lat="44.2453" lon="5.21371">
        <ele>326</ele>
        <time>2018-02-21T10:06:14Z</time>
      </trkpt>
      <trkpt lat="44.24537" lon="5.21401">
        <ele>325</ele>
        <time>2018-02-21T10:06:17Z</time>
      </trkpt>
      <trkpt lat="44.24543" lon="5.21431">
        <ele>325</ele>
        <time>2018-02-21T10:06:20Z</time>
      </trkpt>
      <trkpt lat="44.24548" lon="5.21459">
        <ele>323</ele>
        <time>2018-02-21T10:06:23Z</time>
      </trkpt>
      <trkpt lat="44.2455" lon="5.21477">
        <ele>323</ele>
        <time>2018-02-21T10:06:25Z</time>
      </trkpt>
      <trkpt lat="44.24555" lon="5.21501">
        <ele>322</ele>
        <time>2018-02-21T10:06:28Z</time>
      </trkpt>
      <trkpt lat="44.24559" lon="5.21517">
        <ele>322</ele>
        <time>2018-02-21T10:06:30Z</time>
      </trkpt>
      <trkpt lat="44.24562" lon="5.21533">
        <ele>322</ele>
        <time>2018-02-21T10:06:32Z</time>
      </trkpt>
      <trkpt lat="44.24566" lon="5.21548">
        <ele>322</ele>
        <time>2018-02-21T10:06:34Z</time>
      </trkpt>
      <trkpt lat="44.24572" lon="5.21568">
        <ele>322</ele>
        <time>2018-02-21T10:06:37Z</time>
      </trkpt>
      <trkpt lat="44.24579" lon="5.21589">
        <ele>323</ele>
        <time>2018-02-21T10:06:40Z</time>
      </trkpt>
      <trkpt lat="44.24585" lon="5.2161">
        <ele>324</ele>
        <time>2018-02-21T10:06:43Z</time>
      </trkpt>
      <trkpt lat="44.24591" lon="5.21629">
        <ele>324</ele>
        <time>2018-02-21T10:06:46Z</time>
      </trkpt>
      <trkpt lat="44.24594" lon="5.21642">
        <ele>324</ele>
        <time>2018-02-21T10:06:48Z</time>
      </trkpt>
      <trkpt lat="44.24601" lon="5.21661">
        <ele>324</ele>
        <time>2018-02-21T10:06:51Z</time>
      </trkpt>
      <trkpt lat="44.24607" lon="5.21679">
        <ele>323</ele>
        <time>2018-02-21T10:06:54Z</time>
      </trkpt>
      <trkpt lat="44.24614" lon="5.21698">
        <ele>324</ele>
        <time>2018-02-21T10:06:57Z</time>
      </trkpt>
      <trkpt lat="44.24621" lon="5.21715">
        <ele>323</ele>
        <time>2018-02-21T10:07:00Z</time>
      </trkpt>
      <trkpt lat="44.24628" lon="5.21734">
        <ele>324</ele>
        <time>2018-02-21T10:07:03Z</time>
      </trkpt>
      <trkpt lat="44.24637" lon="5.21754">
        <ele>324</ele>
        <time>2018-02-21T10:07:06Z</time>
      </trkpt>
      <trkpt lat="44.24643" lon="5.21767">
        <ele>324</ele>
        <time>2018-02-21T10:07:08Z</time>
      </trkpt>
      <trkpt lat="44.24649" lon="5.2178">
        <ele>324</ele>
        <time>2018-02-21T10:07:10Z</time>
      </trkpt>
      <trkpt lat="44.24657" lon="5.21799">
        <ele>323</ele>
        <time>2018-02-21T10:07:13Z</time>
      </trkpt>
      <trkpt lat="44.24665" lon="5.21818">
        <ele>323</ele>
        <time>2018-02-21T10:07:16Z</time>
      </trkpt>
      <trkpt lat="44.2467" lon="5.21831">
        <ele>323</ele>
        <time>2018-02-21T10:07:18Z</time>
      </trkpt>
      <trkpt lat="44.24679" lon="5.2185">
        <ele>324</ele>
        <time>2018-02-21T10:07:21Z</time>
      </trkpt>
      <trkpt lat="44.24687" lon="5.21872">
        <ele>325</ele>
        <time>2018-02-21T10:07:24Z</time>
      </trkpt>
      <trkpt lat="44.24692" lon="5.21886">
        <ele>324</ele>
        <time>2018-02-21T10:07:26Z</time>
      </trkpt>
      <trkpt lat="44.24697" lon="5.21902">
        <ele>324</ele>
        <time>2018-02-21T10:07:28Z</time>
      </trkpt>
      <trkpt lat="44.24705" lon="5.21926">
        <ele>323</ele>
        <time>2018-02-21T10:07:31Z</time>
      </trkpt>
      <trkpt lat="44.24709" lon="5.21943">
        <ele>322</ele>
        <time>2018-02-21T10:07:33Z</time>
      </trkpt>
      <trkpt lat="44.24715" lon="5.21959">
        <ele>322</ele>
        <time>2018-02-21T10:07:35Z</time>
      </trkpt>
      <trkpt lat="44.24721" lon="5.21983">
        <ele>322</ele>
        <time>2018-02-21T10:07:38Z</time>
      </trkpt>
      <trkpt lat="44.24725" lon="5.21999">
        <ele>322</ele>
        <time>2018-02-21T10:07:40Z</time>
      </trkpt>
      <trkpt lat="44.24732" lon="5.22023">
        <ele>322</ele>
        <time>2018-02-21T10:07:43Z</time>
      </trkpt>
      <trkpt lat="44.24735" lon="5.22039">
        <ele>322</ele>
        <time>2018-02-21T10:07:45Z</time>
      </trkpt>
      <trkpt lat="44.24739" lon="5.22062">
        <ele>322</ele>
        <time>2018-02-21T10:07:48Z</time>
      </trkpt>
      <trkpt lat="44.24741" lon="5.22078">
        <ele>323</ele>
        <time>2018-02-21T10:07:50Z</time>
      </trkpt>
      <trkpt lat="44.24742" lon="5.22093">
        <ele>323</ele>
        <time>2018-02-21T10:07:52Z</time>
      </trkpt>
      <trkpt lat="44.24743" lon="5.22116">
        <ele>323</ele>
        <time>2018-02-21T10:07:55Z</time>
      </trkpt>
      <trkpt lat="44.24743" lon="5.22138">
        <ele>323</ele>
        <time>2018-02-21T10:07:58Z</time>
      </trkpt>
      <trkpt lat="44.24741" lon="5.22159">
        <ele>323</ele>
        <time>2018-02-21T10:08:01Z</time>
      </trkpt>
      <trkpt lat="44.24738" lon="5.22178">
        <ele>324</ele>
        <time>2018-02-21T10:08:04Z</time>
      </trkpt>
      <trkpt lat="44.24734" lon="5.22197">
        <ele>324</ele>
        <time>2018-02-21T10:08:07Z</time>
      </trkpt>
      <trkpt lat="44.24729" lon="5.22214">
        <ele>324</ele>
        <time>2018-02-21T10:08:10Z</time>
      </trkpt>
      <trkpt lat="44.24724" lon="5.22232">
        <ele>323</ele>
        <time>2018-02-21T10:08:13Z</time>
      </trkpt>
      <trkpt lat="44.24718" lon="5.2225">
        <ele>323</ele>
        <time>2018-02-21T10:08:16Z</time>
      </trkpt>
      <trkpt lat="44.24715" lon="5.22262">
        <ele>323</ele>
        <time>2018-02-21T10:08:18Z</time>
      </trkpt>
      <trkpt lat="44.24708" lon="5.2228">
        <ele>322</ele>
        <time>2018-02-21T10:08:21Z</time>
      </trkpt>
      <trkpt lat="44.247" lon="5.22298">
        <ele>322</ele>
        <time>2018-02-21T10:08:24Z</time>
      </trkpt>
      <trkpt lat="44.24691" lon="5.22316">
        <ele>322</ele>
        <time>2018-02-21T10:08:27Z</time>
      </trkpt>
      <trkpt lat="44.24685" lon="5.22328">
        <ele>322</ele>
        <time>2018-02-21T10:08:29Z</time>
      </trkpt>
      <trkpt lat="44.24678" lon="5.22339">
        <ele>322</ele>
        <time>2018-02-21T10:08:31Z</time>
      </trkpt>
      <trkpt lat="44.24672" lon="5.22352">
        <ele>322</ele>
        <time>2018-02-21T10:08:33Z</time>
      </trkpt>
      <trkpt lat="44.24662" lon="5.22371">
        <ele>322</ele>
        <time>2018-02-21T10:08:36Z</time>
      </trkpt>
      <trkpt lat="44.24651" lon="5.2239">
        <ele>322</ele>
        <time>2018-02-21T10:08:39Z</time>
      </trkpt>
      <trkpt lat="44.24644" lon="5.224">
        <ele>322</ele>
        <time>2018-02-21T10:08:41Z</time>
      </trkpt>
      <trkpt lat="44.24632" lon="5.22415">
        <ele>322</ele>
        <time>2018-02-21T10:08:44Z</time>
      </trkpt>
      <trkpt lat="44.24623" lon="5.22425">
        <ele>322</ele>
        <time>2018-02-21T10:08:46Z</time>
      </trkpt>
      <trkpt lat="44.24608" lon="5.22437">
        <ele>322</ele>
        <time>2018-02-21T10:08:49Z</time>
      </trkpt>
      <trkpt lat="44.24599" lon="5.22444">
        <ele>322</ele>
        <time>2018-02-21T10:08:51Z</time>
      </trkpt>
      <trkpt lat="44.24585" lon="5.22455">
        <ele>322</ele>
        <time>2018-02-21T10:08:54Z</time>
      </trkpt>
      <trkpt lat="44.24576" lon="5.22462">
        <ele>322</ele>
        <time>2018-02-21T10:08:56Z</time>
      </trkpt>
      <trkpt lat="44.24567" lon="5.22468">
        <ele>322</ele>
        <time>2018-02-21T10:08:58Z</time>
      </trkpt>
      <trkpt lat="44.24558" lon="5.22475">
        <ele>322</ele>
        <time>2018-02-21T10:09:00Z</time>
      </trkpt>
      <trkpt lat="44.24545" lon="5.22484">
        <ele>322</ele>
        <time>2018-02-21T10:09:03Z</time>
      </trkpt>
      <trkpt lat="44.24532" lon="5.22495">
        <ele>322</ele>
        <time>2018-02-21T10:09:06Z</time>
      </trkpt>
      <trkpt lat="44.24519" lon="5.22507">
        <ele>322</ele>
        <time>2018-02-21T10:09:09Z</time>
      </trkpt>
      <trkpt lat="44.24511" lon="5.22516">
        <ele>322</ele>
        <time>2018-02-21T10:09:11Z</time>
      </trkpt>
      <trkpt lat="44.24503" lon="5.22524">
        <ele>322</ele>
        <time>2018-02-21T10:09:13Z</time>
      </trkpt>
      <trkpt lat="44.2449" lon="5.2253">
        <ele>322</ele>
        <time>2018-02-21T10:09:16Z</time>
      </trkpt>
      <trkpt lat="44.2448" lon="5.22533">
        <ele>322</ele>
        <time>2018-02-21T10:09:18Z</time>
      </trkpt>
      <trkpt lat="44.24471" lon="5.22535">
        <ele>321</ele>
        <time>2018-02-21T10:09:20Z</time>
      </trkpt>
      <trkpt lat="44.24456" lon="5.2254">
        <ele>321</ele>
        <time>2018-02-21T10:09:23Z</time>
      </trkpt>
      <trkpt lat="44.24442" lon="5.22543">
        <ele>322</ele>
        <time>2018-02-21T10:09:26Z</time>
      </trkpt>
      <trkpt lat="44.24427" lon="5.22546">
        <ele>322</ele>
        <time>2018-02-21T10:09:29Z</time>
      </trkpt>
      <trkpt lat="44.24412" lon="5.22544">
        <ele>323</ele>
        <time>2018-02-21T10:09:32Z</time>
      </trkpt>
      <trkpt lat="44.24398" lon="5.22536">
        <ele>323</ele>
        <time>2018-02-21T10:09:35Z</time>
      </trkpt>
      <trkpt lat="44.24389" lon="5.2253">
        <ele>323</ele>
        <time>2018-02-21T10:09:37Z</time>
      </trkpt>
      <trkpt lat="44.2438" lon="5.22525">
        <ele>323</ele>
        <time>2018-02-21T10:09:39Z</time>
      </trkpt>
      <trkpt lat="44.24372" lon="5.2252">
        <ele>324</ele>
        <time>2018-02-21T10:09:41Z</time>
      </trkpt>
      <trkpt lat="44.2436" lon="5.22517">
        <ele>324</ele>
        <time>2018-02-21T10:09:44Z</time>
      </trkpt>
      <trkpt lat="44.24347" lon="5.22517">
        <ele>324</ele>
        <time>2018-02-21T10:09:47Z</time>
      </trkpt>
      <trkpt lat="44.24338" lon="5.22518">
        <ele>325</ele>
        <time>2018-02-21T10:09:49Z</time>
      </trkpt>
      <trkpt lat="44.24324" lon="5.2252">
        <ele>326</ele>
        <time>2018-02-21T10:09:52Z</time>
      </trkpt>
      <trkpt lat="44.24314" lon="5.22521">
        <ele>326</ele>
        <time>2018-02-21T10:09:54Z</time>
      </trkpt>
      <trkpt lat="44.243" lon="5.22526">
        <ele>326</ele>
        <time>2018-02-21T10:09:57Z</time>
      </trkpt>
      <trkpt lat="44.24287" lon="5.22536">
        <ele>325</ele>
        <time>2018-02-21T10:10:00Z</time>
      </trkpt>
      <trkpt lat="44.24282" lon="5.22545">
        <ele>325</ele>
        <time>2018-02-21T10:10:02Z</time>
      </trkpt>
      <trkpt lat="44.24279" lon="5.22556">
        <ele>324</ele>
        <time>2018-02-21T10:10:04Z</time>
      </trkpt>
      <trkpt lat="44.24277" lon="5.22574">
        <ele>324</ele>
        <time>2018-02-21T10:10:07Z</time>
      </trkpt>
      <trkpt lat="44.24276" lon="5.22592">
        <ele>324</ele>
        <time>2018-02-21T10:10:10Z</time>
      </trkpt>
      <trkpt lat="44.24274" lon="5.2261">
        <ele>324</ele>
        <time>2018-02-21T10:10:13Z</time>
      </trkpt>
      <trkpt lat="44.24273" lon="5.22628">
        <ele>323</ele>
        <time>2018-02-21T10:10:16Z</time>
      </trkpt>
      <trkpt lat="44.24273" lon="5.22647">
        <ele>324</ele>
        <time>2018-02-21T10:10:19Z</time>
      </trkpt>
      <trkpt lat="44.24272" lon="5.22666">
        <ele>324</ele>
        <time>2018-02-21T10:10:22Z</time>
      </trkpt>
      <trkpt lat="44.24271" lon="5.22684">
        <ele>324</ele>
        <time>2018-02-21T10:10:25Z</time>
      </trkpt>
      <trkpt lat="44.24271" lon="5.22696">
        <ele>324</ele>
        <time>2018-02-21T10:10:27Z</time>
      </trkpt>
      <trkpt lat="44.24272" lon="5.22714">
        <ele>325</ele>
        <time>2018-02-21T10:10:30Z</time>
      </trkpt>
      <trkpt lat="44.24273" lon="5.22732">
        <ele>324</ele>
        <time>2018-02-21T10:10:33Z</time>
      </trkpt>
      <trkpt lat="44.24276" lon="5.22749">
        <ele>324</ele>
        <time>2018-02-21T10:10:36Z</time>
      </trkpt>
      <trkpt lat="44.24283" lon="5.22763">
        <ele>325</ele>
        <time>2018-02-21T10:10:39Z</time>
      </trkpt>
      <trkpt lat="44.24293" lon="5.22773">
        <ele>325</ele>
        <time>2018-02-21T10:10:42Z</time>
      </trkpt>
      <trkpt lat="44.24306" lon="5.22781">
        <ele>325</ele>
        <time>2018-02-21T10:10:45Z</time>
      </trkpt>
      <trkpt lat="44.24319" lon="5.22787">
        <ele>325</ele>
        <time>2018-02-21T10:10:48Z</time>
      </trkpt>
      <trkpt lat="44.24328" lon="5.22791">
        <ele>325</ele>
        <time>2018-02-21T10:10:50Z</time>
      </trkpt>
      <trkpt lat="44.24337" lon="5.22796">
        <ele>326</ele>
        <time>2018-02-21T10:10:52Z</time>
      </trkpt>
      <trkpt lat="44.2435" lon="5.22802">
        <ele>327</ele>
        <time>2018-02-21T10:10:55Z</time>
      </trkpt>
      <trkpt lat="44.24361" lon="5.22809">
        <ele>327</ele>
        <time>2018-02-21T10:10:58Z</time>
      </trkpt>
      <trkpt lat="44.24373" lon="5.22815">
        <ele>327</ele>
        <time>2018-02-21T10:11:01Z</time>
      </trkpt>
      <trkpt lat="44.24387" lon="5.22822">
        <ele>327</ele>
        <time>2018-02-21T10:11:04Z</time>
      </trkpt>
      <trkpt lat="44.24401" lon="5.2283">
        <ele>328</ele>
        <time>2018-02-21T10:11:07Z</time>
      </trkpt>
      <trkpt lat="44.2441" lon="5.22836">
        <ele>328</ele>
        <time>2018-02-21T10:11:09Z</time>
      </trkpt>
      <trkpt lat="44.24417" lon="5.22843">
        <ele>328</ele>
        <time>2018-02-21T10:11:11Z</time>
      </trkpt>
      <trkpt lat="44.24424" lon="5.2285">
        <ele>329</ele>
        <time>2018-02-21T10:11:13Z</time>
      </trkpt>
      <trkpt lat="44.24432" lon="5.2286">
        <ele>329</ele>
        <time>2018-02-21T10:11:16Z</time>
      </trkpt>
      <trkpt lat="44.24442" lon="5.22869">
        <ele>330</ele>
        <time>2018-02-21T10:11:19Z</time>
      </trkpt>
      <trkpt lat="44.24453" lon="5.22878">
        <ele>330</ele>
        <time>2018-02-21T10:11:22Z</time>
      </trkpt>
      <trkpt lat="44.24465" lon="5.2289">
        <ele>330</ele>
        <time>2018-02-21T10:11:25Z</time>
      </trkpt>
      <trkpt lat="44.24477" lon="5.22905">
        <ele>330</ele>
        <time>2018-02-21T10:11:28Z</time>
      </trkpt>
      <trkpt lat="44.24485" lon="5.22914">
        <ele>329</ele>
        <time>2018-02-21T10:11:30Z</time>
      </trkpt>
      <trkpt lat="44.24491" lon="5.22923">
        <ele>330</ele>
        <time>2018-02-21T10:11:32Z</time>
      </trkpt>
      <trkpt lat="44.24498" lon="5.22931">
        <ele>330</ele>
        <time>2018-02-21T10:11:34Z</time>
      </trkpt>
      <trkpt lat="44.24508" lon="5.22946">
        <ele>330</ele>
        <time>2018-02-21T10:11:37Z</time>
      </trkpt>
      <trkpt lat="44.24514" lon="5.22956">
        <ele>330</ele>
        <time>2018-02-21T10:11:39Z</time>
      </trkpt>
      <trkpt lat="44.24519" lon="5.22966">
        <ele>330</ele>
        <time>2018-02-21T10:11:41Z</time>
      </trkpt>
      <trkpt lat="44.24527" lon="5.22983">
        <ele>331</ele>
        <time>2018-02-21T10:11:44Z</time>
      </trkpt>
      <trkpt lat="44.24531" lon="5.23001">
        <ele>331</ele>
        <time>2018-02-21T10:11:47Z</time>
      </trkpt>
      <trkpt lat="44.24532" lon="5.23014">
        <ele>332</ele>
        <time>2018-02-21T10:11:49Z</time>
      </trkpt>
      <trkpt lat="44.24533" lon="5.23026">
        <ele>332</ele>
        <time>2018-02-21T10:11:51Z</time>
      </trkpt>
      <trkpt lat="44.24537" lon="5.23044">
        <ele>332</ele>
        <time>2018-02-21T10:11:54Z</time>
      </trkpt>
      <trkpt lat="44.2454" lon="5.23063">
        <ele>332</ele>
        <time>2018-02-21T10:11:57Z</time>
      </trkpt>
      <trkpt lat="44.24545" lon="5.23081">
        <ele>331</ele>
        <time>2018-02-21T10:12:00Z</time>
      </trkpt>
      <trkpt lat="44.24549" lon="5.23093">
        <ele>331</ele>
        <time>2018-02-21T10:12:02Z</time>
      </trkpt>
      <trkpt lat="44.24555" lon="5.2311">
        <ele>331</ele>
        <time>2018-02-21T10:12:05Z</time>
      </trkpt>
      <trkpt lat="44.24561" lon="5.23129">
        <ele>332</ele>
        <time>2018-02-21T10:12:08Z</time>
      </trkpt>
      <trkpt lat="44.24565" lon="5.23148">
        <ele>333</ele>
        <time>2018-02-21T10:12:11Z</time>
      </trkpt>
      <trkpt lat="44.24569" lon="5.23167">
        <ele>334</ele>
        <time>2018-02-21T10:12:14Z</time>
      </trkpt>
      <trkpt lat="44.24572" lon="5.23187">
        <ele>333</ele>
        <time>2018-02-21T10:12:17Z</time>
      </trkpt>
      <trkpt lat="44.24575" lon="5.23208">
        <ele>333</ele>
        <time>2018-02-21T10:12:20Z</time>
      </trkpt>
      <trkpt lat="44.24578" lon="5.23229">
        <ele>333</ele>
        <time>2018-02-21T10:12:23Z</time>
      </trkpt>
      <trkpt lat="44.24581" lon="5.2325">
        <ele>334</ele>
        <time>2018-02-21T10:12:26Z</time>
      </trkpt>
      <trkpt lat="44.24583" lon="5.23264">
        <ele>334</ele>
        <time>2018-02-21T10:12:28Z</time>
      </trkpt>
      <trkpt lat="44.24588" lon="5.23283">
        <ele>334</ele>
        <time>2018-02-21T10:12:31Z</time>
      </trkpt>
      <trkpt lat="44.24592" lon="5.23296">
        <ele>334</ele>
        <time>2018-02-21T10:12:33Z</time>
      </trkpt>
      <trkpt lat="44.24599" lon="5.23315">
        <ele>334</ele>
        <time>2018-02-21T10:12:36Z</time>
      </trkpt>
      <trkpt lat="44.24604" lon="5.23326">
        <ele>334</ele>
        <time>2018-02-21T10:12:38Z</time>
      </trkpt>
      <trkpt lat="44.24611" lon="5.23335">
        <ele>335</ele>
        <time>2018-02-21T10:12:40Z</time>
      </trkpt>
      <trkpt lat="44.24617" lon="5.23351">
        <ele>335</ele>
        <time>2018-02-21T10:12:43Z</time>
      </trkpt>
      <trkpt lat="44.24622" lon="5.23367">
        <ele>335</ele>
        <time>2018-02-21T10:12:46Z</time>
      </trkpt>
      <trkpt lat="44.24625" lon="5.23378">
        <ele>335</ele>
        <time>2018-02-21T10:12:48Z</time>
      </trkpt>
      <trkpt lat="44.2463" lon="5.23394">
        <ele>335</ele>
        <time>2018-02-21T10:12:51Z</time>
      </trkpt>
      <trkpt lat="44.24634" lon="5.23405">
        <ele>335</ele>
        <time>2018-02-21T10:12:53Z</time>
      </trkpt>
      <trkpt lat="44.2464" lon="5.23421">
        <ele>336</ele>
        <time>2018-02-21T10:12:56Z</time>
      </trkpt>
      <trkpt lat="44.24644" lon="5.23432">
        <ele>336</ele>
        <time>2018-02-21T10:12:58Z</time>
      </trkpt>
      <trkpt lat="44.2465" lon="5.23449">
        <ele>337</ele>
        <time>2018-02-21T10:13:01Z</time>
      </trkpt>
      <trkpt lat="44.24656" lon="5.23465">
        <ele>336</ele>
        <time>2018-02-21T10:13:04Z</time>
      </trkpt>
      <trkpt lat="44.24662" lon="5.23483">
        <ele>336</ele>
        <time>2018-02-21T10:13:07Z</time>
      </trkpt>
      <trkpt lat="44.24667" lon="5.23494">
        <ele>336</ele>
        <time>2018-02-21T10:13:09Z</time>
      </trkpt>
      <trkpt lat="44.24671" lon="5.23506">
        <ele>336</ele>
        <time>2018-02-21T10:13:11Z</time>
      </trkpt>
      <trkpt lat="44.24678" lon="5.23524">
        <ele>336</ele>
        <time>2018-02-21T10:13:14Z</time>
      </trkpt>
      <trkpt lat="44.24682" lon="5.23535">
        <ele>336</ele>
        <time>2018-02-21T10:13:16Z</time>
      </trkpt>
      <trkpt lat="44.24689" lon="5.23551">
        <ele>335</ele>
        <time>2018-02-21T10:13:19Z</time>
      </trkpt>
      <trkpt lat="44.24692" lon="5.23562">
        <ele>335</ele>
        <time>2018-02-21T10:13:21Z</time>
      </trkpt>
      <trkpt lat="44.24697" lon="5.23578">
        <ele>335</ele>
        <time>2018-02-21T10:13:24Z</time>
      </trkpt>
      <trkpt lat="44.24704" lon="5.23595">
        <ele>336</ele>
        <time>2018-02-21T10:13:27Z</time>
      </trkpt>
      <trkpt lat="44.24709" lon="5.23611">
        <ele>336</ele>
        <time>2018-02-21T10:13:30Z</time>
      </trkpt>
      <trkpt lat="44.24713" lon="5.23622">
        <ele>336</ele>
        <time>2018-02-21T10:13:32Z</time>
      </trkpt>
      <trkpt lat="44.24717" lon="5.23633">
        <ele>336</ele>
        <time>2018-02-21T10:13:34Z</time>
      </trkpt>
      <trkpt lat="44.24724" lon="5.2365">
        <ele>336</ele>
        <time>2018-02-21T10:13:37Z</time>
      </trkpt>
      <trkpt lat="44.2473" lon="5.23667">
        <ele>337</ele>
        <time>2018-02-21T10:13:40Z</time>
      </trkpt>
      <trkpt lat="44.24736" lon="5.23684">
        <ele>337</ele>
        <time>2018-02-21T10:13:43Z</time>
      </trkpt>
      <trkpt lat="44.24743" lon="5.23701">
        <ele>337</ele>
        <time>2018-02-21T10:13:46Z</time>
      </trkpt>
      <trkpt lat="44.24747" lon="5.23712">
        <ele>338</ele>
        <time>2018-02-21T10:13:48Z</time>
      </trkpt>
      <trkpt lat="44.24752" lon="5.23723">
        <ele>338</ele>
        <time>2018-02-21T10:13:50Z</time>
      </trkpt>
      <trkpt lat="44.24756" lon="5.23735">
        <ele>339</ele>
        <time>2018-02-21T10:13:52Z</time>
      </trkpt>
      <trkpt lat="44.24762" lon="5.23752">
        <ele>339</ele>
        <time>2018-02-21T10:13:55Z</time>
      </trkpt>
      <trkpt lat="44.24768" lon="5.23769">
        <ele>339</ele>
        <time>2018-02-21T10:13:58Z</time>
      </trkpt>
      <trkpt lat="44.24773" lon="5.2378">
        <ele>340</ele>
        <time>2018-02-21T10:14:00Z</time>
      </trkpt>
      <trkpt lat="44.24779" lon="5.23796">
        <ele>340</ele>
        <time>2018-02-21T10:14:03Z</time>
      </trkpt>
      <trkpt lat="44.24783" lon="5.23807">
        <ele>340</ele>
        <time>2018-02-21T10:14:05Z</time>
      </trkpt>
      <trkpt lat="44.24789" lon="5.23824">
        <ele>340</ele>
        <time>2018-02-21T10:14:08Z</time>
      </trkpt>
      <trkpt lat="44.24795" lon="5.23841">
        <ele>340</ele>
        <time>2018-02-21T10:14:11Z</time>
      </trkpt>
      <trkpt lat="44.24799" lon="5.23852">
        <ele>340</ele>
        <time>2018-02-21T10:14:13Z</time>
      </trkpt>
      <trkpt lat="44.24803" lon="5.23864">
        <ele>341</ele>
        <time>2018-02-21T10:14:15Z</time>
      </trkpt>
      <trkpt lat="44.24809" lon="5.23881">
        <ele>341</ele>
        <time>2018-02-21T10:14:18Z</time>
      </trkpt>
      <trkpt lat="44.24815" lon="5.23899">
        <ele>341</ele>
        <time>2018-02-21T10:14:21Z</time>
      </trkpt>
      <trkpt lat="44.2482" lon="5.23917">
        <ele>341</ele>
        <time>2018-02-21T10:14:24Z</time>
      </trkpt>
      <trkpt lat="44.24823" lon="5.2393">
        <ele>341</ele>
        <time>2018-02-21T10:14:26Z</time>
      </trkpt>
      <trkpt lat="44.24828" lon="5.23949">
        <ele>341</ele>
        <time>2018-02-21T10:14:29Z</time>
      </trkpt>
      <trkpt lat="44.2483" lon="5.23962">
        <ele>341</ele>
        <time>2018-02-21T10:14:31Z</time>
      </trkpt>
      <trkpt lat="44.24834" lon="5.23981">
        <ele>342</ele>
        <time>2018-02-21T10:14:34Z</time>
      </trkpt>
      <trkpt lat="44.24837" lon="5.23994">
        <ele>342</ele>
        <time>2018-02-21T10:14:36Z</time>
      </trkpt>
      <trkpt lat="44.2484" lon="5.24007">
        <ele>342</ele>
        <time>2018-02-21T10:14:38Z</time>
      </trkpt>
      <trkpt lat="44.24844" lon="5.24026">
        <ele>342</ele>
        <time>2018-02-21T10:14:41Z</time>
      </trkpt>
      <trkpt lat="44.24849" lon="5.24045">
        <ele>342</ele>
        <time>2018-02-21T10:14:44Z</time>
      </trkpt>
      <trkpt lat="44.24854" lon="5.24062">
        <ele>342</ele>
        <time>2018-02-21T10:14:47Z</time>
      </trkpt>
      <trkpt lat="44.24859" lon="5.24078">
        <ele>342</ele>
        <time>2018-02-21T10:14:50Z</time>
      </trkpt>
      <trkpt lat="44.24862" lon="5.24089">
        <ele>342</ele>
        <time>2018-02-21T10:14:52Z</time>
      </trkpt>
      <trkpt lat="44.24868" lon="5.24107">
        <ele>342</ele>
        <time>2018-02-21T10:14:55Z</time>
      </trkpt>
      <trkpt lat="44.24873" lon="5.24124">
        <ele>342</ele>
        <time>2018-02-21T10:14:58Z</time>
      </trkpt>
      <trkpt lat="44.24878" lon="5.24136">
        <ele>343</ele>
        <time>2018-02-21T10:15:00Z</time>
      </trkpt>
      <trkpt lat="44.24883" lon="5.24154">
        <ele>343</ele>
        <time>2018-02-21T10:15:03Z</time>
      </trkpt>
      <trkpt lat="44.24887" lon="5.24166">
        <ele>343</ele>
        <time>2018-02-21T10:15:05Z</time>
      </trkpt>
      <trkpt lat="44.24894" lon="5.24183">
        <ele>343</ele>
        <time>2018-02-21T10:15:08Z</time>
      </trkpt>
      <trkpt lat="44.24899" lon="5.24195">
        <ele>343</ele>
        <time>2018-02-21T10:15:10Z</time>
      </trkpt>
      <trkpt lat="44.24903" lon="5.24207">
        <ele>344</ele>
        <time>2018-02-21T10:15:12Z</time>
      </trkpt>
      <trkpt lat="44.24908" lon="5.24219">
        <ele>344</ele>
        <time>2018-02-21T10:15:14Z</time>
      </trkpt>
      <trkpt lat="44.24913" lon="5.24231">
        <ele>344</ele>
        <time>2018-02-21T10:15:16Z</time>
      </trkpt>
      <trkpt lat="44.24921" lon="5.24249">
        <ele>344</ele>
        <time>2018-02-21T10:15:19Z</time>
      </trkpt>
      <trkpt lat="44.24926" lon="5.2426">
        <ele>344</ele>
        <time>2018-02-21T10:15:21Z</time>
      </trkpt>
      <trkpt lat="44.24934" lon="5.24277">
        <ele>344</ele>
        <time>2018-02-21T10:15:24Z</time>
      </trkpt>
      <trkpt lat="44.24939" lon="5.24288">
        <ele>344</ele>
        <time>2018-02-21T10:15:26Z</time>
      </trkpt>
      <trkpt lat="44.24944" lon="5.24298">
        <ele>344</ele>
        <time>2018-02-21T10:15:28Z</time>
      </trkpt>
      <trkpt lat="44.24949" lon="5.2431">
        <ele>345</ele>
        <time>2018-02-21T10:15:30Z</time>
      </trkpt>
      <trkpt lat="44.24957" lon="5.24327">
        <ele>345</ele>
        <time>2018-02-21T10:15:33Z</time>
      </trkpt>
      <trkpt lat="44.24965" lon="5.24343">
        <ele>345</ele>
        <time>2018-02-21T10:15:36Z</time>
      </trkpt>
      <trkpt lat="44.2497" lon="5.24355">
        <ele>345</ele>
        <time>2018-02-21T10:15:38Z</time>
      </trkpt>
      <trkpt lat="44.24975" lon="5.24366">
        <ele>345</ele>
        <time>2018-02-21T10:15:40Z</time>
      </trkpt>
      <trkpt lat="44.24983" lon="5.24383">
        <ele>345</ele>
        <time>2018-02-21T10:15:43Z</time>
      </trkpt>
      <trkpt lat="44.24991" lon="5.244">
        <ele>345</ele>
        <time>2018-02-21T10:15:46Z</time>
      </trkpt>
      <trkpt lat="44.24996" lon="5.24412">
        <ele>345</ele>
        <time>2018-02-21T10:15:48Z</time>
      </trkpt>
      <trkpt lat="44.25001" lon="5.24424">
        <ele>345</ele>
        <time>2018-02-21T10:15:50Z</time>
      </trkpt>
      <trkpt lat="44.2501" lon="5.2444">
        <ele>345</ele>
        <time>2018-02-21T10:15:53Z</time>
      </trkpt>
      <trkpt lat="44.25015" lon="5.24452">
        <ele>345</ele>
        <time>2018-02-21T10:15:55Z</time>
      </trkpt>
      <trkpt lat="44.25023" lon="5.24469">
        <ele>346</ele>
        <time>2018-02-21T10:15:58Z</time>
      </trkpt>
      <trkpt lat="44.25028" lon="5.2448">
        <ele>346</ele>
        <time>2018-02-21T10:16:00Z</time>
      </trkpt>
      <trkpt lat="44.25033" lon="5.24491">
        <ele>346</ele>
        <time>2018-02-21T10:16:02Z</time>
      </trkpt>
      <trkpt lat="44.2504" lon="5.24508">
        <ele>346</ele>
        <time>2018-02-21T10:16:05Z</time>
      </trkpt>
      <trkpt lat="44.25045" lon="5.24519">
        <ele>346</ele>
        <time>2018-02-21T10:16:07Z</time>
      </trkpt>
      <trkpt lat="44.25049" lon="5.24531">
        <ele>347</ele>
        <time>2018-02-21T10:16:09Z</time>
      </trkpt>
      <trkpt lat="44.25054" lon="5.24542">
        <ele>347</ele>
        <time>2018-02-21T10:16:11Z</time>
      </trkpt>
      <trkpt lat="44.2506" lon="5.2456">
        <ele>348</ele>
        <time>2018-02-21T10:16:14Z</time>
      </trkpt>
      <trkpt lat="44.25064" lon="5.24572">
        <ele>348</ele>
        <time>2018-02-21T10:16:16Z</time>
      </trkpt>
      <trkpt lat="44.25069" lon="5.2459">
        <ele>349</ele>
        <time>2018-02-21T10:16:19Z</time>
      </trkpt>
      <trkpt lat="44.25075" lon="5.24609">
        <ele>349</ele>
        <time>2018-02-21T10:16:22Z</time>
      </trkpt>
      <trkpt lat="44.25078" lon="5.24622">
        <ele>349</ele>
        <time>2018-02-21T10:16:24Z</time>
      </trkpt>
      <trkpt lat="44.25083" lon="5.24641">
        <ele>349</ele>
        <time>2018-02-21T10:16:27Z</time>
      </trkpt>
      <trkpt lat="44.25087" lon="5.2466">
        <ele>349</ele>
        <time>2018-02-21T10:16:30Z</time>
      </trkpt>
      <trkpt lat="44.2509" lon="5.24673">
        <ele>349</ele>
        <time>2018-02-21T10:16:32Z</time>
      </trkpt>
      <trkpt lat="44.25093" lon="5.24693">
        <ele>349</ele>
        <time>2018-02-21T10:16:35Z</time>
      </trkpt>
      <trkpt lat="44.25097" lon="5.24713">
        <ele>350</ele>
        <time>2018-02-21T10:16:38Z</time>
      </trkpt>
      <trkpt lat="44.251" lon="5.24734">
        <ele>349</ele>
        <time>2018-02-21T10:16:41Z</time>
      </trkpt>
      <trkpt lat="44.25103" lon="5.24755">
        <ele>349</ele>
        <time>2018-02-21T10:16:44Z</time>
      </trkpt>
      <trkpt lat="44.25105" lon="5.24777">
        <ele>350</ele>
        <time>2018-02-21T10:16:47Z</time>
      </trkpt>
      <trkpt lat="44.25106" lon="5.24791">
        <ele>350</ele>
        <time>2018-02-21T10:16:49Z</time>
      </trkpt>
      <trkpt lat="44.25108" lon="5.24812">
        <ele>351</ele>
        <time>2018-02-21T10:16:52Z</time>
      </trkpt>
      <trkpt lat="44.25108" lon="5.24826">
        <ele>350</ele>
        <time>2018-02-21T10:16:54Z</time>
      </trkpt>
      <trkpt lat="44.25108" lon="5.2484">
        <ele>350</ele>
        <time>2018-02-21T10:16:56Z</time>
      </trkpt>
      <trkpt lat="44.25108" lon="5.24861">
        <ele>350</ele>
        <time>2018-02-21T10:16:59Z</time>
      </trkpt>
      <trkpt lat="44.25108" lon="5.24883">
        <ele>350</ele>
        <time>2018-02-21T10:17:02Z</time>
      </trkpt>
      <trkpt lat="44.25108" lon="5.24903">
        <ele>350</ele>
        <time>2018-02-21T10:17:05Z</time>
      </trkpt>
      <trkpt lat="44.25107" lon="5.24925">
        <ele>350</ele>
        <time>2018-02-21T10:17:08Z</time>
      </trkpt>
      <trkpt lat="44.25106" lon="5.24947">
        <ele>351</ele>
        <time>2018-02-21T10:17:11Z</time>
      </trkpt>
      <trkpt lat="44.25105" lon="5.24962">
        <ele>351</ele>
        <time>2018-02-21T10:17:13Z</time>
      </trkpt>
      <trkpt lat="44.25104" lon="5.24984">
        <ele>351</ele>
        <time>2018-02-21T10:17:16Z</time>
      </trkpt>
      <trkpt lat="44.25103" lon="5.25006">
        <ele>351</ele>
        <time>2018-02-21T10:17:19Z</time>
      </trkpt>
      <trkpt lat="44.25102" lon="5.25021">
        <ele>352</ele>
        <time>2018-02-21T10:17:21Z</time>
      </trkpt>
      <trkpt lat="44.25101" lon="5.25036">
        <ele>352</ele>
        <time>2018-02-21T10:17:23Z</time>
      </trkpt>
      <trkpt lat="44.251" lon="5.25058">
        <ele>353</ele>
        <time>2018-02-21T10:17:26Z</time>
      </trkpt>
      <trkpt lat="44.25098" lon="5.2508">
        <ele>353</ele>
        <time>2018-02-21T10:17:29Z</time>
      </trkpt>
      <trkpt lat="44.25098" lon="5.25101">
        <ele>352</ele>
        <time>2018-02-21T10:17:32Z</time>
      </trkpt>
      <trkpt lat="44.25097" lon="5.25122">
        <ele>352</ele>
        <time>2018-02-21T10:17:35Z</time>
      </trkpt>
      <trkpt lat="44.25096" lon="5.25144">
        <ele>352</ele>
        <time>2018-02-21T10:17:38Z</time>
      </trkpt>
      <trkpt lat="44.25097" lon="5.25165">
        <ele>352</ele>
        <time>2018-02-21T10:17:41Z</time>
      </trkpt>
      <trkpt lat="44.25099" lon="5.25187">
        <ele>352</ele>
        <time>2018-02-21T10:17:44Z</time>
      </trkpt>
      <trkpt lat="44.25102" lon="5.25208">
        <ele>352</ele>
        <time>2018-02-21T10:17:47Z</time>
      </trkpt>
      <trkpt lat="44.25105" lon="5.25222">
        <ele>352</ele>
        <time>2018-02-21T10:17:49Z</time>
      </trkpt>
      <trkpt lat="44.2511" lon="5.25241">
        <ele>352</ele>
        <time>2018-02-21T10:17:52Z</time>
      </trkpt>
      <trkpt lat="44.25114" lon="5.25252">
        <ele>353</ele>
        <time>2018-02-21T10:17:54Z</time>
      </trkpt>
      <trkpt lat="44.25119" lon="5.25266">
        <ele>352</ele>
        <time>2018-02-21T10:17:57Z</time>
      </trkpt>
      <trkpt lat="44.25123" lon="5.25276">
        <ele>352</ele>
        <time>2018-02-21T10:17:59Z</time>
      </trkpt>
      <trkpt lat="44.25129" lon="5.25291">
        <ele>352</ele>
        <time>2018-02-21T10:18:02Z</time>
      </trkpt>
      <trkpt lat="44.25137" lon="5.25305">
        <ele>352</ele>
        <time>2018-02-21T10:18:05Z</time>
      </trkpt>
      <trkpt lat="44.25145" lon="5.25318">
        <ele>352</ele>
        <time>2018-02-21T10:18:08Z</time>
      </trkpt>
      <trkpt lat="44.25151" lon="5.25327">
        <ele>352</ele>
        <time>2018-02-21T10:18:10Z</time>
      </trkpt>
      <trkpt lat="44.2516" lon="5.25339">
        <ele>352</ele>
        <time>2018-02-21T10:18:13Z</time>
      </trkpt>
      <trkpt lat="44.25169" lon="5.25351">
        <ele>353</ele>
        <time>2018-02-21T10:18:16Z</time>
      </trkpt>
      <trkpt lat="44.2518" lon="5.25361">
        <ele>353</ele>
        <time>2018-02-21T10:18:19Z</time>
      </trkpt>
      <trkpt lat="44.25191" lon="5.2537">
        <ele>353</ele>
        <time>2018-02-21T10:18:22Z</time>
      </trkpt>
      <trkpt lat="44.25203" lon="5.25379">
        <ele>353</ele>
        <time>2018-02-21T10:18:25Z</time>
      </trkpt>
      <trkpt lat="44.25215" lon="5.25386">
        <ele>352</ele>
        <time>2018-02-21T10:18:28Z</time>
      </trkpt>
      <trkpt lat="44.25228" lon="5.25392">
        <ele>352</ele>
        <time>2018-02-21T10:18:31Z</time>
      </trkpt>
      <trkpt lat="44.25241" lon="5.25397">
        <ele>352</ele>
        <time>2018-02-21T10:18:34Z</time>
      </trkpt>
      <trkpt lat="44.2525" lon="5.254">
        <ele>352</ele>
        <time>2018-02-21T10:18:36Z</time>
      </trkpt>
      <trkpt lat="44.25264" lon="5.25403">
        <ele>353</ele>
        <time>2018-02-21T10:18:39Z</time>
      </trkpt>
      <trkpt lat="44.25273" lon="5.25404">
        <ele>353</ele>
        <time>2018-02-21T10:18:41Z</time>
      </trkpt>
      <trkpt lat="44.25287" lon="5.25408">
        <ele>353</ele>
        <time>2018-02-21T10:18:44Z</time>
      </trkpt>
      <trkpt lat="44.25296" lon="5.2541">
        <ele>353</ele>
        <time>2018-02-21T10:18:46Z</time>
      </trkpt>
      <trkpt lat="44.25306" lon="5.25412">
        <ele>353</ele>
        <time>2018-02-21T10:18:48Z</time>
      </trkpt>
      <trkpt lat="44.25315" lon="5.25414">
        <ele>353</ele>
        <time>2018-02-21T10:18:50Z</time>
      </trkpt>
      <trkpt lat="44.25325" lon="5.25416">
        <ele>353</ele>
        <time>2018-02-21T10:18:52Z</time>
      </trkpt>
      <trkpt lat="44.25334" lon="5.25419">
        <ele>353</ele>
        <time>2018-02-21T10:18:54Z</time>
      </trkpt>
      <trkpt lat="44.25349" lon="5.25422">
        <ele>354</ele>
        <time>2018-02-21T10:18:57Z</time>
      </trkpt>
      <trkpt lat="44.25358" lon="5.25425">
        <ele>353</ele>
        <time>2018-02-21T10:18:59Z</time>
      </trkpt>
      <trkpt lat="44.25373" lon="5.25429">
        <ele>353</ele>
        <time>2018-02-21T10:19:02Z</time>
      </trkpt>
      <trkpt lat="44.25383" lon="5.25432">
        <ele>354</ele>
        <time>2018-02-21T10:19:04Z</time>
      </trkpt>
      <trkpt lat="44.25392" lon="5.25436">
        <ele>354</ele>
        <time>2018-02-21T10:19:06Z</time>
      </trkpt>
      <trkpt lat="44.25407" lon="5.25443">
        <ele>355</ele>
        <time>2018-02-21T10:19:09Z</time>
      </trkpt>
      <trkpt lat="44.25421" lon="5.2545">
        <ele>354</ele>
        <time>2018-02-21T10:19:12Z</time>
      </trkpt>
      <trkpt lat="44.25435" lon="5.25457">
        <ele>354</ele>
        <time>2018-02-21T10:19:15Z</time>
      </trkpt>
      <trkpt lat="44.25449" lon="5.25466">
        <ele>355</ele>
        <time>2018-02-21T10:19:18Z</time>
      </trkpt>
      <trkpt lat="44.25462" lon="5.25475">
        <ele>356</ele>
        <time>2018-02-21T10:19:21Z</time>
      </trkpt>
      <trkpt lat="44.25476" lon="5.25485">
        <ele>356</ele>
        <time>2018-02-21T10:19:24Z</time>
      </trkpt>
      <trkpt lat="44.25485" lon="5.25492">
        <ele>356</ele>
        <time>2018-02-21T10:19:26Z</time>
      </trkpt>
      <trkpt lat="44.25498" lon="5.25502">
        <ele>356</ele>
        <time>2018-02-21T10:19:29Z</time>
      </trkpt>
      <trkpt lat="44.2551" lon="5.25514">
        <ele>355</ele>
        <time>2018-02-21T10:19:32Z</time>
      </trkpt>
      <trkpt lat="44.25523" lon="5.25526">
        <ele>355</ele>
        <time>2018-02-21T10:19:35Z</time>
      </trkpt>
      <trkpt lat="44.25535" lon="5.25539">
        <ele>356</ele>
        <time>2018-02-21T10:19:38Z</time>
      </trkpt>
      <trkpt lat="44.25547" lon="5.25552">
        <ele>356</ele>
        <time>2018-02-21T10:19:41Z</time>
      </trkpt>
      <trkpt lat="44.25559" lon="5.25566">
        <ele>357</ele>
        <time>2018-02-21T10:19:44Z</time>
      </trkpt>
      <trkpt lat="44.2557" lon="5.2558">
        <ele>357</ele>
        <time>2018-02-21T10:19:47Z</time>
      </trkpt>
      <trkpt lat="44.25578" lon="5.2559">
        <ele>357</ele>
        <time>2018-02-21T10:19:49Z</time>
      </trkpt>
      <trkpt lat="44.25586" lon="5.25599">
        <ele>357</ele>
        <time>2018-02-21T10:19:51Z</time>
      </trkpt>
      <trkpt lat="44.25597" lon="5.25613">
        <ele>358</ele>
        <time>2018-02-21T10:19:54Z</time>
      </trkpt>
      <trkpt lat="44.25609" lon="5.25628">
        <ele>358</ele>
        <time>2018-02-21T10:19:57Z</time>
      </trkpt>
      <trkpt lat="44.25621" lon="5.25643">
        <ele>357</ele>
        <time>2018-02-21T10:20:00Z</time>
      </trkpt>
      <trkpt lat="44.25629" lon="5.25654">
        <ele>357</ele>
        <time>2018-02-21T10:20:02Z</time>
      </trkpt>
      <trkpt lat="44.25637" lon="5.25664">
        <ele>356</ele>
        <time>2018-02-21T10:20:04Z</time>
      </trkpt>
      <trkpt lat="44.25646" lon="5.25674">
        <ele>356</ele>
        <time>2018-02-21T10:20:06Z</time>
      </trkpt>
      <trkpt lat="44.25654" lon="5.25685">
        <ele>356</ele>
        <time>2018-02-21T10:20:08Z</time>
      </trkpt>
      <trkpt lat="44.25663" lon="5.25696">
        <ele>355</ele>
        <time>2018-02-21T10:20:10Z</time>
      </trkpt>
      <trkpt lat="44.25676" lon="5.25712">
        <ele>356</ele>
        <time>2018-02-21T10:20:13Z</time>
      </trkpt>
      <trkpt lat="44.25685" lon="5.25724">
        <ele>356</ele>
        <time>2018-02-21T10:20:15Z</time>
      </trkpt>
      <trkpt lat="44.25698" lon="5.2574">
        <ele>356</ele>
        <time>2018-02-21T10:20:18Z</time>
      </trkpt>
      <trkpt lat="44.25706" lon="5.25751">
        <ele>356</ele>
        <time>2018-02-21T10:20:20Z</time>
      </trkpt>
      <trkpt lat="44.25714" lon="5.25763">
        <ele>356</ele>
        <time>2018-02-21T10:20:22Z</time>
      </trkpt>
      <trkpt lat="44.25722" lon="5.25774">
        <ele>356</ele>
        <time>2018-02-21T10:20:24Z</time>
      </trkpt>
      <trkpt lat="44.25734" lon="5.25791">
        <ele>356</ele>
        <time>2018-02-21T10:20:27Z</time>
      </trkpt>
      <trkpt lat="44.25742" lon="5.25802">
        <ele>356</ele>
        <time>2018-02-21T10:20:29Z</time>
      </trkpt>
      <trkpt lat="44.25753" lon="5.25818">
        <ele>356</ele>
        <time>2018-02-21T10:20:32Z</time>
      </trkpt>
      <trkpt lat="44.25761" lon="5.25829">
        <ele>356</ele>
        <time>2018-02-21T10:20:34Z</time>
      </trkpt>
      <trkpt lat="44.25768" lon="5.25839">
        <ele>356</ele>
        <time>2018-02-21T10:20:36Z</time>
      </trkpt>
      <trkpt lat="44.25779" lon="5.25854">
        <ele>357</ele>
        <time>2018-02-21T10:20:39Z</time>
      </trkpt>
      <trkpt lat="44.25787" lon="5.25865">
        <ele>357</ele>
        <time>2018-02-21T10:20:41Z</time>
      </trkpt>
      <trkpt lat="44.25794" lon="5.25875">
        <ele>358</ele>
        <time>2018-02-21T10:20:43Z</time>
      </trkpt>
      <trkpt lat="44.25805" lon="5.2589">
        <ele>358</ele>
        <time>2018-02-21T10:20:46Z</time>
      </trkpt>
      <trkpt lat="44.25816" lon="5.25905">
        <ele>358</ele>
        <time>2018-02-21T10:20:49Z</time>
      </trkpt>
      <trkpt lat="44.25826" lon="5.25919">
        <ele>358</ele>
        <time>2018-02-21T10:20:52Z</time>
      </trkpt>
      <trkpt lat="44.25833" lon="5.25929">
        <ele>359</ele>
        <time>2018-02-21T10:20:54Z</time>
      </trkpt>
      <trkpt lat="44.25843" lon="5.25943">
        <ele>359</ele>
        <time>2018-02-21T10:20:57Z</time>
      </trkpt>
      <trkpt lat="44.25854" lon="5.25957">
        <ele>360</ele>
        <time>2018-02-21T10:21:00Z</time>
      </trkpt>
      <trkpt lat="44.25865" lon="5.25969">
        <ele>361</ele>
        <time>2018-02-21T10:21:03Z</time>
      </trkpt>
      <trkpt lat="44.25873" lon="5.25976">
        <ele>361</ele>
        <time>2018-02-21T10:21:05Z</time>
      </trkpt>
      <trkpt lat="44.25881" lon="5.25983">
        <ele>361</ele>
        <time>2018-02-21T10:21:07Z</time>
      </trkpt>
      <trkpt lat="44.25893" lon="5.25992">
        <ele>362</ele>
        <time>2018-02-21T10:21:10Z</time>
      </trkpt>
      <trkpt lat="44.25901" lon="5.25998">
        <ele>362</ele>
        <time>2018-02-21T10:21:12Z</time>
      </trkpt>
      <trkpt lat="44.25909" lon="5.26004">
        <ele>362</ele>
        <time>2018-02-21T10:21:14Z</time>
      </trkpt>
      <trkpt lat="44.25923" lon="5.26012">
        <ele>362</ele>
        <time>2018-02-21T10:21:17Z</time>
      </trkpt>
      <trkpt lat="44.25937" lon="5.26018">
        <ele>363</ele>
        <time>2018-02-21T10:21:20Z</time>
      </trkpt>
      <trkpt lat="44.2595" lon="5.26023">
        <ele>363</ele>
        <time>2018-02-21T10:21:23Z</time>
      </trkpt>
      <trkpt lat="44.25964" lon="5.26028">
        <ele>364</ele>
        <time>2018-02-21T10:21:26Z</time>
      </trkpt>
      <trkpt lat="44.25978" lon="5.26033">
        <ele>364</ele>
        <time>2018-02-21T10:21:29Z</time>
      </trkpt>
      <trkpt lat="44.25993" lon="5.26039">
        <ele>364</ele>
        <time>2018-02-21T10:21:32Z</time>
      </trkpt>
      <trkpt lat="44.26008" lon="5.26044">
        <ele>364</ele>
        <time>2018-02-21T10:21:35Z</time>
      </trkpt>
      <trkpt lat="44.26022" lon="5.2605">
        <ele>364</ele>
        <time>2018-02-21T10:21:38Z</time>
      </trkpt>
      <trkpt lat="44.26032" lon="5.26054">
        <ele>365</ele>
        <time>2018-02-21T10:21:40Z</time>
      </trkpt>
      <trkpt lat="44.26046" lon="5.26062">
        <ele>365</ele>
        <time>2018-02-21T10:21:43Z</time>
      </trkpt>
      <trkpt lat="44.2606" lon="5.26071">
        <ele>365</ele>
        <time>2018-02-21T10:21:46Z</time>
      </trkpt>
      <trkpt lat="44.26069" lon="5.26077">
        <ele>366</ele>
        <time>2018-02-21T10:21:48Z</time>
      </trkpt>
      <trkpt lat="44.26083" lon="5.26086">
        <ele>366</ele>
        <time>2018-02-21T10:21:51Z</time>
      </trkpt>
      <trkpt lat="44.26097" lon="5.26096">
        <ele>366</ele>
        <time>2018-02-21T10:21:54Z</time>
      </trkpt>
      <trkpt lat="44.26106" lon="5.26103">
        <ele>366</ele>
        <time>2018-02-21T10:21:56Z</time>
      </trkpt>
      <trkpt lat="44.2612" lon="5.26113">
        <ele>366</ele>
        <time>2018-02-21T10:21:59Z</time>
      </trkpt>
      <trkpt lat="44.26129" lon="5.2612">
        <ele>366</ele>
        <time>2018-02-21T10:22:01Z</time>
      </trkpt>
      <trkpt lat="44.26143" lon="5.2613">
        <ele>366</ele>
        <time>2018-02-21T10:22:04Z</time>
      </trkpt>
      <trkpt lat="44.26152" lon="5.26137">
        <ele>366</ele>
        <time>2018-02-21T10:22:06Z</time>
      </trkpt>
      <trkpt lat="44.26166" lon="5.26147">
        <ele>366</ele>
        <time>2018-02-21T10:22:09Z</time>
      </trkpt>
      <trkpt lat="44.26175" lon="5.26153">
        <ele>366</ele>
        <time>2018-02-21T10:22:11Z</time>
      </trkpt>
      <trkpt lat="44.26189" lon="5.26162">
        <ele>365</ele>
        <time>2018-02-21T10:22:14Z</time>
      </trkpt>
      <trkpt lat="44.26203" lon="5.26172">
        <ele>365</ele>
        <time>2018-02-21T10:22:17Z</time>
      </trkpt>
      <trkpt lat="44.26218" lon="5.2618">
        <ele>365</ele>
        <time>2018-02-21T10:22:20Z</time>
      </trkpt>
      <trkpt lat="44.26228" lon="5.26185">
        <ele>365</ele>
        <time>2018-02-21T10:22:22Z</time>
      </trkpt>
      <trkpt lat="44.26243" lon="5.2619">
        <ele>366</ele>
        <time>2018-02-21T10:22:25Z</time>
      </trkpt>
      <trkpt lat="44.26258" lon="5.26192">
        <ele>366</ele>
        <time>2018-02-21T10:22:28Z</time>
      </trkpt>
      <trkpt lat="44.26273" lon="5.26193">
        <ele>367</ele>
        <time>2018-02-21T10:22:31Z</time>
      </trkpt>
      <trkpt lat="44.26288" lon="5.26192">
        <ele>367</ele>
        <time>2018-02-21T10:22:34Z</time>
      </trkpt>
      <trkpt lat="44.26303" lon="5.26189">
        <ele>368</ele>
        <time>2018-02-21T10:22:37Z</time>
      </trkpt>
      <trkpt lat="44.26313" lon="5.26187">
        <ele>368</ele>
        <time>2018-02-21T10:22:39Z</time>
      </trkpt>
      <trkpt lat="44.26328" lon="5.26183">
        <ele>369</ele>
        <time>2018-02-21T10:22:42Z</time>
      </trkpt>
      <trkpt lat="44.26337" lon="5.2618">
        <ele>369</ele>
        <time>2018-02-21T10:22:44Z</time>
      </trkpt>
      <trkpt lat="44.26346" lon="5.26178">
        <ele>370</ele>
        <time>2018-02-21T10:22:46Z</time>
      </trkpt>
      <trkpt lat="44.2636" lon="5.26175">
        <ele>370</ele>
        <time>2018-02-21T10:22:49Z</time>
      </trkpt>
      <trkpt lat="44.26369" lon="5.26172">
        <ele>370</ele>
        <time>2018-02-21T10:22:51Z</time>
      </trkpt>
      <trkpt lat="44.26383" lon="5.26168">
        <ele>370</ele>
        <time>2018-02-21T10:22:54Z</time>
      </trkpt>
      <trkpt lat="44.26397" lon="5.26165">
        <ele>371</ele>
        <time>2018-02-21T10:22:57Z</time>
      </trkpt>
      <trkpt lat="44.26406" lon="5.26163">
        <ele>372</ele>
        <time>2018-02-21T10:22:59Z</time>
      </trkpt>
      <trkpt lat="44.26421" lon="5.26159">
        <ele>372</ele>
        <time>2018-02-21T10:23:02Z</time>
      </trkpt>
      <trkpt lat="44.26435" lon="5.26156">
        <ele>372</ele>
        <time>2018-02-21T10:23:05Z</time>
      </trkpt>
      <trkpt lat="44.26451" lon="5.26152">
        <ele>371</ele>
        <time>2018-02-21T10:23:08Z</time>
      </trkpt>
      <trkpt lat="44.26461" lon="5.26151">
        <ele>371</ele>
        <time>2018-02-21T10:23:10Z</time>
      </trkpt>
      <trkpt lat="44.26476" lon="5.2615">
        <ele>371</ele>
        <time>2018-02-21T10:23:13Z</time>
      </trkpt>
      <trkpt lat="44.26487" lon="5.2615">
        <ele>371</ele>
        <time>2018-02-21T10:23:15Z</time>
      </trkpt>
      <trkpt lat="44.26502" lon="5.26153">
        <ele>372</ele>
        <time>2018-02-21T10:23:18Z</time>
      </trkpt>
      <trkpt lat="44.26512" lon="5.26155">
        <ele>372</ele>
        <time>2018-02-21T10:23:20Z</time>
      </trkpt>
      <trkpt lat="44.26525" lon="5.26161">
        <ele>373</ele>
        <time>2018-02-21T10:23:23Z</time>
      </trkpt>
      <trkpt lat="44.26534" lon="5.26165">
        <ele>373</ele>
        <time>2018-02-21T10:23:25Z</time>
      </trkpt>
      <trkpt lat="44.2654" lon="5.26172">
        <ele>374</ele>
        <time>2018-02-21T10:23:27Z</time>
      </trkpt>
      <trkpt lat="44.26548" lon="5.26182">
        <ele>374</ele>
        <time>2018-02-21T10:23:30Z</time>
      </trkpt>
      <trkpt lat="44.26556" lon="5.26184">
        <ele>373</ele>
        <time>2018-02-21T10:23:33Z</time>
      </trkpt>
      <trkpt lat="44.2656" lon="5.26184">
        <ele>372</ele>
        <time>2018-02-21T10:23:35Z</time>
      </trkpt>
      <trkpt lat="44.26564" lon="5.26184">
        <ele>372</ele>
        <time>2018-02-21T10:23:37Z</time>
      </trkpt>
      <trkpt lat="44.2657" lon="5.26186">
        <ele>372</ele>
        <time>2018-02-21T10:23:40Z</time>
      </trkpt>
      <trkpt lat="44.26577" lon="5.26185">
        <ele>372</ele>
        <time>2018-02-21T10:23:43Z</time>
      </trkpt>
      <trkpt lat="44.26582" lon="5.26186">
        <ele>372</ele>
        <time>2018-02-21T10:23:46Z</time>
      </trkpt>
      <trkpt lat="44.26585" lon="5.26188">
        <ele>372</ele>
        <time>2018-02-21T10:23:48Z</time>
      </trkpt>
      <trkpt lat="44.26588" lon="5.2619">
        <ele>372</ele>
        <time>2018-02-21T10:23:51Z</time>
      </trkpt>
      <trkpt lat="44.26589" lon="5.26189">
        <ele>372</ele>
        <time>2018-02-21T10:23:54Z</time>
      </trkpt>
      <trkpt lat="44.26589" lon="5.2619">
        <ele>372</ele>
        <time>2018-02-21T10:23:57Z</time>
      </trkpt>
      <trkpt lat="44.26589" lon="5.2619">
        <ele>371</ele>
        <time>2018-02-21T10:23:59Z</time>
      </trkpt>
      <trkpt lat="44.26589" lon="5.2619">
        <ele>371</ele>
        <time>2018-02-21T10:24:02Z</time>
      </trkpt>
      <trkpt lat="44.26588" lon="5.2619">
        <ele>371</ele>
        <time>2018-02-21T10:24:04Z</time>
      </trkpt>
      <trkpt lat="44.26588" lon="5.26189">
        <ele>371</ele>
        <time>2018-02-21T10:24:06Z</time>
      </trkpt>
      <trkpt lat="44.2659" lon="5.26189">
        <ele>372</ele>
        <time>2018-02-21T10:24:08Z</time>
      </trkpt>
      <trkpt lat="44.26595" lon="5.2619">
        <ele>371</ele>
        <time>2018-02-21T10:24:11Z</time>
      </trkpt>
      <trkpt lat="44.26601" lon="5.26193">
        <ele>372</ele>
        <time>2018-02-21T10:24:14Z</time>
      </trkpt>
      <trkpt lat="44.26606" lon="5.26196">
        <ele>372</ele>
        <time>2018-02-21T10:24:16Z</time>
      </trkpt>
      <trkpt lat="44.26617" lon="5.262">
        <ele>373</ele>
        <time>2018-02-21T10:24:19Z</time>
      </trkpt>
      <trkpt lat="44.26625" lon="5.26204">
        <ele>374</ele>
        <time>2018-02-21T10:24:21Z</time>
      </trkpt>
      <trkpt lat="44.26638" lon="5.2621">
        <ele>374</ele>
        <time>2018-02-21T10:24:24Z</time>
      </trkpt>
      <trkpt lat="44.26647" lon="5.26215">
        <ele>374</ele>
        <time>2018-02-21T10:24:26Z</time>
      </trkpt>
      <trkpt lat="44.26656" lon="5.2622">
        <ele>375</ele>
        <time>2018-02-21T10:24:28Z</time>
      </trkpt>
      <trkpt lat="44.2667" lon="5.26227">
        <ele>375</ele>
        <time>2018-02-21T10:24:31Z</time>
      </trkpt>
      <trkpt lat="44.26679" lon="5.26232">
        <ele>376</ele>
        <time>2018-02-21T10:24:33Z</time>
      </trkpt>
      <trkpt lat="44.26688" lon="5.26238">
        <ele>376</ele>
        <time>2018-02-21T10:24:35Z</time>
      </trkpt>
      <trkpt lat="44.26702" lon="5.26246">
        <ele>377</ele>
        <time>2018-02-21T10:24:38Z</time>
      </trkpt>
      <trkpt lat="44.26711" lon="5.26252">
        <ele>378</ele>
        <time>2018-02-21T10:24:40Z</time>
      </trkpt>
      <trkpt lat="44.2672" lon="5.26259">
        <ele>378</ele>
        <time>2018-02-21T10:24:42Z</time>
      </trkpt>
      <trkpt lat="44.26734" lon="5.26269">
        <ele>377</ele>
        <time>2018-02-21T10:24:45Z</time>
      </trkpt>
      <trkpt lat="44.26749" lon="5.2628">
        <ele>377</ele>
        <time>2018-02-21T10:24:48Z</time>
      </trkpt>
      <trkpt lat="44.26759" lon="5.26288">
        <ele>377</ele>
        <time>2018-02-21T10:24:50Z</time>
      </trkpt>
      <trkpt lat="44.26769" lon="5.26296">
        <ele>376</ele>
        <time>2018-02-21T10:24:52Z</time>
      </trkpt>
      <trkpt lat="44.26784" lon="5.2631">
        <ele>377</ele>
        <time>2018-02-21T10:24:55Z</time>
      </trkpt>
      <trkpt lat="44.268" lon="5.26324">
        <ele>377</ele>
        <time>2018-02-21T10:24:58Z</time>
      </trkpt>
      <trkpt lat="44.26815" lon="5.26338">
        <ele>377</ele>
        <time>2018-02-21T10:25:01Z</time>
      </trkpt>
      <trkpt lat="44.26831" lon="5.26353">
        <ele>377</ele>
        <time>2018-02-21T10:25:04Z</time>
      </trkpt>
      <trkpt lat="44.26846" lon="5.26367">
        <ele>376</ele>
        <time>2018-02-21T10:25:07Z</time>
      </trkpt>
      <trkpt lat="44.2686" lon="5.26381">
        <ele>376</ele>
        <time>2018-02-21T10:25:10Z</time>
      </trkpt>
      <trkpt lat="44.26875" lon="5.26393">
        <ele>376</ele>
        <time>2018-02-21T10:25:13Z</time>
      </trkpt>
      <trkpt lat="44.26884" lon="5.26402">
        <ele>376</ele>
        <time>2018-02-21T10:25:15Z</time>
      </trkpt>
      <trkpt lat="44.26893" lon="5.2641">
        <ele>376</ele>
        <time>2018-02-21T10:25:17Z</time>
      </trkpt>
      <trkpt lat="44.26905" lon="5.26423">
        <ele>375</ele>
        <time>2018-02-21T10:25:20Z</time>
      </trkpt>
      <trkpt lat="44.26918" lon="5.26434">
        <ele>376</ele>
        <time>2018-02-21T10:25:23Z</time>
      </trkpt>
      <trkpt lat="44.26929" lon="5.26445">
        <ele>376</ele>
        <time>2018-02-21T10:25:26Z</time>
      </trkpt>
      <trkpt lat="44.26941" lon="5.26457">
        <ele>377</ele>
        <time>2018-02-21T10:25:29Z</time>
      </trkpt>
      <trkpt lat="44.26949" lon="5.26465">
        <ele>376</ele>
        <time>2018-02-21T10:25:31Z</time>
      </trkpt>
      <trkpt lat="44.26961" lon="5.26477">
        <ele>376</ele>
        <time>2018-02-21T10:25:34Z</time>
      </trkpt>
      <trkpt lat="44.26969" lon="5.26484">
        <ele>377</ele>
        <time>2018-02-21T10:25:36Z</time>
      </trkpt>
      <trkpt lat="44.26981" lon="5.26497">
        <ele>377</ele>
        <time>2018-02-21T10:25:39Z</time>
      </trkpt>
      <trkpt lat="44.2699" lon="5.26504">
        <ele>377</ele>
        <time>2018-02-21T10:25:41Z</time>
      </trkpt>
      <trkpt lat="44.27002" lon="5.26516">
        <ele>377</ele>
        <time>2018-02-21T10:25:44Z</time>
      </trkpt>
      <trkpt lat="44.27016" lon="5.26529">
        <ele>377</ele>
        <time>2018-02-21T10:25:47Z</time>
      </trkpt>
      <trkpt lat="44.27029" lon="5.26542">
        <ele>378</ele>
        <time>2018-02-21T10:25:50Z</time>
      </trkpt>
      <trkpt lat="44.27042" lon="5.26554">
        <ele>378</ele>
        <time>2018-02-21T10:25:53Z</time>
      </trkpt>
      <trkpt lat="44.27053" lon="5.26566">
        <ele>378</ele>
        <time>2018-02-21T10:25:56Z</time>
      </trkpt>
      <trkpt lat="44.27065" lon="5.26578">
        <ele>378</ele>
        <time>2018-02-21T10:25:59Z</time>
      </trkpt>
      <trkpt lat="44.27073" lon="5.26585">
        <ele>377</ele>
        <time>2018-02-21T10:26:01Z</time>
      </trkpt>
      <trkpt lat="44.27085" lon="5.26597">
        <ele>378</ele>
        <time>2018-02-21T10:26:04Z</time>
      </trkpt>
      <trkpt lat="44.27093" lon="5.26605">
        <ele>378</ele>
        <time>2018-02-21T10:26:06Z</time>
      </trkpt>
      <trkpt lat="44.27101" lon="5.26613">
        <ele>379</ele>
        <time>2018-02-21T10:26:08Z</time>
      </trkpt>
      <trkpt lat="44.27113" lon="5.26625">
        <ele>379</ele>
        <time>2018-02-21T10:26:11Z</time>
      </trkpt>
      <trkpt lat="44.27121" lon="5.26633">
        <ele>379</ele>
        <time>2018-02-21T10:26:13Z</time>
      </trkpt>
      <trkpt lat="44.27134" lon="5.26645">
        <ele>379</ele>
        <time>2018-02-21T10:26:16Z</time>
      </trkpt>
      <trkpt lat="44.27142" lon="5.26654">
        <ele>379</ele>
        <time>2018-02-21T10:26:18Z</time>
      </trkpt>
      <trkpt lat="44.27155" lon="5.26667">
        <ele>379</ele>
        <time>2018-02-21T10:26:21Z</time>
      </trkpt>
      <trkpt lat="44.27168" lon="5.2668">
        <ele>380</ele>
        <time>2018-02-21T10:26:24Z</time>
      </trkpt>
      <trkpt lat="44.27181" lon="5.26693">
        <ele>379</ele>
        <time>2018-02-21T10:26:27Z</time>
      </trkpt>
      <trkpt lat="44.27193" lon="5.26706">
        <ele>379</ele>
        <time>2018-02-21T10:26:30Z</time>
      </trkpt>
      <trkpt lat="44.27201" lon="5.26715">
        <ele>379</ele>
        <time>2018-02-21T10:26:32Z</time>
      </trkpt>
      <trkpt lat="44.27214" lon="5.26727">
        <ele>379</ele>
        <time>2018-02-21T10:26:35Z</time>
      </trkpt>
      <trkpt lat="44.27225" lon="5.26739">
        <ele>379</ele>
        <time>2018-02-21T10:26:38Z</time>
      </trkpt>
      <trkpt lat="44.27237" lon="5.26749">
        <ele>379</ele>
        <time>2018-02-21T10:26:41Z</time>
      </trkpt>
      <trkpt lat="44.27248" lon="5.26761">
        <ele>380</ele>
        <time>2018-02-21T10:26:44Z</time>
      </trkpt>
      <trkpt lat="44.27259" lon="5.26772">
        <ele>380</ele>
        <time>2018-02-21T10:26:47Z</time>
      </trkpt>
      <trkpt lat="44.2727" lon="5.26783">
        <ele>380</ele>
        <time>2018-02-21T10:26:50Z</time>
      </trkpt>
      <trkpt lat="44.2728" lon="5.26795">
        <ele>380</ele>
        <time>2018-02-21T10:26:53Z</time>
      </trkpt>
      <trkpt lat="44.27287" lon="5.26802">
        <ele>381</ele>
        <time>2018-02-21T10:26:55Z</time>
      </trkpt>
      <trkpt lat="44.27297" lon="5.26815">
        <ele>382</ele>
        <time>2018-02-21T10:26:58Z</time>
      </trkpt>
      <trkpt lat="44.27308" lon="5.26827">
        <ele>382</ele>
        <time>2018-02-21T10:27:01Z</time>
      </trkpt>
      <trkpt lat="44.27315" lon="5.26834">
        <ele>382</ele>
        <time>2018-02-21T10:27:03Z</time>
      </trkpt>
      <trkpt lat="44.27325" lon="5.26843">
        <ele>382</ele>
        <time>2018-02-21T10:27:06Z</time>
      </trkpt>
      <trkpt lat="44.27335" lon="5.26856">
        <ele>383</ele>
        <time>2018-02-21T10:27:09Z</time>
      </trkpt>
      <trkpt lat="44.27345" lon="5.26869">
        <ele>384</ele>
        <time>2018-02-21T10:27:12Z</time>
      </trkpt>
      <trkpt lat="44.27355" lon="5.26884">
        <ele>385</ele>
        <time>2018-02-21T10:27:15Z</time>
      </trkpt>
      <trkpt lat="44.27365" lon="5.269">
        <ele>384</ele>
        <time>2018-02-21T10:27:18Z</time>
      </trkpt>
      <trkpt lat="44.27371" lon="5.26912">
        <ele>384</ele>
        <time>2018-02-21T10:27:20Z</time>
      </trkpt>
      <trkpt lat="44.27379" lon="5.26928">
        <ele>384</ele>
        <time>2018-02-21T10:27:23Z</time>
      </trkpt>
      <trkpt lat="44.27387" lon="5.26943">
        <ele>384</ele>
        <time>2018-02-21T10:27:26Z</time>
      </trkpt>
      <trkpt lat="44.27392" lon="5.26954">
        <ele>384</ele>
        <time>2018-02-21T10:27:28Z</time>
      </trkpt>
      <trkpt lat="44.27397" lon="5.26964">
        <ele>384</ele>
        <time>2018-02-21T10:27:30Z</time>
      </trkpt>
      <trkpt lat="44.27402" lon="5.26975">
        <ele>384</ele>
        <time>2018-02-21T10:27:32Z</time>
      </trkpt>
      <trkpt lat="44.27409" lon="5.26988">
        <ele>384</ele>
        <time>2018-02-21T10:27:35Z</time>
      </trkpt>
      <trkpt lat="44.27417" lon="5.27002">
        <ele>384</ele>
        <time>2018-02-21T10:27:38Z</time>
      </trkpt>
      <trkpt lat="44.27422" lon="5.27012">
        <ele>384</ele>
        <time>2018-02-21T10:27:40Z</time>
      </trkpt>
      <trkpt lat="44.2743" lon="5.27027">
        <ele>384</ele>
        <time>2018-02-21T10:27:43Z</time>
      </trkpt>
      <trkpt lat="44.27438" lon="5.27037">
        <ele>384</ele>
        <time>2018-02-21T10:27:45Z</time>
      </trkpt>
      <trkpt lat="44.27448" lon="5.27053">
        <ele>384</ele>
        <time>2018-02-21T10:27:48Z</time>
      </trkpt>
      <trkpt lat="44.27456" lon="5.27069">
        <ele>385</ele>
        <time>2018-02-21T10:27:51Z</time>
      </trkpt>
      <trkpt lat="44.27462" lon="5.27084">
        <ele>385</ele>
        <time>2018-02-21T10:27:54Z</time>
      </trkpt>
      <trkpt lat="44.27467" lon="5.27095">
        <ele>385</ele>
        <time>2018-02-21T10:27:56Z</time>
      </trkpt>
      <trkpt lat="44.27474" lon="5.2711">
        <ele>386</ele>
        <time>2018-02-21T10:27:59Z</time>
      </trkpt>
      <trkpt lat="44.27478" lon="5.2712">
        <ele>386</ele>
        <time>2018-02-21T10:28:01Z</time>
      </trkpt>
      <trkpt lat="44.27483" lon="5.2713">
        <ele>386</ele>
        <time>2018-02-21T10:28:03Z</time>
      </trkpt>
      <trkpt lat="44.27488" lon="5.27145">
        <ele>386</ele>
        <time>2018-02-21T10:28:06Z</time>
      </trkpt>
      <trkpt lat="44.27494" lon="5.2716">
        <ele>385</ele>
        <time>2018-02-21T10:28:09Z</time>
      </trkpt>
      <trkpt lat="44.27498" lon="5.27175">
        <ele>386</ele>
        <time>2018-02-21T10:28:12Z</time>
      </trkpt>
      <trkpt lat="44.27502" lon="5.2719">
        <ele>386</ele>
        <time>2018-02-21T10:28:15Z</time>
      </trkpt>
      <trkpt lat="44.27504" lon="5.27204">
        <ele>387</ele>
        <time>2018-02-21T10:28:18Z</time>
      </trkpt>
      <trkpt lat="44.27506" lon="5.27213">
        <ele>387</ele>
        <time>2018-02-21T10:28:20Z</time>
      </trkpt>
      <trkpt lat="44.27512" lon="5.27224">
        <ele>387</ele>
        <time>2018-02-21T10:28:23Z</time>
      </trkpt>
      <trkpt lat="44.27519" lon="5.27226">
        <ele>387</ele>
        <time>2018-02-21T10:28:25Z</time>
      </trkpt>
      <trkpt lat="44.27526" lon="5.27226">
        <ele>386</ele>
        <time>2018-02-21T10:28:27Z</time>
      </trkpt>
      <trkpt lat="44.27537" lon="5.27223">
        <ele>386</ele>
        <time>2018-02-21T10:28:30Z</time>
      </trkpt>
      <trkpt lat="44.27547" lon="5.2722">
        <ele>386</ele>
        <time>2018-02-21T10:28:33Z</time>
      </trkpt>
      <trkpt lat="44.27557" lon="5.27217">
        <ele>387</ele>
        <time>2018-02-21T10:28:36Z</time>
      </trkpt>
      <trkpt lat="44.27567" lon="5.27215">
        <ele>387</ele>
        <time>2018-02-21T10:28:39Z</time>
      </trkpt>
      <trkpt lat="44.27574" lon="5.27214">
        <ele>387</ele>
        <time>2018-02-21T10:28:41Z</time>
      </trkpt>
      <trkpt lat="44.2758" lon="5.27216">
        <ele>387</ele>
        <time>2018-02-21T10:28:43Z</time>
      </trkpt>
      <trkpt lat="44.27586" lon="5.27221">
        <ele>388</ele>
        <time>2018-02-21T10:28:45Z</time>
      </trkpt>
      <trkpt lat="44.27592" lon="5.27226">
        <ele>388</ele>
        <time>2018-02-21T10:28:47Z</time>
      </trkpt>
      <trkpt lat="44.27601" lon="5.27235">
        <ele>388</ele>
        <time>2018-02-21T10:28:50Z</time>
      </trkpt>
      <trkpt lat="44.27607" lon="5.27243">
        <ele>388</ele>
        <time>2018-02-21T10:28:52Z</time>
      </trkpt>
      <trkpt lat="44.27617" lon="5.27252">
        <ele>388</ele>
        <time>2018-02-21T10:28:55Z</time>
      </trkpt>
      <trkpt lat="44.27625" lon="5.27263">
        <ele>388</ele>
        <time>2018-02-21T10:28:58Z</time>
      </trkpt>
      <trkpt lat="44.2763" lon="5.27271">
        <ele>388</ele>
        <time>2018-02-21T10:29:00Z</time>
      </trkpt>
      <trkpt lat="44.27638" lon="5.27284">
        <ele>388</ele>
        <time>2018-02-21T10:29:03Z</time>
      </trkpt>
      <trkpt lat="44.27645" lon="5.27296">
        <ele>389</ele>
        <time>2018-02-21T10:29:06Z</time>
      </trkpt>
      <trkpt lat="44.27649" lon="5.27305">
        <ele>389</ele>
        <time>2018-02-21T10:29:08Z</time>
      </trkpt>
      <trkpt lat="44.27652" lon="5.27315">
        <ele>390</ele>
        <time>2018-02-21T10:29:10Z</time>
      </trkpt>
      <trkpt lat="44.27655" lon="5.27331">
        <ele>390</ele>
        <time>2018-02-21T10:29:13Z</time>
      </trkpt>
      <trkpt lat="44.27657" lon="5.2735">
        <ele>390</ele>
        <time>2018-02-21T10:29:16Z</time>
      </trkpt>
      <trkpt lat="44.27658" lon="5.27363">
        <ele>389</ele>
        <time>2018-02-21T10:29:19Z</time>
      </trkpt>
      <trkpt lat="44.27659" lon="5.27368">
        <ele>388</ele>
        <time>2018-02-21T10:29:21Z</time>
      </trkpt>
      <trkpt lat="44.27661" lon="5.27376">
        <ele>387</ele>
        <time>2018-02-21T10:29:24Z</time>
      </trkpt>
      <trkpt lat="44.27662" lon="5.27382">
        <ele>387</ele>
        <time>2018-02-21T10:29:27Z</time>
      </trkpt>
      <trkpt lat="44.27662" lon="5.27386">
        <ele>387</ele>
        <time>2018-02-21T10:29:30Z</time>
      </trkpt>
      <trkpt lat="44.27662" lon="5.2739">
        <ele>387</ele>
        <time>2018-02-21T10:29:33Z</time>
      </trkpt>
      <trkpt lat="44.27662" lon="5.27392">
        <ele>387</ele>
        <time>2018-02-21T10:29:35Z</time>
      </trkpt>
      <trkpt lat="44.27662" lon="5.27394">
        <ele>387</ele>
        <time>2018-02-21T10:29:37Z</time>
      </trkpt>
      <trkpt lat="44.27665" lon="5.27401">
        <ele>387</ele>
        <time>2018-02-21T10:29:40Z</time>
      </trkpt>
      <trkpt lat="44.27666" lon="5.27407">
        <ele>387</ele>
        <time>2018-02-21T10:29:42Z</time>
      </trkpt>
      <trkpt lat="44.27667" lon="5.27418">
        <ele>388</ele>
        <time>2018-02-21T10:29:45Z</time>
      </trkpt>
      <trkpt lat="44.27667" lon="5.27432">
        <ele>388</ele>
        <time>2018-02-21T10:29:48Z</time>
      </trkpt>
      <trkpt lat="44.27664" lon="5.27442">
        <ele>389</ele>
        <time>2018-02-21T10:29:50Z</time>
      </trkpt>
      <trkpt lat="44.27659" lon="5.2746">
        <ele>388</ele>
        <time>2018-02-21T10:29:53Z</time>
      </trkpt>
      <trkpt lat="44.27656" lon="5.27471">
        <ele>387</ele>
        <time>2018-02-21T10:29:55Z</time>
      </trkpt>
      <trkpt lat="44.27652" lon="5.27486">
        <ele>387</ele>
        <time>2018-02-21T10:29:58Z</time>
      </trkpt>
      <trkpt lat="44.2765" lon="5.27498">
        <ele>387</ele>
        <time>2018-02-21T10:30:00Z</time>
      </trkpt>
      <trkpt lat="44.27646" lon="5.27513">
        <ele>387</ele>
        <time>2018-02-21T10:30:03Z</time>
      </trkpt>
      <trkpt lat="44.27644" lon="5.27524">
        <ele>387</ele>
        <time>2018-02-21T10:30:05Z</time>
      </trkpt>
      <trkpt lat="44.27641" lon="5.27535">
        <ele>387</ele>
        <time>2018-02-21T10:30:07Z</time>
      </trkpt>
      <trkpt lat="44.27639" lon="5.27546">
        <ele>387</ele>
        <time>2018-02-21T10:30:09Z</time>
      </trkpt>
      <trkpt lat="44.27635" lon="5.27561">
        <ele>386</ele>
        <time>2018-02-21T10:30:12Z</time>
      </trkpt>
      <trkpt lat="44.27632" lon="5.27571">
        <ele>387</ele>
        <time>2018-02-21T10:30:14Z</time>
      </trkpt>
      <trkpt lat="44.27633" lon="5.27582">
        <ele>386</ele>
        <time>2018-02-21T10:30:16Z</time>
      </trkpt>
      <trkpt lat="44.27638" lon="5.27592">
        <ele>386</ele>
        <time>2018-02-21T10:30:18Z</time>
      </trkpt>
      <trkpt lat="44.27648" lon="5.27605">
        <ele>386</ele>
        <time>2018-02-21T10:30:21Z</time>
      </trkpt>
      <trkpt lat="44.27658" lon="5.27619">
        <ele>386</ele>
        <time>2018-02-21T10:30:24Z</time>
      </trkpt>
      <trkpt lat="44.27669" lon="5.27631">
        <ele>386</ele>
        <time>2018-02-21T10:30:27Z</time>
      </trkpt>
      <trkpt lat="44.27679" lon="5.27642">
        <ele>386</ele>
        <time>2018-02-21T10:30:30Z</time>
      </trkpt>
      <trkpt lat="44.2769" lon="5.27654">
        <ele>387</ele>
        <time>2018-02-21T10:30:33Z</time>
      </trkpt>
      <trkpt lat="44.27701" lon="5.27666">
        <ele>388</ele>
        <time>2018-02-21T10:30:36Z</time>
      </trkpt>
      <trkpt lat="44.27708" lon="5.27673">
        <ele>388</ele>
        <time>2018-02-21T10:30:38Z</time>
      </trkpt>
      <trkpt lat="44.2772" lon="5.27685">
        <ele>388</ele>
        <time>2018-02-21T10:30:41Z</time>
      </trkpt>
      <trkpt lat="44.27727" lon="5.27693">
        <ele>388</ele>
        <time>2018-02-21T10:30:43Z</time>
      </trkpt>
      <trkpt lat="44.27738" lon="5.27705">
        <ele>388</ele>
        <time>2018-02-21T10:30:46Z</time>
      </trkpt>
      <trkpt lat="44.27749" lon="5.27716">
        <ele>388</ele>
        <time>2018-02-21T10:30:49Z</time>
      </trkpt>
      <trkpt lat="44.2776" lon="5.27728">
        <ele>388</ele>
        <time>2018-02-21T10:30:52Z</time>
      </trkpt>
      <trkpt lat="44.27771" lon="5.27739">
        <ele>388</ele>
        <time>2018-02-21T10:30:55Z</time>
      </trkpt>
      <trkpt lat="44.27782" lon="5.2775">
        <ele>388</ele>
        <time>2018-02-21T10:30:58Z</time>
      </trkpt>
      <trkpt lat="44.27792" lon="5.2776">
        <ele>388</ele>
        <time>2018-02-21T10:31:01Z</time>
      </trkpt>
      <trkpt lat="44.27799" lon="5.27767">
        <ele>389</ele>
        <time>2018-02-21T10:31:03Z</time>
      </trkpt>
      <trkpt lat="44.27809" lon="5.27778">
        <ele>388</ele>
        <time>2018-02-21T10:31:06Z</time>
      </trkpt>
      <trkpt lat="44.27816" lon="5.27785">
        <ele>389</ele>
        <time>2018-02-21T10:31:08Z</time>
      </trkpt>
      <trkpt lat="44.27826" lon="5.27796">
        <ele>388</ele>
        <time>2018-02-21T10:31:11Z</time>
      </trkpt>
      <trkpt lat="44.27836" lon="5.27807">
        <ele>389</ele>
        <time>2018-02-21T10:31:14Z</time>
      </trkpt>
      <trkpt lat="44.27843" lon="5.27814">
        <ele>389</ele>
        <time>2018-02-21T10:31:16Z</time>
      </trkpt>
      <trkpt lat="44.27853" lon="5.27824">
        <ele>390</ele>
        <time>2018-02-21T10:31:19Z</time>
      </trkpt>
      <trkpt lat="44.27859" lon="5.27832">
        <ele>390</ele>
        <time>2018-02-21T10:31:21Z</time>
      </trkpt>
      <trkpt lat="44.27869" lon="5.27842">
        <ele>389</ele>
        <time>2018-02-21T10:31:24Z</time>
      </trkpt>
      <trkpt lat="44.27876" lon="5.27849">
        <ele>389</ele>
        <time>2018-02-21T10:31:26Z</time>
      </trkpt>
      <trkpt lat="44.27886" lon="5.2786">
        <ele>390</ele>
        <time>2018-02-21T10:31:29Z</time>
      </trkpt>
      <trkpt lat="44.27896" lon="5.2787">
        <ele>390</ele>
        <time>2018-02-21T10:31:32Z</time>
      </trkpt>
      <trkpt lat="44.27903" lon="5.27876">
        <ele>391</ele>
        <time>2018-02-21T10:31:34Z</time>
      </trkpt>
      <trkpt lat="44.27911" lon="5.27884">
        <ele>391</ele>
        <time>2018-02-21T10:31:37Z</time>
      </trkpt>
      <trkpt lat="44.27916" lon="5.27889">
        <ele>391</ele>
        <time>2018-02-21T10:31:39Z</time>
      </trkpt>
      <trkpt lat="44.27925" lon="5.27895">
        <ele>392</ele>
        <time>2018-02-21T10:31:42Z</time>
      </trkpt>
      <trkpt lat="44.27931" lon="5.27901">
        <ele>392</ele>
        <time>2018-02-21T10:31:44Z</time>
      </trkpt>
      <trkpt lat="44.27941" lon="5.27908">
        <ele>393</ele>
        <time>2018-02-21T10:31:47Z</time>
      </trkpt>
      <trkpt lat="44.27948" lon="5.27911">
        <ele>392</ele>
        <time>2018-02-21T10:31:49Z</time>
      </trkpt>
      <trkpt lat="44.27959" lon="5.27915">
        <ele>392</ele>
        <time>2018-02-21T10:31:52Z</time>
      </trkpt>
      <trkpt lat="44.27967" lon="5.27919">
        <ele>392</ele>
        <time>2018-02-21T10:31:54Z</time>
      </trkpt>
      <trkpt lat="44.27977" lon="5.27925">
        <ele>392</ele>
        <time>2018-02-21T10:31:57Z</time>
      </trkpt>
      <trkpt lat="44.27987" lon="5.27937">
        <ele>393</ele>
        <time>2018-02-21T10:32:00Z</time>
      </trkpt>
      <trkpt lat="44.27991" lon="5.27946">
        <ele>393</ele>
        <time>2018-02-21T10:32:02Z</time>
      </trkpt>
      <trkpt lat="44.27998" lon="5.27959">
        <ele>394</ele>
        <time>2018-02-21T10:32:05Z</time>
      </trkpt>
      <trkpt lat="44.28006" lon="5.27973">
        <ele>395</ele>
        <time>2018-02-21T10:32:08Z</time>
      </trkpt>
      <trkpt lat="44.28013" lon="5.27986">
        <ele>395</ele>
        <time>2018-02-21T10:32:11Z</time>
      </trkpt>
      <trkpt lat="44.28017" lon="5.27995">
        <ele>396</ele>
        <time>2018-02-21T10:32:13Z</time>
      </trkpt>
      <trkpt lat="44.28025" lon="5.28009">
        <ele>395</ele>
        <time>2018-02-21T10:32:16Z</time>
      </trkpt>
      <trkpt lat="44.28033" lon="5.28025">
        <ele>395</ele>
        <time>2018-02-21T10:32:19Z</time>
      </trkpt>
      <trkpt lat="44.2804" lon="5.28043">
        <ele>394</ele>
        <time>2018-02-21T10:32:22Z</time>
      </trkpt>
      <trkpt lat="44.28046" lon="5.2806">
        <ele>394</ele>
        <time>2018-02-21T10:32:25Z</time>
      </trkpt>
      <trkpt lat="44.2805" lon="5.28071">
        <ele>394</ele>
        <time>2018-02-21T10:32:27Z</time>
      </trkpt>
      <trkpt lat="44.28054" lon="5.28082">
        <ele>394</ele>
        <time>2018-02-21T10:32:29Z</time>
      </trkpt>
      <trkpt lat="44.28058" lon="5.28098">
        <ele>394</ele>
        <time>2018-02-21T10:32:32Z</time>
      </trkpt>
      <trkpt lat="44.28063" lon="5.28116">
        <ele>394</ele>
        <time>2018-02-21T10:32:35Z</time>
      </trkpt>
      <trkpt lat="44.28067" lon="5.28134">
        <ele>394</ele>
        <time>2018-02-21T10:32:38Z</time>
      </trkpt>
      <trkpt lat="44.28071" lon="5.28152">
        <ele>394</ele>
        <time>2018-02-21T10:32:41Z</time>
      </trkpt>
      <trkpt lat="44.28076" lon="5.2817">
        <ele>394</ele>
        <time>2018-02-21T10:32:44Z</time>
      </trkpt>
      <trkpt lat="44.28081" lon="5.28186">
        <ele>395</ele>
        <time>2018-02-21T10:32:47Z</time>
      </trkpt>
      <trkpt lat="44.28086" lon="5.28196">
        <ele>395</ele>
        <time>2018-02-21T10:32:49Z</time>
      </trkpt>
      <trkpt lat="44.28096" lon="5.28209">
        <ele>395</ele>
        <time>2018-02-21T10:32:52Z</time>
      </trkpt>
      <trkpt lat="44.28103" lon="5.28217">
        <ele>395</ele>
        <time>2018-02-21T10:32:54Z</time>
      </trkpt>
      <trkpt lat="44.2811" lon="5.28224">
        <ele>394</ele>
        <time>2018-02-21T10:32:56Z</time>
      </trkpt>
      <trkpt lat="44.28121" lon="5.28234">
        <ele>394</ele>
        <time>2018-02-21T10:32:59Z</time>
      </trkpt>
      <trkpt lat="44.28132" lon="5.28245">
        <ele>394</ele>
        <time>2018-02-21T10:33:02Z</time>
      </trkpt>
      <trkpt lat="44.28141" lon="5.28254">
        <ele>395</ele>
        <time>2018-02-21T10:33:05Z</time>
      </trkpt>
      <trkpt lat="44.28151" lon="5.28263">
        <ele>395</ele>
        <time>2018-02-21T10:33:08Z</time>
      </trkpt>
      <trkpt lat="44.28161" lon="5.28271">
        <ele>395</ele>
        <time>2018-02-21T10:33:11Z</time>
      </trkpt>
      <trkpt lat="44.28172" lon="5.28277">
        <ele>396</ele>
        <time>2018-02-21T10:33:14Z</time>
      </trkpt>
      <trkpt lat="44.28184" lon="5.28283">
        <ele>397</ele>
        <time>2018-02-21T10:33:17Z</time>
      </trkpt>
      <trkpt lat="44.28196" lon="5.28289">
        <ele>397</ele>
        <time>2018-02-21T10:33:20Z</time>
      </trkpt>
      <trkpt lat="44.28204" lon="5.28292">
        <ele>397</ele>
        <time>2018-02-21T10:33:22Z</time>
      </trkpt>
      <trkpt lat="44.28211" lon="5.28296">
        <ele>397</ele>
        <time>2018-02-21T10:33:24Z</time>
      </trkpt>
      <trkpt lat="44.28223" lon="5.28301">
        <ele>398</ele>
        <time>2018-02-21T10:33:27Z</time>
      </trkpt>
      <trkpt lat="44.28234" lon="5.28306">
        <ele>398</ele>
        <time>2018-02-21T10:33:30Z</time>
      </trkpt>
      <trkpt lat="44.28242" lon="5.2831">
        <ele>399</ele>
        <time>2018-02-21T10:33:32Z</time>
      </trkpt>
      <trkpt lat="44.28253" lon="5.28315">
        <ele>399</ele>
        <time>2018-02-21T10:33:35Z</time>
      </trkpt>
      <trkpt lat="44.28264" lon="5.2832">
        <ele>400</ele>
        <time>2018-02-21T10:33:38Z</time>
      </trkpt>
      <trkpt lat="44.28275" lon="5.28325">
        <ele>400</ele>
        <time>2018-02-21T10:33:41Z</time>
      </trkpt>
      <trkpt lat="44.28285" lon="5.28329">
        <ele>400</ele>
        <time>2018-02-21T10:33:44Z</time>
      </trkpt>
      <trkpt lat="44.28296" lon="5.28334">
        <ele>400</ele>
        <time>2018-02-21T10:33:47Z</time>
      </trkpt>
      <trkpt lat="44.28302" lon="5.28337">
        <ele>400</ele>
        <time>2018-02-21T10:33:49Z</time>
      </trkpt>
      <trkpt lat="44.28309" lon="5.2834">
        <ele>400</ele>
        <time>2018-02-21T10:33:51Z</time>
      </trkpt>
      <trkpt lat="44.2832" lon="5.28345">
        <ele>400</ele>
        <time>2018-02-21T10:33:54Z</time>
      </trkpt>
      <trkpt lat="44.2833" lon="5.2835">
        <ele>400</ele>
        <time>2018-02-21T10:33:57Z</time>
      </trkpt>
      <trkpt lat="44.28341" lon="5.28356">
        <ele>400</ele>
        <time>2018-02-21T10:34:00Z</time>
      </trkpt>
      <trkpt lat="44.28352" lon="5.2836">
        <ele>401</ele>
        <time>2018-02-21T10:34:03Z</time>
      </trkpt>
      <trkpt lat="44.28363" lon="5.28365">
        <ele>402</ele>
        <time>2018-02-21T10:34:06Z</time>
      </trkpt>
      <trkpt lat="44.28373" lon="5.28369">
        <ele>403</ele>
        <time>2018-02-21T10:34:09Z</time>
      </trkpt>
      <trkpt lat="44.28385" lon="5.28371">
        <ele>404</ele>
        <time>2018-02-21T10:34:12Z</time>
      </trkpt>
      <trkpt lat="44.28397" lon="5.28372">
        <ele>404</ele>
        <time>2018-02-21T10:34:15Z</time>
      </trkpt>
      <trkpt lat="44.28405" lon="5.28372">
        <ele>405</ele>
        <time>2018-02-21T10:34:17Z</time>
      </trkpt>
      <trkpt lat="44.28414" lon="5.28371">
        <ele>405</ele>
        <time>2018-02-21T10:34:19Z</time>
      </trkpt>
      <trkpt lat="44.28425" lon="5.2837">
        <ele>406</ele>
        <time>2018-02-21T10:34:22Z</time>
      </trkpt>
      <trkpt lat="44.28432" lon="5.2837">
        <ele>406</ele>
        <time>2018-02-21T10:34:24Z</time>
      </trkpt>
      <trkpt lat="44.28444" lon="5.2837">
        <ele>406</ele>
        <time>2018-02-21T10:34:27Z</time>
      </trkpt>
      <trkpt lat="44.28456" lon="5.2837">
        <ele>407</ele>
        <time>2018-02-21T10:34:30Z</time>
      </trkpt>
      <trkpt lat="44.28468" lon="5.2837">
        <ele>407</ele>
        <time>2018-02-21T10:34:33Z</time>
      </trkpt>
      <trkpt lat="44.2848" lon="5.2837">
        <ele>407</ele>
        <time>2018-02-21T10:34:36Z</time>
      </trkpt>
      <trkpt lat="44.28493" lon="5.2837">
        <ele>407</ele>
        <time>2018-02-21T10:34:39Z</time>
      </trkpt>
      <trkpt lat="44.28502" lon="5.2837">
        <ele>407</ele>
        <time>2018-02-21T10:34:41Z</time>
      </trkpt>
      <trkpt lat="44.28511" lon="5.2837">
        <ele>407</ele>
        <time>2018-02-21T10:34:43Z</time>
      </trkpt>
      <trkpt lat="44.28525" lon="5.28369">
        <ele>408</ele>
        <time>2018-02-21T10:34:46Z</time>
      </trkpt>
      <trkpt lat="44.28539" lon="5.28368">
        <ele>408</ele>
        <time>2018-02-21T10:34:49Z</time>
      </trkpt>
      <trkpt lat="44.28548" lon="5.28366">
        <ele>408</ele>
        <time>2018-02-21T10:34:51Z</time>
      </trkpt>
      <trkpt lat="44.28557" lon="5.28362">
        <ele>408</ele>
        <time>2018-02-21T10:34:53Z</time>
      </trkpt>
      <trkpt lat="44.2857" lon="5.28353">
        <ele>408</ele>
        <time>2018-02-21T10:34:56Z</time>
      </trkpt>
      <trkpt lat="44.28582" lon="5.28344">
        <ele>408</ele>
        <time>2018-02-21T10:34:59Z</time>
      </trkpt>
      <trkpt lat="44.28591" lon="5.28337">
        <ele>408</ele>
        <time>2018-02-21T10:35:01Z</time>
      </trkpt>
      <trkpt lat="44.28599" lon="5.2833">
        <ele>408</ele>
        <time>2018-02-21T10:35:03Z</time>
      </trkpt>
      <trkpt lat="44.28612" lon="5.28321">
        <ele>408</ele>
        <time>2018-02-21T10:35:06Z</time>
      </trkpt>
      <trkpt lat="44.28621" lon="5.28316">
        <ele>409</ele>
        <time>2018-02-21T10:35:08Z</time>
      </trkpt>
      <trkpt lat="44.28634" lon="5.28313">
        <ele>409</ele>
        <time>2018-02-21T10:35:11Z</time>
      </trkpt>
      <trkpt lat="44.28647" lon="5.28313">
        <ele>410</ele>
        <time>2018-02-21T10:35:14Z</time>
      </trkpt>
      <trkpt lat="44.2866" lon="5.28314">
        <ele>410</ele>
        <time>2018-02-21T10:35:17Z</time>
      </trkpt>
      <trkpt lat="44.28673" lon="5.28315">
        <ele>410</ele>
        <time>2018-02-21T10:35:20Z</time>
      </trkpt>
      <trkpt lat="44.28686" lon="5.28314">
        <ele>411</ele>
        <time>2018-02-21T10:35:23Z</time>
      </trkpt>
      <trkpt lat="44.28699" lon="5.28312">
        <ele>411</ele>
        <time>2018-02-21T10:35:26Z</time>
      </trkpt>
      <trkpt lat="44.28707" lon="5.28309">
        <ele>411</ele>
        <time>2018-02-21T10:35:28Z</time>
      </trkpt>
      <trkpt lat="44.28715" lon="5.28306">
        <ele>411</ele>
        <time>2018-02-21T10:35:30Z</time>
      </trkpt>
      <trkpt lat="44.28727" lon="5.28301">
        <ele>411</ele>
        <time>2018-02-21T10:35:33Z</time>
      </trkpt>
      <trkpt lat="44.28735" lon="5.28297">
        <ele>412</ele>
        <time>2018-02-21T10:35:35Z</time>
      </trkpt>
      <trkpt lat="44.28748" lon="5.28289">
        <ele>411</ele>
        <time>2018-02-21T10:35:38Z</time>
      </trkpt>
      <trkpt lat="44.28761" lon="5.28281">
        <ele>411</ele>
        <time>2018-02-21T10:35:41Z</time>
      </trkpt>
      <trkpt lat="44.2877" lon="5.28276">
        <ele>411</ele>
        <time>2018-02-21T10:35:43Z</time>
      </trkpt>
      <trkpt lat="44.28779" lon="5.28271">
        <ele>412</ele>
        <time>2018-02-21T10:35:45Z</time>
      </trkpt>
      <trkpt lat="44.28792" lon="5.28264">
        <ele>411</ele>
        <time>2018-02-21T10:35:48Z</time>
      </trkpt>
      <trkpt lat="44.28801" lon="5.28259">
        <ele>410</ele>
        <time>2018-02-21T10:35:50Z</time>
      </trkpt>
      <trkpt lat="44.28816" lon="5.28251">
        <ele>409</ele>
        <time>2018-02-21T10:35:53Z</time>
      </trkpt>
      <trkpt lat="44.28831" lon="5.28243">
        <ele>410</ele>
        <time>2018-02-21T10:35:56Z</time>
      </trkpt>
      <trkpt lat="44.28846" lon="5.28235">
        <ele>411</ele>
        <time>2018-02-21T10:35:59Z</time>
      </trkpt>
      <trkpt lat="44.28856" lon="5.28229">
        <ele>411</ele>
        <time>2018-02-21T10:36:01Z</time>
      </trkpt>
      <trkpt lat="44.28871" lon="5.28222">
        <ele>410</ele>
        <time>2018-02-21T10:36:04Z</time>
      </trkpt>
      <trkpt lat="44.28881" lon="5.28216">
        <ele>410</ele>
        <time>2018-02-21T10:36:06Z</time>
      </trkpt>
      <trkpt lat="44.28895" lon="5.28209">
        <ele>409</ele>
        <time>2018-02-21T10:36:09Z</time>
      </trkpt>
      <trkpt lat="44.28904" lon="5.28204">
        <ele>409</ele>
        <time>2018-02-21T10:36:11Z</time>
      </trkpt>
      <trkpt lat="44.28913" lon="5.28199">
        <ele>409</ele>
        <time>2018-02-21T10:36:13Z</time>
      </trkpt>
      <trkpt lat="44.28922" lon="5.28194">
        <ele>409</ele>
        <time>2018-02-21T10:36:15Z</time>
      </trkpt>
      <trkpt lat="44.28936" lon="5.28186">
        <ele>410</ele>
        <time>2018-02-21T10:36:18Z</time>
      </trkpt>
      <trkpt lat="44.28945" lon="5.28182">
        <ele>410</ele>
        <time>2018-02-21T10:36:20Z</time>
      </trkpt>
      <trkpt lat="44.28954" lon="5.28177">
        <ele>410</ele>
        <time>2018-02-21T10:36:22Z</time>
      </trkpt>
      <trkpt lat="44.28963" lon="5.28172">
        <ele>411</ele>
        <time>2018-02-21T10:36:24Z</time>
      </trkpt>
      <trkpt lat="44.28976" lon="5.28165">
        <ele>412</ele>
        <time>2018-02-21T10:36:27Z</time>
      </trkpt>
      <trkpt lat="44.28984" lon="5.28161">
        <ele>412</ele>
        <time>2018-02-21T10:36:29Z</time>
      </trkpt>
      <trkpt lat="44.28993" lon="5.28158">
        <ele>412</ele>
        <time>2018-02-21T10:36:31Z</time>
      </trkpt>
      <trkpt lat="44.29007" lon="5.28152">
        <ele>412</ele>
        <time>2018-02-21T10:36:34Z</time>
      </trkpt>
      <trkpt lat="44.29015" lon="5.28148">
        <ele>412</ele>
        <time>2018-02-21T10:36:36Z</time>
      </trkpt>
      <trkpt lat="44.29024" lon="5.28144">
        <ele>411</ele>
        <time>2018-02-21T10:36:38Z</time>
      </trkpt>
      <trkpt lat="44.29033" lon="5.28139">
        <ele>411</ele>
        <time>2018-02-21T10:36:40Z</time>
      </trkpt>
      <trkpt lat="44.29046" lon="5.28132">
        <ele>412</ele>
        <time>2018-02-21T10:36:43Z</time>
      </trkpt>
      <trkpt lat="44.29055" lon="5.28127">
        <ele>412</ele>
        <time>2018-02-21T10:36:45Z</time>
      </trkpt>
      <trkpt lat="44.2907" lon="5.28121">
        <ele>412</ele>
        <time>2018-02-21T10:36:48Z</time>
      </trkpt>
      <trkpt lat="44.2908" lon="5.28118">
        <ele>412</ele>
        <time>2018-02-21T10:36:50Z</time>
      </trkpt>
      <trkpt lat="44.2909" lon="5.28116">
        <ele>412</ele>
        <time>2018-02-21T10:36:52Z</time>
      </trkpt>
      <trkpt lat="44.29104" lon="5.28114">
        <ele>412</ele>
        <time>2018-02-21T10:36:55Z</time>
      </trkpt>
      <trkpt lat="44.29114" lon="5.28113">
        <ele>412</ele>
        <time>2018-02-21T10:36:57Z</time>
      </trkpt>
      <trkpt lat="44.29129" lon="5.28109">
        <ele>412</ele>
        <time>2018-02-21T10:37:00Z</time>
      </trkpt>
      <trkpt lat="44.29138" lon="5.28106">
        <ele>412</ele>
        <time>2018-02-21T10:37:02Z</time>
      </trkpt>
      <trkpt lat="44.29147" lon="5.28102">
        <ele>413</ele>
        <time>2018-02-21T10:37:04Z</time>
      </trkpt>
      <trkpt lat="44.29156" lon="5.28097">
        <ele>413</ele>
        <time>2018-02-21T10:37:06Z</time>
      </trkpt>
      <trkpt lat="44.29169" lon="5.28091">
        <ele>413</ele>
        <time>2018-02-21T10:37:09Z</time>
      </trkpt>
      <trkpt lat="44.29179" lon="5.28088">
        <ele>413</ele>
        <time>2018-02-21T10:37:11Z</time>
      </trkpt>
      <trkpt lat="44.29188" lon="5.28086">
        <ele>414</ele>
        <time>2018-02-21T10:37:13Z</time>
      </trkpt>
      <trkpt lat="44.29198" lon="5.28083">
        <ele>414</ele>
        <time>2018-02-21T10:37:15Z</time>
      </trkpt>
      <trkpt lat="44.29212" lon="5.28081">
        <ele>414</ele>
        <time>2018-02-21T10:37:18Z</time>
      </trkpt>
      <trkpt lat="44.29226" lon="5.28079">
        <ele>415</ele>
        <time>2018-02-21T10:37:21Z</time>
      </trkpt>
      <trkpt lat="44.29236" lon="5.28076">
        <ele>415</ele>
        <time>2018-02-21T10:37:23Z</time>
      </trkpt>
      <trkpt lat="44.29245" lon="5.28072">
        <ele>414</ele>
        <time>2018-02-21T10:37:25Z</time>
      </trkpt>
      <trkpt lat="44.29255" lon="5.28067">
        <ele>414</ele>
        <time>2018-02-21T10:37:27Z</time>
      </trkpt>
      <trkpt lat="44.29268" lon="5.28059">
        <ele>414</ele>
        <time>2018-02-21T10:37:30Z</time>
      </trkpt>
      <trkpt lat="44.29277" lon="5.28054">
        <ele>415</ele>
        <time>2018-02-21T10:37:32Z</time>
      </trkpt>
      <trkpt lat="44.2929" lon="5.28047">
        <ele>415</ele>
        <time>2018-02-21T10:37:35Z</time>
      </trkpt>
      <trkpt lat="44.29299" lon="5.28042">
        <ele>416</ele>
        <time>2018-02-21T10:37:37Z</time>
      </trkpt>
      <trkpt lat="44.29312" lon="5.28034">
        <ele>416</ele>
        <time>2018-02-21T10:37:40Z</time>
      </trkpt>
      <trkpt lat="44.2932" lon="5.28029">
        <ele>416</ele>
        <time>2018-02-21T10:37:42Z</time>
      </trkpt>
      <trkpt lat="44.29332" lon="5.28022">
        <ele>417</ele>
        <time>2018-02-21T10:37:45Z</time>
      </trkpt>
      <trkpt lat="44.29344" lon="5.28015">
        <ele>419</ele>
        <time>2018-02-21T10:37:48Z</time>
      </trkpt>
      <trkpt lat="44.29352" lon="5.28011">
        <ele>419</ele>
        <time>2018-02-21T10:37:50Z</time>
      </trkpt>
      <trkpt lat="44.29359" lon="5.28008">
        <ele>420</ele>
        <time>2018-02-21T10:37:52Z</time>
      </trkpt>
      <trkpt lat="44.29371" lon="5.28009">
        <ele>421</ele>
        <time>2018-02-21T10:37:55Z</time>
      </trkpt>
      <trkpt lat="44.29382" lon="5.28015">
        <ele>422</ele>
        <time>2018-02-21T10:37:58Z</time>
      </trkpt>
      <trkpt lat="44.29393" lon="5.28023">
        <ele>423</ele>
        <time>2018-02-21T10:38:01Z</time>
      </trkpt>
      <trkpt lat="44.29406" lon="5.28031">
        <ele>423</ele>
        <time>2018-02-21T10:38:04Z</time>
      </trkpt>
      <trkpt lat="44.29418" lon="5.28041">
        <ele>423</ele>
        <time>2018-02-21T10:38:07Z</time>
      </trkpt>
      <trkpt lat="44.29429" lon="5.28055">
        <ele>423</ele>
        <time>2018-02-21T10:38:10Z</time>
      </trkpt>
      <trkpt lat="44.29433" lon="5.28066">
        <ele>422</ele>
        <time>2018-02-21T10:38:12Z</time>
      </trkpt>
      <trkpt lat="44.29439" lon="5.28083">
        <ele>420</ele>
        <time>2018-02-21T10:38:15Z</time>
      </trkpt>
      <trkpt lat="44.29444" lon="5.28094">
        <ele>420</ele>
        <time>2018-02-21T10:38:17Z</time>
      </trkpt>
      <trkpt lat="44.29448" lon="5.28105">
        <ele>420</ele>
        <time>2018-02-21T10:38:19Z</time>
      </trkpt>
      <trkpt lat="44.29454" lon="5.28122">
        <ele>421</ele>
        <time>2018-02-21T10:38:22Z</time>
      </trkpt>
      <trkpt lat="44.29459" lon="5.28139">
        <ele>422</ele>
        <time>2018-02-21T10:38:25Z</time>
      </trkpt>
      <trkpt lat="44.29464" lon="5.28155">
        <ele>422</ele>
        <time>2018-02-21T10:38:28Z</time>
      </trkpt>
      <trkpt lat="44.2947" lon="5.2817">
        <ele>422</ele>
        <time>2018-02-21T10:38:31Z</time>
      </trkpt>
      <trkpt lat="44.2948" lon="5.2818">
        <ele>422</ele>
        <time>2018-02-21T10:38:34Z</time>
      </trkpt>
      <trkpt lat="44.29494" lon="5.28185">
        <ele>421</ele>
        <time>2018-02-21T10:38:37Z</time>
      </trkpt>
      <trkpt lat="44.29508" lon="5.28188">
        <ele>421</ele>
        <time>2018-02-21T10:38:40Z</time>
      </trkpt>
      <trkpt lat="44.29522" lon="5.2819">
        <ele>421</ele>
        <time>2018-02-21T10:38:43Z</time>
      </trkpt>
      <trkpt lat="44.29531" lon="5.28192">
        <ele>421</ele>
        <time>2018-02-21T10:38:45Z</time>
      </trkpt>
      <trkpt lat="44.29539" lon="5.28193">
        <ele>421</ele>
        <time>2018-02-21T10:38:47Z</time>
      </trkpt>
      <trkpt lat="44.29551" lon="5.28195">
        <ele>422</ele>
        <time>2018-02-21T10:38:50Z</time>
      </trkpt>
      <trkpt lat="44.29564" lon="5.28202">
        <ele>422</ele>
        <time>2018-02-21T10:38:53Z</time>
      </trkpt>
      <trkpt lat="44.29575" lon="5.2821">
        <ele>422</ele>
        <time>2018-02-21T10:38:56Z</time>
      </trkpt>
      <trkpt lat="44.29586" lon="5.28219">
        <ele>422</ele>
        <time>2018-02-21T10:38:59Z</time>
      </trkpt>
      <trkpt lat="44.29594" lon="5.28225">
        <ele>422</ele>
        <time>2018-02-21T10:39:01Z</time>
      </trkpt>
      <trkpt lat="44.29604" lon="5.28234">
        <ele>423</ele>
        <time>2018-02-21T10:39:04Z</time>
      </trkpt>
      <trkpt lat="44.29615" lon="5.28242">
        <ele>423</ele>
        <time>2018-02-21T10:39:07Z</time>
      </trkpt>
      <trkpt lat="44.29626" lon="5.28251">
        <ele>423</ele>
        <time>2018-02-21T10:39:10Z</time>
      </trkpt>
      <trkpt lat="44.29633" lon="5.28256">
        <ele>424</ele>
        <time>2018-02-21T10:39:12Z</time>
      </trkpt>
      <trkpt lat="44.29644" lon="5.28264">
        <ele>425</ele>
        <time>2018-02-21T10:39:15Z</time>
      </trkpt>
      <trkpt lat="44.29651" lon="5.28269">
        <ele>425</ele>
        <time>2018-02-21T10:39:17Z</time>
      </trkpt>
      <trkpt lat="44.29661" lon="5.28279">
        <ele>426</ele>
        <time>2018-02-21T10:39:20Z</time>
      </trkpt>
      <trkpt lat="44.2967" lon="5.28291">
        <ele>427</ele>
        <time>2018-02-21T10:39:23Z</time>
      </trkpt>
      <trkpt lat="44.29675" lon="5.28305">
        <ele>427</ele>
        <time>2018-02-21T10:39:26Z</time>
      </trkpt>
      <trkpt lat="44.29678" lon="5.28319">
        <ele>429</ele>
        <time>2018-02-21T10:39:29Z</time>
      </trkpt>
      <trkpt lat="44.2968" lon="5.28333">
        <ele>429</ele>
        <time>2018-02-21T10:39:32Z</time>
      </trkpt>
      <trkpt lat="44.29683" lon="5.28341">
        <ele>430</ele>
        <time>2018-02-21T10:39:34Z</time>
      </trkpt>
      <trkpt lat="44.2969" lon="5.28354">
        <ele>430</ele>
        <time>2018-02-21T10:39:37Z</time>
      </trkpt>
      <trkpt lat="44.29698" lon="5.28365">
        <ele>431</ele>
        <time>2018-02-21T10:39:40Z</time>
      </trkpt>
      <trkpt lat="44.29707" lon="5.28375">
        <ele>431</ele>
        <time>2018-02-21T10:39:43Z</time>
      </trkpt>
      <trkpt lat="44.29716" lon="5.28384">
        <ele>431</ele>
        <time>2018-02-21T10:39:46Z</time>
      </trkpt>
      <trkpt lat="44.29725" lon="5.28394">
        <ele>432</ele>
        <time>2018-02-21T10:39:49Z</time>
      </trkpt>
      <trkpt lat="44.29735" lon="5.28404">
        <ele>433</ele>
        <time>2018-02-21T10:39:52Z</time>
      </trkpt>
      <trkpt lat="44.29741" lon="5.28411">
        <ele>434</ele>
        <time>2018-02-21T10:39:54Z</time>
      </trkpt>
      <trkpt lat="44.29747" lon="5.28418">
        <ele>434</ele>
        <time>2018-02-21T10:39:56Z</time>
      </trkpt>
      <trkpt lat="44.29755" lon="5.28429">
        <ele>434</ele>
        <time>2018-02-21T10:39:59Z</time>
      </trkpt>
      <trkpt lat="44.29764" lon="5.28439">
        <ele>435</ele>
        <time>2018-02-21T10:40:02Z</time>
      </trkpt>
      <trkpt lat="44.2977" lon="5.28445">
        <ele>435</ele>
        <time>2018-02-21T10:40:04Z</time>
      </trkpt>
      <trkpt lat="44.29776" lon="5.28452">
        <ele>436</ele>
        <time>2018-02-21T10:40:06Z</time>
      </trkpt>
      <trkpt lat="44.29785" lon="5.28461">
        <ele>436</ele>
        <time>2018-02-21T10:40:09Z</time>
      </trkpt>
      <trkpt lat="44.29794" lon="5.28472">
        <ele>437</ele>
        <time>2018-02-21T10:40:12Z</time>
      </trkpt>
      <trkpt lat="44.29803" lon="5.28481">
        <ele>438</ele>
        <time>2018-02-21T10:40:15Z</time>
      </trkpt>
      <trkpt lat="44.2981" lon="5.28493">
        <ele>438</ele>
        <time>2018-02-21T10:40:18Z</time>
      </trkpt>
      <trkpt lat="44.29818" lon="5.28505">
        <ele>439</ele>
        <time>2018-02-21T10:40:21Z</time>
      </trkpt>
      <trkpt lat="44.29824" lon="5.28513">
        <ele>439</ele>
        <time>2018-02-21T10:40:23Z</time>
      </trkpt>
      <trkpt lat="44.29829" lon="5.2852">
        <ele>439</ele>
        <time>2018-02-21T10:40:25Z</time>
      </trkpt>
      <trkpt lat="44.29838" lon="5.28532">
        <ele>440</ele>
        <time>2018-02-21T10:40:28Z</time>
      </trkpt>
      <trkpt lat="44.29846" lon="5.28544">
        <ele>440</ele>
        <time>2018-02-21T10:40:31Z</time>
      </trkpt>
      <trkpt lat="44.29852" lon="5.28551">
        <ele>440</ele>
        <time>2018-02-21T10:40:33Z</time>
      </trkpt>
      <trkpt lat="44.29859" lon="5.28562">
        <ele>441</ele>
        <time>2018-02-21T10:40:36Z</time>
      </trkpt>
      <trkpt lat="44.29864" lon="5.2857">
        <ele>441</ele>
        <time>2018-02-21T10:40:38Z</time>
      </trkpt>
      <trkpt lat="44.29869" lon="5.28579">
        <ele>441</ele>
        <time>2018-02-21T10:40:40Z</time>
      </trkpt>
      <trkpt lat="44.29877" lon="5.28591">
        <ele>441</ele>
        <time>2018-02-21T10:40:43Z</time>
      </trkpt>
      <trkpt lat="44.29882" lon="5.28599">
        <ele>442</ele>
        <time>2018-02-21T10:40:45Z</time>
      </trkpt>
      <trkpt lat="44.29891" lon="5.2861">
        <ele>443</ele>
        <time>2018-02-21T10:40:48Z</time>
      </trkpt>
      <trkpt lat="44.29896" lon="5.28617">
        <ele>443</ele>
        <time>2018-02-21T10:40:50Z</time>
      </trkpt>
      <trkpt lat="44.29904" lon="5.28626">
        <ele>443</ele>
        <time>2018-02-21T10:40:53Z</time>
      </trkpt>
      <trkpt lat="44.29912" lon="5.28633">
        <ele>444</ele>
        <time>2018-02-21T10:40:56Z</time>
      </trkpt>
      <trkpt lat="44.29919" lon="5.28641">
        <ele>444</ele>
        <time>2018-02-21T10:40:59Z</time>
      </trkpt>
      <trkpt lat="44.29924" lon="5.28646">
        <ele>444</ele>
        <time>2018-02-21T10:41:01Z</time>
      </trkpt>
      <trkpt lat="44.29932" lon="5.28653">
        <ele>445</ele>
        <time>2018-02-21T10:41:04Z</time>
      </trkpt>
      <trkpt lat="44.29938" lon="5.28659">
        <ele>445</ele>
        <time>2018-02-21T10:41:07Z</time>
      </trkpt>
      <trkpt lat="44.29945" lon="5.28666">
        <ele>445</ele>
        <time>2018-02-21T10:41:10Z</time>
      </trkpt>
      <trkpt lat="44.2995" lon="5.28674">
        <ele>446</ele>
        <time>2018-02-21T10:41:13Z</time>
      </trkpt>
      <trkpt lat="44.29957" lon="5.28682">
        <ele>446</ele>
        <time>2018-02-21T10:41:16Z</time>
      </trkpt>
      <trkpt lat="44.29961" lon="5.28687">
        <ele>447</ele>
        <time>2018-02-21T10:41:18Z</time>
      </trkpt>
      <trkpt lat="44.29966" lon="5.28696">
        <ele>447</ele>
        <time>2018-02-21T10:41:21Z</time>
      </trkpt>
      <trkpt lat="44.29971" lon="5.28706">
        <ele>448</ele>
        <time>2018-02-21T10:41:24Z</time>
      </trkpt>
      <trkpt lat="44.29974" lon="5.28713">
        <ele>448</ele>
        <time>2018-02-21T10:41:26Z</time>
      </trkpt>
      <trkpt lat="44.29978" lon="5.28723">
        <ele>448</ele>
        <time>2018-02-21T10:41:29Z</time>
      </trkpt>
      <trkpt lat="44.29981" lon="5.2873">
        <ele>449</ele>
        <time>2018-02-21T10:41:31Z</time>
      </trkpt>
      <trkpt lat="44.29985" lon="5.28743">
        <ele>450</ele>
        <time>2018-02-21T10:41:34Z</time>
      </trkpt>
      <trkpt lat="44.2999" lon="5.28755">
        <ele>450</ele>
        <time>2018-02-21T10:41:37Z</time>
      </trkpt>
      <trkpt lat="44.29996" lon="5.28767">
        <ele>450</ele>
        <time>2018-02-21T10:41:40Z</time>
      </trkpt>
      <trkpt lat="44.30001" lon="5.28775">
        <ele>450</ele>
        <time>2018-02-21T10:41:42Z</time>
      </trkpt>
      <trkpt lat="44.30008" lon="5.28786">
        <ele>451</ele>
        <time>2018-02-21T10:41:45Z</time>
      </trkpt>
      <trkpt lat="44.30012" lon="5.28793">
        <ele>451</ele>
        <time>2018-02-21T10:41:47Z</time>
      </trkpt>
      <trkpt lat="44.30016" lon="5.28802">
        <ele>452</ele>
        <time>2018-02-21T10:41:49Z</time>
      </trkpt>
      <trkpt lat="44.3002" lon="5.28818">
        <ele>452</ele>
        <time>2018-02-21T10:41:52Z</time>
      </trkpt>
      <trkpt lat="44.30022" lon="5.28832">
        <ele>453</ele>
        <time>2018-02-21T10:41:55Z</time>
      </trkpt>
      <trkpt lat="44.30023" lon="5.28844">
        <ele>453</ele>
        <time>2018-02-21T10:41:58Z</time>
      </trkpt>
      <trkpt lat="44.30024" lon="5.28853">
        <ele>453</ele>
        <time>2018-02-21T10:42:01Z</time>
      </trkpt>
      <trkpt lat="44.30024" lon="5.28856">
        <ele>454</ele>
        <time>2018-02-21T10:42:04Z</time>
      </trkpt>
      <trkpt lat="44.30024" lon="5.28856">
        <ele>454</ele>
        <time>2018-02-21T10:42:06Z</time>
      </trkpt>
      <trkpt lat="44.30024" lon="5.28856">
        <ele>454</ele>
        <time>2018-02-21T10:42:09Z</time>
      </trkpt>
      <trkpt lat="44.30024" lon="5.28856">
        <ele>454</ele>
        <time>2018-02-21T10:42:16Z</time>
      </trkpt>
      <trkpt lat="44.30024" lon="5.28856">
        <ele>454</ele>
        <time>2018-02-21T10:42:19Z</time>
      </trkpt>
      <trkpt lat="44.30024" lon="5.28855">
        <ele>454</ele>
        <time>2018-02-21T10:42:21Z</time>
      </trkpt>
      <trkpt lat="44.30024" lon="5.28855">
        <ele>454</ele>
        <time>2018-02-21T10:42:23Z</time>
      </trkpt>
      <trkpt lat="44.30024" lon="5.28854">
        <ele>454</ele>
        <time>2018-02-21T10:42:26Z</time>
      </trkpt>
      <trkpt lat="44.30024" lon="5.28854">
        <ele>454</ele>
        <time>2018-02-21T10:42:28Z</time>
      </trkpt>
      <trkpt lat="44.30024" lon="5.28853">
        <ele>454</ele>
        <time>2018-02-21T10:42:30Z</time>
      </trkpt>
      <trkpt lat="44.30024" lon="5.28853">
        <ele>454</ele>
        <time>2018-02-21T10:42:38Z</time>
      </trkpt>
      <trkpt lat="44.30024" lon="5.28853">
        <ele>454</ele>
        <time>2018-02-21T10:42:41Z</time>
      </trkpt>
      <trkpt lat="44.30024" lon="5.28853">
        <ele>454</ele>
        <time>2018-02-21T10:42:43Z</time>
      </trkpt>
      <trkpt lat="44.30024" lon="5.28854">
        <ele>454</ele>
        <time>2018-02-21T10:42:45Z</time>
      </trkpt>
      <trkpt lat="44.30024" lon="5.28854">
        <ele>454</ele>
        <time>2018-02-21T10:42:47Z</time>
      </trkpt>
      <trkpt lat="44.30024" lon="5.28854">
        <ele>455</ele>
        <time>2018-02-21T10:42:50Z</time>
      </trkpt>
      <trkpt lat="44.30024" lon="5.28854">
        <ele>455</ele>
        <time>2018-02-21T10:42:52Z</time>
      </trkpt>
      <trkpt lat="44.30023" lon="5.28855">
        <ele>455</ele>
        <time>2018-02-21T10:42:55Z</time>
      </trkpt>
      <trkpt lat="44.30023" lon="5.28855">
        <ele>454</ele>
        <time>2018-02-21T10:42:57Z</time>
      </trkpt>
      <trkpt lat="44.30024" lon="5.28856">
        <ele>454</ele>
        <time>2018-02-21T10:42:59Z</time>
      </trkpt>
      <trkpt lat="44.30025" lon="5.28859">
        <ele>454</ele>
        <time>2018-02-21T10:43:01Z</time>
      </trkpt>
      <trkpt lat="44.30025" lon="5.28862">
        <ele>453</ele>
        <time>2018-02-21T10:43:03Z</time>
      </trkpt>
      <trkpt lat="44.30027" lon="5.28867">
        <ele>454</ele>
        <time>2018-02-21T10:43:05Z</time>
      </trkpt>
      <trkpt lat="44.30029" lon="5.28873">
        <ele>454</ele>
        <time>2018-02-21T10:43:07Z</time>
      </trkpt>
      <trkpt lat="44.3003" lon="5.28884">
        <ele>454</ele>
        <time>2018-02-21T10:43:10Z</time>
      </trkpt>
      <trkpt lat="44.3003" lon="5.28895">
        <ele>455</ele>
        <time>2018-02-21T10:43:13Z</time>
      </trkpt>
      <trkpt lat="44.30031" lon="5.28903">
        <ele>455</ele>
        <time>2018-02-21T10:43:15Z</time>
      </trkpt>
      <trkpt lat="44.30032" lon="5.28917">
        <ele>456</ele>
        <time>2018-02-21T10:43:18Z</time>
      </trkpt>
      <trkpt lat="44.30035" lon="5.28931">
        <ele>456</ele>
        <time>2018-02-21T10:43:21Z</time>
      </trkpt>
      <trkpt lat="44.30038" lon="5.28945">
        <ele>457</ele>
        <time>2018-02-21T10:43:24Z</time>
      </trkpt>
      <trkpt lat="44.30039" lon="5.28954">
        <ele>457</ele>
        <time>2018-02-21T10:43:26Z</time>
      </trkpt>
      <trkpt lat="44.3004" lon="5.28968">
        <ele>458</ele>
        <time>2018-02-21T10:43:29Z</time>
      </trkpt>
      <trkpt lat="44.30041" lon="5.28978">
        <ele>459</ele>
        <time>2018-02-21T10:43:31Z</time>
      </trkpt>
      <trkpt lat="44.30042" lon="5.28995">
        <ele>460</ele>
        <time>2018-02-21T10:43:34Z</time>
      </trkpt>
      <trkpt lat="44.30043" lon="5.29011">
        <ele>460</ele>
        <time>2018-02-21T10:43:37Z</time>
      </trkpt>
      <trkpt lat="44.30045" lon="5.29027">
        <ele>460</ele>
        <time>2018-02-21T10:43:40Z</time>
      </trkpt>
      <trkpt lat="44.30046" lon="5.29044">
        <ele>461</ele>
        <time>2018-02-21T10:43:43Z</time>
      </trkpt>
      <trkpt lat="44.30048" lon="5.2906">
        <ele>462</ele>
        <time>2018-02-21T10:43:46Z</time>
      </trkpt>
      <trkpt lat="44.30053" lon="5.29076">
        <ele>462</ele>
        <time>2018-02-21T10:43:49Z</time>
      </trkpt>
      <trkpt lat="44.30058" lon="5.29085">
        <ele>462</ele>
        <time>2018-02-21T10:43:51Z</time>
      </trkpt>
      <trkpt lat="44.30065" lon="5.29098">
        <ele>461</ele>
        <time>2018-02-21T10:43:54Z</time>
      </trkpt>
      <trkpt lat="44.3007" lon="5.29107">
        <ele>462</ele>
        <time>2018-02-21T10:43:56Z</time>
      </trkpt>
      <trkpt lat="44.30078" lon="5.29121">
        <ele>461</ele>
        <time>2018-02-21T10:43:59Z</time>
      </trkpt>
      <trkpt lat="44.30085" lon="5.29136">
        <ele>462</ele>
        <time>2018-02-21T10:44:02Z</time>
      </trkpt>
      <trkpt lat="44.3009" lon="5.29147">
        <ele>463</ele>
        <time>2018-02-21T10:44:04Z</time>
      </trkpt>
      <trkpt lat="44.30095" lon="5.29164">
        <ele>464</ele>
        <time>2018-02-21T10:44:07Z</time>
      </trkpt>
      <trkpt lat="44.30098" lon="5.29174">
        <ele>465</ele>
        <time>2018-02-21T10:44:09Z</time>
      </trkpt>
      <trkpt lat="44.30106" lon="5.29188">
        <ele>465</ele>
        <time>2018-02-21T10:44:12Z</time>
      </trkpt>
      <trkpt lat="44.30112" lon="5.29195">
        <ele>466</ele>
        <time>2018-02-21T10:44:14Z</time>
      </trkpt>
      <trkpt lat="44.30124" lon="5.29204">
        <ele>465</ele>
        <time>2018-02-21T10:44:17Z</time>
      </trkpt>
      <trkpt lat="44.30131" lon="5.29211">
        <ele>465</ele>
        <time>2018-02-21T10:44:19Z</time>
      </trkpt>
      <trkpt lat="44.3014" lon="5.29223">
        <ele>466</ele>
        <time>2018-02-21T10:44:22Z</time>
      </trkpt>
      <trkpt lat="44.30146" lon="5.29232">
        <ele>466</ele>
        <time>2018-02-21T10:44:24Z</time>
      </trkpt>
      <trkpt lat="44.30151" lon="5.2924">
        <ele>467</ele>
        <time>2018-02-21T10:44:26Z</time>
      </trkpt>
      <trkpt lat="44.30156" lon="5.29254">
        <ele>468</ele>
        <time>2018-02-21T10:44:29Z</time>
      </trkpt>
      <trkpt lat="44.30157" lon="5.29268">
        <ele>469</ele>
        <time>2018-02-21T10:44:32Z</time>
      </trkpt>
      <trkpt lat="44.30156" lon="5.2928">
        <ele>469</ele>
        <time>2018-02-21T10:44:35Z</time>
      </trkpt>
      <trkpt lat="44.30155" lon="5.29287">
        <ele>470</ele>
        <time>2018-02-21T10:44:37Z</time>
      </trkpt>
      <trkpt lat="44.30152" lon="5.29295">
        <ele>470</ele>
        <time>2018-02-21T10:44:39Z</time>
      </trkpt>
      <trkpt lat="44.30148" lon="5.29306">
        <ele>471</ele>
        <time>2018-02-21T10:44:42Z</time>
      </trkpt>
      <trkpt lat="44.30143" lon="5.29318">
        <ele>471</ele>
        <time>2018-02-21T10:44:45Z</time>
      </trkpt>
      <trkpt lat="44.30141" lon="5.29326">
        <ele>471</ele>
        <time>2018-02-21T10:44:47Z</time>
      </trkpt>
      <trkpt lat="44.30137" lon="5.29334">
        <ele>471</ele>
        <time>2018-02-21T10:44:49Z</time>
      </trkpt>
      <trkpt lat="44.30132" lon="5.29346">
        <ele>471</ele>
        <time>2018-02-21T10:44:52Z</time>
      </trkpt>
      <trkpt lat="44.30127" lon="5.29357">
        <ele>471</ele>
        <time>2018-02-21T10:44:55Z</time>
      </trkpt>
      <trkpt lat="44.30123" lon="5.29367">
        <ele>471</ele>
        <time>2018-02-21T10:44:58Z</time>
      </trkpt>
      <trkpt lat="44.3012" lon="5.29375">
        <ele>472</ele>
        <time>2018-02-21T10:45:00Z</time>
      </trkpt>
      <trkpt lat="44.30117" lon="5.29386">
        <ele>472</ele>
        <time>2018-02-21T10:45:03Z</time>
      </trkpt>
      <trkpt lat="44.30115" lon="5.29394">
        <ele>472</ele>
        <time>2018-02-21T10:45:05Z</time>
      </trkpt>
      <trkpt lat="44.30113" lon="5.29406">
        <ele>473</ele>
        <time>2018-02-21T10:45:08Z</time>
      </trkpt>
      <trkpt lat="44.30111" lon="5.29418">
        <ele>473</ele>
        <time>2018-02-21T10:45:11Z</time>
      </trkpt>
      <trkpt lat="44.3011" lon="5.29431">
        <ele>474</ele>
        <time>2018-02-21T10:45:14Z</time>
      </trkpt>
      <trkpt lat="44.30109" lon="5.29444">
        <ele>475</ele>
        <time>2018-02-21T10:45:17Z</time>
      </trkpt>
      <trkpt lat="44.30108" lon="5.29457">
        <ele>476</ele>
        <time>2018-02-21T10:45:20Z</time>
      </trkpt>
      <trkpt lat="44.30107" lon="5.29471">
        <ele>477</ele>
        <time>2018-02-21T10:45:23Z</time>
      </trkpt>
      <trkpt lat="44.30106" lon="5.2948">
        <ele>477</ele>
        <time>2018-02-21T10:45:25Z</time>
      </trkpt>
      <trkpt lat="44.30106" lon="5.29489">
        <ele>478</ele>
        <time>2018-02-21T10:45:27Z</time>
      </trkpt>
      <trkpt lat="44.30109" lon="5.29503">
        <ele>478</ele>
        <time>2018-02-21T10:45:30Z</time>
      </trkpt>
      <trkpt lat="44.30113" lon="5.29517">
        <ele>478</ele>
        <time>2018-02-21T10:45:33Z</time>
      </trkpt>
      <trkpt lat="44.30119" lon="5.2953">
        <ele>478</ele>
        <time>2018-02-21T10:45:36Z</time>
      </trkpt>
      <trkpt lat="44.30125" lon="5.29542">
        <ele>478</ele>
        <time>2018-02-21T10:45:39Z</time>
      </trkpt>
      <trkpt lat="44.30133" lon="5.29554">
        <ele>479</ele>
        <time>2018-02-21T10:45:42Z</time>
      </trkpt>
      <trkpt lat="44.30138" lon="5.29561">
        <ele>479</ele>
        <time>2018-02-21T10:45:44Z</time>
      </trkpt>
      <trkpt lat="44.30144" lon="5.29567">
        <ele>479</ele>
        <time>2018-02-21T10:45:46Z</time>
      </trkpt>
      <trkpt lat="44.30149" lon="5.29574">
        <ele>480</ele>
        <time>2018-02-21T10:45:48Z</time>
      </trkpt>
      <trkpt lat="44.30153" lon="5.29583">
        <ele>480</ele>
        <time>2018-02-21T10:45:50Z</time>
      </trkpt>
      <trkpt lat="44.30157" lon="5.29598">
        <ele>480</ele>
        <time>2018-02-21T10:45:53Z</time>
      </trkpt>
      <trkpt lat="44.30159" lon="5.29607">
        <ele>481</ele>
        <time>2018-02-21T10:45:55Z</time>
      </trkpt>
      <trkpt lat="44.30161" lon="5.29618">
        <ele>481</ele>
        <time>2018-02-21T10:45:57Z</time>
      </trkpt>
      <trkpt lat="44.30162" lon="5.29627">
        <ele>482</ele>
        <time>2018-02-21T10:45:59Z</time>
      </trkpt>
      <trkpt lat="44.30163" lon="5.29637">
        <ele>482</ele>
        <time>2018-02-21T10:46:01Z</time>
      </trkpt>
      <trkpt lat="44.30164" lon="5.29647">
        <ele>483</ele>
        <time>2018-02-21T10:46:03Z</time>
      </trkpt>
      <trkpt lat="44.30166" lon="5.29657">
        <ele>483</ele>
        <time>2018-02-21T10:46:05Z</time>
      </trkpt>
      <trkpt lat="44.30168" lon="5.29672">
        <ele>483</ele>
        <time>2018-02-21T10:46:08Z</time>
      </trkpt>
      <trkpt lat="44.3017" lon="5.29683">
        <ele>484</ele>
        <time>2018-02-21T10:46:10Z</time>
      </trkpt>
      <trkpt lat="44.30172" lon="5.29693">
        <ele>484</ele>
        <time>2018-02-21T10:46:12Z</time>
      </trkpt>
      <trkpt lat="44.30175" lon="5.29709">
        <ele>484</ele>
        <time>2018-02-21T10:46:15Z</time>
      </trkpt>
      <trkpt lat="44.30177" lon="5.29724">
        <ele>485</ele>
        <time>2018-02-21T10:46:18Z</time>
      </trkpt>
      <trkpt lat="44.30179" lon="5.29735">
        <ele>485</ele>
        <time>2018-02-21T10:46:20Z</time>
      </trkpt>
      <trkpt lat="44.30182" lon="5.29751">
        <ele>485</ele>
        <time>2018-02-21T10:46:23Z</time>
      </trkpt>
      <trkpt lat="44.30184" lon="5.29761">
        <ele>486</ele>
        <time>2018-02-21T10:46:25Z</time>
      </trkpt>
      <trkpt lat="44.30186" lon="5.29772">
        <ele>486</ele>
        <time>2018-02-21T10:46:27Z</time>
      </trkpt>
      <trkpt lat="44.3019" lon="5.29781">
        <ele>486</ele>
        <time>2018-02-21T10:46:29Z</time>
      </trkpt>
      <trkpt lat="44.30195" lon="5.29796">
        <ele>487</ele>
        <time>2018-02-21T10:46:32Z</time>
      </trkpt>
      <trkpt lat="44.30202" lon="5.29811">
        <ele>487</ele>
        <time>2018-02-21T10:46:35Z</time>
      </trkpt>
      <trkpt lat="44.30207" lon="5.2982">
        <ele>487</ele>
        <time>2018-02-21T10:46:37Z</time>
      </trkpt>
      <trkpt lat="44.30216" lon="5.29832">
        <ele>487</ele>
        <time>2018-02-21T10:46:40Z</time>
      </trkpt>
      <trkpt lat="44.30225" lon="5.29844">
        <ele>487</ele>
        <time>2018-02-21T10:46:43Z</time>
      </trkpt>
      <trkpt lat="44.30235" lon="5.29855">
        <ele>488</ele>
        <time>2018-02-21T10:46:46Z</time>
      </trkpt>
      <trkpt lat="44.30241" lon="5.29862">
        <ele>488</ele>
        <time>2018-02-21T10:46:48Z</time>
      </trkpt>
      <trkpt lat="44.30251" lon="5.29875">
        <ele>489</ele>
        <time>2018-02-21T10:46:51Z</time>
      </trkpt>
      <trkpt lat="44.30256" lon="5.29892">
        <ele>490</ele>
        <time>2018-02-21T10:46:54Z</time>
      </trkpt>
      <trkpt lat="44.30256" lon="5.29904">
        <ele>490</ele>
        <time>2018-02-21T10:46:56Z</time>
      </trkpt>
      <trkpt lat="44.30255" lon="5.29916">
        <ele>490</ele>
        <time>2018-02-21T10:46:58Z</time>
      </trkpt>
      <trkpt lat="44.30252" lon="5.29933">
        <ele>490</ele>
        <time>2018-02-21T10:47:01Z</time>
      </trkpt>
      <trkpt lat="44.30248" lon="5.2995">
        <ele>490</ele>
        <time>2018-02-21T10:47:04Z</time>
      </trkpt>
      <trkpt lat="44.30242" lon="5.29967">
        <ele>490</ele>
        <time>2018-02-21T10:47:07Z</time>
      </trkpt>
      <trkpt lat="44.30235" lon="5.29982">
        <ele>491</ele>
        <time>2018-02-21T10:47:10Z</time>
      </trkpt>
      <trkpt lat="44.30229" lon="5.29998">
        <ele>491</ele>
        <time>2018-02-21T10:47:13Z</time>
      </trkpt>
      <trkpt lat="44.30223" lon="5.30014">
        <ele>492</ele>
        <time>2018-02-21T10:47:16Z</time>
      </trkpt>
      <trkpt lat="44.30215" lon="5.30028">
        <ele>492</ele>
        <time>2018-02-21T10:47:19Z</time>
      </trkpt>
      <trkpt lat="44.30209" lon="5.30037">
        <ele>492</ele>
        <time>2018-02-21T10:47:21Z</time>
      </trkpt>
      <trkpt lat="44.30202" lon="5.30045">
        <ele>492</ele>
        <time>2018-02-21T10:47:23Z</time>
      </trkpt>
      <trkpt lat="44.30196" lon="5.30053">
        <ele>493</ele>
        <time>2018-02-21T10:47:25Z</time>
      </trkpt>
      <trkpt lat="44.30189" lon="5.3006">
        <ele>493</ele>
        <time>2018-02-21T10:47:27Z</time>
      </trkpt>
      <trkpt lat="44.30179" lon="5.30072">
        <ele>493</ele>
        <time>2018-02-21T10:47:30Z</time>
      </trkpt>
      <trkpt lat="44.30174" lon="5.30081">
        <ele>493</ele>
        <time>2018-02-21T10:47:32Z</time>
      </trkpt>
      <trkpt lat="44.30168" lon="5.30099">
        <ele>493</ele>
        <time>2018-02-21T10:47:35Z</time>
      </trkpt>
      <trkpt lat="44.30164" lon="5.30118">
        <ele>493</ele>
        <time>2018-02-21T10:47:38Z</time>
      </trkpt>
      <trkpt lat="44.30163" lon="5.30138">
        <ele>493</ele>
        <time>2018-02-21T10:47:41Z</time>
      </trkpt>
      <trkpt lat="44.30165" lon="5.3016">
        <ele>493</ele>
        <time>2018-02-21T10:47:44Z</time>
      </trkpt>
      <trkpt lat="44.30167" lon="5.30183">
        <ele>493</ele>
        <time>2018-02-21T10:47:47Z</time>
      </trkpt>
      <trkpt lat="44.30168" lon="5.30198">
        <ele>493</ele>
        <time>2018-02-21T10:47:49Z</time>
      </trkpt>
      <trkpt lat="44.30168" lon="5.30215">
        <ele>493</ele>
        <time>2018-02-21T10:47:51Z</time>
      </trkpt>
      <trkpt lat="44.30166" lon="5.30241">
        <ele>493</ele>
        <time>2018-02-21T10:47:54Z</time>
      </trkpt>
      <trkpt lat="44.30166" lon="5.30258">
        <ele>493</ele>
        <time>2018-02-21T10:47:56Z</time>
      </trkpt>
      <trkpt lat="44.30169" lon="5.30283">
        <ele>493</ele>
        <time>2018-02-21T10:47:59Z</time>
      </trkpt>
      <trkpt lat="44.30175" lon="5.30308">
        <ele>492</ele>
        <time>2018-02-21T10:48:02Z</time>
      </trkpt>
      <trkpt lat="44.3018" lon="5.30334">
        <ele>493</ele>
        <time>2018-02-21T10:48:05Z</time>
      </trkpt>
      <trkpt lat="44.30186" lon="5.30362">
        <ele>492</ele>
        <time>2018-02-21T10:48:08Z</time>
      </trkpt>
      <trkpt lat="44.30189" lon="5.30392">
        <ele>493</ele>
        <time>2018-02-21T10:48:11Z</time>
      </trkpt>
      <trkpt lat="44.30187" lon="5.30413">
        <ele>493</ele>
        <time>2018-02-21T10:48:13Z</time>
      </trkpt>
      <trkpt lat="44.30182" lon="5.30432">
        <ele>493</ele>
        <time>2018-02-21T10:48:15Z</time>
      </trkpt>
      <trkpt lat="44.30173" lon="5.30458">
        <ele>494</ele>
        <time>2018-02-21T10:48:18Z</time>
      </trkpt>
      <trkpt lat="44.30169" lon="5.30484">
        <ele>494</ele>
        <time>2018-02-21T10:48:21Z</time>
      </trkpt>
      <trkpt lat="44.30169" lon="5.30502">
        <ele>494</ele>
        <time>2018-02-21T10:48:23Z</time>
      </trkpt>
      <trkpt lat="44.30167" lon="5.30528">
        <ele>494</ele>
        <time>2018-02-21T10:48:26Z</time>
      </trkpt>
      <trkpt lat="44.3016" lon="5.30553">
        <ele>492</ele>
        <time>2018-02-21T10:48:29Z</time>
      </trkpt>
      <trkpt lat="44.30152" lon="5.30576">
        <ele>491</ele>
        <time>2018-02-21T10:48:32Z</time>
      </trkpt>
      <trkpt lat="44.30141" lon="5.30598">
        <ele>491</ele>
        <time>2018-02-21T10:48:35Z</time>
      </trkpt>
      <trkpt lat="44.30133" lon="5.30612">
        <ele>491</ele>
        <time>2018-02-21T10:48:37Z</time>
      </trkpt>
      <trkpt lat="44.30123" lon="5.30637">
        <ele>491</ele>
        <time>2018-02-21T10:48:40Z</time>
      </trkpt>
      <trkpt lat="44.30121" lon="5.30655">
        <ele>492</ele>
        <time>2018-02-21T10:48:42Z</time>
      </trkpt>
      <trkpt lat="44.3012" lon="5.30683">
        <ele>492</ele>
        <time>2018-02-21T10:48:45Z</time>
      </trkpt>
      <trkpt lat="44.30116" lon="5.30701">
        <ele>492</ele>
        <time>2018-02-21T10:48:47Z</time>
      </trkpt>
      <trkpt lat="44.30102" lon="5.30719">
        <ele>490</ele>
        <time>2018-02-21T10:48:50Z</time>
      </trkpt>
      <trkpt lat="44.30084" lon="5.30723">
        <ele>488</ele>
        <time>2018-02-21T10:48:53Z</time>
      </trkpt>
      <trkpt lat="44.30065" lon="5.30722">
        <ele>487</ele>
        <time>2018-02-21T10:48:56Z</time>
      </trkpt>
      <trkpt lat="44.30047" lon="5.30718">
        <ele>488</ele>
        <time>2018-02-21T10:48:59Z</time>
      </trkpt>
      <trkpt lat="44.30028" lon="5.30714">
        <ele>488</ele>
        <time>2018-02-21T10:49:02Z</time>
      </trkpt>
      <trkpt lat="44.3001" lon="5.30708">
        <ele>488</ele>
        <time>2018-02-21T10:49:05Z</time>
      </trkpt>
      <trkpt lat="44.29998" lon="5.30702">
        <ele>488</ele>
        <time>2018-02-21T10:49:07Z</time>
      </trkpt>
      <trkpt lat="44.2998" lon="5.30701">
        <ele>488</ele>
        <time>2018-02-21T10:49:10Z</time>
      </trkpt>
      <trkpt lat="44.29966" lon="5.30716">
        <ele>488</ele>
        <time>2018-02-21T10:49:13Z</time>
      </trkpt>
      <trkpt lat="44.29992" lon="5.30781">
        <ele>490</ele>
        <time>2018-02-21T10:49:33Z</time>
      </trkpt>
      <trkpt lat="44.29905" lon="5.30861">
        <ele>491</ele>
        <time>2018-02-21T10:49:36Z</time>
      </trkpt>
      <trkpt lat="44.29898" lon="5.30893">
        <ele>492</ele>
        <time>2018-02-21T10:49:39Z</time>
      </trkpt>
      <trkpt lat="44.29899" lon="5.30904">
        <ele>492</ele>
        <time>2018-02-21T10:49:41Z</time>
      </trkpt>
      <trkpt lat="44.299" lon="5.30918">
        <ele>492</ele>
        <time>2018-02-21T10:49:44Z</time>
      </trkpt>
      <trkpt lat="44.29902" lon="5.30931">
        <ele>492</ele>
        <time>2018-02-21T10:49:47Z</time>
      </trkpt>
      <trkpt lat="44.29902" lon="5.30945">
        <ele>493</ele>
        <time>2018-02-21T10:49:50Z</time>
      </trkpt>
      <trkpt lat="44.29901" lon="5.30958">
        <ele>493</ele>
        <time>2018-02-21T10:49:53Z</time>
      </trkpt>
      <trkpt lat="44.29899" lon="5.30967">
        <ele>494</ele>
        <time>2018-02-21T10:49:55Z</time>
      </trkpt>
      <trkpt lat="44.29897" lon="5.30976">
        <ele>494</ele>
        <time>2018-02-21T10:49:57Z</time>
      </trkpt>
      <trkpt lat="44.29894" lon="5.3099">
        <ele>495</ele>
        <time>2018-02-21T10:50:00Z</time>
      </trkpt>
      <trkpt lat="44.29892" lon="5.30999">
        <ele>495</ele>
        <time>2018-02-21T10:50:02Z</time>
      </trkpt>
      <trkpt lat="44.29887" lon="5.31011">
        <ele>496</ele>
        <time>2018-02-21T10:50:05Z</time>
      </trkpt>
      <trkpt lat="44.29884" lon="5.31019">
        <ele>497</ele>
        <time>2018-02-21T10:50:07Z</time>
      </trkpt>
      <trkpt lat="44.2988" lon="5.31032">
        <ele>497</ele>
        <time>2018-02-21T10:50:10Z</time>
      </trkpt>
      <trkpt lat="44.29879" lon="5.31047">
        <ele>497</ele>
        <time>2018-02-21T10:50:13Z</time>
      </trkpt>
      <trkpt lat="44.2988" lon="5.31057">
        <ele>496</ele>
        <time>2018-02-21T10:50:15Z</time>
      </trkpt>
      <trkpt lat="44.29882" lon="5.31072">
        <ele>496</ele>
        <time>2018-02-21T10:50:18Z</time>
      </trkpt>
      <trkpt lat="44.29887" lon="5.31086">
        <ele>496</ele>
        <time>2018-02-21T10:50:21Z</time>
      </trkpt>
      <trkpt lat="44.29893" lon="5.311">
        <ele>497</ele>
        <time>2018-02-21T10:50:24Z</time>
      </trkpt>
      <trkpt lat="44.299" lon="5.31113">
        <ele>497</ele>
        <time>2018-02-21T10:50:27Z</time>
      </trkpt>
      <trkpt lat="44.29905" lon="5.31127">
        <ele>497</ele>
        <time>2018-02-21T10:50:30Z</time>
      </trkpt>
      <trkpt lat="44.29909" lon="5.31137">
        <ele>498</ele>
        <time>2018-02-21T10:50:32Z</time>
      </trkpt>
      <trkpt lat="44.29911" lon="5.31147">
        <ele>498</ele>
        <time>2018-02-21T10:50:34Z</time>
      </trkpt>
      <trkpt lat="44.29914" lon="5.31158">
        <ele>498</ele>
        <time>2018-02-21T10:50:36Z</time>
      </trkpt>
      <trkpt lat="44.29917" lon="5.31174">
        <ele>498</ele>
        <time>2018-02-21T10:50:39Z</time>
      </trkpt>
      <trkpt lat="44.2992" lon="5.3119">
        <ele>499</ele>
        <time>2018-02-21T10:50:42Z</time>
      </trkpt>
      <trkpt lat="44.29922" lon="5.31208">
        <ele>500</ele>
        <time>2018-02-21T10:50:45Z</time>
      </trkpt>
      <trkpt lat="44.29922" lon="5.31219">
        <ele>500</ele>
        <time>2018-02-21T10:50:47Z</time>
      </trkpt>
      <trkpt lat="44.29921" lon="5.31237">
        <ele>501</ele>
        <time>2018-02-21T10:50:50Z</time>
      </trkpt>
      <trkpt lat="44.29921" lon="5.31249">
        <ele>501</ele>
        <time>2018-02-21T10:50:52Z</time>
      </trkpt>
      <trkpt lat="44.2992" lon="5.3126">
        <ele>502</ele>
        <time>2018-02-21T10:50:54Z</time>
      </trkpt>
      <trkpt lat="44.29919" lon="5.31278">
        <ele>503</ele>
        <time>2018-02-21T10:50:57Z</time>
      </trkpt>
      <trkpt lat="44.29919" lon="5.31295">
        <ele>504</ele>
        <time>2018-02-21T10:51:00Z</time>
      </trkpt>
      <trkpt lat="44.29918" lon="5.31307">
        <ele>504</ele>
        <time>2018-02-21T10:51:02Z</time>
      </trkpt>
      <trkpt lat="44.29916" lon="5.31324">
        <ele>505</ele>
        <time>2018-02-21T10:51:05Z</time>
      </trkpt>
      <trkpt lat="44.29914" lon="5.31341">
        <ele>505</ele>
        <time>2018-02-21T10:51:08Z</time>
      </trkpt>
      <trkpt lat="44.29909" lon="5.31355">
        <ele>505</ele>
        <time>2018-02-21T10:51:11Z</time>
      </trkpt>
      <trkpt lat="44.29903" lon="5.31369">
        <ele>504</ele>
        <time>2018-02-21T10:51:14Z</time>
      </trkpt>
      <trkpt lat="44.29897" lon="5.31382">
        <ele>505</ele>
        <time>2018-02-21T10:51:17Z</time>
      </trkpt>
      <trkpt lat="44.29893" lon="5.31391">
        <ele>505</ele>
        <time>2018-02-21T10:51:19Z</time>
      </trkpt>
      <trkpt lat="44.2989" lon="5.31408">
        <ele>505</ele>
        <time>2018-02-21T10:51:22Z</time>
      </trkpt>
      <trkpt lat="44.29893" lon="5.31419">
        <ele>505</ele>
        <time>2018-02-21T10:51:24Z</time>
      </trkpt>
      <trkpt lat="44.299" lon="5.31427">
        <ele>505</ele>
        <time>2018-02-21T10:51:26Z</time>
      </trkpt>
      <trkpt lat="44.29912" lon="5.31435">
        <ele>505</ele>
        <time>2018-02-21T10:51:29Z</time>
      </trkpt>
      <trkpt lat="44.29921" lon="5.31439">
        <ele>504</ele>
        <time>2018-02-21T10:51:31Z</time>
      </trkpt>
      <trkpt lat="44.29934" lon="5.31448">
        <ele>505</ele>
        <time>2018-02-21T10:51:34Z</time>
      </trkpt>
      <trkpt lat="44.29942" lon="5.31453">
        <ele>505</ele>
        <time>2018-02-21T10:51:36Z</time>
      </trkpt>
      <trkpt lat="44.29955" lon="5.31464">
        <ele>506</ele>
        <time>2018-02-21T10:51:39Z</time>
      </trkpt>
      <trkpt lat="44.29967" lon="5.31475">
        <ele>507</ele>
        <time>2018-02-21T10:51:42Z</time>
      </trkpt>
      <trkpt lat="44.29978" lon="5.31488">
        <ele>508</ele>
        <time>2018-02-21T10:51:45Z</time>
      </trkpt>
      <trkpt lat="44.29985" lon="5.31498">
        <ele>508</ele>
        <time>2018-02-21T10:51:47Z</time>
      </trkpt>
      <trkpt lat="44.29992" lon="5.31508">
        <ele>509</ele>
        <time>2018-02-21T10:51:49Z</time>
      </trkpt>
      <trkpt lat="44.30001" lon="5.31524">
        <ele>509</ele>
        <time>2018-02-21T10:51:52Z</time>
      </trkpt>
      <trkpt lat="44.3001" lon="5.31539">
        <ele>510</ele>
        <time>2018-02-21T10:51:55Z</time>
      </trkpt>
      <trkpt lat="44.30019" lon="5.31554">
        <ele>511</ele>
        <time>2018-02-21T10:51:58Z</time>
      </trkpt>
      <trkpt lat="44.30029" lon="5.31568">
        <ele>511</ele>
        <time>2018-02-21T10:52:01Z</time>
      </trkpt>
      <trkpt lat="44.30037" lon="5.31584">
        <ele>512</ele>
        <time>2018-02-21T10:52:04Z</time>
      </trkpt>
      <trkpt lat="44.30045" lon="5.31601">
        <ele>512</ele>
        <time>2018-02-21T10:52:07Z</time>
      </trkpt>
      <trkpt lat="44.30051" lon="5.31618">
        <ele>512</ele>
        <time>2018-02-21T10:52:10Z</time>
      </trkpt>
      <trkpt lat="44.30058" lon="5.31635">
        <ele>513</ele>
        <time>2018-02-21T10:52:13Z</time>
      </trkpt>
      <trkpt lat="44.30062" lon="5.31646">
        <ele>513</ele>
        <time>2018-02-21T10:52:15Z</time>
      </trkpt>
      <trkpt lat="44.3007" lon="5.31662">
        <ele>514</ele>
        <time>2018-02-21T10:52:18Z</time>
      </trkpt>
      <trkpt lat="44.30079" lon="5.31677">
        <ele>515</ele>
        <time>2018-02-21T10:52:21Z</time>
      </trkpt>
      <trkpt lat="44.30086" lon="5.31693">
        <ele>516</ele>
        <time>2018-02-21T10:52:24Z</time>
      </trkpt>
      <trkpt lat="44.30091" lon="5.31703">
        <ele>516</ele>
        <time>2018-02-21T10:52:26Z</time>
      </trkpt>
      <trkpt lat="44.30098" lon="5.31719">
        <ele>517</ele>
        <time>2018-02-21T10:52:29Z</time>
      </trkpt>
      <trkpt lat="44.30106" lon="5.31734">
        <ele>518</ele>
        <time>2018-02-21T10:52:32Z</time>
      </trkpt>
      <trkpt lat="44.30113" lon="5.31749">
        <ele>519</ele>
        <time>2018-02-21T10:52:35Z</time>
      </trkpt>
      <trkpt lat="44.30119" lon="5.31764">
        <ele>519</ele>
        <time>2018-02-21T10:52:38Z</time>
      </trkpt>
      <trkpt lat="44.30124" lon="5.31774">
        <ele>520</ele>
        <time>2018-02-21T10:52:40Z</time>
      </trkpt>
      <trkpt lat="44.3013" lon="5.31788">
        <ele>520</ele>
        <time>2018-02-21T10:52:43Z</time>
      </trkpt>
      <trkpt lat="44.30138" lon="5.31803">
        <ele>520</ele>
        <time>2018-02-21T10:52:46Z</time>
      </trkpt>
      <trkpt lat="44.30142" lon="5.31812">
        <ele>520</ele>
        <time>2018-02-21T10:52:48Z</time>
      </trkpt>
      <trkpt lat="44.30149" lon="5.31825">
        <ele>520</ele>
        <time>2018-02-21T10:52:51Z</time>
      </trkpt>
      <trkpt lat="44.30154" lon="5.31835">
        <ele>520</ele>
        <time>2018-02-21T10:52:53Z</time>
      </trkpt>
      <trkpt lat="44.3016" lon="5.3185">
        <ele>520</ele>
        <time>2018-02-21T10:52:56Z</time>
      </trkpt>
      <trkpt lat="44.30166" lon="5.31867">
        <ele>521</ele>
        <time>2018-02-21T10:52:59Z</time>
      </trkpt>
      <trkpt lat="44.30169" lon="5.31886">
        <ele>521</ele>
        <time>2018-02-21T10:53:02Z</time>
      </trkpt>
      <trkpt lat="44.30171" lon="5.31906">
        <ele>521</ele>
        <time>2018-02-21T10:53:05Z</time>
      </trkpt>
      <trkpt lat="44.30171" lon="5.31919">
        <ele>520</ele>
        <time>2018-02-21T10:53:07Z</time>
      </trkpt>
      <trkpt lat="44.30171" lon="5.31932">
        <ele>520</ele>
        <time>2018-02-21T10:53:09Z</time>
      </trkpt>
      <trkpt lat="44.30171" lon="5.31945">
        <ele>520</ele>
        <time>2018-02-21T10:53:11Z</time>
      </trkpt>
      <trkpt lat="44.3017" lon="5.31965">
        <ele>521</ele>
        <time>2018-02-21T10:53:14Z</time>
      </trkpt>
      <trkpt lat="44.3017" lon="5.31986">
        <ele>520</ele>
        <time>2018-02-21T10:53:17Z</time>
      </trkpt>
      <trkpt lat="44.30169" lon="5.32">
        <ele>520</ele>
        <time>2018-02-21T10:53:19Z</time>
      </trkpt>
      <trkpt lat="44.30169" lon="5.3202">
        <ele>520</ele>
        <time>2018-02-21T10:53:22Z</time>
      </trkpt>
      <trkpt lat="44.30168" lon="5.32039">
        <ele>521</ele>
        <time>2018-02-21T10:53:25Z</time>
      </trkpt>
      <trkpt lat="44.30167" lon="5.32058">
        <ele>521</ele>
        <time>2018-02-21T10:53:28Z</time>
      </trkpt>
      <trkpt lat="44.30166" lon="5.32074">
        <ele>521</ele>
        <time>2018-02-21T10:53:31Z</time>
      </trkpt>
      <trkpt lat="44.30164" lon="5.32085">
        <ele>520</ele>
        <time>2018-02-21T10:53:33Z</time>
      </trkpt>
      <trkpt lat="44.30163" lon="5.32095">
        <ele>520</ele>
        <time>2018-02-21T10:53:35Z</time>
      </trkpt>
      <trkpt lat="44.30162" lon="5.32111">
        <ele>520</ele>
        <time>2018-02-21T10:53:38Z</time>
      </trkpt>
      <trkpt lat="44.30161" lon="5.32125">
        <ele>520</ele>
        <time>2018-02-21T10:53:41Z</time>
      </trkpt>
      <trkpt lat="44.30159" lon="5.3214">
        <ele>520</ele>
        <time>2018-02-21T10:53:44Z</time>
      </trkpt>
      <trkpt lat="44.30157" lon="5.32156">
        <ele>520</ele>
        <time>2018-02-21T10:53:47Z</time>
      </trkpt>
      <trkpt lat="44.30155" lon="5.32172">
        <ele>520</ele>
        <time>2018-02-21T10:53:50Z</time>
      </trkpt>
      <trkpt lat="44.30153" lon="5.32188">
        <ele>519</ele>
        <time>2018-02-21T10:53:53Z</time>
      </trkpt>
      <trkpt lat="44.30151" lon="5.32199">
        <ele>519</ele>
        <time>2018-02-21T10:53:55Z</time>
      </trkpt>
      <trkpt lat="44.3015" lon="5.32211">
        <ele>519</ele>
        <time>2018-02-21T10:53:57Z</time>
      </trkpt>
      <trkpt lat="44.30148" lon="5.32224">
        <ele>519</ele>
        <time>2018-02-21T10:53:59Z</time>
      </trkpt>
      <trkpt lat="44.30146" lon="5.32242">
        <ele>519</ele>
        <time>2018-02-21T10:54:02Z</time>
      </trkpt>
      <trkpt lat="44.30144" lon="5.32254">
        <ele>520</ele>
        <time>2018-02-21T10:54:04Z</time>
      </trkpt>
      <trkpt lat="44.30141" lon="5.32272">
        <ele>520</ele>
        <time>2018-02-21T10:54:07Z</time>
      </trkpt>
      <trkpt lat="44.30138" lon="5.32284">
        <ele>520</ele>
        <time>2018-02-21T10:54:09Z</time>
      </trkpt>
      <trkpt lat="44.30133" lon="5.32303">
        <ele>520</ele>
        <time>2018-02-21T10:54:12Z</time>
      </trkpt>
      <trkpt lat="44.30128" lon="5.32323">
        <ele>520</ele>
        <time>2018-02-21T10:54:15Z</time>
      </trkpt>
      <trkpt lat="44.3012" lon="5.32343">
        <ele>520</ele>
        <time>2018-02-21T10:54:18Z</time>
      </trkpt>
      <trkpt lat="44.30112" lon="5.32364">
        <ele>520</ele>
        <time>2018-02-21T10:54:21Z</time>
      </trkpt>
      <trkpt lat="44.30106" lon="5.32377">
        <ele>520</ele>
        <time>2018-02-21T10:54:23Z</time>
      </trkpt>
      <trkpt lat="44.30098" lon="5.32396">
        <ele>520</ele>
        <time>2018-02-21T10:54:26Z</time>
      </trkpt>
      <trkpt lat="44.30092" lon="5.32408">
        <ele>520</ele>
        <time>2018-02-21T10:54:28Z</time>
      </trkpt>
      <trkpt lat="44.30084" lon="5.32426">
        <ele>520</ele>
        <time>2018-02-21T10:54:31Z</time>
      </trkpt>
      <trkpt lat="44.30079" lon="5.32438">
        <ele>520</ele>
        <time>2018-02-21T10:54:33Z</time>
      </trkpt>
      <trkpt lat="44.30074" lon="5.32449">
        <ele>521</ele>
        <time>2018-02-21T10:54:35Z</time>
      </trkpt>
      <trkpt lat="44.30069" lon="5.3246">
        <ele>521</ele>
        <time>2018-02-21T10:54:37Z</time>
      </trkpt>
      <trkpt lat="44.30062" lon="5.32477">
        <ele>522</ele>
        <time>2018-02-21T10:54:40Z</time>
      </trkpt>
      <trkpt lat="44.30059" lon="5.32489">
        <ele>522</ele>
        <time>2018-02-21T10:54:42Z</time>
      </trkpt>
      <trkpt lat="44.30055" lon="5.32509">
        <ele>522</ele>
        <time>2018-02-21T10:54:45Z</time>
      </trkpt>
      <trkpt lat="44.30053" lon="5.3253">
        <ele>522</ele>
        <time>2018-02-21T10:54:48Z</time>
      </trkpt>
      <trkpt lat="44.30053" lon="5.32545">
        <ele>522</ele>
        <time>2018-02-21T10:54:50Z</time>
      </trkpt>
      <trkpt lat="44.30054" lon="5.3256">
        <ele>523</ele>
        <time>2018-02-21T10:54:52Z</time>
      </trkpt>
      <trkpt lat="44.30054" lon="5.32582">
        <ele>523</ele>
        <time>2018-02-21T10:54:55Z</time>
      </trkpt>
      <trkpt lat="44.30053" lon="5.32603">
        <ele>523</ele>
        <time>2018-02-21T10:54:58Z</time>
      </trkpt>
      <trkpt lat="44.30051" lon="5.32617">
        <ele>523</ele>
        <time>2018-02-21T10:55:00Z</time>
      </trkpt>
      <trkpt lat="44.3005" lon="5.32639">
        <ele>524</ele>
        <time>2018-02-21T10:55:03Z</time>
      </trkpt>
      <trkpt lat="44.3005" lon="5.32662">
        <ele>524</ele>
        <time>2018-02-21T10:55:06Z</time>
      </trkpt>
      <trkpt lat="44.30053" lon="5.32684">
        <ele>524</ele>
        <time>2018-02-21T10:55:09Z</time>
      </trkpt>
      <trkpt lat="44.30054" lon="5.32707">
        <ele>524</ele>
        <time>2018-02-21T10:55:12Z</time>
      </trkpt>
      <trkpt lat="44.30051" lon="5.32729">
        <ele>525</ele>
        <time>2018-02-21T10:55:15Z</time>
      </trkpt>
      <trkpt lat="44.30048" lon="5.32743">
        <ele>525</ele>
        <time>2018-02-21T10:55:17Z</time>
      </trkpt>
      <trkpt lat="44.30042" lon="5.32756">
        <ele>525</ele>
        <time>2018-02-21T10:55:19Z</time>
      </trkpt>
      <trkpt lat="44.30036" lon="5.32768">
        <ele>525</ele>
        <time>2018-02-21T10:55:21Z</time>
      </trkpt>
      <trkpt lat="44.30026" lon="5.32787">
        <ele>525</ele>
        <time>2018-02-21T10:55:24Z</time>
      </trkpt>
      <trkpt lat="44.30017" lon="5.32806">
        <ele>525</ele>
        <time>2018-02-21T10:55:27Z</time>
      </trkpt>
      <trkpt lat="44.30008" lon="5.32824">
        <ele>525</ele>
        <time>2018-02-21T10:55:30Z</time>
      </trkpt>
      <trkpt lat="44.29998" lon="5.32843">
        <ele>525</ele>
        <time>2018-02-21T10:55:33Z</time>
      </trkpt>
      <trkpt lat="44.29989" lon="5.32863">
        <ele>525</ele>
        <time>2018-02-21T10:55:36Z</time>
      </trkpt>
      <trkpt lat="44.2998" lon="5.32881">
        <ele>525</ele>
        <time>2018-02-21T10:55:39Z</time>
      </trkpt>
      <trkpt lat="44.29971" lon="5.32901">
        <ele>525</ele>
        <time>2018-02-21T10:55:42Z</time>
      </trkpt>
      <trkpt lat="44.29964" lon="5.32914">
        <ele>526</ele>
        <time>2018-02-21T10:55:44Z</time>
      </trkpt>
      <trkpt lat="44.29958" lon="5.32927">
        <ele>526</ele>
        <time>2018-02-21T10:55:46Z</time>
      </trkpt>
      <trkpt lat="44.29949" lon="5.32946">
        <ele>526</ele>
        <time>2018-02-21T10:55:49Z</time>
      </trkpt>
      <trkpt lat="44.2994" lon="5.32965">
        <ele>526</ele>
        <time>2018-02-21T10:55:52Z</time>
      </trkpt>
      <trkpt lat="44.2993" lon="5.32984">
        <ele>526</ele>
        <time>2018-02-21T10:55:55Z</time>
      </trkpt>
      <trkpt lat="44.29921" lon="5.33003">
        <ele>526</ele>
        <time>2018-02-21T10:55:58Z</time>
      </trkpt>
      <trkpt lat="44.29915" lon="5.33016">
        <ele>526</ele>
        <time>2018-02-21T10:56:00Z</time>
      </trkpt>
      <trkpt lat="44.29905" lon="5.33036">
        <ele>527</ele>
        <time>2018-02-21T10:56:03Z</time>
      </trkpt>
      <trkpt lat="44.29899" lon="5.33049">
        <ele>527</ele>
        <time>2018-02-21T10:56:05Z</time>
      </trkpt>
      <trkpt lat="44.29889" lon="5.3307">
        <ele>527</ele>
        <time>2018-02-21T10:56:08Z</time>
      </trkpt>
      <trkpt lat="44.29883" lon="5.33083">
        <ele>527</ele>
        <time>2018-02-21T10:56:10Z</time>
      </trkpt>
      <trkpt lat="44.29876" lon="5.33105">
        <ele>528</ele>
        <time>2018-02-21T10:56:13Z</time>
      </trkpt>
      <trkpt lat="44.29872" lon="5.3312">
        <ele>528</ele>
        <time>2018-02-21T10:56:15Z</time>
      </trkpt>
      <trkpt lat="44.29867" lon="5.33143">
        <ele>528</ele>
        <time>2018-02-21T10:56:18Z</time>
      </trkpt>
      <trkpt lat="44.29863" lon="5.33166">
        <ele>527</ele>
        <time>2018-02-21T10:56:21Z</time>
      </trkpt>
      <trkpt lat="44.29861" lon="5.33181">
        <ele>527</ele>
        <time>2018-02-21T10:56:23Z</time>
      </trkpt>
      <trkpt lat="44.29859" lon="5.33204">
        <ele>527</ele>
        <time>2018-02-21T10:56:26Z</time>
      </trkpt>
      <trkpt lat="44.29859" lon="5.33219">
        <ele>528</ele>
        <time>2018-02-21T10:56:28Z</time>
      </trkpt>
      <trkpt lat="44.29861" lon="5.33242">
        <ele>528</ele>
        <time>2018-02-21T10:56:31Z</time>
      </trkpt>
      <trkpt lat="44.29864" lon="5.33256">
        <ele>528</ele>
        <time>2018-02-21T10:56:33Z</time>
      </trkpt>
      <trkpt lat="44.29871" lon="5.33277">
        <ele>528</ele>
        <time>2018-02-21T10:56:36Z</time>
      </trkpt>
      <trkpt lat="44.29876" lon="5.33291">
        <ele>528</ele>
        <time>2018-02-21T10:56:38Z</time>
      </trkpt>
      <trkpt lat="44.29883" lon="5.33312">
        <ele>529</ele>
        <time>2018-02-21T10:56:41Z</time>
      </trkpt>
      <trkpt lat="44.29889" lon="5.33333">
        <ele>530</ele>
        <time>2018-02-21T10:56:44Z</time>
      </trkpt>
      <trkpt lat="44.29891" lon="5.33348">
        <ele>531</ele>
        <time>2018-02-21T10:56:46Z</time>
      </trkpt>
      <trkpt lat="44.29894" lon="5.3337">
        <ele>531</ele>
        <time>2018-02-21T10:56:49Z</time>
      </trkpt>
      <trkpt lat="44.29896" lon="5.33393">
        <ele>532</ele>
        <time>2018-02-21T10:56:52Z</time>
      </trkpt>
      <trkpt lat="44.29896" lon="5.33415">
        <ele>532</ele>
        <time>2018-02-21T10:56:55Z</time>
      </trkpt>
      <trkpt lat="44.29896" lon="5.33438">
        <ele>532</ele>
        <time>2018-02-21T10:56:58Z</time>
      </trkpt>
      <trkpt lat="44.29896" lon="5.33461">
        <ele>532</ele>
        <time>2018-02-21T10:57:01Z</time>
      </trkpt>
      <trkpt lat="44.29896" lon="5.33483">
        <ele>533</ele>
        <time>2018-02-21T10:57:04Z</time>
      </trkpt>
      <trkpt lat="44.29897" lon="5.33507">
        <ele>532</ele>
        <time>2018-02-21T10:57:07Z</time>
      </trkpt>
      <trkpt lat="44.29899" lon="5.33531">
        <ele>532</ele>
        <time>2018-02-21T10:57:10Z</time>
      </trkpt>
      <trkpt lat="44.29901" lon="5.33547">
        <ele>531</ele>
        <time>2018-02-21T10:57:12Z</time>
      </trkpt>
      <trkpt lat="44.29904" lon="5.33572">
        <ele>532</ele>
        <time>2018-02-21T10:57:15Z</time>
      </trkpt>
      <trkpt lat="44.29905" lon="5.33598">
        <ele>532</ele>
        <time>2018-02-21T10:57:18Z</time>
      </trkpt>
      <trkpt lat="44.29906" lon="5.33623">
        <ele>533</ele>
        <time>2018-02-21T10:57:21Z</time>
      </trkpt>
      <trkpt lat="44.29906" lon="5.33641">
        <ele>532</ele>
        <time>2018-02-21T10:57:23Z</time>
      </trkpt>
      <trkpt lat="44.29908" lon="5.33667">
        <ele>532</ele>
        <time>2018-02-21T10:57:26Z</time>
      </trkpt>
      <trkpt lat="44.29909" lon="5.33684">
        <ele>532</ele>
        <time>2018-02-21T10:57:28Z</time>
      </trkpt>
      <trkpt lat="44.29911" lon="5.3371">
        <ele>532</ele>
        <time>2018-02-21T10:57:31Z</time>
      </trkpt>
      <trkpt lat="44.29913" lon="5.33727">
        <ele>532</ele>
        <time>2018-02-21T10:57:33Z</time>
      </trkpt>
      <trkpt lat="44.29918" lon="5.33753">
        <ele>531</ele>
        <time>2018-02-21T10:57:36Z</time>
      </trkpt>
      <trkpt lat="44.29922" lon="5.33779">
        <ele>530</ele>
        <time>2018-02-21T10:57:39Z</time>
      </trkpt>
      <trkpt lat="44.29925" lon="5.33797">
        <ele>530</ele>
        <time>2018-02-21T10:57:41Z</time>
      </trkpt>
      <trkpt lat="44.29928" lon="5.33814">
        <ele>529</ele>
        <time>2018-02-21T10:57:43Z</time>
      </trkpt>
      <trkpt lat="44.2993" lon="5.33831">
        <ele>530</ele>
        <time>2018-02-21T10:57:45Z</time>
      </trkpt>
      <trkpt lat="44.29932" lon="5.33849">
        <ele>530</ele>
        <time>2018-02-21T10:57:47Z</time>
      </trkpt>
      <trkpt lat="44.29935" lon="5.33875">
        <ele>530</ele>
        <time>2018-02-21T10:57:50Z</time>
      </trkpt>
      <trkpt lat="44.29939" lon="5.339">
        <ele>530</ele>
        <time>2018-02-21T10:57:53Z</time>
      </trkpt>
      <trkpt lat="44.29942" lon="5.33925">
        <ele>529</ele>
        <time>2018-02-21T10:57:56Z</time>
      </trkpt>
      <trkpt lat="44.29946" lon="5.33951">
        <ele>530</ele>
        <time>2018-02-21T10:57:59Z</time>
      </trkpt>
      <trkpt lat="44.2995" lon="5.33976">
        <ele>530</ele>
        <time>2018-02-21T10:58:02Z</time>
      </trkpt>
      <trkpt lat="44.29955" lon="5.33993">
        <ele>530</ele>
        <time>2018-02-21T10:58:04Z</time>
      </trkpt>
      <trkpt lat="44.29961" lon="5.34017">
        <ele>530</ele>
        <time>2018-02-21T10:58:07Z</time>
      </trkpt>
      <trkpt lat="44.2997" lon="5.34038">
        <ele>530</ele>
        <time>2018-02-21T10:58:10Z</time>
      </trkpt>
      <trkpt lat="44.29978" lon="5.34052">
        <ele>530</ele>
        <time>2018-02-21T10:58:12Z</time>
      </trkpt>
      <trkpt lat="44.29989" lon="5.34071">
        <ele>530</ele>
        <time>2018-02-21T10:58:15Z</time>
      </trkpt>
      <trkpt lat="44.30001" lon="5.3409">
        <ele>530</ele>
        <time>2018-02-21T10:58:18Z</time>
      </trkpt>
      <trkpt lat="44.30008" lon="5.34103">
        <ele>530</ele>
        <time>2018-02-21T10:58:20Z</time>
      </trkpt>
      <trkpt lat="44.30015" lon="5.34124">
        <ele>530</ele>
        <time>2018-02-21T10:58:23Z</time>
      </trkpt>
      <trkpt lat="44.3002" lon="5.34149">
        <ele>531</ele>
        <time>2018-02-21T10:58:26Z</time>
      </trkpt>
      <trkpt lat="44.30024" lon="5.34173">
        <ele>533</ele>
        <time>2018-02-21T10:58:29Z</time>
      </trkpt>
      <trkpt lat="44.30031" lon="5.34196">
        <ele>533</ele>
        <time>2018-02-21T10:58:32Z</time>
      </trkpt>
      <trkpt lat="44.30039" lon="5.34218">
        <ele>534</ele>
        <time>2018-02-21T10:58:35Z</time>
      </trkpt>
      <trkpt lat="44.30045" lon="5.34232">
        <ele>535</ele>
        <time>2018-02-21T10:58:37Z</time>
      </trkpt>
      <trkpt lat="44.30049" lon="5.34246">
        <ele>536</ele>
        <time>2018-02-21T10:58:39Z</time>
      </trkpt>
      <trkpt lat="44.30054" lon="5.34269">
        <ele>536</ele>
        <time>2018-02-21T10:58:42Z</time>
      </trkpt>
      <trkpt lat="44.30059" lon="5.34291">
        <ele>537</ele>
        <time>2018-02-21T10:58:45Z</time>
      </trkpt>
      <trkpt lat="44.30063" lon="5.34313">
        <ele>537</ele>
        <time>2018-02-21T10:58:48Z</time>
      </trkpt>
      <trkpt lat="44.30065" lon="5.34328">
        <ele>536</ele>
        <time>2018-02-21T10:58:50Z</time>
      </trkpt>
      <trkpt lat="44.30068" lon="5.34351">
        <ele>536</ele>
        <time>2018-02-21T10:58:53Z</time>
      </trkpt>
      <trkpt lat="44.30071" lon="5.34373">
        <ele>536</ele>
        <time>2018-02-21T10:58:56Z</time>
      </trkpt>
      <trkpt lat="44.30074" lon="5.34395">
        <ele>537</ele>
        <time>2018-02-21T10:58:59Z</time>
      </trkpt>
      <trkpt lat="44.30076" lon="5.34418">
        <ele>537</ele>
        <time>2018-02-21T10:59:02Z</time>
      </trkpt>
      <trkpt lat="44.30078" lon="5.34434">
        <ele>537</ele>
        <time>2018-02-21T10:59:04Z</time>
      </trkpt>
      <trkpt lat="44.3008" lon="5.34457">
        <ele>537</ele>
        <time>2018-02-21T10:59:07Z</time>
      </trkpt>
      <trkpt lat="44.30081" lon="5.34481">
        <ele>536</ele>
        <time>2018-02-21T10:59:10Z</time>
      </trkpt>
      <trkpt lat="44.30082" lon="5.34497">
        <ele>536</ele>
        <time>2018-02-21T10:59:12Z</time>
      </trkpt>
      <trkpt lat="44.30082" lon="5.34514">
        <ele>536</ele>
        <time>2018-02-21T10:59:14Z</time>
      </trkpt>
      <trkpt lat="44.30082" lon="5.3453">
        <ele>536</ele>
        <time>2018-02-21T10:59:16Z</time>
      </trkpt>
      <trkpt lat="44.30082" lon="5.34548">
        <ele>536</ele>
        <time>2018-02-21T10:59:18Z</time>
      </trkpt>
      <trkpt lat="44.30083" lon="5.34575">
        <ele>536</ele>
        <time>2018-02-21T10:59:21Z</time>
      </trkpt>
      <trkpt lat="44.30084" lon="5.34601">
        <ele>537</ele>
        <time>2018-02-21T10:59:24Z</time>
      </trkpt>
      <trkpt lat="44.30085" lon="5.34617">
        <ele>536</ele>
        <time>2018-02-21T10:59:26Z</time>
      </trkpt>
      <trkpt lat="44.30085" lon="5.34642">
        <ele>536</ele>
        <time>2018-02-21T10:59:29Z</time>
      </trkpt>
      <trkpt lat="44.30088" lon="5.34667">
        <ele>535</ele>
        <time>2018-02-21T10:59:32Z</time>
      </trkpt>
      <trkpt lat="44.30092" lon="5.34691">
        <ele>534</ele>
        <time>2018-02-21T10:59:35Z</time>
      </trkpt>
      <trkpt lat="44.30096" lon="5.34715">
        <ele>534</ele>
        <time>2018-02-21T10:59:38Z</time>
      </trkpt>
      <trkpt lat="44.30102" lon="5.34738">
        <ele>533</ele>
        <time>2018-02-21T10:59:41Z</time>
      </trkpt>
      <trkpt lat="44.30108" lon="5.34759">
        <ele>532</ele>
        <time>2018-02-21T10:59:44Z</time>
      </trkpt>
      <trkpt lat="44.30114" lon="5.3478">
        <ele>533</ele>
        <time>2018-02-21T10:59:47Z</time>
      </trkpt>
      <trkpt lat="44.3012" lon="5.34802">
        <ele>533</ele>
        <time>2018-02-21T10:59:50Z</time>
      </trkpt>
      <trkpt lat="44.30125" lon="5.34817">
        <ele>534</ele>
        <time>2018-02-21T10:59:52Z</time>
      </trkpt>
      <trkpt lat="44.3013" lon="5.34831">
        <ele>534</ele>
        <time>2018-02-21T10:59:54Z</time>
      </trkpt>
      <trkpt lat="44.3014" lon="5.34851">
        <ele>534</ele>
        <time>2018-02-21T10:59:57Z</time>
      </trkpt>
      <trkpt lat="44.30149" lon="5.34871">
        <ele>534</ele>
        <time>2018-02-21T11:00:00Z</time>
      </trkpt>
      <trkpt lat="44.30159" lon="5.3489">
        <ele>535</ele>
        <time>2018-02-21T11:00:03Z</time>
      </trkpt>
      <trkpt lat="44.30165" lon="5.34902">
        <ele>535</ele>
        <time>2018-02-21T11:00:05Z</time>
      </trkpt>
      <trkpt lat="44.30175" lon="5.34921">
        <ele>536</ele>
        <time>2018-02-21T11:00:08Z</time>
      </trkpt>
      <trkpt lat="44.30181" lon="5.34934">
        <ele>537</ele>
        <time>2018-02-21T11:00:10Z</time>
      </trkpt>
      <trkpt lat="44.30189" lon="5.34955">
        <ele>536</ele>
        <time>2018-02-21T11:00:13Z</time>
      </trkpt>
      <trkpt lat="44.30193" lon="5.3497">
        <ele>537</ele>
        <time>2018-02-21T11:00:15Z</time>
      </trkpt>
      <trkpt lat="44.30195" lon="5.34985">
        <ele>536</ele>
        <time>2018-02-21T11:00:17Z</time>
      </trkpt>
      <trkpt lat="44.30198" lon="5.35008">
        <ele>536</ele>
        <time>2018-02-21T11:00:20Z</time>
      </trkpt>
      <trkpt lat="44.30199" lon="5.35031">
        <ele>537</ele>
        <time>2018-02-21T11:00:23Z</time>
      </trkpt>
      <trkpt lat="44.302" lon="5.35046">
        <ele>537</ele>
        <time>2018-02-21T11:00:25Z</time>
      </trkpt>
      <trkpt lat="44.30199" lon="5.35062">
        <ele>537</ele>
        <time>2018-02-21T11:00:27Z</time>
      </trkpt>
      <trkpt lat="44.30198" lon="5.35084">
        <ele>538</ele>
        <time>2018-02-21T11:00:30Z</time>
      </trkpt>
      <trkpt lat="44.30194" lon="5.35106">
        <ele>539</ele>
        <time>2018-02-21T11:00:33Z</time>
      </trkpt>
      <trkpt lat="44.3019" lon="5.35127">
        <ele>539</ele>
        <time>2018-02-21T11:00:36Z</time>
      </trkpt>
      <trkpt lat="44.30186" lon="5.35141">
        <ele>540</ele>
        <time>2018-02-21T11:00:38Z</time>
      </trkpt>
      <trkpt lat="44.3018" lon="5.35162">
        <ele>540</ele>
        <time>2018-02-21T11:00:41Z</time>
      </trkpt>
      <trkpt lat="44.30173" lon="5.35183">
        <ele>540</ele>
        <time>2018-02-21T11:00:44Z</time>
      </trkpt>
      <trkpt lat="44.30168" lon="5.35203">
        <ele>540</ele>
        <time>2018-02-21T11:00:47Z</time>
      </trkpt>
      <trkpt lat="44.30162" lon="5.35222">
        <ele>540</ele>
        <time>2018-02-21T11:00:50Z</time>
      </trkpt>
      <trkpt lat="44.30156" lon="5.35242">
        <ele>541</ele>
        <time>2018-02-21T11:00:53Z</time>
      </trkpt>
      <trkpt lat="44.30151" lon="5.35261">
        <ele>543</ele>
        <time>2018-02-21T11:00:56Z</time>
      </trkpt>
      <trkpt lat="44.30146" lon="5.35282">
        <ele>543</ele>
        <time>2018-02-21T11:00:59Z</time>
      </trkpt>
      <trkpt lat="44.30145" lon="5.35304">
        <ele>543</ele>
        <time>2018-02-21T11:01:02Z</time>
      </trkpt>
      <trkpt lat="44.30145" lon="5.35319">
        <ele>543</ele>
        <time>2018-02-21T11:01:04Z</time>
      </trkpt>
      <trkpt lat="44.30145" lon="5.35341">
        <ele>543</ele>
        <time>2018-02-21T11:01:07Z</time>
      </trkpt>
      <trkpt lat="44.30145" lon="5.35356">
        <ele>543</ele>
        <time>2018-02-21T11:01:09Z</time>
      </trkpt>
      <trkpt lat="44.30145" lon="5.35371">
        <ele>543</ele>
        <time>2018-02-21T11:01:11Z</time>
      </trkpt>
      <trkpt lat="44.30143" lon="5.35393">
        <ele>544</ele>
        <time>2018-02-21T11:01:14Z</time>
      </trkpt>
      <trkpt lat="44.30138" lon="5.35415">
        <ele>544</ele>
        <time>2018-02-21T11:01:17Z</time>
      </trkpt>
      <trkpt lat="44.30135" lon="5.35437">
        <ele>545</ele>
        <time>2018-02-21T11:01:20Z</time>
      </trkpt>
      <trkpt lat="44.30134" lon="5.35453">
        <ele>545</ele>
        <time>2018-02-21T11:01:22Z</time>
      </trkpt>
      <trkpt lat="44.30132" lon="5.35475">
        <ele>546</ele>
        <time>2018-02-21T11:01:25Z</time>
      </trkpt>
      <trkpt lat="44.30131" lon="5.35491">
        <ele>546</ele>
        <time>2018-02-21T11:01:27Z</time>
      </trkpt>
      <trkpt lat="44.3013" lon="5.35507">
        <ele>546</ele>
        <time>2018-02-21T11:01:29Z</time>
      </trkpt>
      <trkpt lat="44.30129" lon="5.35531">
        <ele>547</ele>
        <time>2018-02-21T11:01:32Z</time>
      </trkpt>
      <trkpt lat="44.30127" lon="5.35554">
        <ele>548</ele>
        <time>2018-02-21T11:01:35Z</time>
      </trkpt>
      <trkpt lat="44.30125" lon="5.3557">
        <ele>548</ele>
        <time>2018-02-21T11:01:37Z</time>
      </trkpt>
      <trkpt lat="44.30119" lon="5.35593">
        <ele>548</ele>
        <time>2018-02-21T11:01:40Z</time>
      </trkpt>
      <trkpt lat="44.30115" lon="5.35617">
        <ele>548</ele>
        <time>2018-02-21T11:01:43Z</time>
      </trkpt>
      <trkpt lat="44.30112" lon="5.35641">
        <ele>548</ele>
        <time>2018-02-21T11:01:46Z</time>
      </trkpt>
      <trkpt lat="44.30109" lon="5.35666">
        <ele>548</ele>
        <time>2018-02-21T11:01:49Z</time>
      </trkpt>
      <trkpt lat="44.30106" lon="5.35683">
        <ele>549</ele>
        <time>2018-02-21T11:01:51Z</time>
      </trkpt>
      <trkpt lat="44.30102" lon="5.35707">
        <ele>549</ele>
        <time>2018-02-21T11:01:54Z</time>
      </trkpt>
      <trkpt lat="44.30097" lon="5.35732">
        <ele>549</ele>
        <time>2018-02-21T11:01:57Z</time>
      </trkpt>
      <trkpt lat="44.30093" lon="5.35757">
        <ele>549</ele>
        <time>2018-02-21T11:02:00Z</time>
      </trkpt>
      <trkpt lat="44.30088" lon="5.35781">
        <ele>549</ele>
        <time>2018-02-21T11:02:03Z</time>
      </trkpt>
      <trkpt lat="44.30082" lon="5.35805">
        <ele>549</ele>
        <time>2018-02-21T11:02:06Z</time>
      </trkpt>
      <trkpt lat="44.30077" lon="5.35821">
        <ele>549</ele>
        <time>2018-02-21T11:02:08Z</time>
      </trkpt>
      <trkpt lat="44.30069" lon="5.35843">
        <ele>549</ele>
        <time>2018-02-21T11:02:11Z</time>
      </trkpt>
      <trkpt lat="44.30061" lon="5.35866">
        <ele>548</ele>
        <time>2018-02-21T11:02:14Z</time>
      </trkpt>
      <trkpt lat="44.30055" lon="5.35881">
        <ele>548</ele>
        <time>2018-02-21T11:02:16Z</time>
      </trkpt>
      <trkpt lat="44.30045" lon="5.35904">
        <ele>549</ele>
        <time>2018-02-21T11:02:19Z</time>
      </trkpt>
      <trkpt lat="44.30037" lon="5.35927">
        <ele>549</ele>
        <time>2018-02-21T11:02:22Z</time>
      </trkpt>
      <trkpt lat="44.30029" lon="5.35952">
        <ele>549</ele>
        <time>2018-02-21T11:02:25Z</time>
      </trkpt>
      <trkpt lat="44.30022" lon="5.35977">
        <ele>549</ele>
        <time>2018-02-21T11:02:28Z</time>
      </trkpt>
      <trkpt lat="44.30015" lon="5.36002">
        <ele>549</ele>
        <time>2018-02-21T11:02:31Z</time>
      </trkpt>
      <trkpt lat="44.30007" lon="5.36027">
        <ele>549</ele>
        <time>2018-02-21T11:02:34Z</time>
      </trkpt>
      <trkpt lat="44.30001" lon="5.36052">
        <ele>549</ele>
        <time>2018-02-21T11:02:37Z</time>
      </trkpt>
      <trkpt lat="44.29998" lon="5.36078">
        <ele>549</ele>
        <time>2018-02-21T11:02:40Z</time>
      </trkpt>
      <trkpt lat="44.29997" lon="5.36095">
        <ele>549</ele>
        <time>2018-02-21T11:02:42Z</time>
      </trkpt>
      <trkpt lat="44.29998" lon="5.36113">
        <ele>549</ele>
        <time>2018-02-21T11:02:44Z</time>
      </trkpt>
      <trkpt lat="44.3" lon="5.36139">
        <ele>550</ele>
        <time>2018-02-21T11:02:47Z</time>
      </trkpt>
      <trkpt lat="44.30003" lon="5.36165">
        <ele>551</ele>
        <time>2018-02-21T11:02:50Z</time>
      </trkpt>
      <trkpt lat="44.30007" lon="5.3619">
        <ele>551</ele>
        <time>2018-02-21T11:02:53Z</time>
      </trkpt>
      <trkpt lat="44.30012" lon="5.36214">
        <ele>551</ele>
        <time>2018-02-21T11:02:56Z</time>
      </trkpt>
      <trkpt lat="44.30016" lon="5.36238">
        <ele>551</ele>
        <time>2018-02-21T11:02:59Z</time>
      </trkpt>
      <trkpt lat="44.30021" lon="5.36262">
        <ele>551</ele>
        <time>2018-02-21T11:03:02Z</time>
      </trkpt>
      <trkpt lat="44.30025" lon="5.36286">
        <ele>551</ele>
        <time>2018-02-21T11:03:05Z</time>
      </trkpt>
      <trkpt lat="44.30028" lon="5.36303">
        <ele>550</ele>
        <time>2018-02-21T11:03:07Z</time>
      </trkpt>
      <trkpt lat="44.30033" lon="5.36327">
        <ele>550</ele>
        <time>2018-02-21T11:03:10Z</time>
      </trkpt>
      <trkpt lat="44.30037" lon="5.36351">
        <ele>550</ele>
        <time>2018-02-21T11:03:13Z</time>
      </trkpt>
      <trkpt lat="44.30043" lon="5.36375">
        <ele>550</ele>
        <time>2018-02-21T11:03:16Z</time>
      </trkpt>
      <trkpt lat="44.3005" lon="5.36396">
        <ele>550</ele>
        <time>2018-02-21T11:03:19Z</time>
      </trkpt>
      <trkpt lat="44.30056" lon="5.36408">
        <ele>550</ele>
        <time>2018-02-21T11:03:21Z</time>
      </trkpt>
      <trkpt lat="44.30064" lon="5.36425">
        <ele>551</ele>
        <time>2018-02-21T11:03:24Z</time>
      </trkpt>
      <trkpt lat="44.30074" lon="5.36442">
        <ele>551</ele>
        <time>2018-02-21T11:03:27Z</time>
      </trkpt>
      <trkpt lat="44.3008" lon="5.36453">
        <ele>552</ele>
        <time>2018-02-21T11:03:29Z</time>
      </trkpt>
      <trkpt lat="44.30086" lon="5.36465">
        <ele>552</ele>
        <time>2018-02-21T11:03:31Z</time>
      </trkpt>
      <trkpt lat="44.30095" lon="5.36482">
        <ele>553</ele>
        <time>2018-02-21T11:03:34Z</time>
      </trkpt>
      <trkpt lat="44.30103" lon="5.365">
        <ele>554</ele>
        <time>2018-02-21T11:03:37Z</time>
      </trkpt>
      <trkpt lat="44.3011" lon="5.36519">
        <ele>554</ele>
        <time>2018-02-21T11:03:40Z</time>
      </trkpt>
      <trkpt lat="44.30114" lon="5.36539">
        <ele>555</ele>
        <time>2018-02-21T11:03:43Z</time>
      </trkpt>
      <trkpt lat="44.30115" lon="5.36553">
        <ele>555</ele>
        <time>2018-02-21T11:03:45Z</time>
      </trkpt>
      <trkpt lat="44.30117" lon="5.36573">
        <ele>556</ele>
        <time>2018-02-21T11:03:48Z</time>
      </trkpt>
      <trkpt lat="44.30118" lon="5.36593">
        <ele>556</ele>
        <time>2018-02-21T11:03:51Z</time>
      </trkpt>
      <trkpt lat="44.30119" lon="5.36607">
        <ele>555</ele>
        <time>2018-02-21T11:03:53Z</time>
      </trkpt>
      <trkpt lat="44.30119" lon="5.3662">
        <ele>556</ele>
        <time>2018-02-21T11:03:55Z</time>
      </trkpt>
      <trkpt lat="44.3012" lon="5.36641">
        <ele>556</ele>
        <time>2018-02-21T11:03:58Z</time>
      </trkpt>
      <trkpt lat="44.3012" lon="5.36655">
        <ele>557</ele>
        <time>2018-02-21T11:04:00Z</time>
      </trkpt>
      <trkpt lat="44.3012" lon="5.36668">
        <ele>557</ele>
        <time>2018-02-21T11:04:02Z</time>
      </trkpt>
      <trkpt lat="44.30119" lon="5.36683">
        <ele>557</ele>
        <time>2018-02-21T11:04:04Z</time>
      </trkpt>
      <trkpt lat="44.30118" lon="5.36703">
        <ele>557</ele>
        <time>2018-02-21T11:04:07Z</time>
      </trkpt>
      <trkpt lat="44.30117" lon="5.36724">
        <ele>558</ele>
        <time>2018-02-21T11:04:10Z</time>
      </trkpt>
      <trkpt lat="44.30115" lon="5.36745">
        <ele>559</ele>
        <time>2018-02-21T11:04:13Z</time>
      </trkpt>
      <trkpt lat="44.30113" lon="5.36765">
        <ele>559</ele>
        <time>2018-02-21T11:04:16Z</time>
      </trkpt>
      <trkpt lat="44.30112" lon="5.3678">
        <ele>559</ele>
        <time>2018-02-21T11:04:18Z</time>
      </trkpt>
      <trkpt lat="44.30111" lon="5.36801">
        <ele>559</ele>
        <time>2018-02-21T11:04:21Z</time>
      </trkpt>
      <trkpt lat="44.30108" lon="5.36822">
        <ele>559</ele>
        <time>2018-02-21T11:04:24Z</time>
      </trkpt>
      <trkpt lat="44.30103" lon="5.36843">
        <ele>560</ele>
        <time>2018-02-21T11:04:27Z</time>
      </trkpt>
      <trkpt lat="44.30096" lon="5.36862">
        <ele>560</ele>
        <time>2018-02-21T11:04:30Z</time>
      </trkpt>
      <trkpt lat="44.3009" lon="5.36882">
        <ele>560</ele>
        <time>2018-02-21T11:04:33Z</time>
      </trkpt>
      <trkpt lat="44.30087" lon="5.36895">
        <ele>560</ele>
        <time>2018-02-21T11:04:35Z</time>
      </trkpt>
      <trkpt lat="44.30085" lon="5.3691">
        <ele>560</ele>
        <time>2018-02-21T11:04:37Z</time>
      </trkpt>
      <trkpt lat="44.30084" lon="5.36932">
        <ele>560</ele>
        <time>2018-02-21T11:04:40Z</time>
      </trkpt>
      <trkpt lat="44.30083" lon="5.36946">
        <ele>560</ele>
        <time>2018-02-21T11:04:42Z</time>
      </trkpt>
      <trkpt lat="44.30082" lon="5.36968">
        <ele>561</ele>
        <time>2018-02-21T11:04:45Z</time>
      </trkpt>
      <trkpt lat="44.30081" lon="5.36982">
        <ele>561</ele>
        <time>2018-02-21T11:04:47Z</time>
      </trkpt>
      <trkpt lat="44.30081" lon="5.36996">
        <ele>562</ele>
        <time>2018-02-21T11:04:49Z</time>
      </trkpt>
      <trkpt lat="44.30082" lon="5.37017">
        <ele>563</ele>
        <time>2018-02-21T11:04:52Z</time>
      </trkpt>
      <trkpt lat="44.30082" lon="5.37031">
        <ele>563</ele>
        <time>2018-02-21T11:04:54Z</time>
      </trkpt>
      <trkpt lat="44.30084" lon="5.37052">
        <ele>564</ele>
        <time>2018-02-21T11:04:57Z</time>
      </trkpt>
      <trkpt lat="44.30086" lon="5.37073">
        <ele>564</ele>
        <time>2018-02-21T11:05:00Z</time>
      </trkpt>
      <trkpt lat="44.30086" lon="5.37087">
        <ele>565</ele>
        <time>2018-02-21T11:05:02Z</time>
      </trkpt>
      <trkpt lat="44.30086" lon="5.37101">
        <ele>565</ele>
        <time>2018-02-21T11:05:04Z</time>
      </trkpt>
      <trkpt lat="44.30085" lon="5.37115">
        <ele>565</ele>
        <time>2018-02-21T11:05:06Z</time>
      </trkpt>
      <trkpt lat="44.30085" lon="5.37136">
        <ele>565</ele>
        <time>2018-02-21T11:05:09Z</time>
      </trkpt>
      <trkpt lat="44.30085" lon="5.37157">
        <ele>565</ele>
        <time>2018-02-21T11:05:12Z</time>
      </trkpt>
      <trkpt lat="44.30084" lon="5.37178">
        <ele>566</ele>
        <time>2018-02-21T11:05:15Z</time>
      </trkpt>
      <trkpt lat="44.30083" lon="5.37192">
        <ele>567</ele>
        <time>2018-02-21T11:05:17Z</time>
      </trkpt>
      <trkpt lat="44.30083" lon="5.37206">
        <ele>567</ele>
        <time>2018-02-21T11:05:19Z</time>
      </trkpt>
      <trkpt lat="44.30083" lon="5.37219">
        <ele>567</ele>
        <time>2018-02-21T11:05:21Z</time>
      </trkpt>
      <trkpt lat="44.30082" lon="5.3724">
        <ele>568</ele>
        <time>2018-02-21T11:05:24Z</time>
      </trkpt>
      <trkpt lat="44.30081" lon="5.37253">
        <ele>569</ele>
        <time>2018-02-21T11:05:26Z</time>
      </trkpt>
      <trkpt lat="44.30078" lon="5.37273">
        <ele>570</ele>
        <time>2018-02-21T11:05:29Z</time>
      </trkpt>
      <trkpt lat="44.30075" lon="5.37286">
        <ele>571</ele>
        <time>2018-02-21T11:05:31Z</time>
      </trkpt>
      <trkpt lat="44.30069" lon="5.37304">
        <ele>572</ele>
        <time>2018-02-21T11:05:34Z</time>
      </trkpt>
      <trkpt lat="44.30062" lon="5.37322">
        <ele>572</ele>
        <time>2018-02-21T11:05:37Z</time>
      </trkpt>
      <trkpt lat="44.30056" lon="5.37338">
        <ele>571</ele>
        <time>2018-02-21T11:05:40Z</time>
      </trkpt>
      <trkpt lat="44.30051" lon="5.37354">
        <ele>572</ele>
        <time>2018-02-21T11:05:43Z</time>
      </trkpt>
      <trkpt lat="44.30047" lon="5.37365">
        <ele>573</ele>
        <time>2018-02-21T11:05:45Z</time>
      </trkpt>
      <trkpt lat="44.30043" lon="5.37377">
        <ele>573</ele>
        <time>2018-02-21T11:05:47Z</time>
      </trkpt>
      <trkpt lat="44.30041" lon="5.37395">
        <ele>574</ele>
        <time>2018-02-21T11:05:50Z</time>
      </trkpt>
      <trkpt lat="44.30041" lon="5.37409">
        <ele>574</ele>
        <time>2018-02-21T11:05:52Z</time>
      </trkpt>
      <trkpt lat="44.30045" lon="5.37429">
        <ele>575</ele>
        <time>2018-02-21T11:05:55Z</time>
      </trkpt>
      <trkpt lat="44.30052" lon="5.37449">
        <ele>575</ele>
        <time>2018-02-21T11:05:58Z</time>
      </trkpt>
      <trkpt lat="44.30057" lon="5.37463">
        <ele>575</ele>
        <time>2018-02-21T11:06:00Z</time>
      </trkpt>
      <trkpt lat="44.30062" lon="5.37477">
        <ele>575</ele>
        <time>2018-02-21T11:06:02Z</time>
      </trkpt>
      <trkpt lat="44.30067" lon="5.37491">
        <ele>575</ele>
        <time>2018-02-21T11:06:04Z</time>
      </trkpt>
      <trkpt lat="44.30073" lon="5.37513">
        <ele>575</ele>
        <time>2018-02-21T11:06:07Z</time>
      </trkpt>
      <trkpt lat="44.30075" lon="5.37528">
        <ele>575</ele>
        <time>2018-02-21T11:06:09Z</time>
      </trkpt>
      <trkpt lat="44.30075" lon="5.37543">
        <ele>575</ele>
        <time>2018-02-21T11:06:11Z</time>
      </trkpt>
      <trkpt lat="44.30076" lon="5.37566">
        <ele>576</ele>
        <time>2018-02-21T11:06:14Z</time>
      </trkpt>
      <trkpt lat="44.30075" lon="5.37581">
        <ele>576</ele>
        <time>2018-02-21T11:06:16Z</time>
      </trkpt>
      <trkpt lat="44.30075" lon="5.37597">
        <ele>576</ele>
        <time>2018-02-21T11:06:18Z</time>
      </trkpt>
      <trkpt lat="44.30074" lon="5.37612">
        <ele>576</ele>
        <time>2018-02-21T11:06:20Z</time>
      </trkpt>
      <trkpt lat="44.30072" lon="5.37636">
        <ele>575</ele>
        <time>2018-02-21T11:06:23Z</time>
      </trkpt>
      <trkpt lat="44.30069" lon="5.37651">
        <ele>575</ele>
        <time>2018-02-21T11:06:25Z</time>
      </trkpt>
      <trkpt lat="44.30065" lon="5.37675">
        <ele>576</ele>
        <time>2018-02-21T11:06:28Z</time>
      </trkpt>
      <trkpt lat="44.30061" lon="5.37691">
        <ele>576</ele>
        <time>2018-02-21T11:06:30Z</time>
      </trkpt>
      <trkpt lat="44.30059" lon="5.37707">
        <ele>576</ele>
        <time>2018-02-21T11:06:32Z</time>
      </trkpt>
      <trkpt lat="44.30056" lon="5.37723">
        <ele>576</ele>
        <time>2018-02-21T11:06:34Z</time>
      </trkpt>
      <trkpt lat="44.30055" lon="5.37748">
        <ele>575</ele>
        <time>2018-02-21T11:06:37Z</time>
      </trkpt>
      <trkpt lat="44.30055" lon="5.37764">
        <ele>575</ele>
        <time>2018-02-21T11:06:39Z</time>
      </trkpt>
      <trkpt lat="44.30055" lon="5.37788">
        <ele>575</ele>
        <time>2018-02-21T11:06:42Z</time>
      </trkpt>
      <trkpt lat="44.30056" lon="5.37804">
        <ele>575</ele>
        <time>2018-02-21T11:06:44Z</time>
      </trkpt>
      <trkpt lat="44.30058" lon="5.37819">
        <ele>576</ele>
        <time>2018-02-21T11:06:46Z</time>
      </trkpt>
      <trkpt lat="44.30062" lon="5.37841">
        <ele>575</ele>
        <time>2018-02-21T11:06:49Z</time>
      </trkpt>
      <trkpt lat="44.30064" lon="5.37855">
        <ele>576</ele>
        <time>2018-02-21T11:06:51Z</time>
      </trkpt>
      <trkpt lat="44.30064" lon="5.37877">
        <ele>576</ele>
        <time>2018-02-21T11:06:54Z</time>
      </trkpt>
      <trkpt lat="44.30062" lon="5.379">
        <ele>576</ele>
        <time>2018-02-21T11:06:57Z</time>
      </trkpt>
      <trkpt lat="44.30061" lon="5.37921">
        <ele>575</ele>
        <time>2018-02-21T11:07:00Z</time>
      </trkpt>
      <trkpt lat="44.3006" lon="5.37933">
        <ele>575</ele>
        <time>2018-02-21T11:07:02Z</time>
      </trkpt>
      <trkpt lat="44.30059" lon="5.3795">
        <ele>575</ele>
        <time>2018-02-21T11:07:05Z</time>
      </trkpt>
      <trkpt lat="44.30059" lon="5.37958">
        <ele>575</ele>
        <time>2018-02-21T11:07:07Z</time>
      </trkpt>
      <trkpt lat="44.30058" lon="5.37969">
        <ele>576</ele>
        <time>2018-02-21T11:07:10Z</time>
      </trkpt>
      <trkpt lat="44.30058" lon="5.37974">
        <ele>576</ele>
        <time>2018-02-21T11:07:12Z</time>
      </trkpt>
      <trkpt lat="44.30059" lon="5.37983">
        <ele>576</ele>
        <time>2018-02-21T11:07:15Z</time>
      </trkpt>
      <trkpt lat="44.30058" lon="5.37989">
        <ele>576</ele>
        <time>2018-02-21T11:07:17Z</time>
      </trkpt>
      <trkpt lat="44.30059" lon="5.37999">
        <ele>575</ele>
        <time>2018-02-21T11:07:20Z</time>
      </trkpt>
      <trkpt lat="44.30059" lon="5.38004">
        <ele>575</ele>
        <time>2018-02-21T11:07:22Z</time>
      </trkpt>
      <trkpt lat="44.30058" lon="5.38011">
        <ele>575</ele>
        <time>2018-02-21T11:07:25Z</time>
      </trkpt>
      <trkpt lat="44.30057" lon="5.38018">
        <ele>576</ele>
        <time>2018-02-21T11:07:28Z</time>
      </trkpt>
      <trkpt lat="44.30058" lon="5.38025">
        <ele>576</ele>
        <time>2018-02-21T11:07:31Z</time>
      </trkpt>
      <trkpt lat="44.3006" lon="5.38023">
        <ele>576</ele>
        <time>2018-02-21T11:07:33Z</time>
      </trkpt>
      <trkpt lat="44.3006" lon="5.38018">
        <ele>577</ele>
        <time>2018-02-21T11:07:35Z</time>
      </trkpt>
      <trkpt lat="44.30061" lon="5.3801">
        <ele>578</ele>
        <time>2018-02-21T11:07:38Z</time>
      </trkpt>
      <trkpt lat="44.3006" lon="5.38001">
        <ele>580</ele>
        <time>2018-02-21T11:07:41Z</time>
      </trkpt>
      <trkpt lat="44.30061" lon="5.37992">
        <ele>579</ele>
        <time>2018-02-21T11:07:44Z</time>
      </trkpt>
      <trkpt lat="44.3006" lon="5.37985">
        <ele>578</ele>
        <time>2018-02-21T11:07:46Z</time>
      </trkpt>
      <trkpt lat="44.30061" lon="5.37977">
        <ele>577</ele>
        <time>2018-02-21T11:07:48Z</time>
      </trkpt>
      <trkpt lat="44.30062" lon="5.37963">
        <ele>577</ele>
        <time>2018-02-21T11:07:51Z</time>
      </trkpt>
      <trkpt lat="44.30062" lon="5.37954">
        <ele>576</ele>
        <time>2018-02-21T11:07:53Z</time>
      </trkpt>
      <trkpt lat="44.30063" lon="5.3794">
        <ele>576</ele>
        <time>2018-02-21T11:07:56Z</time>
      </trkpt>
      <trkpt lat="44.30063" lon="5.37931">
        <ele>575</ele>
        <time>2018-02-21T11:07:58Z</time>
      </trkpt>
      <trkpt lat="44.30064" lon="5.3792">
        <ele>575</ele>
        <time>2018-02-21T11:08:01Z</time>
      </trkpt>
      <trkpt lat="44.30064" lon="5.37912">
        <ele>575</ele>
        <time>2018-02-21T11:08:03Z</time>
      </trkpt>
      <trkpt lat="44.30065" lon="5.37901">
        <ele>575</ele>
        <time>2018-02-21T11:08:06Z</time>
      </trkpt>
      <trkpt lat="44.30066" lon="5.37893">
        <ele>575</ele>
        <time>2018-02-21T11:08:08Z</time>
      </trkpt>
      <trkpt lat="44.30066" lon="5.37888">
        <ele>575</ele>
        <time>2018-02-21T11:08:10Z</time>
      </trkpt>
      <trkpt lat="44.30064" lon="5.37885">
        <ele>574</ele>
        <time>2018-02-21T11:08:13Z</time>
      </trkpt>
      <trkpt lat="44.30063" lon="5.37888">
        <ele>574</ele>
        <time>2018-02-21T11:08:16Z</time>
      </trkpt>
      <trkpt lat="44.30062" lon="5.37891">
        <ele>574</ele>
        <time>2018-02-21T11:08:18Z</time>
      </trkpt>
      <trkpt lat="44.30062" lon="5.37895">
        <ele>574</ele>
        <time>2018-02-21T11:08:21Z</time>
      </trkpt>
      <trkpt lat="44.30062" lon="5.37897">
        <ele>574</ele>
        <time>2018-02-21T11:08:23Z</time>
      </trkpt>
      <trkpt lat="44.30062" lon="5.379">
        <ele>574</ele>
        <time>2018-02-21T11:08:26Z</time>
      </trkpt>
      <trkpt lat="44.30061" lon="5.379">
        <ele>574</ele>
        <time>2018-02-21T11:08:29Z</time>
      </trkpt>
      <trkpt lat="44.30061" lon="5.379">
        <ele>575</ele>
        <time>2018-02-21T11:08:36Z</time>
      </trkpt>
      <trkpt lat="44.30061" lon="5.379">
        <ele>575</ele>
        <time>2018-02-21T11:08:40Z</time>
      </trkpt>
      <trkpt lat="44.30061" lon="5.379">
        <ele>575</ele>
        <time>2018-02-21T11:08:46Z</time>
      </trkpt>
      <trkpt lat="44.30061" lon="5.379">
        <ele>575</ele>
        <time>2018-02-21T11:08:49Z</time>
      </trkpt>
      <trkpt lat="44.30061" lon="5.37899">
        <ele>575</ele>
        <time>2018-02-21T11:08:52Z</time>
      </trkpt>
      <trkpt lat="44.30061" lon="5.37899">
        <ele>575</ele>
        <time>2018-02-21T11:08:54Z</time>
      </trkpt>
      <trkpt lat="44.30062" lon="5.37899">
        <ele>575</ele>
        <time>2018-02-21T11:08:58Z</time>
      </trkpt>
      <trkpt lat="44.30062" lon="5.37899">
        <ele>575</ele>
        <time>2018-02-21T11:09:01Z</time>
      </trkpt>
      <trkpt lat="44.30062" lon="5.37898">
        <ele>575</ele>
        <time>2018-02-21T11:09:03Z</time>
      </trkpt>
      <trkpt lat="44.30062" lon="5.37898">
        <ele>575</ele>
        <time>2018-02-21T11:09:06Z</time>
      </trkpt>
      <trkpt lat="44.30062" lon="5.37898">
        <ele>575</ele>
        <time>2018-02-21T11:09:09Z</time>
      </trkpt>
      <trkpt lat="44.30062" lon="5.37898">
        <ele>575</ele>
        <time>2018-02-21T11:09:11Z</time>
      </trkpt>
      <trkpt lat="44.30062" lon="5.37899">
        <ele>575</ele>
        <time>2018-02-21T11:09:14Z</time>
      </trkpt>
      <trkpt lat="44.30062" lon="5.37899">
        <ele>574</ele>
        <time>2018-02-21T11:09:17Z</time>
      </trkpt>
      <trkpt lat="44.30062" lon="5.37899">
        <ele>574</ele>
        <time>2018-02-21T11:09:19Z</time>
      </trkpt>
      <trkpt lat="44.30061" lon="5.37899">
        <ele>574</ele>
        <time>2018-02-21T11:09:21Z</time>
      </trkpt>
      <trkpt lat="44.30061" lon="5.37899">
        <ele>574</ele>
        <time>2018-02-21T11:09:23Z</time>
      </trkpt>
      <trkpt lat="44.30061" lon="5.37899">
        <ele>575</ele>
        <time>2018-02-21T11:09:27Z</time>
      </trkpt>
      <trkpt lat="44.30061" lon="5.37899">
        <ele>575</ele>
        <time>2018-02-21T11:09:30Z</time>
      </trkpt>
      <trkpt lat="44.3006" lon="5.37898">
        <ele>575</ele>
        <time>2018-02-21T11:09:33Z</time>
      </trkpt>
      <trkpt lat="44.3006" lon="5.37898">
        <ele>575</ele>
        <time>2018-02-21T11:09:36Z</time>
      </trkpt>
      <trkpt lat="44.3006" lon="5.37898">
        <ele>574</ele>
        <time>2018-02-21T11:09:40Z</time>
      </trkpt>
      <trkpt lat="44.3006" lon="5.37898">
        <ele>574</ele>
        <time>2018-02-21T11:09:45Z</time>
      </trkpt>
      <trkpt lat="44.3006" lon="5.37898">
        <ele>574</ele>
        <time>2018-02-21T11:09:48Z</time>
      </trkpt>
      <trkpt lat="44.3006" lon="5.37897">
        <ele>575</ele>
        <time>2018-02-21T11:09:53Z</time>
      </trkpt>
      <trkpt lat="44.3006" lon="5.37897">
        <ele>575</ele>
        <time>2018-02-21T11:09:56Z</time>
      </trkpt>
      <trkpt lat="44.3006" lon="5.37897">
        <ele>575</ele>
        <time>2018-02-21T11:10:01Z</time>
      </trkpt>
      <trkpt lat="44.30059" lon="5.37897">
        <ele>575</ele>
        <time>2018-02-21T11:10:04Z</time>
      </trkpt>
      <trkpt lat="44.3006" lon="5.37897">
        <ele>575</ele>
        <time>2018-02-21T11:10:07Z</time>
      </trkpt>
      <trkpt lat="44.3006" lon="5.37898">
        <ele>574</ele>
        <time>2018-02-21T11:10:10Z</time>
      </trkpt>
      <trkpt lat="44.30059" lon="5.37898">
        <ele>574</ele>
        <time>2018-02-21T11:10:18Z</time>
      </trkpt>
      <trkpt lat="44.30059" lon="5.37898">
        <ele>574</ele>
        <time>2018-02-21T11:10:22Z</time>
      </trkpt>
      <trkpt lat="44.30059" lon="5.37898">
        <ele>574</ele>
        <time>2018-02-21T11:10:28Z</time>
      </trkpt>
      <trkpt lat="44.3006" lon="5.37898">
        <ele>574</ele>
        <time>2018-02-21T11:10:31Z</time>
      </trkpt>
      <trkpt lat="44.3006" lon="5.37898">
        <ele>574</ele>
        <time>2018-02-21T11:10:35Z</time>
      </trkpt>
      <trkpt lat="44.30059" lon="5.37899">
        <ele>574</ele>
        <time>2018-02-21T11:10:38Z</time>
      </trkpt>
      <trkpt lat="44.30059" lon="5.37899">
        <ele>574</ele>
        <time>2018-02-21T11:10:41Z</time>
      </trkpt>
      <trkpt lat="44.3006" lon="5.37899">
        <ele>575</ele>
        <time>2018-02-21T11:10:43Z</time>
      </trkpt>
      <trkpt lat="44.3006" lon="5.379">
        <ele>575</ele>
        <time>2018-02-21T11:10:45Z</time>
      </trkpt>
      <trkpt lat="44.3006" lon="5.379">
        <ele>574</ele>
        <time>2018-02-21T11:10:50Z</time>
      </trkpt>
      <trkpt lat="44.30059" lon="5.379">
        <ele>574</ele>
        <time>2018-02-21T11:10:52Z</time>
      </trkpt>
      <trkpt lat="44.30059" lon="5.37901">
        <ele>574</ele>
        <time>2018-02-21T11:10:54Z</time>
      </trkpt>
      <trkpt lat="44.30059" lon="5.37901">
        <ele>574</ele>
        <time>2018-02-21T11:10:56Z</time>
      </trkpt>
      <trkpt lat="44.30059" lon="5.37901">
        <ele>575</ele>
        <time>2018-02-21T11:11:00Z</time>
      </trkpt>
      <trkpt lat="44.3006" lon="5.37901">
        <ele>575</ele>
        <time>2018-02-21T11:11:03Z</time>
      </trkpt>
      <trkpt lat="44.3006" lon="5.37901">
        <ele>575</ele>
        <time>2018-02-21T11:11:05Z</time>
      </trkpt>
      <trkpt lat="44.3006" lon="5.37902">
        <ele>575</ele>
        <time>2018-02-21T11:11:07Z</time>
      </trkpt>
      <trkpt lat="44.3006" lon="5.37902">
        <ele>575</ele>
        <time>2018-02-21T11:11:10Z</time>
      </trkpt>
      <trkpt lat="44.3006" lon="5.37902">
        <ele>575</ele>
        <time>2018-02-21T11:11:14Z</time>
      </trkpt>
      <trkpt lat="44.3006" lon="5.37902">
        <ele>575</ele>
        <time>2018-02-21T11:11:17Z</time>
      </trkpt>
      <trkpt lat="44.3006" lon="5.37902">
        <ele>575</ele>
        <time>2018-02-21T11:11:19Z</time>
      </trkpt>
      <trkpt lat="44.3006" lon="5.37902">
        <ele>575</ele>
        <time>2018-02-21T11:11:23Z</time>
      </trkpt>
      <trkpt lat="44.3006" lon="5.37902">
        <ele>575</ele>
        <time>2018-02-21T11:11:26Z</time>
      </trkpt>
      <trkpt lat="44.3006" lon="5.37903">
        <ele>575</ele>
        <time>2018-02-21T11:11:35Z</time>
      </trkpt>
      <trkpt lat="44.30061" lon="5.37903">
        <ele>575</ele>
        <time>2018-02-21T11:11:38Z</time>
      </trkpt>
      <trkpt lat="44.30061" lon="5.37903">
        <ele>575</ele>
        <time>2018-02-21T11:11:44Z</time>
      </trkpt>
      <trkpt lat="44.30061" lon="5.37903">
        <ele>575</ele>
        <time>2018-02-21T11:11:50Z</time>
      </trkpt>
      <trkpt lat="44.30061" lon="5.37903">
        <ele>575</ele>
        <time>2018-02-21T11:11:54Z</time>
      </trkpt>
      <trkpt lat="44.30061" lon="5.37903">
        <ele>575</ele>
        <time>2018-02-21T11:11:57Z</time>
      </trkpt>
      <trkpt lat="44.30061" lon="5.37904">
        <ele>575</ele>
        <time>2018-02-21T11:12:00Z</time>
      </trkpt>
      <trkpt lat="44.30061" lon="5.37904">
        <ele>575</ele>
        <time>2018-02-21T11:12:03Z</time>
      </trkpt>
      <trkpt lat="44.30061" lon="5.37904">
        <ele>575</ele>
        <time>2018-02-21T11:12:07Z</time>
      </trkpt>
      <trkpt lat="44.30061" lon="5.37905">
        <ele>575</ele>
        <time>2018-02-21T11:12:10Z</time>
      </trkpt>
      <trkpt lat="44.30061" lon="5.37905">
        <ele>575</ele>
        <time>2018-02-21T11:12:14Z</time>
      </trkpt>
      <trkpt lat="44.30061" lon="5.37905">
        <ele>574</ele>
        <time>2018-02-21T11:12:17Z</time>
      </trkpt>
      <trkpt lat="44.30061" lon="5.37905">
        <ele>575</ele>
        <time>2018-02-21T11:12:21Z</time>
      </trkpt>
      <trkpt lat="44.30062" lon="5.37905">
        <ele>575</ele>
        <time>2018-02-21T11:12:24Z</time>
      </trkpt>
      <trkpt lat="44.30062" lon="5.37905">
        <ele>575</ele>
        <time>2018-02-21T11:12:29Z</time>
      </trkpt>
      <trkpt lat="44.30062" lon="5.37906">
        <ele>574</ele>
        <time>2018-02-21T11:12:35Z</time>
      </trkpt>
      <trkpt lat="44.30062" lon="5.37905">
        <ele>574</ele>
        <time>2018-02-21T11:12:37Z</time>
      </trkpt>
      <trkpt lat="44.30062" lon="5.37905">
        <ele>573</ele>
        <time>2018-02-21T11:12:41Z</time>
      </trkpt>
      <trkpt lat="44.30062" lon="5.37905">
        <ele>573</ele>
        <time>2018-02-21T11:12:43Z</time>
      </trkpt>
      <trkpt lat="44.30063" lon="5.37905">
        <ele>573</ele>
        <time>2018-02-21T11:12:45Z</time>
      </trkpt>
      <trkpt lat="44.30063" lon="5.37905">
        <ele>573</ele>
        <time>2018-02-21T11:12:47Z</time>
      </trkpt>
      <trkpt lat="44.30063" lon="5.37906">
        <ele>573</ele>
        <time>2018-02-21T11:12:50Z</time>
      </trkpt>
      <trkpt lat="44.30063" lon="5.37906">
        <ele>574</ele>
        <time>2018-02-21T11:12:52Z</time>
      </trkpt>
      <trkpt lat="44.30063" lon="5.37906">
        <ele>574</ele>
        <time>2018-02-21T11:12:55Z</time>
      </trkpt>
      <trkpt lat="44.30063" lon="5.37906">
        <ele>574</ele>
        <time>2018-02-21T11:12:58Z</time>
      </trkpt>
      <trkpt lat="44.30063" lon="5.37906">
        <ele>574</ele>
        <time>2018-02-21T11:13:00Z</time>
      </trkpt>
      <trkpt lat="44.30064" lon="5.37907">
        <ele>573</ele>
        <time>2018-02-21T11:13:03Z</time>
      </trkpt>
      <trkpt lat="44.30064" lon="5.37907">
        <ele>573</ele>
        <time>2018-02-21T11:13:07Z</time>
      </trkpt>
      <trkpt lat="44.30064" lon="5.37907">
        <ele>573</ele>
        <time>2018-02-21T11:13:10Z</time>
      </trkpt>
      <trkpt lat="44.30064" lon="5.37908">
        <ele>573</ele>
        <time>2018-02-21T11:13:12Z</time>
      </trkpt>
      <trkpt lat="44.30064" lon="5.37908">
        <ele>573</ele>
        <time>2018-02-21T11:13:16Z</time>
      </trkpt>
      <trkpt lat="44.30064" lon="5.37909">
        <ele>573</ele>
        <time>2018-02-21T11:13:18Z</time>
      </trkpt>
      <trkpt lat="44.30064" lon="5.3791">
        <ele>573</ele>
        <time>2018-02-21T11:13:20Z</time>
      </trkpt>
      <trkpt lat="44.30065" lon="5.37911">
        <ele>573</ele>
        <time>2018-02-21T11:13:23Z</time>
      </trkpt>
      <trkpt lat="44.30066" lon="5.37914">
        <ele>574</ele>
        <time>2018-02-21T11:13:25Z</time>
      </trkpt>
      <trkpt lat="44.30066" lon="5.37919">
        <ele>574</ele>
        <time>2018-02-21T11:13:28Z</time>
      </trkpt>
      <trkpt lat="44.30066" lon="5.37926">
        <ele>574</ele>
        <time>2018-02-21T11:13:31Z</time>
      </trkpt>
      <trkpt lat="44.30066" lon="5.37933">
        <ele>574</ele>
        <time>2018-02-21T11:13:33Z</time>
      </trkpt>
      <trkpt lat="44.30066" lon="5.37941">
        <ele>574</ele>
        <time>2018-02-21T11:13:35Z</time>
      </trkpt>
      <trkpt lat="44.30065" lon="5.37954">
        <ele>574</ele>
        <time>2018-02-21T11:13:38Z</time>
      </trkpt>
      <trkpt lat="44.30064" lon="5.37964">
        <ele>574</ele>
        <time>2018-02-21T11:13:40Z</time>
      </trkpt>
      <trkpt lat="44.30064" lon="5.37973">
        <ele>574</ele>
        <time>2018-02-21T11:13:42Z</time>
      </trkpt>
      <trkpt lat="44.30064" lon="5.37982">
        <ele>574</ele>
        <time>2018-02-21T11:13:44Z</time>
      </trkpt>
      <trkpt lat="44.30062" lon="5.37996">
        <ele>575</ele>
        <time>2018-02-21T11:13:47Z</time>
      </trkpt>
      <trkpt lat="44.3006" lon="5.38006">
        <ele>575</ele>
        <time>2018-02-21T11:13:49Z</time>
      </trkpt>
      <trkpt lat="44.30059" lon="5.38015">
        <ele>575</ele>
        <time>2018-02-21T11:13:51Z</time>
      </trkpt>
      <trkpt lat="44.30057" lon="5.38031">
        <ele>575</ele>
        <time>2018-02-21T11:13:54Z</time>
      </trkpt>
      <trkpt lat="44.30056" lon="5.38047">
        <ele>575</ele>
        <time>2018-02-21T11:13:57Z</time>
      </trkpt>
      <trkpt lat="44.30054" lon="5.38059">
        <ele>576</ele>
        <time>2018-02-21T11:13:59Z</time>
      </trkpt>
      <trkpt lat="44.30051" lon="5.38075">
        <ele>576</ele>
        <time>2018-02-21T11:14:02Z</time>
      </trkpt>
      <trkpt lat="44.30049" lon="5.38086">
        <ele>576</ele>
        <time>2018-02-21T11:14:04Z</time>
      </trkpt>
      <trkpt lat="44.30046" lon="5.38102">
        <ele>576</ele>
        <time>2018-02-21T11:14:07Z</time>
      </trkpt>
      <trkpt lat="44.30042" lon="5.38118">
        <ele>576</ele>
        <time>2018-02-21T11:14:10Z</time>
      </trkpt>
      <trkpt lat="44.30038" lon="5.38133">
        <ele>576</ele>
        <time>2018-02-21T11:14:13Z</time>
      </trkpt>
      <trkpt lat="44.30035" lon="5.38144">
        <ele>576</ele>
        <time>2018-02-21T11:14:15Z</time>
      </trkpt>
      <trkpt lat="44.3003" lon="5.38159">
        <ele>576</ele>
        <time>2018-02-21T11:14:18Z</time>
      </trkpt>
      <trkpt lat="44.30026" lon="5.38169">
        <ele>576</ele>
        <time>2018-02-21T11:14:20Z</time>
      </trkpt>
      <trkpt lat="44.30023" lon="5.38179">
        <ele>577</ele>
        <time>2018-02-21T11:14:22Z</time>
      </trkpt>
      <trkpt lat="44.3002" lon="5.38189">
        <ele>577</ele>
        <time>2018-02-21T11:14:24Z</time>
      </trkpt>
      <trkpt lat="44.30014" lon="5.38204">
        <ele>577</ele>
        <time>2018-02-21T11:14:27Z</time>
      </trkpt>
      <trkpt lat="44.30009" lon="5.38219">
        <ele>577</ele>
        <time>2018-02-21T11:14:30Z</time>
      </trkpt>
      <trkpt lat="44.30003" lon="5.38235">
        <ele>577</ele>
        <time>2018-02-21T11:14:33Z</time>
      </trkpt>
      <trkpt lat="44.29998" lon="5.3825">
        <ele>577</ele>
        <time>2018-02-21T11:14:36Z</time>
      </trkpt>
      <trkpt lat="44.29993" lon="5.38265">
        <ele>577</ele>
        <time>2018-02-21T11:14:39Z</time>
      </trkpt>
      <trkpt lat="44.2999" lon="5.38275">
        <ele>578</ele>
        <time>2018-02-21T11:14:41Z</time>
      </trkpt>
      <trkpt lat="44.29984" lon="5.3829">
        <ele>578</ele>
        <time>2018-02-21T11:14:44Z</time>
      </trkpt>
      <trkpt lat="44.29981" lon="5.383">
        <ele>578</ele>
        <time>2018-02-21T11:14:46Z</time>
      </trkpt>
      <trkpt lat="44.29975" lon="5.38315">
        <ele>579</ele>
        <time>2018-02-21T11:14:49Z</time>
      </trkpt>
      <trkpt lat="44.2997" lon="5.38331">
        <ele>579</ele>
        <time>2018-02-21T11:14:52Z</time>
      </trkpt>
      <trkpt lat="44.29965" lon="5.38348">
        <ele>579</ele>
        <time>2018-02-21T11:14:55Z</time>
      </trkpt>
      <trkpt lat="44.29961" lon="5.38358">
        <ele>579</ele>
        <time>2018-02-21T11:14:57Z</time>
      </trkpt>
      <trkpt lat="44.29956" lon="5.38374">
        <ele>579</ele>
        <time>2018-02-21T11:15:00Z</time>
      </trkpt>
      <trkpt lat="44.2995" lon="5.38392">
        <ele>579</ele>
        <time>2018-02-21T11:15:03Z</time>
      </trkpt>
      <trkpt lat="44.29947" lon="5.38404">
        <ele>579</ele>
        <time>2018-02-21T11:15:05Z</time>
      </trkpt>
      <trkpt lat="44.29941" lon="5.38422">
        <ele>580</ele>
        <time>2018-02-21T11:15:08Z</time>
      </trkpt>
      <trkpt lat="44.29935" lon="5.3844">
        <ele>580</ele>
        <time>2018-02-21T11:15:11Z</time>
      </trkpt>
      <trkpt lat="44.29931" lon="5.38451">
        <ele>580</ele>
        <time>2018-02-21T11:15:13Z</time>
      </trkpt>
      <trkpt lat="44.29926" lon="5.38468">
        <ele>580</ele>
        <time>2018-02-21T11:15:16Z</time>
      </trkpt>
      <trkpt lat="44.29921" lon="5.3848">
        <ele>580</ele>
        <time>2018-02-21T11:15:18Z</time>
      </trkpt>
      <trkpt lat="44.29918" lon="5.38491">
        <ele>580</ele>
        <time>2018-02-21T11:15:20Z</time>
      </trkpt>
      <trkpt lat="44.29911" lon="5.3851">
        <ele>580</ele>
        <time>2018-02-21T11:15:23Z</time>
      </trkpt>
      <trkpt lat="44.29906" lon="5.38528">
        <ele>580</ele>
        <time>2018-02-21T11:15:26Z</time>
      </trkpt>
      <trkpt lat="44.29902" lon="5.38542">
        <ele>579</ele>
        <time>2018-02-21T11:15:28Z</time>
      </trkpt>
      <trkpt lat="44.29894" lon="5.38561">
        <ele>579</ele>
        <time>2018-02-21T11:15:31Z</time>
      </trkpt>
      <trkpt lat="44.29889" lon="5.38574">
        <ele>579</ele>
        <time>2018-02-21T11:15:33Z</time>
      </trkpt>
      <trkpt lat="44.29882" lon="5.38592">
        <ele>579</ele>
        <time>2018-02-21T11:15:36Z</time>
      </trkpt>
      <trkpt lat="44.29877" lon="5.38604">
        <ele>579</ele>
        <time>2018-02-21T11:15:38Z</time>
      </trkpt>
      <trkpt lat="44.29872" lon="5.38618">
        <ele>579</ele>
        <time>2018-02-21T11:15:40Z</time>
      </trkpt>
      <trkpt lat="44.29864" lon="5.38637">
        <ele>578</ele>
        <time>2018-02-21T11:15:43Z</time>
      </trkpt>
      <trkpt lat="44.29858" lon="5.38649">
        <ele>578</ele>
        <time>2018-02-21T11:15:45Z</time>
      </trkpt>
      <trkpt lat="44.29849" lon="5.38668">
        <ele>578</ele>
        <time>2018-02-21T11:15:48Z</time>
      </trkpt>
      <trkpt lat="44.2984" lon="5.38689">
        <ele>579</ele>
        <time>2018-02-21T11:15:51Z</time>
      </trkpt>
      <trkpt lat="44.29831" lon="5.38708">
        <ele>579</ele>
        <time>2018-02-21T11:15:54Z</time>
      </trkpt>
      <trkpt lat="44.29825" lon="5.38721">
        <ele>578</ele>
        <time>2018-02-21T11:15:56Z</time>
      </trkpt>
      <trkpt lat="44.29818" lon="5.38735">
        <ele>578</ele>
        <time>2018-02-21T11:15:58Z</time>
      </trkpt>
      <trkpt lat="44.29808" lon="5.38757">
        <ele>579</ele>
        <time>2018-02-21T11:16:01Z</time>
      </trkpt>
      <trkpt lat="44.29799" lon="5.38781">
        <ele>579</ele>
        <time>2018-02-21T11:16:04Z</time>
      </trkpt>
      <trkpt lat="44.29792" lon="5.38807">
        <ele>578</ele>
        <time>2018-02-21T11:16:07Z</time>
      </trkpt>
      <trkpt lat="44.29789" lon="5.38826">
        <ele>578</ele>
        <time>2018-02-21T11:16:09Z</time>
      </trkpt>
      <trkpt lat="44.29788" lon="5.38844">
        <ele>577</ele>
        <time>2018-02-21T11:16:11Z</time>
      </trkpt>
      <trkpt lat="44.29787" lon="5.38863">
        <ele>577</ele>
        <time>2018-02-21T11:16:13Z</time>
      </trkpt>
      <trkpt lat="44.29784" lon="5.38892">
        <ele>577</ele>
        <time>2018-02-21T11:16:16Z</time>
      </trkpt>
      <trkpt lat="44.29781" lon="5.3891">
        <ele>578</ele>
        <time>2018-02-21T11:16:18Z</time>
      </trkpt>
      <trkpt lat="44.29778" lon="5.38928">
        <ele>579</ele>
        <time>2018-02-21T11:16:20Z</time>
      </trkpt>
      <trkpt lat="44.29773" lon="5.38954">
        <ele>579</ele>
        <time>2018-02-21T11:16:23Z</time>
      </trkpt>
      <trkpt lat="44.2977" lon="5.38971">
        <ele>579</ele>
        <time>2018-02-21T11:16:25Z</time>
      </trkpt>
      <trkpt lat="44.29764" lon="5.38995">
        <ele>579</ele>
        <time>2018-02-21T11:16:28Z</time>
      </trkpt>
      <trkpt lat="44.29758" lon="5.3902">
        <ele>578</ele>
        <time>2018-02-21T11:16:31Z</time>
      </trkpt>
      <trkpt lat="44.29751" lon="5.39044">
        <ele>578</ele>
        <time>2018-02-21T11:16:34Z</time>
      </trkpt>
      <trkpt lat="44.29747" lon="5.39059">
        <ele>578</ele>
        <time>2018-02-21T11:16:36Z</time>
      </trkpt>
      <trkpt lat="44.2974" lon="5.39082">
        <ele>578</ele>
        <time>2018-02-21T11:16:39Z</time>
      </trkpt>
      <trkpt lat="44.29733" lon="5.39105">
        <ele>577</ele>
        <time>2018-02-21T11:16:42Z</time>
      </trkpt>
      <trkpt lat="44.29728" lon="5.3912">
        <ele>577</ele>
        <time>2018-02-21T11:16:44Z</time>
      </trkpt>
      <trkpt lat="44.29724" lon="5.39135">
        <ele>577</ele>
        <time>2018-02-21T11:16:46Z</time>
      </trkpt>
      <trkpt lat="44.29716" lon="5.39157">
        <ele>578</ele>
        <time>2018-02-21T11:16:49Z</time>
      </trkpt>
      <trkpt lat="44.29711" lon="5.39172">
        <ele>578</ele>
        <time>2018-02-21T11:16:51Z</time>
      </trkpt>
      <trkpt lat="44.29703" lon="5.39193">
        <ele>579</ele>
        <time>2018-02-21T11:16:54Z</time>
      </trkpt>
      <trkpt lat="44.29695" lon="5.39215">
        <ele>579</ele>
        <time>2018-02-21T11:16:57Z</time>
      </trkpt>
      <trkpt lat="44.29689" lon="5.39229">
        <ele>579</ele>
        <time>2018-02-21T11:16:59Z</time>
      </trkpt>
      <trkpt lat="44.29681" lon="5.3925">
        <ele>579</ele>
        <time>2018-02-21T11:17:02Z</time>
      </trkpt>
      <trkpt lat="44.29673" lon="5.39271">
        <ele>580</ele>
        <time>2018-02-21T11:17:05Z</time>
      </trkpt>
      <trkpt lat="44.29667" lon="5.39285">
        <ele>580</ele>
        <time>2018-02-21T11:17:07Z</time>
      </trkpt>
      <trkpt lat="44.29657" lon="5.39305">
        <ele>581</ele>
        <time>2018-02-21T11:17:10Z</time>
      </trkpt>
      <trkpt lat="44.2965" lon="5.39318">
        <ele>581</ele>
        <time>2018-02-21T11:17:12Z</time>
      </trkpt>
      <trkpt lat="44.2964" lon="5.39338">
        <ele>582</ele>
        <time>2018-02-21T11:17:15Z</time>
      </trkpt>
      <trkpt lat="44.29629" lon="5.39357">
        <ele>582</ele>
        <time>2018-02-21T11:17:18Z</time>
      </trkpt>
      <trkpt lat="44.29622" lon="5.39369">
        <ele>582</ele>
        <time>2018-02-21T11:17:20Z</time>
      </trkpt>
      <trkpt lat="44.29612" lon="5.39388">
        <ele>582</ele>
        <time>2018-02-21T11:17:23Z</time>
      </trkpt>
      <trkpt lat="44.29601" lon="5.39407">
        <ele>582</ele>
        <time>2018-02-21T11:17:26Z</time>
      </trkpt>
      <trkpt lat="44.2959" lon="5.39426">
        <ele>582</ele>
        <time>2018-02-21T11:17:29Z</time>
      </trkpt>
      <trkpt lat="44.29583" lon="5.39438">
        <ele>582</ele>
        <time>2018-02-21T11:17:31Z</time>
      </trkpt>
      <trkpt lat="44.29576" lon="5.39451">
        <ele>582</ele>
        <time>2018-02-21T11:17:33Z</time>
      </trkpt>
      <trkpt lat="44.29565" lon="5.39468">
        <ele>582</ele>
        <time>2018-02-21T11:17:36Z</time>
      </trkpt>
      <trkpt lat="44.29554" lon="5.39485">
        <ele>582</ele>
        <time>2018-02-21T11:17:39Z</time>
      </trkpt>
      <trkpt lat="44.29542" lon="5.39501">
        <ele>583</ele>
        <time>2018-02-21T11:17:42Z</time>
      </trkpt>
      <trkpt lat="44.29529" lon="5.39517">
        <ele>583</ele>
        <time>2018-02-21T11:17:45Z</time>
      </trkpt>
      <trkpt lat="44.2952" lon="5.39527">
        <ele>583</ele>
        <time>2018-02-21T11:17:47Z</time>
      </trkpt>
      <trkpt lat="44.29508" lon="5.39541">
        <ele>584</ele>
        <time>2018-02-21T11:17:50Z</time>
      </trkpt>
      <trkpt lat="44.29495" lon="5.39556">
        <ele>584</ele>
        <time>2018-02-21T11:17:53Z</time>
      </trkpt>
      <trkpt lat="44.29487" lon="5.39565">
        <ele>585</ele>
        <time>2018-02-21T11:17:55Z</time>
      </trkpt>
      <trkpt lat="44.29475" lon="5.39579">
        <ele>584</ele>
        <time>2018-02-21T11:17:58Z</time>
      </trkpt>
      <trkpt lat="44.29467" lon="5.3959">
        <ele>584</ele>
        <time>2018-02-21T11:18:00Z</time>
      </trkpt>
      <trkpt lat="44.29458" lon="5.39608">
        <ele>585</ele>
        <time>2018-02-21T11:18:03Z</time>
      </trkpt>
      <trkpt lat="44.2945" lon="5.39628">
        <ele>585</ele>
        <time>2018-02-21T11:18:06Z</time>
      </trkpt>
      <trkpt lat="44.29443" lon="5.3965">
        <ele>585</ele>
        <time>2018-02-21T11:18:09Z</time>
      </trkpt>
      <trkpt lat="44.29437" lon="5.39672">
        <ele>586</ele>
        <time>2018-02-21T11:18:12Z</time>
      </trkpt>
      <trkpt lat="44.29432" lon="5.39694">
        <ele>587</ele>
        <time>2018-02-21T11:18:15Z</time>
      </trkpt>
      <trkpt lat="44.29427" lon="5.39717">
        <ele>587</ele>
        <time>2018-02-21T11:18:18Z</time>
      </trkpt>
      <trkpt lat="44.29423" lon="5.39732">
        <ele>587</ele>
        <time>2018-02-21T11:18:20Z</time>
      </trkpt>
      <trkpt lat="44.29417" lon="5.39754">
        <ele>587</ele>
        <time>2018-02-21T11:18:23Z</time>
      </trkpt>
      <trkpt lat="44.29414" lon="5.39769">
        <ele>586</ele>
        <time>2018-02-21T11:18:25Z</time>
      </trkpt>
      <trkpt lat="44.29412" lon="5.39791">
        <ele>587</ele>
        <time>2018-02-21T11:18:28Z</time>
      </trkpt>
      <trkpt lat="44.2941" lon="5.39815">
        <ele>588</ele>
        <time>2018-02-21T11:18:31Z</time>
      </trkpt>
      <trkpt lat="44.29411" lon="5.39838">
        <ele>588</ele>
        <time>2018-02-21T11:18:34Z</time>
      </trkpt>
      <trkpt lat="44.29411" lon="5.39853">
        <ele>588</ele>
        <time>2018-02-21T11:18:36Z</time>
      </trkpt>
      <trkpt lat="44.29413" lon="5.39875">
        <ele>589</ele>
        <time>2018-02-21T11:18:39Z</time>
      </trkpt>
      <trkpt lat="44.29415" lon="5.39897">
        <ele>590</ele>
        <time>2018-02-21T11:18:42Z</time>
      </trkpt>
      <trkpt lat="44.29417" lon="5.39912">
        <ele>591</ele>
        <time>2018-02-21T11:18:44Z</time>
      </trkpt>
      <trkpt lat="44.29422" lon="5.39932">
        <ele>590</ele>
        <time>2018-02-21T11:18:47Z</time>
      </trkpt>
      <trkpt lat="44.29427" lon="5.39945">
        <ele>591</ele>
        <time>2018-02-21T11:18:49Z</time>
      </trkpt>
      <trkpt lat="44.29437" lon="5.39962">
        <ele>591</ele>
        <time>2018-02-21T11:18:52Z</time>
      </trkpt>
      <trkpt lat="44.29444" lon="5.39973">
        <ele>591</ele>
        <time>2018-02-21T11:18:54Z</time>
      </trkpt>
      <trkpt lat="44.29451" lon="5.39983">
        <ele>591</ele>
        <time>2018-02-21T11:18:56Z</time>
      </trkpt>
      <trkpt lat="44.29464" lon="5.39999">
        <ele>591</ele>
        <time>2018-02-21T11:18:59Z</time>
      </trkpt>
      <trkpt lat="44.29473" lon="5.40009">
        <ele>591</ele>
        <time>2018-02-21T11:19:01Z</time>
      </trkpt>
      <trkpt lat="44.29485" lon="5.40026">
        <ele>592</ele>
        <time>2018-02-21T11:19:04Z</time>
      </trkpt>
      <trkpt lat="44.29491" lon="5.40038">
        <ele>592</ele>
        <time>2018-02-21T11:19:06Z</time>
      </trkpt>
      <trkpt lat="44.29498" lon="5.4006">
        <ele>593</ele>
        <time>2018-02-21T11:19:09Z</time>
      </trkpt>
      <trkpt lat="44.295" lon="5.40074">
        <ele>594</ele>
        <time>2018-02-21T11:19:11Z</time>
      </trkpt>
      <trkpt lat="44.29501" lon="5.40089">
        <ele>594</ele>
        <time>2018-02-21T11:19:13Z</time>
      </trkpt>
      <trkpt lat="44.29499" lon="5.40108">
        <ele>594</ele>
        <time>2018-02-21T11:19:16Z</time>
      </trkpt>
      <trkpt lat="44.29498" lon="5.40119">
        <ele>594</ele>
        <time>2018-02-21T11:19:18Z</time>
      </trkpt>
      <trkpt lat="44.29495" lon="5.40135">
        <ele>594</ele>
        <time>2018-02-21T11:19:21Z</time>
      </trkpt>
      <trkpt lat="44.29492" lon="5.4015">
        <ele>594</ele>
        <time>2018-02-21T11:19:24Z</time>
      </trkpt>
      <trkpt lat="44.29489" lon="5.40166">
        <ele>594</ele>
        <time>2018-02-21T11:19:27Z</time>
      </trkpt>
      <trkpt lat="44.29487" lon="5.40181">
        <ele>594</ele>
        <time>2018-02-21T11:19:30Z</time>
      </trkpt>
      <trkpt lat="44.29486" lon="5.40191">
        <ele>594</ele>
        <time>2018-02-21T11:19:32Z</time>
      </trkpt>
      <trkpt lat="44.29484" lon="5.40205">
        <ele>595</ele>
        <time>2018-02-21T11:19:35Z</time>
      </trkpt>
      <trkpt lat="44.29483" lon="5.40215">
        <ele>596</ele>
        <time>2018-02-21T11:19:37Z</time>
      </trkpt>
      <trkpt lat="44.29482" lon="5.4023">
        <ele>597</ele>
        <time>2018-02-21T11:19:40Z</time>
      </trkpt>
      <trkpt lat="44.29482" lon="5.40239">
        <ele>597</ele>
        <time>2018-02-21T11:19:42Z</time>
      </trkpt>
      <trkpt lat="44.29485" lon="5.40251">
        <ele>598</ele>
        <time>2018-02-21T11:19:45Z</time>
      </trkpt>
      <trkpt lat="44.29485" lon="5.40266">
        <ele>599</ele>
        <time>2018-02-21T11:19:48Z</time>
      </trkpt>
      <trkpt lat="44.29485" lon="5.40297">
        <ele>600</ele>
        <time>2018-02-21T11:19:54Z</time>
      </trkpt>
      <trkpt lat="44.29483" lon="5.40312">
        <ele>600</ele>
        <time>2018-02-21T11:19:57Z</time>
      </trkpt>
      <trkpt lat="44.29482" lon="5.40327">
        <ele>601</ele>
        <time>2018-02-21T11:20:00Z</time>
      </trkpt>
      <trkpt lat="44.2948" lon="5.40337">
        <ele>601</ele>
        <time>2018-02-21T11:20:02Z</time>
      </trkpt>
      <trkpt lat="44.29477" lon="5.40352">
        <ele>602</ele>
        <time>2018-02-21T11:20:05Z</time>
      </trkpt>
      <trkpt lat="44.29473" lon="5.40366">
        <ele>602</ele>
        <time>2018-02-21T11:20:08Z</time>
      </trkpt>
      <trkpt lat="44.2947" lon="5.40376">
        <ele>603</ele>
        <time>2018-02-21T11:20:10Z</time>
      </trkpt>
      <trkpt lat="44.29467" lon="5.40389">
        <ele>603</ele>
        <time>2018-02-21T11:20:13Z</time>
      </trkpt>
      <trkpt lat="44.29464" lon="5.40403">
        <ele>604</ele>
        <time>2018-02-21T11:20:16Z</time>
      </trkpt>
      <trkpt lat="44.29462" lon="5.40412">
        <ele>604</ele>
        <time>2018-02-21T11:20:18Z</time>
      </trkpt>
      <trkpt lat="44.29458" lon="5.40424">
        <ele>605</ele>
        <time>2018-02-21T11:20:21Z</time>
      </trkpt>
      <trkpt lat="44.29456" lon="5.40433">
        <ele>606</ele>
        <time>2018-02-21T11:20:23Z</time>
      </trkpt>
      <trkpt lat="44.29452" lon="5.40445">
        <ele>607</ele>
        <time>2018-02-21T11:20:26Z</time>
      </trkpt>
      <trkpt lat="44.29446" lon="5.40456">
        <ele>608</ele>
        <time>2018-02-21T11:20:29Z</time>
      </trkpt>
      <trkpt lat="44.29442" lon="5.40463">
        <ele>608</ele>
        <time>2018-02-21T11:20:31Z</time>
      </trkpt>
      <trkpt lat="44.29438" lon="5.4047">
        <ele>608</ele>
        <time>2018-02-21T11:20:33Z</time>
      </trkpt>
      <trkpt lat="44.29431" lon="5.40479">
        <ele>608</ele>
        <time>2018-02-21T11:20:36Z</time>
      </trkpt>
      <trkpt lat="44.29424" lon="5.40488">
        <ele>608</ele>
        <time>2018-02-21T11:20:39Z</time>
      </trkpt>
      <trkpt lat="44.29419" lon="5.40494">
        <ele>608</ele>
        <time>2018-02-21T11:20:41Z</time>
      </trkpt>
      <trkpt lat="44.29412" lon="5.40505">
        <ele>609</ele>
        <time>2018-02-21T11:20:44Z</time>
      </trkpt>
      <trkpt lat="44.29408" lon="5.40518">
        <ele>610</ele>
        <time>2018-02-21T11:20:47Z</time>
      </trkpt>
      <trkpt lat="44.29405" lon="5.40532">
        <ele>611</ele>
        <time>2018-02-21T11:20:50Z</time>
      </trkpt>
      <trkpt lat="44.29403" lon="5.40547">
        <ele>611</ele>
        <time>2018-02-21T11:20:53Z</time>
      </trkpt>
      <trkpt lat="44.29404" lon="5.40557">
        <ele>612</ele>
        <time>2018-02-21T11:20:55Z</time>
      </trkpt>
      <trkpt lat="44.29404" lon="5.40572">
        <ele>612</ele>
        <time>2018-02-21T11:20:58Z</time>
      </trkpt>
      <trkpt lat="44.29405" lon="5.40587">
        <ele>613</ele>
        <time>2018-02-21T11:21:01Z</time>
      </trkpt>
      <trkpt lat="44.29406" lon="5.40597">
        <ele>613</ele>
        <time>2018-02-21T11:21:03Z</time>
      </trkpt>
      <trkpt lat="44.29407" lon="5.40613">
        <ele>613</ele>
        <time>2018-02-21T11:21:06Z</time>
      </trkpt>
      <trkpt lat="44.29407" lon="5.40623">
        <ele>613</ele>
        <time>2018-02-21T11:21:08Z</time>
      </trkpt>
      <trkpt lat="44.29408" lon="5.40638">
        <ele>613</ele>
        <time>2018-02-21T11:21:11Z</time>
      </trkpt>
      <trkpt lat="44.29409" lon="5.40648">
        <ele>613</ele>
        <time>2018-02-21T11:21:13Z</time>
      </trkpt>
      <trkpt lat="44.29409" lon="5.40664">
        <ele>614</ele>
        <time>2018-02-21T11:21:16Z</time>
      </trkpt>
      <trkpt lat="44.2941" lon="5.4068">
        <ele>615</ele>
        <time>2018-02-21T11:21:19Z</time>
      </trkpt>
      <trkpt lat="44.2941" lon="5.4069">
        <ele>615</ele>
        <time>2018-02-21T11:21:21Z</time>
      </trkpt>
      <trkpt lat="44.29411" lon="5.40706">
        <ele>616</ele>
        <time>2018-02-21T11:21:24Z</time>
      </trkpt>
      <trkpt lat="44.2941" lon="5.40716">
        <ele>617</ele>
        <time>2018-02-21T11:21:26Z</time>
      </trkpt>
      <trkpt lat="44.29409" lon="5.40727">
        <ele>617</ele>
        <time>2018-02-21T11:21:28Z</time>
      </trkpt>
      <trkpt lat="44.29407" lon="5.40743">
        <ele>617</ele>
        <time>2018-02-21T11:21:31Z</time>
      </trkpt>
      <trkpt lat="44.29405" lon="5.40753">
        <ele>618</ele>
        <time>2018-02-21T11:21:33Z</time>
      </trkpt>
      <trkpt lat="44.29402" lon="5.40768">
        <ele>618</ele>
        <time>2018-02-21T11:21:36Z</time>
      </trkpt>
      <trkpt lat="44.294" lon="5.40778">
        <ele>619</ele>
        <time>2018-02-21T11:21:38Z</time>
      </trkpt>
      <trkpt lat="44.29397" lon="5.40794">
        <ele>619</ele>
        <time>2018-02-21T11:21:41Z</time>
      </trkpt>
      <trkpt lat="44.29393" lon="5.4081">
        <ele>619</ele>
        <time>2018-02-21T11:21:44Z</time>
      </trkpt>
      <trkpt lat="44.29391" lon="5.4082">
        <ele>619</ele>
        <time>2018-02-21T11:21:46Z</time>
      </trkpt>
      <trkpt lat="44.29388" lon="5.40836">
        <ele>620</ele>
        <time>2018-02-21T11:21:49Z</time>
      </trkpt>
      <trkpt lat="44.29385" lon="5.40851">
        <ele>620</ele>
        <time>2018-02-21T11:21:52Z</time>
      </trkpt>
      <trkpt lat="44.29382" lon="5.40867">
        <ele>620</ele>
        <time>2018-02-21T11:21:55Z</time>
      </trkpt>
      <trkpt lat="44.2938" lon="5.40877">
        <ele>621</ele>
        <time>2018-02-21T11:21:57Z</time>
      </trkpt>
      <trkpt lat="44.29377" lon="5.40892">
        <ele>621</ele>
        <time>2018-02-21T11:22:00Z</time>
      </trkpt>
      <trkpt lat="44.29375" lon="5.40902">
        <ele>621</ele>
        <time>2018-02-21T11:22:02Z</time>
      </trkpt>
      <trkpt lat="44.29372" lon="5.40916">
        <ele>621</ele>
        <time>2018-02-21T11:22:05Z</time>
      </trkpt>
      <trkpt lat="44.29369" lon="5.4093">
        <ele>622</ele>
        <time>2018-02-21T11:22:08Z</time>
      </trkpt>
      <trkpt lat="44.29367" lon="5.40939">
        <ele>623</ele>
        <time>2018-02-21T11:22:10Z</time>
      </trkpt>
      <trkpt lat="44.29364" lon="5.40951">
        <ele>624</ele>
        <time>2018-02-21T11:22:13Z</time>
      </trkpt>
      <trkpt lat="44.29364" lon="5.4096">
        <ele>624</ele>
        <time>2018-02-21T11:22:15Z</time>
      </trkpt>
      <trkpt lat="44.29366" lon="5.40966">
        <ele>624</ele>
        <time>2018-02-21T11:22:17Z</time>
      </trkpt>
      <trkpt lat="44.2937" lon="5.4097">
        <ele>624</ele>
        <time>2018-02-21T11:22:19Z</time>
      </trkpt>
      <trkpt lat="44.29378" lon="5.40969">
        <ele>625</ele>
        <time>2018-02-21T11:22:22Z</time>
      </trkpt>
      <trkpt lat="44.29386" lon="5.40967">
        <ele>625</ele>
        <time>2018-02-21T11:22:25Z</time>
      </trkpt>
      <trkpt lat="44.29395" lon="5.40966">
        <ele>625</ele>
        <time>2018-02-21T11:22:28Z</time>
      </trkpt>
      <trkpt lat="44.29405" lon="5.40966">
        <ele>625</ele>
        <time>2018-02-21T11:22:31Z</time>
      </trkpt>
      <trkpt lat="44.29412" lon="5.40966">
        <ele>625</ele>
        <time>2018-02-21T11:22:33Z</time>
      </trkpt>
      <trkpt lat="44.29418" lon="5.40966">
        <ele>625</ele>
        <time>2018-02-21T11:22:35Z</time>
      </trkpt>
      <trkpt lat="44.29429" lon="5.40966">
        <ele>625</ele>
        <time>2018-02-21T11:22:38Z</time>
      </trkpt>
      <trkpt lat="44.29436" lon="5.40967">
        <ele>626</ele>
        <time>2018-02-21T11:22:40Z</time>
      </trkpt>
      <trkpt lat="44.29447" lon="5.40968">
        <ele>626</ele>
        <time>2018-02-21T11:22:43Z</time>
      </trkpt>
      <trkpt lat="44.29455" lon="5.40968">
        <ele>626</ele>
        <time>2018-02-21T11:22:45Z</time>
      </trkpt>
      <trkpt lat="44.29466" lon="5.4097">
        <ele>626</ele>
        <time>2018-02-21T11:22:48Z</time>
      </trkpt>
      <trkpt lat="44.29474" lon="5.4097">
        <ele>626</ele>
        <time>2018-02-21T11:22:50Z</time>
      </trkpt>
      <trkpt lat="44.29486" lon="5.40971">
        <ele>627</ele>
        <time>2018-02-21T11:22:53Z</time>
      </trkpt>
      <trkpt lat="44.29494" lon="5.40971">
        <ele>627</ele>
        <time>2018-02-21T11:22:55Z</time>
      </trkpt>
      <trkpt lat="44.29506" lon="5.40972">
        <ele>627</ele>
        <time>2018-02-21T11:22:58Z</time>
      </trkpt>
      <trkpt lat="44.29517" lon="5.40971">
        <ele>627</ele>
        <time>2018-02-21T11:23:01Z</time>
      </trkpt>
      <trkpt lat="44.29529" lon="5.40968">
        <ele>628</ele>
        <time>2018-02-21T11:23:04Z</time>
      </trkpt>
      <trkpt lat="44.29541" lon="5.40964">
        <ele>628</ele>
        <time>2018-02-21T11:23:07Z</time>
      </trkpt>
      <trkpt lat="44.29548" lon="5.40961">
        <ele>628</ele>
        <time>2018-02-21T11:23:09Z</time>
      </trkpt>
      <trkpt lat="44.29559" lon="5.40954">
        <ele>628</ele>
        <time>2018-02-21T11:23:12Z</time>
      </trkpt>
      <trkpt lat="44.2957" lon="5.40948">
        <ele>629</ele>
        <time>2018-02-21T11:23:15Z</time>
      </trkpt>
      <trkpt lat="44.29581" lon="5.40942">
        <ele>629</ele>
        <time>2018-02-21T11:23:18Z</time>
      </trkpt>
      <trkpt lat="44.29594" lon="5.40939">
        <ele>630</ele>
        <time>2018-02-21T11:23:21Z</time>
      </trkpt>
      <trkpt lat="44.29602" lon="5.40937">
        <ele>630</ele>
        <time>2018-02-21T11:23:23Z</time>
      </trkpt>
      <trkpt lat="44.29614" lon="5.40937">
        <ele>630</ele>
        <time>2018-02-21T11:23:26Z</time>
      </trkpt>
      <trkpt lat="44.29627" lon="5.4094">
        <ele>630</ele>
        <time>2018-02-21T11:23:29Z</time>
      </trkpt>
      <trkpt lat="44.29635" lon="5.40942">
        <ele>630</ele>
        <time>2018-02-21T11:23:31Z</time>
      </trkpt>
      <trkpt lat="44.29646" lon="5.40949">
        <ele>631</ele>
        <time>2018-02-21T11:23:34Z</time>
      </trkpt>
      <trkpt lat="44.29654" lon="5.40954">
        <ele>631</ele>
        <time>2018-02-21T11:23:36Z</time>
      </trkpt>
      <trkpt lat="44.29664" lon="5.40964">
        <ele>631</ele>
        <time>2018-02-21T11:23:39Z</time>
      </trkpt>
      <trkpt lat="44.29673" lon="5.40975">
        <ele>631</ele>
        <time>2018-02-21T11:23:42Z</time>
      </trkpt>
      <trkpt lat="44.29683" lon="5.40985">
        <ele>632</ele>
        <time>2018-02-21T11:23:45Z</time>
      </trkpt>
      <trkpt lat="44.29694" lon="5.40996">
        <ele>632</ele>
        <time>2018-02-21T11:23:48Z</time>
      </trkpt>
      <trkpt lat="44.29706" lon="5.41005">
        <ele>633</ele>
        <time>2018-02-21T11:23:51Z</time>
      </trkpt>
      <trkpt lat="44.29718" lon="5.41013">
        <ele>633</ele>
        <time>2018-02-21T11:23:54Z</time>
      </trkpt>
      <trkpt lat="44.29725" lon="5.41018">
        <ele>633</ele>
        <time>2018-02-21T11:23:56Z</time>
      </trkpt>
      <trkpt lat="44.29733" lon="5.41022">
        <ele>634</ele>
        <time>2018-02-21T11:23:58Z</time>
      </trkpt>
      <trkpt lat="44.29739" lon="5.41027">
        <ele>634</ele>
        <time>2018-02-21T11:24:00Z</time>
      </trkpt>
      <trkpt lat="44.2975" lon="5.41033">
        <ele>634</ele>
        <time>2018-02-21T11:24:03Z</time>
      </trkpt>
      <trkpt lat="44.2976" lon="5.41038">
        <ele>635</ele>
        <time>2018-02-21T11:24:06Z</time>
      </trkpt>
      <trkpt lat="44.29768" lon="5.4104">
        <ele>635</ele>
        <time>2018-02-21T11:24:08Z</time>
      </trkpt>
      <trkpt lat="44.29778" lon="5.41038">
        <ele>635</ele>
        <time>2018-02-21T11:24:11Z</time>
      </trkpt>
      <trkpt lat="44.29788" lon="5.41033">
        <ele>637</ele>
        <time>2018-02-21T11:24:14Z</time>
      </trkpt>
      <trkpt lat="44.29797" lon="5.41024">
        <ele>638</ele>
        <time>2018-02-21T11:24:17Z</time>
      </trkpt>
      <trkpt lat="44.29805" lon="5.41015">
        <ele>640</ele>
        <time>2018-02-21T11:24:20Z</time>
      </trkpt>
      <trkpt lat="44.29811" lon="5.41009">
        <ele>640</ele>
        <time>2018-02-21T11:24:22Z</time>
      </trkpt>
      <trkpt lat="44.2982" lon="5.41">
        <ele>641</ele>
        <time>2018-02-21T11:24:25Z</time>
      </trkpt>
      <trkpt lat="44.29829" lon="5.40992">
        <ele>641</ele>
        <time>2018-02-21T11:24:28Z</time>
      </trkpt>
      <trkpt lat="44.29839" lon="5.40986">
        <ele>642</ele>
        <time>2018-02-21T11:24:31Z</time>
      </trkpt>
      <trkpt lat="44.29849" lon="5.40981">
        <ele>641</ele>
        <time>2018-02-21T11:24:34Z</time>
      </trkpt>
      <trkpt lat="44.29859" lon="5.40977">
        <ele>642</ele>
        <time>2018-02-21T11:24:37Z</time>
      </trkpt>
      <trkpt lat="44.29866" lon="5.40975">
        <ele>643</ele>
        <time>2018-02-21T11:24:39Z</time>
      </trkpt>
      <trkpt lat="44.29876" lon="5.40973">
        <ele>644</ele>
        <time>2018-02-21T11:24:42Z</time>
      </trkpt>
      <trkpt lat="44.29886" lon="5.40969">
        <ele>644</ele>
        <time>2018-02-21T11:24:45Z</time>
      </trkpt>
      <trkpt lat="44.29893" lon="5.40967">
        <ele>644</ele>
        <time>2018-02-21T11:24:47Z</time>
      </trkpt>
      <trkpt lat="44.29902" lon="5.40963">
        <ele>644</ele>
        <time>2018-02-21T11:24:50Z</time>
      </trkpt>
      <trkpt lat="44.29911" lon="5.40958">
        <ele>645</ele>
        <time>2018-02-21T11:24:53Z</time>
      </trkpt>
      <trkpt lat="44.29918" lon="5.40956">
        <ele>646</ele>
        <time>2018-02-21T11:24:55Z</time>
      </trkpt>
      <trkpt lat="44.29927" lon="5.4095">
        <ele>647</ele>
        <time>2018-02-21T11:24:58Z</time>
      </trkpt>
      <trkpt lat="44.29932" lon="5.40947">
        <ele>647</ele>
        <time>2018-02-21T11:25:00Z</time>
      </trkpt>
      <trkpt lat="44.29941" lon="5.40941">
        <ele>648</ele>
        <time>2018-02-21T11:25:03Z</time>
      </trkpt>
      <trkpt lat="44.29946" lon="5.40937">
        <ele>648</ele>
        <time>2018-02-21T11:25:05Z</time>
      </trkpt>
      <trkpt lat="44.29955" lon="5.40931">
        <ele>649</ele>
        <time>2018-02-21T11:25:08Z</time>
      </trkpt>
      <trkpt lat="44.29963" lon="5.40925">
        <ele>649</ele>
        <time>2018-02-21T11:25:11Z</time>
      </trkpt>
      <trkpt lat="44.29971" lon="5.40919">
        <ele>650</ele>
        <time>2018-02-21T11:25:14Z</time>
      </trkpt>
      <trkpt lat="44.2998" lon="5.40914">
        <ele>651</ele>
        <time>2018-02-21T11:25:17Z</time>
      </trkpt>
      <trkpt lat="44.2999" lon="5.40911">
        <ele>651</ele>
        <time>2018-02-21T11:25:20Z</time>
      </trkpt>
      <trkpt lat="44.29999" lon="5.40909">
        <ele>652</ele>
        <time>2018-02-21T11:25:23Z</time>
      </trkpt>
      <trkpt lat="44.30009" lon="5.40908">
        <ele>653</ele>
        <time>2018-02-21T11:25:26Z</time>
      </trkpt>
      <trkpt lat="44.30019" lon="5.40908">
        <ele>653</ele>
        <time>2018-02-21T11:25:29Z</time>
      </trkpt>
      <trkpt lat="44.30026" lon="5.40908">
        <ele>654</ele>
        <time>2018-02-21T11:25:31Z</time>
      </trkpt>
      <trkpt lat="44.30036" lon="5.40909">
        <ele>654</ele>
        <time>2018-02-21T11:25:34Z</time>
      </trkpt>
      <trkpt lat="44.30045" lon="5.4091">
        <ele>654</ele>
        <time>2018-02-21T11:25:37Z</time>
      </trkpt>
      <trkpt lat="44.30051" lon="5.40911">
        <ele>654</ele>
        <time>2018-02-21T11:25:39Z</time>
      </trkpt>
      <trkpt lat="44.30055" lon="5.40911">
        <ele>655</ele>
        <time>2018-02-21T11:25:41Z</time>
      </trkpt>
      <trkpt lat="44.30061" lon="5.40911">
        <ele>656</ele>
        <time>2018-02-21T11:25:44Z</time>
      </trkpt>
      <trkpt lat="44.30068" lon="5.40911">
        <ele>657</ele>
        <time>2018-02-21T11:25:47Z</time>
      </trkpt>
      <trkpt lat="44.30073" lon="5.40909">
        <ele>657</ele>
        <time>2018-02-21T11:25:50Z</time>
      </trkpt>
      <trkpt lat="44.30075" lon="5.40909">
        <ele>658</ele>
        <time>2018-02-21T11:25:52Z</time>
      </trkpt>
      <trkpt lat="44.30078" lon="5.40908">
        <ele>658</ele>
        <time>2018-02-21T11:25:54Z</time>
      </trkpt>
      <trkpt lat="44.30084" lon="5.40904">
        <ele>658</ele>
        <time>2018-02-21T11:25:57Z</time>
      </trkpt>
      <trkpt lat="44.30089" lon="5.409">
        <ele>659</ele>
        <time>2018-02-21T11:25:59Z</time>
      </trkpt>
      <trkpt lat="44.30095" lon="5.4089">
        <ele>659</ele>
        <time>2018-02-21T11:26:02Z</time>
      </trkpt>
      <trkpt lat="44.30101" lon="5.40879">
        <ele>660</ele>
        <time>2018-02-21T11:26:05Z</time>
      </trkpt>
      <trkpt lat="44.30105" lon="5.4087">
        <ele>661</ele>
        <time>2018-02-21T11:26:08Z</time>
      </trkpt>
      <trkpt lat="44.3011" lon="5.4086">
        <ele>661</ele>
        <time>2018-02-21T11:26:11Z</time>
      </trkpt>
      <trkpt lat="44.30115" lon="5.4085">
        <ele>662</ele>
        <time>2018-02-21T11:26:14Z</time>
      </trkpt>
      <trkpt lat="44.3012" lon="5.40839">
        <ele>663</ele>
        <time>2018-02-21T11:26:17Z</time>
      </trkpt>
      <trkpt lat="44.30122" lon="5.40832">
        <ele>663</ele>
        <time>2018-02-21T11:26:19Z</time>
      </trkpt>
      <trkpt lat="44.30127" lon="5.40821">
        <ele>664</ele>
        <time>2018-02-21T11:26:22Z</time>
      </trkpt>
      <trkpt lat="44.30132" lon="5.4081">
        <ele>664</ele>
        <time>2018-02-21T11:26:25Z</time>
      </trkpt>
      <trkpt lat="44.30137" lon="5.40799">
        <ele>665</ele>
        <time>2018-02-21T11:26:28Z</time>
      </trkpt>
      <trkpt lat="44.30142" lon="5.40787">
        <ele>665</ele>
        <time>2018-02-21T11:26:31Z</time>
      </trkpt>
      <trkpt lat="44.30146" lon="5.4078">
        <ele>665</ele>
        <time>2018-02-21T11:26:33Z</time>
      </trkpt>
      <trkpt lat="44.30151" lon="5.40769">
        <ele>666</ele>
        <time>2018-02-21T11:26:36Z</time>
      </trkpt>
      <trkpt lat="44.30156" lon="5.40758">
        <ele>666</ele>
        <time>2018-02-21T11:26:39Z</time>
      </trkpt>
      <trkpt lat="44.30161" lon="5.40746">
        <ele>667</ele>
        <time>2018-02-21T11:26:42Z</time>
      </trkpt>
      <trkpt lat="44.30164" lon="5.40738">
        <ele>667</ele>
        <time>2018-02-21T11:26:44Z</time>
      </trkpt>
      <trkpt lat="44.30169" lon="5.40726">
        <ele>668</ele>
        <time>2018-02-21T11:26:47Z</time>
      </trkpt>
      <trkpt lat="44.30174" lon="5.40715">
        <ele>669</ele>
        <time>2018-02-21T11:26:50Z</time>
      </trkpt>
      <trkpt lat="44.30179" lon="5.40704">
        <ele>670</ele>
        <time>2018-02-21T11:26:53Z</time>
      </trkpt>
      <trkpt lat="44.30182" lon="5.40697">
        <ele>671</ele>
        <time>2018-02-21T11:26:55Z</time>
      </trkpt>
      <trkpt lat="44.30186" lon="5.4069">
        <ele>671</ele>
        <time>2018-02-21T11:26:57Z</time>
      </trkpt>
      <trkpt lat="44.30192" lon="5.40679">
        <ele>671</ele>
        <time>2018-02-21T11:27:00Z</time>
      </trkpt>
      <trkpt lat="44.30199" lon="5.40669">
        <ele>671</ele>
        <time>2018-02-21T11:27:03Z</time>
      </trkpt>
      <trkpt lat="44.30203" lon="5.40662">
        <ele>672</ele>
        <time>2018-02-21T11:27:05Z</time>
      </trkpt>
      <trkpt lat="44.3021" lon="5.40653">
        <ele>672</ele>
        <time>2018-02-21T11:27:08Z</time>
      </trkpt>
      <trkpt lat="44.30218" lon="5.40643">
        <ele>673</ele>
        <time>2018-02-21T11:27:11Z</time>
      </trkpt>
      <trkpt lat="44.30225" lon="5.40634">
        <ele>672</ele>
        <time>2018-02-21T11:27:14Z</time>
      </trkpt>
      <trkpt lat="44.30232" lon="5.40625">
        <ele>673</ele>
        <time>2018-02-21T11:27:17Z</time>
      </trkpt>
      <trkpt lat="44.30239" lon="5.40616">
        <ele>674</ele>
        <time>2018-02-21T11:27:20Z</time>
      </trkpt>
      <trkpt lat="44.30247" lon="5.40606">
        <ele>674</ele>
        <time>2018-02-21T11:27:23Z</time>
      </trkpt>
      <trkpt lat="44.30251" lon="5.406">
        <ele>674</ele>
        <time>2018-02-21T11:27:25Z</time>
      </trkpt>
      <trkpt lat="44.30259" lon="5.40591">
        <ele>675</ele>
        <time>2018-02-21T11:27:28Z</time>
      </trkpt>
      <trkpt lat="44.30264" lon="5.40584">
        <ele>675</ele>
        <time>2018-02-21T11:27:30Z</time>
      </trkpt>
      <trkpt lat="44.30271" lon="5.40574">
        <ele>676</ele>
        <time>2018-02-21T11:27:33Z</time>
      </trkpt>
      <trkpt lat="44.30276" lon="5.40565">
        <ele>676</ele>
        <time>2018-02-21T11:27:35Z</time>
      </trkpt>
      <trkpt lat="44.30281" lon="5.40554">
        <ele>677</ele>
        <time>2018-02-21T11:27:38Z</time>
      </trkpt>
      <trkpt lat="44.30285" lon="5.40546">
        <ele>678</ele>
        <time>2018-02-21T11:27:40Z</time>
      </trkpt>
      <trkpt lat="44.3029" lon="5.40534">
        <ele>678</ele>
        <time>2018-02-21T11:27:43Z</time>
      </trkpt>
      <trkpt lat="44.30295" lon="5.40521">
        <ele>679</ele>
        <time>2018-02-21T11:27:46Z</time>
      </trkpt>
      <trkpt lat="44.303" lon="5.40508">
        <ele>680</ele>
        <time>2018-02-21T11:27:49Z</time>
      </trkpt>
      <trkpt lat="44.30304" lon="5.40495">
        <ele>681</ele>
        <time>2018-02-21T11:27:52Z</time>
      </trkpt>
      <trkpt lat="44.30308" lon="5.40486">
        <ele>682</ele>
        <time>2018-02-21T11:27:54Z</time>
      </trkpt>
      <trkpt lat="44.30313" lon="5.40474">
        <ele>682</ele>
        <time>2018-02-21T11:27:57Z</time>
      </trkpt>
      <trkpt lat="44.30318" lon="5.40462">
        <ele>682</ele>
        <time>2018-02-21T11:28:00Z</time>
      </trkpt>
      <trkpt lat="44.30325" lon="5.40451">
        <ele>682</ele>
        <time>2018-02-21T11:28:03Z</time>
      </trkpt>
      <trkpt lat="44.30333" lon="5.40441">
        <ele>683</ele>
        <time>2018-02-21T11:28:06Z</time>
      </trkpt>
      <trkpt lat="44.30341" lon="5.40432">
        <ele>684</ele>
        <time>2018-02-21T11:28:09Z</time>
      </trkpt>
      <trkpt lat="44.30348" lon="5.40421">
        <ele>685</ele>
        <time>2018-02-21T11:28:12Z</time>
      </trkpt>
      <trkpt lat="44.30354" lon="5.4041">
        <ele>685</ele>
        <time>2018-02-21T11:28:15Z</time>
      </trkpt>
      <trkpt lat="44.30359" lon="5.40398">
        <ele>686</ele>
        <time>2018-02-21T11:28:18Z</time>
      </trkpt>
      <trkpt lat="44.30362" lon="5.40389">
        <ele>687</ele>
        <time>2018-02-21T11:28:20Z</time>
      </trkpt>
      <trkpt lat="44.30365" lon="5.40376">
        <ele>687</ele>
        <time>2018-02-21T11:28:23Z</time>
      </trkpt>
      <trkpt lat="44.30368" lon="5.40363">
        <ele>688</ele>
        <time>2018-02-21T11:28:26Z</time>
      </trkpt>
      <trkpt lat="44.30371" lon="5.4035">
        <ele>689</ele>
        <time>2018-02-21T11:28:29Z</time>
      </trkpt>
      <trkpt lat="44.30375" lon="5.40337">
        <ele>690</ele>
        <time>2018-02-21T11:28:32Z</time>
      </trkpt>
      <trkpt lat="44.30378" lon="5.40324">
        <ele>691</ele>
        <time>2018-02-21T11:28:35Z</time>
      </trkpt>
      <trkpt lat="44.30381" lon="5.40312">
        <ele>692</ele>
        <time>2018-02-21T11:28:38Z</time>
      </trkpt>
      <trkpt lat="44.30384" lon="5.403">
        <ele>692</ele>
        <time>2018-02-21T11:28:41Z</time>
      </trkpt>
      <trkpt lat="44.30387" lon="5.40287">
        <ele>691</ele>
        <time>2018-02-21T11:28:44Z</time>
      </trkpt>
      <trkpt lat="44.30389" lon="5.40278">
        <ele>692</ele>
        <time>2018-02-21T11:28:46Z</time>
      </trkpt>
      <trkpt lat="44.30391" lon="5.4027">
        <ele>693</ele>
        <time>2018-02-21T11:28:48Z</time>
      </trkpt>
      <trkpt lat="44.30393" lon="5.40257">
        <ele>694</ele>
        <time>2018-02-21T11:28:51Z</time>
      </trkpt>
      <trkpt lat="44.30396" lon="5.40244">
        <ele>695</ele>
        <time>2018-02-21T11:28:54Z</time>
      </trkpt>
      <trkpt lat="44.30397" lon="5.40236">
        <ele>695</ele>
        <time>2018-02-21T11:28:56Z</time>
      </trkpt>
      <trkpt lat="44.30398" lon="5.40228">
        <ele>695</ele>
        <time>2018-02-21T11:28:58Z</time>
      </trkpt>
      <trkpt lat="44.30399" lon="5.40215">
        <ele>696</ele>
        <time>2018-02-21T11:29:01Z</time>
      </trkpt>
      <trkpt lat="44.30401" lon="5.40206">
        <ele>696</ele>
        <time>2018-02-21T11:29:03Z</time>
      </trkpt>
      <trkpt lat="44.30403" lon="5.40194">
        <ele>696</ele>
        <time>2018-02-21T11:29:06Z</time>
      </trkpt>
      <trkpt lat="44.30405" lon="5.40182">
        <ele>697</ele>
        <time>2018-02-21T11:29:09Z</time>
      </trkpt>
      <trkpt lat="44.30408" lon="5.40174">
        <ele>697</ele>
        <time>2018-02-21T11:29:11Z</time>
      </trkpt>
      <trkpt lat="44.30413" lon="5.40163">
        <ele>697</ele>
        <time>2018-02-21T11:29:14Z</time>
      </trkpt>
      <trkpt lat="44.30416" lon="5.40155">
        <ele>697</ele>
        <time>2018-02-21T11:29:16Z</time>
      </trkpt>
      <trkpt lat="44.30422" lon="5.40144">
        <ele>698</ele>
        <time>2018-02-21T11:29:19Z</time>
      </trkpt>
      <trkpt lat="44.30428" lon="5.40134">
        <ele>698</ele>
        <time>2018-02-21T11:29:22Z</time>
      </trkpt>
      <trkpt lat="44.30433" lon="5.40128">
        <ele>699</ele>
        <time>2018-02-21T11:29:24Z</time>
      </trkpt>
      <trkpt lat="44.30437" lon="5.40122">
        <ele>699</ele>
        <time>2018-02-21T11:29:26Z</time>
      </trkpt>
      <trkpt lat="44.30442" lon="5.40116">
        <ele>700</ele>
        <time>2018-02-21T11:29:28Z</time>
      </trkpt>
      <trkpt lat="44.30449" lon="5.40107">
        <ele>700</ele>
        <time>2018-02-21T11:29:31Z</time>
      </trkpt>
      <trkpt lat="44.30453" lon="5.40101">
        <ele>700</ele>
        <time>2018-02-21T11:29:33Z</time>
      </trkpt>
      <trkpt lat="44.30459" lon="5.4009">
        <ele>701</ele>
        <time>2018-02-21T11:29:36Z</time>
      </trkpt>
      <trkpt lat="44.30462" lon="5.40082">
        <ele>702</ele>
        <time>2018-02-21T11:29:38Z</time>
      </trkpt>
      <trkpt lat="44.30463" lon="5.40069">
        <ele>703</ele>
        <time>2018-02-21T11:29:41Z</time>
      </trkpt>
      <trkpt lat="44.3046" lon="5.40057">
        <ele>705</ele>
        <time>2018-02-21T11:29:44Z</time>
      </trkpt>
      <trkpt lat="44.30459" lon="5.40049">
        <ele>705</ele>
        <time>2018-02-21T11:29:46Z</time>
      </trkpt>
      <trkpt lat="44.30457" lon="5.40036">
        <ele>706</ele>
        <time>2018-02-21T11:29:49Z</time>
      </trkpt>
      <trkpt lat="44.30455" lon="5.40027">
        <ele>706</ele>
        <time>2018-02-21T11:29:51Z</time>
      </trkpt>
      <trkpt lat="44.30454" lon="5.40018">
        <ele>706</ele>
        <time>2018-02-21T11:29:53Z</time>
      </trkpt>
      <trkpt lat="44.30454" lon="5.40009">
        <ele>706</ele>
        <time>2018-02-21T11:29:55Z</time>
      </trkpt>
      <trkpt lat="44.30454" lon="5.39995">
        <ele>706</ele>
        <time>2018-02-21T11:29:58Z</time>
      </trkpt>
      <trkpt lat="44.30455" lon="5.39981">
        <ele>707</ele>
        <time>2018-02-21T11:30:01Z</time>
      </trkpt>
      <trkpt lat="44.30458" lon="5.39967">
        <ele>708</ele>
        <time>2018-02-21T11:30:04Z</time>
      </trkpt>
      <trkpt lat="44.3046" lon="5.39958">
        <ele>708</ele>
        <time>2018-02-21T11:30:06Z</time>
      </trkpt>
      <trkpt lat="44.30463" lon="5.39949">
        <ele>708</ele>
        <time>2018-02-21T11:30:08Z</time>
      </trkpt>
      <trkpt lat="44.30465" lon="5.39941">
        <ele>708</ele>
        <time>2018-02-21T11:30:10Z</time>
      </trkpt>
      <trkpt lat="44.30467" lon="5.39931">
        <ele>709</ele>
        <time>2018-02-21T11:30:12Z</time>
      </trkpt>
      <trkpt lat="44.30469" lon="5.39923">
        <ele>709</ele>
        <time>2018-02-21T11:30:14Z</time>
      </trkpt>
      <trkpt lat="44.30473" lon="5.3991">
        <ele>710</ele>
        <time>2018-02-21T11:30:17Z</time>
      </trkpt>
      <trkpt lat="44.30476" lon="5.39896">
        <ele>711</ele>
        <time>2018-02-21T11:30:20Z</time>
      </trkpt>
      <trkpt lat="44.30479" lon="5.39883">
        <ele>711</ele>
        <time>2018-02-21T11:30:23Z</time>
      </trkpt>
      <trkpt lat="44.30482" lon="5.39869">
        <ele>713</ele>
        <time>2018-02-21T11:30:26Z</time>
      </trkpt>
      <trkpt lat="44.30486" lon="5.39857">
        <ele>715</ele>
        <time>2018-02-21T11:30:29Z</time>
      </trkpt>
      <trkpt lat="44.30488" lon="5.39849">
        <ele>715</ele>
        <time>2018-02-21T11:30:31Z</time>
      </trkpt>
      <trkpt lat="44.3049" lon="5.3984">
        <ele>715</ele>
        <time>2018-02-21T11:30:33Z</time>
      </trkpt>
      <trkpt lat="44.30493" lon="5.39828">
        <ele>715</ele>
        <time>2018-02-21T11:30:36Z</time>
      </trkpt>
      <trkpt lat="44.30495" lon="5.39819">
        <ele>716</ele>
        <time>2018-02-21T11:30:38Z</time>
      </trkpt>
      <trkpt lat="44.30498" lon="5.39807">
        <ele>716</ele>
        <time>2018-02-21T11:30:41Z</time>
      </trkpt>
      <trkpt lat="44.305" lon="5.39799">
        <ele>716</ele>
        <time>2018-02-21T11:30:43Z</time>
      </trkpt>
      <trkpt lat="44.30503" lon="5.39787">
        <ele>716</ele>
        <time>2018-02-21T11:30:46Z</time>
      </trkpt>
      <trkpt lat="44.30505" lon="5.39779">
        <ele>717</ele>
        <time>2018-02-21T11:30:48Z</time>
      </trkpt>
      <trkpt lat="44.30508" lon="5.39766">
        <ele>717</ele>
        <time>2018-02-21T11:30:51Z</time>
      </trkpt>
      <trkpt lat="44.3051" lon="5.39752">
        <ele>717</ele>
        <time>2018-02-21T11:30:54Z</time>
      </trkpt>
      <trkpt lat="44.30511" lon="5.39738">
        <ele>717</ele>
        <time>2018-02-21T11:30:57Z</time>
      </trkpt>
      <trkpt lat="44.30512" lon="5.39729">
        <ele>719</ele>
        <time>2018-02-21T11:30:59Z</time>
      </trkpt>
      <trkpt lat="44.30513" lon="5.3972">
        <ele>719</ele>
        <time>2018-02-21T11:31:01Z</time>
      </trkpt>
      <trkpt lat="44.30515" lon="5.39706">
        <ele>719</ele>
        <time>2018-02-21T11:31:04Z</time>
      </trkpt>
      <trkpt lat="44.30516" lon="5.39692">
        <ele>719</ele>
        <time>2018-02-21T11:31:07Z</time>
      </trkpt>
      <trkpt lat="44.30517" lon="5.39683">
        <ele>719</ele>
        <time>2018-02-21T11:31:09Z</time>
      </trkpt>
      <trkpt lat="44.30519" lon="5.39669">
        <ele>719</ele>
        <time>2018-02-21T11:31:12Z</time>
      </trkpt>
      <trkpt lat="44.3052" lon="5.3966">
        <ele>720</ele>
        <time>2018-02-21T11:31:14Z</time>
      </trkpt>
      <trkpt lat="44.30521" lon="5.39647">
        <ele>721</ele>
        <time>2018-02-21T11:31:17Z</time>
      </trkpt>
      <trkpt lat="44.30522" lon="5.39638">
        <ele>721</ele>
        <time>2018-02-21T11:31:19Z</time>
      </trkpt>
      <trkpt lat="44.30523" lon="5.39625">
        <ele>722</ele>
        <time>2018-02-21T11:31:22Z</time>
      </trkpt>
      <trkpt lat="44.30523" lon="5.39617">
        <ele>722</ele>
        <time>2018-02-21T11:31:24Z</time>
      </trkpt>
      <trkpt lat="44.30525" lon="5.39604">
        <ele>723</ele>
        <time>2018-02-21T11:31:27Z</time>
      </trkpt>
      <trkpt lat="44.30526" lon="5.39595">
        <ele>723</ele>
        <time>2018-02-21T11:31:29Z</time>
      </trkpt>
      <trkpt lat="44.30527" lon="5.39587">
        <ele>724</ele>
        <time>2018-02-21T11:31:31Z</time>
      </trkpt>
      <trkpt lat="44.30528" lon="5.39574">
        <ele>724</ele>
        <time>2018-02-21T11:31:34Z</time>
      </trkpt>
      <trkpt lat="44.30529" lon="5.39566">
        <ele>725</ele>
        <time>2018-02-21T11:31:36Z</time>
      </trkpt>
      <trkpt lat="44.3053" lon="5.39558">
        <ele>724</ele>
        <time>2018-02-21T11:31:38Z</time>
      </trkpt>
      <trkpt lat="44.30531" lon="5.39545">
        <ele>725</ele>
        <time>2018-02-21T11:31:41Z</time>
      </trkpt>
      <trkpt lat="44.30532" lon="5.39537">
        <ele>725</ele>
        <time>2018-02-21T11:31:43Z</time>
      </trkpt>
      <trkpt lat="44.30533" lon="5.39529">
        <ele>726</ele>
        <time>2018-02-21T11:31:45Z</time>
      </trkpt>
      <trkpt lat="44.30535" lon="5.39516">
        <ele>727</ele>
        <time>2018-02-21T11:31:48Z</time>
      </trkpt>
      <trkpt lat="44.30537" lon="5.39505">
        <ele>728</ele>
        <time>2018-02-21T11:31:51Z</time>
      </trkpt>
      <trkpt lat="44.30539" lon="5.39493">
        <ele>729</ele>
        <time>2018-02-21T11:31:54Z</time>
      </trkpt>
      <trkpt lat="44.30541" lon="5.39485">
        <ele>729</ele>
        <time>2018-02-21T11:31:56Z</time>
      </trkpt>
      <trkpt lat="44.30543" lon="5.39478">
        <ele>729</ele>
        <time>2018-02-21T11:31:58Z</time>
      </trkpt>
      <trkpt lat="44.30545" lon="5.39469">
        <ele>729</ele>
        <time>2018-02-21T11:32:00Z</time>
      </trkpt>
      <trkpt lat="44.30549" lon="5.39458">
        <ele>728</ele>
        <time>2018-02-21T11:32:03Z</time>
      </trkpt>
      <trkpt lat="44.30551" lon="5.39449">
        <ele>729</ele>
        <time>2018-02-21T11:32:05Z</time>
      </trkpt>
      <trkpt lat="44.30554" lon="5.39437">
        <ele>729</ele>
        <time>2018-02-21T11:32:08Z</time>
      </trkpt>
      <trkpt lat="44.30555" lon="5.39429">
        <ele>730</ele>
        <time>2018-02-21T11:32:10Z</time>
      </trkpt>
      <trkpt lat="44.30556" lon="5.39416">
        <ele>731</ele>
        <time>2018-02-21T11:32:13Z</time>
      </trkpt>
      <trkpt lat="44.30557" lon="5.39407">
        <ele>732</ele>
        <time>2018-02-21T11:32:15Z</time>
      </trkpt>
      <trkpt lat="44.30557" lon="5.39395">
        <ele>732</ele>
        <time>2018-02-21T11:32:18Z</time>
      </trkpt>
      <trkpt lat="44.30557" lon="5.39387">
        <ele>732</ele>
        <time>2018-02-21T11:32:20Z</time>
      </trkpt>
      <trkpt lat="44.30557" lon="5.39374">
        <ele>732</ele>
        <time>2018-02-21T11:32:23Z</time>
      </trkpt>
      <trkpt lat="44.30557" lon="5.39365">
        <ele>733</ele>
        <time>2018-02-21T11:32:25Z</time>
      </trkpt>
      <trkpt lat="44.30558" lon="5.39357">
        <ele>734</ele>
        <time>2018-02-21T11:32:27Z</time>
      </trkpt>
      <trkpt lat="44.30558" lon="5.39345">
        <ele>734</ele>
        <time>2018-02-21T11:32:30Z</time>
      </trkpt>
      <trkpt lat="44.3056" lon="5.39332">
        <ele>736</ele>
        <time>2018-02-21T11:32:33Z</time>
      </trkpt>
      <trkpt lat="44.30563" lon="5.3932">
        <ele>736</ele>
        <time>2018-02-21T11:32:36Z</time>
      </trkpt>
      <trkpt lat="44.30566" lon="5.39308">
        <ele>736</ele>
        <time>2018-02-21T11:32:39Z</time>
      </trkpt>
      <trkpt lat="44.30569" lon="5.39296">
        <ele>736</ele>
        <time>2018-02-21T11:32:42Z</time>
      </trkpt>
      <trkpt lat="44.3057" lon="5.39288">
        <ele>736</ele>
        <time>2018-02-21T11:32:44Z</time>
      </trkpt>
      <trkpt lat="44.3057" lon="5.39276">
        <ele>736</ele>
        <time>2018-02-21T11:32:47Z</time>
      </trkpt>
      <trkpt lat="44.30569" lon="5.39263">
        <ele>735</ele>
        <time>2018-02-21T11:32:50Z</time>
      </trkpt>
      <trkpt lat="44.30566" lon="5.39255">
        <ele>735</ele>
        <time>2018-02-21T11:32:52Z</time>
      </trkpt>
      <trkpt lat="44.30563" lon="5.39244">
        <ele>736</ele>
        <time>2018-02-21T11:32:55Z</time>
      </trkpt>
      <trkpt lat="44.30561" lon="5.39232">
        <ele>737</ele>
        <time>2018-02-21T11:32:58Z</time>
      </trkpt>
      <trkpt lat="44.30559" lon="5.3922">
        <ele>738</ele>
        <time>2018-02-21T11:33:01Z</time>
      </trkpt>
      <trkpt lat="44.30557" lon="5.39208">
        <ele>739</ele>
        <time>2018-02-21T11:33:04Z</time>
      </trkpt>
      <trkpt lat="44.30555" lon="5.39197">
        <ele>738</ele>
        <time>2018-02-21T11:33:07Z</time>
      </trkpt>
      <trkpt lat="44.30554" lon="5.39185">
        <ele>739</ele>
        <time>2018-02-21T11:33:10Z</time>
      </trkpt>
      <trkpt lat="44.30553" lon="5.39177">
        <ele>739</ele>
        <time>2018-02-21T11:33:12Z</time>
      </trkpt>
      <trkpt lat="44.30551" lon="5.39165">
        <ele>740</ele>
        <time>2018-02-21T11:33:15Z</time>
      </trkpt>
      <trkpt lat="44.30551" lon="5.39157">
        <ele>741</ele>
        <time>2018-02-21T11:33:17Z</time>
      </trkpt>
      <trkpt lat="44.30553" lon="5.39145">
        <ele>741</ele>
        <time>2018-02-21T11:33:20Z</time>
      </trkpt>
      <trkpt lat="44.30554" lon="5.39137">
        <ele>742</ele>
        <time>2018-02-21T11:33:22Z</time>
      </trkpt>
      <trkpt lat="44.30556" lon="5.39129">
        <ele>742</ele>
        <time>2018-02-21T11:33:24Z</time>
      </trkpt>
      <trkpt lat="44.3056" lon="5.39118">
        <ele>743</ele>
        <time>2018-02-21T11:33:27Z</time>
      </trkpt>
      <trkpt lat="44.30563" lon="5.39107">
        <ele>744</ele>
        <time>2018-02-21T11:33:30Z</time>
      </trkpt>
      <trkpt lat="44.30567" lon="5.39096">
        <ele>743</ele>
        <time>2018-02-21T11:33:33Z</time>
      </trkpt>
      <trkpt lat="44.30569" lon="5.39085">
        <ele>743</ele>
        <time>2018-02-21T11:33:36Z</time>
      </trkpt>
      <trkpt lat="44.30571" lon="5.39077">
        <ele>743</ele>
        <time>2018-02-21T11:33:38Z</time>
      </trkpt>
      <trkpt lat="44.30572" lon="5.39069">
        <ele>744</ele>
        <time>2018-02-21T11:33:40Z</time>
      </trkpt>
      <trkpt lat="44.30573" lon="5.39057">
        <ele>744</ele>
        <time>2018-02-21T11:33:43Z</time>
      </trkpt>
      <trkpt lat="44.30573" lon="5.39045">
        <ele>745</ele>
        <time>2018-02-21T11:33:46Z</time>
      </trkpt>
      <trkpt lat="44.30573" lon="5.39032">
        <ele>746</ele>
        <time>2018-02-21T11:33:49Z</time>
      </trkpt>
      <trkpt lat="44.30572" lon="5.39019">
        <ele>747</ele>
        <time>2018-02-21T11:33:52Z</time>
      </trkpt>
      <trkpt lat="44.30571" lon="5.39006">
        <ele>747</ele>
        <time>2018-02-21T11:33:55Z</time>
      </trkpt>
      <trkpt lat="44.3057" lon="5.38994">
        <ele>747</ele>
        <time>2018-02-21T11:33:58Z</time>
      </trkpt>
      <trkpt lat="44.30569" lon="5.38981">
        <ele>748</ele>
        <time>2018-02-21T11:34:01Z</time>
      </trkpt>
      <trkpt lat="44.30568" lon="5.38969">
        <ele>749</ele>
        <time>2018-02-21T11:34:04Z</time>
      </trkpt>
      <trkpt lat="44.30567" lon="5.38961">
        <ele>749</ele>
        <time>2018-02-21T11:34:06Z</time>
      </trkpt>
      <trkpt lat="44.30566" lon="5.38948">
        <ele>749</ele>
        <time>2018-02-21T11:34:09Z</time>
      </trkpt>
      <trkpt lat="44.30564" lon="5.38936">
        <ele>750</ele>
        <time>2018-02-21T11:34:12Z</time>
      </trkpt>
      <trkpt lat="44.30563" lon="5.38924">
        <ele>751</ele>
        <time>2018-02-21T11:34:15Z</time>
      </trkpt>
      <trkpt lat="44.30563" lon="5.38912">
        <ele>751</ele>
        <time>2018-02-21T11:34:18Z</time>
      </trkpt>
      <trkpt lat="44.30562" lon="5.38899">
        <ele>752</ele>
        <time>2018-02-21T11:34:21Z</time>
      </trkpt>
      <trkpt lat="44.30563" lon="5.38887">
        <ele>752</ele>
        <time>2018-02-21T11:34:24Z</time>
      </trkpt>
      <trkpt lat="44.30563" lon="5.38878">
        <ele>752</ele>
        <time>2018-02-21T11:34:26Z</time>
      </trkpt>
      <trkpt lat="44.30564" lon="5.38865">
        <ele>753</ele>
        <time>2018-02-21T11:34:29Z</time>
      </trkpt>
      <trkpt lat="44.30565" lon="5.38853">
        <ele>753</ele>
        <time>2018-02-21T11:34:32Z</time>
      </trkpt>
      <trkpt lat="44.30566" lon="5.38844">
        <ele>754</ele>
        <time>2018-02-21T11:34:34Z</time>
      </trkpt>
      <trkpt lat="44.30567" lon="5.38836">
        <ele>754</ele>
        <time>2018-02-21T11:34:36Z</time>
      </trkpt>
      <trkpt lat="44.30569" lon="5.38828">
        <ele>755</ele>
        <time>2018-02-21T11:34:38Z</time>
      </trkpt>
      <trkpt lat="44.3057" lon="5.3882">
        <ele>755</ele>
        <time>2018-02-21T11:34:40Z</time>
      </trkpt>
      <trkpt lat="44.30573" lon="5.38813">
        <ele>755</ele>
        <time>2018-02-21T11:34:42Z</time>
      </trkpt>
      <trkpt lat="44.30576" lon="5.38805">
        <ele>754</ele>
        <time>2018-02-21T11:34:44Z</time>
      </trkpt>
      <trkpt lat="44.30579" lon="5.38799">
        <ele>754</ele>
        <time>2018-02-21T11:34:46Z</time>
      </trkpt>
      <trkpt lat="44.30582" lon="5.38792">
        <ele>754</ele>
        <time>2018-02-21T11:34:48Z</time>
      </trkpt>
      <trkpt lat="44.30588" lon="5.38781">
        <ele>754</ele>
        <time>2018-02-21T11:34:51Z</time>
      </trkpt>
      <trkpt lat="44.30591" lon="5.38774">
        <ele>755</ele>
        <time>2018-02-21T11:34:53Z</time>
      </trkpt>
      <trkpt lat="44.30594" lon="5.38766">
        <ele>755</ele>
        <time>2018-02-21T11:34:55Z</time>
      </trkpt>
      <trkpt lat="44.30597" lon="5.38759">
        <ele>756</ele>
        <time>2018-02-21T11:34:57Z</time>
      </trkpt>
      <trkpt lat="44.306" lon="5.38748">
        <ele>757</ele>
        <time>2018-02-21T11:35:00Z</time>
      </trkpt>
      <trkpt lat="44.30603" lon="5.38736">
        <ele>757</ele>
        <time>2018-02-21T11:35:03Z</time>
      </trkpt>
      <trkpt lat="44.30607" lon="5.38724">
        <ele>758</ele>
        <time>2018-02-21T11:35:06Z</time>
      </trkpt>
      <trkpt lat="44.3061" lon="5.38712">
        <ele>758</ele>
        <time>2018-02-21T11:35:09Z</time>
      </trkpt>
      <trkpt lat="44.30611" lon="5.38703">
        <ele>759</ele>
        <time>2018-02-21T11:35:11Z</time>
      </trkpt>
      <trkpt lat="44.30613" lon="5.38692">
        <ele>759</ele>
        <time>2018-02-21T11:35:14Z</time>
      </trkpt>
      <trkpt lat="44.30613" lon="5.38679">
        <ele>760</ele>
        <time>2018-02-21T11:35:17Z</time>
      </trkpt>
      <trkpt lat="44.30614" lon="5.38667">
        <ele>761</ele>
        <time>2018-02-21T11:35:20Z</time>
      </trkpt>
      <trkpt lat="44.30614" lon="5.38654">
        <ele>761</ele>
        <time>2018-02-21T11:35:23Z</time>
      </trkpt>
      <trkpt lat="44.30615" lon="5.38642">
        <ele>761</ele>
        <time>2018-02-21T11:35:26Z</time>
      </trkpt>
      <trkpt lat="44.30618" lon="5.3863">
        <ele>762</ele>
        <time>2018-02-21T11:35:29Z</time>
      </trkpt>
      <trkpt lat="44.30619" lon="5.38623">
        <ele>762</ele>
        <time>2018-02-21T11:35:31Z</time>
      </trkpt>
      <trkpt lat="44.30621" lon="5.38615">
        <ele>763</ele>
        <time>2018-02-21T11:35:33Z</time>
      </trkpt>
      <trkpt lat="44.30626" lon="5.38605">
        <ele>764</ele>
        <time>2018-02-21T11:35:36Z</time>
      </trkpt>
      <trkpt lat="44.30629" lon="5.38598">
        <ele>763</ele>
        <time>2018-02-21T11:35:38Z</time>
      </trkpt>
      <trkpt lat="44.30635" lon="5.38588">
        <ele>763</ele>
        <time>2018-02-21T11:35:41Z</time>
      </trkpt>
      <trkpt lat="44.30642" lon="5.38582">
        <ele>762</ele>
        <time>2018-02-21T11:35:44Z</time>
      </trkpt>
      <trkpt lat="44.30646" lon="5.38577">
        <ele>763</ele>
        <time>2018-02-21T11:35:46Z</time>
      </trkpt>
      <trkpt lat="44.3065" lon="5.38571">
        <ele>763</ele>
        <time>2018-02-21T11:35:48Z</time>
      </trkpt>
      <trkpt lat="44.30656" lon="5.38562">
        <ele>764</ele>
        <time>2018-02-21T11:35:51Z</time>
      </trkpt>
      <trkpt lat="44.30662" lon="5.38552">
        <ele>764</ele>
        <time>2018-02-21T11:35:54Z</time>
      </trkpt>
      <trkpt lat="44.30664" lon="5.38545">
        <ele>764</ele>
        <time>2018-02-21T11:35:56Z</time>
      </trkpt>
      <trkpt lat="44.30666" lon="5.38539">
        <ele>764</ele>
        <time>2018-02-21T11:35:58Z</time>
      </trkpt>
      <trkpt lat="44.30667" lon="5.38531">
        <ele>765</ele>
        <time>2018-02-21T11:36:01Z</time>
      </trkpt>
      <trkpt lat="44.30668" lon="5.38522">
        <ele>764</ele>
        <time>2018-02-21T11:36:04Z</time>
      </trkpt>
      <trkpt lat="44.30669" lon="5.38511">
        <ele>764</ele>
        <time>2018-02-21T11:36:07Z</time>
      </trkpt>
      <trkpt lat="44.30671" lon="5.385">
        <ele>765</ele>
        <time>2018-02-21T11:36:10Z</time>
      </trkpt>
      <trkpt lat="44.30672" lon="5.38489">
        <ele>765</ele>
        <time>2018-02-21T11:36:13Z</time>
      </trkpt>
      <trkpt lat="44.30674" lon="5.38477">
        <ele>766</ele>
        <time>2018-02-21T11:36:16Z</time>
      </trkpt>
      <trkpt lat="44.30675" lon="5.38465">
        <ele>767</ele>
        <time>2018-02-21T11:36:19Z</time>
      </trkpt>
      <trkpt lat="44.30676" lon="5.38453">
        <ele>769</ele>
        <time>2018-02-21T11:36:22Z</time>
      </trkpt>
      <trkpt lat="44.30676" lon="5.38445">
        <ele>769</ele>
        <time>2018-02-21T11:36:24Z</time>
      </trkpt>
      <trkpt lat="44.30676" lon="5.38437">
        <ele>770</ele>
        <time>2018-02-21T11:36:26Z</time>
      </trkpt>
      <trkpt lat="44.30677" lon="5.38425">
        <ele>770</ele>
        <time>2018-02-21T11:36:29Z</time>
      </trkpt>
      <trkpt lat="44.30676" lon="5.38413">
        <ele>770</ele>
        <time>2018-02-21T11:36:32Z</time>
      </trkpt>
      <trkpt lat="44.30675" lon="5.38405">
        <ele>771</ele>
        <time>2018-02-21T11:36:34Z</time>
      </trkpt>
      <trkpt lat="44.30674" lon="5.38392">
        <ele>771</ele>
        <time>2018-02-21T11:36:37Z</time>
      </trkpt>
      <trkpt lat="44.30674" lon="5.38383">
        <ele>772</ele>
        <time>2018-02-21T11:36:39Z</time>
      </trkpt>
      <trkpt lat="44.30673" lon="5.38372">
        <ele>773</ele>
        <time>2018-02-21T11:36:42Z</time>
      </trkpt>
      <trkpt lat="44.30673" lon="5.38364">
        <ele>774</ele>
        <time>2018-02-21T11:36:44Z</time>
      </trkpt>
      <trkpt lat="44.30673" lon="5.38355">
        <ele>774</ele>
        <time>2018-02-21T11:36:46Z</time>
      </trkpt>
      <trkpt lat="44.30673" lon="5.38343">
        <ele>774</ele>
        <time>2018-02-21T11:36:49Z</time>
      </trkpt>
      <trkpt lat="44.30674" lon="5.38335">
        <ele>775</ele>
        <time>2018-02-21T11:36:51Z</time>
      </trkpt>
      <trkpt lat="44.30675" lon="5.38327">
        <ele>775</ele>
        <time>2018-02-21T11:36:53Z</time>
      </trkpt>
      <trkpt lat="44.30676" lon="5.38319">
        <ele>775</ele>
        <time>2018-02-21T11:36:55Z</time>
      </trkpt>
      <trkpt lat="44.30679" lon="5.38312">
        <ele>776</ele>
        <time>2018-02-21T11:36:57Z</time>
      </trkpt>
      <trkpt lat="44.30681" lon="5.38304">
        <ele>775</ele>
        <time>2018-02-21T11:36:59Z</time>
      </trkpt>
      <trkpt lat="44.30684" lon="5.38297">
        <ele>776</ele>
        <time>2018-02-21T11:37:01Z</time>
      </trkpt>
      <trkpt lat="44.30688" lon="5.38286">
        <ele>776</ele>
        <time>2018-02-21T11:37:04Z</time>
      </trkpt>
      <trkpt lat="44.30693" lon="5.38276">
        <ele>776</ele>
        <time>2018-02-21T11:37:07Z</time>
      </trkpt>
      <trkpt lat="44.30697" lon="5.3827">
        <ele>776</ele>
        <time>2018-02-21T11:37:09Z</time>
      </trkpt>
      <trkpt lat="44.30702" lon="5.38261">
        <ele>777</ele>
        <time>2018-02-21T11:37:12Z</time>
      </trkpt>
      <trkpt lat="44.30708" lon="5.38252">
        <ele>777</ele>
        <time>2018-02-21T11:37:15Z</time>
      </trkpt>
      <trkpt lat="44.30712" lon="5.38247">
        <ele>777</ele>
        <time>2018-02-21T11:37:17Z</time>
      </trkpt>
      <trkpt lat="44.30716" lon="5.38242">
        <ele>777</ele>
        <time>2018-02-21T11:37:19Z</time>
      </trkpt>
      <trkpt lat="44.30721" lon="5.38237">
        <ele>778</ele>
        <time>2018-02-21T11:37:21Z</time>
      </trkpt>
      <trkpt lat="44.30727" lon="5.38229">
        <ele>779</ele>
        <time>2018-02-21T11:37:24Z</time>
      </trkpt>
      <trkpt lat="44.30732" lon="5.38224">
        <ele>779</ele>
        <time>2018-02-21T11:37:26Z</time>
      </trkpt>
      <trkpt lat="44.30739" lon="5.38218">
        <ele>779</ele>
        <time>2018-02-21T11:37:29Z</time>
      </trkpt>
      <trkpt lat="44.30748" lon="5.38215">
        <ele>780</ele>
        <time>2018-02-21T11:37:32Z</time>
      </trkpt>
      <trkpt lat="44.30756" lon="5.38215">
        <ele>779</ele>
        <time>2018-02-21T11:37:35Z</time>
      </trkpt>
      <trkpt lat="44.30765" lon="5.38217">
        <ele>780</ele>
        <time>2018-02-21T11:37:38Z</time>
      </trkpt>
      <trkpt lat="44.30773" lon="5.38219">
        <ele>782</ele>
        <time>2018-02-21T11:37:41Z</time>
      </trkpt>
      <trkpt lat="44.30782" lon="5.38223">
        <ele>783</ele>
        <time>2018-02-21T11:37:44Z</time>
      </trkpt>
      <trkpt lat="44.3079" lon="5.38227">
        <ele>782</ele>
        <time>2018-02-21T11:37:47Z</time>
      </trkpt>
      <trkpt lat="44.30795" lon="5.3823">
        <ele>782</ele>
        <time>2018-02-21T11:37:49Z</time>
      </trkpt>
      <trkpt lat="44.308" lon="5.38232">
        <ele>781</ele>
        <time>2018-02-21T11:37:51Z</time>
      </trkpt>
      <trkpt lat="44.30809" lon="5.38234">
        <ele>781</ele>
        <time>2018-02-21T11:37:54Z</time>
      </trkpt>
      <trkpt lat="44.30817" lon="5.38238">
        <ele>782</ele>
        <time>2018-02-21T11:37:57Z</time>
      </trkpt>
      <trkpt lat="44.30822" lon="5.3824">
        <ele>782</ele>
        <time>2018-02-21T11:37:59Z</time>
      </trkpt>
      <trkpt lat="44.30831" lon="5.38243">
        <ele>782</ele>
        <time>2018-02-21T11:38:02Z</time>
      </trkpt>
      <trkpt lat="44.3084" lon="5.38246">
        <ele>782</ele>
        <time>2018-02-21T11:38:05Z</time>
      </trkpt>
      <trkpt lat="44.30849" lon="5.38251">
        <ele>783</ele>
        <time>2018-02-21T11:38:08Z</time>
      </trkpt>
      <trkpt lat="44.30854" lon="5.38254">
        <ele>783</ele>
        <time>2018-02-21T11:38:10Z</time>
      </trkpt>
      <trkpt lat="44.30861" lon="5.38262">
        <ele>784</ele>
        <time>2018-02-21T11:38:13Z</time>
      </trkpt>
      <trkpt lat="44.30866" lon="5.38266">
        <ele>785</ele>
        <time>2018-02-21T11:38:15Z</time>
      </trkpt>
      <trkpt lat="44.30873" lon="5.38273">
        <ele>785</ele>
        <time>2018-02-21T11:38:18Z</time>
      </trkpt>
      <trkpt lat="44.30881" lon="5.38279">
        <ele>786</ele>
        <time>2018-02-21T11:38:21Z</time>
      </trkpt>
      <trkpt lat="44.30886" lon="5.38281">
        <ele>785</ele>
        <time>2018-02-21T11:38:23Z</time>
      </trkpt>
      <trkpt lat="44.30894" lon="5.38285">
        <ele>786</ele>
        <time>2018-02-21T11:38:26Z</time>
      </trkpt>
      <trkpt lat="44.30903" lon="5.38287">
        <ele>786</ele>
        <time>2018-02-21T11:38:29Z</time>
      </trkpt>
      <trkpt lat="44.30911" lon="5.38289">
        <ele>786</ele>
        <time>2018-02-21T11:38:32Z</time>
      </trkpt>
      <trkpt lat="44.3092" lon="5.38289">
        <ele>786</ele>
        <time>2018-02-21T11:38:35Z</time>
      </trkpt>
      <trkpt lat="44.30932" lon="5.38288">
        <ele>787</ele>
        <time>2018-02-21T11:38:38Z</time>
      </trkpt>
      <trkpt lat="44.30939" lon="5.38289">
        <ele>787</ele>
        <time>2018-02-21T11:38:40Z</time>
      </trkpt>
      <trkpt lat="44.30949" lon="5.38292">
        <ele>786</ele>
        <time>2018-02-21T11:38:43Z</time>
      </trkpt>
      <trkpt lat="44.30959" lon="5.38297">
        <ele>786</ele>
        <time>2018-02-21T11:38:46Z</time>
      </trkpt>
      <trkpt lat="44.30969" lon="5.38302">
        <ele>786</ele>
        <time>2018-02-21T11:38:49Z</time>
      </trkpt>
      <trkpt lat="44.30979" lon="5.38306">
        <ele>787</ele>
        <time>2018-02-21T11:38:52Z</time>
      </trkpt>
      <trkpt lat="44.30989" lon="5.38307">
        <ele>788</ele>
        <time>2018-02-21T11:38:55Z</time>
      </trkpt>
      <trkpt lat="44.30999" lon="5.38306">
        <ele>788</ele>
        <time>2018-02-21T11:38:58Z</time>
      </trkpt>
      <trkpt lat="44.31009" lon="5.38303">
        <ele>789</ele>
        <time>2018-02-21T11:39:01Z</time>
      </trkpt>
      <trkpt lat="44.31016" lon="5.38301">
        <ele>789</ele>
        <time>2018-02-21T11:39:03Z</time>
      </trkpt>
      <trkpt lat="44.31023" lon="5.383">
        <ele>789</ele>
        <time>2018-02-21T11:39:05Z</time>
      </trkpt>
      <trkpt lat="44.31033" lon="5.38299">
        <ele>790</ele>
        <time>2018-02-21T11:39:08Z</time>
      </trkpt>
      <trkpt lat="44.31043" lon="5.383">
        <ele>790</ele>
        <time>2018-02-21T11:39:11Z</time>
      </trkpt>
      <trkpt lat="44.31053" lon="5.38304">
        <ele>790</ele>
        <time>2018-02-21T11:39:14Z</time>
      </trkpt>
      <trkpt lat="44.31061" lon="5.38312">
        <ele>791</ele>
        <time>2018-02-21T11:39:17Z</time>
      </trkpt>
      <trkpt lat="44.31065" lon="5.38318">
        <ele>792</ele>
        <time>2018-02-21T11:39:19Z</time>
      </trkpt>
      <trkpt lat="44.3107" lon="5.38325">
        <ele>792</ele>
        <time>2018-02-21T11:39:21Z</time>
      </trkpt>
      <trkpt lat="44.31078" lon="5.38335">
        <ele>792</ele>
        <time>2018-02-21T11:39:24Z</time>
      </trkpt>
      <trkpt lat="44.31083" lon="5.38342">
        <ele>792</ele>
        <time>2018-02-21T11:39:26Z</time>
      </trkpt>
      <trkpt lat="44.3109" lon="5.38351">
        <ele>793</ele>
        <time>2018-02-21T11:39:29Z</time>
      </trkpt>
      <trkpt lat="44.31099" lon="5.38359">
        <ele>793</ele>
        <time>2018-02-21T11:39:32Z</time>
      </trkpt>
      <trkpt lat="44.31109" lon="5.38365">
        <ele>794</ele>
        <time>2018-02-21T11:39:35Z</time>
      </trkpt>
      <trkpt lat="44.31118" lon="5.38365">
        <ele>794</ele>
        <time>2018-02-21T11:39:38Z</time>
      </trkpt>
      <trkpt lat="44.31123" lon="5.38362">
        <ele>795</ele>
        <time>2018-02-21T11:39:41Z</time>
      </trkpt>
      <trkpt lat="44.31128" lon="5.38361">
        <ele>795</ele>
        <time>2018-02-21T11:39:43Z</time>
      </trkpt>
      <trkpt lat="44.31133" lon="5.38355">
        <ele>796</ele>
        <time>2018-02-21T11:39:46Z</time>
      </trkpt>
      <trkpt lat="44.31139" lon="5.38346">
        <ele>796</ele>
        <time>2018-02-21T11:39:49Z</time>
      </trkpt>
      <trkpt lat="44.31143" lon="5.38341">
        <ele>797</ele>
        <time>2018-02-21T11:39:51Z</time>
      </trkpt>
      <trkpt lat="44.3115" lon="5.38334">
        <ele>797</ele>
        <time>2018-02-21T11:39:54Z</time>
      </trkpt>
      <trkpt lat="44.31154" lon="5.38329">
        <ele>797</ele>
        <time>2018-02-21T11:39:56Z</time>
      </trkpt>
      <trkpt lat="44.31162" lon="5.38322">
        <ele>797</ele>
        <time>2018-02-21T11:39:59Z</time>
      </trkpt>
      <trkpt lat="44.31167" lon="5.38318">
        <ele>797</ele>
        <time>2018-02-21T11:40:01Z</time>
      </trkpt>
      <trkpt lat="44.31172" lon="5.38313">
        <ele>797</ele>
        <time>2018-02-21T11:40:03Z</time>
      </trkpt>
      <trkpt lat="44.31177" lon="5.38308">
        <ele>797</ele>
        <time>2018-02-21T11:40:05Z</time>
      </trkpt>
      <trkpt lat="44.31182" lon="5.38303">
        <ele>798</ele>
        <time>2018-02-21T11:40:07Z</time>
      </trkpt>
      <trkpt lat="44.31187" lon="5.38298">
        <ele>798</ele>
        <time>2018-02-21T11:40:09Z</time>
      </trkpt>
      <trkpt lat="44.31195" lon="5.3829">
        <ele>799</ele>
        <time>2018-02-21T11:40:12Z</time>
      </trkpt>
      <trkpt lat="44.31199" lon="5.38285">
        <ele>799</ele>
        <time>2018-02-21T11:40:14Z</time>
      </trkpt>
      <trkpt lat="44.31205" lon="5.38275">
        <ele>800</ele>
        <time>2018-02-21T11:40:17Z</time>
      </trkpt>
      <trkpt lat="44.31211" lon="5.38265">
        <ele>801</ele>
        <time>2018-02-21T11:40:20Z</time>
      </trkpt>
      <trkpt lat="44.31216" lon="5.38259">
        <ele>801</ele>
        <time>2018-02-21T11:40:22Z</time>
      </trkpt>
      <trkpt lat="44.31224" lon="5.38251">
        <ele>801</ele>
        <time>2018-02-21T11:40:25Z</time>
      </trkpt>
      <trkpt lat="44.31232" lon="5.38245">
        <ele>801</ele>
        <time>2018-02-21T11:40:28Z</time>
      </trkpt>
      <trkpt lat="44.31238" lon="5.38243">
        <ele>801</ele>
        <time>2018-02-21T11:40:30Z</time>
      </trkpt>
      <trkpt lat="44.31247" lon="5.3824">
        <ele>802</ele>
        <time>2018-02-21T11:40:33Z</time>
      </trkpt>
      <trkpt lat="44.31256" lon="5.38239">
        <ele>803</ele>
        <time>2018-02-21T11:40:36Z</time>
      </trkpt>
      <trkpt lat="44.31264" lon="5.38241">
        <ele>803</ele>
        <time>2018-02-21T11:40:39Z</time>
      </trkpt>
      <trkpt lat="44.31272" lon="5.38246">
        <ele>803</ele>
        <time>2018-02-21T11:40:42Z</time>
      </trkpt>
      <trkpt lat="44.31279" lon="5.38252">
        <ele>803</ele>
        <time>2018-02-21T11:40:45Z</time>
      </trkpt>
      <trkpt lat="44.31286" lon="5.38259">
        <ele>803</ele>
        <time>2018-02-21T11:40:48Z</time>
      </trkpt>
      <trkpt lat="44.31294" lon="5.38264">
        <ele>803</ele>
        <time>2018-02-21T11:40:51Z</time>
      </trkpt>
      <trkpt lat="44.31299" lon="5.38266">
        <ele>803</ele>
        <time>2018-02-21T11:40:53Z</time>
      </trkpt>
      <trkpt lat="44.31304" lon="5.38266">
        <ele>803</ele>
        <time>2018-02-21T11:40:55Z</time>
      </trkpt>
      <trkpt lat="44.31312" lon="5.38264">
        <ele>803</ele>
        <time>2018-02-21T11:40:58Z</time>
      </trkpt>
      <trkpt lat="44.31316" lon="5.38263">
        <ele>803</ele>
        <time>2018-02-21T11:41:01Z</time>
      </trkpt>
      <trkpt lat="44.31318" lon="5.38263">
        <ele>803</ele>
        <time>2018-02-21T11:41:04Z</time>
      </trkpt>
      <trkpt lat="44.31318" lon="5.38263">
        <ele>803</ele>
        <time>2018-02-21T11:41:06Z</time>
      </trkpt>
      <trkpt lat="44.3132" lon="5.38262">
        <ele>803</ele>
        <time>2018-02-21T11:41:08Z</time>
      </trkpt>
      <trkpt lat="44.31321" lon="5.38262">
        <ele>803</ele>
        <time>2018-02-21T11:41:11Z</time>
      </trkpt>
      <trkpt lat="44.31321" lon="5.38262">
        <ele>804</ele>
        <time>2018-02-21T11:41:14Z</time>
      </trkpt>
      <trkpt lat="44.31321" lon="5.38262">
        <ele>804</ele>
        <time>2018-02-21T11:41:17Z</time>
      </trkpt>
      <trkpt lat="44.31322" lon="5.38262">
        <ele>804</ele>
        <time>2018-02-21T11:41:19Z</time>
      </trkpt>
      <trkpt lat="44.31322" lon="5.38262">
        <ele>804</ele>
        <time>2018-02-21T11:41:22Z</time>
      </trkpt>
      <trkpt lat="44.31322" lon="5.38262">
        <ele>805</ele>
        <time>2018-02-21T11:41:24Z</time>
      </trkpt>
      <trkpt lat="44.31322" lon="5.38262">
        <ele>804</ele>
        <time>2018-02-21T11:41:28Z</time>
      </trkpt>
      <trkpt lat="44.31322" lon="5.38262">
        <ele>804</ele>
        <time>2018-02-21T11:41:38Z</time>
      </trkpt>
      <trkpt lat="44.31322" lon="5.38262">
        <ele>803</ele>
        <time>2018-02-21T11:41:42Z</time>
      </trkpt>
      <trkpt lat="44.31323" lon="5.38262">
        <ele>804</ele>
        <time>2018-02-21T11:41:47Z</time>
      </trkpt>
      <trkpt lat="44.31322" lon="5.38262">
        <ele>804</ele>
        <time>2018-02-21T11:41:49Z</time>
      </trkpt>
      <trkpt lat="44.31323" lon="5.38263">
        <ele>804</ele>
        <time>2018-02-21T11:41:51Z</time>
      </trkpt>
      <trkpt lat="44.31323" lon="5.38263">
        <ele>804</ele>
        <time>2018-02-21T11:41:54Z</time>
      </trkpt>
      <trkpt lat="44.31323" lon="5.38263">
        <ele>804</ele>
        <time>2018-02-21T11:41:57Z</time>
      </trkpt>
      <trkpt lat="44.31323" lon="5.38262">
        <ele>804</ele>
        <time>2018-02-21T11:42:01Z</time>
      </trkpt>
      <trkpt lat="44.31323" lon="5.38262">
        <ele>804</ele>
        <time>2018-02-21T11:42:05Z</time>
      </trkpt>
      <trkpt lat="44.31323" lon="5.38263">
        <ele>804</ele>
        <time>2018-02-21T11:42:08Z</time>
      </trkpt>
      <trkpt lat="44.31322" lon="5.38263">
        <ele>805</ele>
        <time>2018-02-21T11:42:10Z</time>
      </trkpt>
      <trkpt lat="44.31322" lon="5.38263">
        <ele>805</ele>
        <time>2018-02-21T11:42:12Z</time>
      </trkpt>
      <trkpt lat="44.31322" lon="5.38263">
        <ele>805</ele>
        <time>2018-02-21T11:42:14Z</time>
      </trkpt>
      <trkpt lat="44.31322" lon="5.38263">
        <ele>805</ele>
        <time>2018-02-21T11:42:16Z</time>
      </trkpt>
      <trkpt lat="44.31322" lon="5.38263">
        <ele>805</ele>
        <time>2018-02-21T11:42:18Z</time>
      </trkpt>
      <trkpt lat="44.31321" lon="5.38263">
        <ele>805</ele>
        <time>2018-02-21T11:42:21Z</time>
      </trkpt>
      <trkpt lat="44.31321" lon="5.38263">
        <ele>805</ele>
        <time>2018-02-21T11:42:24Z</time>
      </trkpt>
      <trkpt lat="44.31321" lon="5.38263">
        <ele>804</ele>
        <time>2018-02-21T11:42:27Z</time>
      </trkpt>
      <trkpt lat="44.31321" lon="5.38263">
        <ele>803</ele>
        <time>2018-02-21T11:42:30Z</time>
      </trkpt>
      <trkpt lat="44.31321" lon="5.38263">
        <ele>803</ele>
        <time>2018-02-21T11:42:33Z</time>
      </trkpt>
      <trkpt lat="44.31321" lon="5.38263">
        <ele>803</ele>
        <time>2018-02-21T11:42:36Z</time>
      </trkpt>
      <trkpt lat="44.31321" lon="5.38263">
        <ele>803</ele>
        <time>2018-02-21T11:42:40Z</time>
      </trkpt>
      <trkpt lat="44.3132" lon="5.38263">
        <ele>803</ele>
        <time>2018-02-21T11:42:44Z</time>
      </trkpt>
      <trkpt lat="44.3132" lon="5.38264">
        <ele>803</ele>
        <time>2018-02-21T11:42:48Z</time>
      </trkpt>
      <trkpt lat="44.3132" lon="5.38264">
        <ele>803</ele>
        <time>2018-02-21T11:42:50Z</time>
      </trkpt>
      <trkpt lat="44.3132" lon="5.38264">
        <ele>802</ele>
        <time>2018-02-21T11:42:55Z</time>
      </trkpt>
      <trkpt lat="44.3132" lon="5.38264">
        <ele>802</ele>
        <time>2018-02-21T11:43:00Z</time>
      </trkpt>
      <trkpt lat="44.3132" lon="5.38264">
        <ele>802</ele>
        <time>2018-02-21T11:43:07Z</time>
      </trkpt>
      <trkpt lat="44.31319" lon="5.38264">
        <ele>802</ele>
        <time>2018-02-21T11:43:12Z</time>
      </trkpt>
      <trkpt lat="44.31319" lon="5.38264">
        <ele>802</ele>
        <time>2018-02-21T11:43:16Z</time>
      </trkpt>
      <trkpt lat="44.31319" lon="5.38264">
        <ele>802</ele>
        <time>2018-02-21T11:43:19Z</time>
      </trkpt>
      <trkpt lat="44.31319" lon="5.38264">
        <ele>802</ele>
        <time>2018-02-21T11:43:25Z</time>
      </trkpt>
      <trkpt lat="44.31319" lon="5.38264">
        <ele>802</ele>
        <time>2018-02-21T11:43:33Z</time>
      </trkpt>
      <trkpt lat="44.31319" lon="5.38264">
        <ele>802</ele>
        <time>2018-02-21T11:43:37Z</time>
      </trkpt>
      <trkpt lat="44.31319" lon="5.38264">
        <ele>802</ele>
        <time>2018-02-21T11:43:42Z</time>
      </trkpt>
      <trkpt lat="44.31319" lon="5.38264">
        <ele>802</ele>
        <time>2018-02-21T11:43:53Z</time>
      </trkpt>
      <trkpt lat="44.31319" lon="5.38264">
        <ele>802</ele>
        <time>2018-02-21T11:44:02Z</time>
      </trkpt>
      <trkpt lat="44.31318" lon="5.38264">
        <ele>803</ele>
        <time>2018-02-21T11:44:12Z</time>
      </trkpt>
      <trkpt lat="44.31318" lon="5.38264">
        <ele>803</ele>
        <time>2018-02-21T11:44:19Z</time>
      </trkpt>
      <trkpt lat="44.31318" lon="5.38264">
        <ele>803</ele>
        <time>2018-02-21T11:44:23Z</time>
      </trkpt>
      <trkpt lat="44.31318" lon="5.38264">
        <ele>803</ele>
        <time>2018-02-21T11:44:27Z</time>
      </trkpt>
      <trkpt lat="44.31318" lon="5.38264">
        <ele>802</ele>
        <time>2018-02-21T11:44:34Z</time>
      </trkpt>
      <trkpt lat="44.31318" lon="5.38264">
        <ele>802</ele>
        <time>2018-02-21T11:44:37Z</time>
      </trkpt>
      <trkpt lat="44.31318" lon="5.38263">
        <ele>803</ele>
        <time>2018-02-21T11:44:48Z</time>
      </trkpt>
      <trkpt lat="44.31318" lon="5.38263">
        <ele>803</ele>
        <time>2018-02-21T11:44:50Z</time>
      </trkpt>
      <trkpt lat="44.31318" lon="5.38263">
        <ele>803</ele>
        <time>2018-02-21T11:45:03Z</time>
      </trkpt>
      <trkpt lat="44.31318" lon="5.38263">
        <ele>803</ele>
        <time>2018-02-21T11:45:07Z</time>
      </trkpt>
      <trkpt lat="44.31317" lon="5.38263">
        <ele>805</ele>
        <time>2018-02-21T11:46:18Z</time>
      </trkpt>
      <trkpt lat="44.31317" lon="5.38263">
        <ele>803</ele>
        <time>2018-02-21T11:46:41Z</time>
      </trkpt>
      <trkpt lat="44.31317" lon="5.38263">
        <ele>803</ele>
        <time>2018-02-21T11:47:08Z</time>
      </trkpt>
      <trkpt lat="44.31318" lon="5.38263">
        <ele>804</ele>
        <time>2018-02-21T11:47:24Z</time>
      </trkpt>
      <trkpt lat="44.31318" lon="5.38263">
        <ele>805</ele>
        <time>2018-02-21T11:47:28Z</time>
      </trkpt>
      <trkpt lat="44.31318" lon="5.38263">
        <ele>803</ele>
        <time>2018-02-21T11:48:03Z</time>
      </trkpt>
      <trkpt lat="44.31318" lon="5.38262">
        <ele>803</ele>
        <time>2018-02-21T11:48:14Z</time>
      </trkpt>
      <trkpt lat="44.31318" lon="5.38262">
        <ele>802</ele>
        <time>2018-02-21T11:48:29Z</time>
      </trkpt>
      <trkpt lat="44.31318" lon="5.38263">
        <ele>802</ele>
        <time>2018-02-21T11:48:38Z</time>
      </trkpt>
      <trkpt lat="44.31318" lon="5.38263">
        <ele>803</ele>
        <time>2018-02-21T11:48:44Z</time>
      </trkpt>
      <trkpt lat="44.31318" lon="5.38263">
        <ele>803</ele>
        <time>2018-02-21T11:48:51Z</time>
      </trkpt>
      <trkpt lat="44.31318" lon="5.38263">
        <ele>803</ele>
        <time>2018-02-21T11:48:55Z</time>
      </trkpt>
      <trkpt lat="44.31319" lon="5.38263">
        <ele>803</ele>
        <time>2018-02-21T11:49:03Z</time>
      </trkpt>
      <trkpt lat="44.31319" lon="5.38263">
        <ele>802</ele>
        <time>2018-02-21T11:49:15Z</time>
      </trkpt>
      <trkpt lat="44.31319" lon="5.38263">
        <ele>803</ele>
        <time>2018-02-21T11:49:28Z</time>
      </trkpt>
      <trkpt lat="44.31319" lon="5.38262">
        <ele>804</ele>
        <time>2018-02-21T11:49:32Z</time>
      </trkpt>
      <trkpt lat="44.31319" lon="5.38262">
        <ele>803</ele>
        <time>2018-02-21T11:49:34Z</time>
      </trkpt>
      <trkpt lat="44.31319" lon="5.38262">
        <ele>804</ele>
        <time>2018-02-21T11:49:40Z</time>
      </trkpt>
      <trkpt lat="44.31319" lon="5.38262">
        <ele>804</ele>
        <time>2018-02-21T11:49:43Z</time>
      </trkpt>
      <trkpt lat="44.31319" lon="5.38262">
        <ele>803</ele>
        <time>2018-02-21T11:49:46Z</time>
      </trkpt>
      <trkpt lat="44.3132" lon="5.38262">
        <ele>803</ele>
        <time>2018-02-21T11:49:50Z</time>
      </trkpt>
      <trkpt lat="44.3132" lon="5.38262">
        <ele>803</ele>
        <time>2018-02-21T11:49:56Z</time>
      </trkpt>
      <trkpt lat="44.3132" lon="5.38262">
        <ele>803</ele>
        <time>2018-02-21T11:50:01Z</time>
      </trkpt>
      <trkpt lat="44.3132" lon="5.38262">
        <ele>804</ele>
        <time>2018-02-21T11:50:07Z</time>
      </trkpt>
      <trkpt lat="44.3132" lon="5.38262">
        <ele>803</ele>
        <time>2018-02-21T11:50:15Z</time>
      </trkpt>
      <trkpt lat="44.31321" lon="5.38262">
        <ele>803</ele>
        <time>2018-02-21T11:50:22Z</time>
      </trkpt>
      <trkpt lat="44.31321" lon="5.38262">
        <ele>804</ele>
        <time>2018-02-21T11:50:32Z</time>
      </trkpt>
      <trkpt lat="44.31321" lon="5.38262">
        <ele>804</ele>
        <time>2018-02-21T11:50:38Z</time>
      </trkpt>
      <trkpt lat="44.31321" lon="5.38262">
        <ele>804</ele>
        <time>2018-02-21T11:50:40Z</time>
      </trkpt>
      <trkpt lat="44.31321" lon="5.38262">
        <ele>805</ele>
        <time>2018-02-21T11:50:50Z</time>
      </trkpt>
      <trkpt lat="44.31321" lon="5.38262">
        <ele>805</ele>
        <time>2018-02-21T11:50:52Z</time>
      </trkpt>
      <trkpt lat="44.31321" lon="5.38262">
        <ele>804</ele>
        <time>2018-02-21T11:51:10Z</time>
      </trkpt>
      <trkpt lat="44.31321" lon="5.38262">
        <ele>803</ele>
        <time>2018-02-21T11:51:24Z</time>
      </trkpt>
      <trkpt lat="44.31321" lon="5.38262">
        <ele>803</ele>
        <time>2018-02-21T11:51:29Z</time>
      </trkpt>
      <trkpt lat="44.31321" lon="5.38261">
        <ele>803</ele>
        <time>2018-02-21T11:51:42Z</time>
      </trkpt>
      <trkpt lat="44.31321" lon="5.38261">
        <ele>802</ele>
        <time>2018-02-21T11:51:56Z</time>
      </trkpt>
      <trkpt lat="44.31321" lon="5.38261">
        <ele>803</ele>
        <time>2018-02-21T11:52:13Z</time>
      </trkpt>
      <trkpt lat="44.31322" lon="5.38261">
        <ele>802</ele>
        <time>2018-02-21T11:52:17Z</time>
      </trkpt>
      <trkpt lat="44.31322" lon="5.38261">
        <ele>802</ele>
        <time>2018-02-21T11:52:21Z</time>
      </trkpt>
      <trkpt lat="44.31321" lon="5.38261">
        <ele>803</ele>
        <time>2018-02-21T11:52:31Z</time>
      </trkpt>
      <trkpt lat="44.31322" lon="5.38261">
        <ele>803</ele>
        <time>2018-02-21T11:52:33Z</time>
      </trkpt>
      <trkpt lat="44.31322" lon="5.38261">
        <ele>802</ele>
        <time>2018-02-21T11:52:40Z</time>
      </trkpt>
      <trkpt lat="44.31321" lon="5.38261">
        <ele>802</ele>
        <time>2018-02-21T11:52:43Z</time>
      </trkpt>
      <trkpt lat="44.31321" lon="5.3826">
        <ele>802</ele>
        <time>2018-02-21T11:52:46Z</time>
      </trkpt>
      <trkpt lat="44.31321" lon="5.3826">
        <ele>802</ele>
        <time>2018-02-21T11:52:49Z</time>
      </trkpt>
      <trkpt lat="44.31321" lon="5.3826">
        <ele>803</ele>
        <time>2018-02-21T11:52:51Z</time>
      </trkpt>
      <trkpt lat="44.31321" lon="5.3826">
        <ele>803</ele>
        <time>2018-02-21T11:52:54Z</time>
      </trkpt>
      <trkpt lat="44.31321" lon="5.3826">
        <ele>804</ele>
        <time>2018-02-21T11:52:56Z</time>
      </trkpt>
      <trkpt lat="44.31322" lon="5.3826">
        <ele>803</ele>
        <time>2018-02-21T11:52:58Z</time>
      </trkpt>
      <trkpt lat="44.31322" lon="5.3826">
        <ele>803</ele>
        <time>2018-02-21T11:53:00Z</time>
      </trkpt>
      <trkpt lat="44.31322" lon="5.3826">
        <ele>803</ele>
        <time>2018-02-21T11:53:02Z</time>
      </trkpt>
      <trkpt lat="44.31323" lon="5.3826">
        <ele>803</ele>
        <time>2018-02-21T11:53:05Z</time>
      </trkpt>
      <trkpt lat="44.31323" lon="5.3826">
        <ele>803</ele>
        <time>2018-02-21T11:53:07Z</time>
      </trkpt>
      <trkpt lat="44.31323" lon="5.3826">
        <ele>803</ele>
        <time>2018-02-21T11:53:09Z</time>
      </trkpt>
      <trkpt lat="44.31324" lon="5.3826">
        <ele>803</ele>
        <time>2018-02-21T11:53:13Z</time>
      </trkpt>
      <trkpt lat="44.31324" lon="5.3826">
        <ele>803</ele>
        <time>2018-02-21T11:53:15Z</time>
      </trkpt>
      <trkpt lat="44.31324" lon="5.3826">
        <ele>803</ele>
        <time>2018-02-21T11:53:19Z</time>
      </trkpt>
      <trkpt lat="44.31325" lon="5.3826">
        <ele>803</ele>
        <time>2018-02-21T11:53:21Z</time>
      </trkpt>
      <trkpt lat="44.31325" lon="5.3826">
        <ele>803</ele>
        <time>2018-02-21T11:53:23Z</time>
      </trkpt>
      <trkpt lat="44.31325" lon="5.3826">
        <ele>803</ele>
        <time>2018-02-21T11:53:28Z</time>
      </trkpt>
      <trkpt lat="44.31326" lon="5.3826">
        <ele>802</ele>
        <time>2018-02-21T11:53:30Z</time>
      </trkpt>
      <trkpt lat="44.31326" lon="5.3826">
        <ele>802</ele>
        <time>2018-02-21T11:53:33Z</time>
      </trkpt>
      <trkpt lat="44.31326" lon="5.3826">
        <ele>802</ele>
        <time>2018-02-21T11:53:35Z</time>
      </trkpt>
      <trkpt lat="44.31326" lon="5.3826">
        <ele>802</ele>
        <time>2018-02-21T11:53:37Z</time>
      </trkpt>
      <trkpt lat="44.31327" lon="5.3826">
        <ele>802</ele>
        <time>2018-02-21T11:53:39Z</time>
      </trkpt>
      <trkpt lat="44.31327" lon="5.3826">
        <ele>803</ele>
        <time>2018-02-21T11:53:48Z</time>
      </trkpt>
      <trkpt lat="44.31327" lon="5.3826">
        <ele>803</ele>
        <time>2018-02-21T11:53:53Z</time>
      </trkpt>
      <trkpt lat="44.31327" lon="5.3826">
        <ele>803</ele>
        <time>2018-02-21T11:53:55Z</time>
      </trkpt>
      <trkpt lat="44.31327" lon="5.3826">
        <ele>803</ele>
        <time>2018-02-21T11:53:59Z</time>
      </trkpt>
      <trkpt lat="44.31327" lon="5.3826">
        <ele>803</ele>
        <time>2018-02-21T11:54:01Z</time>
      </trkpt>
      <trkpt lat="44.31326" lon="5.3826">
        <ele>803</ele>
        <time>2018-02-21T11:54:04Z</time>
      </trkpt>
      <trkpt lat="44.31326" lon="5.3826">
        <ele>804</ele>
        <time>2018-02-21T11:54:07Z</time>
      </trkpt>
      <trkpt lat="44.31326" lon="5.3826">
        <ele>804</ele>
        <time>2018-02-21T11:54:10Z</time>
      </trkpt>
      <trkpt lat="44.31326" lon="5.3826">
        <ele>804</ele>
        <time>2018-02-21T11:54:12Z</time>
      </trkpt>
      <trkpt lat="44.31326" lon="5.38261">
        <ele>804</ele>
        <time>2018-02-21T11:54:14Z</time>
      </trkpt>
      <trkpt lat="44.31326" lon="5.38261">
        <ele>804</ele>
        <time>2018-02-21T11:54:19Z</time>
      </trkpt>
      <trkpt lat="44.31326" lon="5.38261">
        <ele>804</ele>
        <time>2018-02-21T11:54:23Z</time>
      </trkpt>
      <trkpt lat="44.31326" lon="5.38261">
        <ele>803</ele>
        <time>2018-02-21T11:54:27Z</time>
      </trkpt>
      <trkpt lat="44.31326" lon="5.38261">
        <ele>803</ele>
        <time>2018-02-21T11:54:30Z</time>
      </trkpt>
      <trkpt lat="44.31326" lon="5.38261">
        <ele>803</ele>
        <time>2018-02-21T11:54:34Z</time>
      </trkpt>
      <trkpt lat="44.31325" lon="5.38261">
        <ele>803</ele>
        <time>2018-02-21T11:54:36Z</time>
      </trkpt>
      <trkpt lat="44.31325" lon="5.38261">
        <ele>803</ele>
        <time>2018-02-21T11:54:38Z</time>
      </trkpt>
      <trkpt lat="44.31325" lon="5.38261">
        <ele>803</ele>
        <time>2018-02-21T11:54:42Z</time>
      </trkpt>
      <trkpt lat="44.31325" lon="5.38261">
        <ele>802</ele>
        <time>2018-02-21T11:54:45Z</time>
      </trkpt>
      <trkpt lat="44.31325" lon="5.38261">
        <ele>802</ele>
        <time>2018-02-21T11:54:47Z</time>
      </trkpt>
      <trkpt lat="44.31324" lon="5.38261">
        <ele>802</ele>
        <time>2018-02-21T11:54:50Z</time>
      </trkpt>
      <trkpt lat="44.31323" lon="5.38257">
        <ele>803</ele>
        <time>2018-02-21T11:54:52Z</time>
      </trkpt>
      <trkpt lat="44.31323" lon="5.3825">
        <ele>804</ele>
        <time>2018-02-21T11:54:55Z</time>
      </trkpt>
      <trkpt lat="44.31325" lon="5.38245">
        <ele>804</ele>
        <time>2018-02-21T11:54:57Z</time>
      </trkpt>
      <trkpt lat="44.31329" lon="5.38239">
        <ele>803</ele>
        <time>2018-02-21T11:55:00Z</time>
      </trkpt>
      <trkpt lat="44.31332" lon="5.38233">
        <ele>804</ele>
        <time>2018-02-21T11:55:02Z</time>
      </trkpt>
      <trkpt lat="44.31338" lon="5.3822">
        <ele>805</ele>
        <time>2018-02-21T11:55:05Z</time>
      </trkpt>
      <trkpt lat="44.31344" lon="5.38212">
        <ele>807</ele>
        <time>2018-02-21T11:55:07Z</time>
      </trkpt>
      <trkpt lat="44.31356" lon="5.38202">
        <ele>808</ele>
        <time>2018-02-21T11:55:10Z</time>
      </trkpt>
      <trkpt lat="44.31364" lon="5.38197">
        <ele>808</ele>
        <time>2018-02-21T11:55:12Z</time>
      </trkpt>
      <trkpt lat="44.31378" lon="5.38194">
        <ele>808</ele>
        <time>2018-02-21T11:55:15Z</time>
      </trkpt>
      <trkpt lat="44.31391" lon="5.38192">
        <ele>808</ele>
        <time>2018-02-21T11:55:18Z</time>
      </trkpt>
      <trkpt lat="44.31399" lon="5.38191">
        <ele>807</ele>
        <time>2018-02-21T11:55:20Z</time>
      </trkpt>
      <trkpt lat="44.31407" lon="5.38192">
        <ele>807</ele>
        <time>2018-02-21T11:55:22Z</time>
      </trkpt>
      <trkpt lat="44.31417" lon="5.38193">
        <ele>808</ele>
        <time>2018-02-21T11:55:25Z</time>
      </trkpt>
      <trkpt lat="44.31428" lon="5.38191">
        <ele>808</ele>
        <time>2018-02-21T11:55:28Z</time>
      </trkpt>
      <trkpt lat="44.31437" lon="5.38191">
        <ele>809</ele>
        <time>2018-02-21T11:55:31Z</time>
      </trkpt>
      <trkpt lat="44.31448" lon="5.38193">
        <ele>808</ele>
        <time>2018-02-21T11:55:34Z</time>
      </trkpt>
      <trkpt lat="44.31455" lon="5.38193">
        <ele>808</ele>
        <time>2018-02-21T11:55:36Z</time>
      </trkpt>
      <trkpt lat="44.3147" lon="5.3819">
        <ele>809</ele>
        <time>2018-02-21T11:55:39Z</time>
      </trkpt>
      <trkpt lat="44.31483" lon="5.38186">
        <ele>810</ele>
        <time>2018-02-21T11:55:42Z</time>
      </trkpt>
      <trkpt lat="44.31495" lon="5.38181">
        <ele>811</ele>
        <time>2018-02-21T11:55:45Z</time>
      </trkpt>
      <trkpt lat="44.31505" lon="5.38175">
        <ele>812</ele>
        <time>2018-02-21T11:55:48Z</time>
      </trkpt>
      <trkpt lat="44.31515" lon="5.38172">
        <ele>811</ele>
        <time>2018-02-21T11:55:51Z</time>
      </trkpt>
      <trkpt lat="44.31525" lon="5.38166">
        <ele>812</ele>
        <time>2018-02-21T11:55:54Z</time>
      </trkpt>
      <trkpt lat="44.31535" lon="5.3816">
        <ele>812</ele>
        <time>2018-02-21T11:55:57Z</time>
      </trkpt>
      <trkpt lat="44.31543" lon="5.38157">
        <ele>813</ele>
        <time>2018-02-21T11:55:59Z</time>
      </trkpt>
      <trkpt lat="44.31551" lon="5.38152">
        <ele>813</ele>
        <time>2018-02-21T11:56:01Z</time>
      </trkpt>
      <trkpt lat="44.31563" lon="5.38143">
        <ele>814</ele>
        <time>2018-02-21T11:56:04Z</time>
      </trkpt>
      <trkpt lat="44.3157" lon="5.38136">
        <ele>814</ele>
        <time>2018-02-21T11:56:06Z</time>
      </trkpt>
      <trkpt lat="44.31578" lon="5.38129">
        <ele>814</ele>
        <time>2018-02-21T11:56:08Z</time>
      </trkpt>
      <trkpt lat="44.31586" lon="5.38121">
        <ele>815</ele>
        <time>2018-02-21T11:56:10Z</time>
      </trkpt>
      <trkpt lat="44.31596" lon="5.38109">
        <ele>815</ele>
        <time>2018-02-21T11:56:13Z</time>
      </trkpt>
      <trkpt lat="44.31608" lon="5.38098">
        <ele>816</ele>
        <time>2018-02-21T11:56:16Z</time>
      </trkpt>
      <trkpt lat="44.31617" lon="5.38085">
        <ele>817</ele>
        <time>2018-02-21T11:56:19Z</time>
      </trkpt>
      <trkpt lat="44.31623" lon="5.38076">
        <ele>818</ele>
        <time>2018-02-21T11:56:21Z</time>
      </trkpt>
      <trkpt lat="44.3163" lon="5.38062">
        <ele>819</ele>
        <time>2018-02-21T11:56:24Z</time>
      </trkpt>
      <trkpt lat="44.31638" lon="5.38048">
        <ele>819</ele>
        <time>2018-02-21T11:56:27Z</time>
      </trkpt>
      <trkpt lat="44.31648" lon="5.38036">
        <ele>820</ele>
        <time>2018-02-21T11:56:30Z</time>
      </trkpt>
      <trkpt lat="44.31659" lon="5.38024">
        <ele>820</ele>
        <time>2018-02-21T11:56:33Z</time>
      </trkpt>
      <trkpt lat="44.3167" lon="5.38013">
        <ele>821</ele>
        <time>2018-02-21T11:56:36Z</time>
      </trkpt>
      <trkpt lat="44.31678" lon="5.38004">
        <ele>821</ele>
        <time>2018-02-21T11:56:39Z</time>
      </trkpt>
      <trkpt lat="44.31684" lon="5.37998">
        <ele>821</ele>
        <time>2018-02-21T11:56:41Z</time>
      </trkpt>
      <trkpt lat="44.31688" lon="5.37994">
        <ele>821</ele>
        <time>2018-02-21T11:56:43Z</time>
      </trkpt>
      <trkpt lat="44.31694" lon="5.37987">
        <ele>821</ele>
        <time>2018-02-21T11:56:45Z</time>
      </trkpt>
      <trkpt lat="44.31697" lon="5.37983">
        <ele>821</ele>
        <time>2018-02-21T11:56:48Z</time>
      </trkpt>
      <trkpt lat="44.317" lon="5.37979">
        <ele>821</ele>
        <time>2018-02-21T11:56:50Z</time>
      </trkpt>
      <trkpt lat="44.31707" lon="5.37976">
        <ele>821</ele>
        <time>2018-02-21T11:56:53Z</time>
      </trkpt>
      <trkpt lat="44.31712" lon="5.37975">
        <ele>820</ele>
        <time>2018-02-21T11:56:56Z</time>
      </trkpt>
      <trkpt lat="44.31713" lon="5.37975">
        <ele>820</ele>
        <time>2018-02-21T11:56:59Z</time>
      </trkpt>
      <trkpt lat="44.31713" lon="5.37975">
        <ele>820</ele>
        <time>2018-02-21T11:57:01Z</time>
      </trkpt>
      <trkpt lat="44.31713" lon="5.37976">
        <ele>820</ele>
        <time>2018-02-21T11:57:04Z</time>
      </trkpt>
      <trkpt lat="44.31713" lon="5.37976">
        <ele>820</ele>
        <time>2018-02-21T11:57:07Z</time>
      </trkpt>
      <trkpt lat="44.31713" lon="5.37976">
        <ele>819</ele>
        <time>2018-02-21T11:57:09Z</time>
      </trkpt>
      <trkpt lat="44.31712" lon="5.37976">
        <ele>819</ele>
        <time>2018-02-21T11:57:11Z</time>
      </trkpt>
      <trkpt lat="44.31712" lon="5.37976">
        <ele>819</ele>
        <time>2018-02-21T11:57:14Z</time>
      </trkpt>
      <trkpt lat="44.31712" lon="5.37977">
        <ele>819</ele>
        <time>2018-02-21T11:57:16Z</time>
      </trkpt>
      <trkpt lat="44.31711" lon="5.37977">
        <ele>819</ele>
        <time>2018-02-21T11:57:19Z</time>
      </trkpt>
      <trkpt lat="44.31711" lon="5.37977">
        <ele>819</ele>
        <time>2018-02-21T11:57:21Z</time>
      </trkpt>
      <trkpt lat="44.3171" lon="5.37978">
        <ele>819</ele>
        <time>2018-02-21T11:57:24Z</time>
      </trkpt>
      <trkpt lat="44.3171" lon="5.37978">
        <ele>819</ele>
        <time>2018-02-21T11:57:27Z</time>
      </trkpt>
      <trkpt lat="44.3171" lon="5.37978">
        <ele>819</ele>
        <time>2018-02-21T11:57:30Z</time>
      </trkpt>
      <trkpt lat="44.31709" lon="5.37978">
        <ele>819</ele>
        <time>2018-02-21T11:57:32Z</time>
      </trkpt>
      <trkpt lat="44.31709" lon="5.37979">
        <ele>820</ele>
        <time>2018-02-21T11:57:35Z</time>
      </trkpt>
      <trkpt lat="44.31708" lon="5.37979">
        <ele>819</ele>
        <time>2018-02-21T11:57:39Z</time>
      </trkpt>
      <trkpt lat="44.31708" lon="5.37979">
        <ele>819</ele>
        <time>2018-02-21T11:57:42Z</time>
      </trkpt>
      <trkpt lat="44.31707" lon="5.37979">
        <ele>819</ele>
        <time>2018-02-21T11:57:44Z</time>
      </trkpt>
      <trkpt lat="44.31707" lon="5.37979">
        <ele>819</ele>
        <time>2018-02-21T11:57:46Z</time>
      </trkpt>
      <trkpt lat="44.31707" lon="5.3798">
        <ele>819</ele>
        <time>2018-02-21T11:57:48Z</time>
      </trkpt>
      <trkpt lat="44.31707" lon="5.3798">
        <ele>819</ele>
        <time>2018-02-21T11:57:51Z</time>
      </trkpt>
      <trkpt lat="44.31707" lon="5.3798">
        <ele>819</ele>
        <time>2018-02-21T11:57:53Z</time>
      </trkpt>
      <trkpt lat="44.31707" lon="5.3798">
        <ele>819</ele>
        <time>2018-02-21T11:57:55Z</time>
      </trkpt>
      <trkpt lat="44.31707" lon="5.3798">
        <ele>819</ele>
        <time>2018-02-21T11:57:57Z</time>
      </trkpt>
      <trkpt lat="44.31707" lon="5.3798">
        <ele>819</ele>
        <time>2018-02-21T11:58:01Z</time>
      </trkpt>
      <trkpt lat="44.31706" lon="5.37981">
        <ele>820</ele>
        <time>2018-02-21T11:58:05Z</time>
      </trkpt>
      <trkpt lat="44.31706" lon="5.37981">
        <ele>819</ele>
        <time>2018-02-21T11:58:07Z</time>
      </trkpt>
      <trkpt lat="44.31706" lon="5.37981">
        <ele>819</ele>
        <time>2018-02-21T11:58:11Z</time>
      </trkpt>
      <trkpt lat="44.31706" lon="5.37981">
        <ele>819</ele>
        <time>2018-02-21T11:58:14Z</time>
      </trkpt>
      <trkpt lat="44.31706" lon="5.37981">
        <ele>819</ele>
        <time>2018-02-21T11:58:16Z</time>
      </trkpt>
      <trkpt lat="44.31706" lon="5.37982">
        <ele>820</ele>
        <time>2018-02-21T11:58:19Z</time>
      </trkpt>
      <trkpt lat="44.31706" lon="5.37982">
        <ele>819</ele>
        <time>2018-02-21T11:58:21Z</time>
      </trkpt>
      <trkpt lat="44.31705" lon="5.37982">
        <ele>819</ele>
        <time>2018-02-21T11:58:23Z</time>
      </trkpt>
      <trkpt lat="44.31705" lon="5.37982">
        <ele>819</ele>
        <time>2018-02-21T11:58:26Z</time>
      </trkpt>
      <trkpt lat="44.31705" lon="5.37982">
        <ele>819</ele>
        <time>2018-02-21T11:58:28Z</time>
      </trkpt>
      <trkpt lat="44.31705" lon="5.37983">
        <ele>820</ele>
        <time>2018-02-21T11:58:32Z</time>
      </trkpt>
      <trkpt lat="44.31705" lon="5.37983">
        <ele>819</ele>
        <time>2018-02-21T11:58:38Z</time>
      </trkpt>
      <trkpt lat="44.31705" lon="5.37983">
        <ele>820</ele>
        <time>2018-02-21T11:58:41Z</time>
      </trkpt>
      <trkpt lat="44.31705" lon="5.37983">
        <ele>820</ele>
        <time>2018-02-21T11:58:45Z</time>
      </trkpt>
      <trkpt lat="44.31705" lon="5.37983">
        <ele>820</ele>
        <time>2018-02-21T11:58:53Z</time>
      </trkpt>
      <trkpt lat="44.31705" lon="5.37983">
        <ele>820</ele>
        <time>2018-02-21T11:58:57Z</time>
      </trkpt>
      <trkpt lat="44.31705" lon="5.37984">
        <ele>820</ele>
        <time>2018-02-21T11:59:00Z</time>
      </trkpt>
      <trkpt lat="44.31705" lon="5.37984">
        <ele>819</ele>
        <time>2018-02-21T11:59:04Z</time>
      </trkpt>
      <trkpt lat="44.31706" lon="5.37984">
        <ele>820</ele>
        <time>2018-02-21T11:59:08Z</time>
      </trkpt>
      <trkpt lat="44.31706" lon="5.37984">
        <ele>820</ele>
        <time>2018-02-21T11:59:11Z</time>
      </trkpt>
      <trkpt lat="44.31706" lon="5.37984">
        <ele>820</ele>
        <time>2018-02-21T11:59:16Z</time>
      </trkpt>
      <trkpt lat="44.31706" lon="5.37984">
        <ele>820</ele>
        <time>2018-02-21T11:59:19Z</time>
      </trkpt>
      <trkpt lat="44.31706" lon="5.37985">
        <ele>819</ele>
        <time>2018-02-21T11:59:22Z</time>
      </trkpt>
      <trkpt lat="44.31706" lon="5.37985">
        <ele>820</ele>
        <time>2018-02-21T11:59:26Z</time>
      </trkpt>
      <trkpt lat="44.31706" lon="5.37985">
        <ele>820</ele>
        <time>2018-02-21T11:59:29Z</time>
      </trkpt>
      <trkpt lat="44.31708" lon="5.37984">
        <ele>820</ele>
        <time>2018-02-21T11:59:31Z</time>
      </trkpt>
      <trkpt lat="44.31712" lon="5.37983">
        <ele>821</ele>
        <time>2018-02-21T11:59:34Z</time>
      </trkpt>
      <trkpt lat="44.31721" lon="5.37984">
        <ele>822</ele>
        <time>2018-02-21T11:59:37Z</time>
      </trkpt>
      <trkpt lat="44.31731" lon="5.37989">
        <ele>823</ele>
        <time>2018-02-21T11:59:40Z</time>
      </trkpt>
      <trkpt lat="44.31738" lon="5.37994">
        <ele>824</ele>
        <time>2018-02-21T11:59:42Z</time>
      </trkpt>
      <trkpt lat="44.3175" lon="5.38004">
        <ele>824</ele>
        <time>2018-02-21T11:59:45Z</time>
      </trkpt>
      <trkpt lat="44.31762" lon="5.38017">
        <ele>822</ele>
        <time>2018-02-21T11:59:48Z</time>
      </trkpt>
      <trkpt lat="44.31772" lon="5.38027">
        <ele>820</ele>
        <time>2018-02-21T11:59:50Z</time>
      </trkpt>
      <trkpt lat="44.31786" lon="5.38047">
        <ele>818</ele>
        <time>2018-02-21T11:59:53Z</time>
      </trkpt>
      <trkpt lat="44.31793" lon="5.38064">
        <ele>818</ele>
        <time>2018-02-21T11:59:55Z</time>
      </trkpt>
      <trkpt lat="44.31798" lon="5.38097">
        <ele>816</ele>
        <time>2018-02-21T11:59:58Z</time>
      </trkpt>
      <trkpt lat="44.318" lon="5.38132">
        <ele>815</ele>
        <time>2018-02-21T12:00:00Z</time>
      </trkpt>
      <trkpt lat="44.31802" lon="5.38156">
        <ele>814</ele>
        <time>2018-02-21T12:00:03Z</time>
      </trkpt>
      <trkpt lat="44.31803" lon="5.38181">
        <ele>814</ele>
        <time>2018-02-21T12:00:05Z</time>
      </trkpt>
      <trkpt lat="44.31802" lon="5.3822">
        <ele>814</ele>
        <time>2018-02-21T12:00:08Z</time>
      </trkpt>
      <trkpt lat="44.31802" lon="5.3826">
        <ele>814</ele>
        <time>2018-02-21T12:00:11Z</time>
      </trkpt>
      <trkpt lat="44.31802" lon="5.38286">
        <ele>813</ele>
        <time>2018-02-21T12:00:13Z</time>
      </trkpt>
      <trkpt lat="44.31808" lon="5.38326">
        <ele>811</ele>
        <time>2018-02-21T12:00:16Z</time>
      </trkpt>
      <trkpt lat="44.31823" lon="5.38362">
        <ele>808</ele>
        <time>2018-02-21T12:00:19Z</time>
      </trkpt>
      <trkpt lat="44.31848" lon="5.3838">
        <ele>806</ele>
        <time>2018-02-21T12:00:22Z</time>
      </trkpt>
      <trkpt lat="44.31876" lon="5.38378">
        <ele>804</ele>
        <time>2018-02-21T12:00:25Z</time>
      </trkpt>
      <trkpt lat="44.31903" lon="5.38366">
        <ele>803</ele>
        <time>2018-02-21T12:00:28Z</time>
      </trkpt>
      <trkpt lat="44.31931" lon="5.38356">
        <ele>801</ele>
        <time>2018-02-21T12:00:30Z</time>
      </trkpt>
      <trkpt lat="44.31947" lon="5.38356">
        <ele>800</ele>
        <time>2018-02-21T12:00:33Z</time>
      </trkpt>
      <trkpt lat="44.3197" lon="5.38374">
        <ele>798</ele>
        <time>2018-02-21T12:00:36Z</time>
      </trkpt>
      <trkpt lat="44.31987" lon="5.38402">
        <ele>796</ele>
        <time>2018-02-21T12:00:39Z</time>
      </trkpt>
      <trkpt lat="44.32" lon="5.38436">
        <ele>795</ele>
        <time>2018-02-21T12:00:41Z</time>
      </trkpt>
      <trkpt lat="44.32009" lon="5.3846">
        <ele>794</ele>
        <time>2018-02-21T12:00:44Z</time>
      </trkpt>
      <trkpt lat="44.32019" lon="5.38484">
        <ele>794</ele>
        <time>2018-02-21T12:00:46Z</time>
      </trkpt>
      <trkpt lat="44.32037" lon="5.38518">
        <ele>793</ele>
        <time>2018-02-21T12:00:48Z</time>
      </trkpt>
      <trkpt lat="44.32053" lon="5.38538">
        <ele>793</ele>
        <time>2018-02-21T12:00:50Z</time>
      </trkpt>
      <trkpt lat="44.32066" lon="5.38562">
        <ele>791</ele>
        <time>2018-02-21T12:00:53Z</time>
      </trkpt>
      <trkpt lat="44.32085" lon="5.38602">
        <ele>789</ele>
        <time>2018-02-21T12:00:56Z</time>
      </trkpt>
      <trkpt lat="44.32105" lon="5.38637">
        <ele>785</ele>
        <time>2018-02-21T12:00:59Z</time>
      </trkpt>
      <trkpt lat="44.32113" lon="5.3868">
        <ele>785</ele>
        <time>2018-02-21T12:01:02Z</time>
      </trkpt>
      <trkpt lat="44.32109" lon="5.38724">
        <ele>784</ele>
        <time>2018-02-21T12:01:05Z</time>
      </trkpt>
      <trkpt lat="44.32108" lon="5.38753">
        <ele>784</ele>
        <time>2018-02-21T12:01:07Z</time>
      </trkpt>
      <trkpt lat="44.32115" lon="5.38793">
        <ele>781</ele>
        <time>2018-02-21T12:01:10Z</time>
      </trkpt>
      <trkpt lat="44.32128" lon="5.38815">
        <ele>780</ele>
        <time>2018-02-21T12:01:12Z</time>
      </trkpt>
      <trkpt lat="44.3215" lon="5.38848">
        <ele>778</ele>
        <time>2018-02-21T12:01:14Z</time>
      </trkpt>
      <trkpt lat="44.32164" lon="5.38872">
        <ele>777</ele>
        <time>2018-02-21T12:01:17Z</time>
      </trkpt>
      <trkpt lat="44.32185" lon="5.38905">
        <ele>775</ele>
        <time>2018-02-21T12:01:19Z</time>
      </trkpt>
      <trkpt lat="44.32196" lon="5.38929">
        <ele>773</ele>
        <time>2018-02-21T12:01:22Z</time>
      </trkpt>
      <trkpt lat="44.32206" lon="5.38966">
        <ele>772</ele>
        <time>2018-02-21T12:01:25Z</time>
      </trkpt>
      <trkpt lat="44.32211" lon="5.39002">
        <ele>770</ele>
        <time>2018-02-21T12:01:28Z</time>
      </trkpt>
      <trkpt lat="44.32217" lon="5.3904">
        <ele>770</ele>
        <time>2018-02-21T12:01:31Z</time>
      </trkpt>
      <trkpt lat="44.32229" lon="5.39075">
        <ele>768</ele>
        <time>2018-02-21T12:01:34Z</time>
      </trkpt>
      <trkpt lat="44.3225" lon="5.39101">
        <ele>768</ele>
        <time>2018-02-21T12:01:37Z</time>
      </trkpt>
      <trkpt lat="44.32269" lon="5.39108">
        <ele>767</ele>
        <time>2018-02-21T12:01:39Z</time>
      </trkpt>
      <trkpt lat="44.32296" lon="5.39116">
        <ele>767</ele>
        <time>2018-02-21T12:01:41Z</time>
      </trkpt>
      <trkpt lat="44.3231" lon="5.39123">
        <ele>765</ele>
        <time>2018-02-21T12:01:44Z</time>
      </trkpt>
      <trkpt lat="44.32326" lon="5.39125">
        <ele>762</ele>
        <time>2018-02-21T12:01:47Z</time>
      </trkpt>
      <trkpt lat="44.32333" lon="5.39114">
        <ele>760</ele>
        <time>2018-02-21T12:01:49Z</time>
      </trkpt>
      <trkpt lat="44.32333" lon="5.39109">
        <ele>759</ele>
        <time>2018-02-21T12:01:52Z</time>
      </trkpt>
      <trkpt lat="44.32334" lon="5.39109">
        <ele>759</ele>
        <time>2018-02-21T12:01:54Z</time>
      </trkpt>
      <trkpt lat="44.32334" lon="5.39108">
        <ele>759</ele>
        <time>2018-02-21T12:01:57Z</time>
      </trkpt>
      <trkpt lat="44.32334" lon="5.39108">
        <ele>759</ele>
        <time>2018-02-21T12:01:59Z</time>
      </trkpt>
      <trkpt lat="44.32332" lon="5.39105">
        <ele>759</ele>
        <time>2018-02-21T12:02:01Z</time>
      </trkpt>
      <trkpt lat="44.32325" lon="5.391">
        <ele>759</ele>
        <time>2018-02-21T12:02:03Z</time>
      </trkpt>
      <trkpt lat="44.32319" lon="5.39096">
        <ele>760</ele>
        <time>2018-02-21T12:02:05Z</time>
      </trkpt>
      <trkpt lat="44.32307" lon="5.39086">
        <ele>761</ele>
        <time>2018-02-21T12:02:09Z</time>
      </trkpt>
      <trkpt lat="44.32292" lon="5.39074">
        <ele>760</ele>
        <time>2018-02-21T12:02:12Z</time>
      </trkpt>
      <trkpt lat="44.32283" lon="5.39062">
        <ele>760</ele>
        <time>2018-02-21T12:02:14Z</time>
      </trkpt>
      <trkpt lat="44.32274" lon="5.39037">
        <ele>759</ele>
        <time>2018-02-21T12:02:17Z</time>
      </trkpt>
      <trkpt lat="44.32272" lon="5.39006">
        <ele>759</ele>
        <time>2018-02-21T12:02:20Z</time>
      </trkpt>
      <trkpt lat="44.32272" lon="5.38986">
        <ele>759</ele>
        <time>2018-02-21T12:02:22Z</time>
      </trkpt>
      <trkpt lat="44.32273" lon="5.38956">
        <ele>758</ele>
        <time>2018-02-21T12:02:24Z</time>
      </trkpt>
      <trkpt lat="44.32277" lon="5.38935">
        <ele>757</ele>
        <time>2018-02-21T12:02:27Z</time>
      </trkpt>
      <trkpt lat="44.32282" lon="5.38914">
        <ele>757</ele>
        <time>2018-02-21T12:02:29Z</time>
      </trkpt>
      <trkpt lat="44.32288" lon="5.38883">
        <ele>756</ele>
        <time>2018-02-21T12:02:31Z</time>
      </trkpt>
      <trkpt lat="44.3229" lon="5.38861">
        <ele>756</ele>
        <time>2018-02-21T12:02:34Z</time>
      </trkpt>
      <trkpt lat="44.32289" lon="5.38828">
        <ele>754</ele>
        <time>2018-02-21T12:02:37Z</time>
      </trkpt>
      <trkpt lat="44.32276" lon="5.38801">
        <ele>753</ele>
        <time>2018-02-21T12:02:39Z</time>
      </trkpt>
      <trkpt lat="44.32266" lon="5.38785">
        <ele>752</ele>
        <time>2018-02-21T12:02:42Z</time>
      </trkpt>
      <trkpt lat="44.32255" lon="5.38755">
        <ele>751</ele>
        <time>2018-02-21T12:02:45Z</time>
      </trkpt>
      <trkpt lat="44.32256" lon="5.38732">
        <ele>749</ele>
        <time>2018-02-21T12:02:47Z</time>
      </trkpt>
      <trkpt lat="44.32265" lon="5.387">
        <ele>748</ele>
        <time>2018-02-21T12:02:49Z</time>
      </trkpt>
      <trkpt lat="44.32275" lon="5.38667">
        <ele>747</ele>
        <time>2018-02-21T12:02:52Z</time>
      </trkpt>
      <trkpt lat="44.32276" lon="5.38645">
        <ele>747</ele>
        <time>2018-02-21T12:02:55Z</time>
      </trkpt>
      <trkpt lat="44.32261" lon="5.38619">
        <ele>746</ele>
        <time>2018-02-21T12:02:57Z</time>
      </trkpt>
      <trkpt lat="44.32248" lon="5.38606">
        <ele>746</ele>
        <time>2018-02-21T12:03:00Z</time>
      </trkpt>
      <trkpt lat="44.32229" lon="5.38587">
        <ele>745</ele>
        <time>2018-02-21T12:03:02Z</time>
      </trkpt>
      <trkpt lat="44.32222" lon="5.38571">
        <ele>743</ele>
        <time>2018-02-21T12:03:05Z</time>
      </trkpt>
      <trkpt lat="44.32229" lon="5.38554">
        <ele>739</ele>
        <time>2018-02-21T12:03:07Z</time>
      </trkpt>
      <trkpt lat="44.32239" lon="5.38562">
        <ele>736</ele>
        <time>2018-02-21T12:03:10Z</time>
      </trkpt>
      <trkpt lat="44.32253" lon="5.3858">
        <ele>733</ele>
        <time>2018-02-21T12:03:13Z</time>
      </trkpt>
      <trkpt lat="44.32266" lon="5.38581">
        <ele>732</ele>
        <time>2018-02-21T12:03:15Z</time>
      </trkpt>
      <trkpt lat="44.32288" lon="5.38579">
        <ele>732</ele>
        <time>2018-02-21T12:03:18Z</time>
      </trkpt>
      <trkpt lat="44.32308" lon="5.38593">
        <ele>731</ele>
        <time>2018-02-21T12:03:21Z</time>
      </trkpt>
      <trkpt lat="44.32323" lon="5.38622">
        <ele>730</ele>
        <time>2018-02-21T12:03:24Z</time>
      </trkpt>
      <trkpt lat="44.32328" lon="5.38659">
        <ele>729</ele>
        <time>2018-02-21T12:03:26Z</time>
      </trkpt>
      <trkpt lat="44.32328" lon="5.38684">
        <ele>728</ele>
        <time>2018-02-21T12:03:29Z</time>
      </trkpt>
      <trkpt lat="44.3233" lon="5.38724">
        <ele>727</ele>
        <time>2018-02-21T12:03:31Z</time>
      </trkpt>
      <trkpt lat="44.32331" lon="5.38751">
        <ele>727</ele>
        <time>2018-02-21T12:03:33Z</time>
      </trkpt>
      <trkpt lat="44.32337" lon="5.38776">
        <ele>726</ele>
        <time>2018-02-21T12:03:36Z</time>
      </trkpt>
      <trkpt lat="44.32359" lon="5.38802">
        <ele>726</ele>
        <time>2018-02-21T12:03:39Z</time>
      </trkpt>
      <trkpt lat="44.32384" lon="5.3882">
        <ele>725</ele>
        <time>2018-02-21T12:03:42Z</time>
      </trkpt>
      <trkpt lat="44.32403" lon="5.38825">
        <ele>724</ele>
        <time>2018-02-21T12:03:44Z</time>
      </trkpt>
      <trkpt lat="44.32431" lon="5.38819">
        <ele>722</ele>
        <time>2018-02-21T12:03:47Z</time>
      </trkpt>
      <trkpt lat="44.3246" lon="5.38816">
        <ele>721</ele>
        <time>2018-02-21T12:03:49Z</time>
      </trkpt>
      <trkpt lat="44.32479" lon="5.38819">
        <ele>720</ele>
        <time>2018-02-21T12:03:51Z</time>
      </trkpt>
      <trkpt lat="44.32499" lon="5.38825">
        <ele>719</ele>
        <time>2018-02-21T12:03:54Z</time>
      </trkpt>
      <trkpt lat="44.32528" lon="5.38834">
        <ele>717</ele>
        <time>2018-02-21T12:03:56Z</time>
      </trkpt>
      <trkpt lat="44.32546" lon="5.3884">
        <ele>717</ele>
        <time>2018-02-21T12:03:58Z</time>
      </trkpt>
      <trkpt lat="44.32562" lon="5.38844">
        <ele>715</ele>
        <time>2018-02-21T12:04:01Z</time>
      </trkpt>
      <trkpt lat="44.32579" lon="5.38838">
        <ele>712</ele>
        <time>2018-02-21T12:04:03Z</time>
      </trkpt>
      <trkpt lat="44.32578" lon="5.38826">
        <ele>711</ele>
        <time>2018-02-21T12:04:05Z</time>
      </trkpt>
      <trkpt lat="44.32568" lon="5.38822">
        <ele>711</ele>
        <time>2018-02-21T12:04:08Z</time>
      </trkpt>
      <trkpt lat="44.3255" lon="5.38814">
        <ele>711</ele>
        <time>2018-02-21T12:04:10Z</time>
      </trkpt>
      <trkpt lat="44.3254" lon="5.38802">
        <ele>711</ele>
        <time>2018-02-21T12:04:13Z</time>
      </trkpt>
      <trkpt lat="44.32526" lon="5.38779">
        <ele>711</ele>
        <time>2018-02-21T12:04:15Z</time>
      </trkpt>
      <trkpt lat="44.32518" lon="5.38752">
        <ele>710</ele>
        <time>2018-02-21T12:04:18Z</time>
      </trkpt>
      <trkpt lat="44.32515" lon="5.38721">
        <ele>709</ele>
        <time>2018-02-21T12:04:22Z</time>
      </trkpt>
      <trkpt lat="44.3251" lon="5.38701">
        <ele>709</ele>
        <time>2018-02-21T12:04:24Z</time>
      </trkpt>
      <trkpt lat="44.32492" lon="5.38683">
        <ele>710</ele>
        <time>2018-02-21T12:04:26Z</time>
      </trkpt>
      <trkpt lat="44.32477" lon="5.38676">
        <ele>709</ele>
        <time>2018-02-21T12:04:29Z</time>
      </trkpt>
      <trkpt lat="44.32454" lon="5.38662">
        <ele>707</ele>
        <time>2018-02-21T12:04:32Z</time>
      </trkpt>
      <trkpt lat="44.32439" lon="5.38634">
        <ele>705</ele>
        <time>2018-02-21T12:04:35Z</time>
      </trkpt>
      <trkpt lat="44.32434" lon="5.38599">
        <ele>706</ele>
        <time>2018-02-21T12:04:37Z</time>
      </trkpt>
      <trkpt lat="44.32431" lon="5.38576">
        <ele>705</ele>
        <time>2018-02-21T12:04:40Z</time>
      </trkpt>
      <trkpt lat="44.3243" lon="5.38542">
        <ele>704</ele>
        <time>2018-02-21T12:04:42Z</time>
      </trkpt>
      <trkpt lat="44.32432" lon="5.38519">
        <ele>703</ele>
        <time>2018-02-21T12:04:45Z</time>
      </trkpt>
      <trkpt lat="44.32433" lon="5.38485">
        <ele>701</ele>
        <time>2018-02-21T12:04:47Z</time>
      </trkpt>
      <trkpt lat="44.32435" lon="5.38462">
        <ele>700</ele>
        <time>2018-02-21T12:04:49Z</time>
      </trkpt>
      <trkpt lat="44.32436" lon="5.3844">
        <ele>700</ele>
        <time>2018-02-21T12:04:52Z</time>
      </trkpt>
      <trkpt lat="44.3244" lon="5.38406">
        <ele>698</ele>
        <time>2018-02-21T12:04:54Z</time>
      </trkpt>
      <trkpt lat="44.32447" lon="5.38371">
        <ele>696</ele>
        <time>2018-02-21T12:04:58Z</time>
      </trkpt>
      <trkpt lat="44.3245" lon="5.38346">
        <ele>695</ele>
        <time>2018-02-21T12:05:00Z</time>
      </trkpt>
      <trkpt lat="44.3245" lon="5.38306">
        <ele>694</ele>
        <time>2018-02-21T12:05:02Z</time>
      </trkpt>
      <trkpt lat="44.32445" lon="5.38267">
        <ele>692</ele>
        <time>2018-02-21T12:05:05Z</time>
      </trkpt>
      <trkpt lat="44.32445" lon="5.38249">
        <ele>689</ele>
        <time>2018-02-21T12:05:08Z</time>
      </trkpt>
      <trkpt lat="44.32457" lon="5.38251">
        <ele>685</ele>
        <time>2018-02-21T12:05:10Z</time>
      </trkpt>
      <trkpt lat="44.32463" lon="5.38275">
        <ele>682</ele>
        <time>2018-02-21T12:05:13Z</time>
      </trkpt>
      <trkpt lat="44.32473" lon="5.383">
        <ele>681</ele>
        <time>2018-02-21T12:05:16Z</time>
      </trkpt>
      <trkpt lat="44.32484" lon="5.38314">
        <ele>680</ele>
        <time>2018-02-21T12:05:19Z</time>
      </trkpt>
      <trkpt lat="44.32495" lon="5.38328">
        <ele>679</ele>
        <time>2018-02-21T12:05:21Z</time>
      </trkpt>
      <trkpt lat="44.32515" lon="5.38349">
        <ele>679</ele>
        <time>2018-02-21T12:05:23Z</time>
      </trkpt>
      <trkpt lat="44.32529" lon="5.38364">
        <ele>679</ele>
        <time>2018-02-21T12:05:25Z</time>
      </trkpt>
      <trkpt lat="44.32553" lon="5.38374">
        <ele>678</ele>
        <time>2018-02-21T12:05:28Z</time>
      </trkpt>
      <trkpt lat="44.32579" lon="5.38369">
        <ele>678</ele>
        <time>2018-02-21T12:05:31Z</time>
      </trkpt>
      <trkpt lat="44.32603" lon="5.3838">
        <ele>676</ele>
        <time>2018-02-21T12:05:34Z</time>
      </trkpt>
      <trkpt lat="44.32626" lon="5.38403">
        <ele>674</ele>
        <time>2018-02-21T12:05:38Z</time>
      </trkpt>
      <trkpt lat="44.32641" lon="5.3842">
        <ele>673</ele>
        <time>2018-02-21T12:05:40Z</time>
      </trkpt>
      <trkpt lat="44.32661" lon="5.38453">
        <ele>671</ele>
        <time>2018-02-21T12:05:42Z</time>
      </trkpt>
      <trkpt lat="44.32672" lon="5.38478">
        <ele>670</ele>
        <time>2018-02-21T12:05:45Z</time>
      </trkpt>
      <trkpt lat="44.32689" lon="5.38514">
        <ele>668</ele>
        <time>2018-02-21T12:05:48Z</time>
      </trkpt>
      <trkpt lat="44.32708" lon="5.38537">
        <ele>664</ele>
        <time>2018-02-21T12:05:51Z</time>
      </trkpt>
      <trkpt lat="44.32731" lon="5.38532">
        <ele>662</ele>
        <time>2018-02-21T12:05:54Z</time>
      </trkpt>
      <trkpt lat="44.32747" lon="5.3851">
        <ele>662</ele>
        <time>2018-02-21T12:05:56Z</time>
      </trkpt>
      <trkpt lat="44.32756" lon="5.38479">
        <ele>662</ele>
        <time>2018-02-21T12:05:59Z</time>
      </trkpt>
      <trkpt lat="44.32762" lon="5.38459">
        <ele>662</ele>
        <time>2018-02-21T12:06:02Z</time>
      </trkpt>
      <trkpt lat="44.32774" lon="5.38429">
        <ele>662</ele>
        <time>2018-02-21T12:06:04Z</time>
      </trkpt>
      <trkpt lat="44.32794" lon="5.38409">
        <ele>662</ele>
        <time>2018-02-21T12:06:07Z</time>
      </trkpt>
      <trkpt lat="44.32814" lon="5.38394">
        <ele>660</ele>
        <time>2018-02-21T12:06:10Z</time>
      </trkpt>
      <trkpt lat="44.32827" lon="5.38382">
        <ele>659</ele>
        <time>2018-02-21T12:06:12Z</time>
      </trkpt>
      <trkpt lat="44.32841" lon="5.38358">
        <ele>657</ele>
        <time>2018-02-21T12:06:16Z</time>
      </trkpt>
      <trkpt lat="44.3285" lon="5.38331">
        <ele>657</ele>
        <time>2018-02-21T12:06:18Z</time>
      </trkpt>
      <trkpt lat="44.32855" lon="5.38312">
        <ele>657</ele>
        <time>2018-02-21T12:06:20Z</time>
      </trkpt>
      <trkpt lat="44.32862" lon="5.38283">
        <ele>656</ele>
        <time>2018-02-21T12:06:23Z</time>
      </trkpt>
      <trkpt lat="44.32868" lon="5.38264">
        <ele>656</ele>
        <time>2018-02-21T12:06:26Z</time>
      </trkpt>
      <trkpt lat="44.32879" lon="5.38237">
        <ele>655</ele>
        <time>2018-02-21T12:06:28Z</time>
      </trkpt>
      <trkpt lat="44.32894" lon="5.38215">
        <ele>654</ele>
        <time>2018-02-21T12:06:31Z</time>
      </trkpt>
      <trkpt lat="44.3291" lon="5.38196">
        <ele>651</ele>
        <time>2018-02-21T12:06:35Z</time>
      </trkpt>
      <trkpt lat="44.32926" lon="5.38175">
        <ele>650</ele>
        <time>2018-02-21T12:06:37Z</time>
      </trkpt>
      <trkpt lat="44.32942" lon="5.38154">
        <ele>649</ele>
        <time>2018-02-21T12:06:40Z</time>
      </trkpt>
      <trkpt lat="44.32953" lon="5.38138">
        <ele>648</ele>
        <time>2018-02-21T12:06:42Z</time>
      </trkpt>
      <trkpt lat="44.32962" lon="5.3812">
        <ele>647</ele>
        <time>2018-02-21T12:06:44Z</time>
      </trkpt>
      <trkpt lat="44.32973" lon="5.3809">
        <ele>648</ele>
        <time>2018-02-21T12:06:47Z</time>
      </trkpt>
      <trkpt lat="44.32978" lon="5.38068">
        <ele>648</ele>
        <time>2018-02-21T12:06:50Z</time>
      </trkpt>
      <trkpt lat="44.32985" lon="5.38035">
        <ele>647</ele>
        <time>2018-02-21T12:06:53Z</time>
      </trkpt>
      <trkpt lat="44.32992" lon="5.38002">
        <ele>645</ele>
        <time>2018-02-21T12:06:55Z</time>
      </trkpt>
      <trkpt lat="44.32997" lon="5.37979">
        <ele>645</ele>
        <time>2018-02-21T12:06:58Z</time>
      </trkpt>
      <trkpt lat="44.33007" lon="5.37949">
        <ele>644</ele>
        <time>2018-02-21T12:07:00Z</time>
      </trkpt>
      <trkpt lat="44.3303" lon="5.37943">
        <ele>643</ele>
        <time>2018-02-21T12:07:03Z</time>
      </trkpt>
      <trkpt lat="44.33043" lon="5.37952">
        <ele>641</ele>
        <time>2018-02-21T12:07:05Z</time>
      </trkpt>
      <trkpt lat="44.33063" lon="5.37953">
        <ele>637</ele>
        <time>2018-02-21T12:07:08Z</time>
      </trkpt>
      <trkpt lat="44.33075" lon="5.3793">
        <ele>634</ele>
        <time>2018-02-21T12:07:12Z</time>
      </trkpt>
      <trkpt lat="44.3307" lon="5.37901">
        <ele>635</ele>
        <time>2018-02-21T12:07:15Z</time>
      </trkpt>
      <trkpt lat="44.33058" lon="5.37871">
        <ele>637</ele>
        <time>2018-02-21T12:07:18Z</time>
      </trkpt>
      <trkpt lat="44.33057" lon="5.37834">
        <ele>638</ele>
        <time>2018-02-21T12:07:20Z</time>
      </trkpt>
      <trkpt lat="44.33062" lon="5.37796">
        <ele>638</ele>
        <time>2018-02-21T12:07:23Z</time>
      </trkpt>
      <trkpt lat="44.33073" lon="5.37762">
        <ele>637</ele>
        <time>2018-02-21T12:07:26Z</time>
      </trkpt>
      <trkpt lat="44.33079" lon="5.3774">
        <ele>635</ele>
        <time>2018-02-21T12:07:29Z</time>
      </trkpt>
      <trkpt lat="44.33086" lon="5.37717">
        <ele>634</ele>
        <time>2018-02-21T12:07:31Z</time>
      </trkpt>
      <trkpt lat="44.33091" lon="5.37679">
        <ele>632</ele>
        <time>2018-02-21T12:07:33Z</time>
      </trkpt>
      <trkpt lat="44.33096" lon="5.37641">
        <ele>630</ele>
        <time>2018-02-21T12:07:36Z</time>
      </trkpt>
      <trkpt lat="44.33121" lon="5.37619">
        <ele>628</ele>
        <time>2018-02-21T12:07:39Z</time>
      </trkpt>
      <trkpt lat="44.33146" lon="5.37598">
        <ele>625</ele>
        <time>2018-02-21T12:07:42Z</time>
      </trkpt>
      <trkpt lat="44.33163" lon="5.37569">
        <ele>622</ele>
        <time>2018-02-21T12:07:45Z</time>
      </trkpt>
      <trkpt lat="44.33177" lon="5.37537">
        <ele>619</ele>
        <time>2018-02-21T12:07:48Z</time>
      </trkpt>
      <trkpt lat="44.33191" lon="5.37502">
        <ele>616</ele>
        <time>2018-02-21T12:07:51Z</time>
      </trkpt>
      <trkpt lat="44.33195" lon="5.37462">
        <ele>614</ele>
        <time>2018-02-21T12:07:54Z</time>
      </trkpt>
      <trkpt lat="44.33191" lon="5.37424">
        <ele>612</ele>
        <time>2018-02-21T12:07:57Z</time>
      </trkpt>
      <trkpt lat="44.3319" lon="5.37404">
        <ele>611</ele>
        <time>2018-02-21T12:07:59Z</time>
      </trkpt>
      <trkpt lat="44.332" lon="5.37376">
        <ele>608</ele>
        <time>2018-02-21T12:08:02Z</time>
      </trkpt>
      <trkpt lat="44.33221" lon="5.37359">
        <ele>605</ele>
        <time>2018-02-21T12:08:05Z</time>
      </trkpt>
      <trkpt lat="44.33237" lon="5.37351">
        <ele>604</ele>
        <time>2018-02-21T12:08:08Z</time>
      </trkpt>
      <trkpt lat="44.33257" lon="5.37337">
        <ele>603</ele>
        <time>2018-02-21T12:08:10Z</time>
      </trkpt>
      <trkpt lat="44.33267" lon="5.37311">
        <ele>600</ele>
        <time>2018-02-21T12:08:13Z</time>
      </trkpt>
      <trkpt lat="44.3326" lon="5.37283">
        <ele>600</ele>
        <time>2018-02-21T12:08:16Z</time>
      </trkpt>
      <trkpt lat="44.33241" lon="5.37265">
        <ele>599</ele>
        <time>2018-02-21T12:08:19Z</time>
      </trkpt>
      <trkpt lat="44.33226" lon="5.37257">
        <ele>599</ele>
        <time>2018-02-21T12:08:21Z</time>
      </trkpt>
      <trkpt lat="44.33203" lon="5.37238">
        <ele>597</ele>
        <time>2018-02-21T12:08:25Z</time>
      </trkpt>
      <trkpt lat="44.33182" lon="5.37214">
        <ele>596</ele>
        <time>2018-02-21T12:08:28Z</time>
      </trkpt>
      <trkpt lat="44.33168" lon="5.37198">
        <ele>595</ele>
        <time>2018-02-21T12:08:30Z</time>
      </trkpt>
      <trkpt lat="44.33154" lon="5.37167">
        <ele>594</ele>
        <time>2018-02-21T12:08:32Z</time>
      </trkpt>
      <trkpt lat="44.33148" lon="5.3713">
        <ele>593</ele>
        <time>2018-02-21T12:08:35Z</time>
      </trkpt>
      <trkpt lat="44.33139" lon="5.37095">
        <ele>593</ele>
        <time>2018-02-21T12:08:38Z</time>
      </trkpt>
      <trkpt lat="44.3313" lon="5.37062">
        <ele>591</ele>
        <time>2018-02-21T12:08:41Z</time>
      </trkpt>
      <trkpt lat="44.33125" lon="5.37039">
        <ele>590</ele>
        <time>2018-02-21T12:08:43Z</time>
      </trkpt>
      <trkpt lat="44.33122" lon="5.37002">
        <ele>589</ele>
        <time>2018-02-21T12:08:46Z</time>
      </trkpt>
      <trkpt lat="44.33132" lon="5.36969">
        <ele>588</ele>
        <time>2018-02-21T12:08:49Z</time>
      </trkpt>
      <trkpt lat="44.33142" lon="5.36948">
        <ele>587</ele>
        <time>2018-02-21T12:08:52Z</time>
      </trkpt>
      <trkpt lat="44.33154" lon="5.36916">
        <ele>585</ele>
        <time>2018-02-21T12:08:54Z</time>
      </trkpt>
      <trkpt lat="44.33165" lon="5.36881">
        <ele>583</ele>
        <time>2018-02-21T12:08:57Z</time>
      </trkpt>
      <trkpt lat="44.3317" lon="5.36843">
        <ele>583</ele>
        <time>2018-02-21T12:09:00Z</time>
      </trkpt>
      <trkpt lat="44.33169" lon="5.36805">
        <ele>584</ele>
        <time>2018-02-21T12:09:03Z</time>
      </trkpt>
      <trkpt lat="44.3317" lon="5.3678">
        <ele>583</ele>
        <time>2018-02-21T12:09:05Z</time>
      </trkpt>
      <trkpt lat="44.33183" lon="5.36749">
        <ele>583</ele>
        <time>2018-02-21T12:09:08Z</time>
      </trkpt>
      <trkpt lat="44.33197" lon="5.36736">
        <ele>582</ele>
        <time>2018-02-21T12:09:11Z</time>
      </trkpt>
      <trkpt lat="44.33212" lon="5.36725">
        <ele>580</ele>
        <time>2018-02-21T12:09:13Z</time>
      </trkpt>
      <trkpt lat="44.33234" lon="5.36708">
        <ele>579</ele>
        <time>2018-02-21T12:09:15Z</time>
      </trkpt>
      <trkpt lat="44.33247" lon="5.36694">
        <ele>577</ele>
        <time>2018-02-21T12:09:17Z</time>
      </trkpt>
      <trkpt lat="44.33268" lon="5.36674">
        <ele>574</ele>
        <time>2018-02-21T12:09:20Z</time>
      </trkpt>
      <trkpt lat="44.33291" lon="5.36664">
        <ele>572</ele>
        <time>2018-02-21T12:09:24Z</time>
      </trkpt>
      <trkpt lat="44.33311" lon="5.36647">
        <ele>572</ele>
        <time>2018-02-21T12:09:26Z</time>
      </trkpt>
      <trkpt lat="44.33318" lon="5.36629">
        <ele>572</ele>
        <time>2018-02-21T12:09:29Z</time>
      </trkpt>
      <trkpt lat="44.33324" lon="5.36599">
        <ele>573</ele>
        <time>2018-02-21T12:09:32Z</time>
      </trkpt>
      <trkpt lat="44.33327" lon="5.36569">
        <ele>573</ele>
        <time>2018-02-21T12:09:34Z</time>
      </trkpt>
      <trkpt lat="44.33329" lon="5.36549">
        <ele>572</ele>
        <time>2018-02-21T12:09:36Z</time>
      </trkpt>
      <trkpt lat="44.33331" lon="5.36528">
        <ele>572</ele>
        <time>2018-02-21T12:09:38Z</time>
      </trkpt>
      <trkpt lat="44.33333" lon="5.36507">
        <ele>572</ele>
        <time>2018-02-21T12:09:41Z</time>
      </trkpt>
      <trkpt lat="44.33335" lon="5.36475">
        <ele>571</ele>
        <time>2018-02-21T12:09:43Z</time>
      </trkpt>
      <trkpt lat="44.33337" lon="5.36454">
        <ele>571</ele>
        <time>2018-02-21T12:09:46Z</time>
      </trkpt>
      <trkpt lat="44.3334" lon="5.36434">
        <ele>571</ele>
        <time>2018-02-21T12:09:48Z</time>
      </trkpt>
      <trkpt lat="44.33342" lon="5.36404">
        <ele>570</ele>
        <time>2018-02-21T12:09:50Z</time>
      </trkpt>
      <trkpt lat="44.33345" lon="5.36375">
        <ele>570</ele>
        <time>2018-02-21T12:09:53Z</time>
      </trkpt>
      <trkpt lat="44.33348" lon="5.36346">
        <ele>569</ele>
        <time>2018-02-21T12:09:56Z</time>
      </trkpt>
      <trkpt lat="44.3335" lon="5.36316">
        <ele>569</ele>
        <time>2018-02-21T12:09:59Z</time>
      </trkpt>
      <trkpt lat="44.33352" lon="5.36295">
        <ele>569</ele>
        <time>2018-02-21T12:10:01Z</time>
      </trkpt>
      <trkpt lat="44.33353" lon="5.36273">
        <ele>570</ele>
        <time>2018-02-21T12:10:03Z</time>
      </trkpt>
      <trkpt lat="44.33352" lon="5.36252">
        <ele>570</ele>
        <time>2018-02-21T12:10:06Z</time>
      </trkpt>
      <trkpt lat="44.33348" lon="5.36231">
        <ele>570</ele>
        <time>2018-02-21T12:10:08Z</time>
      </trkpt>
      <trkpt lat="44.33338" lon="5.36202">
        <ele>570</ele>
        <time>2018-02-21T12:10:10Z</time>
      </trkpt>
      <trkpt lat="44.33334" lon="5.36181">
        <ele>570</ele>
        <time>2018-02-21T12:10:13Z</time>
      </trkpt>
      <trkpt lat="44.33332" lon="5.36148">
        <ele>570</ele>
        <time>2018-02-21T12:10:15Z</time>
      </trkpt>
      <trkpt lat="44.33332" lon="5.36126">
        <ele>570</ele>
        <time>2018-02-21T12:10:18Z</time>
      </trkpt>
      <trkpt lat="44.33331" lon="5.36103">
        <ele>570</ele>
        <time>2018-02-21T12:10:20Z</time>
      </trkpt>
      <trkpt lat="44.33331" lon="5.36069">
        <ele>570</ele>
        <time>2018-02-21T12:10:22Z</time>
      </trkpt>
      <trkpt lat="44.33331" lon="5.36034">
        <ele>570</ele>
        <time>2018-02-21T12:10:26Z</time>
      </trkpt>
      <trkpt lat="44.33331" lon="5.35999">
        <ele>569</ele>
        <time>2018-02-21T12:10:28Z</time>
      </trkpt>
      <trkpt lat="44.33331" lon="5.35975">
        <ele>569</ele>
        <time>2018-02-21T12:10:30Z</time>
      </trkpt>
      <trkpt lat="44.33329" lon="5.35952">
        <ele>568</ele>
        <time>2018-02-21T12:10:33Z</time>
      </trkpt>
      <trkpt lat="44.33324" lon="5.35917">
        <ele>567</ele>
        <time>2018-02-21T12:10:35Z</time>
      </trkpt>
      <trkpt lat="44.3332" lon="5.35895">
        <ele>567</ele>
        <time>2018-02-21T12:10:37Z</time>
      </trkpt>
      <trkpt lat="44.33313" lon="5.35861">
        <ele>567</ele>
        <time>2018-02-21T12:10:40Z</time>
      </trkpt>
      <trkpt lat="44.3331" lon="5.35839">
        <ele>567</ele>
        <time>2018-02-21T12:10:42Z</time>
      </trkpt>
      <trkpt lat="44.33303" lon="5.35806">
        <ele>566</ele>
        <time>2018-02-21T12:10:45Z</time>
      </trkpt>
      <trkpt lat="44.33297" lon="5.35774">
        <ele>562</ele>
        <time>2018-02-21T12:10:48Z</time>
      </trkpt>
      <trkpt lat="44.33289" lon="5.35744">
        <ele>558</ele>
        <time>2018-02-21T12:10:51Z</time>
      </trkpt>
      <trkpt lat="44.33279" lon="5.35715">
        <ele>557</ele>
        <time>2018-02-21T12:10:54Z</time>
      </trkpt>
      <trkpt lat="44.33274" lon="5.35696">
        <ele>557</ele>
        <time>2018-02-21T12:10:57Z</time>
      </trkpt>
      <trkpt lat="44.33271" lon="5.35663">
        <ele>557</ele>
        <time>2018-02-21T12:10:59Z</time>
      </trkpt>
      <trkpt lat="44.33267" lon="5.3563">
        <ele>557</ele>
        <time>2018-02-21T12:11:02Z</time>
      </trkpt>
      <trkpt lat="44.3326" lon="5.35608">
        <ele>556</ele>
        <time>2018-02-21T12:11:04Z</time>
      </trkpt>
      <trkpt lat="44.33255" lon="5.35585">
        <ele>556</ele>
        <time>2018-02-21T12:11:07Z</time>
      </trkpt>
      <trkpt lat="44.33249" lon="5.35547">
        <ele>555</ele>
        <time>2018-02-21T12:11:09Z</time>
      </trkpt>
      <trkpt lat="44.33252" lon="5.35522">
        <ele>556</ele>
        <time>2018-02-21T12:11:12Z</time>
      </trkpt>
      <trkpt lat="44.33262" lon="5.35487">
        <ele>557</ele>
        <time>2018-02-21T12:11:15Z</time>
      </trkpt>
      <trkpt lat="44.33267" lon="5.35462">
        <ele>557</ele>
        <time>2018-02-21T12:11:17Z</time>
      </trkpt>
      <trkpt lat="44.33271" lon="5.35425">
        <ele>556</ele>
        <time>2018-02-21T12:11:19Z</time>
      </trkpt>
      <trkpt lat="44.33276" lon="5.35401">
        <ele>555</ele>
        <time>2018-02-21T12:11:21Z</time>
      </trkpt>
      <trkpt lat="44.33281" lon="5.35378">
        <ele>552</ele>
        <time>2018-02-21T12:11:23Z</time>
      </trkpt>
      <trkpt lat="44.33286" lon="5.35355">
        <ele>550</ele>
        <time>2018-02-21T12:11:25Z</time>
      </trkpt>
      <trkpt lat="44.3329" lon="5.35332">
        <ele>549</ele>
        <time>2018-02-21T12:11:27Z</time>
      </trkpt>
      <trkpt lat="44.3329" lon="5.35293">
        <ele>547</ele>
        <time>2018-02-21T12:11:30Z</time>
      </trkpt>
      <trkpt lat="44.33287" lon="5.35266">
        <ele>547</ele>
        <time>2018-02-21T12:11:33Z</time>
      </trkpt>
      <trkpt lat="44.33287" lon="5.35223">
        <ele>546</ele>
        <time>2018-02-21T12:11:35Z</time>
      </trkpt>
      <trkpt lat="44.33293" lon="5.3518">
        <ele>544</ele>
        <time>2018-02-21T12:11:38Z</time>
      </trkpt>
      <trkpt lat="44.33297" lon="5.35136">
        <ele>543</ele>
        <time>2018-02-21T12:11:41Z</time>
      </trkpt>
      <trkpt lat="44.33293" lon="5.35091">
        <ele>542</ele>
        <time>2018-02-21T12:11:44Z</time>
      </trkpt>
      <trkpt lat="44.33286" lon="5.35046">
        <ele>541</ele>
        <time>2018-02-21T12:11:47Z</time>
      </trkpt>
      <trkpt lat="44.3328" lon="5.35016">
        <ele>539</ele>
        <time>2018-02-21T12:11:49Z</time>
      </trkpt>
      <trkpt lat="44.33275" lon="5.34986">
        <ele>538</ele>
        <time>2018-02-21T12:11:52Z</time>
      </trkpt>
      <trkpt lat="44.33269" lon="5.34955">
        <ele>537</ele>
        <time>2018-02-21T12:11:54Z</time>
      </trkpt>
      <trkpt lat="44.3326" lon="5.3491">
        <ele>536</ele>
        <time>2018-02-21T12:11:56Z</time>
      </trkpt>
      <trkpt lat="44.33252" lon="5.34866">
        <ele>535</ele>
        <time>2018-02-21T12:11:59Z</time>
      </trkpt>
      <trkpt lat="44.33247" lon="5.34837">
        <ele>533</ele>
        <time>2018-02-21T12:12:01Z</time>
      </trkpt>
      <trkpt lat="44.33241" lon="5.34807">
        <ele>531</ele>
        <time>2018-02-21T12:12:03Z</time>
      </trkpt>
      <trkpt lat="44.33235" lon="5.34778">
        <ele>529</ele>
        <time>2018-02-21T12:12:05Z</time>
      </trkpt>
      <trkpt lat="44.33228" lon="5.34733">
        <ele>527</ele>
        <time>2018-02-21T12:12:08Z</time>
      </trkpt>
      <trkpt lat="44.33226" lon="5.34689">
        <ele>525</ele>
        <time>2018-02-21T12:12:11Z</time>
      </trkpt>
      <trkpt lat="44.33231" lon="5.34661">
        <ele>524</ele>
        <time>2018-02-21T12:12:14Z</time>
      </trkpt>
      <trkpt lat="44.33238" lon="5.34635">
        <ele>523</ele>
        <time>2018-02-21T12:12:16Z</time>
      </trkpt>
      <trkpt lat="44.33245" lon="5.34596">
        <ele>522</ele>
        <time>2018-02-21T12:12:18Z</time>
      </trkpt>
      <trkpt lat="44.33246" lon="5.34571">
        <ele>521</ele>
        <time>2018-02-21T12:12:20Z</time>
      </trkpt>
      <trkpt lat="44.33242" lon="5.34533">
        <ele>520</ele>
        <time>2018-02-21T12:12:23Z</time>
      </trkpt>
      <trkpt lat="44.33237" lon="5.34496">
        <ele>518</ele>
        <time>2018-02-21T12:12:26Z</time>
      </trkpt>
      <trkpt lat="44.3323" lon="5.34461">
        <ele>517</ele>
        <time>2018-02-21T12:12:30Z</time>
      </trkpt>
      <trkpt lat="44.3322" lon="5.34429">
        <ele>516</ele>
        <time>2018-02-21T12:12:32Z</time>
      </trkpt>
      <trkpt lat="44.33211" lon="5.34409">
        <ele>515</ele>
        <time>2018-02-21T12:12:34Z</time>
      </trkpt>
      <trkpt lat="44.33201" lon="5.34391">
        <ele>514</ele>
        <time>2018-02-21T12:12:37Z</time>
      </trkpt>
      <trkpt lat="44.33185" lon="5.34364">
        <ele>514</ele>
        <time>2018-02-21T12:12:39Z</time>
      </trkpt>
      <trkpt lat="44.33176" lon="5.34344">
        <ele>514</ele>
        <time>2018-02-21T12:12:41Z</time>
      </trkpt>
      <trkpt lat="44.33165" lon="5.34315">
        <ele>515</ele>
        <time>2018-02-21T12:12:44Z</time>
      </trkpt>
      <trkpt lat="44.33155" lon="5.34285">
        <ele>514</ele>
        <time>2018-02-21T12:12:47Z</time>
      </trkpt>
      <trkpt lat="44.33147" lon="5.34265">
        <ele>515</ele>
        <time>2018-02-21T12:12:49Z</time>
      </trkpt>
      <trkpt lat="44.33136" lon="5.34233">
        <ele>515</ele>
        <time>2018-02-21T12:12:52Z</time>
      </trkpt>
      <trkpt lat="44.33129" lon="5.34212">
        <ele>515</ele>
        <time>2018-02-21T12:12:55Z</time>
      </trkpt>
      <trkpt lat="44.3312" lon="5.34193">
        <ele>517</ele>
        <time>2018-02-21T12:12:57Z</time>
      </trkpt>
      <trkpt lat="44.33107" lon="5.34163">
        <ele>516</ele>
        <time>2018-02-21T12:12:59Z</time>
      </trkpt>
      <trkpt lat="44.33099" lon="5.34141">
        <ele>516</ele>
        <time>2018-02-21T12:13:01Z</time>
      </trkpt>
      <trkpt lat="44.33092" lon="5.34108">
        <ele>514</ele>
        <time>2018-02-21T12:13:04Z</time>
      </trkpt>
      <trkpt lat="44.33091" lon="5.34085">
        <ele>512</ele>
        <time>2018-02-21T12:13:06Z</time>
      </trkpt>
      <trkpt lat="44.33089" lon="5.34051">
        <ele>511</ele>
        <time>2018-02-21T12:13:09Z</time>
      </trkpt>
      <trkpt lat="44.33089" lon="5.34016">
        <ele>510</ele>
        <time>2018-02-21T12:13:12Z</time>
      </trkpt>
      <trkpt lat="44.33088" lon="5.33981">
        <ele>508</ele>
        <time>2018-02-21T12:13:15Z</time>
      </trkpt>
      <trkpt lat="44.33088" lon="5.33944">
        <ele>507</ele>
        <time>2018-02-21T12:13:18Z</time>
      </trkpt>
      <trkpt lat="44.33088" lon="5.33908">
        <ele>506</ele>
        <time>2018-02-21T12:13:21Z</time>
      </trkpt>
      <trkpt lat="44.33088" lon="5.33883">
        <ele>506</ele>
        <time>2018-02-21T12:13:24Z</time>
      </trkpt>
      <trkpt lat="44.33088" lon="5.33846">
        <ele>506</ele>
        <time>2018-02-21T12:13:26Z</time>
      </trkpt>
      <trkpt lat="44.33087" lon="5.3381">
        <ele>506</ele>
        <time>2018-02-21T12:13:29Z</time>
      </trkpt>
      <trkpt lat="44.33086" lon="5.33775">
        <ele>506</ele>
        <time>2018-02-21T12:13:32Z</time>
      </trkpt>
      <trkpt lat="44.33086" lon="5.33743">
        <ele>506</ele>
        <time>2018-02-21T12:13:35Z</time>
      </trkpt>
      <trkpt lat="44.33086" lon="5.33723">
        <ele>506</ele>
        <time>2018-02-21T12:13:37Z</time>
      </trkpt>
      <trkpt lat="44.33083" lon="5.33694">
        <ele>505</ele>
        <time>2018-02-21T12:13:40Z</time>
      </trkpt>
      <trkpt lat="44.3308" lon="5.33674">
        <ele>505</ele>
        <time>2018-02-21T12:13:42Z</time>
      </trkpt>
      <trkpt lat="44.33076" lon="5.33655">
        <ele>505</ele>
        <time>2018-02-21T12:13:44Z</time>
      </trkpt>
      <trkpt lat="44.33074" lon="5.33635">
        <ele>506</ele>
        <time>2018-02-21T12:13:47Z</time>
      </trkpt>
      <trkpt lat="44.33075" lon="5.33604">
        <ele>506</ele>
        <time>2018-02-21T12:13:49Z</time>
      </trkpt>
      <trkpt lat="44.33079" lon="5.33574">
        <ele>506</ele>
        <time>2018-02-21T12:13:52Z</time>
      </trkpt>
      <trkpt lat="44.33084" lon="5.33544">
        <ele>505</ele>
        <time>2018-02-21T12:13:55Z</time>
      </trkpt>
      <trkpt lat="44.33088" lon="5.33524">
        <ele>505</ele>
        <time>2018-02-21T12:13:57Z</time>
      </trkpt>
      <trkpt lat="44.33094" lon="5.33494">
        <ele>505</ele>
        <time>2018-02-21T12:14:00Z</time>
      </trkpt>
      <trkpt lat="44.33097" lon="5.33475">
        <ele>505</ele>
        <time>2018-02-21T12:14:02Z</time>
      </trkpt>
      <trkpt lat="44.33103" lon="5.33446">
        <ele>506</ele>
        <time>2018-02-21T12:14:05Z</time>
      </trkpt>
      <trkpt lat="44.33106" lon="5.33426">
        <ele>506</ele>
        <time>2018-02-21T12:14:08Z</time>
      </trkpt>
      <trkpt lat="44.33112" lon="5.33397">
        <ele>506</ele>
        <time>2018-02-21T12:14:10Z</time>
      </trkpt>
      <trkpt lat="44.33115" lon="5.33378">
        <ele>506</ele>
        <time>2018-02-21T12:14:12Z</time>
      </trkpt>
      <trkpt lat="44.33121" lon="5.33349">
        <ele>507</ele>
        <time>2018-02-21T12:14:15Z</time>
      </trkpt>
      <trkpt lat="44.33124" lon="5.3333">
        <ele>507</ele>
        <time>2018-02-21T12:14:17Z</time>
      </trkpt>
      <trkpt lat="44.33129" lon="5.33301">
        <ele>507</ele>
        <time>2018-02-21T12:14:20Z</time>
      </trkpt>
      <trkpt lat="44.33132" lon="5.33282">
        <ele>507</ele>
        <time>2018-02-21T12:14:22Z</time>
      </trkpt>
      <trkpt lat="44.33133" lon="5.33253">
        <ele>506</ele>
        <time>2018-02-21T12:14:25Z</time>
      </trkpt>
      <trkpt lat="44.33131" lon="5.33224">
        <ele>506</ele>
        <time>2018-02-21T12:14:28Z</time>
      </trkpt>
      <trkpt lat="44.3313" lon="5.33205">
        <ele>506</ele>
        <time>2018-02-21T12:14:30Z</time>
      </trkpt>
      <trkpt lat="44.33127" lon="5.33175">
        <ele>505</ele>
        <time>2018-02-21T12:14:33Z</time>
      </trkpt>
      <trkpt lat="44.33122" lon="5.33146">
        <ele>505</ele>
        <time>2018-02-21T12:14:36Z</time>
      </trkpt>
      <trkpt lat="44.33116" lon="5.33118">
        <ele>505</ele>
        <time>2018-02-21T12:14:39Z</time>
      </trkpt>
      <trkpt lat="44.33109" lon="5.33089">
        <ele>505</ele>
        <time>2018-02-21T12:14:42Z</time>
      </trkpt>
      <trkpt lat="44.33104" lon="5.3306">
        <ele>504</ele>
        <time>2018-02-21T12:14:45Z</time>
      </trkpt>
      <trkpt lat="44.33102" lon="5.3304">
        <ele>503</ele>
        <time>2018-02-21T12:14:47Z</time>
      </trkpt>
      <trkpt lat="44.33103" lon="5.3302">
        <ele>503</ele>
        <time>2018-02-21T12:14:50Z</time>
      </trkpt>
      <trkpt lat="44.33109" lon="5.3299">
        <ele>503</ele>
        <time>2018-02-21T12:14:52Z</time>
      </trkpt>
      <trkpt lat="44.33115" lon="5.32962">
        <ele>503</ele>
        <time>2018-02-21T12:14:55Z</time>
      </trkpt>
      <trkpt lat="44.33119" lon="5.32943">
        <ele>502</ele>
        <time>2018-02-21T12:14:57Z</time>
      </trkpt>
      <trkpt lat="44.33124" lon="5.32915">
        <ele>502</ele>
        <time>2018-02-21T12:15:00Z</time>
      </trkpt>
      <trkpt lat="44.33125" lon="5.32895">
        <ele>502</ele>
        <time>2018-02-21T12:15:02Z</time>
      </trkpt>
      <trkpt lat="44.33124" lon="5.32864">
        <ele>502</ele>
        <time>2018-02-21T12:15:05Z</time>
      </trkpt>
      <trkpt lat="44.33125" lon="5.32831">
        <ele>501</ele>
        <time>2018-02-21T12:15:08Z</time>
      </trkpt>
      <trkpt lat="44.3313" lon="5.32799">
        <ele>498</ele>
        <time>2018-02-21T12:15:11Z</time>
      </trkpt>
      <trkpt lat="44.33134" lon="5.32778">
        <ele>497</ele>
        <time>2018-02-21T12:15:14Z</time>
      </trkpt>
      <trkpt lat="44.33141" lon="5.32748">
        <ele>496</ele>
        <time>2018-02-21T12:15:16Z</time>
      </trkpt>
      <trkpt lat="44.33148" lon="5.32718">
        <ele>495</ele>
        <time>2018-02-21T12:15:19Z</time>
      </trkpt>
      <trkpt lat="44.33155" lon="5.32689">
        <ele>495</ele>
        <time>2018-02-21T12:15:22Z</time>
      </trkpt>
      <trkpt lat="44.33161" lon="5.32661">
        <ele>494</ele>
        <time>2018-02-21T12:15:25Z</time>
      </trkpt>
      <trkpt lat="44.33165" lon="5.32642">
        <ele>495</ele>
        <time>2018-02-21T12:15:27Z</time>
      </trkpt>
      <trkpt lat="44.33169" lon="5.32623">
        <ele>494</ele>
        <time>2018-02-21T12:15:29Z</time>
      </trkpt>
      <trkpt lat="44.33175" lon="5.32596">
        <ele>495</ele>
        <time>2018-02-21T12:15:32Z</time>
      </trkpt>
      <trkpt lat="44.33179" lon="5.32577">
        <ele>495</ele>
        <time>2018-02-21T12:15:34Z</time>
      </trkpt>
      <trkpt lat="44.33182" lon="5.32559">
        <ele>494</ele>
        <time>2018-02-21T12:15:37Z</time>
      </trkpt>
      <trkpt lat="44.33189" lon="5.3253">
        <ele>492</ele>
        <time>2018-02-21T12:15:39Z</time>
      </trkpt>
      <trkpt lat="44.33196" lon="5.32499">
        <ele>491</ele>
        <time>2018-02-21T12:15:42Z</time>
      </trkpt>
      <trkpt lat="44.33206" lon="5.3247">
        <ele>490</ele>
        <time>2018-02-21T12:15:45Z</time>
      </trkpt>
      <trkpt lat="44.33215" lon="5.32439">
        <ele>489</ele>
        <time>2018-02-21T12:15:48Z</time>
      </trkpt>
      <trkpt lat="44.33221" lon="5.32417">
        <ele>489</ele>
        <time>2018-02-21T12:15:50Z</time>
      </trkpt>
      <trkpt lat="44.33226" lon="5.32384">
        <ele>489</ele>
        <time>2018-02-21T12:15:53Z</time>
      </trkpt>
      <trkpt lat="44.33229" lon="5.32363">
        <ele>490</ele>
        <time>2018-02-21T12:15:55Z</time>
      </trkpt>
      <trkpt lat="44.33232" lon="5.32341">
        <ele>490</ele>
        <time>2018-02-21T12:15:57Z</time>
      </trkpt>
      <trkpt lat="44.33236" lon="5.3232">
        <ele>489</ele>
        <time>2018-02-21T12:16:00Z</time>
      </trkpt>
      <trkpt lat="44.33242" lon="5.32288">
        <ele>488</ele>
        <time>2018-02-21T12:16:02Z</time>
      </trkpt>
      <trkpt lat="44.33248" lon="5.32256">
        <ele>487</ele>
        <time>2018-02-21T12:16:05Z</time>
      </trkpt>
      <trkpt lat="44.33254" lon="5.32224">
        <ele>486</ele>
        <time>2018-02-21T12:16:08Z</time>
      </trkpt>
      <trkpt lat="44.3326" lon="5.32192">
        <ele>484</ele>
        <time>2018-02-21T12:16:11Z</time>
      </trkpt>
      <trkpt lat="44.33267" lon="5.3216">
        <ele>484</ele>
        <time>2018-02-21T12:16:14Z</time>
      </trkpt>
      <trkpt lat="44.33273" lon="5.32128">
        <ele>483</ele>
        <time>2018-02-21T12:16:17Z</time>
      </trkpt>
      <trkpt lat="44.33279" lon="5.32095">
        <ele>482</ele>
        <time>2018-02-21T12:16:20Z</time>
      </trkpt>
      <trkpt lat="44.33285" lon="5.32063">
        <ele>481</ele>
        <time>2018-02-21T12:16:23Z</time>
      </trkpt>
      <trkpt lat="44.33289" lon="5.32041">
        <ele>480</ele>
        <time>2018-02-21T12:16:26Z</time>
      </trkpt>
      <trkpt lat="44.33296" lon="5.3201">
        <ele>480</ele>
        <time>2018-02-21T12:16:28Z</time>
      </trkpt>
      <trkpt lat="44.333" lon="5.31988">
        <ele>479</ele>
        <time>2018-02-21T12:16:30Z</time>
      </trkpt>
      <trkpt lat="44.33305" lon="5.31955">
        <ele>476</ele>
        <time>2018-02-21T12:16:33Z</time>
      </trkpt>
      <trkpt lat="44.3331" lon="5.31922">
        <ele>474</ele>
        <time>2018-02-21T12:16:36Z</time>
      </trkpt>
      <trkpt lat="44.33313" lon="5.31888">
        <ele>475</ele>
        <time>2018-02-21T12:16:39Z</time>
      </trkpt>
      <trkpt lat="44.33316" lon="5.31855">
        <ele>476</ele>
        <time>2018-02-21T12:16:42Z</time>
      </trkpt>
      <trkpt lat="44.33318" lon="5.31834">
        <ele>476</ele>
        <time>2018-02-21T12:16:45Z</time>
      </trkpt>
      <trkpt lat="44.33321" lon="5.31801">
        <ele>473</ele>
        <time>2018-02-21T12:16:47Z</time>
      </trkpt>
      <trkpt lat="44.33325" lon="5.3177">
        <ele>471</ele>
        <time>2018-02-21T12:16:50Z</time>
      </trkpt>
      <trkpt lat="44.33326" lon="5.31739">
        <ele>472</ele>
        <time>2018-02-21T12:16:53Z</time>
      </trkpt>
      <trkpt lat="44.33327" lon="5.31718">
        <ele>472</ele>
        <time>2018-02-21T12:16:55Z</time>
      </trkpt>
      <trkpt lat="44.33329" lon="5.31687">
        <ele>471</ele>
        <time>2018-02-21T12:16:58Z</time>
      </trkpt>
      <trkpt lat="44.3333" lon="5.31666">
        <ele>470</ele>
        <time>2018-02-21T12:17:00Z</time>
      </trkpt>
      <trkpt lat="44.33334" lon="5.31633">
        <ele>469</ele>
        <time>2018-02-21T12:17:03Z</time>
      </trkpt>
      <trkpt lat="44.33339" lon="5.31601">
        <ele>469</ele>
        <time>2018-02-21T12:17:06Z</time>
      </trkpt>
      <trkpt lat="44.33343" lon="5.31579">
        <ele>469</ele>
        <time>2018-02-21T12:17:09Z</time>
      </trkpt>
      <trkpt lat="44.33348" lon="5.31548">
        <ele>468</ele>
        <time>2018-02-21T12:17:11Z</time>
      </trkpt>
      <trkpt lat="44.33353" lon="5.31517">
        <ele>468</ele>
        <time>2018-02-21T12:17:14Z</time>
      </trkpt>
      <trkpt lat="44.33358" lon="5.31488">
        <ele>467</ele>
        <time>2018-02-21T12:17:17Z</time>
      </trkpt>
      <trkpt lat="44.3336" lon="5.31469">
        <ele>467</ele>
        <time>2018-02-21T12:17:19Z</time>
      </trkpt>
      <trkpt lat="44.33362" lon="5.3144">
        <ele>467</ele>
        <time>2018-02-21T12:17:22Z</time>
      </trkpt>
      <trkpt lat="44.33362" lon="5.31422">
        <ele>466</ele>
        <time>2018-02-21T12:17:24Z</time>
      </trkpt>
      <trkpt lat="44.33362" lon="5.31394">
        <ele>464</ele>
        <time>2018-02-21T12:17:27Z</time>
      </trkpt>
      <trkpt lat="44.3336" lon="5.31364">
        <ele>462</ele>
        <time>2018-02-21T12:17:30Z</time>
      </trkpt>
      <trkpt lat="44.33357" lon="5.31334">
        <ele>462</ele>
        <time>2018-02-21T12:17:33Z</time>
      </trkpt>
      <trkpt lat="44.33355" lon="5.31314">
        <ele>462</ele>
        <time>2018-02-21T12:17:36Z</time>
      </trkpt>
      <trkpt lat="44.33352" lon="5.31283">
        <ele>463</ele>
        <time>2018-02-21T12:17:38Z</time>
      </trkpt>
      <trkpt lat="44.33349" lon="5.31254">
        <ele>463</ele>
        <time>2018-02-21T12:17:41Z</time>
      </trkpt>
      <trkpt lat="44.33347" lon="5.31225">
        <ele>465</ele>
        <time>2018-02-21T12:17:44Z</time>
      </trkpt>
      <trkpt lat="44.33344" lon="5.31196">
        <ele>466</ele>
        <time>2018-02-21T12:17:47Z</time>
      </trkpt>
      <trkpt lat="44.33343" lon="5.31178">
        <ele>467</ele>
        <time>2018-02-21T12:17:49Z</time>
      </trkpt>
      <trkpt lat="44.33343" lon="5.31151">
        <ele>468</ele>
        <time>2018-02-21T12:17:52Z</time>
      </trkpt>
      <trkpt lat="44.33344" lon="5.31126">
        <ele>467</ele>
        <time>2018-02-21T12:17:55Z</time>
      </trkpt>
      <trkpt lat="44.33347" lon="5.31101">
        <ele>465</ele>
        <time>2018-02-21T12:17:58Z</time>
      </trkpt>
      <trkpt lat="44.33349" lon="5.31084">
        <ele>465</ele>
        <time>2018-02-21T12:18:00Z</time>
      </trkpt>
      <trkpt lat="44.33351" lon="5.31067">
        <ele>464</ele>
        <time>2018-02-21T12:18:03Z</time>
      </trkpt>
      <trkpt lat="44.33354" lon="5.3104">
        <ele>466</ele>
        <time>2018-02-21T12:18:05Z</time>
      </trkpt>
      <trkpt lat="44.33356" lon="5.31023">
        <ele>465</ele>
        <time>2018-02-21T12:18:07Z</time>
      </trkpt>
      <trkpt lat="44.33358" lon="5.30999">
        <ele>466</ele>
        <time>2018-02-21T12:18:10Z</time>
      </trkpt>
      <trkpt lat="44.3336" lon="5.30982">
        <ele>466</ele>
        <time>2018-02-21T12:18:12Z</time>
      </trkpt>
      <trkpt lat="44.33363" lon="5.30957">
        <ele>467</ele>
        <time>2018-02-21T12:18:15Z</time>
      </trkpt>
      <trkpt lat="44.33366" lon="5.30933">
        <ele>467</ele>
        <time>2018-02-21T12:18:18Z</time>
      </trkpt>
      <trkpt lat="44.33368" lon="5.30908">
        <ele>466</ele>
        <time>2018-02-21T12:18:21Z</time>
      </trkpt>
      <trkpt lat="44.33371" lon="5.30883">
        <ele>465</ele>
        <time>2018-02-21T12:18:24Z</time>
      </trkpt>
      <trkpt lat="44.33373" lon="5.30867">
        <ele>465</ele>
        <time>2018-02-21T12:18:26Z</time>
      </trkpt>
      <trkpt lat="44.33375" lon="5.30842">
        <ele>465</ele>
        <time>2018-02-21T12:18:29Z</time>
      </trkpt>
      <trkpt lat="44.33378" lon="5.30817">
        <ele>465</ele>
        <time>2018-02-21T12:18:32Z</time>
      </trkpt>
      <trkpt lat="44.33381" lon="5.30792">
        <ele>466</ele>
        <time>2018-02-21T12:18:35Z</time>
      </trkpt>
      <trkpt lat="44.33383" lon="5.30766">
        <ele>466</ele>
        <time>2018-02-21T12:18:38Z</time>
      </trkpt>
      <trkpt lat="44.33386" lon="5.30749">
        <ele>466</ele>
        <time>2018-02-21T12:18:40Z</time>
      </trkpt>
      <trkpt lat="44.33388" lon="5.30732">
        <ele>466</ele>
        <time>2018-02-21T12:18:42Z</time>
      </trkpt>
      <trkpt lat="44.33391" lon="5.30706">
        <ele>466</ele>
        <time>2018-02-21T12:18:45Z</time>
      </trkpt>
      <trkpt lat="44.33396" lon="5.3068">
        <ele>465</ele>
        <time>2018-02-21T12:18:48Z</time>
      </trkpt>
      <trkpt lat="44.33399" lon="5.30662">
        <ele>465</ele>
        <time>2018-02-21T12:18:50Z</time>
      </trkpt>
      <trkpt lat="44.33405" lon="5.30634">
        <ele>464</ele>
        <time>2018-02-21T12:18:53Z</time>
      </trkpt>
      <trkpt lat="44.33413" lon="5.30606">
        <ele>463</ele>
        <time>2018-02-21T12:18:56Z</time>
      </trkpt>
      <trkpt lat="44.33421" lon="5.30578">
        <ele>462</ele>
        <time>2018-02-21T12:18:59Z</time>
      </trkpt>
      <trkpt lat="44.3343" lon="5.30551">
        <ele>461</ele>
        <time>2018-02-21T12:19:02Z</time>
      </trkpt>
      <trkpt lat="44.33437" lon="5.30534">
        <ele>461</ele>
        <time>2018-02-21T12:19:04Z</time>
      </trkpt>
      <trkpt lat="44.33448" lon="5.30507">
        <ele>460</ele>
        <time>2018-02-21T12:19:07Z</time>
      </trkpt>
      <trkpt lat="44.33459" lon="5.30481">
        <ele>459</ele>
        <time>2018-02-21T12:19:10Z</time>
      </trkpt>
      <trkpt lat="44.33471" lon="5.30454">
        <ele>458</ele>
        <time>2018-02-21T12:19:13Z</time>
      </trkpt>
      <trkpt lat="44.33478" lon="5.30436">
        <ele>457</ele>
        <time>2018-02-21T12:19:16Z</time>
      </trkpt>
      <trkpt lat="44.3349" lon="5.30409">
        <ele>458</ele>
        <time>2018-02-21T12:19:18Z</time>
      </trkpt>
      <trkpt lat="44.33501" lon="5.30382">
        <ele>458</ele>
        <time>2018-02-21T12:19:21Z</time>
      </trkpt>
      <trkpt lat="44.33513" lon="5.30355">
        <ele>456</ele>
        <time>2018-02-21T12:19:24Z</time>
      </trkpt>
      <trkpt lat="44.33525" lon="5.30328">
        <ele>454</ele>
        <time>2018-02-21T12:19:27Z</time>
      </trkpt>
      <trkpt lat="44.33533" lon="5.3031">
        <ele>454</ele>
        <time>2018-02-21T12:19:29Z</time>
      </trkpt>
      <trkpt lat="44.33541" lon="5.30292">
        <ele>453</ele>
        <time>2018-02-21T12:19:31Z</time>
      </trkpt>
      <trkpt lat="44.33554" lon="5.30266">
        <ele>452</ele>
        <time>2018-02-21T12:19:34Z</time>
      </trkpt>
      <trkpt lat="44.33568" lon="5.30241">
        <ele>450</ele>
        <time>2018-02-21T12:19:37Z</time>
      </trkpt>
      <trkpt lat="44.33578" lon="5.30224">
        <ele>449</ele>
        <time>2018-02-21T12:19:40Z</time>
      </trkpt>
      <trkpt lat="44.33592" lon="5.30199">
        <ele>449</ele>
        <time>2018-02-21T12:19:42Z</time>
      </trkpt>
      <trkpt lat="44.33606" lon="5.30175">
        <ele>449</ele>
        <time>2018-02-21T12:19:45Z</time>
      </trkpt>
      <trkpt lat="44.3362" lon="5.3015">
        <ele>449</ele>
        <time>2018-02-21T12:19:48Z</time>
      </trkpt>
      <trkpt lat="44.33634" lon="5.30126">
        <ele>450</ele>
        <time>2018-02-21T12:19:51Z</time>
      </trkpt>
      <trkpt lat="44.33647" lon="5.30103">
        <ele>449</ele>
        <time>2018-02-21T12:19:54Z</time>
      </trkpt>
      <trkpt lat="44.3366" lon="5.30079">
        <ele>448</ele>
        <time>2018-02-21T12:19:57Z</time>
      </trkpt>
      <trkpt lat="44.33673" lon="5.30055">
        <ele>446</ele>
        <time>2018-02-21T12:20:00Z</time>
      </trkpt>
      <trkpt lat="44.33683" lon="5.30038">
        <ele>445</ele>
        <time>2018-02-21T12:20:02Z</time>
      </trkpt>
      <trkpt lat="44.33698" lon="5.30012">
        <ele>444</ele>
        <time>2018-02-21T12:20:05Z</time>
      </trkpt>
      <trkpt lat="44.33712" lon="5.29988">
        <ele>446</ele>
        <time>2018-02-21T12:20:08Z</time>
      </trkpt>
      <trkpt lat="44.33727" lon="5.29965">
        <ele>448</ele>
        <time>2018-02-21T12:20:11Z</time>
      </trkpt>
      <trkpt lat="44.33741" lon="5.29945">
        <ele>449</ele>
        <time>2018-02-21T12:20:14Z</time>
      </trkpt>
      <trkpt lat="44.33756" lon="5.29926">
        <ele>448</ele>
        <time>2018-02-21T12:20:17Z</time>
      </trkpt>
      <trkpt lat="44.33767" lon="5.29915">
        <ele>447</ele>
        <time>2018-02-21T12:20:19Z</time>
      </trkpt>
      <trkpt lat="44.33777" lon="5.29904">
        <ele>446</ele>
        <time>2018-02-21T12:20:21Z</time>
      </trkpt>
      <trkpt lat="44.33793" lon="5.29888">
        <ele>445</ele>
        <time>2018-02-21T12:20:24Z</time>
      </trkpt>
      <trkpt lat="44.33804" lon="5.29878">
        <ele>444</ele>
        <time>2018-02-21T12:20:26Z</time>
      </trkpt>
      <trkpt lat="44.3382" lon="5.29861">
        <ele>444</ele>
        <time>2018-02-21T12:20:29Z</time>
      </trkpt>
      <trkpt lat="44.33831" lon="5.2985">
        <ele>444</ele>
        <time>2018-02-21T12:20:31Z</time>
      </trkpt>
      <trkpt lat="44.33846" lon="5.29833">
        <ele>444</ele>
        <time>2018-02-21T12:20:34Z</time>
      </trkpt>
      <trkpt lat="44.33856" lon="5.29822">
        <ele>444</ele>
        <time>2018-02-21T12:20:36Z</time>
      </trkpt>
      <trkpt lat="44.33871" lon="5.29804">
        <ele>444</ele>
        <time>2018-02-21T12:20:39Z</time>
      </trkpt>
      <trkpt lat="44.33881" lon="5.29793">
        <ele>445</ele>
        <time>2018-02-21T12:20:41Z</time>
      </trkpt>
      <trkpt lat="44.33896" lon="5.29776">
        <ele>445</ele>
        <time>2018-02-21T12:20:44Z</time>
      </trkpt>
      <trkpt lat="44.33906" lon="5.29765">
        <ele>445</ele>
        <time>2018-02-21T12:20:46Z</time>
      </trkpt>
      <trkpt lat="44.33921" lon="5.29748">
        <ele>445</ele>
        <time>2018-02-21T12:20:49Z</time>
      </trkpt>
      <trkpt lat="44.33931" lon="5.29736">
        <ele>444</ele>
        <time>2018-02-21T12:20:51Z</time>
      </trkpt>
      <trkpt lat="44.33941" lon="5.29725">
        <ele>445</ele>
        <time>2018-02-21T12:20:53Z</time>
      </trkpt>
      <trkpt lat="44.33957" lon="5.29707">
        <ele>445</ele>
        <time>2018-02-21T12:20:56Z</time>
      </trkpt>
      <trkpt lat="44.33967" lon="5.29696">
        <ele>445</ele>
        <time>2018-02-21T12:20:58Z</time>
      </trkpt>
      <trkpt lat="44.33982" lon="5.29678">
        <ele>445</ele>
        <time>2018-02-21T12:21:01Z</time>
      </trkpt>
      <trkpt lat="44.33997" lon="5.29661">
        <ele>443</ele>
        <time>2018-02-21T12:21:04Z</time>
      </trkpt>
      <trkpt lat="44.34013" lon="5.29643">
        <ele>444</ele>
        <time>2018-02-21T12:21:07Z</time>
      </trkpt>
      <trkpt lat="44.34023" lon="5.29632">
        <ele>444</ele>
        <time>2018-02-21T12:21:09Z</time>
      </trkpt>
      <trkpt lat="44.34038" lon="5.29614">
        <ele>443</ele>
        <time>2018-02-21T12:21:12Z</time>
      </trkpt>
      <trkpt lat="44.34053" lon="5.29597">
        <ele>442</ele>
        <time>2018-02-21T12:21:15Z</time>
      </trkpt>
      <trkpt lat="44.34063" lon="5.29585">
        <ele>441</ele>
        <time>2018-02-21T12:21:17Z</time>
      </trkpt>
      <trkpt lat="44.34073" lon="5.29573">
        <ele>441</ele>
        <time>2018-02-21T12:21:20Z</time>
      </trkpt>
      <trkpt lat="44.34088" lon="5.29556">
        <ele>442</ele>
        <time>2018-02-21T12:21:22Z</time>
      </trkpt>
      <trkpt lat="44.34103" lon="5.29539">
        <ele>443</ele>
        <time>2018-02-21T12:21:25Z</time>
      </trkpt>
      <trkpt lat="44.34117" lon="5.29523">
        <ele>444</ele>
        <time>2018-02-21T12:21:28Z</time>
      </trkpt>
      <trkpt lat="44.3413" lon="5.29507">
        <ele>443</ele>
        <time>2018-02-21T12:21:31Z</time>
      </trkpt>
      <trkpt lat="44.34142" lon="5.2949">
        <ele>442</ele>
        <time>2018-02-21T12:21:34Z</time>
      </trkpt>
      <trkpt lat="44.3415" lon="5.29479">
        <ele>443</ele>
        <time>2018-02-21T12:21:36Z</time>
      </trkpt>
      <trkpt lat="44.34161" lon="5.29462">
        <ele>443</ele>
        <time>2018-02-21T12:21:39Z</time>
      </trkpt>
      <trkpt lat="44.34173" lon="5.29444">
        <ele>444</ele>
        <time>2018-02-21T12:21:42Z</time>
      </trkpt>
      <trkpt lat="44.34186" lon="5.29426">
        <ele>444</ele>
        <time>2018-02-21T12:21:45Z</time>
      </trkpt>
      <trkpt lat="44.34198" lon="5.29408">
        <ele>445</ele>
        <time>2018-02-21T12:21:48Z</time>
      </trkpt>
      <trkpt lat="44.34209" lon="5.29389">
        <ele>446</ele>
        <time>2018-02-21T12:21:51Z</time>
      </trkpt>
      <trkpt lat="44.34218" lon="5.29368">
        <ele>446</ele>
        <time>2018-02-21T12:21:54Z</time>
      </trkpt>
      <trkpt lat="44.34226" lon="5.29348">
        <ele>446</ele>
        <time>2018-02-21T12:21:57Z</time>
      </trkpt>
      <trkpt lat="44.34233" lon="5.29329">
        <ele>446</ele>
        <time>2018-02-21T12:22:00Z</time>
      </trkpt>
      <trkpt lat="44.34238" lon="5.29316">
        <ele>446</ele>
        <time>2018-02-21T12:22:02Z</time>
      </trkpt>
      <trkpt lat="44.34246" lon="5.29296">
        <ele>446</ele>
        <time>2018-02-21T12:22:05Z</time>
      </trkpt>
      <trkpt lat="44.34254" lon="5.29276">
        <ele>445</ele>
        <time>2018-02-21T12:22:08Z</time>
      </trkpt>
      <trkpt lat="44.34262" lon="5.29256">
        <ele>445</ele>
        <time>2018-02-21T12:22:11Z</time>
      </trkpt>
      <trkpt lat="44.34269" lon="5.29236">
        <ele>442</ele>
        <time>2018-02-21T12:22:14Z</time>
      </trkpt>
      <trkpt lat="44.34275" lon="5.29222">
        <ele>442</ele>
        <time>2018-02-21T12:22:16Z</time>
      </trkpt>
      <trkpt lat="44.34283" lon="5.29199">
        <ele>441</ele>
        <time>2018-02-21T12:22:19Z</time>
      </trkpt>
      <trkpt lat="44.34289" lon="5.29183">
        <ele>442</ele>
        <time>2018-02-21T12:22:21Z</time>
      </trkpt>
      <trkpt lat="44.34295" lon="5.29167">
        <ele>441</ele>
        <time>2018-02-21T12:22:23Z</time>
      </trkpt>
      <trkpt lat="44.34304" lon="5.2914">
        <ele>440</ele>
        <time>2018-02-21T12:22:27Z</time>
      </trkpt>
      <trkpt lat="44.34311" lon="5.29113">
        <ele>440</ele>
        <time>2018-02-21T12:22:29Z</time>
      </trkpt>
      <trkpt lat="44.34317" lon="5.29085">
        <ele>440</ele>
        <time>2018-02-21T12:22:32Z</time>
      </trkpt>
      <trkpt lat="44.34323" lon="5.29057">
        <ele>439</ele>
        <time>2018-02-21T12:22:35Z</time>
      </trkpt>
      <trkpt lat="44.34325" lon="5.29038">
        <ele>439</ele>
        <time>2018-02-21T12:22:37Z</time>
      </trkpt>
      <trkpt lat="44.34329" lon="5.2901">
        <ele>438</ele>
        <time>2018-02-21T12:22:40Z</time>
      </trkpt>
      <trkpt lat="44.34332" lon="5.28982">
        <ele>437</ele>
        <time>2018-02-21T12:22:43Z</time>
      </trkpt>
      <trkpt lat="44.34334" lon="5.28963">
        <ele>437</ele>
        <time>2018-02-21T12:22:45Z</time>
      </trkpt>
      <trkpt lat="44.34337" lon="5.28946">
        <ele>436</ele>
        <time>2018-02-21T12:22:47Z</time>
      </trkpt>
      <trkpt lat="44.34341" lon="5.28929">
        <ele>436</ele>
        <time>2018-02-21T12:22:49Z</time>
      </trkpt>
      <trkpt lat="44.34347" lon="5.28903">
        <ele>435</ele>
        <time>2018-02-21T12:22:52Z</time>
      </trkpt>
      <trkpt lat="44.34354" lon="5.28873">
        <ele>433</ele>
        <time>2018-02-21T12:22:55Z</time>
      </trkpt>
      <trkpt lat="44.34361" lon="5.28841">
        <ele>432</ele>
        <time>2018-02-21T12:22:58Z</time>
      </trkpt>
      <trkpt lat="44.34369" lon="5.2881">
        <ele>430</ele>
        <time>2018-02-21T12:23:01Z</time>
      </trkpt>
      <trkpt lat="44.34374" lon="5.2879">
        <ele>430</ele>
        <time>2018-02-21T12:23:03Z</time>
      </trkpt>
      <trkpt lat="44.34382" lon="5.2876">
        <ele>429</ele>
        <time>2018-02-21T12:23:06Z</time>
      </trkpt>
      <trkpt lat="44.34388" lon="5.2873">
        <ele>429</ele>
        <time>2018-02-21T12:23:09Z</time>
      </trkpt>
      <trkpt lat="44.34395" lon="5.28701">
        <ele>429</ele>
        <time>2018-02-21T12:23:12Z</time>
      </trkpt>
      <trkpt lat="44.344" lon="5.28682">
        <ele>428</ele>
        <time>2018-02-21T12:23:14Z</time>
      </trkpt>
      <trkpt lat="44.34408" lon="5.28652">
        <ele>427</ele>
        <time>2018-02-21T12:23:17Z</time>
      </trkpt>
      <trkpt lat="44.34413" lon="5.28632">
        <ele>427</ele>
        <time>2018-02-21T12:23:19Z</time>
      </trkpt>
      <trkpt lat="44.3442" lon="5.28604">
        <ele>427</ele>
        <time>2018-02-21T12:23:22Z</time>
      </trkpt>
      <trkpt lat="44.34425" lon="5.28586">
        <ele>427</ele>
        <time>2018-02-21T12:23:24Z</time>
      </trkpt>
      <trkpt lat="44.34432" lon="5.2856">
        <ele>425</ele>
        <time>2018-02-21T12:23:27Z</time>
      </trkpt>
      <trkpt lat="44.34438" lon="5.28534">
        <ele>423</ele>
        <time>2018-02-21T12:23:30Z</time>
      </trkpt>
      <trkpt lat="44.34442" lon="5.28516">
        <ele>422</ele>
        <time>2018-02-21T12:23:32Z</time>
      </trkpt>
      <trkpt lat="44.34447" lon="5.2849">
        <ele>421</ele>
        <time>2018-02-21T12:23:35Z</time>
      </trkpt>
      <trkpt lat="44.3445" lon="5.28473">
        <ele>420</ele>
        <time>2018-02-21T12:23:37Z</time>
      </trkpt>
      <trkpt lat="44.34453" lon="5.28449">
        <ele>420</ele>
        <time>2018-02-21T12:23:40Z</time>
      </trkpt>
      <trkpt lat="44.34456" lon="5.28428">
        <ele>419</ele>
        <time>2018-02-21T12:23:43Z</time>
      </trkpt>
      <trkpt lat="44.34456" lon="5.28418">
        <ele>419</ele>
        <time>2018-02-21T12:23:45Z</time>
      </trkpt>
      <trkpt lat="44.34452" lon="5.28406">
        <ele>418</ele>
        <time>2018-02-21T12:23:48Z</time>
      </trkpt>
      <trkpt lat="44.34443" lon="5.284">
        <ele>417</ele>
        <time>2018-02-21T12:23:51Z</time>
      </trkpt>
      <trkpt lat="44.3443" lon="5.28395">
        <ele>417</ele>
        <time>2018-02-21T12:23:54Z</time>
      </trkpt>
      <trkpt lat="44.3442" lon="5.2839">
        <ele>416</ele>
        <time>2018-02-21T12:23:57Z</time>
      </trkpt>
      <trkpt lat="44.34414" lon="5.28387">
        <ele>416</ele>
        <time>2018-02-21T12:23:59Z</time>
      </trkpt>
      <trkpt lat="44.34404" lon="5.28383">
        <ele>415</ele>
        <time>2018-02-21T12:24:02Z</time>
      </trkpt>
      <trkpt lat="44.34394" lon="5.28379">
        <ele>416</ele>
        <time>2018-02-21T12:24:05Z</time>
      </trkpt>
      <trkpt lat="44.34383" lon="5.28374">
        <ele>416</ele>
        <time>2018-02-21T12:24:08Z</time>
      </trkpt>
      <trkpt lat="44.34373" lon="5.2837">
        <ele>415</ele>
        <time>2018-02-21T12:24:11Z</time>
      </trkpt>
      <trkpt lat="44.34367" lon="5.28367">
        <ele>414</ele>
        <time>2018-02-21T12:24:14Z</time>
      </trkpt>
      <trkpt lat="44.34366" lon="5.28366">
        <ele>414</ele>
        <time>2018-02-21T12:24:17Z</time>
      </trkpt>
      <trkpt lat="44.34365" lon="5.28365">
        <ele>413</ele>
        <time>2018-02-21T12:24:19Z</time>
      </trkpt>
      <trkpt lat="44.34365" lon="5.28364">
        <ele>413</ele>
        <time>2018-02-21T12:24:21Z</time>
      </trkpt>
      <trkpt lat="44.34365" lon="5.28364">
        <ele>413</ele>
        <time>2018-02-21T12:24:24Z</time>
      </trkpt>
      <trkpt lat="44.34365" lon="5.28362">
        <ele>413</ele>
        <time>2018-02-21T12:24:26Z</time>
      </trkpt>
      <trkpt lat="44.34365" lon="5.28361">
        <ele>413</ele>
        <time>2018-02-21T12:24:28Z</time>
      </trkpt>
      <trkpt lat="44.34365" lon="5.28359">
        <ele>413</ele>
        <time>2018-02-21T12:24:30Z</time>
      </trkpt>
      <trkpt lat="44.34365" lon="5.28358">
        <ele>413</ele>
        <time>2018-02-21T12:24:33Z</time>
      </trkpt>
      <trkpt lat="44.34367" lon="5.28357">
        <ele>413</ele>
        <time>2018-02-21T12:24:36Z</time>
      </trkpt>
      <trkpt lat="44.34367" lon="5.28356">
        <ele>413</ele>
        <time>2018-02-21T12:24:38Z</time>
      </trkpt>
      <trkpt lat="44.34367" lon="5.28356">
        <ele>413</ele>
        <time>2018-02-21T12:24:41Z</time>
      </trkpt>
      <trkpt lat="44.34367" lon="5.28356">
        <ele>413</ele>
        <time>2018-02-21T12:24:44Z</time>
      </trkpt>
      <trkpt lat="44.34365" lon="5.28377">
        <ele>411</ele>
        <time>2018-02-21T12:24:49Z</time>
      </trkpt>
      <trkpt lat="44.34366" lon="5.28377">
        <ele>411</ele>
        <time>2018-02-21T12:24:51Z</time>
      </trkpt>
      <trkpt lat="44.34369" lon="5.28377">
        <ele>412</ele>
        <time>2018-02-21T12:24:53Z</time>
      </trkpt>
      <trkpt lat="44.34373" lon="5.28379">
        <ele>413</ele>
        <time>2018-02-21T12:24:56Z</time>
      </trkpt>
      <trkpt lat="44.34376" lon="5.2838">
        <ele>413</ele>
        <time>2018-02-21T12:24:58Z</time>
      </trkpt>
      <trkpt lat="44.3438" lon="5.28381">
        <ele>413</ele>
        <time>2018-02-21T12:25:00Z</time>
      </trkpt>
      <trkpt lat="44.34384" lon="5.28382">
        <ele>413</ele>
        <time>2018-02-21T12:25:02Z</time>
      </trkpt>
      <trkpt lat="44.34388" lon="5.28382">
        <ele>413</ele>
        <time>2018-02-21T12:25:04Z</time>
      </trkpt>
      <trkpt lat="44.34392" lon="5.28384">
        <ele>413</ele>
        <time>2018-02-21T12:25:06Z</time>
      </trkpt>
      <trkpt lat="44.34398" lon="5.28387">
        <ele>413</ele>
        <time>2018-02-21T12:25:09Z</time>
      </trkpt>
      <trkpt lat="44.34404" lon="5.2839">
        <ele>413</ele>
        <time>2018-02-21T12:25:12Z</time>
      </trkpt>
      <trkpt lat="44.34411" lon="5.28393">
        <ele>413</ele>
        <time>2018-02-21T12:25:15Z</time>
      </trkpt>
      <trkpt lat="44.34418" lon="5.28395">
        <ele>414</ele>
        <time>2018-02-21T12:25:18Z</time>
      </trkpt>
      <trkpt lat="44.34423" lon="5.28397">
        <ele>414</ele>
        <time>2018-02-21T12:25:20Z</time>
      </trkpt>
      <trkpt lat="44.34431" lon="5.284">
        <ele>414</ele>
        <time>2018-02-21T12:25:23Z</time>
      </trkpt>
      <trkpt lat="44.34438" lon="5.28402">
        <ele>415</ele>
        <time>2018-02-21T12:25:26Z</time>
      </trkpt>
      <trkpt lat="44.34441" lon="5.28403">
        <ele>415</ele>
        <time>2018-02-21T12:25:28Z</time>
      </trkpt>
      <trkpt lat="44.34446" lon="5.28402">
        <ele>415</ele>
        <time>2018-02-21T12:25:31Z</time>
      </trkpt>
      <trkpt lat="44.34449" lon="5.28397">
        <ele>415</ele>
        <time>2018-02-21T12:25:34Z</time>
      </trkpt>
      <trkpt lat="44.3445" lon="5.2839">
        <ele>416</ele>
        <time>2018-02-21T12:25:37Z</time>
      </trkpt>
      <trkpt lat="44.34453" lon="5.2838">
        <ele>417</ele>
        <time>2018-02-21T12:25:40Z</time>
      </trkpt>
      <trkpt lat="44.34455" lon="5.28374">
        <ele>417</ele>
        <time>2018-02-21T12:25:42Z</time>
      </trkpt>
      <trkpt lat="44.3446" lon="5.28364">
        <ele>417</ele>
        <time>2018-02-21T12:25:45Z</time>
      </trkpt>
      <trkpt lat="44.34463" lon="5.28359">
        <ele>416</ele>
        <time>2018-02-21T12:25:47Z</time>
      </trkpt>
      <trkpt lat="44.34466" lon="5.28354">
        <ele>416</ele>
        <time>2018-02-21T12:25:49Z</time>
      </trkpt>
      <trkpt lat="44.34469" lon="5.2835">
        <ele>416</ele>
        <time>2018-02-21T12:25:51Z</time>
      </trkpt>
      <trkpt lat="44.34473" lon="5.28344">
        <ele>416</ele>
        <time>2018-02-21T12:25:54Z</time>
      </trkpt>
      <trkpt lat="44.34476" lon="5.28337">
        <ele>416</ele>
        <time>2018-02-21T12:25:57Z</time>
      </trkpt>
      <trkpt lat="44.34478" lon="5.28333">
        <ele>416</ele>
        <time>2018-02-21T12:25:59Z</time>
      </trkpt>
      <trkpt lat="44.34481" lon="5.28328">
        <ele>416</ele>
        <time>2018-02-21T12:26:01Z</time>
      </trkpt>
      <trkpt lat="44.34484" lon="5.28322">
        <ele>416</ele>
        <time>2018-02-21T12:26:04Z</time>
      </trkpt>
      <trkpt lat="44.34486" lon="5.28318">
        <ele>416</ele>
        <time>2018-02-21T12:26:07Z</time>
      </trkpt>
      <trkpt lat="44.34489" lon="5.28314">
        <ele>415</ele>
        <time>2018-02-21T12:26:10Z</time>
      </trkpt>
      <trkpt lat="44.34488" lon="5.28312">
        <ele>415</ele>
        <time>2018-02-21T12:26:13Z</time>
      </trkpt>
      <trkpt lat="44.34487" lon="5.28311">
        <ele>415</ele>
        <time>2018-02-21T12:26:16Z</time>
      </trkpt>
      <trkpt lat="44.34486" lon="5.28311">
        <ele>415</ele>
        <time>2018-02-21T12:26:18Z</time>
      </trkpt>
      <trkpt lat="44.34485" lon="5.2831">
        <ele>416</ele>
        <time>2018-02-21T12:26:20Z</time>
      </trkpt>
      <trkpt lat="44.34484" lon="5.28309">
        <ele>415</ele>
        <time>2018-02-21T12:26:23Z</time>
      </trkpt>
      <trkpt lat="44.34484" lon="5.28308">
        <ele>416</ele>
        <time>2018-02-21T12:26:25Z</time>
      </trkpt>
      <trkpt lat="44.34484" lon="5.28307">
        <ele>415</ele>
        <time>2018-02-21T12:26:28Z</time>
      </trkpt>
      <trkpt lat="44.34484" lon="5.28306">
        <ele>415</ele>
        <time>2018-02-21T12:26:30Z</time>
      </trkpt>
      <trkpt lat="44.34484" lon="5.28304">
        <ele>415</ele>
        <time>2018-02-21T12:26:33Z</time>
      </trkpt>
      <trkpt lat="44.34483" lon="5.28302">
        <ele>415</ele>
        <time>2018-02-21T12:26:36Z</time>
      </trkpt>
      <trkpt lat="44.34483" lon="5.283">
        <ele>415</ele>
        <time>2018-02-21T12:26:38Z</time>
      </trkpt>
      <trkpt lat="44.34483" lon="5.28298">
        <ele>415</ele>
        <time>2018-02-21T12:26:41Z</time>
      </trkpt>
      <trkpt lat="44.34483" lon="5.28298">
        <ele>415</ele>
        <time>2018-02-21T12:26:43Z</time>
      </trkpt>
      <trkpt lat="44.34484" lon="5.28298">
        <ele>415</ele>
        <time>2018-02-21T12:26:45Z</time>
      </trkpt>
      <trkpt lat="44.34484" lon="5.28297">
        <ele>415</ele>
        <time>2018-02-21T12:26:48Z</time>
      </trkpt>
      <trkpt lat="44.34483" lon="5.28298">
        <ele>415</ele>
        <time>2018-02-21T12:26:50Z</time>
      </trkpt>
      <trkpt lat="44.34481" lon="5.28298">
        <ele>415</ele>
        <time>2018-02-21T12:26:52Z</time>
      </trkpt>
      <trkpt lat="44.34481" lon="5.28298">
        <ele>415</ele>
        <time>2018-02-21T12:26:55Z</time>
      </trkpt>
      <trkpt lat="44.34482" lon="5.28298">
        <ele>416</ele>
        <time>2018-02-21T12:26:58Z</time>
      </trkpt>
      <trkpt lat="44.34482" lon="5.28299">
        <ele>416</ele>
        <time>2018-02-21T12:27:02Z</time>
      </trkpt>
      <trkpt lat="44.34482" lon="5.28299">
        <ele>416</ele>
        <time>2018-02-21T12:27:04Z</time>
      </trkpt>
      <trkpt lat="44.34482" lon="5.28299">
        <ele>416</ele>
        <time>2018-02-21T12:27:07Z</time>
      </trkpt>
      <trkpt lat="44.34483" lon="5.28299">
        <ele>416</ele>
        <time>2018-02-21T12:27:09Z</time>
      </trkpt>
      <trkpt lat="44.34483" lon="5.28299">
        <ele>417</ele>
        <time>2018-02-21T12:27:11Z</time>
      </trkpt>
      <trkpt lat="44.34483" lon="5.28299">
        <ele>417</ele>
        <time>2018-02-21T12:27:14Z</time>
      </trkpt>
      <trkpt lat="44.34483" lon="5.28299">
        <ele>416</ele>
        <time>2018-02-21T12:27:16Z</time>
      </trkpt>
      <trkpt lat="44.34483" lon="5.283">
        <ele>416</ele>
        <time>2018-02-21T12:27:18Z</time>
      </trkpt>
      <trkpt lat="44.34484" lon="5.28302">
        <ele>416</ele>
        <time>2018-02-21T12:27:20Z</time>
      </trkpt>
      <trkpt lat="44.34486" lon="5.28303">
        <ele>415</ele>
        <time>2018-02-21T12:27:23Z</time>
      </trkpt>
      <trkpt lat="44.3449" lon="5.28301">
        <ele>414</ele>
        <time>2018-02-21T12:27:26Z</time>
      </trkpt>
      <trkpt lat="44.34496" lon="5.28297">
        <ele>414</ele>
        <time>2018-02-21T12:27:29Z</time>
      </trkpt>
      <trkpt lat="44.34502" lon="5.28294">
        <ele>415</ele>
        <time>2018-02-21T12:27:32Z</time>
      </trkpt>
      <trkpt lat="44.34507" lon="5.28292">
        <ele>415</ele>
        <time>2018-02-21T12:27:34Z</time>
      </trkpt>
      <trkpt lat="44.34514" lon="5.28288">
        <ele>415</ele>
        <time>2018-02-21T12:27:37Z</time>
      </trkpt>
      <trkpt lat="44.3452" lon="5.28287">
        <ele>415</ele>
        <time>2018-02-21T12:27:39Z</time>
      </trkpt>
      <trkpt lat="44.34527" lon="5.28285">
        <ele>416</ele>
        <time>2018-02-21T12:27:41Z</time>
      </trkpt>
      <trkpt lat="44.34533" lon="5.28282">
        <ele>415</ele>
        <time>2018-02-21T12:27:43Z</time>
      </trkpt>
      <trkpt lat="44.34545" lon="5.28279">
        <ele>415</ele>
        <time>2018-02-21T12:27:46Z</time>
      </trkpt>
      <trkpt lat="44.34552" lon="5.2828">
        <ele>415</ele>
        <time>2018-02-21T12:27:48Z</time>
      </trkpt>
      <trkpt lat="44.34563" lon="5.28282">
        <ele>415</ele>
        <time>2018-02-21T12:27:51Z</time>
      </trkpt>
      <trkpt lat="44.34574" lon="5.28284">
        <ele>415</ele>
        <time>2018-02-21T12:27:54Z</time>
      </trkpt>
      <trkpt lat="44.34587" lon="5.28286">
        <ele>413</ele>
        <time>2018-02-21T12:27:57Z</time>
      </trkpt>
      <trkpt lat="44.346" lon="5.28287">
        <ele>412</ele>
        <time>2018-02-21T12:28:00Z</time>
      </trkpt>
      <trkpt lat="44.34613" lon="5.28289">
        <ele>411</ele>
        <time>2018-02-21T12:28:03Z</time>
      </trkpt>
      <trkpt lat="44.34623" lon="5.28291">
        <ele>411</ele>
        <time>2018-02-21T12:28:05Z</time>
      </trkpt>
      <trkpt lat="44.34633" lon="5.28293">
        <ele>411</ele>
        <time>2018-02-21T12:28:07Z</time>
      </trkpt>
      <trkpt lat="44.34646" lon="5.28297">
        <ele>411</ele>
        <time>2018-02-21T12:28:10Z</time>
      </trkpt>
      <trkpt lat="44.34659" lon="5.283">
        <ele>411</ele>
        <time>2018-02-21T12:28:13Z</time>
      </trkpt>
      <trkpt lat="44.34668" lon="5.28302">
        <ele>411</ele>
        <time>2018-02-21T12:28:15Z</time>
      </trkpt>
      <trkpt lat="44.34679" lon="5.28304">
        <ele>411</ele>
        <time>2018-02-21T12:28:18Z</time>
      </trkpt>
      <trkpt lat="44.34686" lon="5.28307">
        <ele>411</ele>
        <time>2018-02-21T12:28:20Z</time>
      </trkpt>
      <trkpt lat="44.34694" lon="5.28309">
        <ele>411</ele>
        <time>2018-02-21T12:28:22Z</time>
      </trkpt>
      <trkpt lat="44.34707" lon="5.28311">
        <ele>412</ele>
        <time>2018-02-21T12:28:25Z</time>
      </trkpt>
      <trkpt lat="44.34721" lon="5.2831">
        <ele>413</ele>
        <time>2018-02-21T12:28:28Z</time>
      </trkpt>
      <trkpt lat="44.34729" lon="5.28309">
        <ele>413</ele>
        <time>2018-02-21T12:28:30Z</time>
      </trkpt>
      <trkpt lat="44.34743" lon="5.28306">
        <ele>413</ele>
        <time>2018-02-21T12:28:33Z</time>
      </trkpt>
      <trkpt lat="44.34753" lon="5.28302">
        <ele>412</ele>
        <time>2018-02-21T12:28:35Z</time>
      </trkpt>
      <trkpt lat="44.34768" lon="5.28294">
        <ele>412</ele>
        <time>2018-02-21T12:28:38Z</time>
      </trkpt>
      <trkpt lat="44.34781" lon="5.28282">
        <ele>411</ele>
        <time>2018-02-21T12:28:41Z</time>
      </trkpt>
      <trkpt lat="44.34793" lon="5.28266">
        <ele>412</ele>
        <time>2018-02-21T12:28:44Z</time>
      </trkpt>
      <trkpt lat="44.34798" lon="5.28256">
        <ele>413</ele>
        <time>2018-02-21T12:28:46Z</time>
      </trkpt>
      <trkpt lat="44.34806" lon="5.28239">
        <ele>414</ele>
        <time>2018-02-21T12:28:49Z</time>
      </trkpt>
      <trkpt lat="44.34811" lon="5.28221">
        <ele>414</ele>
        <time>2018-02-21T12:28:52Z</time>
      </trkpt>
      <trkpt lat="44.34816" lon="5.28201">
        <ele>414</ele>
        <time>2018-02-21T12:28:55Z</time>
      </trkpt>
      <trkpt lat="44.34821" lon="5.28181">
        <ele>413</ele>
        <time>2018-02-21T12:28:58Z</time>
      </trkpt>
      <trkpt lat="44.34826" lon="5.28161">
        <ele>412</ele>
        <time>2018-02-21T12:29:01Z</time>
      </trkpt>
      <trkpt lat="44.34833" lon="5.28142">
        <ele>412</ele>
        <time>2018-02-21T12:29:04Z</time>
      </trkpt>
      <trkpt lat="44.34842" lon="5.28123">
        <ele>413</ele>
        <time>2018-02-21T12:29:07Z</time>
      </trkpt>
      <trkpt lat="44.34852" lon="5.28107">
        <ele>414</ele>
        <time>2018-02-21T12:29:10Z</time>
      </trkpt>
      <trkpt lat="44.3486" lon="5.28097">
        <ele>414</ele>
        <time>2018-02-21T12:29:12Z</time>
      </trkpt>
      <trkpt lat="44.34868" lon="5.28088">
        <ele>413</ele>
        <time>2018-02-21T12:29:14Z</time>
      </trkpt>
      <trkpt lat="44.34882" lon="5.28076">
        <ele>413</ele>
        <time>2018-02-21T12:29:17Z</time>
      </trkpt>
      <trkpt lat="44.34895" lon="5.28065">
        <ele>413</ele>
        <time>2018-02-21T12:29:20Z</time>
      </trkpt>
      <trkpt lat="44.34904" lon="5.28057">
        <ele>412</ele>
        <time>2018-02-21T12:29:22Z</time>
      </trkpt>
      <trkpt lat="44.34918" lon="5.28046">
        <ele>412</ele>
        <time>2018-02-21T12:29:25Z</time>
      </trkpt>
      <trkpt lat="44.34932" lon="5.28035">
        <ele>411</ele>
        <time>2018-02-21T12:29:28Z</time>
      </trkpt>
      <trkpt lat="44.34946" lon="5.28025">
        <ele>410</ele>
        <time>2018-02-21T12:29:31Z</time>
      </trkpt>
      <trkpt lat="44.34961" lon="5.28015">
        <ele>411</ele>
        <time>2018-02-21T12:29:34Z</time>
      </trkpt>
      <trkpt lat="44.34972" lon="5.2801">
        <ele>411</ele>
        <time>2018-02-21T12:29:36Z</time>
      </trkpt>
      <trkpt lat="44.34982" lon="5.28004">
        <ele>411</ele>
        <time>2018-02-21T12:29:38Z</time>
      </trkpt>
      <trkpt lat="44.34999" lon="5.27996">
        <ele>410</ele>
        <time>2018-02-21T12:29:41Z</time>
      </trkpt>
      <trkpt lat="44.35016" lon="5.27987">
        <ele>409</ele>
        <time>2018-02-21T12:29:44Z</time>
      </trkpt>
      <trkpt lat="44.35033" lon="5.27979">
        <ele>409</ele>
        <time>2018-02-21T12:29:47Z</time>
      </trkpt>
      <trkpt lat="44.35049" lon="5.2797">
        <ele>409</ele>
        <time>2018-02-21T12:29:50Z</time>
      </trkpt>
      <trkpt lat="44.35065" lon="5.27961">
        <ele>409</ele>
        <time>2018-02-21T12:29:53Z</time>
      </trkpt>
      <trkpt lat="44.35076" lon="5.27955">
        <ele>408</ele>
        <time>2018-02-21T12:29:55Z</time>
      </trkpt>
      <trkpt lat="44.35091" lon="5.27945">
        <ele>408</ele>
        <time>2018-02-21T12:29:58Z</time>
      </trkpt>
      <trkpt lat="44.35107" lon="5.27934">
        <ele>408</ele>
        <time>2018-02-21T12:30:01Z</time>
      </trkpt>
      <trkpt lat="44.35116" lon="5.27926">
        <ele>408</ele>
        <time>2018-02-21T12:30:03Z</time>
      </trkpt>
      <trkpt lat="44.35131" lon="5.27916">
        <ele>408</ele>
        <time>2018-02-21T12:30:06Z</time>
      </trkpt>
      <trkpt lat="44.3514" lon="5.27907">
        <ele>408</ele>
        <time>2018-02-21T12:30:08Z</time>
      </trkpt>
      <trkpt lat="44.35153" lon="5.2789">
        <ele>407</ele>
        <time>2018-02-21T12:30:11Z</time>
      </trkpt>
      <trkpt lat="44.35165" lon="5.27871">
        <ele>407</ele>
        <time>2018-02-21T12:30:14Z</time>
      </trkpt>
      <trkpt lat="44.35172" lon="5.27858">
        <ele>407</ele>
        <time>2018-02-21T12:30:16Z</time>
      </trkpt>
      <trkpt lat="44.35183" lon="5.27839">
        <ele>407</ele>
        <time>2018-02-21T12:30:19Z</time>
      </trkpt>
      <trkpt lat="44.35189" lon="5.27826">
        <ele>407</ele>
        <time>2018-02-21T12:30:21Z</time>
      </trkpt>
      <trkpt lat="44.352" lon="5.27808">
        <ele>407</ele>
        <time>2018-02-21T12:30:24Z</time>
      </trkpt>
      <trkpt lat="44.35206" lon="5.27796">
        <ele>407</ele>
        <time>2018-02-21T12:30:26Z</time>
      </trkpt>
      <trkpt lat="44.35215" lon="5.27777">
        <ele>407</ele>
        <time>2018-02-21T12:30:29Z</time>
      </trkpt>
      <trkpt lat="44.35225" lon="5.27759">
        <ele>407</ele>
        <time>2018-02-21T12:30:32Z</time>
      </trkpt>
      <trkpt lat="44.35232" lon="5.27746">
        <ele>407</ele>
        <time>2018-02-21T12:30:34Z</time>
      </trkpt>
      <trkpt lat="44.35244" lon="5.27728">
        <ele>407</ele>
        <time>2018-02-21T12:30:37Z</time>
      </trkpt>
      <trkpt lat="44.35257" lon="5.27712">
        <ele>406</ele>
        <time>2018-02-21T12:30:40Z</time>
      </trkpt>
      <trkpt lat="44.3527" lon="5.27698">
        <ele>406</ele>
        <time>2018-02-21T12:30:43Z</time>
      </trkpt>
      <trkpt lat="44.35284" lon="5.27685">
        <ele>406</ele>
        <time>2018-02-21T12:30:46Z</time>
      </trkpt>
      <trkpt lat="44.35297" lon="5.27673">
        <ele>406</ele>
        <time>2018-02-21T12:30:49Z</time>
      </trkpt>
      <trkpt lat="44.3531" lon="5.2766">
        <ele>405</ele>
        <time>2018-02-21T12:30:52Z</time>
      </trkpt>
      <trkpt lat="44.35323" lon="5.27648">
        <ele>405</ele>
        <time>2018-02-21T12:30:55Z</time>
      </trkpt>
      <trkpt lat="44.35332" lon="5.2764">
        <ele>405</ele>
        <time>2018-02-21T12:30:57Z</time>
      </trkpt>
      <trkpt lat="44.3534" lon="5.27631">
        <ele>405</ele>
        <time>2018-02-21T12:30:59Z</time>
      </trkpt>
      <trkpt lat="44.35354" lon="5.27619">
        <ele>405</ele>
        <time>2018-02-21T12:31:02Z</time>
      </trkpt>
      <trkpt lat="44.35367" lon="5.27606">
        <ele>405</ele>
        <time>2018-02-21T12:31:05Z</time>
      </trkpt>
      <trkpt lat="44.35382" lon="5.27594">
        <ele>405</ele>
        <time>2018-02-21T12:31:08Z</time>
      </trkpt>
      <trkpt lat="44.35392" lon="5.27584">
        <ele>405</ele>
        <time>2018-02-21T12:31:10Z</time>
      </trkpt>
      <trkpt lat="44.35402" lon="5.27575">
        <ele>405</ele>
        <time>2018-02-21T12:31:12Z</time>
      </trkpt>
      <trkpt lat="44.35412" lon="5.27565">
        <ele>406</ele>
        <time>2018-02-21T12:31:14Z</time>
      </trkpt>
      <trkpt lat="44.35422" lon="5.27556">
        <ele>406</ele>
        <time>2018-02-21T12:31:16Z</time>
      </trkpt>
      <trkpt lat="44.35432" lon="5.27546">
        <ele>407</ele>
        <time>2018-02-21T12:31:18Z</time>
      </trkpt>
      <trkpt lat="44.3544" lon="5.27536">
        <ele>407</ele>
        <time>2018-02-21T12:31:20Z</time>
      </trkpt>
      <trkpt lat="44.35453" lon="5.27521">
        <ele>407</ele>
        <time>2018-02-21T12:31:23Z</time>
      </trkpt>
      <trkpt lat="44.35464" lon="5.27506">
        <ele>408</ele>
        <time>2018-02-21T12:31:26Z</time>
      </trkpt>
      <trkpt lat="44.35472" lon="5.27496">
        <ele>407</ele>
        <time>2018-02-21T12:31:28Z</time>
      </trkpt>
      <trkpt lat="44.3548" lon="5.27486">
        <ele>407</ele>
        <time>2018-02-21T12:31:30Z</time>
      </trkpt>
      <trkpt lat="44.35492" lon="5.2747">
        <ele>407</ele>
        <time>2018-02-21T12:31:33Z</time>
      </trkpt>
      <trkpt lat="44.355" lon="5.2746">
        <ele>406</ele>
        <time>2018-02-21T12:31:35Z</time>
      </trkpt>
      <trkpt lat="44.35508" lon="5.2745">
        <ele>406</ele>
        <time>2018-02-21T12:31:37Z</time>
      </trkpt>
      <trkpt lat="44.35519" lon="5.27434">
        <ele>408</ele>
        <time>2018-02-21T12:31:40Z</time>
      </trkpt>
      <trkpt lat="44.35527" lon="5.27424">
        <ele>408</ele>
        <time>2018-02-21T12:31:42Z</time>
      </trkpt>
      <trkpt lat="44.35538" lon="5.27408">
        <ele>409</ele>
        <time>2018-02-21T12:31:45Z</time>
      </trkpt>
      <trkpt lat="44.35546" lon="5.27397">
        <ele>409</ele>
        <time>2018-02-21T12:31:47Z</time>
      </trkpt>
      <trkpt lat="44.35554" lon="5.27386">
        <ele>408</ele>
        <time>2018-02-21T12:31:49Z</time>
      </trkpt>
      <trkpt lat="44.35562" lon="5.27375">
        <ele>408</ele>
        <time>2018-02-21T12:31:51Z</time>
      </trkpt>
      <trkpt lat="44.35575" lon="5.27358">
        <ele>407</ele>
        <time>2018-02-21T12:31:54Z</time>
      </trkpt>
      <trkpt lat="44.35583" lon="5.27347">
        <ele>408</ele>
        <time>2018-02-21T12:31:56Z</time>
      </trkpt>
      <trkpt lat="44.35595" lon="5.2733">
        <ele>409</ele>
        <time>2018-02-21T12:31:59Z</time>
      </trkpt>
      <trkpt lat="44.35602" lon="5.2732">
        <ele>409</ele>
        <time>2018-02-21T12:32:01Z</time>
      </trkpt>
      <trkpt lat="44.3561" lon="5.27309">
        <ele>409</ele>
        <time>2018-02-21T12:32:03Z</time>
      </trkpt>
      <trkpt lat="44.35618" lon="5.27298">
        <ele>409</ele>
        <time>2018-02-21T12:32:05Z</time>
      </trkpt>
      <trkpt lat="44.3563" lon="5.27281">
        <ele>409</ele>
        <time>2018-02-21T12:32:08Z</time>
      </trkpt>
      <trkpt lat="44.35638" lon="5.2727">
        <ele>409</ele>
        <time>2018-02-21T12:32:10Z</time>
      </trkpt>
      <trkpt lat="44.35645" lon="5.27258">
        <ele>408</ele>
        <time>2018-02-21T12:32:12Z</time>
      </trkpt>
      <trkpt lat="44.35652" lon="5.27246">
        <ele>408</ele>
        <time>2018-02-21T12:32:14Z</time>
      </trkpt>
      <trkpt lat="44.35657" lon="5.27233">
        <ele>408</ele>
        <time>2018-02-21T12:32:16Z</time>
      </trkpt>
      <trkpt lat="44.35663" lon="5.27214">
        <ele>407</ele>
        <time>2018-02-21T12:32:19Z</time>
      </trkpt>
      <trkpt lat="44.35668" lon="5.27194">
        <ele>407</ele>
        <time>2018-02-21T12:32:22Z</time>
      </trkpt>
      <trkpt lat="44.35674" lon="5.27174">
        <ele>407</ele>
        <time>2018-02-21T12:32:25Z</time>
      </trkpt>
      <trkpt lat="44.35682" lon="5.27154">
        <ele>408</ele>
        <time>2018-02-21T12:32:28Z</time>
      </trkpt>
      <trkpt lat="44.35687" lon="5.27141">
        <ele>408</ele>
        <time>2018-02-21T12:32:30Z</time>
      </trkpt>
      <trkpt lat="44.35693" lon="5.27128">
        <ele>408</ele>
        <time>2018-02-21T12:32:32Z</time>
      </trkpt>
      <trkpt lat="44.35704" lon="5.27109">
        <ele>407</ele>
        <time>2018-02-21T12:32:35Z</time>
      </trkpt>
      <trkpt lat="44.35715" lon="5.2709">
        <ele>406</ele>
        <time>2018-02-21T12:32:38Z</time>
      </trkpt>
      <trkpt lat="44.35723" lon="5.27077">
        <ele>406</ele>
        <time>2018-02-21T12:32:40Z</time>
      </trkpt>
      <trkpt lat="44.35735" lon="5.27057">
        <ele>405</ele>
        <time>2018-02-21T12:32:43Z</time>
      </trkpt>
      <trkpt lat="44.35742" lon="5.27044">
        <ele>405</ele>
        <time>2018-02-21T12:32:45Z</time>
      </trkpt>
      <trkpt lat="44.35752" lon="5.27023">
        <ele>405</ele>
        <time>2018-02-21T12:32:48Z</time>
      </trkpt>
      <trkpt lat="44.35762" lon="5.27002">
        <ele>405</ele>
        <time>2018-02-21T12:32:51Z</time>
      </trkpt>
      <trkpt lat="44.35773" lon="5.2698">
        <ele>405</ele>
        <time>2018-02-21T12:32:54Z</time>
      </trkpt>
      <trkpt lat="44.35783" lon="5.26959">
        <ele>404</ele>
        <time>2018-02-21T12:32:57Z</time>
      </trkpt>
      <trkpt lat="44.35789" lon="5.26944">
        <ele>404</ele>
        <time>2018-02-21T12:32:59Z</time>
      </trkpt>
      <trkpt lat="44.35798" lon="5.26922">
        <ele>403</ele>
        <time>2018-02-21T12:33:02Z</time>
      </trkpt>
      <trkpt lat="44.35808" lon="5.269">
        <ele>403</ele>
        <time>2018-02-21T12:33:05Z</time>
      </trkpt>
      <trkpt lat="44.35817" lon="5.26879">
        <ele>403</ele>
        <time>2018-02-21T12:33:08Z</time>
      </trkpt>
      <trkpt lat="44.35827" lon="5.2686">
        <ele>404</ele>
        <time>2018-02-21T12:33:11Z</time>
      </trkpt>
      <trkpt lat="44.35839" lon="5.26844">
        <ele>406</ele>
        <time>2018-02-21T12:33:14Z</time>
      </trkpt>
      <trkpt lat="44.35847" lon="5.26837">
        <ele>406</ele>
        <time>2018-02-21T12:33:16Z</time>
      </trkpt>
      <trkpt lat="44.35855" lon="5.26831">
        <ele>406</ele>
        <time>2018-02-21T12:33:18Z</time>
      </trkpt>
      <trkpt lat="44.35864" lon="5.26827">
        <ele>405</ele>
        <time>2018-02-21T12:33:20Z</time>
      </trkpt>
      <trkpt lat="44.35877" lon="5.26826">
        <ele>404</ele>
        <time>2018-02-21T12:33:23Z</time>
      </trkpt>
      <trkpt lat="44.35886" lon="5.26826">
        <ele>405</ele>
        <time>2018-02-21T12:33:25Z</time>
      </trkpt>
      <trkpt lat="44.35894" lon="5.26827">
        <ele>405</ele>
        <time>2018-02-21T12:33:27Z</time>
      </trkpt>
      <trkpt lat="44.35909" lon="5.26829">
        <ele>404</ele>
        <time>2018-02-21T12:33:30Z</time>
      </trkpt>
      <trkpt lat="44.35923" lon="5.2683">
        <ele>404</ele>
        <time>2018-02-21T12:33:33Z</time>
      </trkpt>
      <trkpt lat="44.35938" lon="5.26831">
        <ele>404</ele>
        <time>2018-02-21T12:33:36Z</time>
      </trkpt>
      <trkpt lat="44.35948" lon="5.26832">
        <ele>405</ele>
        <time>2018-02-21T12:33:38Z</time>
      </trkpt>
      <trkpt lat="44.35964" lon="5.26832">
        <ele>405</ele>
        <time>2018-02-21T12:33:41Z</time>
      </trkpt>
      <trkpt lat="44.35979" lon="5.26832">
        <ele>405</ele>
        <time>2018-02-21T12:33:44Z</time>
      </trkpt>
      <trkpt lat="44.3599" lon="5.26832">
        <ele>405</ele>
        <time>2018-02-21T12:33:46Z</time>
      </trkpt>
      <trkpt lat="44.36" lon="5.26832">
        <ele>406</ele>
        <time>2018-02-21T12:33:48Z</time>
      </trkpt>
      <trkpt lat="44.36016" lon="5.26831">
        <ele>407</ele>
        <time>2018-02-21T12:33:51Z</time>
      </trkpt>
      <trkpt lat="44.36026" lon="5.26831">
        <ele>407</ele>
        <time>2018-02-21T12:33:53Z</time>
      </trkpt>
      <trkpt lat="44.36043" lon="5.2683">
        <ele>405</ele>
        <time>2018-02-21T12:33:56Z</time>
      </trkpt>
      <trkpt lat="44.36061" lon="5.26829">
        <ele>405</ele>
        <time>2018-02-21T12:33:59Z</time>
      </trkpt>
      <trkpt lat="44.3608" lon="5.26826">
        <ele>404</ele>
        <time>2018-02-21T12:34:02Z</time>
      </trkpt>
      <trkpt lat="44.36092" lon="5.26823">
        <ele>404</ele>
        <time>2018-02-21T12:34:04Z</time>
      </trkpt>
      <trkpt lat="44.36105" lon="5.2682">
        <ele>405</ele>
        <time>2018-02-21T12:34:06Z</time>
      </trkpt>
      <trkpt lat="44.36124" lon="5.26814">
        <ele>405</ele>
        <time>2018-02-21T12:34:09Z</time>
      </trkpt>
      <trkpt lat="44.36137" lon="5.26809">
        <ele>405</ele>
        <time>2018-02-21T12:34:11Z</time>
      </trkpt>
      <trkpt lat="44.36156" lon="5.26799">
        <ele>404</ele>
        <time>2018-02-21T12:34:14Z</time>
      </trkpt>
      <trkpt lat="44.36174" lon="5.26788">
        <ele>404</ele>
        <time>2018-02-21T12:34:17Z</time>
      </trkpt>
      <trkpt lat="44.36192" lon="5.26775">
        <ele>404</ele>
        <time>2018-02-21T12:34:20Z</time>
      </trkpt>
      <trkpt lat="44.3621" lon="5.26761">
        <ele>404</ele>
        <time>2018-02-21T12:34:23Z</time>
      </trkpt>
      <trkpt lat="44.36227" lon="5.26747">
        <ele>404</ele>
        <time>2018-02-21T12:34:26Z</time>
      </trkpt>
      <trkpt lat="44.36243" lon="5.26731">
        <ele>405</ele>
        <time>2018-02-21T12:34:29Z</time>
      </trkpt>
      <trkpt lat="44.36259" lon="5.26715">
        <ele>404</ele>
        <time>2018-02-21T12:34:32Z</time>
      </trkpt>
      <trkpt lat="44.36275" lon="5.26699">
        <ele>401</ele>
        <time>2018-02-21T12:34:35Z</time>
      </trkpt>
      <trkpt lat="44.36292" lon="5.26682">
        <ele>400</ele>
        <time>2018-02-21T12:34:38Z</time>
      </trkpt>
      <trkpt lat="44.36308" lon="5.26665">
        <ele>400</ele>
        <time>2018-02-21T12:34:41Z</time>
      </trkpt>
      <trkpt lat="44.36323" lon="5.26647">
        <ele>401</ele>
        <time>2018-02-21T12:34:44Z</time>
      </trkpt>
      <trkpt lat="44.36333" lon="5.26633">
        <ele>400</ele>
        <time>2018-02-21T12:34:46Z</time>
      </trkpt>
      <trkpt lat="44.36346" lon="5.26613">
        <ele>400</ele>
        <time>2018-02-21T12:34:49Z</time>
      </trkpt>
      <trkpt lat="44.3636" lon="5.26592">
        <ele>400</ele>
        <time>2018-02-21T12:34:52Z</time>
      </trkpt>
      <trkpt lat="44.36374" lon="5.26571">
        <ele>401</ele>
        <time>2018-02-21T12:34:55Z</time>
      </trkpt>
      <trkpt lat="44.36382" lon="5.26555">
        <ele>400</ele>
        <time>2018-02-21T12:34:57Z</time>
      </trkpt>
      <trkpt lat="44.36392" lon="5.2653">
        <ele>399</ele>
        <time>2018-02-21T12:35:00Z</time>
      </trkpt>
      <trkpt lat="44.36401" lon="5.26504">
        <ele>399</ele>
        <time>2018-02-21T12:35:03Z</time>
      </trkpt>
      <trkpt lat="44.36413" lon="5.26479">
        <ele>397</ele>
        <time>2018-02-21T12:35:06Z</time>
      </trkpt>
      <trkpt lat="44.36423" lon="5.26464">
        <ele>397</ele>
        <time>2018-02-21T12:35:08Z</time>
      </trkpt>
      <trkpt lat="44.36438" lon="5.26443">
        <ele>397</ele>
        <time>2018-02-21T12:35:11Z</time>
      </trkpt>
      <trkpt lat="44.3645" lon="5.26432">
        <ele>396</ele>
        <time>2018-02-21T12:35:13Z</time>
      </trkpt>
      <trkpt lat="44.36469" lon="5.26419">
        <ele>397</ele>
        <time>2018-02-21T12:35:16Z</time>
      </trkpt>
      <trkpt lat="44.3649" lon="5.2641">
        <ele>398</ele>
        <time>2018-02-21T12:35:19Z</time>
      </trkpt>
      <trkpt lat="44.36504" lon="5.26402">
        <ele>398</ele>
        <time>2018-02-21T12:35:21Z</time>
      </trkpt>
      <trkpt lat="44.36517" lon="5.26392">
        <ele>397</ele>
        <time>2018-02-21T12:35:23Z</time>
      </trkpt>
      <trkpt lat="44.36535" lon="5.26372">
        <ele>396</ele>
        <time>2018-02-21T12:35:26Z</time>
      </trkpt>
      <trkpt lat="44.36547" lon="5.26359">
        <ele>395</ele>
        <time>2018-02-21T12:35:28Z</time>
      </trkpt>
      <trkpt lat="44.36566" lon="5.26342">
        <ele>394</ele>
        <time>2018-02-21T12:35:31Z</time>
      </trkpt>
      <trkpt lat="44.36585" lon="5.26332">
        <ele>393</ele>
        <time>2018-02-21T12:35:34Z</time>
      </trkpt>
      <trkpt lat="44.36606" lon="5.26326">
        <ele>393</ele>
        <time>2018-02-21T12:35:37Z</time>
      </trkpt>
      <trkpt lat="44.36627" lon="5.26323">
        <ele>393</ele>
        <time>2018-02-21T12:35:40Z</time>
      </trkpt>
      <trkpt lat="44.36647" lon="5.26322">
        <ele>392</ele>
        <time>2018-02-21T12:35:43Z</time>
      </trkpt>
      <trkpt lat="44.3666" lon="5.26322">
        <ele>392</ele>
        <time>2018-02-21T12:35:45Z</time>
      </trkpt>
      <trkpt lat="44.36674" lon="5.2632">
        <ele>392</ele>
        <time>2018-02-21T12:35:47Z</time>
      </trkpt>
      <trkpt lat="44.36695" lon="5.26312">
        <ele>391</ele>
        <time>2018-02-21T12:35:50Z</time>
      </trkpt>
      <trkpt lat="44.36713" lon="5.26299">
        <ele>390</ele>
        <time>2018-02-21T12:35:53Z</time>
      </trkpt>
      <trkpt lat="44.36729" lon="5.26282">
        <ele>390</ele>
        <time>2018-02-21T12:35:56Z</time>
      </trkpt>
      <trkpt lat="44.36742" lon="5.26264">
        <ele>390</ele>
        <time>2018-02-21T12:35:59Z</time>
      </trkpt>
      <trkpt lat="44.36756" lon="5.26247">
        <ele>390</ele>
        <time>2018-02-21T12:36:02Z</time>
      </trkpt>
      <trkpt lat="44.3677" lon="5.2623">
        <ele>391</ele>
        <time>2018-02-21T12:36:05Z</time>
      </trkpt>
      <trkpt lat="44.3678" lon="5.26219">
        <ele>392</ele>
        <time>2018-02-21T12:36:07Z</time>
      </trkpt>
      <trkpt lat="44.3679" lon="5.26209">
        <ele>393</ele>
        <time>2018-02-21T12:36:09Z</time>
      </trkpt>
      <trkpt lat="44.36805" lon="5.26193">
        <ele>392</ele>
        <time>2018-02-21T12:36:12Z</time>
      </trkpt>
      <trkpt lat="44.36819" lon="5.26178">
        <ele>390</ele>
        <time>2018-02-21T12:36:15Z</time>
      </trkpt>
      <trkpt lat="44.36829" lon="5.26167">
        <ele>389</ele>
        <time>2018-02-21T12:36:17Z</time>
      </trkpt>
      <trkpt lat="44.36838" lon="5.26157">
        <ele>389</ele>
        <time>2018-02-21T12:36:19Z</time>
      </trkpt>
      <trkpt lat="44.36847" lon="5.26146">
        <ele>390</ele>
        <time>2018-02-21T12:36:21Z</time>
      </trkpt>
      <trkpt lat="44.36856" lon="5.26135">
        <ele>389</ele>
        <time>2018-02-21T12:36:23Z</time>
      </trkpt>
      <trkpt lat="44.36871" lon="5.26119">
        <ele>389</ele>
        <time>2018-02-21T12:36:26Z</time>
      </trkpt>
      <trkpt lat="44.36881" lon="5.26108">
        <ele>389</ele>
        <time>2018-02-21T12:36:28Z</time>
      </trkpt>
      <trkpt lat="44.36896" lon="5.26092">
        <ele>389</ele>
        <time>2018-02-21T12:36:31Z</time>
      </trkpt>
      <trkpt lat="44.36912" lon="5.26075">
        <ele>389</ele>
        <time>2018-02-21T12:36:34Z</time>
      </trkpt>
      <trkpt lat="44.36927" lon="5.26058">
        <ele>388</ele>
        <time>2018-02-21T12:36:37Z</time>
      </trkpt>
      <trkpt lat="44.3694" lon="5.26042">
        <ele>387</ele>
        <time>2018-02-21T12:36:40Z</time>
      </trkpt>
      <trkpt lat="44.36953" lon="5.26024">
        <ele>387</ele>
        <time>2018-02-21T12:36:43Z</time>
      </trkpt>
      <trkpt lat="44.36964" lon="5.26006">
        <ele>386</ele>
        <time>2018-02-21T12:36:46Z</time>
      </trkpt>
      <trkpt lat="44.36974" lon="5.25987">
        <ele>386</ele>
        <time>2018-02-21T12:36:49Z</time>
      </trkpt>
      <trkpt lat="44.36983" lon="5.25967">
        <ele>386</ele>
        <time>2018-02-21T12:36:52Z</time>
      </trkpt>
      <trkpt lat="44.36989" lon="5.25954">
        <ele>386</ele>
        <time>2018-02-21T12:36:54Z</time>
      </trkpt>
      <trkpt lat="44.37" lon="5.25934">
        <ele>386</ele>
        <time>2018-02-21T12:36:57Z</time>
      </trkpt>
      <trkpt lat="44.37006" lon="5.25921">
        <ele>385</ele>
        <time>2018-02-21T12:36:59Z</time>
      </trkpt>
      <trkpt lat="44.37016" lon="5.25902">
        <ele>385</ele>
        <time>2018-02-21T12:37:02Z</time>
      </trkpt>
      <trkpt lat="44.37024" lon="5.25882">
        <ele>386</ele>
        <time>2018-02-21T12:37:05Z</time>
      </trkpt>
      <trkpt lat="44.37031" lon="5.2586">
        <ele>385</ele>
        <time>2018-02-21T12:37:08Z</time>
      </trkpt>
      <trkpt lat="44.37038" lon="5.25838">
        <ele>386</ele>
        <time>2018-02-21T12:37:11Z</time>
      </trkpt>
      <trkpt lat="44.37045" lon="5.25815">
        <ele>386</ele>
        <time>2018-02-21T12:37:14Z</time>
      </trkpt>
      <trkpt lat="44.37053" lon="5.25792">
        <ele>386</ele>
        <time>2018-02-21T12:37:17Z</time>
      </trkpt>
      <trkpt lat="44.37058" lon="5.25776">
        <ele>386</ele>
        <time>2018-02-21T12:37:19Z</time>
      </trkpt>
      <trkpt lat="44.37066" lon="5.25754">
        <ele>387</ele>
        <time>2018-02-21T12:37:22Z</time>
      </trkpt>
      <trkpt lat="44.37073" lon="5.25732">
        <ele>387</ele>
        <time>2018-02-21T12:37:25Z</time>
      </trkpt>
      <trkpt lat="44.37081" lon="5.25709">
        <ele>387</ele>
        <time>2018-02-21T12:37:28Z</time>
      </trkpt>
      <trkpt lat="44.37089" lon="5.25688">
        <ele>387</ele>
        <time>2018-02-21T12:37:31Z</time>
      </trkpt>
      <trkpt lat="44.37099" lon="5.25667">
        <ele>388</ele>
        <time>2018-02-21T12:37:34Z</time>
      </trkpt>
      <trkpt lat="44.37108" lon="5.25647">
        <ele>388</ele>
        <time>2018-02-21T12:37:37Z</time>
      </trkpt>
      <trkpt lat="44.37117" lon="5.25627">
        <ele>388</ele>
        <time>2018-02-21T12:37:40Z</time>
      </trkpt>
      <trkpt lat="44.37126" lon="5.25607">
        <ele>386</ele>
        <time>2018-02-21T12:37:43Z</time>
      </trkpt>
      <trkpt lat="44.37133" lon="5.25594">
        <ele>386</ele>
        <time>2018-02-21T12:37:45Z</time>
      </trkpt>
      <trkpt lat="44.37142" lon="5.25574">
        <ele>385</ele>
        <time>2018-02-21T12:37:48Z</time>
      </trkpt>
      <trkpt lat="44.37151" lon="5.25555">
        <ele>386</ele>
        <time>2018-02-21T12:37:51Z</time>
      </trkpt>
      <trkpt lat="44.37161" lon="5.25536">
        <ele>387</ele>
        <time>2018-02-21T12:37:54Z</time>
      </trkpt>
      <trkpt lat="44.3717" lon="5.25517">
        <ele>386</ele>
        <time>2018-02-21T12:37:57Z</time>
      </trkpt>
      <trkpt lat="44.3718" lon="5.25496">
        <ele>385</ele>
        <time>2018-02-21T12:38:00Z</time>
      </trkpt>
      <trkpt lat="44.3719" lon="5.25475">
        <ele>383</ele>
        <time>2018-02-21T12:38:03Z</time>
      </trkpt>
      <trkpt lat="44.372" lon="5.25454">
        <ele>383</ele>
        <time>2018-02-21T12:38:06Z</time>
      </trkpt>
      <trkpt lat="44.3721" lon="5.25432">
        <ele>383</ele>
        <time>2018-02-21T12:38:09Z</time>
      </trkpt>
      <trkpt lat="44.37218" lon="5.25419">
        <ele>382</ele>
        <time>2018-02-21T12:38:11Z</time>
      </trkpt>
      <trkpt lat="44.37234" lon="5.25402">
        <ele>382</ele>
        <time>2018-02-21T12:38:14Z</time>
      </trkpt>
      <trkpt lat="44.37251" lon="5.25394">
        <ele>382</ele>
        <time>2018-02-21T12:38:17Z</time>
      </trkpt>
      <trkpt lat="44.3727" lon="5.25393">
        <ele>383</ele>
        <time>2018-02-21T12:38:20Z</time>
      </trkpt>
      <trkpt lat="44.37289" lon="5.25394">
        <ele>381</ele>
        <time>2018-02-21T12:38:23Z</time>
      </trkpt>
      <trkpt lat="44.37302" lon="5.25395">
        <ele>380</ele>
        <time>2018-02-21T12:38:25Z</time>
      </trkpt>
      <trkpt lat="44.37315" lon="5.25395">
        <ele>379</ele>
        <time>2018-02-21T12:38:27Z</time>
      </trkpt>
      <trkpt lat="44.37328" lon="5.25395">
        <ele>379</ele>
        <time>2018-02-21T12:38:29Z</time>
      </trkpt>
      <trkpt lat="44.37341" lon="5.25393">
        <ele>379</ele>
        <time>2018-02-21T12:38:31Z</time>
      </trkpt>
      <trkpt lat="44.3736" lon="5.25389">
        <ele>379</ele>
        <time>2018-02-21T12:38:34Z</time>
      </trkpt>
      <trkpt lat="44.37377" lon="5.25381">
        <ele>379</ele>
        <time>2018-02-21T12:38:37Z</time>
      </trkpt>
      <trkpt lat="44.37395" lon="5.25371">
        <ele>378</ele>
        <time>2018-02-21T12:38:40Z</time>
      </trkpt>
      <trkpt lat="44.37413" lon="5.25359">
        <ele>377</ele>
        <time>2018-02-21T12:38:43Z</time>
      </trkpt>
      <trkpt lat="44.37423" lon="5.25349">
        <ele>376</ele>
        <time>2018-02-21T12:38:45Z</time>
      </trkpt>
      <trkpt lat="44.37438" lon="5.25329">
        <ele>375</ele>
        <time>2018-02-21T12:38:48Z</time>
      </trkpt>
      <trkpt lat="44.3745" lon="5.25308">
        <ele>374</ele>
        <time>2018-02-21T12:38:51Z</time>
      </trkpt>
      <trkpt lat="44.37457" lon="5.25292">
        <ele>374</ele>
        <time>2018-02-21T12:38:53Z</time>
      </trkpt>
      <trkpt lat="44.37463" lon="5.25275">
        <ele>374</ele>
        <time>2018-02-21T12:38:55Z</time>
      </trkpt>
      <trkpt lat="44.37471" lon="5.25249">
        <ele>374</ele>
        <time>2018-02-21T12:38:58Z</time>
      </trkpt>
      <trkpt lat="44.37475" lon="5.25231">
        <ele>375</ele>
        <time>2018-02-21T12:39:00Z</time>
      </trkpt>
      <trkpt lat="44.37482" lon="5.25205">
        <ele>375</ele>
        <time>2018-02-21T12:39:03Z</time>
      </trkpt>
      <trkpt lat="44.3749" lon="5.25181">
        <ele>375</ele>
        <time>2018-02-21T12:39:06Z</time>
      </trkpt>
      <trkpt lat="44.37496" lon="5.25165">
        <ele>375</ele>
        <time>2018-02-21T12:39:08Z</time>
      </trkpt>
      <trkpt lat="44.37506" lon="5.25142">
        <ele>374</ele>
        <time>2018-02-21T12:39:11Z</time>
      </trkpt>
      <trkpt lat="44.37518" lon="5.25121">
        <ele>373</ele>
        <time>2018-02-21T12:39:14Z</time>
      </trkpt>
      <trkpt lat="44.37526" lon="5.25108">
        <ele>373</ele>
        <time>2018-02-21T12:39:16Z</time>
      </trkpt>
      <trkpt lat="44.37541" lon="5.25092">
        <ele>373</ele>
        <time>2018-02-21T12:39:19Z</time>
      </trkpt>
      <trkpt lat="44.37551" lon="5.25082">
        <ele>373</ele>
        <time>2018-02-21T12:39:21Z</time>
      </trkpt>
      <trkpt lat="44.37561" lon="5.25072">
        <ele>373</ele>
        <time>2018-02-21T12:39:23Z</time>
      </trkpt>
      <trkpt lat="44.37576" lon="5.25057">
        <ele>373</ele>
        <time>2018-02-21T12:39:26Z</time>
      </trkpt>
      <trkpt lat="44.37585" lon="5.25046">
        <ele>372</ele>
        <time>2018-02-21T12:39:28Z</time>
      </trkpt>
      <trkpt lat="44.37595" lon="5.25034">
        <ele>372</ele>
        <time>2018-02-21T12:39:30Z</time>
      </trkpt>
      <trkpt lat="44.37608" lon="5.25015">
        <ele>373</ele>
        <time>2018-02-21T12:39:33Z</time>
      </trkpt>
      <trkpt lat="44.37616" lon="5.25004">
        <ele>373</ele>
        <time>2018-02-21T12:39:35Z</time>
      </trkpt>
      <trkpt lat="44.37625" lon="5.24993">
        <ele>373</ele>
        <time>2018-02-21T12:39:37Z</time>
      </trkpt>
      <trkpt lat="44.37637" lon="5.24975">
        <ele>372</ele>
        <time>2018-02-21T12:39:40Z</time>
      </trkpt>
      <trkpt lat="44.3765" lon="5.24958">
        <ele>370</ele>
        <time>2018-02-21T12:39:43Z</time>
      </trkpt>
      <trkpt lat="44.3766" lon="5.24946">
        <ele>369</ele>
        <time>2018-02-21T12:39:45Z</time>
      </trkpt>
      <trkpt lat="44.37674" lon="5.24928">
        <ele>369</ele>
        <time>2018-02-21T12:39:48Z</time>
      </trkpt>
      <trkpt lat="44.37687" lon="5.24909">
        <ele>368</ele>
        <time>2018-02-21T12:39:51Z</time>
      </trkpt>
      <trkpt lat="44.377" lon="5.24889">
        <ele>367</ele>
        <time>2018-02-21T12:39:54Z</time>
      </trkpt>
      <trkpt lat="44.37709" lon="5.24876">
        <ele>367</ele>
        <time>2018-02-21T12:39:56Z</time>
      </trkpt>
      <trkpt lat="44.3772" lon="5.24864">
        <ele>367</ele>
        <time>2018-02-21T12:39:58Z</time>
      </trkpt>
      <trkpt lat="44.37735" lon="5.24843">
        <ele>367</ele>
        <time>2018-02-21T12:40:01Z</time>
      </trkpt>
      <trkpt lat="44.37751" lon="5.24822">
        <ele>366</ele>
        <time>2018-02-21T12:40:04Z</time>
      </trkpt>
      <trkpt lat="44.37765" lon="5.248">
        <ele>366</ele>
        <time>2018-02-21T12:40:07Z</time>
      </trkpt>
      <trkpt lat="44.37775" lon="5.24787">
        <ele>365</ele>
        <time>2018-02-21T12:40:09Z</time>
      </trkpt>
      <trkpt lat="44.37785" lon="5.24773">
        <ele>366</ele>
        <time>2018-02-21T12:40:11Z</time>
      </trkpt>
      <trkpt lat="44.37794" lon="5.24759">
        <ele>366</ele>
        <time>2018-02-21T12:40:13Z</time>
      </trkpt>
      <trkpt lat="44.37809" lon="5.24739">
        <ele>366</ele>
        <time>2018-02-21T12:40:16Z</time>
      </trkpt>
      <trkpt lat="44.37819" lon="5.24725">
        <ele>365</ele>
        <time>2018-02-21T12:40:18Z</time>
      </trkpt>
      <trkpt lat="44.37833" lon="5.24705">
        <ele>365</ele>
        <time>2018-02-21T12:40:21Z</time>
      </trkpt>
      <trkpt lat="44.37842" lon="5.24692">
        <ele>365</ele>
        <time>2018-02-21T12:40:23Z</time>
      </trkpt>
      <trkpt lat="44.37851" lon="5.2468">
        <ele>365</ele>
        <time>2018-02-21T12:40:25Z</time>
      </trkpt>
      <trkpt lat="44.37862" lon="5.24659">
        <ele>365</ele>
        <time>2018-02-21T12:40:28Z</time>
      </trkpt>
      <trkpt lat="44.37875" lon="5.24639">
        <ele>364</ele>
        <time>2018-02-21T12:40:31Z</time>
      </trkpt>
      <trkpt lat="44.37885" lon="5.24627">
        <ele>364</ele>
        <time>2018-02-21T12:40:33Z</time>
      </trkpt>
      <trkpt lat="44.37901" lon="5.24612">
        <ele>363</ele>
        <time>2018-02-21T12:40:36Z</time>
      </trkpt>
      <trkpt lat="44.37913" lon="5.24603">
        <ele>363</ele>
        <time>2018-02-21T12:40:38Z</time>
      </trkpt>
      <trkpt lat="44.37924" lon="5.24595">
        <ele>363</ele>
        <time>2018-02-21T12:40:40Z</time>
      </trkpt>
      <trkpt lat="44.37942" lon="5.24585">
        <ele>362</ele>
        <time>2018-02-21T12:40:43Z</time>
      </trkpt>
      <trkpt lat="44.3796" lon="5.24574">
        <ele>362</ele>
        <time>2018-02-21T12:40:46Z</time>
      </trkpt>
      <trkpt lat="44.37977" lon="5.24562">
        <ele>361</ele>
        <time>2018-02-21T12:40:49Z</time>
      </trkpt>
      <trkpt lat="44.37995" lon="5.2455">
        <ele>361</ele>
        <time>2018-02-21T12:40:52Z</time>
      </trkpt>
      <trkpt lat="44.38013" lon="5.24537">
        <ele>361</ele>
        <time>2018-02-21T12:40:55Z</time>
      </trkpt>
      <trkpt lat="44.3803" lon="5.24524">
        <ele>360</ele>
        <time>2018-02-21T12:40:58Z</time>
      </trkpt>
      <trkpt lat="44.38046" lon="5.24508">
        <ele>360</ele>
        <time>2018-02-21T12:41:01Z</time>
      </trkpt>
      <trkpt lat="44.38055" lon="5.24496">
        <ele>360</ele>
        <time>2018-02-21T12:41:03Z</time>
      </trkpt>
      <trkpt lat="44.38068" lon="5.24475">
        <ele>361</ele>
        <time>2018-02-21T12:41:06Z</time>
      </trkpt>
      <trkpt lat="44.3808" lon="5.24454">
        <ele>362</ele>
        <time>2018-02-21T12:41:09Z</time>
      </trkpt>
      <trkpt lat="44.38094" lon="5.24436">
        <ele>362</ele>
        <time>2018-02-21T12:41:12Z</time>
      </trkpt>
      <trkpt lat="44.3811" lon="5.24423">
        <ele>361</ele>
        <time>2018-02-21T12:41:15Z</time>
      </trkpt>
      <trkpt lat="44.38128" lon="5.24417">
        <ele>361</ele>
        <time>2018-02-21T12:41:18Z</time>
      </trkpt>
      <trkpt lat="44.38146" lon="5.24412">
        <ele>361</ele>
        <time>2018-02-21T12:41:21Z</time>
      </trkpt>
      <trkpt lat="44.38164" lon="5.24408">
        <ele>361</ele>
        <time>2018-02-21T12:41:24Z</time>
      </trkpt>
      <trkpt lat="44.38182" lon="5.24404">
        <ele>361</ele>
        <time>2018-02-21T12:41:27Z</time>
      </trkpt>
      <trkpt lat="44.38195" lon="5.24401">
        <ele>360</ele>
        <time>2018-02-21T12:41:29Z</time>
      </trkpt>
      <trkpt lat="44.38212" lon="5.24396">
        <ele>359</ele>
        <time>2018-02-21T12:41:32Z</time>
      </trkpt>
      <trkpt lat="44.3823" lon="5.24389">
        <ele>358</ele>
        <time>2018-02-21T12:41:35Z</time>
      </trkpt>
      <trkpt lat="44.38243" lon="5.24384">
        <ele>358</ele>
        <time>2018-02-21T12:41:37Z</time>
      </trkpt>
      <trkpt lat="44.38262" lon="5.24376">
        <ele>357</ele>
        <time>2018-02-21T12:41:40Z</time>
      </trkpt>
      <trkpt lat="44.38281" lon="5.24368">
        <ele>357</ele>
        <time>2018-02-21T12:41:43Z</time>
      </trkpt>
      <trkpt lat="44.383" lon="5.24359">
        <ele>357</ele>
        <time>2018-02-21T12:41:46Z</time>
      </trkpt>
      <trkpt lat="44.38314" lon="5.24353">
        <ele>356</ele>
        <time>2018-02-21T12:41:48Z</time>
      </trkpt>
      <trkpt lat="44.38333" lon="5.24342">
        <ele>354</ele>
        <time>2018-02-21T12:41:51Z</time>
      </trkpt>
      <trkpt lat="44.38346" lon="5.24333">
        <ele>353</ele>
        <time>2018-02-21T12:41:53Z</time>
      </trkpt>
      <trkpt lat="44.38362" lon="5.24316">
        <ele>353</ele>
        <time>2018-02-21T12:41:56Z</time>
      </trkpt>
      <trkpt lat="44.38372" lon="5.24304">
        <ele>353</ele>
        <time>2018-02-21T12:41:58Z</time>
      </trkpt>
      <trkpt lat="44.38388" lon="5.24287">
        <ele>353</ele>
        <time>2018-02-21T12:42:01Z</time>
      </trkpt>
      <trkpt lat="44.38398" lon="5.24275">
        <ele>353</ele>
        <time>2018-02-21T12:42:03Z</time>
      </trkpt>
      <trkpt lat="44.38413" lon="5.24259">
        <ele>354</ele>
        <time>2018-02-21T12:42:06Z</time>
      </trkpt>
      <trkpt lat="44.38423" lon="5.24249">
        <ele>354</ele>
        <time>2018-02-21T12:42:08Z</time>
      </trkpt>
      <trkpt lat="44.38432" lon="5.24238">
        <ele>354</ele>
        <time>2018-02-21T12:42:10Z</time>
      </trkpt>
      <trkpt lat="44.3844" lon="5.24228">
        <ele>354</ele>
        <time>2018-02-21T12:42:12Z</time>
      </trkpt>
      <trkpt lat="44.38454" lon="5.24211">
        <ele>354</ele>
        <time>2018-02-21T12:42:15Z</time>
      </trkpt>
      <trkpt lat="44.38467" lon="5.24194">
        <ele>354</ele>
        <time>2018-02-21T12:42:18Z</time>
      </trkpt>
      <trkpt lat="44.3848" lon="5.24178">
        <ele>354</ele>
        <time>2018-02-21T12:42:21Z</time>
      </trkpt>
      <trkpt lat="44.38489" lon="5.24168">
        <ele>354</ele>
        <time>2018-02-21T12:42:23Z</time>
      </trkpt>
      <trkpt lat="44.38501" lon="5.24152">
        <ele>355</ele>
        <time>2018-02-21T12:42:26Z</time>
      </trkpt>
      <trkpt lat="44.38513" lon="5.24137">
        <ele>355</ele>
        <time>2018-02-21T12:42:29Z</time>
      </trkpt>
      <trkpt lat="44.38521" lon="5.24127">
        <ele>356</ele>
        <time>2018-02-21T12:42:31Z</time>
      </trkpt>
      <trkpt lat="44.38533" lon="5.24112">
        <ele>356</ele>
        <time>2018-02-21T12:42:34Z</time>
      </trkpt>
      <trkpt lat="44.38544" lon="5.24096">
        <ele>356</ele>
        <time>2018-02-21T12:42:37Z</time>
      </trkpt>
      <trkpt lat="44.38554" lon="5.2408">
        <ele>356</ele>
        <time>2018-02-21T12:42:40Z</time>
      </trkpt>
      <trkpt lat="44.38561" lon="5.24069">
        <ele>356</ele>
        <time>2018-02-21T12:42:42Z</time>
      </trkpt>
      <trkpt lat="44.38571" lon="5.24052">
        <ele>356</ele>
        <time>2018-02-21T12:42:45Z</time>
      </trkpt>
      <trkpt lat="44.38577" lon="5.24041">
        <ele>356</ele>
        <time>2018-02-21T12:42:47Z</time>
      </trkpt>
      <trkpt lat="44.38588" lon="5.24024">
        <ele>356</ele>
        <time>2018-02-21T12:42:50Z</time>
      </trkpt>
      <trkpt lat="44.38598" lon="5.24007">
        <ele>355</ele>
        <time>2018-02-21T12:42:53Z</time>
      </trkpt>
      <trkpt lat="44.38604" lon="5.23995">
        <ele>354</ele>
        <time>2018-02-21T12:42:55Z</time>
      </trkpt>
      <trkpt lat="44.38611" lon="5.23984">
        <ele>354</ele>
        <time>2018-02-21T12:42:57Z</time>
      </trkpt>
      <trkpt lat="44.38622" lon="5.23966">
        <ele>354</ele>
        <time>2018-02-21T12:43:00Z</time>
      </trkpt>
      <trkpt lat="44.38632" lon="5.23949">
        <ele>354</ele>
        <time>2018-02-21T12:43:03Z</time>
      </trkpt>
      <trkpt lat="44.38643" lon="5.23931">
        <ele>354</ele>
        <time>2018-02-21T12:43:06Z</time>
      </trkpt>
      <trkpt lat="44.38651" lon="5.2391">
        <ele>354</ele>
        <time>2018-02-21T12:43:09Z</time>
      </trkpt>
      <trkpt lat="44.38657" lon="5.23888">
        <ele>355</ele>
        <time>2018-02-21T12:43:12Z</time>
      </trkpt>
      <trkpt lat="44.38663" lon="5.23866">
        <ele>355</ele>
        <time>2018-02-21T12:43:15Z</time>
      </trkpt>
      <trkpt lat="44.38669" lon="5.23842">
        <ele>355</ele>
        <time>2018-02-21T12:43:18Z</time>
      </trkpt>
      <trkpt lat="44.38673" lon="5.23827">
        <ele>355</ele>
        <time>2018-02-21T12:43:20Z</time>
      </trkpt>
      <trkpt lat="44.38678" lon="5.23803">
        <ele>355</ele>
        <time>2018-02-21T12:43:23Z</time>
      </trkpt>
      <trkpt lat="44.38683" lon="5.23777">
        <ele>355</ele>
        <time>2018-02-21T12:43:26Z</time>
      </trkpt>
      <trkpt lat="44.38686" lon="5.23752">
        <ele>356</ele>
        <time>2018-02-21T12:43:29Z</time>
      </trkpt>
      <trkpt lat="44.38688" lon="5.23735">
        <ele>356</ele>
        <time>2018-02-21T12:43:31Z</time>
      </trkpt>
      <trkpt lat="44.38693" lon="5.23711">
        <ele>357</ele>
        <time>2018-02-21T12:43:34Z</time>
      </trkpt>
      <trkpt lat="44.387" lon="5.23689">
        <ele>356</ele>
        <time>2018-02-21T12:43:37Z</time>
      </trkpt>
      <trkpt lat="44.38709" lon="5.23667">
        <ele>355</ele>
        <time>2018-02-21T12:43:40Z</time>
      </trkpt>
      <trkpt lat="44.38721" lon="5.23647">
        <ele>354</ele>
        <time>2018-02-21T12:43:43Z</time>
      </trkpt>
      <trkpt lat="44.38729" lon="5.23634">
        <ele>354</ele>
        <time>2018-02-21T12:43:45Z</time>
      </trkpt>
      <trkpt lat="44.38738" lon="5.23621">
        <ele>354</ele>
        <time>2018-02-21T12:43:47Z</time>
      </trkpt>
      <trkpt lat="44.38748" lon="5.23599">
        <ele>353</ele>
        <time>2018-02-21T12:43:50Z</time>
      </trkpt>
      <trkpt lat="44.38756" lon="5.23577">
        <ele>353</ele>
        <time>2018-02-21T12:43:53Z</time>
      </trkpt>
      <trkpt lat="44.38764" lon="5.23553">
        <ele>354</ele>
        <time>2018-02-21T12:43:56Z</time>
      </trkpt>
      <trkpt lat="44.38769" lon="5.23538">
        <ele>354</ele>
        <time>2018-02-21T12:43:58Z</time>
      </trkpt>
      <trkpt lat="44.38777" lon="5.23515">
        <ele>353</ele>
        <time>2018-02-21T12:44:01Z</time>
      </trkpt>
      <trkpt lat="44.38784" lon="5.23492">
        <ele>351</ele>
        <time>2018-02-21T12:44:04Z</time>
      </trkpt>
      <trkpt lat="44.38792" lon="5.2347">
        <ele>350</ele>
        <time>2018-02-21T12:44:07Z</time>
      </trkpt>
      <trkpt lat="44.38792" lon="5.23454">
        <ele>349</ele>
        <time>2018-02-21T12:44:10Z</time>
      </trkpt>
      <trkpt lat="44.38783" lon="5.23458">
        <ele>347</ele>
        <time>2018-02-21T12:44:13Z</time>
      </trkpt>
      <trkpt lat="44.38773" lon="5.23477">
        <ele>347</ele>
        <time>2018-02-21T12:44:16Z</time>
      </trkpt>
      <trkpt lat="44.3876" lon="5.23486">
        <ele>346</ele>
        <time>2018-02-21T12:44:18Z</time>
      </trkpt>
      <trkpt lat="44.38736" lon="5.23487">
        <ele>346</ele>
        <time>2018-02-21T12:44:21Z</time>
      </trkpt>
      <trkpt lat="44.3871" lon="5.23482">
        <ele>347</ele>
        <time>2018-02-21T12:44:24Z</time>
      </trkpt>
      <trkpt lat="44.38693" lon="5.23479">
        <ele>347</ele>
        <time>2018-02-21T12:44:26Z</time>
      </trkpt>
      <trkpt lat="44.38668" lon="5.23475">
        <ele>346</ele>
        <time>2018-02-21T12:44:29Z</time>
      </trkpt>
      <trkpt lat="44.38653" lon="5.23471">
        <ele>344</ele>
        <time>2018-02-21T12:44:31Z</time>
      </trkpt>
      <trkpt lat="44.38632" lon="5.23467">
        <ele>343</ele>
        <time>2018-02-21T12:44:34Z</time>
      </trkpt>
      <trkpt lat="44.38618" lon="5.23465">
        <ele>342</ele>
        <time>2018-02-21T12:44:36Z</time>
      </trkpt>
      <trkpt lat="44.38605" lon="5.23462">
        <ele>342</ele>
        <time>2018-02-21T12:44:38Z</time>
      </trkpt>
      <trkpt lat="44.38592" lon="5.23462">
        <ele>342</ele>
        <time>2018-02-21T12:44:40Z</time>
      </trkpt>
      <trkpt lat="44.38575" lon="5.23471">
        <ele>341</ele>
        <time>2018-02-21T12:44:43Z</time>
      </trkpt>
      <trkpt lat="44.3856" lon="5.23481">
        <ele>341</ele>
        <time>2018-02-21T12:44:46Z</time>
      </trkpt>
      <trkpt lat="44.38551" lon="5.2348">
        <ele>341</ele>
        <time>2018-02-21T12:44:48Z</time>
      </trkpt>
      <trkpt lat="44.3854" lon="5.23464">
        <ele>342</ele>
        <time>2018-02-21T12:44:51Z</time>
      </trkpt>
      <trkpt lat="44.38534" lon="5.23455">
        <ele>343</ele>
        <time>2018-02-21T12:44:53Z</time>
      </trkpt>
      <trkpt lat="44.38529" lon="5.23445">
        <ele>343</ele>
        <time>2018-02-21T12:44:55Z</time>
      </trkpt>
      <trkpt lat="44.3852" lon="5.23434">
        <ele>343</ele>
        <time>2018-02-21T12:44:58Z</time>
      </trkpt>
      <trkpt lat="44.38515" lon="5.2343">
        <ele>343</ele>
        <time>2018-02-21T12:45:00Z</time>
      </trkpt>
      <trkpt lat="44.3851" lon="5.23426">
        <ele>344</ele>
        <time>2018-02-21T12:45:02Z</time>
      </trkpt>
      <trkpt lat="44.38505" lon="5.2342">
        <ele>343</ele>
        <time>2018-02-21T12:45:04Z</time>
      </trkpt>
      <trkpt lat="44.385" lon="5.23414">
        <ele>344</ele>
        <time>2018-02-21T12:45:06Z</time>
      </trkpt>
      <trkpt lat="44.38491" lon="5.23404">
        <ele>344</ele>
        <time>2018-02-21T12:45:09Z</time>
      </trkpt>
      <trkpt lat="44.38486" lon="5.23397">
        <ele>343</ele>
        <time>2018-02-21T12:45:11Z</time>
      </trkpt>
      <trkpt lat="44.38479" lon="5.23386">
        <ele>344</ele>
        <time>2018-02-21T12:45:14Z</time>
      </trkpt>
      <trkpt lat="44.38471" lon="5.23377">
        <ele>344</ele>
        <time>2018-02-21T12:45:17Z</time>
      </trkpt>
      <trkpt lat="44.38462" lon="5.23367">
        <ele>344</ele>
        <time>2018-02-21T12:45:20Z</time>
      </trkpt>
      <trkpt lat="44.38453" lon="5.23357">
        <ele>344</ele>
        <time>2018-02-21T12:45:23Z</time>
      </trkpt>
      <trkpt lat="44.38443" lon="5.23347">
        <ele>344</ele>
        <time>2018-02-21T12:45:26Z</time>
      </trkpt>
      <trkpt lat="44.38437" lon="5.2334">
        <ele>344</ele>
        <time>2018-02-21T12:45:28Z</time>
      </trkpt>
      <trkpt lat="44.38427" lon="5.23328">
        <ele>344</ele>
        <time>2018-02-21T12:45:31Z</time>
      </trkpt>
      <trkpt lat="44.38421" lon="5.23318">
        <ele>344</ele>
        <time>2018-02-21T12:45:33Z</time>
      </trkpt>
      <trkpt lat="44.38412" lon="5.23302">
        <ele>344</ele>
        <time>2018-02-21T12:45:36Z</time>
      </trkpt>
      <trkpt lat="44.38407" lon="5.2329">
        <ele>345</ele>
        <time>2018-02-21T12:45:38Z</time>
      </trkpt>
      <trkpt lat="44.38398" lon="5.23272">
        <ele>345</ele>
        <time>2018-02-21T12:45:41Z</time>
      </trkpt>
      <trkpt lat="44.38389" lon="5.23254">
        <ele>346</ele>
        <time>2018-02-21T12:45:44Z</time>
      </trkpt>
      <trkpt lat="44.38384" lon="5.23241">
        <ele>346</ele>
        <time>2018-02-21T12:45:46Z</time>
      </trkpt>
      <trkpt lat="44.38375" lon="5.23221">
        <ele>346</ele>
        <time>2018-02-21T12:45:49Z</time>
      </trkpt>
      <trkpt lat="44.38366" lon="5.23201">
        <ele>345</ele>
        <time>2018-02-21T12:45:52Z</time>
      </trkpt>
      <trkpt lat="44.38358" lon="5.23182">
        <ele>345</ele>
        <time>2018-02-21T12:45:55Z</time>
      </trkpt>
      <trkpt lat="44.38349" lon="5.23163">
        <ele>345</ele>
        <time>2018-02-21T12:45:58Z</time>
      </trkpt>
      <trkpt lat="44.3834" lon="5.23145">
        <ele>346</ele>
        <time>2018-02-21T12:46:01Z</time>
      </trkpt>
      <trkpt lat="44.38332" lon="5.23127">
        <ele>346</ele>
        <time>2018-02-21T12:46:04Z</time>
      </trkpt>
      <trkpt lat="44.38324" lon="5.23109">
        <ele>345</ele>
        <time>2018-02-21T12:46:07Z</time>
      </trkpt>
      <trkpt lat="44.38318" lon="5.23098">
        <ele>345</ele>
        <time>2018-02-21T12:46:09Z</time>
      </trkpt>
      <trkpt lat="44.38313" lon="5.23086">
        <ele>345</ele>
        <time>2018-02-21T12:46:11Z</time>
      </trkpt>
      <trkpt lat="44.38304" lon="5.23067">
        <ele>344</ele>
        <time>2018-02-21T12:46:14Z</time>
      </trkpt>
      <trkpt lat="44.38296" lon="5.23048">
        <ele>343</ele>
        <time>2018-02-21T12:46:17Z</time>
      </trkpt>
      <trkpt lat="44.38292" lon="5.23035">
        <ele>342</ele>
        <time>2018-02-21T12:46:19Z</time>
      </trkpt>
      <trkpt lat="44.38288" lon="5.23015">
        <ele>341</ele>
        <time>2018-02-21T12:46:22Z</time>
      </trkpt>
      <trkpt lat="44.38286" lon="5.22995">
        <ele>342</ele>
        <time>2018-02-21T12:46:25Z</time>
      </trkpt>
      <trkpt lat="44.38284" lon="5.22974">
        <ele>342</ele>
        <time>2018-02-21T12:46:28Z</time>
      </trkpt>
      <trkpt lat="44.38282" lon="5.22954">
        <ele>341</ele>
        <time>2018-02-21T12:46:31Z</time>
      </trkpt>
      <trkpt lat="44.38282" lon="5.22933">
        <ele>341</ele>
        <time>2018-02-21T12:46:34Z</time>
      </trkpt>
      <trkpt lat="44.38281" lon="5.2292">
        <ele>342</ele>
        <time>2018-02-21T12:46:36Z</time>
      </trkpt>
      <trkpt lat="44.3828" lon="5.22898">
        <ele>343</ele>
        <time>2018-02-21T12:46:39Z</time>
      </trkpt>
      <trkpt lat="44.3828" lon="5.22883">
        <ele>343</ele>
        <time>2018-02-21T12:46:41Z</time>
      </trkpt>
      <trkpt lat="44.38279" lon="5.22867">
        <ele>343</ele>
        <time>2018-02-21T12:46:43Z</time>
      </trkpt>
      <trkpt lat="44.38279" lon="5.22851">
        <ele>342</ele>
        <time>2018-02-21T12:46:45Z</time>
      </trkpt>
      <trkpt lat="44.3828" lon="5.22834">
        <ele>341</ele>
        <time>2018-02-21T12:46:47Z</time>
      </trkpt>
      <trkpt lat="44.3828" lon="5.22817">
        <ele>341</ele>
        <time>2018-02-21T12:46:49Z</time>
      </trkpt>
      <trkpt lat="44.38281" lon="5.22801">
        <ele>340</ele>
        <time>2018-02-21T12:46:51Z</time>
      </trkpt>
      <trkpt lat="44.38282" lon="5.22778">
        <ele>340</ele>
        <time>2018-02-21T12:46:54Z</time>
      </trkpt>
      <trkpt lat="44.38282" lon="5.22762">
        <ele>341</ele>
        <time>2018-02-21T12:46:56Z</time>
      </trkpt>
      <trkpt lat="44.38283" lon="5.22746">
        <ele>341</ele>
        <time>2018-02-21T12:46:58Z</time>
      </trkpt>
      <trkpt lat="44.38283" lon="5.22732">
        <ele>342</ele>
        <time>2018-02-21T12:47:00Z</time>
      </trkpt>
      <trkpt lat="44.38282" lon="5.22711">
        <ele>342</ele>
        <time>2018-02-21T12:47:03Z</time>
      </trkpt>
      <trkpt lat="44.38281" lon="5.22689">
        <ele>341</ele>
        <time>2018-02-21T12:47:06Z</time>
      </trkpt>
      <trkpt lat="44.38279" lon="5.22675">
        <ele>341</ele>
        <time>2018-02-21T12:47:08Z</time>
      </trkpt>
      <trkpt lat="44.38278" lon="5.2266">
        <ele>341</ele>
        <time>2018-02-21T12:47:10Z</time>
      </trkpt>
      <trkpt lat="44.38277" lon="5.22638">
        <ele>341</ele>
        <time>2018-02-21T12:47:13Z</time>
      </trkpt>
      <trkpt lat="44.38276" lon="5.22616">
        <ele>341</ele>
        <time>2018-02-21T12:47:16Z</time>
      </trkpt>
      <trkpt lat="44.38274" lon="5.22595">
        <ele>341</ele>
        <time>2018-02-21T12:47:19Z</time>
      </trkpt>
      <trkpt lat="44.38272" lon="5.22572">
        <ele>341</ele>
        <time>2018-02-21T12:47:22Z</time>
      </trkpt>
      <trkpt lat="44.38271" lon="5.22557">
        <ele>340</ele>
        <time>2018-02-21T12:47:24Z</time>
      </trkpt>
      <trkpt lat="44.38269" lon="5.22535">
        <ele>340</ele>
        <time>2018-02-21T12:47:27Z</time>
      </trkpt>
      <trkpt lat="44.38264" lon="5.22513">
        <ele>339</ele>
        <time>2018-02-21T12:47:30Z</time>
      </trkpt>
      <trkpt lat="44.38259" lon="5.22492">
        <ele>339</ele>
        <time>2018-02-21T12:47:33Z</time>
      </trkpt>
      <trkpt lat="44.38254" lon="5.22471">
        <ele>341</ele>
        <time>2018-02-21T12:47:36Z</time>
      </trkpt>
      <trkpt lat="44.38249" lon="5.2245">
        <ele>341</ele>
        <time>2018-02-21T12:47:39Z</time>
      </trkpt>
      <trkpt lat="44.38245" lon="5.2243">
        <ele>341</ele>
        <time>2018-02-21T12:47:42Z</time>
      </trkpt>
      <trkpt lat="44.38241" lon="5.2241">
        <ele>341</ele>
        <time>2018-02-21T12:47:45Z</time>
      </trkpt>
      <trkpt lat="44.38238" lon="5.22397">
        <ele>340</ele>
        <time>2018-02-21T12:47:47Z</time>
      </trkpt>
      <trkpt lat="44.38235" lon="5.22384">
        <ele>340</ele>
        <time>2018-02-21T12:47:49Z</time>
      </trkpt>
      <trkpt lat="44.38231" lon="5.22364">
        <ele>340</ele>
        <time>2018-02-21T12:47:52Z</time>
      </trkpt>
      <trkpt lat="44.38229" lon="5.22352">
        <ele>340</ele>
        <time>2018-02-21T12:47:54Z</time>
      </trkpt>
      <trkpt lat="44.38226" lon="5.22339">
        <ele>339</ele>
        <time>2018-02-21T12:47:56Z</time>
      </trkpt>
      <trkpt lat="44.38223" lon="5.2232">
        <ele>340</ele>
        <time>2018-02-21T12:47:59Z</time>
      </trkpt>
      <trkpt lat="44.38219" lon="5.223">
        <ele>341</ele>
        <time>2018-02-21T12:48:02Z</time>
      </trkpt>
      <trkpt lat="44.38218" lon="5.22288">
        <ele>341</ele>
        <time>2018-02-21T12:48:04Z</time>
      </trkpt>
      <trkpt lat="44.38214" lon="5.22269">
        <ele>342</ele>
        <time>2018-02-21T12:48:07Z</time>
      </trkpt>
      <trkpt lat="44.38212" lon="5.22257">
        <ele>342</ele>
        <time>2018-02-21T12:48:09Z</time>
      </trkpt>
      <trkpt lat="44.38209" lon="5.22239">
        <ele>342</ele>
        <time>2018-02-21T12:48:12Z</time>
      </trkpt>
      <trkpt lat="44.38205" lon="5.22221">
        <ele>345</ele>
        <time>2018-02-21T12:48:15Z</time>
      </trkpt>
      <trkpt lat="44.382" lon="5.22203">
        <ele>345</ele>
        <time>2018-02-21T12:48:18Z</time>
      </trkpt>
      <trkpt lat="44.38191" lon="5.22187">
        <ele>344</ele>
        <time>2018-02-21T12:48:21Z</time>
      </trkpt>
      <trkpt lat="44.38184" lon="5.22179">
        <ele>342</ele>
        <time>2018-02-21T12:48:23Z</time>
      </trkpt>
      <trkpt lat="44.38171" lon="5.22168">
        <ele>340</ele>
        <time>2018-02-21T12:48:26Z</time>
      </trkpt>
      <trkpt lat="44.3817" lon="5.22155">
        <ele>338</ele>
        <time>2018-02-21T12:48:28Z</time>
      </trkpt>
      <trkpt lat="44.38176" lon="5.22146">
        <ele>337</ele>
        <time>2018-02-21T12:48:30Z</time>
      </trkpt>
      <trkpt lat="44.38188" lon="5.22136">
        <ele>337</ele>
        <time>2018-02-21T12:48:33Z</time>
      </trkpt>
      <trkpt lat="44.38197" lon="5.22122">
        <ele>338</ele>
        <time>2018-02-21T12:48:36Z</time>
      </trkpt>
      <trkpt lat="44.38199" lon="5.2211">
        <ele>338</ele>
        <time>2018-02-21T12:48:38Z</time>
      </trkpt>
      <trkpt lat="44.382" lon="5.22092">
        <ele>339</ele>
        <time>2018-02-21T12:48:41Z</time>
      </trkpt>
      <trkpt lat="44.38211" lon="5.22081">
        <ele>339</ele>
        <time>2018-02-21T12:48:44Z</time>
      </trkpt>
      <trkpt lat="44.38226" lon="5.2208">
        <ele>339</ele>
        <time>2018-02-21T12:48:47Z</time>
      </trkpt>
      <trkpt lat="44.38237" lon="5.22082">
        <ele>340</ele>
        <time>2018-02-21T12:48:49Z</time>
      </trkpt>
      <trkpt lat="44.38247" lon="5.22083">
        <ele>340</ele>
        <time>2018-02-21T12:48:51Z</time>
      </trkpt>
      <trkpt lat="44.38258" lon="5.22084">
        <ele>340</ele>
        <time>2018-02-21T12:48:53Z</time>
      </trkpt>
      <trkpt lat="44.38273" lon="5.22087">
        <ele>340</ele>
        <time>2018-02-21T12:48:56Z</time>
      </trkpt>
      <trkpt lat="44.38283" lon="5.2209">
        <ele>341</ele>
        <time>2018-02-21T12:48:58Z</time>
      </trkpt>
      <trkpt lat="44.38296" lon="5.22094">
        <ele>340</ele>
        <time>2018-02-21T12:49:01Z</time>
      </trkpt>
      <trkpt lat="44.38309" lon="5.221">
        <ele>340</ele>
        <time>2018-02-21T12:49:04Z</time>
      </trkpt>
      <trkpt lat="44.38324" lon="5.22109">
        <ele>339</ele>
        <time>2018-02-21T12:49:07Z</time>
      </trkpt>
      <trkpt lat="44.38342" lon="5.22111">
        <ele>338</ele>
        <time>2018-02-21T12:49:10Z</time>
      </trkpt>
      <trkpt lat="44.38352" lon="5.22104">
        <ele>338</ele>
        <time>2018-02-21T12:49:12Z</time>
      </trkpt>
      <trkpt lat="44.38364" lon="5.22086">
        <ele>338</ele>
        <time>2018-02-21T12:49:15Z</time>
      </trkpt>
      <trkpt lat="44.3837" lon="5.22072">
        <ele>338</ele>
        <time>2018-02-21T12:49:17Z</time>
      </trkpt>
      <trkpt lat="44.38378" lon="5.22051">
        <ele>337</ele>
        <time>2018-02-21T12:49:20Z</time>
      </trkpt>
      <trkpt lat="44.38385" lon="5.22031">
        <ele>337</ele>
        <time>2018-02-21T12:49:23Z</time>
      </trkpt>
      <trkpt lat="44.3839" lon="5.2201">
        <ele>337</ele>
        <time>2018-02-21T12:49:26Z</time>
      </trkpt>
      <trkpt lat="44.38394" lon="5.21988">
        <ele>337</ele>
        <time>2018-02-21T12:49:29Z</time>
      </trkpt>
      <trkpt lat="44.38397" lon="5.21966">
        <ele>336</ele>
        <time>2018-02-21T12:49:32Z</time>
      </trkpt>
      <trkpt lat="44.38399" lon="5.21951">
        <ele>335</ele>
        <time>2018-02-21T12:49:34Z</time>
      </trkpt>
      <trkpt lat="44.38401" lon="5.21936">
        <ele>334</ele>
        <time>2018-02-21T12:49:36Z</time>
      </trkpt>
      <trkpt lat="44.38406" lon="5.21915">
        <ele>333</ele>
        <time>2018-02-21T12:49:39Z</time>
      </trkpt>
      <trkpt lat="44.3841" lon="5.21903">
        <ele>332</ele>
        <time>2018-02-21T12:49:41Z</time>
      </trkpt>
      <trkpt lat="44.38416" lon="5.21884">
        <ele>332</ele>
        <time>2018-02-21T12:49:44Z</time>
      </trkpt>
      <trkpt lat="44.3842" lon="5.21871">
        <ele>332</ele>
        <time>2018-02-21T12:49:46Z</time>
      </trkpt>
      <trkpt lat="44.38425" lon="5.21859">
        <ele>331</ele>
        <time>2018-02-21T12:49:48Z</time>
      </trkpt>
      <trkpt lat="44.38434" lon="5.21842">
        <ele>332</ele>
        <time>2018-02-21T12:49:51Z</time>
      </trkpt>
      <trkpt lat="44.38441" lon="5.21833">
        <ele>331</ele>
        <time>2018-02-21T12:49:53Z</time>
      </trkpt>
      <trkpt lat="44.38449" lon="5.21824">
        <ele>331</ele>
        <time>2018-02-21T12:49:55Z</time>
      </trkpt>
      <trkpt lat="44.38458" lon="5.21815">
        <ele>331</ele>
        <time>2018-02-21T12:49:57Z</time>
      </trkpt>
      <trkpt lat="44.38466" lon="5.21806">
        <ele>331</ele>
        <time>2018-02-21T12:49:59Z</time>
      </trkpt>
      <trkpt lat="44.38478" lon="5.21794">
        <ele>332</ele>
        <time>2018-02-21T12:50:02Z</time>
      </trkpt>
      <trkpt lat="44.38492" lon="5.21781">
        <ele>332</ele>
        <time>2018-02-21T12:50:05Z</time>
      </trkpt>
      <trkpt lat="44.38504" lon="5.21769">
        <ele>333</ele>
        <time>2018-02-21T12:50:08Z</time>
      </trkpt>
      <trkpt lat="44.38517" lon="5.21756">
        <ele>333</ele>
        <time>2018-02-21T12:50:11Z</time>
      </trkpt>
      <trkpt lat="44.38529" lon="5.2174">
        <ele>333</ele>
        <time>2018-02-21T12:50:14Z</time>
      </trkpt>
      <trkpt lat="44.38541" lon="5.21725">
        <ele>332</ele>
        <time>2018-02-21T12:50:17Z</time>
      </trkpt>
      <trkpt lat="44.38549" lon="5.21715">
        <ele>331</ele>
        <time>2018-02-21T12:50:19Z</time>
      </trkpt>
      <trkpt lat="44.38558" lon="5.21707">
        <ele>331</ele>
        <time>2018-02-21T12:50:21Z</time>
      </trkpt>
      <trkpt lat="44.38572" lon="5.21696">
        <ele>332</ele>
        <time>2018-02-21T12:50:24Z</time>
      </trkpt>
      <trkpt lat="44.38584" lon="5.21682">
        <ele>332</ele>
        <time>2018-02-21T12:50:27Z</time>
      </trkpt>
      <trkpt lat="44.38594" lon="5.21665">
        <ele>333</ele>
        <time>2018-02-21T12:50:30Z</time>
      </trkpt>
      <trkpt lat="44.38602" lon="5.21647">
        <ele>333</ele>
        <time>2018-02-21T12:50:33Z</time>
      </trkpt>
      <trkpt lat="44.38609" lon="5.21628">
        <ele>333</ele>
        <time>2018-02-21T12:50:36Z</time>
      </trkpt>
      <trkpt lat="44.38614" lon="5.21615">
        <ele>333</ele>
        <time>2018-02-21T12:50:38Z</time>
      </trkpt>
      <trkpt lat="44.3862" lon="5.21596">
        <ele>334</ele>
        <time>2018-02-21T12:50:41Z</time>
      </trkpt>
      <trkpt lat="44.38624" lon="5.21575">
        <ele>335</ele>
        <time>2018-02-21T12:50:44Z</time>
      </trkpt>
      <trkpt lat="44.38625" lon="5.21561">
        <ele>336</ele>
        <time>2018-02-21T12:50:46Z</time>
      </trkpt>
      <trkpt lat="44.38623" lon="5.21547">
        <ele>335</ele>
        <time>2018-02-21T12:50:48Z</time>
      </trkpt>
      <trkpt lat="44.38621" lon="5.21532">
        <ele>335</ele>
        <time>2018-02-21T12:50:50Z</time>
      </trkpt>
      <trkpt lat="44.38616" lon="5.21511">
        <ele>334</ele>
        <time>2018-02-21T12:50:53Z</time>
      </trkpt>
      <trkpt lat="44.38613" lon="5.21497">
        <ele>333</ele>
        <time>2018-02-21T12:50:55Z</time>
      </trkpt>
      <trkpt lat="44.38608" lon="5.21477">
        <ele>332</ele>
        <time>2018-02-21T12:50:58Z</time>
      </trkpt>
      <trkpt lat="44.38602" lon="5.21455">
        <ele>331</ele>
        <time>2018-02-21T12:51:01Z</time>
      </trkpt>
      <trkpt lat="44.38599" lon="5.21441">
        <ele>331</ele>
        <time>2018-02-21T12:51:03Z</time>
      </trkpt>
      <trkpt lat="44.38595" lon="5.21427">
        <ele>330</ele>
        <time>2018-02-21T12:51:05Z</time>
      </trkpt>
      <trkpt lat="44.38591" lon="5.21405">
        <ele>329</ele>
        <time>2018-02-21T12:51:08Z</time>
      </trkpt>
      <trkpt lat="44.38588" lon="5.2139">
        <ele>329</ele>
        <time>2018-02-21T12:51:10Z</time>
      </trkpt>
      <trkpt lat="44.38584" lon="5.21377">
        <ele>330</ele>
        <time>2018-02-21T12:51:12Z</time>
      </trkpt>
      <trkpt lat="44.38578" lon="5.21356">
        <ele>330</ele>
        <time>2018-02-21T12:51:15Z</time>
      </trkpt>
      <trkpt lat="44.38572" lon="5.21335">
        <ele>330</ele>
        <time>2018-02-21T12:51:18Z</time>
      </trkpt>
      <trkpt lat="44.38565" lon="5.21314">
        <ele>330</ele>
        <time>2018-02-21T12:51:21Z</time>
      </trkpt>
      <trkpt lat="44.38558" lon="5.21294">
        <ele>331</ele>
        <time>2018-02-21T12:51:24Z</time>
      </trkpt>
      <trkpt lat="44.38552" lon="5.21281">
        <ele>331</ele>
        <time>2018-02-21T12:51:26Z</time>
      </trkpt>
      <trkpt lat="44.38545" lon="5.2127">
        <ele>331</ele>
        <time>2018-02-21T12:51:28Z</time>
      </trkpt>
      <trkpt lat="44.38533" lon="5.21254">
        <ele>330</ele>
        <time>2018-02-21T12:51:31Z</time>
      </trkpt>
      <trkpt lat="44.38524" lon="5.21246">
        <ele>330</ele>
        <time>2018-02-21T12:51:33Z</time>
      </trkpt>
      <trkpt lat="44.3851" lon="5.21235">
        <ele>329</ele>
        <time>2018-02-21T12:51:36Z</time>
      </trkpt>
      <trkpt lat="44.38496" lon="5.21223">
        <ele>329</ele>
        <time>2018-02-21T12:51:39Z</time>
      </trkpt>
      <trkpt lat="44.38487" lon="5.21215">
        <ele>329</ele>
        <time>2018-02-21T12:51:41Z</time>
      </trkpt>
      <trkpt lat="44.38473" lon="5.21202">
        <ele>329</ele>
        <time>2018-02-21T12:51:44Z</time>
      </trkpt>
      <trkpt lat="44.38464" lon="5.21194">
        <ele>329</ele>
        <time>2018-02-21T12:51:46Z</time>
      </trkpt>
      <trkpt lat="44.38455" lon="5.21186">
        <ele>329</ele>
        <time>2018-02-21T12:51:48Z</time>
      </trkpt>
      <trkpt lat="44.38442" lon="5.21174">
        <ele>330</ele>
        <time>2018-02-21T12:51:51Z</time>
      </trkpt>
      <trkpt lat="44.38432" lon="5.21167">
        <ele>330</ele>
        <time>2018-02-21T12:51:53Z</time>
      </trkpt>
      <trkpt lat="44.38419" lon="5.21153">
        <ele>330</ele>
        <time>2018-02-21T12:51:56Z</time>
      </trkpt>
      <trkpt lat="44.38412" lon="5.21142">
        <ele>329</ele>
        <time>2018-02-21T12:51:58Z</time>
      </trkpt>
      <trkpt lat="44.38403" lon="5.21123">
        <ele>329</ele>
        <time>2018-02-21T12:52:01Z</time>
      </trkpt>
      <trkpt lat="44.38396" lon="5.21111">
        <ele>329</ele>
        <time>2018-02-21T12:52:03Z</time>
      </trkpt>
      <trkpt lat="44.38388" lon="5.21099">
        <ele>330</ele>
        <time>2018-02-21T12:52:05Z</time>
      </trkpt>
      <trkpt lat="44.38376" lon="5.21082">
        <ele>329</ele>
        <time>2018-02-21T12:52:08Z</time>
      </trkpt>
      <trkpt lat="44.38369" lon="5.2107">
        <ele>329</ele>
        <time>2018-02-21T12:52:10Z</time>
      </trkpt>
      <trkpt lat="44.38357" lon="5.21054">
        <ele>328</ele>
        <time>2018-02-21T12:52:13Z</time>
      </trkpt>
      <trkpt lat="44.38348" lon="5.21044">
        <ele>328</ele>
        <time>2018-02-21T12:52:15Z</time>
      </trkpt>
      <trkpt lat="44.38335" lon="5.21029">
        <ele>329</ele>
        <time>2018-02-21T12:52:18Z</time>
      </trkpt>
      <trkpt lat="44.38329" lon="5.21009">
        <ele>329</ele>
        <time>2018-02-21T12:52:21Z</time>
      </trkpt>
      <trkpt lat="44.38326" lon="5.20996">
        <ele>329</ele>
        <time>2018-02-21T12:52:23Z</time>
      </trkpt>
      <trkpt lat="44.3832" lon="5.20983">
        <ele>329</ele>
        <time>2018-02-21T12:52:25Z</time>
      </trkpt>
      <trkpt lat="44.38309" lon="5.20962">
        <ele>329</ele>
        <time>2018-02-21T12:52:28Z</time>
      </trkpt>
      <trkpt lat="44.38298" lon="5.20939">
        <ele>328</ele>
        <time>2018-02-21T12:52:31Z</time>
      </trkpt>
      <trkpt lat="44.38289" lon="5.20912">
        <ele>328</ele>
        <time>2018-02-21T12:52:34Z</time>
      </trkpt>
      <trkpt lat="44.38285" lon="5.20883">
        <ele>328</ele>
        <time>2018-02-21T12:52:37Z</time>
      </trkpt>
      <trkpt lat="44.38283" lon="5.20854">
        <ele>327</ele>
        <time>2018-02-21T12:52:40Z</time>
      </trkpt>
      <trkpt lat="44.3828" lon="5.20823">
        <ele>326</ele>
        <time>2018-02-21T12:52:43Z</time>
      </trkpt>
      <trkpt lat="44.38276" lon="5.20792">
        <ele>325</ele>
        <time>2018-02-21T12:52:46Z</time>
      </trkpt>
      <trkpt lat="44.38273" lon="5.20773">
        <ele>324</ele>
        <time>2018-02-21T12:52:48Z</time>
      </trkpt>
      <trkpt lat="44.3827" lon="5.20744">
        <ele>324</ele>
        <time>2018-02-21T12:52:51Z</time>
      </trkpt>
      <trkpt lat="44.3827" lon="5.20725">
        <ele>323</ele>
        <time>2018-02-21T12:52:53Z</time>
      </trkpt>
      <trkpt lat="44.38271" lon="5.20701">
        <ele>322</ele>
        <time>2018-02-21T12:52:56Z</time>
      </trkpt>
      <trkpt lat="44.38272" lon="5.20684">
        <ele>321</ele>
        <time>2018-02-21T12:52:58Z</time>
      </trkpt>
      <trkpt lat="44.38273" lon="5.20667">
        <ele>320</ele>
        <time>2018-02-21T12:53:00Z</time>
      </trkpt>
      <trkpt lat="44.38272" lon="5.20642">
        <ele>320</ele>
        <time>2018-02-21T12:53:03Z</time>
      </trkpt>
      <trkpt lat="44.38269" lon="5.20616">
        <ele>321</ele>
        <time>2018-02-21T12:53:06Z</time>
      </trkpt>
      <trkpt lat="44.38265" lon="5.20592">
        <ele>322</ele>
        <time>2018-02-21T12:53:09Z</time>
      </trkpt>
      <trkpt lat="44.38264" lon="5.20578">
        <ele>322</ele>
        <time>2018-02-21T12:53:11Z</time>
      </trkpt>
      <trkpt lat="44.38264" lon="5.20556">
        <ele>322</ele>
        <time>2018-02-21T12:53:14Z</time>
      </trkpt>
      <trkpt lat="44.38262" lon="5.20532">
        <ele>320</ele>
        <time>2018-02-21T12:53:17Z</time>
      </trkpt>
      <trkpt lat="44.38261" lon="5.20509">
        <ele>321</ele>
        <time>2018-02-21T12:53:20Z</time>
      </trkpt>
      <trkpt lat="44.3826" lon="5.20494">
        <ele>321</ele>
        <time>2018-02-21T12:53:22Z</time>
      </trkpt>
      <trkpt lat="44.38258" lon="5.20471">
        <ele>322</ele>
        <time>2018-02-21T12:53:25Z</time>
      </trkpt>
      <trkpt lat="44.38257" lon="5.20446">
        <ele>322</ele>
        <time>2018-02-21T12:53:28Z</time>
      </trkpt>
      <trkpt lat="44.38258" lon="5.2043">
        <ele>322</ele>
        <time>2018-02-21T12:53:30Z</time>
      </trkpt>
      <trkpt lat="44.38259" lon="5.20413">
        <ele>322</ele>
        <time>2018-02-21T12:53:32Z</time>
      </trkpt>
      <trkpt lat="44.3826" lon="5.20389">
        <ele>322</ele>
        <time>2018-02-21T12:53:35Z</time>
      </trkpt>
      <trkpt lat="44.38261" lon="5.20373">
        <ele>323</ele>
        <time>2018-02-21T12:53:37Z</time>
      </trkpt>
      <trkpt lat="44.38261" lon="5.20357">
        <ele>323</ele>
        <time>2018-02-21T12:53:39Z</time>
      </trkpt>
      <trkpt lat="44.3826" lon="5.20333">
        <ele>324</ele>
        <time>2018-02-21T12:53:42Z</time>
      </trkpt>
      <trkpt lat="44.38258" lon="5.2031">
        <ele>325</ele>
        <time>2018-02-21T12:53:45Z</time>
      </trkpt>
      <trkpt lat="44.38256" lon="5.20287">
        <ele>325</ele>
        <time>2018-02-21T12:53:48Z</time>
      </trkpt>
      <trkpt lat="44.38255" lon="5.20264">
        <ele>324</ele>
        <time>2018-02-21T12:53:51Z</time>
      </trkpt>
      <trkpt lat="44.38253" lon="5.20241">
        <ele>325</ele>
        <time>2018-02-21T12:53:54Z</time>
      </trkpt>
      <trkpt lat="44.38251" lon="5.20225">
        <ele>325</ele>
        <time>2018-02-21T12:53:56Z</time>
      </trkpt>
      <trkpt lat="44.38248" lon="5.20207">
        <ele>325</ele>
        <time>2018-02-21T12:53:58Z</time>
      </trkpt>
      <trkpt lat="44.38242" lon="5.20179">
        <ele>325</ele>
        <time>2018-02-21T12:54:01Z</time>
      </trkpt>
      <trkpt lat="44.38232" lon="5.20154">
        <ele>325</ele>
        <time>2018-02-21T12:54:04Z</time>
      </trkpt>
      <trkpt lat="44.38219" lon="5.20137">
        <ele>325</ele>
        <time>2018-02-21T12:54:07Z</time>
      </trkpt>
      <trkpt lat="44.38206" lon="5.20123">
        <ele>326</ele>
        <time>2018-02-21T12:54:10Z</time>
      </trkpt>
      <trkpt lat="44.38197" lon="5.20109">
        <ele>328</ele>
        <time>2018-02-21T12:54:13Z</time>
      </trkpt>
      <trkpt lat="44.38192" lon="5.20098">
        <ele>328</ele>
        <time>2018-02-21T12:54:15Z</time>
      </trkpt>
      <trkpt lat="44.38189" lon="5.20087">
        <ele>329</ele>
        <time>2018-02-21T12:54:17Z</time>
      </trkpt>
      <trkpt lat="44.38185" lon="5.20076">
        <ele>328</ele>
        <time>2018-02-21T12:54:19Z</time>
      </trkpt>
      <trkpt lat="44.3818" lon="5.2006">
        <ele>329</ele>
        <time>2018-02-21T12:54:22Z</time>
      </trkpt>
      <trkpt lat="44.38176" lon="5.20049">
        <ele>329</ele>
        <time>2018-02-21T12:54:24Z</time>
      </trkpt>
      <trkpt lat="44.38172" lon="5.20037">
        <ele>329</ele>
        <time>2018-02-21T12:54:26Z</time>
      </trkpt>
      <trkpt lat="44.38169" lon="5.20025">
        <ele>329</ele>
        <time>2018-02-21T12:54:28Z</time>
      </trkpt>
      <trkpt lat="44.38164" lon="5.20006">
        <ele>327</ele>
        <time>2018-02-21T12:54:31Z</time>
      </trkpt>
      <trkpt lat="44.3816" lon="5.19992">
        <ele>326</ele>
        <time>2018-02-21T12:54:33Z</time>
      </trkpt>
      <trkpt lat="44.38156" lon="5.19979">
        <ele>325</ele>
        <time>2018-02-21T12:54:35Z</time>
      </trkpt>
      <trkpt lat="44.38149" lon="5.19958">
        <ele>324</ele>
        <time>2018-02-21T12:54:38Z</time>
      </trkpt>
      <trkpt lat="44.38144" lon="5.19946">
        <ele>325</ele>
        <time>2018-02-21T12:54:40Z</time>
      </trkpt>
      <trkpt lat="44.38132" lon="5.19934">
        <ele>324</ele>
        <time>2018-02-21T12:54:43Z</time>
      </trkpt>
      <trkpt lat="44.38118" lon="5.19927">
        <ele>324</ele>
        <time>2018-02-21T12:54:46Z</time>
      </trkpt>
      <trkpt lat="44.38103" lon="5.1992">
        <ele>324</ele>
        <time>2018-02-21T12:54:49Z</time>
      </trkpt>
      <trkpt lat="44.38089" lon="5.19916">
        <ele>324</ele>
        <time>2018-02-21T12:54:52Z</time>
      </trkpt>
      <trkpt lat="44.38079" lon="5.19915">
        <ele>324</ele>
        <time>2018-02-21T12:54:54Z</time>
      </trkpt>
      <trkpt lat="44.38063" lon="5.19914">
        <ele>324</ele>
        <time>2018-02-21T12:54:57Z</time>
      </trkpt>
      <trkpt lat="44.38047" lon="5.19916">
        <ele>324</ele>
        <time>2018-02-21T12:55:00Z</time>
      </trkpt>
      <trkpt lat="44.38031" lon="5.19916">
        <ele>324</ele>
        <time>2018-02-21T12:55:03Z</time>
      </trkpt>
      <trkpt lat="44.38016" lon="5.19913">
        <ele>324</ele>
        <time>2018-02-21T12:55:06Z</time>
      </trkpt>
      <trkpt lat="44.38005" lon="5.19899">
        <ele>325</ele>
        <time>2018-02-21T12:55:09Z</time>
      </trkpt>
      <trkpt lat="44.38001" lon="5.19879">
        <ele>325</ele>
        <time>2018-02-21T12:55:12Z</time>
      </trkpt>
      <trkpt lat="44.37996" lon="5.1986">
        <ele>327</ele>
        <time>2018-02-21T12:55:15Z</time>
      </trkpt>
      <trkpt lat="44.37988" lon="5.19842">
        <ele>327</ele>
        <time>2018-02-21T12:55:18Z</time>
      </trkpt>
      <trkpt lat="44.3798" lon="5.19827">
        <ele>326</ele>
        <time>2018-02-21T12:55:21Z</time>
      </trkpt>
      <trkpt lat="44.37973" lon="5.19818">
        <ele>325</ele>
        <time>2018-02-21T12:55:23Z</time>
      </trkpt>
      <trkpt lat="44.37967" lon="5.19808">
        <ele>325</ele>
        <time>2018-02-21T12:55:25Z</time>
      </trkpt>
      <trkpt lat="44.37957" lon="5.19793">
        <ele>324</ele>
        <time>2018-02-21T12:55:28Z</time>
      </trkpt>
      <trkpt lat="44.37949" lon="5.19783">
        <ele>325</ele>
        <time>2018-02-21T12:55:30Z</time>
      </trkpt>
      <trkpt lat="44.37942" lon="5.19772">
        <ele>325</ele>
        <time>2018-02-21T12:55:32Z</time>
      </trkpt>
      <trkpt lat="44.37931" lon="5.19757">
        <ele>325</ele>
        <time>2018-02-21T12:55:35Z</time>
      </trkpt>
      <trkpt lat="44.37924" lon="5.19747">
        <ele>324</ele>
        <time>2018-02-21T12:55:37Z</time>
      </trkpt>
      <trkpt lat="44.37914" lon="5.19731">
        <ele>324</ele>
        <time>2018-02-21T12:55:40Z</time>
      </trkpt>
      <trkpt lat="44.37901" lon="5.19713">
        <ele>324</ele>
        <time>2018-02-21T12:55:43Z</time>
      </trkpt>
      <trkpt lat="44.37892" lon="5.197">
        <ele>324</ele>
        <time>2018-02-21T12:55:45Z</time>
      </trkpt>
      <trkpt lat="44.37884" lon="5.19687">
        <ele>325</ele>
        <time>2018-02-21T12:55:47Z</time>
      </trkpt>
      <trkpt lat="44.37874" lon="5.19666">
        <ele>325</ele>
        <time>2018-02-21T12:55:50Z</time>
      </trkpt>
      <trkpt lat="44.37864" lon="5.19647">
        <ele>325</ele>
        <time>2018-02-21T12:55:53Z</time>
      </trkpt>
      <trkpt lat="44.37854" lon="5.19627">
        <ele>323</ele>
        <time>2018-02-21T12:55:56Z</time>
      </trkpt>
      <trkpt lat="44.37848" lon="5.19615">
        <ele>322</ele>
        <time>2018-02-21T12:55:58Z</time>
      </trkpt>
      <trkpt lat="44.37843" lon="5.196">
        <ele>322</ele>
        <time>2018-02-21T12:56:00Z</time>
      </trkpt>
      <trkpt lat="44.3784" lon="5.19577">
        <ele>321</ele>
        <time>2018-02-21T12:56:03Z</time>
      </trkpt>
      <trkpt lat="44.37838" lon="5.19562">
        <ele>321</ele>
        <time>2018-02-21T12:56:05Z</time>
      </trkpt>
      <trkpt lat="44.37836" lon="5.19548">
        <ele>321</ele>
        <time>2018-02-21T12:56:07Z</time>
      </trkpt>
      <trkpt lat="44.37833" lon="5.19533">
        <ele>323</ele>
        <time>2018-02-21T12:56:09Z</time>
      </trkpt>
      <trkpt lat="44.37828" lon="5.19512">
        <ele>323</ele>
        <time>2018-02-21T12:56:12Z</time>
      </trkpt>
      <trkpt lat="44.37824" lon="5.19498">
        <ele>323</ele>
        <time>2018-02-21T12:56:14Z</time>
      </trkpt>
      <trkpt lat="44.37819" lon="5.19474">
        <ele>322</ele>
        <time>2018-02-21T12:56:17Z</time>
      </trkpt>
      <trkpt lat="44.37813" lon="5.19449">
        <ele>320</ele>
        <time>2018-02-21T12:56:20Z</time>
      </trkpt>
      <trkpt lat="44.37809" lon="5.19423">
        <ele>318</ele>
        <time>2018-02-21T12:56:23Z</time>
      </trkpt>
      <trkpt lat="44.37808" lon="5.19406">
        <ele>318</ele>
        <time>2018-02-21T12:56:25Z</time>
      </trkpt>
      <trkpt lat="44.37809" lon="5.19389">
        <ele>318</ele>
        <time>2018-02-21T12:56:27Z</time>
      </trkpt>
      <trkpt lat="44.3781" lon="5.19363">
        <ele>318</ele>
        <time>2018-02-21T12:56:30Z</time>
      </trkpt>
      <trkpt lat="44.37811" lon="5.19347">
        <ele>317</ele>
        <time>2018-02-21T12:56:32Z</time>
      </trkpt>
      <trkpt lat="44.37812" lon="5.1933">
        <ele>315</ele>
        <time>2018-02-21T12:56:34Z</time>
      </trkpt>
      <trkpt lat="44.37813" lon="5.19305">
        <ele>314</ele>
        <time>2018-02-21T12:56:37Z</time>
      </trkpt>
      <trkpt lat="44.37814" lon="5.1928">
        <ele>312</ele>
        <time>2018-02-21T12:56:40Z</time>
      </trkpt>
      <trkpt lat="44.37818" lon="5.19256">
        <ele>310</ele>
        <time>2018-02-21T12:56:43Z</time>
      </trkpt>
      <trkpt lat="44.37821" lon="5.1924">
        <ele>310</ele>
        <time>2018-02-21T12:56:45Z</time>
      </trkpt>
      <trkpt lat="44.37827" lon="5.19217">
        <ele>310</ele>
        <time>2018-02-21T12:56:48Z</time>
      </trkpt>
      <trkpt lat="44.37833" lon="5.19203">
        <ele>310</ele>
        <time>2018-02-21T12:56:50Z</time>
      </trkpt>
      <trkpt lat="44.3784" lon="5.19178">
        <ele>311</ele>
        <time>2018-02-21T12:56:53Z</time>
      </trkpt>
      <trkpt lat="44.37845" lon="5.19161">
        <ele>312</ele>
        <time>2018-02-21T12:56:55Z</time>
      </trkpt>
      <trkpt lat="44.37847" lon="5.19141">
        <ele>311</ele>
        <time>2018-02-21T12:56:57Z</time>
      </trkpt>
      <trkpt lat="44.37847" lon="5.19114">
        <ele>310</ele>
        <time>2018-02-21T12:57:00Z</time>
      </trkpt>
      <trkpt lat="44.37846" lon="5.19094">
        <ele>309</ele>
        <time>2018-02-21T12:57:03Z</time>
      </trkpt>
      <trkpt lat="44.37848" lon="5.19087">
        <ele>309</ele>
        <time>2018-02-21T12:57:05Z</time>
      </trkpt>
      <trkpt lat="44.37854" lon="5.19076">
        <ele>310</ele>
        <time>2018-02-21T12:57:08Z</time>
      </trkpt>
      <trkpt lat="44.37859" lon="5.19065">
        <ele>311</ele>
        <time>2018-02-21T12:57:11Z</time>
      </trkpt>
      <trkpt lat="44.37855" lon="5.19053">
        <ele>313</ele>
        <time>2018-02-21T12:57:14Z</time>
      </trkpt>
      <trkpt lat="44.37847" lon="5.19043">
        <ele>314</ele>
        <time>2018-02-21T12:57:17Z</time>
      </trkpt>
      <trkpt lat="44.37839" lon="5.19031">
        <ele>313</ele>
        <time>2018-02-21T12:57:20Z</time>
      </trkpt>
      <trkpt lat="44.37836" lon="5.19022">
        <ele>312</ele>
        <time>2018-02-21T12:57:22Z</time>
      </trkpt>
      <trkpt lat="44.37835" lon="5.19013">
        <ele>310</ele>
        <time>2018-02-21T12:57:24Z</time>
      </trkpt>
      <trkpt lat="44.37836" lon="5.19001">
        <ele>308</ele>
        <time>2018-02-21T12:57:27Z</time>
      </trkpt>
      <trkpt lat="44.37837" lon="5.18993">
        <ele>308</ele>
        <time>2018-02-21T12:57:29Z</time>
      </trkpt>
      <trkpt lat="44.37838" lon="5.1898">
        <ele>308</ele>
        <time>2018-02-21T12:57:32Z</time>
      </trkpt>
      <trkpt lat="44.37838" lon="5.18966">
        <ele>309</ele>
        <time>2018-02-21T12:57:35Z</time>
      </trkpt>
      <trkpt lat="44.37836" lon="5.18951">
        <ele>309</ele>
        <time>2018-02-21T12:57:38Z</time>
      </trkpt>
      <trkpt lat="44.37833" lon="5.1894">
        <ele>309</ele>
        <time>2018-02-21T12:57:40Z</time>
      </trkpt>
      <trkpt lat="44.37831" lon="5.18924">
        <ele>309</ele>
        <time>2018-02-21T12:57:43Z</time>
      </trkpt>
      <trkpt lat="44.37829" lon="5.18913">
        <ele>310</ele>
        <time>2018-02-21T12:57:45Z</time>
      </trkpt>
      <trkpt lat="44.37825" lon="5.18897">
        <ele>310</ele>
        <time>2018-02-21T12:57:48Z</time>
      </trkpt>
      <trkpt lat="44.37822" lon="5.18887">
        <ele>310</ele>
        <time>2018-02-21T12:57:50Z</time>
      </trkpt>
      <trkpt lat="44.37819" lon="5.18877">
        <ele>310</ele>
        <time>2018-02-21T12:57:52Z</time>
      </trkpt>
      <trkpt lat="44.37816" lon="5.18866">
        <ele>311</ele>
        <time>2018-02-21T12:57:54Z</time>
      </trkpt>
      <trkpt lat="44.37812" lon="5.18856">
        <ele>311</ele>
        <time>2018-02-21T12:57:56Z</time>
      </trkpt>
      <trkpt lat="44.37805" lon="5.18838">
        <ele>311</ele>
        <time>2018-02-21T12:57:59Z</time>
      </trkpt>
      <trkpt lat="44.378" lon="5.18826">
        <ele>311</ele>
        <time>2018-02-21T12:58:01Z</time>
      </trkpt>
      <trkpt lat="44.37794" lon="5.18814">
        <ele>311</ele>
        <time>2018-02-21T12:58:03Z</time>
      </trkpt>
      <trkpt lat="44.37788" lon="5.18803">
        <ele>312</ele>
        <time>2018-02-21T12:58:05Z</time>
      </trkpt>
      <trkpt lat="44.37779" lon="5.18788">
        <ele>312</ele>
        <time>2018-02-21T12:58:08Z</time>
      </trkpt>
      <trkpt lat="44.37769" lon="5.18772">
        <ele>312</ele>
        <time>2018-02-21T12:58:11Z</time>
      </trkpt>
      <trkpt lat="44.37759" lon="5.18757">
        <ele>312</ele>
        <time>2018-02-21T12:58:14Z</time>
      </trkpt>
      <trkpt lat="44.3775" lon="5.18742">
        <ele>313</ele>
        <time>2018-02-21T12:58:17Z</time>
      </trkpt>
      <trkpt lat="44.37741" lon="5.18728">
        <ele>313</ele>
        <time>2018-02-21T12:58:20Z</time>
      </trkpt>
      <trkpt lat="44.37734" lon="5.18715">
        <ele>312</ele>
        <time>2018-02-21T12:58:23Z</time>
      </trkpt>
      <trkpt lat="44.37728" lon="5.18703">
        <ele>312</ele>
        <time>2018-02-21T12:58:26Z</time>
      </trkpt>
      <trkpt lat="44.37724" lon="5.18694">
        <ele>313</ele>
        <time>2018-02-21T12:58:28Z</time>
      </trkpt>
      <trkpt lat="44.37721" lon="5.18685">
        <ele>313</ele>
        <time>2018-02-21T12:58:30Z</time>
      </trkpt>
      <trkpt lat="44.37717" lon="5.18671">
        <ele>313</ele>
        <time>2018-02-21T12:58:33Z</time>
      </trkpt>
      <trkpt lat="44.37715" lon="5.18658">
        <ele>313</ele>
        <time>2018-02-21T12:58:36Z</time>
      </trkpt>
      <trkpt lat="44.37713" lon="5.18644">
        <ele>312</ele>
        <time>2018-02-21T12:58:39Z</time>
      </trkpt>
      <trkpt lat="44.37712" lon="5.18631">
        <ele>312</ele>
        <time>2018-02-21T12:58:42Z</time>
      </trkpt>
      <trkpt lat="44.37711" lon="5.18617">
        <ele>312</ele>
        <time>2018-02-21T12:58:45Z</time>
      </trkpt>
      <trkpt lat="44.3771" lon="5.18605">
        <ele>312</ele>
        <time>2018-02-21T12:58:48Z</time>
      </trkpt>
      <trkpt lat="44.37709" lon="5.18591">
        <ele>312</ele>
        <time>2018-02-21T12:58:51Z</time>
      </trkpt>
      <trkpt lat="44.37709" lon="5.18583">
        <ele>312</ele>
        <time>2018-02-21T12:58:53Z</time>
      </trkpt>
      <trkpt lat="44.37708" lon="5.18568">
        <ele>313</ele>
        <time>2018-02-21T12:58:56Z</time>
      </trkpt>
      <trkpt lat="44.37707" lon="5.18553">
        <ele>313</ele>
        <time>2018-02-21T12:58:59Z</time>
      </trkpt>
      <trkpt lat="44.37706" lon="5.18538">
        <ele>314</ele>
        <time>2018-02-21T12:59:02Z</time>
      </trkpt>
      <trkpt lat="44.37704" lon="5.18522">
        <ele>314</ele>
        <time>2018-02-21T12:59:05Z</time>
      </trkpt>
      <trkpt lat="44.37703" lon="5.18506">
        <ele>315</ele>
        <time>2018-02-21T12:59:08Z</time>
      </trkpt>
      <trkpt lat="44.37703" lon="5.1849">
        <ele>315</ele>
        <time>2018-02-21T12:59:11Z</time>
      </trkpt>
      <trkpt lat="44.37702" lon="5.18472">
        <ele>316</ele>
        <time>2018-02-21T12:59:14Z</time>
      </trkpt>
      <trkpt lat="44.37701" lon="5.18455">
        <ele>316</ele>
        <time>2018-02-21T12:59:17Z</time>
      </trkpt>
      <trkpt lat="44.377" lon="5.18443">
        <ele>316</ele>
        <time>2018-02-21T12:59:19Z</time>
      </trkpt>
      <trkpt lat="44.37698" lon="5.18431">
        <ele>316</ele>
        <time>2018-02-21T12:59:21Z</time>
      </trkpt>
      <trkpt lat="44.37695" lon="5.18414">
        <ele>317</ele>
        <time>2018-02-21T12:59:24Z</time>
      </trkpt>
      <trkpt lat="44.37691" lon="5.184">
        <ele>317</ele>
        <time>2018-02-21T12:59:27Z</time>
      </trkpt>
      <trkpt lat="44.37688" lon="5.18384">
        <ele>317</ele>
        <time>2018-02-21T12:59:30Z</time>
      </trkpt>
      <trkpt lat="44.37687" lon="5.18373">
        <ele>316</ele>
        <time>2018-02-21T12:59:32Z</time>
      </trkpt>
      <trkpt lat="44.37684" lon="5.18357">
        <ele>316</ele>
        <time>2018-02-21T12:59:35Z</time>
      </trkpt>
      <trkpt lat="44.3768" lon="5.18347">
        <ele>316</ele>
        <time>2018-02-21T12:59:37Z</time>
      </trkpt>
      <trkpt lat="44.37673" lon="5.18339">
        <ele>317</ele>
        <time>2018-02-21T12:59:39Z</time>
      </trkpt>
      <trkpt lat="44.37661" lon="5.18332">
        <ele>317</ele>
        <time>2018-02-21T12:59:42Z</time>
      </trkpt>
      <trkpt lat="44.37649" lon="5.18326">
        <ele>317</ele>
        <time>2018-02-21T12:59:45Z</time>
      </trkpt>
      <trkpt lat="44.37636" lon="5.18321">
        <ele>317</ele>
        <time>2018-02-21T12:59:48Z</time>
      </trkpt>
      <trkpt lat="44.37624" lon="5.18316">
        <ele>317</ele>
        <time>2018-02-21T12:59:51Z</time>
      </trkpt>
      <trkpt lat="44.37611" lon="5.18311">
        <ele>317</ele>
        <time>2018-02-21T12:59:54Z</time>
      </trkpt>
      <trkpt lat="44.37599" lon="5.18306">
        <ele>317</ele>
        <time>2018-02-21T12:59:57Z</time>
      </trkpt>
      <trkpt lat="44.37587" lon="5.183">
        <ele>317</ele>
        <time>2018-02-21T13:00:00Z</time>
      </trkpt>
      <trkpt lat="44.37575" lon="5.18296">
        <ele>318</ele>
        <time>2018-02-21T13:00:03Z</time>
      </trkpt>
      <trkpt lat="44.37567" lon="5.18293">
        <ele>319</ele>
        <time>2018-02-21T13:00:05Z</time>
      </trkpt>
      <trkpt lat="44.37559" lon="5.18291">
        <ele>320</ele>
        <time>2018-02-21T13:00:07Z</time>
      </trkpt>
      <trkpt lat="44.37551" lon="5.1829">
        <ele>320</ele>
        <time>2018-02-21T13:00:09Z</time>
      </trkpt>
      <trkpt lat="44.37539" lon="5.18294">
        <ele>320</ele>
        <time>2018-02-21T13:00:12Z</time>
      </trkpt>
      <trkpt lat="44.37531" lon="5.18297">
        <ele>321</ele>
        <time>2018-02-21T13:00:14Z</time>
      </trkpt>
      <trkpt lat="44.37524" lon="5.18299">
        <ele>321</ele>
        <time>2018-02-21T13:00:16Z</time>
      </trkpt>
      <trkpt lat="44.37513" lon="5.18302">
        <ele>322</ele>
        <time>2018-02-21T13:00:19Z</time>
      </trkpt>
      <trkpt lat="44.375" lon="5.18303">
        <ele>322</ele>
        <time>2018-02-21T13:00:22Z</time>
      </trkpt>
      <trkpt lat="44.37487" lon="5.18303">
        <ele>321</ele>
        <time>2018-02-21T13:00:25Z</time>
      </trkpt>
      <trkpt lat="44.37479" lon="5.18304">
        <ele>322</ele>
        <time>2018-02-21T13:00:27Z</time>
      </trkpt>
      <trkpt lat="44.37466" lon="5.18303">
        <ele>322</ele>
        <time>2018-02-21T13:00:30Z</time>
      </trkpt>
      <trkpt lat="44.37458" lon="5.18301">
        <ele>322</ele>
        <time>2018-02-21T13:00:32Z</time>
      </trkpt>
      <trkpt lat="44.37446" lon="5.18297">
        <ele>322</ele>
        <time>2018-02-21T13:00:35Z</time>
      </trkpt>
      <trkpt lat="44.37434" lon="5.18291">
        <ele>322</ele>
        <time>2018-02-21T13:00:38Z</time>
      </trkpt>
      <trkpt lat="44.37423" lon="5.18283">
        <ele>322</ele>
        <time>2018-02-21T13:00:41Z</time>
      </trkpt>
      <trkpt lat="44.37411" lon="5.18275">
        <ele>322</ele>
        <time>2018-02-21T13:00:44Z</time>
      </trkpt>
      <trkpt lat="44.374" lon="5.18267">
        <ele>321</ele>
        <time>2018-02-21T13:00:47Z</time>
      </trkpt>
      <trkpt lat="44.37393" lon="5.1826">
        <ele>321</ele>
        <time>2018-02-21T13:00:49Z</time>
      </trkpt>
      <trkpt lat="44.37384" lon="5.18248">
        <ele>320</ele>
        <time>2018-02-21T13:00:52Z</time>
      </trkpt>
      <trkpt lat="44.37377" lon="5.18232">
        <ele>320</ele>
        <time>2018-02-21T13:00:55Z</time>
      </trkpt>
      <trkpt lat="44.37373" lon="5.18215">
        <ele>321</ele>
        <time>2018-02-21T13:00:58Z</time>
      </trkpt>
      <trkpt lat="44.37371" lon="5.18204">
        <ele>321</ele>
        <time>2018-02-21T13:01:00Z</time>
      </trkpt>
      <trkpt lat="44.37366" lon="5.18189">
        <ele>323</ele>
        <time>2018-02-21T13:01:03Z</time>
      </trkpt>
      <trkpt lat="44.37361" lon="5.1818">
        <ele>323</ele>
        <time>2018-02-21T13:01:05Z</time>
      </trkpt>
      <trkpt lat="44.37352" lon="5.18167">
        <ele>325</ele>
        <time>2018-02-21T13:01:08Z</time>
      </trkpt>
      <trkpt lat="44.37341" lon="5.18158">
        <ele>326</ele>
        <time>2018-02-21T13:01:11Z</time>
      </trkpt>
      <trkpt lat="44.37333" lon="5.18153">
        <ele>326</ele>
        <time>2018-02-21T13:01:13Z</time>
      </trkpt>
      <trkpt lat="44.37325" lon="5.18148">
        <ele>327</ele>
        <time>2018-02-21T13:01:15Z</time>
      </trkpt>
      <trkpt lat="44.37314" lon="5.1814">
        <ele>327</ele>
        <time>2018-02-21T13:01:18Z</time>
      </trkpt>
      <trkpt lat="44.37301" lon="5.18131">
        <ele>328</ele>
        <time>2018-02-21T13:01:21Z</time>
      </trkpt>
      <trkpt lat="44.37289" lon="5.18123">
        <ele>328</ele>
        <time>2018-02-21T13:01:24Z</time>
      </trkpt>
      <trkpt lat="44.37277" lon="5.18116">
        <ele>328</ele>
        <time>2018-02-21T13:01:27Z</time>
      </trkpt>
      <trkpt lat="44.37265" lon="5.18109">
        <ele>328</ele>
        <time>2018-02-21T13:01:30Z</time>
      </trkpt>
      <trkpt lat="44.37259" lon="5.18104">
        <ele>329</ele>
        <time>2018-02-21T13:01:32Z</time>
      </trkpt>
      <trkpt lat="44.37247" lon="5.18097">
        <ele>329</ele>
        <time>2018-02-21T13:01:35Z</time>
      </trkpt>
      <trkpt lat="44.37236" lon="5.18088">
        <ele>329</ele>
        <time>2018-02-21T13:01:38Z</time>
      </trkpt>
      <trkpt lat="44.37229" lon="5.18083">
        <ele>329</ele>
        <time>2018-02-21T13:01:40Z</time>
      </trkpt>
      <trkpt lat="44.37219" lon="5.18072">
        <ele>329</ele>
        <time>2018-02-21T13:01:43Z</time>
      </trkpt>
      <trkpt lat="44.37209" lon="5.18061">
        <ele>330</ele>
        <time>2018-02-21T13:01:46Z</time>
      </trkpt>
      <trkpt lat="44.37198" lon="5.18052">
        <ele>330</ele>
        <time>2018-02-21T13:01:49Z</time>
      </trkpt>
      <trkpt lat="44.37191" lon="5.18047">
        <ele>330</ele>
        <time>2018-02-21T13:01:51Z</time>
      </trkpt>
      <trkpt lat="44.37179" lon="5.18041">
        <ele>331</ele>
        <time>2018-02-21T13:01:54Z</time>
      </trkpt>
      <trkpt lat="44.37171" lon="5.18041">
        <ele>331</ele>
        <time>2018-02-21T13:01:56Z</time>
      </trkpt>
      <trkpt lat="44.37158" lon="5.18046">
        <ele>332</ele>
        <time>2018-02-21T13:01:59Z</time>
      </trkpt>
      <trkpt lat="44.37146" lon="5.18047">
        <ele>332</ele>
        <time>2018-02-21T13:02:02Z</time>
      </trkpt>
      <trkpt lat="44.37138" lon="5.18047">
        <ele>333</ele>
        <time>2018-02-21T13:02:04Z</time>
      </trkpt>
      <trkpt lat="44.37125" lon="5.18044">
        <ele>332</ele>
        <time>2018-02-21T13:02:07Z</time>
      </trkpt>
      <trkpt lat="44.37114" lon="5.18037">
        <ele>333</ele>
        <time>2018-02-21T13:02:10Z</time>
      </trkpt>
      <trkpt lat="44.37103" lon="5.18028">
        <ele>333</ele>
        <time>2018-02-21T13:02:13Z</time>
      </trkpt>
      <trkpt lat="44.37093" lon="5.1802">
        <ele>333</ele>
        <time>2018-02-21T13:02:16Z</time>
      </trkpt>
      <trkpt lat="44.37082" lon="5.18015">
        <ele>333</ele>
        <time>2018-02-21T13:02:19Z</time>
      </trkpt>
      <trkpt lat="44.37072" lon="5.1801">
        <ele>333</ele>
        <time>2018-02-21T13:02:22Z</time>
      </trkpt>
      <trkpt lat="44.37061" lon="5.18004">
        <ele>334</ele>
        <time>2018-02-21T13:02:25Z</time>
      </trkpt>
      <trkpt lat="44.37051" lon="5.17997">
        <ele>335</ele>
        <time>2018-02-21T13:02:28Z</time>
      </trkpt>
      <trkpt lat="44.37045" lon="5.17991">
        <ele>336</ele>
        <time>2018-02-21T13:02:30Z</time>
      </trkpt>
      <trkpt lat="44.37035" lon="5.17984">
        <ele>336</ele>
        <time>2018-02-21T13:02:33Z</time>
      </trkpt>
      <trkpt lat="44.37025" lon="5.17978">
        <ele>337</ele>
        <time>2018-02-21T13:02:36Z</time>
      </trkpt>
      <trkpt lat="44.37018" lon="5.17974">
        <ele>337</ele>
        <time>2018-02-21T13:02:38Z</time>
      </trkpt>
      <trkpt lat="44.37012" lon="5.17969">
        <ele>337</ele>
        <time>2018-02-21T13:02:40Z</time>
      </trkpt>
      <trkpt lat="44.37002" lon="5.1796">
        <ele>338</ele>
        <time>2018-02-21T13:02:43Z</time>
      </trkpt>
      <trkpt lat="44.36996" lon="5.17955">
        <ele>338</ele>
        <time>2018-02-21T13:02:45Z</time>
      </trkpt>
      <trkpt lat="44.36989" lon="5.1795">
        <ele>339</ele>
        <time>2018-02-21T13:02:47Z</time>
      </trkpt>
      <trkpt lat="44.36978" lon="5.17945">
        <ele>339</ele>
        <time>2018-02-21T13:02:50Z</time>
      </trkpt>
      <trkpt lat="44.36971" lon="5.17943">
        <ele>339</ele>
        <time>2018-02-21T13:02:52Z</time>
      </trkpt>
      <trkpt lat="44.36959" lon="5.17941">
        <ele>339</ele>
        <time>2018-02-21T13:02:55Z</time>
      </trkpt>
      <trkpt lat="44.36952" lon="5.17939">
        <ele>340</ele>
        <time>2018-02-21T13:02:57Z</time>
      </trkpt>
      <trkpt lat="44.36941" lon="5.17938">
        <ele>340</ele>
        <time>2018-02-21T13:03:00Z</time>
      </trkpt>
      <trkpt lat="44.36934" lon="5.17937">
        <ele>340</ele>
        <time>2018-02-21T13:03:02Z</time>
      </trkpt>
      <trkpt lat="44.36922" lon="5.17935">
        <ele>340</ele>
        <time>2018-02-21T13:03:05Z</time>
      </trkpt>
      <trkpt lat="44.36914" lon="5.17933">
        <ele>341</ele>
        <time>2018-02-21T13:03:07Z</time>
      </trkpt>
      <trkpt lat="44.36903" lon="5.17926">
        <ele>342</ele>
        <time>2018-02-21T13:03:10Z</time>
      </trkpt>
      <trkpt lat="44.36897" lon="5.17921">
        <ele>342</ele>
        <time>2018-02-21T13:03:12Z</time>
      </trkpt>
      <trkpt lat="44.36891" lon="5.17916">
        <ele>342</ele>
        <time>2018-02-21T13:03:14Z</time>
      </trkpt>
      <trkpt lat="44.36881" lon="5.17908">
        <ele>342</ele>
        <time>2018-02-21T13:03:17Z</time>
      </trkpt>
      <trkpt lat="44.36876" lon="5.17903">
        <ele>343</ele>
        <time>2018-02-21T13:03:19Z</time>
      </trkpt>
      <trkpt lat="44.36867" lon="5.17895">
        <ele>344</ele>
        <time>2018-02-21T13:03:22Z</time>
      </trkpt>
      <trkpt lat="44.36861" lon="5.1789">
        <ele>344</ele>
        <time>2018-02-21T13:03:24Z</time>
      </trkpt>
      <trkpt lat="44.36852" lon="5.17884">
        <ele>345</ele>
        <time>2018-02-21T13:03:27Z</time>
      </trkpt>
      <trkpt lat="44.36845" lon="5.1788">
        <ele>345</ele>
        <time>2018-02-21T13:03:29Z</time>
      </trkpt>
      <trkpt lat="44.36838" lon="5.17878">
        <ele>345</ele>
        <time>2018-02-21T13:03:31Z</time>
      </trkpt>
      <trkpt lat="44.36826" lon="5.17878">
        <ele>346</ele>
        <time>2018-02-21T13:03:34Z</time>
      </trkpt>
      <trkpt lat="44.36818" lon="5.1788">
        <ele>346</ele>
        <time>2018-02-21T13:03:36Z</time>
      </trkpt>
      <trkpt lat="44.36808" lon="5.17885">
        <ele>346</ele>
        <time>2018-02-21T13:03:39Z</time>
      </trkpt>
      <trkpt lat="44.36797" lon="5.17891">
        <ele>347</ele>
        <time>2018-02-21T13:03:42Z</time>
      </trkpt>
      <trkpt lat="44.36787" lon="5.17896">
        <ele>347</ele>
        <time>2018-02-21T13:03:45Z</time>
      </trkpt>
      <trkpt lat="44.36775" lon="5.17902">
        <ele>348</ele>
        <time>2018-02-21T13:03:48Z</time>
      </trkpt>
      <trkpt lat="44.36764" lon="5.17908">
        <ele>349</ele>
        <time>2018-02-21T13:03:51Z</time>
      </trkpt>
      <trkpt lat="44.36757" lon="5.17913">
        <ele>349</ele>
        <time>2018-02-21T13:03:53Z</time>
      </trkpt>
      <trkpt lat="44.36746" lon="5.17923">
        <ele>349</ele>
        <time>2018-02-21T13:03:56Z</time>
      </trkpt>
      <trkpt lat="44.36739" lon="5.17931">
        <ele>349</ele>
        <time>2018-02-21T13:03:58Z</time>
      </trkpt>
      <trkpt lat="44.36733" lon="5.17941">
        <ele>350</ele>
        <time>2018-02-21T13:04:00Z</time>
      </trkpt>
      <trkpt lat="44.36726" lon="5.17955">
        <ele>351</ele>
        <time>2018-02-21T13:04:03Z</time>
      </trkpt>
      <trkpt lat="44.36723" lon="5.17965">
        <ele>351</ele>
        <time>2018-02-21T13:04:05Z</time>
      </trkpt>
      <trkpt lat="44.36718" lon="5.17974">
        <ele>352</ele>
        <time>2018-02-21T13:04:07Z</time>
      </trkpt>
      <trkpt lat="44.36709" lon="5.17984">
        <ele>351</ele>
        <time>2018-02-21T13:04:10Z</time>
      </trkpt>
      <trkpt lat="44.36702" lon="5.17989">
        <ele>352</ele>
        <time>2018-02-21T13:04:12Z</time>
      </trkpt>
      <trkpt lat="44.36695" lon="5.17992">
        <ele>352</ele>
        <time>2018-02-21T13:04:14Z</time>
      </trkpt>
      <trkpt lat="44.36684" lon="5.17995">
        <ele>352</ele>
        <time>2018-02-21T13:04:17Z</time>
      </trkpt>
      <trkpt lat="44.36676" lon="5.17996">
        <ele>352</ele>
        <time>2018-02-21T13:04:19Z</time>
      </trkpt>
      <trkpt lat="44.36668" lon="5.17995">
        <ele>352</ele>
        <time>2018-02-21T13:04:21Z</time>
      </trkpt>
      <trkpt lat="44.36657" lon="5.17988">
        <ele>352</ele>
        <time>2018-02-21T13:04:24Z</time>
      </trkpt>
      <trkpt lat="44.36646" lon="5.17978">
        <ele>352</ele>
        <time>2018-02-21T13:04:27Z</time>
      </trkpt>
      <trkpt lat="44.36639" lon="5.17971">
        <ele>352</ele>
        <time>2018-02-21T13:04:29Z</time>
      </trkpt>
      <trkpt lat="44.36628" lon="5.17962">
        <ele>352</ele>
        <time>2018-02-21T13:04:32Z</time>
      </trkpt>
      <trkpt lat="44.36616" lon="5.17954">
        <ele>353</ele>
        <time>2018-02-21T13:04:35Z</time>
      </trkpt>
      <trkpt lat="44.36604" lon="5.17946">
        <ele>353</ele>
        <time>2018-02-21T13:04:38Z</time>
      </trkpt>
      <trkpt lat="44.36592" lon="5.17938">
        <ele>353</ele>
        <time>2018-02-21T13:04:41Z</time>
      </trkpt>
      <trkpt lat="44.36584" lon="5.17934">
        <ele>354</ele>
        <time>2018-02-21T13:04:43Z</time>
      </trkpt>
      <trkpt lat="44.36575" lon="5.17931">
        <ele>354</ele>
        <time>2018-02-21T13:04:45Z</time>
      </trkpt>
      <trkpt lat="44.36562" lon="5.1793">
        <ele>355</ele>
        <time>2018-02-21T13:04:48Z</time>
      </trkpt>
      <trkpt lat="44.36548" lon="5.17931">
        <ele>355</ele>
        <time>2018-02-21T13:04:51Z</time>
      </trkpt>
      <trkpt lat="44.36535" lon="5.17932">
        <ele>355</ele>
        <time>2018-02-21T13:04:54Z</time>
      </trkpt>
      <trkpt lat="44.36526" lon="5.17934">
        <ele>355</ele>
        <time>2018-02-21T13:04:56Z</time>
      </trkpt>
      <trkpt lat="44.36514" lon="5.17941">
        <ele>355</ele>
        <time>2018-02-21T13:04:59Z</time>
      </trkpt>
      <trkpt lat="44.36502" lon="5.17948">
        <ele>356</ele>
        <time>2018-02-21T13:05:02Z</time>
      </trkpt>
      <trkpt lat="44.36489" lon="5.17953">
        <ele>356</ele>
        <time>2018-02-21T13:05:05Z</time>
      </trkpt>
      <trkpt lat="44.36477" lon="5.17955">
        <ele>357</ele>
        <time>2018-02-21T13:05:08Z</time>
      </trkpt>
      <trkpt lat="44.36464" lon="5.17958">
        <ele>357</ele>
        <time>2018-02-21T13:05:11Z</time>
      </trkpt>
      <trkpt lat="44.36451" lon="5.17959">
        <ele>358</ele>
        <time>2018-02-21T13:05:14Z</time>
      </trkpt>
      <trkpt lat="44.36442" lon="5.17959">
        <ele>359</ele>
        <time>2018-02-21T13:05:16Z</time>
      </trkpt>
      <trkpt lat="44.36433" lon="5.17959">
        <ele>359</ele>
        <time>2018-02-21T13:05:18Z</time>
      </trkpt>
      <trkpt lat="44.3642" lon="5.1796">
        <ele>360</ele>
        <time>2018-02-21T13:05:21Z</time>
      </trkpt>
      <trkpt lat="44.36406" lon="5.17959">
        <ele>359</ele>
        <time>2018-02-21T13:05:24Z</time>
      </trkpt>
      <trkpt lat="44.36396" lon="5.17958">
        <ele>360</ele>
        <time>2018-02-21T13:05:26Z</time>
      </trkpt>
      <trkpt lat="44.36387" lon="5.17958">
        <ele>360</ele>
        <time>2018-02-21T13:05:28Z</time>
      </trkpt>
      <trkpt lat="44.36374" lon="5.17957">
        <ele>360</ele>
        <time>2018-02-21T13:05:31Z</time>
      </trkpt>
      <trkpt lat="44.36361" lon="5.17957">
        <ele>360</ele>
        <time>2018-02-21T13:05:34Z</time>
      </trkpt>
      <trkpt lat="44.36348" lon="5.17953">
        <ele>361</ele>
        <time>2018-02-21T13:05:37Z</time>
      </trkpt>
      <trkpt lat="44.36335" lon="5.17948">
        <ele>361</ele>
        <time>2018-02-21T13:05:40Z</time>
      </trkpt>
      <trkpt lat="44.36323" lon="5.17941">
        <ele>361</ele>
        <time>2018-02-21T13:05:43Z</time>
      </trkpt>
      <trkpt lat="44.3631" lon="5.17935">
        <ele>362</ele>
        <time>2018-02-21T13:05:46Z</time>
      </trkpt>
      <trkpt lat="44.36296" lon="5.17932">
        <ele>363</ele>
        <time>2018-02-21T13:05:49Z</time>
      </trkpt>
      <trkpt lat="44.36283" lon="5.17933">
        <ele>364</ele>
        <time>2018-02-21T13:05:52Z</time>
      </trkpt>
      <trkpt lat="44.36274" lon="5.17934">
        <ele>364</ele>
        <time>2018-02-21T13:05:54Z</time>
      </trkpt>
      <trkpt lat="44.36265" lon="5.17932">
        <ele>364</ele>
        <time>2018-02-21T13:05:56Z</time>
      </trkpt>
      <trkpt lat="44.36255" lon="5.17921">
        <ele>364</ele>
        <time>2018-02-21T13:05:59Z</time>
      </trkpt>
      <trkpt lat="44.36249" lon="5.17912">
        <ele>364</ele>
        <time>2018-02-21T13:06:01Z</time>
      </trkpt>
      <trkpt lat="44.36242" lon="5.17904">
        <ele>365</ele>
        <time>2018-02-21T13:06:03Z</time>
      </trkpt>
      <trkpt lat="44.36231" lon="5.17896">
        <ele>366</ele>
        <time>2018-02-21T13:06:06Z</time>
      </trkpt>
      <trkpt lat="44.36218" lon="5.17891">
        <ele>367</ele>
        <time>2018-02-21T13:06:09Z</time>
      </trkpt>
      <trkpt lat="44.36206" lon="5.17887">
        <ele>368</ele>
        <time>2018-02-21T13:06:12Z</time>
      </trkpt>
      <trkpt lat="44.36197" lon="5.17884">
        <ele>368</ele>
        <time>2018-02-21T13:06:14Z</time>
      </trkpt>
      <trkpt lat="44.36188" lon="5.1788">
        <ele>369</ele>
        <time>2018-02-21T13:06:16Z</time>
      </trkpt>
      <trkpt lat="44.36176" lon="5.17874">
        <ele>369</ele>
        <time>2018-02-21T13:06:19Z</time>
      </trkpt>
      <trkpt lat="44.36163" lon="5.17869">
        <ele>370</ele>
        <time>2018-02-21T13:06:22Z</time>
      </trkpt>
      <trkpt lat="44.36155" lon="5.17867">
        <ele>370</ele>
        <time>2018-02-21T13:06:24Z</time>
      </trkpt>
      <trkpt lat="44.36147" lon="5.17865">
        <ele>370</ele>
        <time>2018-02-21T13:06:26Z</time>
      </trkpt>
      <trkpt lat="44.36134" lon="5.1786">
        <ele>371</ele>
        <time>2018-02-21T13:06:29Z</time>
      </trkpt>
      <trkpt lat="44.36126" lon="5.17856">
        <ele>372</ele>
        <time>2018-02-21T13:06:31Z</time>
      </trkpt>
      <trkpt lat="44.36114" lon="5.17852">
        <ele>372</ele>
        <time>2018-02-21T13:06:34Z</time>
      </trkpt>
      <trkpt lat="44.36106" lon="5.17851">
        <ele>373</ele>
        <time>2018-02-21T13:06:36Z</time>
      </trkpt>
      <trkpt lat="44.36097" lon="5.17851">
        <ele>373</ele>
        <time>2018-02-21T13:06:38Z</time>
      </trkpt>
      <trkpt lat="44.36085" lon="5.17855">
        <ele>373</ele>
        <time>2018-02-21T13:06:41Z</time>
      </trkpt>
      <trkpt lat="44.36078" lon="5.17861">
        <ele>374</ele>
        <time>2018-02-21T13:06:43Z</time>
      </trkpt>
      <trkpt lat="44.3607" lon="5.17873">
        <ele>375</ele>
        <time>2018-02-21T13:06:46Z</time>
      </trkpt>
      <trkpt lat="44.36065" lon="5.17887">
        <ele>376</ele>
        <time>2018-02-21T13:06:49Z</time>
      </trkpt>
      <trkpt lat="44.36057" lon="5.17898">
        <ele>377</ele>
        <time>2018-02-21T13:06:52Z</time>
      </trkpt>
      <trkpt lat="44.3605" lon="5.17903">
        <ele>377</ele>
        <time>2018-02-21T13:06:54Z</time>
      </trkpt>
      <trkpt lat="44.3604" lon="5.17906">
        <ele>378</ele>
        <time>2018-02-21T13:06:57Z</time>
      </trkpt>
      <trkpt lat="44.36034" lon="5.17901">
        <ele>379</ele>
        <time>2018-02-21T13:06:59Z</time>
      </trkpt>
      <trkpt lat="44.36027" lon="5.1789">
        <ele>380</ele>
        <time>2018-02-21T13:07:02Z</time>
      </trkpt>
      <trkpt lat="44.36027" lon="5.17876">
        <ele>381</ele>
        <time>2018-02-21T13:07:05Z</time>
      </trkpt>
      <trkpt lat="44.36029" lon="5.17863">
        <ele>381</ele>
        <time>2018-02-21T13:07:08Z</time>
      </trkpt>
      <trkpt lat="44.3603" lon="5.17849">
        <ele>382</ele>
        <time>2018-02-21T13:07:11Z</time>
      </trkpt>
      <trkpt lat="44.36026" lon="5.17836">
        <ele>382</ele>
        <time>2018-02-21T13:07:14Z</time>
      </trkpt>
      <trkpt lat="44.3602" lon="5.17829">
        <ele>382</ele>
        <time>2018-02-21T13:07:16Z</time>
      </trkpt>
      <trkpt lat="44.36014" lon="5.17822">
        <ele>382</ele>
        <time>2018-02-21T13:07:18Z</time>
      </trkpt>
      <trkpt lat="44.36007" lon="5.17817">
        <ele>382</ele>
        <time>2018-02-21T13:07:20Z</time>
      </trkpt>
      <trkpt lat="44.35997" lon="5.17809">
        <ele>382</ele>
        <time>2018-02-21T13:07:23Z</time>
      </trkpt>
      <trkpt lat="44.35988" lon="5.178">
        <ele>383</ele>
        <time>2018-02-21T13:07:26Z</time>
      </trkpt>
      <trkpt lat="44.3598" lon="5.17792">
        <ele>384</ele>
        <time>2018-02-21T13:07:29Z</time>
      </trkpt>
      <trkpt lat="44.35974" lon="5.17786">
        <ele>384</ele>
        <time>2018-02-21T13:07:31Z</time>
      </trkpt>
      <trkpt lat="44.35965" lon="5.17777">
        <ele>385</ele>
        <time>2018-02-21T13:07:34Z</time>
      </trkpt>
      <trkpt lat="44.35957" lon="5.17768">
        <ele>386</ele>
        <time>2018-02-21T13:07:37Z</time>
      </trkpt>
      <trkpt lat="44.35952" lon="5.17762">
        <ele>386</ele>
        <time>2018-02-21T13:07:39Z</time>
      </trkpt>
      <trkpt lat="44.35943" lon="5.17755">
        <ele>386</ele>
        <time>2018-02-21T13:07:42Z</time>
      </trkpt>
      <trkpt lat="44.35936" lon="5.1775">
        <ele>387</ele>
        <time>2018-02-21T13:07:44Z</time>
      </trkpt>
      <trkpt lat="44.35926" lon="5.17742">
        <ele>388</ele>
        <time>2018-02-21T13:07:47Z</time>
      </trkpt>
      <trkpt lat="44.35915" lon="5.17737">
        <ele>389</ele>
        <time>2018-02-21T13:07:50Z</time>
      </trkpt>
      <trkpt lat="44.35908" lon="5.17733">
        <ele>389</ele>
        <time>2018-02-21T13:07:52Z</time>
      </trkpt>
      <trkpt lat="44.35896" lon="5.17729">
        <ele>390</ele>
        <time>2018-02-21T13:07:55Z</time>
      </trkpt>
      <trkpt lat="44.35887" lon="5.17728">
        <ele>390</ele>
        <time>2018-02-21T13:07:57Z</time>
      </trkpt>
      <trkpt lat="44.35873" lon="5.17726">
        <ele>391</ele>
        <time>2018-02-21T13:08:00Z</time>
      </trkpt>
      <trkpt lat="44.3586" lon="5.17726">
        <ele>391</ele>
        <time>2018-02-21T13:08:03Z</time>
      </trkpt>
      <trkpt lat="44.35848" lon="5.17728">
        <ele>391</ele>
        <time>2018-02-21T13:08:06Z</time>
      </trkpt>
      <trkpt lat="44.35841" lon="5.17732">
        <ele>392</ele>
        <time>2018-02-21T13:08:08Z</time>
      </trkpt>
      <trkpt lat="44.35834" lon="5.17737">
        <ele>392</ele>
        <time>2018-02-21T13:08:10Z</time>
      </trkpt>
      <trkpt lat="44.35824" lon="5.17744">
        <ele>392</ele>
        <time>2018-02-21T13:08:13Z</time>
      </trkpt>
      <trkpt lat="44.35817" lon="5.17748">
        <ele>393</ele>
        <time>2018-02-21T13:08:15Z</time>
      </trkpt>
      <trkpt lat="44.35804" lon="5.17748">
        <ele>394</ele>
        <time>2018-02-21T13:08:18Z</time>
      </trkpt>
      <trkpt lat="44.35797" lon="5.17747">
        <ele>395</ele>
        <time>2018-02-21T13:08:20Z</time>
      </trkpt>
      <trkpt lat="44.35784" lon="5.17746">
        <ele>396</ele>
        <time>2018-02-21T13:08:23Z</time>
      </trkpt>
      <trkpt lat="44.3577" lon="5.17747">
        <ele>396</ele>
        <time>2018-02-21T13:08:26Z</time>
      </trkpt>
      <trkpt lat="44.35757" lon="5.17751">
        <ele>396</ele>
        <time>2018-02-21T13:08:29Z</time>
      </trkpt>
      <trkpt lat="44.35744" lon="5.17752">
        <ele>397</ele>
        <time>2018-02-21T13:08:32Z</time>
      </trkpt>
      <trkpt lat="44.35735" lon="5.17753">
        <ele>397</ele>
        <time>2018-02-21T13:08:34Z</time>
      </trkpt>
      <trkpt lat="44.35727" lon="5.17753">
        <ele>397</ele>
        <time>2018-02-21T13:08:36Z</time>
      </trkpt>
      <trkpt lat="44.35714" lon="5.17751">
        <ele>397</ele>
        <time>2018-02-21T13:08:39Z</time>
      </trkpt>
      <trkpt lat="44.35703" lon="5.17746">
        <ele>397</ele>
        <time>2018-02-21T13:08:42Z</time>
      </trkpt>
      <trkpt lat="44.35692" lon="5.17737">
        <ele>398</ele>
        <time>2018-02-21T13:08:45Z</time>
      </trkpt>
      <trkpt lat="44.35682" lon="5.17727">
        <ele>399</ele>
        <time>2018-02-21T13:08:48Z</time>
      </trkpt>
      <trkpt lat="44.35671" lon="5.1772">
        <ele>399</ele>
        <time>2018-02-21T13:08:51Z</time>
      </trkpt>
      <trkpt lat="44.35661" lon="5.17715">
        <ele>400</ele>
        <time>2018-02-21T13:08:54Z</time>
      </trkpt>
      <trkpt lat="44.35653" lon="5.17714">
        <ele>401</ele>
        <time>2018-02-21T13:08:56Z</time>
      </trkpt>
      <trkpt lat="44.35645" lon="5.17715">
        <ele>402</ele>
        <time>2018-02-21T13:08:58Z</time>
      </trkpt>
      <trkpt lat="44.35633" lon="5.17719">
        <ele>402</ele>
        <time>2018-02-21T13:09:01Z</time>
      </trkpt>
      <trkpt lat="44.35627" lon="5.17724">
        <ele>403</ele>
        <time>2018-02-21T13:09:03Z</time>
      </trkpt>
      <trkpt lat="44.35619" lon="5.17731">
        <ele>404</ele>
        <time>2018-02-21T13:09:06Z</time>
      </trkpt>
      <trkpt lat="44.3561" lon="5.1774">
        <ele>404</ele>
        <time>2018-02-21T13:09:09Z</time>
      </trkpt>
      <trkpt lat="44.35601" lon="5.17749">
        <ele>405</ele>
        <time>2018-02-21T13:09:12Z</time>
      </trkpt>
      <trkpt lat="44.3559" lon="5.17757">
        <ele>406</ele>
        <time>2018-02-21T13:09:15Z</time>
      </trkpt>
      <trkpt lat="44.35583" lon="5.17761">
        <ele>407</ele>
        <time>2018-02-21T13:09:17Z</time>
      </trkpt>
      <trkpt lat="44.35575" lon="5.17764">
        <ele>407</ele>
        <time>2018-02-21T13:09:19Z</time>
      </trkpt>
      <trkpt lat="44.35567" lon="5.17766">
        <ele>408</ele>
        <time>2018-02-21T13:09:21Z</time>
      </trkpt>
      <trkpt lat="44.35555" lon="5.17767">
        <ele>409</ele>
        <time>2018-02-21T13:09:24Z</time>
      </trkpt>
      <trkpt lat="44.35543" lon="5.17766">
        <ele>409</ele>
        <time>2018-02-21T13:09:27Z</time>
      </trkpt>
      <trkpt lat="44.35533" lon="5.17765">
        <ele>409</ele>
        <time>2018-02-21T13:09:29Z</time>
      </trkpt>
      <trkpt lat="44.35525" lon="5.17763">
        <ele>409</ele>
        <time>2018-02-21T13:09:31Z</time>
      </trkpt>
      <trkpt lat="44.35517" lon="5.17761">
        <ele>409</ele>
        <time>2018-02-21T13:09:33Z</time>
      </trkpt>
      <trkpt lat="44.35506" lon="5.17759">
        <ele>409</ele>
        <time>2018-02-21T13:09:36Z</time>
      </trkpt>
      <trkpt lat="44.35497" lon="5.1776">
        <ele>409</ele>
        <time>2018-02-21T13:09:38Z</time>
      </trkpt>
      <trkpt lat="44.35487" lon="5.17761">
        <ele>409</ele>
        <time>2018-02-21T13:09:40Z</time>
      </trkpt>
      <trkpt lat="44.35476" lon="5.17762">
        <ele>409</ele>
        <time>2018-02-21T13:09:42Z</time>
      </trkpt>
      <trkpt lat="44.35461" lon="5.17763">
        <ele>409</ele>
        <time>2018-02-21T13:09:45Z</time>
      </trkpt>
      <trkpt lat="44.35453" lon="5.17762">
        <ele>409</ele>
        <time>2018-02-21T13:09:47Z</time>
      </trkpt>
      <trkpt lat="44.3544" lon="5.17758">
        <ele>410</ele>
        <time>2018-02-21T13:09:50Z</time>
      </trkpt>
      <trkpt lat="44.35432" lon="5.17747">
        <ele>411</ele>
        <time>2018-02-21T13:09:53Z</time>
      </trkpt>
      <trkpt lat="44.35426" lon="5.17735">
        <ele>412</ele>
        <time>2018-02-21T13:09:56Z</time>
      </trkpt>
      <trkpt lat="44.35419" lon="5.17724">
        <ele>413</ele>
        <time>2018-02-21T13:09:59Z</time>
      </trkpt>
      <trkpt lat="44.35412" lon="5.17718">
        <ele>414</ele>
        <time>2018-02-21T13:10:01Z</time>
      </trkpt>
      <trkpt lat="44.35405" lon="5.17712">
        <ele>415</ele>
        <time>2018-02-21T13:10:03Z</time>
      </trkpt>
      <trkpt lat="44.35396" lon="5.17708">
        <ele>415</ele>
        <time>2018-02-21T13:10:05Z</time>
      </trkpt>
      <trkpt lat="44.35383" lon="5.17703">
        <ele>415</ele>
        <time>2018-02-21T13:10:08Z</time>
      </trkpt>
      <trkpt lat="44.35369" lon="5.17699">
        <ele>416</ele>
        <time>2018-02-21T13:10:11Z</time>
      </trkpt>
      <trkpt lat="44.35353" lon="5.17697">
        <ele>416</ele>
        <time>2018-02-21T13:10:14Z</time>
      </trkpt>
      <trkpt lat="44.35336" lon="5.17696">
        <ele>416</ele>
        <time>2018-02-21T13:10:17Z</time>
      </trkpt>
      <trkpt lat="44.35319" lon="5.17696">
        <ele>415</ele>
        <time>2018-02-21T13:10:20Z</time>
      </trkpt>
      <trkpt lat="44.35302" lon="5.17698">
        <ele>415</ele>
        <time>2018-02-21T13:10:23Z</time>
      </trkpt>
      <trkpt lat="44.35283" lon="5.17699">
        <ele>414</ele>
        <time>2018-02-21T13:10:26Z</time>
      </trkpt>
      <trkpt lat="44.35262" lon="5.17697">
        <ele>414</ele>
        <time>2018-02-21T13:10:29Z</time>
      </trkpt>
      <trkpt lat="44.35249" lon="5.17695">
        <ele>414</ele>
        <time>2018-02-21T13:10:31Z</time>
      </trkpt>
      <trkpt lat="44.35229" lon="5.17689">
        <ele>414</ele>
        <time>2018-02-21T13:10:34Z</time>
      </trkpt>
      <trkpt lat="44.3521" lon="5.17682">
        <ele>413</ele>
        <time>2018-02-21T13:10:37Z</time>
      </trkpt>
      <trkpt lat="44.35189" lon="5.17674">
        <ele>413</ele>
        <time>2018-02-21T13:10:40Z</time>
      </trkpt>
      <trkpt lat="44.3517" lon="5.17666">
        <ele>413</ele>
        <time>2018-02-21T13:10:43Z</time>
      </trkpt>
      <trkpt lat="44.35152" lon="5.17659">
        <ele>413</ele>
        <time>2018-02-21T13:10:46Z</time>
      </trkpt>
      <trkpt lat="44.35135" lon="5.17653">
        <ele>413</ele>
        <time>2018-02-21T13:10:49Z</time>
      </trkpt>
      <trkpt lat="44.35118" lon="5.17656">
        <ele>413</ele>
        <time>2018-02-21T13:10:52Z</time>
      </trkpt>
      <trkpt lat="44.35108" lon="5.17659">
        <ele>414</ele>
        <time>2018-02-21T13:10:54Z</time>
      </trkpt>
      <trkpt lat="44.35093" lon="5.17665">
        <ele>415</ele>
        <time>2018-02-21T13:10:57Z</time>
      </trkpt>
      <trkpt lat="44.35083" lon="5.17669">
        <ele>416</ele>
        <time>2018-02-21T13:10:59Z</time>
      </trkpt>
      <trkpt lat="44.3507" lon="5.17675">
        <ele>417</ele>
        <time>2018-02-21T13:11:02Z</time>
      </trkpt>
      <trkpt lat="44.3506" lon="5.17678">
        <ele>418</ele>
        <time>2018-02-21T13:11:04Z</time>
      </trkpt>
      <trkpt lat="44.35051" lon="5.17682">
        <ele>418</ele>
        <time>2018-02-21T13:11:06Z</time>
      </trkpt>
      <trkpt lat="44.35042" lon="5.17686">
        <ele>418</ele>
        <time>2018-02-21T13:11:08Z</time>
      </trkpt>
      <trkpt lat="44.35033" lon="5.1769">
        <ele>418</ele>
        <time>2018-02-21T13:11:10Z</time>
      </trkpt>
      <trkpt lat="44.35025" lon="5.17693">
        <ele>419</ele>
        <time>2018-02-21T13:11:12Z</time>
      </trkpt>
      <trkpt lat="44.35012" lon="5.17698">
        <ele>420</ele>
        <time>2018-02-21T13:11:15Z</time>
      </trkpt>
      <trkpt lat="44.35004" lon="5.17702">
        <ele>420</ele>
        <time>2018-02-21T13:11:17Z</time>
      </trkpt>
      <trkpt lat="44.34991" lon="5.17707">
        <ele>421</ele>
        <time>2018-02-21T13:11:20Z</time>
      </trkpt>
      <trkpt lat="44.34983" lon="5.17709">
        <ele>421</ele>
        <time>2018-02-21T13:11:22Z</time>
      </trkpt>
      <trkpt lat="44.34975" lon="5.1771">
        <ele>421</ele>
        <time>2018-02-21T13:11:24Z</time>
      </trkpt>
      <trkpt lat="44.34962" lon="5.17708">
        <ele>422</ele>
        <time>2018-02-21T13:11:27Z</time>
      </trkpt>
      <trkpt lat="44.34951" lon="5.17705">
        <ele>422</ele>
        <time>2018-02-21T13:11:30Z</time>
      </trkpt>
      <trkpt lat="44.34944" lon="5.17701">
        <ele>423</ele>
        <time>2018-02-21T13:11:32Z</time>
      </trkpt>
      <trkpt lat="44.34936" lon="5.17698">
        <ele>423</ele>
        <time>2018-02-21T13:11:34Z</time>
      </trkpt>
      <trkpt lat="44.34925" lon="5.17692">
        <ele>424</ele>
        <time>2018-02-21T13:11:37Z</time>
      </trkpt>
      <trkpt lat="44.34914" lon="5.17687">
        <ele>426</ele>
        <time>2018-02-21T13:11:40Z</time>
      </trkpt>
      <trkpt lat="44.34903" lon="5.1768">
        <ele>427</ele>
        <time>2018-02-21T13:11:43Z</time>
      </trkpt>
      <trkpt lat="44.34893" lon="5.17673">
        <ele>427</ele>
        <time>2018-02-21T13:11:46Z</time>
      </trkpt>
      <trkpt lat="44.34881" lon="5.17668">
        <ele>428</ele>
        <time>2018-02-21T13:11:49Z</time>
      </trkpt>
      <trkpt lat="44.34874" lon="5.17664">
        <ele>429</ele>
        <time>2018-02-21T13:11:51Z</time>
      </trkpt>
      <trkpt lat="44.34863" lon="5.1766">
        <ele>430</ele>
        <time>2018-02-21T13:11:54Z</time>
      </trkpt>
      <trkpt lat="44.34853" lon="5.17657">
        <ele>430</ele>
        <time>2018-02-21T13:11:57Z</time>
      </trkpt>
      <trkpt lat="44.34847" lon="5.17655">
        <ele>431</ele>
        <time>2018-02-21T13:11:59Z</time>
      </trkpt>
      <trkpt lat="44.3484" lon="5.17652">
        <ele>431</ele>
        <time>2018-02-21T13:12:01Z</time>
      </trkpt>
      <trkpt lat="44.34831" lon="5.17649">
        <ele>432</ele>
        <time>2018-02-21T13:12:04Z</time>
      </trkpt>
      <trkpt lat="44.34821" lon="5.17648">
        <ele>432</ele>
        <time>2018-02-21T13:12:07Z</time>
      </trkpt>
      <trkpt lat="44.34811" lon="5.17646">
        <ele>433</ele>
        <time>2018-02-21T13:12:10Z</time>
      </trkpt>
      <trkpt lat="44.34805" lon="5.17645">
        <ele>433</ele>
        <time>2018-02-21T13:12:12Z</time>
      </trkpt>
      <trkpt lat="44.34796" lon="5.17643">
        <ele>434</ele>
        <time>2018-02-21T13:12:15Z</time>
      </trkpt>
      <trkpt lat="44.34787" lon="5.17642">
        <ele>435</ele>
        <time>2018-02-21T13:12:18Z</time>
      </trkpt>
      <trkpt lat="44.34777" lon="5.1764">
        <ele>436</ele>
        <time>2018-02-21T13:12:21Z</time>
      </trkpt>
      <trkpt lat="44.34771" lon="5.17639">
        <ele>437</ele>
        <time>2018-02-21T13:12:23Z</time>
      </trkpt>
      <trkpt lat="44.34761" lon="5.17638">
        <ele>437</ele>
        <time>2018-02-21T13:12:26Z</time>
      </trkpt>
      <trkpt lat="44.34755" lon="5.17638">
        <ele>438</ele>
        <time>2018-02-21T13:12:28Z</time>
      </trkpt>
      <trkpt lat="44.34745" lon="5.17638">
        <ele>438</ele>
        <time>2018-02-21T13:12:31Z</time>
      </trkpt>
      <trkpt lat="44.34736" lon="5.17639">
        <ele>439</ele>
        <time>2018-02-21T13:12:34Z</time>
      </trkpt>
      <trkpt lat="44.34726" lon="5.17641">
        <ele>440</ele>
        <time>2018-02-21T13:12:37Z</time>
      </trkpt>
      <trkpt lat="44.34714" lon="5.17642">
        <ele>440</ele>
        <time>2018-02-21T13:12:40Z</time>
      </trkpt>
      <trkpt lat="44.34707" lon="5.17644">
        <ele>440</ele>
        <time>2018-02-21T13:12:42Z</time>
      </trkpt>
      <trkpt lat="44.34696" lon="5.17647">
        <ele>439</ele>
        <time>2018-02-21T13:12:45Z</time>
      </trkpt>
      <trkpt lat="44.34683" lon="5.17649">
        <ele>440</ele>
        <time>2018-02-21T13:12:48Z</time>
      </trkpt>
      <trkpt lat="44.34675" lon="5.1765">
        <ele>441</ele>
        <time>2018-02-21T13:12:50Z</time>
      </trkpt>
      <trkpt lat="44.34666" lon="5.17652">
        <ele>442</ele>
        <time>2018-02-21T13:12:52Z</time>
      </trkpt>
      <trkpt lat="44.34653" lon="5.17653">
        <ele>442</ele>
        <time>2018-02-21T13:12:55Z</time>
      </trkpt>
      <trkpt lat="44.34645" lon="5.17654">
        <ele>442</ele>
        <time>2018-02-21T13:12:57Z</time>
      </trkpt>
      <trkpt lat="44.34631" lon="5.17655">
        <ele>442</ele>
        <time>2018-02-21T13:13:00Z</time>
      </trkpt>
      <trkpt lat="44.34621" lon="5.17656">
        <ele>442</ele>
        <time>2018-02-21T13:13:02Z</time>
      </trkpt>
      <trkpt lat="44.34608" lon="5.17658">
        <ele>442</ele>
        <time>2018-02-21T13:13:05Z</time>
      </trkpt>
      <trkpt lat="44.34594" lon="5.17659">
        <ele>441</ele>
        <time>2018-02-21T13:13:08Z</time>
      </trkpt>
      <trkpt lat="44.34579" lon="5.17662">
        <ele>442</ele>
        <time>2018-02-21T13:13:11Z</time>
      </trkpt>
      <trkpt lat="44.34565" lon="5.17668">
        <ele>441</ele>
        <time>2018-02-21T13:13:14Z</time>
      </trkpt>
      <trkpt lat="44.3455" lon="5.17674">
        <ele>441</ele>
        <time>2018-02-21T13:13:17Z</time>
      </trkpt>
      <trkpt lat="44.34537" lon="5.17681">
        <ele>440</ele>
        <time>2018-02-21T13:13:20Z</time>
      </trkpt>
      <trkpt lat="44.34523" lon="5.17686">
        <ele>441</ele>
        <time>2018-02-21T13:13:23Z</time>
      </trkpt>
      <trkpt lat="44.34507" lon="5.17688">
        <ele>441</ele>
        <time>2018-02-21T13:13:26Z</time>
      </trkpt>
      <trkpt lat="44.34497" lon="5.17685">
        <ele>441</ele>
        <time>2018-02-21T13:13:28Z</time>
      </trkpt>
      <trkpt lat="44.34485" lon="5.17675">
        <ele>441</ele>
        <time>2018-02-21T13:13:31Z</time>
      </trkpt>
      <trkpt lat="44.34478" lon="5.17666">
        <ele>441</ele>
        <time>2018-02-21T13:13:33Z</time>
      </trkpt>
      <trkpt lat="44.34471" lon="5.17659">
        <ele>442</ele>
        <time>2018-02-21T13:13:35Z</time>
      </trkpt>
      <trkpt lat="44.3446" lon="5.17652">
        <ele>442</ele>
        <time>2018-02-21T13:13:38Z</time>
      </trkpt>
      <trkpt lat="44.34446" lon="5.17649">
        <ele>443</ele>
        <time>2018-02-21T13:13:41Z</time>
      </trkpt>
      <trkpt lat="44.34434" lon="5.17647">
        <ele>444</ele>
        <time>2018-02-21T13:13:44Z</time>
      </trkpt>
      <trkpt lat="44.34426" lon="5.17644">
        <ele>444</ele>
        <time>2018-02-21T13:13:46Z</time>
      </trkpt>
      <trkpt lat="44.34414" lon="5.17637">
        <ele>445</ele>
        <time>2018-02-21T13:13:49Z</time>
      </trkpt>
      <trkpt lat="44.34402" lon="5.17632">
        <ele>446</ele>
        <time>2018-02-21T13:13:52Z</time>
      </trkpt>
      <trkpt lat="44.34393" lon="5.17632">
        <ele>445</ele>
        <time>2018-02-21T13:13:54Z</time>
      </trkpt>
      <trkpt lat="44.34384" lon="5.17633">
        <ele>446</ele>
        <time>2018-02-21T13:13:56Z</time>
      </trkpt>
      <trkpt lat="44.34375" lon="5.17635">
        <ele>446</ele>
        <time>2018-02-21T13:13:58Z</time>
      </trkpt>
      <trkpt lat="44.34362" lon="5.17638">
        <ele>446</ele>
        <time>2018-02-21T13:14:01Z</time>
      </trkpt>
      <trkpt lat="44.34349" lon="5.17641">
        <ele>447</ele>
        <time>2018-02-21T13:14:04Z</time>
      </trkpt>
      <trkpt lat="44.34337" lon="5.17643">
        <ele>448</ele>
        <time>2018-02-21T13:14:07Z</time>
      </trkpt>
      <trkpt lat="44.34326" lon="5.17644">
        <ele>448</ele>
        <time>2018-02-21T13:14:10Z</time>
      </trkpt>
      <trkpt lat="44.34317" lon="5.17645">
        <ele>448</ele>
        <time>2018-02-21T13:14:12Z</time>
      </trkpt>
      <trkpt lat="44.34306" lon="5.17651">
        <ele>449</ele>
        <time>2018-02-21T13:14:15Z</time>
      </trkpt>
      <trkpt lat="44.34296" lon="5.1766">
        <ele>449</ele>
        <time>2018-02-21T13:14:18Z</time>
      </trkpt>
      <trkpt lat="44.34286" lon="5.17671">
        <ele>450</ele>
        <time>2018-02-21T13:14:21Z</time>
      </trkpt>
      <trkpt lat="44.3428" lon="5.17678">
        <ele>451</ele>
        <time>2018-02-21T13:14:23Z</time>
      </trkpt>
      <trkpt lat="44.34269" lon="5.17687">
        <ele>451</ele>
        <time>2018-02-21T13:14:26Z</time>
      </trkpt>
      <trkpt lat="44.34257" lon="5.17693">
        <ele>452</ele>
        <time>2018-02-21T13:14:29Z</time>
      </trkpt>
      <trkpt lat="44.34244" lon="5.17697">
        <ele>453</ele>
        <time>2018-02-21T13:14:32Z</time>
      </trkpt>
      <trkpt lat="44.34231" lon="5.17699">
        <ele>453</ele>
        <time>2018-02-21T13:14:35Z</time>
      </trkpt>
      <trkpt lat="44.34222" lon="5.17699">
        <ele>453</ele>
        <time>2018-02-21T13:14:37Z</time>
      </trkpt>
      <trkpt lat="44.34214" lon="5.17697">
        <ele>454</ele>
        <time>2018-02-21T13:14:39Z</time>
      </trkpt>
      <trkpt lat="44.34201" lon="5.17695">
        <ele>454</ele>
        <time>2018-02-21T13:14:42Z</time>
      </trkpt>
      <trkpt lat="44.34193" lon="5.17694">
        <ele>454</ele>
        <time>2018-02-21T13:14:44Z</time>
      </trkpt>
      <trkpt lat="44.34181" lon="5.17692">
        <ele>454</ele>
        <time>2018-02-21T13:14:47Z</time>
      </trkpt>
      <trkpt lat="44.34172" lon="5.17692">
        <ele>454</ele>
        <time>2018-02-21T13:14:49Z</time>
      </trkpt>
      <trkpt lat="44.34159" lon="5.17692">
        <ele>455</ele>
        <time>2018-02-21T13:14:52Z</time>
      </trkpt>
      <trkpt lat="44.34151" lon="5.17692">
        <ele>455</ele>
        <time>2018-02-21T13:14:54Z</time>
      </trkpt>
      <trkpt lat="44.34143" lon="5.17693">
        <ele>455</ele>
        <time>2018-02-21T13:14:56Z</time>
      </trkpt>
      <trkpt lat="44.34135" lon="5.17693">
        <ele>455</ele>
        <time>2018-02-21T13:14:58Z</time>
      </trkpt>
      <trkpt lat="44.34127" lon="5.17694">
        <ele>455</ele>
        <time>2018-02-21T13:15:00Z</time>
      </trkpt>
      <trkpt lat="44.34119" lon="5.17693">
        <ele>456</ele>
        <time>2018-02-21T13:15:02Z</time>
      </trkpt>
      <trkpt lat="44.34106" lon="5.17692">
        <ele>456</ele>
        <time>2018-02-21T13:15:05Z</time>
      </trkpt>
      <trkpt lat="44.34093" lon="5.17692">
        <ele>458</ele>
        <time>2018-02-21T13:15:08Z</time>
      </trkpt>
      <trkpt lat="44.34084" lon="5.17695">
        <ele>458</ele>
        <time>2018-02-21T13:15:10Z</time>
      </trkpt>
      <trkpt lat="44.34072" lon="5.17703">
        <ele>458</ele>
        <time>2018-02-21T13:15:13Z</time>
      </trkpt>
      <trkpt lat="44.34064" lon="5.1771">
        <ele>458</ele>
        <time>2018-02-21T13:15:15Z</time>
      </trkpt>
      <trkpt lat="44.34051" lon="5.17713">
        <ele>458</ele>
        <time>2018-02-21T13:15:18Z</time>
      </trkpt>
      <trkpt lat="44.34038" lon="5.17709">
        <ele>458</ele>
        <time>2018-02-21T13:15:21Z</time>
      </trkpt>
      <trkpt lat="44.34025" lon="5.17707">
        <ele>458</ele>
        <time>2018-02-21T13:15:24Z</time>
      </trkpt>
      <trkpt lat="44.34016" lon="5.17708">
        <ele>458</ele>
        <time>2018-02-21T13:15:26Z</time>
      </trkpt>
      <trkpt lat="44.34003" lon="5.17713">
        <ele>459</ele>
        <time>2018-02-21T13:15:29Z</time>
      </trkpt>
      <trkpt lat="44.33989" lon="5.17717">
        <ele>459</ele>
        <time>2018-02-21T13:15:32Z</time>
      </trkpt>
      <trkpt lat="44.33976" lon="5.1772">
        <ele>460</ele>
        <time>2018-02-21T13:15:35Z</time>
      </trkpt>
      <trkpt lat="44.33967" lon="5.17722">
        <ele>460</ele>
        <time>2018-02-21T13:15:37Z</time>
      </trkpt>
      <trkpt lat="44.33953" lon="5.17724">
        <ele>460</ele>
        <time>2018-02-21T13:15:40Z</time>
      </trkpt>
      <trkpt lat="44.33939" lon="5.17728">
        <ele>461</ele>
        <time>2018-02-21T13:15:43Z</time>
      </trkpt>
      <trkpt lat="44.33925" lon="5.1773">
        <ele>461</ele>
        <time>2018-02-21T13:15:46Z</time>
      </trkpt>
      <trkpt lat="44.33917" lon="5.1773">
        <ele>462</ele>
        <time>2018-02-21T13:15:48Z</time>
      </trkpt>
      <trkpt lat="44.33904" lon="5.17726">
        <ele>462</ele>
        <time>2018-02-21T13:15:51Z</time>
      </trkpt>
      <trkpt lat="44.33892" lon="5.17719">
        <ele>462</ele>
        <time>2018-02-21T13:15:54Z</time>
      </trkpt>
      <trkpt lat="44.33881" lon="5.17712">
        <ele>463</ele>
        <time>2018-02-21T13:15:57Z</time>
      </trkpt>
      <trkpt lat="44.3387" lon="5.17706">
        <ele>464</ele>
        <time>2018-02-21T13:16:00Z</time>
      </trkpt>
      <trkpt lat="44.33858" lon="5.17702">
        <ele>466</ele>
        <time>2018-02-21T13:16:03Z</time>
      </trkpt>
      <trkpt lat="44.33847" lon="5.17698">
        <ele>466</ele>
        <time>2018-02-21T13:16:06Z</time>
      </trkpt>
      <trkpt lat="44.33836" lon="5.17693">
        <ele>467</ele>
        <time>2018-02-21T13:16:09Z</time>
      </trkpt>
      <trkpt lat="44.33824" lon="5.17689">
        <ele>467</ele>
        <time>2018-02-21T13:16:12Z</time>
      </trkpt>
      <trkpt lat="44.33817" lon="5.17687">
        <ele>467</ele>
        <time>2018-02-21T13:16:14Z</time>
      </trkpt>
      <trkpt lat="44.3381" lon="5.17684">
        <ele>468</ele>
        <time>2018-02-21T13:16:16Z</time>
      </trkpt>
      <trkpt lat="44.33799" lon="5.1768">
        <ele>468</ele>
        <time>2018-02-21T13:16:19Z</time>
      </trkpt>
      <trkpt lat="44.33791" lon="5.17677">
        <ele>469</ele>
        <time>2018-02-21T13:16:21Z</time>
      </trkpt>
      <trkpt lat="44.3378" lon="5.17676">
        <ele>470</ele>
        <time>2018-02-21T13:16:24Z</time>
      </trkpt>
      <trkpt lat="44.33772" lon="5.17676">
        <ele>470</ele>
        <time>2018-02-21T13:16:26Z</time>
      </trkpt>
      <trkpt lat="44.33764" lon="5.17676">
        <ele>470</ele>
        <time>2018-02-21T13:16:28Z</time>
      </trkpt>
      <trkpt lat="44.33756" lon="5.17677">
        <ele>471</ele>
        <time>2018-02-21T13:16:30Z</time>
      </trkpt>
      <trkpt lat="44.33744" lon="5.17678">
        <ele>471</ele>
        <time>2018-02-21T13:16:33Z</time>
      </trkpt>
      <trkpt lat="44.33736" lon="5.17679">
        <ele>471</ele>
        <time>2018-02-21T13:16:35Z</time>
      </trkpt>
      <trkpt lat="44.33723" lon="5.17681">
        <ele>472</ele>
        <time>2018-02-21T13:16:38Z</time>
      </trkpt>
      <trkpt lat="44.33716" lon="5.17683">
        <ele>472</ele>
        <time>2018-02-21T13:16:40Z</time>
      </trkpt>
      <trkpt lat="44.33704" lon="5.17686">
        <ele>472</ele>
        <time>2018-02-21T13:16:43Z</time>
      </trkpt>
      <trkpt lat="44.33693" lon="5.17689">
        <ele>473</ele>
        <time>2018-02-21T13:16:46Z</time>
      </trkpt>
      <trkpt lat="44.33685" lon="5.17692">
        <ele>473</ele>
        <time>2018-02-21T13:16:48Z</time>
      </trkpt>
      <trkpt lat="44.33674" lon="5.17696">
        <ele>473</ele>
        <time>2018-02-21T13:16:51Z</time>
      </trkpt>
      <trkpt lat="44.33663" lon="5.17699">
        <ele>474</ele>
        <time>2018-02-21T13:16:54Z</time>
      </trkpt>
      <trkpt lat="44.33653" lon="5.17703">
        <ele>474</ele>
        <time>2018-02-21T13:16:57Z</time>
      </trkpt>
      <trkpt lat="44.33646" lon="5.17706">
        <ele>475</ele>
        <time>2018-02-21T13:16:59Z</time>
      </trkpt>
      <trkpt lat="44.33635" lon="5.17711">
        <ele>475</ele>
        <time>2018-02-21T13:17:02Z</time>
      </trkpt>
      <trkpt lat="44.33625" lon="5.17717">
        <ele>475</ele>
        <time>2018-02-21T13:17:05Z</time>
      </trkpt>
      <trkpt lat="44.33614" lon="5.17722">
        <ele>475</ele>
        <time>2018-02-21T13:17:08Z</time>
      </trkpt>
      <trkpt lat="44.33603" lon="5.17728">
        <ele>475</ele>
        <time>2018-02-21T13:17:11Z</time>
      </trkpt>
      <trkpt lat="44.33596" lon="5.17731">
        <ele>476</ele>
        <time>2018-02-21T13:17:13Z</time>
      </trkpt>
      <trkpt lat="44.33586" lon="5.17734">
        <ele>477</ele>
        <time>2018-02-21T13:17:16Z</time>
      </trkpt>
      <trkpt lat="44.33576" lon="5.17738">
        <ele>478</ele>
        <time>2018-02-21T13:17:19Z</time>
      </trkpt>
      <trkpt lat="44.33569" lon="5.17741">
        <ele>478</ele>
        <time>2018-02-21T13:17:21Z</time>
      </trkpt>
      <trkpt lat="44.33559" lon="5.17744">
        <ele>479</ele>
        <time>2018-02-21T13:17:24Z</time>
      </trkpt>
      <trkpt lat="44.33549" lon="5.17749">
        <ele>480</ele>
        <time>2018-02-21T13:17:27Z</time>
      </trkpt>
      <trkpt lat="44.33542" lon="5.1775">
        <ele>480</ele>
        <time>2018-02-21T13:17:29Z</time>
      </trkpt>
      <trkpt lat="44.33532" lon="5.17745">
        <ele>481</ele>
        <time>2018-02-21T13:17:32Z</time>
      </trkpt>
      <trkpt lat="44.33524" lon="5.17736">
        <ele>482</ele>
        <time>2018-02-21T13:17:35Z</time>
      </trkpt>
      <trkpt lat="44.33516" lon="5.17727">
        <ele>483</ele>
        <time>2018-02-21T13:17:38Z</time>
      </trkpt>
      <trkpt lat="44.33511" lon="5.1772">
        <ele>483</ele>
        <time>2018-02-21T13:17:40Z</time>
      </trkpt>
      <trkpt lat="44.33505" lon="5.17714">
        <ele>484</ele>
        <time>2018-02-21T13:17:42Z</time>
      </trkpt>
      <trkpt lat="44.33499" lon="5.17708">
        <ele>484</ele>
        <time>2018-02-21T13:17:44Z</time>
      </trkpt>
      <trkpt lat="44.33488" lon="5.17702">
        <ele>484</ele>
        <time>2018-02-21T13:17:47Z</time>
      </trkpt>
      <trkpt lat="44.33477" lon="5.17697">
        <ele>484</ele>
        <time>2018-02-21T13:17:50Z</time>
      </trkpt>
      <trkpt lat="44.33465" lon="5.17694">
        <ele>485</ele>
        <time>2018-02-21T13:17:53Z</time>
      </trkpt>
      <trkpt lat="44.33453" lon="5.17693">
        <ele>485</ele>
        <time>2018-02-21T13:17:56Z</time>
      </trkpt>
      <trkpt lat="44.33445" lon="5.17694">
        <ele>485</ele>
        <time>2018-02-21T13:17:58Z</time>
      </trkpt>
      <trkpt lat="44.33433" lon="5.17695">
        <ele>485</ele>
        <time>2018-02-21T13:18:01Z</time>
      </trkpt>
      <trkpt lat="44.33425" lon="5.17697">
        <ele>485</ele>
        <time>2018-02-21T13:18:03Z</time>
      </trkpt>
      <trkpt lat="44.33413" lon="5.17699">
        <ele>485</ele>
        <time>2018-02-21T13:18:06Z</time>
      </trkpt>
      <trkpt lat="44.33406" lon="5.17702">
        <ele>486</ele>
        <time>2018-02-21T13:18:08Z</time>
      </trkpt>
      <trkpt lat="44.33395" lon="5.17706">
        <ele>486</ele>
        <time>2018-02-21T13:18:11Z</time>
      </trkpt>
      <trkpt lat="44.33387" lon="5.17707">
        <ele>487</ele>
        <time>2018-02-21T13:18:13Z</time>
      </trkpt>
      <trkpt lat="44.33379" lon="5.17706">
        <ele>487</ele>
        <time>2018-02-21T13:18:15Z</time>
      </trkpt>
      <trkpt lat="44.33367" lon="5.17702">
        <ele>488</ele>
        <time>2018-02-21T13:18:18Z</time>
      </trkpt>
      <trkpt lat="44.33356" lon="5.17695">
        <ele>488</ele>
        <time>2018-02-21T13:18:21Z</time>
      </trkpt>
      <trkpt lat="44.33348" lon="5.1769">
        <ele>489</ele>
        <time>2018-02-21T13:18:23Z</time>
      </trkpt>
      <trkpt lat="44.33341" lon="5.17687">
        <ele>489</ele>
        <time>2018-02-21T13:18:25Z</time>
      </trkpt>
      <trkpt lat="44.33329" lon="5.17685">
        <ele>489</ele>
        <time>2018-02-21T13:18:28Z</time>
      </trkpt>
      <trkpt lat="44.33317" lon="5.17685">
        <ele>490</ele>
        <time>2018-02-21T13:18:31Z</time>
      </trkpt>
      <trkpt lat="44.3331" lon="5.17684">
        <ele>490</ele>
        <time>2018-02-21T13:18:33Z</time>
      </trkpt>
      <trkpt lat="44.33302" lon="5.17684">
        <ele>490</ele>
        <time>2018-02-21T13:18:35Z</time>
      </trkpt>
      <trkpt lat="44.33293" lon="5.17684">
        <ele>491</ele>
        <time>2018-02-21T13:18:37Z</time>
      </trkpt>
      <trkpt lat="44.33281" lon="5.17684">
        <ele>491</ele>
        <time>2018-02-21T13:18:40Z</time>
      </trkpt>
      <trkpt lat="44.33273" lon="5.17685">
        <ele>491</ele>
        <time>2018-02-21T13:18:42Z</time>
      </trkpt>
      <trkpt lat="44.33266" lon="5.17686">
        <ele>491</ele>
        <time>2018-02-21T13:18:44Z</time>
      </trkpt>
      <trkpt lat="44.33258" lon="5.17687">
        <ele>491</ele>
        <time>2018-02-21T13:18:46Z</time>
      </trkpt>
      <trkpt lat="44.33246" lon="5.17689">
        <ele>492</ele>
        <time>2018-02-21T13:18:49Z</time>
      </trkpt>
      <trkpt lat="44.33239" lon="5.1769">
        <ele>493</ele>
        <time>2018-02-21T13:18:51Z</time>
      </trkpt>
      <trkpt lat="44.33228" lon="5.17692">
        <ele>495</ele>
        <time>2018-02-21T13:18:54Z</time>
      </trkpt>
      <trkpt lat="44.3322" lon="5.17693">
        <ele>495</ele>
        <time>2018-02-21T13:18:56Z</time>
      </trkpt>
      <trkpt lat="44.33213" lon="5.17693">
        <ele>496</ele>
        <time>2018-02-21T13:18:58Z</time>
      </trkpt>
      <trkpt lat="44.33201" lon="5.17695">
        <ele>496</ele>
        <time>2018-02-21T13:19:01Z</time>
      </trkpt>
      <trkpt lat="44.33194" lon="5.17696">
        <ele>496</ele>
        <time>2018-02-21T13:19:03Z</time>
      </trkpt>
      <trkpt lat="44.33183" lon="5.17699">
        <ele>497</ele>
        <time>2018-02-21T13:19:06Z</time>
      </trkpt>
      <trkpt lat="44.33173" lon="5.177">
        <ele>498</ele>
        <time>2018-02-21T13:19:09Z</time>
      </trkpt>
      <trkpt lat="44.33165" lon="5.17699">
        <ele>498</ele>
        <time>2018-02-21T13:19:11Z</time>
      </trkpt>
      <trkpt lat="44.33158" lon="5.17697">
        <ele>498</ele>
        <time>2018-02-21T13:19:13Z</time>
      </trkpt>
      <trkpt lat="44.33148" lon="5.17694">
        <ele>498</ele>
        <time>2018-02-21T13:19:16Z</time>
      </trkpt>
      <trkpt lat="44.3314" lon="5.17684">
        <ele>498</ele>
        <time>2018-02-21T13:19:19Z</time>
      </trkpt>
      <trkpt lat="44.33139" lon="5.17674">
        <ele>498</ele>
        <time>2018-02-21T13:19:21Z</time>
      </trkpt>
      <trkpt lat="44.33141" lon="5.17665">
        <ele>498</ele>
        <time>2018-02-21T13:19:23Z</time>
      </trkpt>
      <trkpt lat="44.33143" lon="5.17652">
        <ele>499</ele>
        <time>2018-02-21T13:19:26Z</time>
      </trkpt>
      <trkpt lat="44.33147" lon="5.17639">
        <ele>499</ele>
        <time>2018-02-21T13:19:29Z</time>
      </trkpt>
      <trkpt lat="44.33153" lon="5.17627">
        <ele>500</ele>
        <time>2018-02-21T13:19:32Z</time>
      </trkpt>
      <trkpt lat="44.33159" lon="5.17616">
        <ele>500</ele>
        <time>2018-02-21T13:19:35Z</time>
      </trkpt>
      <trkpt lat="44.33162" lon="5.17602">
        <ele>501</ele>
        <time>2018-02-21T13:19:38Z</time>
      </trkpt>
      <trkpt lat="44.33161" lon="5.17587">
        <ele>502</ele>
        <time>2018-02-21T13:19:41Z</time>
      </trkpt>
      <trkpt lat="44.33157" lon="5.17572">
        <ele>503</ele>
        <time>2018-02-21T13:19:44Z</time>
      </trkpt>
      <trkpt lat="44.33153" lon="5.17558">
        <ele>504</ele>
        <time>2018-02-21T13:19:47Z</time>
      </trkpt>
      <trkpt lat="44.33152" lon="5.17548">
        <ele>503</ele>
        <time>2018-02-21T13:19:49Z</time>
      </trkpt>
      <trkpt lat="44.33151" lon="5.17538">
        <ele>503</ele>
        <time>2018-02-21T13:19:51Z</time>
      </trkpt>
      <trkpt lat="44.33149" lon="5.17523">
        <ele>504</ele>
        <time>2018-02-21T13:19:54Z</time>
      </trkpt>
      <trkpt lat="44.33145" lon="5.17507">
        <ele>504</ele>
        <time>2018-02-21T13:19:57Z</time>
      </trkpt>
      <trkpt lat="44.33143" lon="5.17497">
        <ele>505</ele>
        <time>2018-02-21T13:19:59Z</time>
      </trkpt>
      <trkpt lat="44.33141" lon="5.17486">
        <ele>505</ele>
        <time>2018-02-21T13:20:01Z</time>
      </trkpt>
      <trkpt lat="44.33141" lon="5.17477">
        <ele>506</ele>
        <time>2018-02-21T13:20:03Z</time>
      </trkpt>
      <trkpt lat="44.3314" lon="5.17466">
        <ele>506</ele>
        <time>2018-02-21T13:20:05Z</time>
      </trkpt>
      <trkpt lat="44.33136" lon="5.1745">
        <ele>506</ele>
        <time>2018-02-21T13:20:08Z</time>
      </trkpt>
      <trkpt lat="44.33132" lon="5.17434">
        <ele>506</ele>
        <time>2018-02-21T13:20:11Z</time>
      </trkpt>
      <trkpt lat="44.33129" lon="5.17423">
        <ele>507</ele>
        <time>2018-02-21T13:20:13Z</time>
      </trkpt>
      <trkpt lat="44.33126" lon="5.17413">
        <ele>507</ele>
        <time>2018-02-21T13:20:15Z</time>
      </trkpt>
      <trkpt lat="44.3312" lon="5.17398">
        <ele>508</ele>
        <time>2018-02-21T13:20:18Z</time>
      </trkpt>
      <trkpt lat="44.33115" lon="5.17383">
        <ele>510</ele>
        <time>2018-02-21T13:20:21Z</time>
      </trkpt>
      <trkpt lat="44.3311" lon="5.17374">
        <ele>511</ele>
        <time>2018-02-21T13:20:23Z</time>
      </trkpt>
      <trkpt lat="44.33101" lon="5.17363">
        <ele>512</ele>
        <time>2018-02-21T13:20:26Z</time>
      </trkpt>
      <trkpt lat="44.33089" lon="5.17354">
        <ele>512</ele>
        <time>2018-02-21T13:20:29Z</time>
      </trkpt>
      <trkpt lat="44.33078" lon="5.17342">
        <ele>513</ele>
        <time>2018-02-21T13:20:32Z</time>
      </trkpt>
      <trkpt lat="44.33071" lon="5.17332">
        <ele>512</ele>
        <time>2018-02-21T13:20:34Z</time>
      </trkpt>
      <trkpt lat="44.33064" lon="5.17315">
        <ele>512</ele>
        <time>2018-02-21T13:20:37Z</time>
      </trkpt>
      <trkpt lat="44.3306" lon="5.17304">
        <ele>513</ele>
        <time>2018-02-21T13:20:39Z</time>
      </trkpt>
      <trkpt lat="44.33057" lon="5.17292">
        <ele>513</ele>
        <time>2018-02-21T13:20:41Z</time>
      </trkpt>
      <trkpt lat="44.33051" lon="5.17275">
        <ele>514</ele>
        <time>2018-02-21T13:20:44Z</time>
      </trkpt>
      <trkpt lat="44.33044" lon="5.17258">
        <ele>514</ele>
        <time>2018-02-21T13:20:47Z</time>
      </trkpt>
      <trkpt lat="44.33036" lon="5.17244">
        <ele>514</ele>
        <time>2018-02-21T13:20:50Z</time>
      </trkpt>
      <trkpt lat="44.33026" lon="5.17232">
        <ele>514</ele>
        <time>2018-02-21T13:20:53Z</time>
      </trkpt>
      <trkpt lat="44.33014" lon="5.17223">
        <ele>514</ele>
        <time>2018-02-21T13:20:56Z</time>
      </trkpt>
      <trkpt lat="44.33002" lon="5.17214">
        <ele>514</ele>
        <time>2018-02-21T13:20:59Z</time>
      </trkpt>
      <trkpt lat="44.3299" lon="5.17206">
        <ele>515</ele>
        <time>2018-02-21T13:21:02Z</time>
      </trkpt>
      <trkpt lat="44.32978" lon="5.17199">
        <ele>515</ele>
        <time>2018-02-21T13:21:05Z</time>
      </trkpt>
      <trkpt lat="44.3297" lon="5.17195">
        <ele>515</ele>
        <time>2018-02-21T13:21:07Z</time>
      </trkpt>
      <trkpt lat="44.32957" lon="5.17189">
        <ele>515</ele>
        <time>2018-02-21T13:21:10Z</time>
      </trkpt>
      <trkpt lat="44.32943" lon="5.17181">
        <ele>516</ele>
        <time>2018-02-21T13:21:13Z</time>
      </trkpt>
      <trkpt lat="44.32934" lon="5.17167">
        <ele>516</ele>
        <time>2018-02-21T13:21:16Z</time>
      </trkpt>
      <trkpt lat="44.32936" lon="5.1715">
        <ele>516</ele>
        <time>2018-02-21T13:21:19Z</time>
      </trkpt>
      <trkpt lat="44.32945" lon="5.17137">
        <ele>517</ele>
        <time>2018-02-21T13:21:22Z</time>
      </trkpt>
      <trkpt lat="44.32954" lon="5.17125">
        <ele>518</ele>
        <time>2018-02-21T13:21:25Z</time>
      </trkpt>
      <trkpt lat="44.32961" lon="5.17111">
        <ele>518</ele>
        <time>2018-02-21T13:21:28Z</time>
      </trkpt>
      <trkpt lat="44.32965" lon="5.17101">
        <ele>518</ele>
        <time>2018-02-21T13:21:30Z</time>
      </trkpt>
      <trkpt lat="44.3297" lon="5.17087">
        <ele>517</ele>
        <time>2018-02-21T13:21:33Z</time>
      </trkpt>
      <trkpt lat="44.32973" lon="5.17077">
        <ele>518</ele>
        <time>2018-02-21T13:21:35Z</time>
      </trkpt>
      <trkpt lat="44.32977" lon="5.17067">
        <ele>518</ele>
        <time>2018-02-21T13:21:37Z</time>
      </trkpt>
      <trkpt lat="44.32983" lon="5.17054">
        <ele>519</ele>
        <time>2018-02-21T13:21:40Z</time>
      </trkpt>
      <trkpt lat="44.3299" lon="5.17043">
        <ele>521</ele>
        <time>2018-02-21T13:21:43Z</time>
      </trkpt>
      <trkpt lat="44.32997" lon="5.17031">
        <ele>521</ele>
        <time>2018-02-21T13:21:46Z</time>
      </trkpt>
      <trkpt lat="44.33001" lon="5.17023">
        <ele>521</ele>
        <time>2018-02-21T13:21:48Z</time>
      </trkpt>
      <trkpt lat="44.33009" lon="5.17012">
        <ele>521</ele>
        <time>2018-02-21T13:21:51Z</time>
      </trkpt>
      <trkpt lat="44.33015" lon="5.17001">
        <ele>522</ele>
        <time>2018-02-21T13:21:54Z</time>
      </trkpt>
      <trkpt lat="44.33022" lon="5.16989">
        <ele>522</ele>
        <time>2018-02-21T13:21:57Z</time>
      </trkpt>
      <trkpt lat="44.33027" lon="5.16978">
        <ele>522</ele>
        <time>2018-02-21T13:22:00Z</time>
      </trkpt>
      <trkpt lat="44.3303" lon="5.16964">
        <ele>523</ele>
        <time>2018-02-21T13:22:03Z</time>
      </trkpt>
      <trkpt lat="44.33031" lon="5.16955">
        <ele>524</ele>
        <time>2018-02-21T13:22:05Z</time>
      </trkpt>
      <trkpt lat="44.33031" lon="5.16946">
        <ele>525</ele>
        <time>2018-02-21T13:22:07Z</time>
      </trkpt>
      <trkpt lat="44.3303" lon="5.16932">
        <ele>525</ele>
        <time>2018-02-21T13:22:10Z</time>
      </trkpt>
      <trkpt lat="44.3303" lon="5.16918">
        <ele>527</ele>
        <time>2018-02-21T13:22:13Z</time>
      </trkpt>
      <trkpt lat="44.3303" lon="5.16904">
        <ele>528</ele>
        <time>2018-02-21T13:22:16Z</time>
      </trkpt>
      <trkpt lat="44.33031" lon="5.16891">
        <ele>529</ele>
        <time>2018-02-21T13:22:19Z</time>
      </trkpt>
      <trkpt lat="44.33032" lon="5.16877">
        <ele>530</ele>
        <time>2018-02-21T13:22:22Z</time>
      </trkpt>
      <trkpt lat="44.33033" lon="5.16864">
        <ele>530</ele>
        <time>2018-02-21T13:22:25Z</time>
      </trkpt>
      <trkpt lat="44.33033" lon="5.16852">
        <ele>531</ele>
        <time>2018-02-21T13:22:28Z</time>
      </trkpt>
      <trkpt lat="44.33035" lon="5.16843">
        <ele>536</ele>
        <time>2018-02-21T13:22:31Z</time>
      </trkpt>
      <trkpt lat="44.33035" lon="5.16835">
        <ele>536</ele>
        <time>2018-02-21T13:22:34Z</time>
      </trkpt>
      <trkpt lat="44.33035" lon="5.16831">
        <ele>536</ele>
        <time>2018-02-21T13:22:36Z</time>
      </trkpt>
      <trkpt lat="44.33035" lon="5.16828">
        <ele>536</ele>
        <time>2018-02-21T13:22:38Z</time>
      </trkpt>
      <trkpt lat="44.33036" lon="5.16827">
        <ele>531</ele>
        <time>2018-02-21T13:22:42Z</time>
      </trkpt>
      <trkpt lat="44.33036" lon="5.16827">
        <ele>531</ele>
        <time>2018-02-21T13:22:44Z</time>
      </trkpt>
      <trkpt lat="44.33036" lon="5.16826">
        <ele>531</ele>
        <time>2018-02-21T13:22:46Z</time>
      </trkpt>
      <trkpt lat="44.33036" lon="5.16826">
        <ele>532</ele>
        <time>2018-02-21T13:22:48Z</time>
      </trkpt>
      <trkpt lat="44.33036" lon="5.16826">
        <ele>532</ele>
        <time>2018-02-21T13:22:51Z</time>
      </trkpt>
      <trkpt lat="44.33036" lon="5.16826">
        <ele>532</ele>
        <time>2018-02-21T13:22:55Z</time>
      </trkpt>
      <trkpt lat="44.33036" lon="5.16825">
        <ele>532</ele>
        <time>2018-02-21T13:22:59Z</time>
      </trkpt>
      <trkpt lat="44.33036" lon="5.16825">
        <ele>532</ele>
        <time>2018-02-21T13:23:01Z</time>
      </trkpt>
      <trkpt lat="44.33036" lon="5.16824">
        <ele>532</ele>
        <time>2018-02-21T13:23:03Z</time>
      </trkpt>
      <trkpt lat="44.33038" lon="5.16824">
        <ele>532</ele>
        <time>2018-02-21T13:23:06Z</time>
      </trkpt>
      <trkpt lat="44.33038" lon="5.16824">
        <ele>532</ele>
        <time>2018-02-21T13:23:08Z</time>
      </trkpt>
      <trkpt lat="44.33038" lon="5.16824">
        <ele>533</ele>
        <time>2018-02-21T13:23:11Z</time>
      </trkpt>
      <trkpt lat="44.33039" lon="5.16824">
        <ele>533</ele>
        <time>2018-02-21T13:23:13Z</time>
      </trkpt>
      <trkpt lat="44.33041" lon="5.16824">
        <ele>533</ele>
        <time>2018-02-21T13:23:16Z</time>
      </trkpt>
      <trkpt lat="44.33041" lon="5.16824">
        <ele>533</ele>
        <time>2018-02-21T13:23:19Z</time>
      </trkpt>
      <trkpt lat="44.33041" lon="5.16824">
        <ele>533</ele>
        <time>2018-02-21T13:23:22Z</time>
      </trkpt>
      <trkpt lat="44.33041" lon="5.16824">
        <ele>533</ele>
        <time>2018-02-21T13:23:24Z</time>
      </trkpt>
      <trkpt lat="44.33042" lon="5.16824">
        <ele>533</ele>
        <time>2018-02-21T13:23:27Z</time>
      </trkpt>
      <trkpt lat="44.33042" lon="5.16824">
        <ele>533</ele>
        <time>2018-02-21T13:23:30Z</time>
      </trkpt>
      <trkpt lat="44.33042" lon="5.16825">
        <ele>533</ele>
        <time>2018-02-21T13:23:34Z</time>
      </trkpt>
      <trkpt lat="44.33042" lon="5.16825">
        <ele>533</ele>
        <time>2018-02-21T13:23:37Z</time>
      </trkpt>
      <trkpt lat="44.33042" lon="5.16825">
        <ele>533</ele>
        <time>2018-02-21T13:23:40Z</time>
      </trkpt>
      <trkpt lat="44.33042" lon="5.16826">
        <ele>533</ele>
        <time>2018-02-21T13:23:42Z</time>
      </trkpt>
      <trkpt lat="44.33042" lon="5.16829">
        <ele>533</ele>
        <time>2018-02-21T13:23:45Z</time>
      </trkpt>
      <trkpt lat="44.33041" lon="5.1683">
        <ele>533</ele>
        <time>2018-02-21T13:23:47Z</time>
      </trkpt>
      <trkpt lat="44.33041" lon="5.16829">
        <ele>534</ele>
        <time>2018-02-21T13:23:50Z</time>
      </trkpt>
      <trkpt lat="44.33041" lon="5.1683">
        <ele>534</ele>
        <time>2018-02-21T13:23:52Z</time>
      </trkpt>
      <trkpt lat="44.33041" lon="5.1683">
        <ele>534</ele>
        <time>2018-02-21T13:23:54Z</time>
      </trkpt>
      <trkpt lat="44.3304" lon="5.1683">
        <ele>534</ele>
        <time>2018-02-21T13:23:56Z</time>
      </trkpt>
      <trkpt lat="44.3304" lon="5.1683">
        <ele>534</ele>
        <time>2018-02-21T13:24:00Z</time>
      </trkpt>
      <trkpt lat="44.3304" lon="5.1683">
        <ele>534</ele>
        <time>2018-02-21T13:24:02Z</time>
      </trkpt>
      <trkpt lat="44.3304" lon="5.1683">
        <ele>534</ele>
        <time>2018-02-21T13:24:04Z</time>
      </trkpt>
      <trkpt lat="44.3304" lon="5.1683">
        <ele>535</ele>
        <time>2018-02-21T13:24:07Z</time>
      </trkpt>
      <trkpt lat="44.33039" lon="5.1683">
        <ele>535</ele>
        <time>2018-02-21T13:24:09Z</time>
      </trkpt>
      <trkpt lat="44.33039" lon="5.1683">
        <ele>534</ele>
        <time>2018-02-21T13:24:12Z</time>
      </trkpt>
      <trkpt lat="44.33039" lon="5.1683">
        <ele>534</ele>
        <time>2018-02-21T13:24:14Z</time>
      </trkpt>
      <trkpt lat="44.33038" lon="5.1683">
        <ele>534</ele>
        <time>2018-02-21T13:24:17Z</time>
      </trkpt>
      <trkpt lat="44.33038" lon="5.1683">
        <ele>534</ele>
        <time>2018-02-21T13:24:19Z</time>
      </trkpt>
      <trkpt lat="44.33038" lon="5.16829">
        <ele>533</ele>
        <time>2018-02-21T13:24:22Z</time>
      </trkpt>
      <trkpt lat="44.33038" lon="5.16829">
        <ele>533</ele>
        <time>2018-02-21T13:24:24Z</time>
      </trkpt>
      <trkpt lat="44.33037" lon="5.16829">
        <ele>533</ele>
        <time>2018-02-21T13:24:28Z</time>
      </trkpt>
      <trkpt lat="44.33037" lon="5.16829">
        <ele>534</ele>
        <time>2018-02-21T13:24:31Z</time>
      </trkpt>
      <trkpt lat="44.33037" lon="5.16829">
        <ele>534</ele>
        <time>2018-02-21T13:24:33Z</time>
      </trkpt>
      <trkpt lat="44.33036" lon="5.16828">
        <ele>534</ele>
        <time>2018-02-21T13:24:36Z</time>
      </trkpt>
      <trkpt lat="44.33036" lon="5.16829">
        <ele>534</ele>
        <time>2018-02-21T13:24:39Z</time>
      </trkpt>
      <trkpt lat="44.33036" lon="5.16828">
        <ele>534</ele>
        <time>2018-02-21T13:24:43Z</time>
      </trkpt>
      <trkpt lat="44.33036" lon="5.16828">
        <ele>534</ele>
        <time>2018-02-21T13:24:45Z</time>
      </trkpt>
      <trkpt lat="44.33036" lon="5.16828">
        <ele>534</ele>
        <time>2018-02-21T13:24:47Z</time>
      </trkpt>
      <trkpt lat="44.33036" lon="5.16828">
        <ele>534</ele>
        <time>2018-02-21T13:24:49Z</time>
      </trkpt>
      <trkpt lat="44.33036" lon="5.16828">
        <ele>534</ele>
        <time>2018-02-21T13:24:52Z</time>
      </trkpt>
      <trkpt lat="44.33036" lon="5.16828">
        <ele>534</ele>
        <time>2018-02-21T13:24:54Z</time>
      </trkpt>
      <trkpt lat="44.33036" lon="5.16827">
        <ele>534</ele>
        <time>2018-02-21T13:24:56Z</time>
      </trkpt>
      <trkpt lat="44.33036" lon="5.16827">
        <ele>534</ele>
        <time>2018-02-21T13:24:58Z</time>
      </trkpt>
      <trkpt lat="44.33036" lon="5.16827">
        <ele>534</ele>
        <time>2018-02-21T13:25:01Z</time>
      </trkpt>
      <trkpt lat="44.33036" lon="5.16827">
        <ele>534</ele>
        <time>2018-02-21T13:25:05Z</time>
      </trkpt>
      <trkpt lat="44.33036" lon="5.16827">
        <ele>534</ele>
        <time>2018-02-21T13:25:08Z</time>
      </trkpt>
      <trkpt lat="44.33036" lon="5.16827">
        <ele>534</ele>
        <time>2018-02-21T13:25:10Z</time>
      </trkpt>
      <trkpt lat="44.33036" lon="5.16827">
        <ele>535</ele>
        <time>2018-02-21T13:25:12Z</time>
      </trkpt>
      <trkpt lat="44.33035" lon="5.16826">
        <ele>534</ele>
        <time>2018-02-21T13:25:14Z</time>
      </trkpt>
      <trkpt lat="44.33035" lon="5.16825">
        <ele>534</ele>
        <time>2018-02-21T13:25:17Z</time>
      </trkpt>
      <trkpt lat="44.33035" lon="5.16825">
        <ele>534</ele>
        <time>2018-02-21T13:25:19Z</time>
      </trkpt>
      <trkpt lat="44.33035" lon="5.16825">
        <ele>534</ele>
        <time>2018-02-21T13:25:22Z</time>
      </trkpt>
      <trkpt lat="44.33035" lon="5.16825">
        <ele>533</ele>
        <time>2018-02-21T13:25:26Z</time>
      </trkpt>
      <trkpt lat="44.33034" lon="5.16825">
        <ele>533</ele>
        <time>2018-02-21T13:25:28Z</time>
      </trkpt>
      <trkpt lat="44.33034" lon="5.16825">
        <ele>534</ele>
        <time>2018-02-21T13:25:30Z</time>
      </trkpt>
      <trkpt lat="44.33033" lon="5.16825">
        <ele>534</ele>
        <time>2018-02-21T13:25:32Z</time>
      </trkpt>
      <trkpt lat="44.33033" lon="5.16825">
        <ele>534</ele>
        <time>2018-02-21T13:25:36Z</time>
      </trkpt>
      <trkpt lat="44.33033" lon="5.16825">
        <ele>533</ele>
        <time>2018-02-21T13:25:39Z</time>
      </trkpt>
      <trkpt lat="44.33033" lon="5.16825">
        <ele>533</ele>
        <time>2018-02-21T13:25:41Z</time>
      </trkpt>
      <trkpt lat="44.33033" lon="5.16825">
        <ele>533</ele>
        <time>2018-02-21T13:25:45Z</time>
      </trkpt>
      <trkpt lat="44.33033" lon="5.16825">
        <ele>534</ele>
        <time>2018-02-21T13:25:47Z</time>
      </trkpt>
      <trkpt lat="44.33032" lon="5.16824">
        <ele>534</ele>
        <time>2018-02-21T13:25:50Z</time>
      </trkpt>
      <trkpt lat="44.33031" lon="5.16824">
        <ele>534</ele>
        <time>2018-02-21T13:25:53Z</time>
      </trkpt>
      <trkpt lat="44.33031" lon="5.16824">
        <ele>534</ele>
        <time>2018-02-21T13:25:56Z</time>
      </trkpt>
      <trkpt lat="44.33031" lon="5.16824">
        <ele>533</ele>
        <time>2018-02-21T13:26:02Z</time>
      </trkpt>
      <trkpt lat="44.33031" lon="5.16824">
        <ele>534</ele>
        <time>2018-02-21T13:26:04Z</time>
      </trkpt>
      <trkpt lat="44.33031" lon="5.16824">
        <ele>533</ele>
        <time>2018-02-21T13:26:07Z</time>
      </trkpt>
      <trkpt lat="44.33031" lon="5.16824">
        <ele>533</ele>
        <time>2018-02-21T13:26:13Z</time>
      </trkpt>
      <trkpt lat="44.33031" lon="5.16824">
        <ele>533</ele>
        <time>2018-02-21T13:26:15Z</time>
      </trkpt>
      <trkpt lat="44.33031" lon="5.16824">
        <ele>533</ele>
        <time>2018-02-21T13:26:18Z</time>
      </trkpt>
      <trkpt lat="44.33031" lon="5.16824">
        <ele>533</ele>
        <time>2018-02-21T13:26:20Z</time>
      </trkpt>
      <trkpt lat="44.33031" lon="5.16824">
        <ele>533</ele>
        <time>2018-02-21T13:26:23Z</time>
      </trkpt>
      <trkpt lat="44.33031" lon="5.16824">
        <ele>533</ele>
        <time>2018-02-21T13:26:29Z</time>
      </trkpt>
      <trkpt lat="44.33031" lon="5.16824">
        <ele>534</ele>
        <time>2018-02-21T13:26:33Z</time>
      </trkpt>
      <trkpt lat="44.33031" lon="5.16824">
        <ele>533</ele>
        <time>2018-02-21T13:26:35Z</time>
      </trkpt>
      <trkpt lat="44.3303" lon="5.16823">
        <ele>533</ele>
        <time>2018-02-21T13:26:38Z</time>
      </trkpt>
      <trkpt lat="44.33029" lon="5.16822">
        <ele>532</ele>
        <time>2018-02-21T13:26:40Z</time>
      </trkpt>
      <trkpt lat="44.33029" lon="5.16822">
        <ele>532</ele>
        <time>2018-02-21T13:26:43Z</time>
      </trkpt>
      <trkpt lat="44.33028" lon="5.16822">
        <ele>532</ele>
        <time>2018-02-21T13:26:45Z</time>
      </trkpt>
      <trkpt lat="44.33028" lon="5.16822">
        <ele>532</ele>
        <time>2018-02-21T13:26:47Z</time>
      </trkpt>
      <trkpt lat="44.33028" lon="5.16822">
        <ele>533</ele>
        <time>2018-02-21T13:26:50Z</time>
      </trkpt>
      <trkpt lat="44.33028" lon="5.16822">
        <ele>533</ele>
        <time>2018-02-21T13:26:53Z</time>
      </trkpt>
      <trkpt lat="44.33025" lon="5.1682">
        <ele>533</ele>
        <time>2018-02-21T13:26:55Z</time>
      </trkpt>
      <trkpt lat="44.33018" lon="5.16814">
        <ele>533</ele>
        <time>2018-02-21T13:26:58Z</time>
      </trkpt>
      <trkpt lat="44.33007" lon="5.16805">
        <ele>532</ele>
        <time>2018-02-21T13:27:01Z</time>
      </trkpt>
      <trkpt lat="44.32998" lon="5.16799">
        <ele>531</ele>
        <time>2018-02-21T13:27:03Z</time>
      </trkpt>
      <trkpt lat="44.3298" lon="5.16795">
        <ele>530</ele>
        <time>2018-02-21T13:27:06Z</time>
      </trkpt>
      <trkpt lat="44.32965" lon="5.16797">
        <ele>530</ele>
        <time>2018-02-21T13:27:08Z</time>
      </trkpt>
      <trkpt lat="44.32951" lon="5.16795">
        <ele>530</ele>
        <time>2018-02-21T13:27:10Z</time>
      </trkpt>
      <trkpt lat="44.32942" lon="5.16771">
        <ele>528</ele>
        <time>2018-02-21T13:27:13Z</time>
      </trkpt>
      <trkpt lat="44.32949" lon="5.16739">
        <ele>523</ele>
        <time>2018-02-21T13:27:16Z</time>
      </trkpt>
      <trkpt lat="44.32948" lon="5.16719">
        <ele>520</ele>
        <time>2018-02-21T13:27:18Z</time>
      </trkpt>
      <trkpt lat="44.32939" lon="5.16707">
        <ele>517</ele>
        <time>2018-02-21T13:27:20Z</time>
      </trkpt>
      <trkpt lat="44.32921" lon="5.16685">
        <ele>515</ele>
        <time>2018-02-21T13:27:23Z</time>
      </trkpt>
      <trkpt lat="44.32909" lon="5.16671">
        <ele>514</ele>
        <time>2018-02-21T13:27:25Z</time>
      </trkpt>
      <trkpt lat="44.32892" lon="5.16661">
        <ele>511</ele>
        <time>2018-02-21T13:27:28Z</time>
      </trkpt>
      <trkpt lat="44.32893" lon="5.16639">
        <ele>508</ele>
        <time>2018-02-21T13:27:31Z</time>
      </trkpt>
      <trkpt lat="44.32897" lon="5.16621">
        <ele>507</ele>
        <time>2018-02-21T13:27:33Z</time>
      </trkpt>
      <trkpt lat="44.32898" lon="5.16592">
        <ele>506</ele>
        <time>2018-02-21T13:27:36Z</time>
      </trkpt>
      <trkpt lat="44.32893" lon="5.16568">
        <ele>504</ele>
        <time>2018-02-21T13:27:39Z</time>
      </trkpt>
      <trkpt lat="44.329" lon="5.16556">
        <ele>502</ele>
        <time>2018-02-21T13:27:42Z</time>
      </trkpt>
      <trkpt lat="44.32907" lon="5.16562">
        <ele>501</ele>
        <time>2018-02-21T13:27:44Z</time>
      </trkpt>
      <trkpt lat="44.32912" lon="5.16573">
        <ele>500</ele>
        <time>2018-02-21T13:27:46Z</time>
      </trkpt>
      <trkpt lat="44.32919" lon="5.16588">
        <ele>499</ele>
        <time>2018-02-21T13:27:49Z</time>
      </trkpt>
      <trkpt lat="44.32927" lon="5.16584">
        <ele>497</ele>
        <time>2018-02-21T13:27:51Z</time>
      </trkpt>
      <trkpt lat="44.32929" lon="5.16569">
        <ele>497</ele>
        <time>2018-02-21T13:27:53Z</time>
      </trkpt>
      <trkpt lat="44.32925" lon="5.1655">
        <ele>496</ele>
        <time>2018-02-21T13:27:55Z</time>
      </trkpt>
      <trkpt lat="44.32918" lon="5.16517">
        <ele>495</ele>
        <time>2018-02-21T13:27:58Z</time>
      </trkpt>
      <trkpt lat="44.32905" lon="5.16488">
        <ele>493</ele>
        <time>2018-02-21T13:28:01Z</time>
      </trkpt>
      <trkpt lat="44.32883" lon="5.16469">
        <ele>491</ele>
        <time>2018-02-21T13:28:04Z</time>
      </trkpt>
      <trkpt lat="44.32867" lon="5.16458">
        <ele>489</ele>
        <time>2018-02-21T13:28:06Z</time>
      </trkpt>
      <trkpt lat="44.32855" lon="5.16437">
        <ele>488</ele>
        <time>2018-02-21T13:28:08Z</time>
      </trkpt>
      <trkpt lat="44.32843" lon="5.16414">
        <ele>486</ele>
        <time>2018-02-21T13:28:10Z</time>
      </trkpt>
      <trkpt lat="44.32822" lon="5.16383">
        <ele>484</ele>
        <time>2018-02-21T13:28:13Z</time>
      </trkpt>
      <trkpt lat="44.32796" lon="5.16358">
        <ele>484</ele>
        <time>2018-02-21T13:28:16Z</time>
      </trkpt>
      <trkpt lat="44.3278" lon="5.16345">
        <ele>483</ele>
        <time>2018-02-21T13:28:18Z</time>
      </trkpt>
      <trkpt lat="44.32756" lon="5.16327">
        <ele>482</ele>
        <time>2018-02-21T13:28:21Z</time>
      </trkpt>
      <trkpt lat="44.32734" lon="5.16312">
        <ele>480</ele>
        <time>2018-02-21T13:28:24Z</time>
      </trkpt>
      <trkpt lat="44.32714" lon="5.16295">
        <ele>479</ele>
        <time>2018-02-21T13:28:27Z</time>
      </trkpt>
      <trkpt lat="44.32695" lon="5.16277">
        <ele>479</ele>
        <time>2018-02-21T13:28:30Z</time>
      </trkpt>
      <trkpt lat="44.32676" lon="5.16259">
        <ele>479</ele>
        <time>2018-02-21T13:28:33Z</time>
      </trkpt>
      <trkpt lat="44.32667" lon="5.16243">
        <ele>478</ele>
        <time>2018-02-21T13:28:35Z</time>
      </trkpt>
      <trkpt lat="44.32658" lon="5.16213">
        <ele>477</ele>
        <time>2018-02-21T13:28:38Z</time>
      </trkpt>
      <trkpt lat="44.32655" lon="5.16179">
        <ele>475</ele>
        <time>2018-02-21T13:28:41Z</time>
      </trkpt>
      <trkpt lat="44.32656" lon="5.16154">
        <ele>474</ele>
        <time>2018-02-21T13:28:43Z</time>
      </trkpt>
      <trkpt lat="44.32663" lon="5.1612">
        <ele>473</ele>
        <time>2018-02-21T13:28:46Z</time>
      </trkpt>
      <trkpt lat="44.32664" lon="5.16082">
        <ele>473</ele>
        <time>2018-02-21T13:28:49Z</time>
      </trkpt>
      <trkpt lat="44.3266" lon="5.16056">
        <ele>474</ele>
        <time>2018-02-21T13:28:51Z</time>
      </trkpt>
      <trkpt lat="44.32655" lon="5.1603">
        <ele>474</ele>
        <time>2018-02-21T13:28:53Z</time>
      </trkpt>
      <trkpt lat="44.32653" lon="5.1599">
        <ele>472</ele>
        <time>2018-02-21T13:28:56Z</time>
      </trkpt>
      <trkpt lat="44.32655" lon="5.15956">
        <ele>468</ele>
        <time>2018-02-21T13:28:59Z</time>
      </trkpt>
      <trkpt lat="44.32644" lon="5.15937">
        <ele>465</ele>
        <time>2018-02-21T13:29:02Z</time>
      </trkpt>
      <trkpt lat="44.32639" lon="5.15923">
        <ele>465</ele>
        <time>2018-02-21T13:29:04Z</time>
      </trkpt>
      <trkpt lat="44.32632" lon="5.15898">
        <ele>465</ele>
        <time>2018-02-21T13:29:07Z</time>
      </trkpt>
      <trkpt lat="44.32626" lon="5.15871">
        <ele>465</ele>
        <time>2018-02-21T13:29:10Z</time>
      </trkpt>
      <trkpt lat="44.32621" lon="5.15839">
        <ele>465</ele>
        <time>2018-02-21T13:29:13Z</time>
      </trkpt>
      <trkpt lat="44.32618" lon="5.15804">
        <ele>464</ele>
        <time>2018-02-21T13:29:16Z</time>
      </trkpt>
      <trkpt lat="44.32608" lon="5.15769">
        <ele>463</ele>
        <time>2018-02-21T13:29:19Z</time>
      </trkpt>
      <trkpt lat="44.32599" lon="5.1575">
        <ele>462</ele>
        <time>2018-02-21T13:29:21Z</time>
      </trkpt>
      <trkpt lat="44.32585" lon="5.15721">
        <ele>462</ele>
        <time>2018-02-21T13:29:24Z</time>
      </trkpt>
      <trkpt lat="44.32581" lon="5.15699">
        <ele>461</ele>
        <time>2018-02-21T13:29:26Z</time>
      </trkpt>
      <trkpt lat="44.32579" lon="5.15677">
        <ele>461</ele>
        <time>2018-02-21T13:29:28Z</time>
      </trkpt>
      <trkpt lat="44.32576" lon="5.15642">
        <ele>460</ele>
        <time>2018-02-21T13:29:31Z</time>
      </trkpt>
      <trkpt lat="44.32571" lon="5.15606">
        <ele>459</ele>
        <time>2018-02-21T13:29:34Z</time>
      </trkpt>
      <trkpt lat="44.32561" lon="5.15568">
        <ele>458</ele>
        <time>2018-02-21T13:29:37Z</time>
      </trkpt>
      <trkpt lat="44.32548" lon="5.15531">
        <ele>457</ele>
        <time>2018-02-21T13:29:40Z</time>
      </trkpt>
      <trkpt lat="44.32539" lon="5.15507">
        <ele>458</ele>
        <time>2018-02-21T13:29:42Z</time>
      </trkpt>
      <trkpt lat="44.32523" lon="5.15471">
        <ele>457</ele>
        <time>2018-02-21T13:29:45Z</time>
      </trkpt>
      <trkpt lat="44.32505" lon="5.15437">
        <ele>457</ele>
        <time>2018-02-21T13:29:48Z</time>
      </trkpt>
      <trkpt lat="44.32491" lon="5.15415">
        <ele>455</ele>
        <time>2018-02-21T13:29:50Z</time>
      </trkpt>
      <trkpt lat="44.32478" lon="5.15394">
        <ele>454</ele>
        <time>2018-02-21T13:29:52Z</time>
      </trkpt>
      <trkpt lat="44.32462" lon="5.15358">
        <ele>452</ele>
        <time>2018-02-21T13:29:55Z</time>
      </trkpt>
      <trkpt lat="44.32447" lon="5.15322">
        <ele>449</ele>
        <time>2018-02-21T13:29:58Z</time>
      </trkpt>
      <trkpt lat="44.32429" lon="5.1529">
        <ele>449</ele>
        <time>2018-02-21T13:30:01Z</time>
      </trkpt>
      <trkpt lat="44.32405" lon="5.15276">
        <ele>449</ele>
        <time>2018-02-21T13:30:04Z</time>
      </trkpt>
      <trkpt lat="44.32388" lon="5.15268">
        <ele>448</ele>
        <time>2018-02-21T13:30:06Z</time>
      </trkpt>
      <trkpt lat="44.32373" lon="5.15241">
        <ele>446</ele>
        <time>2018-02-21T13:30:09Z</time>
      </trkpt>
      <trkpt lat="44.32374" lon="5.15218">
        <ele>444</ele>
        <time>2018-02-21T13:30:11Z</time>
      </trkpt>
      <trkpt lat="44.32379" lon="5.15196">
        <ele>445</ele>
        <time>2018-02-21T13:30:13Z</time>
      </trkpt>
      <trkpt lat="44.3238" lon="5.15164">
        <ele>445</ele>
        <time>2018-02-21T13:30:16Z</time>
      </trkpt>
      <trkpt lat="44.32377" lon="5.15143">
        <ele>446</ele>
        <time>2018-02-21T13:30:18Z</time>
      </trkpt>
      <trkpt lat="44.3237" lon="5.15112">
        <ele>447</ele>
        <time>2018-02-21T13:30:21Z</time>
      </trkpt>
      <trkpt lat="44.32366" lon="5.15093">
        <ele>447</ele>
        <time>2018-02-21T13:30:23Z</time>
      </trkpt>
      <trkpt lat="44.32363" lon="5.15067">
        <ele>446</ele>
        <time>2018-02-21T13:30:26Z</time>
      </trkpt>
      <trkpt lat="44.32362" lon="5.15041">
        <ele>444</ele>
        <time>2018-02-21T13:30:29Z</time>
      </trkpt>
      <trkpt lat="44.32365" lon="5.15017">
        <ele>445</ele>
        <time>2018-02-21T13:30:32Z</time>
      </trkpt>
      <trkpt lat="44.3237" lon="5.15">
        <ele>445</ele>
        <time>2018-02-21T13:30:34Z</time>
      </trkpt>
      <trkpt lat="44.32375" lon="5.14974">
        <ele>444</ele>
        <time>2018-02-21T13:30:37Z</time>
      </trkpt>
      <trkpt lat="44.3238" lon="5.14951">
        <ele>443</ele>
        <time>2018-02-21T13:30:39Z</time>
      </trkpt>
      <trkpt lat="44.32383" lon="5.14935">
        <ele>443</ele>
        <time>2018-02-21T13:30:41Z</time>
      </trkpt>
      <trkpt lat="44.32385" lon="5.14922">
        <ele>443</ele>
        <time>2018-02-21T13:30:44Z</time>
      </trkpt>
      <trkpt lat="44.32378" lon="5.149">
        <ele>443</ele>
        <time>2018-02-21T13:30:47Z</time>
      </trkpt>
      <trkpt lat="44.3237" lon="5.14875">
        <ele>443</ele>
        <time>2018-02-21T13:30:50Z</time>
      </trkpt>
      <trkpt lat="44.32366" lon="5.14859">
        <ele>443</ele>
        <time>2018-02-21T13:30:52Z</time>
      </trkpt>
      <trkpt lat="44.32365" lon="5.14832">
        <ele>443</ele>
        <time>2018-02-21T13:30:55Z</time>
      </trkpt>
      <trkpt lat="44.32381" lon="5.14812">
        <ele>442</ele>
        <time>2018-02-21T13:30:58Z</time>
      </trkpt>
      <trkpt lat="44.32391" lon="5.14802">
        <ele>441</ele>
        <time>2018-02-21T13:31:00Z</time>
      </trkpt>
      <trkpt lat="44.32389" lon="5.14781">
        <ele>440</ele>
        <time>2018-02-21T13:31:03Z</time>
      </trkpt>
      <trkpt lat="44.32373" lon="5.14777">
        <ele>439</ele>
        <time>2018-02-21T13:31:06Z</time>
      </trkpt>
      <trkpt lat="44.32363" lon="5.14776">
        <ele>438</ele>
        <time>2018-02-21T13:31:08Z</time>
      </trkpt>
      <trkpt lat="44.32347" lon="5.14778">
        <ele>437</ele>
        <time>2018-02-21T13:31:10Z</time>
      </trkpt>
      <trkpt lat="44.32336" lon="5.1478">
        <ele>436</ele>
        <time>2018-02-21T13:31:13Z</time>
      </trkpt>
      <trkpt lat="44.32317" lon="5.14781">
        <ele>436</ele>
        <time>2018-02-21T13:31:16Z</time>
      </trkpt>
      <trkpt lat="44.32298" lon="5.14767">
        <ele>436</ele>
        <time>2018-02-21T13:31:19Z</time>
      </trkpt>
      <trkpt lat="44.3229" lon="5.14748">
        <ele>435</ele>
        <time>2018-02-21T13:31:21Z</time>
      </trkpt>
      <trkpt lat="44.32282" lon="5.14715">
        <ele>434</ele>
        <time>2018-02-21T13:31:24Z</time>
      </trkpt>
      <trkpt lat="44.32278" lon="5.14678">
        <ele>432</ele>
        <time>2018-02-21T13:31:26Z</time>
      </trkpt>
      <trkpt lat="44.32278" lon="5.14653">
        <ele>431</ele>
        <time>2018-02-21T13:31:29Z</time>
      </trkpt>
      <trkpt lat="44.32278" lon="5.14615">
        <ele>429</ele>
        <time>2018-02-21T13:31:32Z</time>
      </trkpt>
      <trkpt lat="44.32283" lon="5.14577">
        <ele>428</ele>
        <time>2018-02-21T13:31:34Z</time>
      </trkpt>
      <trkpt lat="44.32283" lon="5.14547">
        <ele>426</ele>
        <time>2018-02-21T13:31:37Z</time>
      </trkpt>
      <trkpt lat="44.32281" lon="5.14504">
        <ele>423</ele>
        <time>2018-02-21T13:31:39Z</time>
      </trkpt>
      <trkpt lat="44.32278" lon="5.14478">
        <ele>420</ele>
        <time>2018-02-21T13:31:42Z</time>
      </trkpt>
      <trkpt lat="44.32281" lon="5.14454">
        <ele>417</ele>
        <time>2018-02-21T13:31:44Z</time>
      </trkpt>
      <trkpt lat="44.32289" lon="5.14414">
        <ele>415</ele>
        <time>2018-02-21T13:31:47Z</time>
      </trkpt>
      <trkpt lat="44.3229" lon="5.14368">
        <ele>413</ele>
        <time>2018-02-21T13:31:50Z</time>
      </trkpt>
      <trkpt lat="44.32282" lon="5.14324">
        <ele>412</ele>
        <time>2018-02-21T13:31:53Z</time>
      </trkpt>
      <trkpt lat="44.32266" lon="5.14286">
        <ele>411</ele>
        <time>2018-02-21T13:31:56Z</time>
      </trkpt>
      <trkpt lat="44.32249" lon="5.14251">
        <ele>409</ele>
        <time>2018-02-21T13:31:59Z</time>
      </trkpt>
      <trkpt lat="44.32227" lon="5.14218">
        <ele>407</ele>
        <time>2018-02-21T13:32:02Z</time>
      </trkpt>
      <trkpt lat="44.32201" lon="5.14194">
        <ele>405</ele>
        <time>2018-02-21T13:32:05Z</time>
      </trkpt>
      <trkpt lat="44.32183" lon="5.14179">
        <ele>404</ele>
        <time>2018-02-21T13:32:07Z</time>
      </trkpt>
      <trkpt lat="44.3216" lon="5.14151">
        <ele>402</ele>
        <time>2018-02-21T13:32:10Z</time>
      </trkpt>
      <trkpt lat="44.3214" lon="5.14117">
        <ele>399</ele>
        <time>2018-02-21T13:32:13Z</time>
      </trkpt>
      <trkpt lat="44.32124" lon="5.14082">
        <ele>396</ele>
        <time>2018-02-21T13:32:16Z</time>
      </trkpt>
      <trkpt lat="44.32116" lon="5.14056">
        <ele>397</ele>
        <time>2018-02-21T13:32:18Z</time>
      </trkpt>
      <trkpt lat="44.32111" lon="5.1402">
        <ele>395</ele>
        <time>2018-02-21T13:32:20Z</time>
      </trkpt>
      <trkpt lat="44.32116" lon="5.14">
        <ele>394</ele>
        <time>2018-02-21T13:32:23Z</time>
      </trkpt>
      <trkpt lat="44.3212" lon="5.13973">
        <ele>393</ele>
        <time>2018-02-21T13:32:26Z</time>
      </trkpt>
      <trkpt lat="44.32109" lon="5.13955">
        <ele>394</ele>
        <time>2018-02-21T13:32:29Z</time>
      </trkpt>
      <trkpt lat="44.32097" lon="5.13948">
        <ele>394</ele>
        <time>2018-02-21T13:32:31Z</time>
      </trkpt>
      <trkpt lat="44.3208" lon="5.13937">
        <ele>393</ele>
        <time>2018-02-21T13:32:34Z</time>
      </trkpt>
      <trkpt lat="44.32066" lon="5.13923">
        <ele>393</ele>
        <time>2018-02-21T13:32:37Z</time>
      </trkpt>
      <trkpt lat="44.3205" lon="5.13908">
        <ele>392</ele>
        <time>2018-02-21T13:32:40Z</time>
      </trkpt>
      <trkpt lat="44.32041" lon="5.13879">
        <ele>392</ele>
        <time>2018-02-21T13:32:43Z</time>
      </trkpt>
      <trkpt lat="44.32047" lon="5.13845">
        <ele>392</ele>
        <time>2018-02-21T13:32:46Z</time>
      </trkpt>
      <trkpt lat="44.32056" lon="5.13809">
        <ele>392</ele>
        <time>2018-02-21T13:32:48Z</time>
      </trkpt>
      <trkpt lat="44.32061" lon="5.13786">
        <ele>392</ele>
        <time>2018-02-21T13:32:51Z</time>
      </trkpt>
      <trkpt lat="44.3206" lon="5.13761">
        <ele>392</ele>
        <time>2018-02-21T13:32:53Z</time>
      </trkpt>
      <trkpt lat="44.32047" lon="5.13729">
        <ele>392</ele>
        <time>2018-02-21T13:32:56Z</time>
      </trkpt>
      <trkpt lat="44.32037" lon="5.13691">
        <ele>389</ele>
        <time>2018-02-21T13:32:59Z</time>
      </trkpt>
      <trkpt lat="44.32037" lon="5.13647">
        <ele>388</ele>
        <time>2018-02-21T13:33:02Z</time>
      </trkpt>
      <trkpt lat="44.32033" lon="5.1362">
        <ele>386</ele>
        <time>2018-02-21T13:33:04Z</time>
      </trkpt>
      <trkpt lat="44.32031" lon="5.136">
        <ele>384</ele>
        <time>2018-02-21T13:33:06Z</time>
      </trkpt>
      <trkpt lat="44.32035" lon="5.13581">
        <ele>381</ele>
        <time>2018-02-21T13:33:08Z</time>
      </trkpt>
      <trkpt lat="44.32046" lon="5.13559">
        <ele>377</ele>
        <time>2018-02-21T13:33:10Z</time>
      </trkpt>
      <trkpt lat="44.32045" lon="5.13544">
        <ele>376</ele>
        <time>2018-02-21T13:33:13Z</time>
      </trkpt>
      <trkpt lat="44.32038" lon="5.13533">
        <ele>376</ele>
        <time>2018-02-21T13:33:15Z</time>
      </trkpt>
      <trkpt lat="44.32021" lon="5.13522">
        <ele>376</ele>
        <time>2018-02-21T13:33:18Z</time>
      </trkpt>
      <trkpt lat="44.32009" lon="5.13505">
        <ele>376</ele>
        <time>2018-02-21T13:33:20Z</time>
      </trkpt>
      <trkpt lat="44.32002" lon="5.13492">
        <ele>377</ele>
        <time>2018-02-21T13:33:23Z</time>
      </trkpt>
      <trkpt lat="44.31995" lon="5.1348">
        <ele>377</ele>
        <time>2018-02-21T13:33:25Z</time>
      </trkpt>
      <trkpt lat="44.31987" lon="5.13458">
        <ele>378</ele>
        <time>2018-02-21T13:33:28Z</time>
      </trkpt>
      <trkpt lat="44.31982" lon="5.13436">
        <ele>378</ele>
        <time>2018-02-21T13:33:31Z</time>
      </trkpt>
      <trkpt lat="44.31979" lon="5.13413">
        <ele>379</ele>
        <time>2018-02-21T13:33:34Z</time>
      </trkpt>
      <trkpt lat="44.31976" lon="5.13398">
        <ele>380</ele>
        <time>2018-02-21T13:33:36Z</time>
      </trkpt>
      <trkpt lat="44.3197" lon="5.13385">
        <ele>380</ele>
        <time>2018-02-21T13:33:38Z</time>
      </trkpt>
      <trkpt lat="44.31963" lon="5.13365">
        <ele>380</ele>
        <time>2018-02-21T13:33:41Z</time>
      </trkpt>
      <trkpt lat="44.31963" lon="5.13342">
        <ele>380</ele>
        <time>2018-02-21T13:33:44Z</time>
      </trkpt>
      <trkpt lat="44.31968" lon="5.13318">
        <ele>380</ele>
        <time>2018-02-21T13:33:46Z</time>
      </trkpt>
      <trkpt lat="44.31977" lon="5.13304">
        <ele>380</ele>
        <time>2018-02-21T13:33:48Z</time>
      </trkpt>
      <trkpt lat="44.31983" lon="5.13293">
        <ele>379</ele>
        <time>2018-02-21T13:33:50Z</time>
      </trkpt>
      <trkpt lat="44.31977" lon="5.13273">
        <ele>377</ele>
        <time>2018-02-21T13:33:53Z</time>
      </trkpt>
      <trkpt lat="44.31963" lon="5.13261">
        <ele>377</ele>
        <time>2018-02-21T13:33:57Z</time>
      </trkpt>
      <trkpt lat="44.31953" lon="5.13253">
        <ele>377</ele>
        <time>2018-02-21T13:33:59Z</time>
      </trkpt>
      <trkpt lat="44.31942" lon="5.13234">
        <ele>377</ele>
        <time>2018-02-21T13:34:02Z</time>
      </trkpt>
      <trkpt lat="44.31937" lon="5.13219">
        <ele>378</ele>
        <time>2018-02-21T13:34:04Z</time>
      </trkpt>
      <trkpt lat="44.3193" lon="5.13197">
        <ele>378</ele>
        <time>2018-02-21T13:34:06Z</time>
      </trkpt>
      <trkpt lat="44.31929" lon="5.13182">
        <ele>379</ele>
        <time>2018-02-21T13:34:09Z</time>
      </trkpt>
      <trkpt lat="44.31932" lon="5.13159">
        <ele>380</ele>
        <time>2018-02-21T13:34:12Z</time>
      </trkpt>
      <trkpt lat="44.31935" lon="5.13134">
        <ele>381</ele>
        <time>2018-02-21T13:34:15Z</time>
      </trkpt>
      <trkpt lat="44.31937" lon="5.13108">
        <ele>381</ele>
        <time>2018-02-21T13:34:18Z</time>
      </trkpt>
      <trkpt lat="44.31938" lon="5.1308">
        <ele>381</ele>
        <time>2018-02-21T13:34:21Z</time>
      </trkpt>
      <trkpt lat="44.31941" lon="5.13052">
        <ele>381</ele>
        <time>2018-02-21T13:34:24Z</time>
      </trkpt>
      <trkpt lat="44.31944" lon="5.13033">
        <ele>381</ele>
        <time>2018-02-21T13:34:26Z</time>
      </trkpt>
      <trkpt lat="44.31947" lon="5.13002">
        <ele>381</ele>
        <time>2018-02-21T13:34:29Z</time>
      </trkpt>
      <trkpt lat="44.31947" lon="5.1297">
        <ele>381</ele>
        <time>2018-02-21T13:34:32Z</time>
      </trkpt>
      <trkpt lat="44.31947" lon="5.12938">
        <ele>381</ele>
        <time>2018-02-21T13:34:35Z</time>
      </trkpt>
      <trkpt lat="44.31949" lon="5.12906">
        <ele>381</ele>
        <time>2018-02-21T13:34:38Z</time>
      </trkpt>
      <trkpt lat="44.31952" lon="5.12876">
        <ele>380</ele>
        <time>2018-02-21T13:34:41Z</time>
      </trkpt>
      <trkpt lat="44.31952" lon="5.12846">
        <ele>379</ele>
        <time>2018-02-21T13:34:44Z</time>
      </trkpt>
      <trkpt lat="44.31955" lon="5.12814">
        <ele>378</ele>
        <time>2018-02-21T13:34:46Z</time>
      </trkpt>
      <trkpt lat="44.31955" lon="5.12793">
        <ele>376</ele>
        <time>2018-02-21T13:34:49Z</time>
      </trkpt>
      <trkpt lat="44.31955" lon="5.12772">
        <ele>376</ele>
        <time>2018-02-21T13:34:51Z</time>
      </trkpt>
      <trkpt lat="44.31955" lon="5.1274">
        <ele>375</ele>
        <time>2018-02-21T13:34:53Z</time>
      </trkpt>
      <trkpt lat="44.31956" lon="5.12719">
        <ele>376</ele>
        <time>2018-02-21T13:34:55Z</time>
      </trkpt>
      <trkpt lat="44.31961" lon="5.12697">
        <ele>376</ele>
        <time>2018-02-21T13:34:58Z</time>
      </trkpt>
      <trkpt lat="44.31971" lon="5.12667">
        <ele>374</ele>
        <time>2018-02-21T13:35:01Z</time>
      </trkpt>
      <trkpt lat="44.31965" lon="5.12636">
        <ele>371</ele>
        <time>2018-02-21T13:35:04Z</time>
      </trkpt>
      <trkpt lat="44.31948" lon="5.12608">
        <ele>368</ele>
        <time>2018-02-21T13:35:06Z</time>
      </trkpt>
      <trkpt lat="44.31931" lon="5.12578">
        <ele>366</ele>
        <time>2018-02-21T13:35:10Z</time>
      </trkpt>
      <trkpt lat="44.31924" lon="5.12539">
        <ele>365</ele>
        <time>2018-02-21T13:35:12Z</time>
      </trkpt>
      <trkpt lat="44.31919" lon="5.12498">
        <ele>363</ele>
        <time>2018-02-21T13:35:15Z</time>
      </trkpt>
      <trkpt lat="44.31914" lon="5.12455">
        <ele>362</ele>
        <time>2018-02-21T13:35:18Z</time>
      </trkpt>
      <trkpt lat="44.319" lon="5.12415">
        <ele>361</ele>
        <time>2018-02-21T13:35:21Z</time>
      </trkpt>
      <trkpt lat="44.31882" lon="5.12373">
        <ele>359</ele>
        <time>2018-02-21T13:35:25Z</time>
      </trkpt>
      <trkpt lat="44.31865" lon="5.12329">
        <ele>356</ele>
        <time>2018-02-21T13:35:27Z</time>
      </trkpt>
      <trkpt lat="44.31858" lon="5.12297">
        <ele>355</ele>
        <time>2018-02-21T13:35:30Z</time>
      </trkpt>
      <trkpt lat="44.31852" lon="5.12247">
        <ele>353</ele>
        <time>2018-02-21T13:35:33Z</time>
      </trkpt>
      <trkpt lat="44.31851" lon="5.12214">
        <ele>352</ele>
        <time>2018-02-21T13:35:35Z</time>
      </trkpt>
      <trkpt lat="44.31849" lon="5.12165">
        <ele>350</ele>
        <time>2018-02-21T13:35:37Z</time>
      </trkpt>
      <trkpt lat="44.31846" lon="5.12119">
        <ele>346</ele>
        <time>2018-02-21T13:35:40Z</time>
      </trkpt>
      <trkpt lat="44.3184" lon="5.12077">
        <ele>344</ele>
        <time>2018-02-21T13:35:43Z</time>
      </trkpt>
      <trkpt lat="44.31832" lon="5.12035">
        <ele>343</ele>
        <time>2018-02-21T13:35:47Z</time>
      </trkpt>
      <trkpt lat="44.31825" lon="5.11993">
        <ele>343</ele>
        <time>2018-02-21T13:35:50Z</time>
      </trkpt>
      <trkpt lat="44.31815" lon="5.11953">
        <ele>342</ele>
        <time>2018-02-21T13:35:52Z</time>
      </trkpt>
      <trkpt lat="44.31802" lon="5.11918">
        <ele>341</ele>
        <time>2018-02-21T13:35:56Z</time>
      </trkpt>
      <trkpt lat="44.31795" lon="5.11894">
        <ele>340</ele>
        <time>2018-02-21T13:35:58Z</time>
      </trkpt>
      <trkpt lat="44.31787" lon="5.1186">
        <ele>339</ele>
        <time>2018-02-21T13:36:01Z</time>
      </trkpt>
      <trkpt lat="44.31775" lon="5.11829">
        <ele>338</ele>
        <time>2018-02-21T13:36:04Z</time>
      </trkpt>
      <trkpt lat="44.31761" lon="5.11798">
        <ele>337</ele>
        <time>2018-02-21T13:36:07Z</time>
      </trkpt>
      <trkpt lat="44.31745" lon="5.11764">
        <ele>336</ele>
        <time>2018-02-21T13:36:09Z</time>
      </trkpt>
      <trkpt lat="44.31725" lon="5.11731">
        <ele>335</ele>
        <time>2018-02-21T13:36:13Z</time>
      </trkpt>
      <trkpt lat="44.31706" lon="5.11697">
        <ele>334</ele>
        <time>2018-02-21T13:36:15Z</time>
      </trkpt>
      <trkpt lat="44.31701" lon="5.11654">
        <ele>332</ele>
        <time>2018-02-21T13:36:18Z</time>
      </trkpt>
      <trkpt lat="44.31702" lon="5.11611">
        <ele>332</ele>
        <time>2018-02-21T13:36:21Z</time>
      </trkpt>
      <trkpt lat="44.31708" lon="5.11585">
        <ele>330</ele>
        <time>2018-02-21T13:36:24Z</time>
      </trkpt>
      <trkpt lat="44.31714" lon="5.11559">
        <ele>329</ele>
        <time>2018-02-21T13:36:26Z</time>
      </trkpt>
      <trkpt lat="44.31721" lon="5.11521">
        <ele>328</ele>
        <time>2018-02-21T13:36:28Z</time>
      </trkpt>
      <trkpt lat="44.31722" lon="5.11495">
        <ele>326</ele>
        <time>2018-02-21T13:36:30Z</time>
      </trkpt>
      <trkpt lat="44.31722" lon="5.11468">
        <ele>325</ele>
        <time>2018-02-21T13:36:33Z</time>
      </trkpt>
      <trkpt lat="44.31721" lon="5.11426">
        <ele>322</ele>
        <time>2018-02-21T13:36:36Z</time>
      </trkpt>
      <trkpt lat="44.3172" lon="5.11382">
        <ele>320</ele>
        <time>2018-02-21T13:36:39Z</time>
      </trkpt>
      <trkpt lat="44.3172" lon="5.11336">
        <ele>319</ele>
        <time>2018-02-21T13:36:42Z</time>
      </trkpt>
      <trkpt lat="44.31723" lon="5.1129">
        <ele>319</ele>
        <time>2018-02-21T13:36:45Z</time>
      </trkpt>
      <trkpt lat="44.31731" lon="5.11245">
        <ele>319</ele>
        <time>2018-02-21T13:36:48Z</time>
      </trkpt>
      <trkpt lat="44.31741" lon="5.11218">
        <ele>318</ele>
        <time>2018-02-21T13:36:50Z</time>
      </trkpt>
      <trkpt lat="44.31756" lon="5.11181">
        <ele>316</ele>
        <time>2018-02-21T13:36:52Z</time>
      </trkpt>
      <trkpt lat="44.31754" lon="5.11154">
        <ele>312</ele>
        <time>2018-02-21T13:36:54Z</time>
      </trkpt>
      <trkpt lat="44.31747" lon="5.11128">
        <ele>310</ele>
        <time>2018-02-21T13:36:56Z</time>
      </trkpt>
      <trkpt lat="44.31738" lon="5.11091">
        <ele>306</ele>
        <time>2018-02-21T13:36:59Z</time>
      </trkpt>
      <trkpt lat="44.31733" lon="5.11069">
        <ele>304</ele>
        <time>2018-02-21T13:37:02Z</time>
      </trkpt>
      <trkpt lat="44.31724" lon="5.11036">
        <ele>302</ele>
        <time>2018-02-21T13:37:05Z</time>
      </trkpt>
      <trkpt lat="44.31715" lon="5.11004">
        <ele>302</ele>
        <time>2018-02-21T13:37:07Z</time>
      </trkpt>
      <trkpt lat="44.3171" lon="5.10983">
        <ele>301</ele>
        <time>2018-02-21T13:37:10Z</time>
      </trkpt>
      <trkpt lat="44.31706" lon="5.10951">
        <ele>302</ele>
        <time>2018-02-21T13:37:12Z</time>
      </trkpt>
      <trkpt lat="44.31707" lon="5.1092">
        <ele>304</ele>
        <time>2018-02-21T13:37:15Z</time>
      </trkpt>
      <trkpt lat="44.3171" lon="5.10892">
        <ele>306</ele>
        <time>2018-02-21T13:37:18Z</time>
      </trkpt>
      <trkpt lat="44.31712" lon="5.10866">
        <ele>306</ele>
        <time>2018-02-21T13:37:22Z</time>
      </trkpt>
      <trkpt lat="44.31715" lon="5.10841">
        <ele>305</ele>
        <time>2018-02-21T13:37:24Z</time>
      </trkpt>
      <trkpt lat="44.31717" lon="5.10823">
        <ele>304</ele>
        <time>2018-02-21T13:37:27Z</time>
      </trkpt>
      <trkpt lat="44.3172" lon="5.10798">
        <ele>304</ele>
        <time>2018-02-21T13:37:30Z</time>
      </trkpt>
      <trkpt lat="44.31723" lon="5.10772">
        <ele>303</ele>
        <time>2018-02-21T13:37:33Z</time>
      </trkpt>
      <trkpt lat="44.31725" lon="5.10755">
        <ele>303</ele>
        <time>2018-02-21T13:37:35Z</time>
      </trkpt>
      <trkpt lat="44.31728" lon="5.10729">
        <ele>303</ele>
        <time>2018-02-21T13:37:37Z</time>
      </trkpt>
      <trkpt lat="44.31731" lon="5.107">
        <ele>303</ele>
        <time>2018-02-21T13:37:41Z</time>
      </trkpt>
      <trkpt lat="44.31735" lon="5.10667">
        <ele>302</ele>
        <time>2018-02-21T13:37:44Z</time>
      </trkpt>
      <trkpt lat="44.31736" lon="5.10631">
        <ele>302</ele>
        <time>2018-02-21T13:37:46Z</time>
      </trkpt>
      <trkpt lat="44.31734" lon="5.10594">
        <ele>301</ele>
        <time>2018-02-21T13:37:49Z</time>
      </trkpt>
      <trkpt lat="44.31726" lon="5.10555">
        <ele>299</ele>
        <time>2018-02-21T13:37:53Z</time>
      </trkpt>
      <trkpt lat="44.31719" lon="5.10517">
        <ele>298</ele>
        <time>2018-02-21T13:37:55Z</time>
      </trkpt>
      <trkpt lat="44.31714" lon="5.10496">
        <ele>296</ele>
        <time>2018-02-21T13:37:57Z</time>
      </trkpt>
      <trkpt lat="44.31709" lon="5.10476">
        <ele>295</ele>
        <time>2018-02-21T13:37:59Z</time>
      </trkpt>
      <trkpt lat="44.31697" lon="5.10446">
        <ele>293</ele>
        <time>2018-02-21T13:38:02Z</time>
      </trkpt>
      <trkpt lat="44.31688" lon="5.10426">
        <ele>293</ele>
        <time>2018-02-21T13:38:05Z</time>
      </trkpt>
      <trkpt lat="44.31673" lon="5.10395">
        <ele>291</ele>
        <time>2018-02-21T13:38:08Z</time>
      </trkpt>
      <trkpt lat="44.31658" lon="5.10362">
        <ele>289</ele>
        <time>2018-02-21T13:38:10Z</time>
      </trkpt>
      <trkpt lat="44.3165" lon="5.10338">
        <ele>288</ele>
        <time>2018-02-21T13:38:13Z</time>
      </trkpt>
      <trkpt lat="44.31644" lon="5.10299">
        <ele>285</ele>
        <time>2018-02-21T13:38:15Z</time>
      </trkpt>
      <trkpt lat="44.31639" lon="5.10262">
        <ele>283</ele>
        <time>2018-02-21T13:38:18Z</time>
      </trkpt>
      <trkpt lat="44.31637" lon="5.10239">
        <ele>282</ele>
        <time>2018-02-21T13:38:21Z</time>
      </trkpt>
      <trkpt lat="44.31638" lon="5.10215">
        <ele>282</ele>
        <time>2018-02-21T13:38:23Z</time>
      </trkpt>
      <trkpt lat="44.31644" lon="5.1018">
        <ele>281</ele>
        <time>2018-02-21T13:38:25Z</time>
      </trkpt>
      <trkpt lat="44.31651" lon="5.10149">
        <ele>280</ele>
        <time>2018-02-21T13:38:28Z</time>
      </trkpt>
      <trkpt lat="44.31667" lon="5.10125">
        <ele>279</ele>
        <time>2018-02-21T13:38:31Z</time>
      </trkpt>
      <trkpt lat="44.31683" lon="5.10104">
        <ele>277</ele>
        <time>2018-02-21T13:38:34Z</time>
      </trkpt>
      <trkpt lat="44.31689" lon="5.10075">
        <ele>276</ele>
        <time>2018-02-21T13:38:38Z</time>
      </trkpt>
      <trkpt lat="44.31681" lon="5.10042">
        <ele>275</ele>
        <time>2018-02-21T13:38:40Z</time>
      </trkpt>
      <trkpt lat="44.31666" lon="5.10008">
        <ele>273</ele>
        <time>2018-02-21T13:38:44Z</time>
      </trkpt>
      <trkpt lat="44.31654" lon="5.0998">
        <ele>270</ele>
        <time>2018-02-21T13:38:47Z</time>
      </trkpt>
      <trkpt lat="44.31649" lon="5.09967">
        <ele>267</ele>
        <time>2018-02-21T13:38:49Z</time>
      </trkpt>
      <trkpt lat="44.31646" lon="5.09947">
        <ele>265</ele>
        <time>2018-02-21T13:38:51Z</time>
      </trkpt>
      <trkpt lat="44.31651" lon="5.09938">
        <ele>264</ele>
        <time>2018-02-21T13:38:54Z</time>
      </trkpt>
      <trkpt lat="44.31657" lon="5.09933">
        <ele>264</ele>
        <time>2018-02-21T13:38:56Z</time>
      </trkpt>
      <trkpt lat="44.31659" lon="5.09931">
        <ele>264</ele>
        <time>2018-02-21T13:38:59Z</time>
      </trkpt>
      <trkpt lat="44.31659" lon="5.09926">
        <ele>265</ele>
        <time>2018-02-21T13:39:01Z</time>
      </trkpt>
      <trkpt lat="44.31654" lon="5.09922">
        <ele>265</ele>
        <time>2018-02-21T13:39:04Z</time>
      </trkpt>
      <trkpt lat="44.31648" lon="5.09917">
        <ele>265</ele>
        <time>2018-02-21T13:39:07Z</time>
      </trkpt>
      <trkpt lat="44.31639" lon="5.09912">
        <ele>264</ele>
        <time>2018-02-21T13:39:10Z</time>
      </trkpt>
      <trkpt lat="44.31633" lon="5.09908">
        <ele>264</ele>
        <time>2018-02-21T13:39:13Z</time>
      </trkpt>
      <trkpt lat="44.31623" lon="5.09896">
        <ele>264</ele>
        <time>2018-02-21T13:39:15Z</time>
      </trkpt>
      <trkpt lat="44.31612" lon="5.09885">
        <ele>263</ele>
        <time>2018-02-21T13:39:18Z</time>
      </trkpt>
      <trkpt lat="44.31606" lon="5.09878">
        <ele>263</ele>
        <time>2018-02-21T13:39:21Z</time>
      </trkpt>
      <trkpt lat="44.31601" lon="5.09872">
        <ele>262</ele>
        <time>2018-02-21T13:39:24Z</time>
      </trkpt>
      <trkpt lat="44.316" lon="5.09869">
        <ele>262</ele>
        <time>2018-02-21T13:39:27Z</time>
      </trkpt>
      <trkpt lat="44.31601" lon="5.09868">
        <ele>262</ele>
        <time>2018-02-21T13:39:29Z</time>
      </trkpt>
      <trkpt lat="44.31601" lon="5.09868">
        <ele>261</ele>
        <time>2018-02-21T13:39:31Z</time>
      </trkpt>
      <trkpt lat="44.31602" lon="5.09868">
        <ele>261</ele>
        <time>2018-02-21T13:39:34Z</time>
      </trkpt>
      <trkpt lat="44.31602" lon="5.09868">
        <ele>261</ele>
        <time>2018-02-21T13:39:38Z</time>
      </trkpt>
      <trkpt lat="44.31602" lon="5.09868">
        <ele>261</ele>
        <time>2018-02-21T13:39:40Z</time>
      </trkpt>
      <trkpt lat="44.31602" lon="5.09868">
        <ele>261</ele>
        <time>2018-02-21T13:39:43Z</time>
      </trkpt>
      <trkpt lat="44.31601" lon="5.09868">
        <ele>261</ele>
        <time>2018-02-21T13:39:45Z</time>
      </trkpt>
      <trkpt lat="44.31601" lon="5.09868">
        <ele>261</ele>
        <time>2018-02-21T13:39:48Z</time>
      </trkpt>
      <trkpt lat="44.31601" lon="5.09867">
        <ele>261</ele>
        <time>2018-02-21T13:39:51Z</time>
      </trkpt>
      <trkpt lat="44.31601" lon="5.09867">
        <ele>261</ele>
        <time>2018-02-21T13:39:53Z</time>
      </trkpt>
      <trkpt lat="44.31601" lon="5.09867">
        <ele>261</ele>
        <time>2018-02-21T13:39:55Z</time>
      </trkpt>
      <trkpt lat="44.31601" lon="5.09867">
        <ele>261</ele>
        <time>2018-02-21T13:39:58Z</time>
      </trkpt>
      <trkpt lat="44.31601" lon="5.09867">
        <ele>261</ele>
        <time>2018-02-21T13:40:00Z</time>
      </trkpt>
      <trkpt lat="44.31601" lon="5.09867">
        <ele>261</ele>
        <time>2018-02-21T13:40:02Z</time>
      </trkpt>
      <trkpt lat="44.316" lon="5.09868">
        <ele>261</ele>
        <time>2018-02-21T13:40:04Z</time>
      </trkpt>
      <trkpt lat="44.316" lon="5.09868">
        <ele>261</ele>
        <time>2018-02-21T13:40:06Z</time>
      </trkpt>
      <trkpt lat="44.31599" lon="5.09869">
        <ele>261</ele>
        <time>2018-02-21T13:40:09Z</time>
      </trkpt>
      <trkpt lat="44.31599" lon="5.09869">
        <ele>261</ele>
        <time>2018-02-21T13:40:11Z</time>
      </trkpt>
      <trkpt lat="44.31599" lon="5.0987">
        <ele>261</ele>
        <time>2018-02-21T13:40:13Z</time>
      </trkpt>
      <trkpt lat="44.31598" lon="5.0987">
        <ele>261</ele>
        <time>2018-02-21T13:40:16Z</time>
      </trkpt>
      <trkpt lat="44.31598" lon="5.0987">
        <ele>261</ele>
        <time>2018-02-21T13:40:18Z</time>
      </trkpt>
      <trkpt lat="44.31598" lon="5.09871">
        <ele>261</ele>
        <time>2018-02-21T13:40:20Z</time>
      </trkpt>
      <trkpt lat="44.31597" lon="5.09871">
        <ele>261</ele>
        <time>2018-02-21T13:40:23Z</time>
      </trkpt>
      <trkpt lat="44.31597" lon="5.09872">
        <ele>261</ele>
        <time>2018-02-21T13:40:26Z</time>
      </trkpt>
      <trkpt lat="44.31597" lon="5.09872">
        <ele>261</ele>
        <time>2018-02-21T13:40:33Z</time>
      </trkpt>
      <trkpt lat="44.31597" lon="5.09871">
        <ele>261</ele>
        <time>2018-02-21T13:40:35Z</time>
      </trkpt>
      <trkpt lat="44.31597" lon="5.09871">
        <ele>261</ele>
        <time>2018-02-21T13:40:38Z</time>
      </trkpt>
      <trkpt lat="44.31598" lon="5.09871">
        <ele>261</ele>
        <time>2018-02-21T13:40:41Z</time>
      </trkpt>
      <trkpt lat="44.31598" lon="5.09871">
        <ele>261</ele>
        <time>2018-02-21T13:40:43Z</time>
      </trkpt>
      <trkpt lat="44.31598" lon="5.09871">
        <ele>261</ele>
        <time>2018-02-21T13:40:47Z</time>
      </trkpt>
      <trkpt lat="44.31598" lon="5.09871">
        <ele>261</ele>
        <time>2018-02-21T13:40:49Z</time>
      </trkpt>
      <trkpt lat="44.31599" lon="5.09871">
        <ele>261</ele>
        <time>2018-02-21T13:40:53Z</time>
      </trkpt>
      <trkpt lat="44.31599" lon="5.0987">
        <ele>261</ele>
        <time>2018-02-21T13:40:55Z</time>
      </trkpt>
      <trkpt lat="44.31599" lon="5.0987">
        <ele>261</ele>
        <time>2018-02-21T13:41:03Z</time>
      </trkpt>
      <trkpt lat="44.31599" lon="5.0987">
        <ele>261</ele>
        <time>2018-02-21T13:41:12Z</time>
      </trkpt>
      <trkpt lat="44.31599" lon="5.09871">
        <ele>261</ele>
        <time>2018-02-21T13:41:14Z</time>
      </trkpt>
      <trkpt lat="44.31599" lon="5.09871">
        <ele>261</ele>
        <time>2018-02-21T13:41:16Z</time>
      </trkpt>
      <trkpt lat="44.31599" lon="5.09871">
        <ele>261</ele>
        <time>2018-02-21T13:41:20Z</time>
      </trkpt>
      <trkpt lat="44.31599" lon="5.09871">
        <ele>261</ele>
        <time>2018-02-21T13:41:23Z</time>
      </trkpt>
      <trkpt lat="44.31598" lon="5.09871">
        <ele>261</ele>
        <time>2018-02-21T13:41:25Z</time>
      </trkpt>
      <trkpt lat="44.31598" lon="5.09871">
        <ele>261</ele>
        <time>2018-02-21T13:41:28Z</time>
      </trkpt>
      <trkpt lat="44.31598" lon="5.09872">
        <ele>261</ele>
        <time>2018-02-21T13:41:30Z</time>
      </trkpt>
      <trkpt lat="44.31598" lon="5.09872">
        <ele>261</ele>
        <time>2018-02-21T13:41:32Z</time>
      </trkpt>
      <trkpt lat="44.31598" lon="5.09872">
        <ele>261</ele>
        <time>2018-02-21T13:41:34Z</time>
      </trkpt>
      <trkpt lat="44.31598" lon="5.09872">
        <ele>261</ele>
        <time>2018-02-21T13:41:40Z</time>
      </trkpt>
      <trkpt lat="44.31598" lon="5.09872">
        <ele>261</ele>
        <time>2018-02-21T13:41:43Z</time>
      </trkpt>
      <trkpt lat="44.31598" lon="5.09871">
        <ele>261</ele>
        <time>2018-02-21T13:41:45Z</time>
      </trkpt>
      <trkpt lat="44.31598" lon="5.09871">
        <ele>261</ele>
        <time>2018-02-21T13:41:49Z</time>
      </trkpt>
      <trkpt lat="44.31598" lon="5.09871">
        <ele>261</ele>
        <time>2018-02-21T13:41:51Z</time>
      </trkpt>
      <trkpt lat="44.31598" lon="5.09871">
        <ele>261</ele>
        <time>2018-02-21T13:41:53Z</time>
      </trkpt>
      <trkpt lat="44.31599" lon="5.0987">
        <ele>260</ele>
        <time>2018-02-21T13:41:56Z</time>
      </trkpt>
      <trkpt lat="44.31599" lon="5.0987">
        <ele>260</ele>
        <time>2018-02-21T13:41:59Z</time>
      </trkpt>
      <trkpt lat="44.31599" lon="5.09869">
        <ele>261</ele>
        <time>2018-02-21T13:42:01Z</time>
      </trkpt>
      <trkpt lat="44.316" lon="5.09869">
        <ele>261</ele>
        <time>2018-02-21T13:42:03Z</time>
      </trkpt>
      <trkpt lat="44.316" lon="5.09869">
        <ele>261</ele>
        <time>2018-02-21T13:42:06Z</time>
      </trkpt>
      <trkpt lat="44.316" lon="5.09869">
        <ele>261</ele>
        <time>2018-02-21T13:42:09Z</time>
      </trkpt>
      <trkpt lat="44.316" lon="5.09869">
        <ele>260</ele>
        <time>2018-02-21T13:42:12Z</time>
      </trkpt>
      <trkpt lat="44.316" lon="5.09869">
        <ele>260</ele>
        <time>2018-02-21T13:42:15Z</time>
      </trkpt>
      <trkpt lat="44.316" lon="5.0987">
        <ele>261</ele>
        <time>2018-02-21T13:42:17Z</time>
      </trkpt>
      <trkpt lat="44.316" lon="5.09869">
        <ele>261</ele>
        <time>2018-02-21T13:42:19Z</time>
      </trkpt>
      <trkpt lat="44.31601" lon="5.09869">
        <ele>261</ele>
        <time>2018-02-21T13:42:22Z</time>
      </trkpt>
      <trkpt lat="44.31601" lon="5.09869">
        <ele>261</ele>
        <time>2018-02-21T13:42:24Z</time>
      </trkpt>
      <trkpt lat="44.31601" lon="5.09869">
        <ele>261</ele>
        <time>2018-02-21T13:42:28Z</time>
      </trkpt>
      <trkpt lat="44.31601" lon="5.09869">
        <ele>261</ele>
        <time>2018-02-21T13:42:35Z</time>
      </trkpt>
      <trkpt lat="44.31601" lon="5.09869">
        <ele>261</ele>
        <time>2018-02-21T13:42:39Z</time>
      </trkpt>
      <trkpt lat="44.31601" lon="5.0987">
        <ele>261</ele>
        <time>2018-02-21T13:42:42Z</time>
      </trkpt>
      <trkpt lat="44.316" lon="5.0987">
        <ele>262</ele>
        <time>2018-02-21T13:42:44Z</time>
      </trkpt>
      <trkpt lat="44.316" lon="5.0987">
        <ele>262</ele>
        <time>2018-02-21T13:42:46Z</time>
      </trkpt>
      <trkpt lat="44.316" lon="5.0987">
        <ele>262</ele>
        <time>2018-02-21T13:42:48Z</time>
      </trkpt>
      <trkpt lat="44.316" lon="5.0987">
        <ele>262</ele>
        <time>2018-02-21T13:42:51Z</time>
      </trkpt>
      <trkpt lat="44.316" lon="5.09871">
        <ele>261</ele>
        <time>2018-02-21T13:42:53Z</time>
      </trkpt>
      <trkpt lat="44.316" lon="5.09871">
        <ele>261</ele>
        <time>2018-02-21T13:42:55Z</time>
      </trkpt>
      <trkpt lat="44.316" lon="5.09871">
        <ele>262</ele>
        <time>2018-02-21T13:43:00Z</time>
      </trkpt>
      <trkpt lat="44.31599" lon="5.09871">
        <ele>262</ele>
        <time>2018-02-21T13:43:02Z</time>
      </trkpt>
      <trkpt lat="44.31599" lon="5.09871">
        <ele>262</ele>
        <time>2018-02-21T13:43:04Z</time>
      </trkpt>
      <trkpt lat="44.31599" lon="5.09871">
        <ele>263</ele>
        <time>2018-02-21T13:43:07Z</time>
      </trkpt>
      <trkpt lat="44.31597" lon="5.0987">
        <ele>263</ele>
        <time>2018-02-21T13:43:09Z</time>
      </trkpt>
      <trkpt lat="44.31593" lon="5.09867">
        <ele>263</ele>
        <time>2018-02-21T13:43:11Z</time>
      </trkpt>
      <trkpt lat="44.31589" lon="5.09863">
        <ele>262</ele>
        <time>2018-02-21T13:43:14Z</time>
      </trkpt>
      <trkpt lat="44.31581" lon="5.09853">
        <ele>262</ele>
        <time>2018-02-21T13:43:16Z</time>
      </trkpt>
      <trkpt lat="44.31571" lon="5.09842">
        <ele>261</ele>
        <time>2018-02-21T13:43:19Z</time>
      </trkpt>
      <trkpt lat="44.31561" lon="5.09827">
        <ele>261</ele>
        <time>2018-02-21T13:43:22Z</time>
      </trkpt>
      <trkpt lat="44.31549" lon="5.09816">
        <ele>260</ele>
        <time>2018-02-21T13:43:25Z</time>
      </trkpt>
      <trkpt lat="44.31533" lon="5.09818">
        <ele>259</ele>
        <time>2018-02-21T13:43:28Z</time>
      </trkpt>
      <trkpt lat="44.31522" lon="5.09817">
        <ele>258</ele>
        <time>2018-02-21T13:43:30Z</time>
      </trkpt>
      <trkpt lat="44.31504" lon="5.09808">
        <ele>258</ele>
        <time>2018-02-21T13:43:33Z</time>
      </trkpt>
      <trkpt lat="44.31491" lon="5.09799">
        <ele>258</ele>
        <time>2018-02-21T13:43:35Z</time>
      </trkpt>
      <trkpt lat="44.31477" lon="5.09789">
        <ele>258</ele>
        <time>2018-02-21T13:43:38Z</time>
      </trkpt>
      <trkpt lat="44.31456" lon="5.09773">
        <ele>258</ele>
        <time>2018-02-21T13:43:40Z</time>
      </trkpt>
      <trkpt lat="44.31435" lon="5.09757">
        <ele>257</ele>
        <time>2018-02-21T13:43:43Z</time>
      </trkpt>
      <trkpt lat="44.31414" lon="5.09743">
        <ele>257</ele>
        <time>2018-02-21T13:43:46Z</time>
      </trkpt>
      <trkpt lat="44.31393" lon="5.09738">
        <ele>257</ele>
        <time>2018-02-21T13:43:49Z</time>
      </trkpt>
      <trkpt lat="44.31373" lon="5.09735">
        <ele>257</ele>
        <time>2018-02-21T13:43:52Z</time>
      </trkpt>
      <trkpt lat="44.31354" lon="5.09732">
        <ele>258</ele>
        <time>2018-02-21T13:43:55Z</time>
      </trkpt>
      <trkpt lat="44.31338" lon="5.09729">
        <ele>258</ele>
        <time>2018-02-21T13:43:58Z</time>
      </trkpt>
      <trkpt lat="44.31324" lon="5.09725">
        <ele>258</ele>
        <time>2018-02-21T13:44:01Z</time>
      </trkpt>
      <trkpt lat="44.31316" lon="5.09723">
        <ele>258</ele>
        <time>2018-02-21T13:44:04Z</time>
      </trkpt>
      <trkpt lat="44.31306" lon="5.09715">
        <ele>259</ele>
        <time>2018-02-21T13:44:06Z</time>
      </trkpt>
      <trkpt lat="44.31305" lon="5.09706">
        <ele>259</ele>
        <time>2018-02-21T13:44:08Z</time>
      </trkpt>
      <trkpt lat="44.31311" lon="5.0969">
        <ele>260</ele>
        <time>2018-02-21T13:44:11Z</time>
      </trkpt>
      <trkpt lat="44.31315" lon="5.09677">
        <ele>260</ele>
        <time>2018-02-21T13:44:13Z</time>
      </trkpt>
      <trkpt lat="44.31324" lon="5.09658">
        <ele>260</ele>
        <time>2018-02-21T13:44:16Z</time>
      </trkpt>
      <trkpt lat="44.31334" lon="5.09638">
        <ele>260</ele>
        <time>2018-02-21T13:44:19Z</time>
      </trkpt>
      <trkpt lat="44.31345" lon="5.09617">
        <ele>259</ele>
        <time>2018-02-21T13:44:22Z</time>
      </trkpt>
      <trkpt lat="44.31358" lon="5.09597">
        <ele>259</ele>
        <time>2018-02-21T13:44:25Z</time>
      </trkpt>
      <trkpt lat="44.31371" lon="5.09579">
        <ele>258</ele>
        <time>2018-02-21T13:44:28Z</time>
      </trkpt>
      <trkpt lat="44.31381" lon="5.09567">
        <ele>259</ele>
        <time>2018-02-21T13:44:31Z</time>
      </trkpt>
      <trkpt lat="44.31395" lon="5.09551">
        <ele>259</ele>
        <time>2018-02-21T13:44:33Z</time>
      </trkpt>
      <trkpt lat="44.31409" lon="5.09536">
        <ele>258</ele>
        <time>2018-02-21T13:44:36Z</time>
      </trkpt>
      <trkpt lat="44.31422" lon="5.09521">
        <ele>257</ele>
        <time>2018-02-21T13:44:39Z</time>
      </trkpt>
      <trkpt lat="44.31436" lon="5.09507">
        <ele>257</ele>
        <time>2018-02-21T13:44:42Z</time>
      </trkpt>
      <trkpt lat="44.3145" lon="5.09492">
        <ele>257</ele>
        <time>2018-02-21T13:44:45Z</time>
      </trkpt>
      <trkpt lat="44.31463" lon="5.09477">
        <ele>256</ele>
        <time>2018-02-21T13:44:48Z</time>
      </trkpt>
      <trkpt lat="44.31477" lon="5.09462">
        <ele>256</ele>
        <time>2018-02-21T13:44:51Z</time>
      </trkpt>
      <trkpt lat="44.31491" lon="5.09446">
        <ele>255</ele>
        <time>2018-02-21T13:44:54Z</time>
      </trkpt>
      <trkpt lat="44.315" lon="5.09437">
        <ele>255</ele>
        <time>2018-02-21T13:44:56Z</time>
      </trkpt>
      <trkpt lat="44.31514" lon="5.09422">
        <ele>255</ele>
        <time>2018-02-21T13:44:59Z</time>
      </trkpt>
      <trkpt lat="44.31528" lon="5.09408">
        <ele>255</ele>
        <time>2018-02-21T13:45:02Z</time>
      </trkpt>
      <trkpt lat="44.31538" lon="5.09399">
        <ele>254</ele>
        <time>2018-02-21T13:45:04Z</time>
      </trkpt>
      <trkpt lat="44.31553" lon="5.09383">
        <ele>253</ele>
        <time>2018-02-21T13:45:07Z</time>
      </trkpt>
      <trkpt lat="44.31568" lon="5.09368">
        <ele>253</ele>
        <time>2018-02-21T13:45:10Z</time>
      </trkpt>
      <trkpt lat="44.31584" lon="5.09354">
        <ele>253</ele>
        <time>2018-02-21T13:45:13Z</time>
      </trkpt>
      <trkpt lat="44.31601" lon="5.09341">
        <ele>252</ele>
        <time>2018-02-21T13:45:16Z</time>
      </trkpt>
      <trkpt lat="44.31618" lon="5.09328">
        <ele>252</ele>
        <time>2018-02-21T13:45:19Z</time>
      </trkpt>
      <trkpt lat="44.31629" lon="5.0932">
        <ele>252</ele>
        <time>2018-02-21T13:45:22Z</time>
      </trkpt>
      <trkpt lat="44.31646" lon="5.09308">
        <ele>252</ele>
        <time>2018-02-21T13:45:24Z</time>
      </trkpt>
      <trkpt lat="44.31657" lon="5.093">
        <ele>252</ele>
        <time>2018-02-21T13:45:26Z</time>
      </trkpt>
      <trkpt lat="44.31673" lon="5.09289">
        <ele>252</ele>
        <time>2018-02-21T13:45:29Z</time>
      </trkpt>
      <trkpt lat="44.31689" lon="5.09278">
        <ele>252</ele>
        <time>2018-02-21T13:45:32Z</time>
      </trkpt>
      <trkpt lat="44.31704" lon="5.09267">
        <ele>253</ele>
        <time>2018-02-21T13:45:35Z</time>
      </trkpt>
      <trkpt lat="44.3172" lon="5.09255">
        <ele>253</ele>
        <time>2018-02-21T13:45:38Z</time>
      </trkpt>
      <trkpt lat="44.31735" lon="5.0924">
        <ele>254</ele>
        <time>2018-02-21T13:45:41Z</time>
      </trkpt>
      <trkpt lat="44.31745" lon="5.09231">
        <ele>254</ele>
        <time>2018-02-21T13:45:43Z</time>
      </trkpt>
      <trkpt lat="44.31755" lon="5.09221">
        <ele>255</ele>
        <time>2018-02-21T13:45:46Z</time>
      </trkpt>
      <trkpt lat="44.31768" lon="5.09203">
        <ele>255</ele>
        <time>2018-02-21T13:45:48Z</time>
      </trkpt>
      <trkpt lat="44.31776" lon="5.0918">
        <ele>256</ele>
        <time>2018-02-21T13:45:51Z</time>
      </trkpt>
      <trkpt lat="44.3178" lon="5.09156">
        <ele>256</ele>
        <time>2018-02-21T13:45:54Z</time>
      </trkpt>
      <trkpt lat="44.31783" lon="5.0914">
        <ele>255</ele>
        <time>2018-02-21T13:45:56Z</time>
      </trkpt>
      <trkpt lat="44.31792" lon="5.09118">
        <ele>255</ele>
        <time>2018-02-21T13:45:59Z</time>
      </trkpt>
      <trkpt lat="44.31805" lon="5.09099">
        <ele>254</ele>
        <time>2018-02-21T13:46:02Z</time>
      </trkpt>
      <trkpt lat="44.31818" lon="5.09082">
        <ele>254</ele>
        <time>2018-02-21T13:46:05Z</time>
      </trkpt>
      <trkpt lat="44.31827" lon="5.09071">
        <ele>255</ele>
        <time>2018-02-21T13:46:07Z</time>
      </trkpt>
      <trkpt lat="44.31837" lon="5.0906">
        <ele>255</ele>
        <time>2018-02-21T13:46:10Z</time>
      </trkpt>
      <trkpt lat="44.3185" lon="5.09042">
        <ele>255</ele>
        <time>2018-02-21T13:46:12Z</time>
      </trkpt>
      <trkpt lat="44.31862" lon="5.09021">
        <ele>256</ele>
        <time>2018-02-21T13:46:15Z</time>
      </trkpt>
      <trkpt lat="44.31866" lon="5.09003">
        <ele>256</ele>
        <time>2018-02-21T13:46:17Z</time>
      </trkpt>
      <trkpt lat="44.31868" lon="5.08976">
        <ele>256</ele>
        <time>2018-02-21T13:46:20Z</time>
      </trkpt>
      <trkpt lat="44.31869" lon="5.08948">
        <ele>255</ele>
        <time>2018-02-21T13:46:23Z</time>
      </trkpt>
      <trkpt lat="44.31868" lon="5.08919">
        <ele>255</ele>
        <time>2018-02-21T13:46:26Z</time>
      </trkpt>
      <trkpt lat="44.31867" lon="5.089">
        <ele>256</ele>
        <time>2018-02-21T13:46:28Z</time>
      </trkpt>
      <trkpt lat="44.31867" lon="5.08872">
        <ele>256</ele>
        <time>2018-02-21T13:46:31Z</time>
      </trkpt>
      <trkpt lat="44.31866" lon="5.08853">
        <ele>256</ele>
        <time>2018-02-21T13:46:33Z</time>
      </trkpt>
      <trkpt lat="44.31865" lon="5.08826">
        <ele>256</ele>
        <time>2018-02-21T13:46:36Z</time>
      </trkpt>
      <trkpt lat="44.31865" lon="5.088">
        <ele>256</ele>
        <time>2018-02-21T13:46:39Z</time>
      </trkpt>
      <trkpt lat="44.31864" lon="5.08774">
        <ele>254</ele>
        <time>2018-02-21T13:46:42Z</time>
      </trkpt>
      <trkpt lat="44.3186" lon="5.08749">
        <ele>252</ele>
        <time>2018-02-21T13:46:45Z</time>
      </trkpt>
      <trkpt lat="44.31855" lon="5.08724">
        <ele>250</ele>
        <time>2018-02-21T13:46:48Z</time>
      </trkpt>
      <trkpt lat="44.31849" lon="5.08707">
        <ele>251</ele>
        <time>2018-02-21T13:46:50Z</time>
      </trkpt>
      <trkpt lat="44.31842" lon="5.08683">
        <ele>250</ele>
        <time>2018-02-21T13:46:53Z</time>
      </trkpt>
      <trkpt lat="44.31837" lon="5.08668">
        <ele>251</ele>
        <time>2018-02-21T13:46:55Z</time>
      </trkpt>
      <trkpt lat="44.3183" lon="5.08643">
        <ele>250</ele>
        <time>2018-02-21T13:46:58Z</time>
      </trkpt>
      <trkpt lat="44.31823" lon="5.08616">
        <ele>250</ele>
        <time>2018-02-21T13:47:01Z</time>
      </trkpt>
      <trkpt lat="44.31819" lon="5.08596">
        <ele>249</ele>
        <time>2018-02-21T13:47:03Z</time>
      </trkpt>
      <trkpt lat="44.31813" lon="5.08565">
        <ele>250</ele>
        <time>2018-02-21T13:47:06Z</time>
      </trkpt>
      <trkpt lat="44.31807" lon="5.08532">
        <ele>249</ele>
        <time>2018-02-21T13:47:09Z</time>
      </trkpt>
      <trkpt lat="44.31801" lon="5.08498">
        <ele>249</ele>
        <time>2018-02-21T13:47:12Z</time>
      </trkpt>
      <trkpt lat="44.31797" lon="5.08476">
        <ele>248</ele>
        <time>2018-02-21T13:47:14Z</time>
      </trkpt>
      <trkpt lat="44.31794" lon="5.08454">
        <ele>248</ele>
        <time>2018-02-21T13:47:16Z</time>
      </trkpt>
      <trkpt lat="44.31789" lon="5.08422">
        <ele>248</ele>
        <time>2018-02-21T13:47:19Z</time>
      </trkpt>
      <trkpt lat="44.31784" lon="5.08402">
        <ele>247</ele>
        <time>2018-02-21T13:47:21Z</time>
      </trkpt>
      <trkpt lat="44.31774" lon="5.08373">
        <ele>245</ele>
        <time>2018-02-21T13:47:24Z</time>
      </trkpt>
      <trkpt lat="44.31762" lon="5.08346">
        <ele>243</ele>
        <time>2018-02-21T13:47:27Z</time>
      </trkpt>
      <trkpt lat="44.31752" lon="5.08321">
        <ele>242</ele>
        <time>2018-02-21T13:47:30Z</time>
      </trkpt>
      <trkpt lat="44.31744" lon="5.08305">
        <ele>241</ele>
        <time>2018-02-21T13:47:32Z</time>
      </trkpt>
      <trkpt lat="44.31734" lon="5.08281">
        <ele>243</ele>
        <time>2018-02-21T13:47:35Z</time>
      </trkpt>
      <trkpt lat="44.31724" lon="5.08258">
        <ele>243</ele>
        <time>2018-02-21T13:47:38Z</time>
      </trkpt>
      <trkpt lat="44.31714" lon="5.08235">
        <ele>243</ele>
        <time>2018-02-21T13:47:41Z</time>
      </trkpt>
      <trkpt lat="44.31708" lon="5.0822">
        <ele>243</ele>
        <time>2018-02-21T13:47:43Z</time>
      </trkpt>
      <trkpt lat="44.31698" lon="5.08198">
        <ele>242</ele>
        <time>2018-02-21T13:47:46Z</time>
      </trkpt>
      <trkpt lat="44.31688" lon="5.08177">
        <ele>242</ele>
        <time>2018-02-21T13:47:49Z</time>
      </trkpt>
      <trkpt lat="44.31677" lon="5.08156">
        <ele>242</ele>
        <time>2018-02-21T13:47:52Z</time>
      </trkpt>
      <trkpt lat="44.31666" lon="5.08136">
        <ele>242</ele>
        <time>2018-02-21T13:47:55Z</time>
      </trkpt>
      <trkpt lat="44.31658" lon="5.08123">
        <ele>243</ele>
        <time>2018-02-21T13:47:57Z</time>
      </trkpt>
      <trkpt lat="44.31647" lon="5.08102">
        <ele>243</ele>
        <time>2018-02-21T13:48:00Z</time>
      </trkpt>
      <trkpt lat="44.31635" lon="5.08081">
        <ele>244</ele>
        <time>2018-02-21T13:48:03Z</time>
      </trkpt>
      <trkpt lat="44.31628" lon="5.08067">
        <ele>243</ele>
        <time>2018-02-21T13:48:05Z</time>
      </trkpt>
      <trkpt lat="44.31622" lon="5.08053">
        <ele>243</ele>
        <time>2018-02-21T13:48:08Z</time>
      </trkpt>
      <trkpt lat="44.31612" lon="5.0803">
        <ele>243</ele>
        <time>2018-02-21T13:48:10Z</time>
      </trkpt>
      <trkpt lat="44.31607" lon="5.08014">
        <ele>243</ele>
        <time>2018-02-21T13:48:12Z</time>
      </trkpt>
      <trkpt lat="44.316" lon="5.07991">
        <ele>244</ele>
        <time>2018-02-21T13:48:15Z</time>
      </trkpt>
      <trkpt lat="44.31592" lon="5.07968">
        <ele>244</ele>
        <time>2018-02-21T13:48:18Z</time>
      </trkpt>
      <trkpt lat="44.31584" lon="5.07943">
        <ele>246</ele>
        <time>2018-02-21T13:48:21Z</time>
      </trkpt>
      <trkpt lat="44.31576" lon="5.07919">
        <ele>246</ele>
        <time>2018-02-21T13:48:24Z</time>
      </trkpt>
      <trkpt lat="44.3157" lon="5.07902">
        <ele>246</ele>
        <time>2018-02-21T13:48:26Z</time>
      </trkpt>
      <trkpt lat="44.31563" lon="5.07878">
        <ele>245</ele>
        <time>2018-02-21T13:48:29Z</time>
      </trkpt>
      <trkpt lat="44.31555" lon="5.07854">
        <ele>244</ele>
        <time>2018-02-21T13:48:32Z</time>
      </trkpt>
      <trkpt lat="44.31547" lon="5.0783">
        <ele>244</ele>
        <time>2018-02-21T13:48:35Z</time>
      </trkpt>
      <trkpt lat="44.3154" lon="5.07807">
        <ele>243</ele>
        <time>2018-02-21T13:48:38Z</time>
      </trkpt>
      <trkpt lat="44.31533" lon="5.07784">
        <ele>243</ele>
        <time>2018-02-21T13:48:41Z</time>
      </trkpt>
      <trkpt lat="44.31525" lon="5.0776">
        <ele>243</ele>
        <time>2018-02-21T13:48:44Z</time>
      </trkpt>
      <trkpt lat="44.31516" lon="5.07736">
        <ele>243</ele>
        <time>2018-02-21T13:48:47Z</time>
      </trkpt>
      <trkpt lat="44.31505" lon="5.07713">
        <ele>244</ele>
        <time>2018-02-21T13:48:50Z</time>
      </trkpt>
      <trkpt lat="44.31497" lon="5.07699">
        <ele>244</ele>
        <time>2018-02-21T13:48:52Z</time>
      </trkpt>
      <trkpt lat="44.31484" lon="5.07679">
        <ele>244</ele>
        <time>2018-02-21T13:48:55Z</time>
      </trkpt>
      <trkpt lat="44.31471" lon="5.07659">
        <ele>244</ele>
        <time>2018-02-21T13:48:58Z</time>
      </trkpt>
      <trkpt lat="44.31463" lon="5.07646">
        <ele>243</ele>
        <time>2018-02-21T13:49:00Z</time>
      </trkpt>
      <trkpt lat="44.31454" lon="5.07633">
        <ele>243</ele>
        <time>2018-02-21T13:49:02Z</time>
      </trkpt>
      <trkpt lat="44.31442" lon="5.07613">
        <ele>242</ele>
        <time>2018-02-21T13:49:05Z</time>
      </trkpt>
      <trkpt lat="44.3143" lon="5.07594">
        <ele>243</ele>
        <time>2018-02-21T13:49:08Z</time>
      </trkpt>
      <trkpt lat="44.31418" lon="5.07575">
        <ele>243</ele>
        <time>2018-02-21T13:49:11Z</time>
      </trkpt>
      <trkpt lat="44.31409" lon="5.07562">
        <ele>243</ele>
        <time>2018-02-21T13:49:13Z</time>
      </trkpt>
      <trkpt lat="44.31397" lon="5.07543">
        <ele>244</ele>
        <time>2018-02-21T13:49:16Z</time>
      </trkpt>
      <trkpt lat="44.31385" lon="5.07524">
        <ele>244</ele>
        <time>2018-02-21T13:49:19Z</time>
      </trkpt>
      <trkpt lat="44.31374" lon="5.07505">
        <ele>244</ele>
        <time>2018-02-21T13:49:22Z</time>
      </trkpt>
      <trkpt lat="44.31366" lon="5.07492">
        <ele>244</ele>
        <time>2018-02-21T13:49:24Z</time>
      </trkpt>
      <trkpt lat="44.31354" lon="5.07473">
        <ele>243</ele>
        <time>2018-02-21T13:49:27Z</time>
      </trkpt>
      <trkpt lat="44.31342" lon="5.07453">
        <ele>244</ele>
        <time>2018-02-21T13:49:30Z</time>
      </trkpt>
      <trkpt lat="44.3133" lon="5.07433">
        <ele>244</ele>
        <time>2018-02-21T13:49:33Z</time>
      </trkpt>
      <trkpt lat="44.31322" lon="5.07419">
        <ele>244</ele>
        <time>2018-02-21T13:49:35Z</time>
      </trkpt>
      <trkpt lat="44.31313" lon="5.07405">
        <ele>243</ele>
        <time>2018-02-21T13:49:37Z</time>
      </trkpt>
      <trkpt lat="44.31299" lon="5.07385">
        <ele>242</ele>
        <time>2018-02-21T13:49:40Z</time>
      </trkpt>
      <trkpt lat="44.31284" lon="5.07366">
        <ele>242</ele>
        <time>2018-02-21T13:49:43Z</time>
      </trkpt>
      <trkpt lat="44.31267" lon="5.0735">
        <ele>243</ele>
        <time>2018-02-21T13:49:46Z</time>
      </trkpt>
      <trkpt lat="44.3125" lon="5.07337">
        <ele>244</ele>
        <time>2018-02-21T13:49:49Z</time>
      </trkpt>
      <trkpt lat="44.31232" lon="5.07324">
        <ele>243</ele>
        <time>2018-02-21T13:49:52Z</time>
      </trkpt>
      <trkpt lat="44.31214" lon="5.0731">
        <ele>241</ele>
        <time>2018-02-21T13:49:55Z</time>
      </trkpt>
      <trkpt lat="44.31197" lon="5.07298">
        <ele>241</ele>
        <time>2018-02-21T13:49:58Z</time>
      </trkpt>
      <trkpt lat="44.31185" lon="5.0729">
        <ele>242</ele>
        <time>2018-02-21T13:50:00Z</time>
      </trkpt>
      <trkpt lat="44.31173" lon="5.07284">
        <ele>242</ele>
        <time>2018-02-21T13:50:03Z</time>
      </trkpt>
      <trkpt lat="44.31155" lon="5.07274">
        <ele>242</ele>
        <time>2018-02-21T13:50:05Z</time>
      </trkpt>
      <trkpt lat="44.31142" lon="5.07268">
        <ele>241</ele>
        <time>2018-02-21T13:50:07Z</time>
      </trkpt>
      <trkpt lat="44.31124" lon="5.07259">
        <ele>242</ele>
        <time>2018-02-21T13:50:10Z</time>
      </trkpt>
      <trkpt lat="44.31106" lon="5.07251">
        <ele>241</ele>
        <time>2018-02-21T13:50:13Z</time>
      </trkpt>
      <trkpt lat="44.31088" lon="5.07242">
        <ele>242</ele>
        <time>2018-02-21T13:50:16Z</time>
      </trkpt>
      <trkpt lat="44.3107" lon="5.07232">
        <ele>241</ele>
        <time>2018-02-21T13:50:19Z</time>
      </trkpt>
      <trkpt lat="44.31058" lon="5.07224">
        <ele>241</ele>
        <time>2018-02-21T13:50:21Z</time>
      </trkpt>
      <trkpt lat="44.31042" lon="5.07208">
        <ele>240</ele>
        <time>2018-02-21T13:50:24Z</time>
      </trkpt>
      <trkpt lat="44.31033" lon="5.07196">
        <ele>240</ele>
        <time>2018-02-21T13:50:27Z</time>
      </trkpt>
      <trkpt lat="44.3102" lon="5.07177">
        <ele>240</ele>
        <time>2018-02-21T13:50:29Z</time>
      </trkpt>
      <trkpt lat="44.3101" lon="5.07165">
        <ele>240</ele>
        <time>2018-02-21T13:50:31Z</time>
      </trkpt>
      <trkpt lat="44.30996" lon="5.07145">
        <ele>241</ele>
        <time>2018-02-21T13:50:34Z</time>
      </trkpt>
      <trkpt lat="44.30987" lon="5.07132">
        <ele>241</ele>
        <time>2018-02-21T13:50:36Z</time>
      </trkpt>
      <trkpt lat="44.30973" lon="5.07113">
        <ele>241</ele>
        <time>2018-02-21T13:50:39Z</time>
      </trkpt>
      <trkpt lat="44.30963" lon="5.071">
        <ele>240</ele>
        <time>2018-02-21T13:50:41Z</time>
      </trkpt>
      <trkpt lat="44.30953" lon="5.07087">
        <ele>240</ele>
        <time>2018-02-21T13:50:43Z</time>
      </trkpt>
      <trkpt lat="44.30939" lon="5.07066">
        <ele>239</ele>
        <time>2018-02-21T13:50:46Z</time>
      </trkpt>
      <trkpt lat="44.30929" lon="5.07052">
        <ele>240</ele>
        <time>2018-02-21T13:50:48Z</time>
      </trkpt>
      <trkpt lat="44.30916" lon="5.07029">
        <ele>239</ele>
        <time>2018-02-21T13:50:51Z</time>
      </trkpt>
      <trkpt lat="44.30904" lon="5.07004">
        <ele>238</ele>
        <time>2018-02-21T13:50:54Z</time>
      </trkpt>
      <trkpt lat="44.30893" lon="5.06978">
        <ele>238</ele>
        <time>2018-02-21T13:50:57Z</time>
      </trkpt>
      <trkpt lat="44.30882" lon="5.06952">
        <ele>239</ele>
        <time>2018-02-21T13:51:00Z</time>
      </trkpt>
      <trkpt lat="44.30876" lon="5.06934">
        <ele>239</ele>
        <time>2018-02-21T13:51:02Z</time>
      </trkpt>
      <trkpt lat="44.30867" lon="5.06908">
        <ele>238</ele>
        <time>2018-02-21T13:51:05Z</time>
      </trkpt>
      <trkpt lat="44.3086" lon="5.0689">
        <ele>238</ele>
        <time>2018-02-21T13:51:07Z</time>
      </trkpt>
      <trkpt lat="44.30854" lon="5.06873">
        <ele>237</ele>
        <time>2018-02-21T13:51:09Z</time>
      </trkpt>
      <trkpt lat="44.30848" lon="5.06856">
        <ele>237</ele>
        <time>2018-02-21T13:51:11Z</time>
      </trkpt>
      <trkpt lat="44.30838" lon="5.0683">
        <ele>237</ele>
        <time>2018-02-21T13:51:14Z</time>
      </trkpt>
      <trkpt lat="44.30832" lon="5.06812">
        <ele>236</ele>
        <time>2018-02-21T13:51:16Z</time>
      </trkpt>
      <trkpt lat="44.30822" lon="5.06786">
        <ele>236</ele>
        <time>2018-02-21T13:51:19Z</time>
      </trkpt>
      <trkpt lat="44.30815" lon="5.06768">
        <ele>236</ele>
        <time>2018-02-21T13:51:21Z</time>
      </trkpt>
      <trkpt lat="44.30806" lon="5.06742">
        <ele>236</ele>
        <time>2018-02-21T13:51:24Z</time>
      </trkpt>
      <trkpt lat="44.30796" lon="5.06717">
        <ele>235</ele>
        <time>2018-02-21T13:51:27Z</time>
      </trkpt>
      <trkpt lat="44.30786" lon="5.0669">
        <ele>235</ele>
        <time>2018-02-21T13:51:30Z</time>
      </trkpt>
      <trkpt lat="44.3078" lon="5.06672">
        <ele>235</ele>
        <time>2018-02-21T13:51:32Z</time>
      </trkpt>
      <trkpt lat="44.3077" lon="5.06646">
        <ele>235</ele>
        <time>2018-02-21T13:51:35Z</time>
      </trkpt>
      <trkpt lat="44.3076" lon="5.06621">
        <ele>235</ele>
        <time>2018-02-21T13:51:38Z</time>
      </trkpt>
      <trkpt lat="44.30751" lon="5.06595">
        <ele>233</ele>
        <time>2018-02-21T13:51:41Z</time>
      </trkpt>
      <trkpt lat="44.30741" lon="5.06569">
        <ele>233</ele>
        <time>2018-02-21T13:51:44Z</time>
      </trkpt>
      <trkpt lat="44.30732" lon="5.06544">
        <ele>233</ele>
        <time>2018-02-21T13:51:47Z</time>
      </trkpt>
      <trkpt lat="44.30723" lon="5.06519">
        <ele>232</ele>
        <time>2018-02-21T13:51:50Z</time>
      </trkpt>
      <trkpt lat="44.30716" lon="5.06493">
        <ele>233</ele>
        <time>2018-02-21T13:51:53Z</time>
      </trkpt>
      <trkpt lat="44.30714" lon="5.06474">
        <ele>232</ele>
        <time>2018-02-21T13:51:55Z</time>
      </trkpt>
      <trkpt lat="44.30711" lon="5.06456">
        <ele>232</ele>
        <time>2018-02-21T13:51:57Z</time>
      </trkpt>
      <trkpt lat="44.30709" lon="5.06436">
        <ele>232</ele>
        <time>2018-02-21T13:52:00Z</time>
      </trkpt>
      <trkpt lat="44.30707" lon="5.06408">
        <ele>231</ele>
        <time>2018-02-21T13:52:02Z</time>
      </trkpt>
      <trkpt lat="44.30705" lon="5.0638">
        <ele>230</ele>
        <time>2018-02-21T13:52:05Z</time>
      </trkpt>
      <trkpt lat="44.30703" lon="5.06361">
        <ele>231</ele>
        <time>2018-02-21T13:52:07Z</time>
      </trkpt>
      <trkpt lat="44.30701" lon="5.06333">
        <ele>231</ele>
        <time>2018-02-21T13:52:10Z</time>
      </trkpt>
      <trkpt lat="44.30698" lon="5.06304">
        <ele>232</ele>
        <time>2018-02-21T13:52:13Z</time>
      </trkpt>
      <trkpt lat="44.30691" lon="5.06276">
        <ele>231</ele>
        <time>2018-02-21T13:52:16Z</time>
      </trkpt>
      <trkpt lat="44.30679" lon="5.0625">
        <ele>229</ele>
        <time>2018-02-21T13:52:19Z</time>
      </trkpt>
      <trkpt lat="44.30669" lon="5.06233">
        <ele>228</ele>
        <time>2018-02-21T13:52:21Z</time>
      </trkpt>
      <trkpt lat="44.3066" lon="5.06217">
        <ele>228</ele>
        <time>2018-02-21T13:52:23Z</time>
      </trkpt>
      <trkpt lat="44.30647" lon="5.06194">
        <ele>228</ele>
        <time>2018-02-21T13:52:26Z</time>
      </trkpt>
      <trkpt lat="44.30633" lon="5.06171">
        <ele>228</ele>
        <time>2018-02-21T13:52:29Z</time>
      </trkpt>
      <trkpt lat="44.30619" lon="5.06147">
        <ele>228</ele>
        <time>2018-02-21T13:52:32Z</time>
      </trkpt>
      <trkpt lat="44.30605" lon="5.06125">
        <ele>227</ele>
        <time>2018-02-21T13:52:35Z</time>
      </trkpt>
      <trkpt lat="44.30591" lon="5.06104">
        <ele>226</ele>
        <time>2018-02-21T13:52:38Z</time>
      </trkpt>
      <trkpt lat="44.30582" lon="5.06089">
        <ele>226</ele>
        <time>2018-02-21T13:52:40Z</time>
      </trkpt>
      <trkpt lat="44.30569" lon="5.06068">
        <ele>227</ele>
        <time>2018-02-21T13:52:43Z</time>
      </trkpt>
      <trkpt lat="44.30556" lon="5.06047">
        <ele>227</ele>
        <time>2018-02-21T13:52:46Z</time>
      </trkpt>
      <trkpt lat="44.30547" lon="5.06033">
        <ele>227</ele>
        <time>2018-02-21T13:52:48Z</time>
      </trkpt>
      <trkpt lat="44.30534" lon="5.06011">
        <ele>226</ele>
        <time>2018-02-21T13:52:51Z</time>
      </trkpt>
      <trkpt lat="44.30521" lon="5.0599">
        <ele>226</ele>
        <time>2018-02-21T13:52:54Z</time>
      </trkpt>
      <trkpt lat="44.30509" lon="5.05969">
        <ele>225</ele>
        <time>2018-02-21T13:52:57Z</time>
      </trkpt>
      <trkpt lat="44.305" lon="5.05954">
        <ele>225</ele>
        <time>2018-02-21T13:52:59Z</time>
      </trkpt>
      <trkpt lat="44.30492" lon="5.05939">
        <ele>225</ele>
        <time>2018-02-21T13:53:01Z</time>
      </trkpt>
      <trkpt lat="44.30484" lon="5.05924">
        <ele>225</ele>
        <time>2018-02-21T13:53:03Z</time>
      </trkpt>
      <trkpt lat="44.30477" lon="5.05908">
        <ele>226</ele>
        <time>2018-02-21T13:53:05Z</time>
      </trkpt>
      <trkpt lat="44.30469" lon="5.05893">
        <ele>225</ele>
        <time>2018-02-21T13:53:07Z</time>
      </trkpt>
      <trkpt lat="44.3046" lon="5.05878">
        <ele>225</ele>
        <time>2018-02-21T13:53:09Z</time>
      </trkpt>
      <trkpt lat="44.30448" lon="5.05855">
        <ele>225</ele>
        <time>2018-02-21T13:53:12Z</time>
      </trkpt>
      <trkpt lat="44.30436" lon="5.05832">
        <ele>225</ele>
        <time>2018-02-21T13:53:15Z</time>
      </trkpt>
      <trkpt lat="44.30424" lon="5.05809">
        <ele>224</ele>
        <time>2018-02-21T13:53:18Z</time>
      </trkpt>
      <trkpt lat="44.30416" lon="5.05794">
        <ele>224</ele>
        <time>2018-02-21T13:53:20Z</time>
      </trkpt>
      <trkpt lat="44.30404" lon="5.05771">
        <ele>225</ele>
        <time>2018-02-21T13:53:23Z</time>
      </trkpt>
      <trkpt lat="44.30392" lon="5.05749">
        <ele>226</ele>
        <time>2018-02-21T13:53:26Z</time>
      </trkpt>
      <trkpt lat="44.30385" lon="5.05734">
        <ele>225</ele>
        <time>2018-02-21T13:53:28Z</time>
      </trkpt>
      <trkpt lat="44.30377" lon="5.0572">
        <ele>225</ele>
        <time>2018-02-21T13:53:30Z</time>
      </trkpt>
      <trkpt lat="44.3037" lon="5.05706">
        <ele>224</ele>
        <time>2018-02-21T13:53:32Z</time>
      </trkpt>
      <trkpt lat="44.30358" lon="5.05684">
        <ele>224</ele>
        <time>2018-02-21T13:53:35Z</time>
      </trkpt>
      <trkpt lat="44.3035" lon="5.05669">
        <ele>223</ele>
        <time>2018-02-21T13:53:37Z</time>
      </trkpt>
      <trkpt lat="44.30342" lon="5.05653">
        <ele>223</ele>
        <time>2018-02-21T13:53:39Z</time>
      </trkpt>
      <trkpt lat="44.3033" lon="5.05631">
        <ele>224</ele>
        <time>2018-02-21T13:53:42Z</time>
      </trkpt>
      <trkpt lat="44.30319" lon="5.05609">
        <ele>224</ele>
        <time>2018-02-21T13:53:45Z</time>
      </trkpt>
      <trkpt lat="44.30307" lon="5.05586">
        <ele>224</ele>
        <time>2018-02-21T13:53:48Z</time>
      </trkpt>
      <trkpt lat="44.30299" lon="5.05571">
        <ele>224</ele>
        <time>2018-02-21T13:53:50Z</time>
      </trkpt>
      <trkpt lat="44.30291" lon="5.05555">
        <ele>223</ele>
        <time>2018-02-21T13:53:52Z</time>
      </trkpt>
      <trkpt lat="44.30283" lon="5.05539">
        <ele>223</ele>
        <time>2018-02-21T13:53:54Z</time>
      </trkpt>
      <trkpt lat="44.3027" lon="5.05516">
        <ele>223</ele>
        <time>2018-02-21T13:53:57Z</time>
      </trkpt>
      <trkpt lat="44.30262" lon="5.05501">
        <ele>223</ele>
        <time>2018-02-21T13:53:59Z</time>
      </trkpt>
      <trkpt lat="44.30253" lon="5.05486">
        <ele>223</ele>
        <time>2018-02-21T13:54:01Z</time>
      </trkpt>
      <trkpt lat="44.3024" lon="5.05464">
        <ele>223</ele>
        <time>2018-02-21T13:54:04Z</time>
      </trkpt>
      <trkpt lat="44.30225" lon="5.05442">
        <ele>224</ele>
        <time>2018-02-21T13:54:07Z</time>
      </trkpt>
      <trkpt lat="44.30216" lon="5.05428">
        <ele>224</ele>
        <time>2018-02-21T13:54:09Z</time>
      </trkpt>
      <trkpt lat="44.30201" lon="5.05406">
        <ele>223</ele>
        <time>2018-02-21T13:54:12Z</time>
      </trkpt>
      <trkpt lat="44.30185" lon="5.05384">
        <ele>222</ele>
        <time>2018-02-21T13:54:15Z</time>
      </trkpt>
      <trkpt lat="44.3017" lon="5.05361">
        <ele>222</ele>
        <time>2018-02-21T13:54:18Z</time>
      </trkpt>
      <trkpt lat="44.30155" lon="5.05338">
        <ele>222</ele>
        <time>2018-02-21T13:54:21Z</time>
      </trkpt>
      <trkpt lat="44.30139" lon="5.05315">
        <ele>221</ele>
        <time>2018-02-21T13:54:24Z</time>
      </trkpt>
      <trkpt lat="44.30124" lon="5.05292">
        <ele>221</ele>
        <time>2018-02-21T13:54:27Z</time>
      </trkpt>
      <trkpt lat="44.30109" lon="5.0527">
        <ele>221</ele>
        <time>2018-02-21T13:54:30Z</time>
      </trkpt>
      <trkpt lat="44.30093" lon="5.05246">
        <ele>221</ele>
        <time>2018-02-21T13:54:33Z</time>
      </trkpt>
      <trkpt lat="44.30077" lon="5.05222">
        <ele>221</ele>
        <time>2018-02-21T13:54:36Z</time>
      </trkpt>
      <trkpt lat="44.30062" lon="5.05196">
        <ele>221</ele>
        <time>2018-02-21T13:54:39Z</time>
      </trkpt>
      <trkpt lat="44.30048" lon="5.0517">
        <ele>220</ele>
        <time>2018-02-21T13:54:42Z</time>
      </trkpt>
      <trkpt lat="44.30034" lon="5.05143">
        <ele>220</ele>
        <time>2018-02-21T13:54:45Z</time>
      </trkpt>
      <trkpt lat="44.30021" lon="5.05117">
        <ele>220</ele>
        <time>2018-02-21T13:54:48Z</time>
      </trkpt>
      <trkpt lat="44.30007" lon="5.05091">
        <ele>220</ele>
        <time>2018-02-21T13:54:51Z</time>
      </trkpt>
      <trkpt lat="44.29993" lon="5.05065">
        <ele>222</ele>
        <time>2018-02-21T13:54:54Z</time>
      </trkpt>
      <trkpt lat="44.29982" lon="5.0505">
        <ele>222</ele>
        <time>2018-02-21T13:54:56Z</time>
      </trkpt>
      <trkpt lat="44.29966" lon="5.05028">
        <ele>222</ele>
        <time>2018-02-21T13:54:59Z</time>
      </trkpt>
      <trkpt lat="44.29948" lon="5.05009">
        <ele>220</ele>
        <time>2018-02-21T13:55:02Z</time>
      </trkpt>
      <trkpt lat="44.29934" lon="5.04998">
        <ele>219</ele>
        <time>2018-02-21T13:55:04Z</time>
      </trkpt>
      <trkpt lat="44.29921" lon="5.04988">
        <ele>219</ele>
        <time>2018-02-21T13:55:06Z</time>
      </trkpt>
      <trkpt lat="44.29901" lon="5.04976">
        <ele>219</ele>
        <time>2018-02-21T13:55:09Z</time>
      </trkpt>
      <trkpt lat="44.29881" lon="5.04964">
        <ele>220</ele>
        <time>2018-02-21T13:55:12Z</time>
      </trkpt>
      <trkpt lat="44.2986" lon="5.04952">
        <ele>220</ele>
        <time>2018-02-21T13:55:15Z</time>
      </trkpt>
      <trkpt lat="44.29839" lon="5.0494">
        <ele>220</ele>
        <time>2018-02-21T13:55:18Z</time>
      </trkpt>
      <trkpt lat="44.29819" lon="5.04926">
        <ele>220</ele>
        <time>2018-02-21T13:55:21Z</time>
      </trkpt>
      <trkpt lat="44.29799" lon="5.04911">
        <ele>220</ele>
        <time>2018-02-21T13:55:24Z</time>
      </trkpt>
      <trkpt lat="44.2978" lon="5.04894">
        <ele>219</ele>
        <time>2018-02-21T13:55:27Z</time>
      </trkpt>
      <trkpt lat="44.2976" lon="5.04878">
        <ele>220</ele>
        <time>2018-02-21T13:55:30Z</time>
      </trkpt>
      <trkpt lat="44.29748" lon="5.04867">
        <ele>221</ele>
        <time>2018-02-21T13:55:32Z</time>
      </trkpt>
      <trkpt lat="44.29735" lon="5.04856">
        <ele>222</ele>
        <time>2018-02-21T13:55:34Z</time>
      </trkpt>
      <trkpt lat="44.29717" lon="5.04841">
        <ele>222</ele>
        <time>2018-02-21T13:55:37Z</time>
      </trkpt>
      <trkpt lat="44.29698" lon="5.04825">
        <ele>222</ele>
        <time>2018-02-21T13:55:40Z</time>
      </trkpt>
      <trkpt lat="44.29686" lon="5.04815">
        <ele>223</ele>
        <time>2018-02-21T13:55:42Z</time>
      </trkpt>
      <trkpt lat="44.29668" lon="5.048">
        <ele>223</ele>
        <time>2018-02-21T13:55:45Z</time>
      </trkpt>
      <trkpt lat="44.2965" lon="5.04785">
        <ele>223</ele>
        <time>2018-02-21T13:55:48Z</time>
      </trkpt>
      <trkpt lat="44.29632" lon="5.04771">
        <ele>223</ele>
        <time>2018-02-21T13:55:51Z</time>
      </trkpt>
      <trkpt lat="44.29614" lon="5.04756">
        <ele>223</ele>
        <time>2018-02-21T13:55:54Z</time>
      </trkpt>
      <trkpt lat="44.29603" lon="5.04744">
        <ele>223</ele>
        <time>2018-02-21T13:55:56Z</time>
      </trkpt>
      <trkpt lat="44.29587" lon="5.04725">
        <ele>223</ele>
        <time>2018-02-21T13:55:59Z</time>
      </trkpt>
      <trkpt lat="44.29574" lon="5.04703">
        <ele>224</ele>
        <time>2018-02-21T13:56:02Z</time>
      </trkpt>
      <trkpt lat="44.29563" lon="5.0468">
        <ele>223</ele>
        <time>2018-02-21T13:56:05Z</time>
      </trkpt>
      <trkpt lat="44.29553" lon="5.04659">
        <ele>223</ele>
        <time>2018-02-21T13:56:08Z</time>
      </trkpt>
      <trkpt lat="44.29543" lon="5.04637">
        <ele>222</ele>
        <time>2018-02-21T13:56:11Z</time>
      </trkpt>
      <trkpt lat="44.29533" lon="5.04615">
        <ele>222</ele>
        <time>2018-02-21T13:56:14Z</time>
      </trkpt>
      <trkpt lat="44.29522" lon="5.04594">
        <ele>221</ele>
        <time>2018-02-21T13:56:17Z</time>
      </trkpt>
      <trkpt lat="44.29516" lon="5.0458">
        <ele>220</ele>
        <time>2018-02-21T13:56:19Z</time>
      </trkpt>
      <trkpt lat="44.29509" lon="5.04565">
        <ele>220</ele>
        <time>2018-02-21T13:56:21Z</time>
      </trkpt>
      <trkpt lat="44.29498" lon="5.04542">
        <ele>219</ele>
        <time>2018-02-21T13:56:24Z</time>
      </trkpt>
      <trkpt lat="44.29486" lon="5.04519">
        <ele>220</ele>
        <time>2018-02-21T13:56:27Z</time>
      </trkpt>
      <trkpt lat="44.29476" lon="5.04496">
        <ele>221</ele>
        <time>2018-02-21T13:56:30Z</time>
      </trkpt>
      <trkpt lat="44.29469" lon="5.0448">
        <ele>220</ele>
        <time>2018-02-21T13:56:32Z</time>
      </trkpt>
      <trkpt lat="44.29462" lon="5.04464">
        <ele>220</ele>
        <time>2018-02-21T13:56:34Z</time>
      </trkpt>
      <trkpt lat="44.29451" lon="5.0444">
        <ele>219</ele>
        <time>2018-02-21T13:56:37Z</time>
      </trkpt>
      <trkpt lat="44.2944" lon="5.04416">
        <ele>218</ele>
        <time>2018-02-21T13:56:40Z</time>
      </trkpt>
      <trkpt lat="44.29428" lon="5.04391">
        <ele>219</ele>
        <time>2018-02-21T13:56:43Z</time>
      </trkpt>
      <trkpt lat="44.2942" lon="5.04374">
        <ele>219</ele>
        <time>2018-02-21T13:56:45Z</time>
      </trkpt>
      <trkpt lat="44.29412" lon="5.04357">
        <ele>219</ele>
        <time>2018-02-21T13:56:47Z</time>
      </trkpt>
      <trkpt lat="44.294" lon="5.04332">
        <ele>219</ele>
        <time>2018-02-21T13:56:50Z</time>
      </trkpt>
      <trkpt lat="44.29388" lon="5.04307">
        <ele>219</ele>
        <time>2018-02-21T13:56:53Z</time>
      </trkpt>
      <trkpt lat="44.29376" lon="5.04281">
        <ele>219</ele>
        <time>2018-02-21T13:56:56Z</time>
      </trkpt>
      <trkpt lat="44.29364" lon="5.04254">
        <ele>219</ele>
        <time>2018-02-21T13:56:59Z</time>
      </trkpt>
      <trkpt lat="44.29351" lon="5.04229">
        <ele>219</ele>
        <time>2018-02-21T13:57:02Z</time>
      </trkpt>
      <trkpt lat="44.29337" lon="5.04205">
        <ele>220</ele>
        <time>2018-02-21T13:57:05Z</time>
      </trkpt>
      <trkpt lat="44.29321" lon="5.04181">
        <ele>221</ele>
        <time>2018-02-21T13:57:08Z</time>
      </trkpt>
      <trkpt lat="44.29306" lon="5.04159">
        <ele>221</ele>
        <time>2018-02-21T13:57:11Z</time>
      </trkpt>
      <trkpt lat="44.29296" lon="5.04144">
        <ele>222</ele>
        <time>2018-02-21T13:57:13Z</time>
      </trkpt>
      <trkpt lat="44.29286" lon="5.04129">
        <ele>222</ele>
        <time>2018-02-21T13:57:15Z</time>
      </trkpt>
      <trkpt lat="44.29271" lon="5.04107">
        <ele>222</ele>
        <time>2018-02-21T13:57:18Z</time>
      </trkpt>
      <trkpt lat="44.29261" lon="5.04093">
        <ele>222</ele>
        <time>2018-02-21T13:57:20Z</time>
      </trkpt>
      <trkpt lat="44.29252" lon="5.04077">
        <ele>222</ele>
        <time>2018-02-21T13:57:22Z</time>
      </trkpt>
      <trkpt lat="44.29237" lon="5.04056">
        <ele>221</ele>
        <time>2018-02-21T13:57:25Z</time>
      </trkpt>
      <trkpt lat="44.29227" lon="5.04042">
        <ele>220</ele>
        <time>2018-02-21T13:57:27Z</time>
      </trkpt>
      <trkpt lat="44.29218" lon="5.04028">
        <ele>220</ele>
        <time>2018-02-21T13:57:29Z</time>
      </trkpt>
      <trkpt lat="44.29203" lon="5.04006">
        <ele>220</ele>
        <time>2018-02-21T13:57:32Z</time>
      </trkpt>
      <trkpt lat="44.29193" lon="5.03992">
        <ele>220</ele>
        <time>2018-02-21T13:57:34Z</time>
      </trkpt>
      <trkpt lat="44.29183" lon="5.03977">
        <ele>220</ele>
        <time>2018-02-21T13:57:36Z</time>
      </trkpt>
      <trkpt lat="44.29168" lon="5.03955">
        <ele>221</ele>
        <time>2018-02-21T13:57:39Z</time>
      </trkpt>
      <trkpt lat="44.29158" lon="5.03941">
        <ele>220</ele>
        <time>2018-02-21T13:57:41Z</time>
      </trkpt>
      <trkpt lat="44.29144" lon="5.03919">
        <ele>220</ele>
        <time>2018-02-21T13:57:44Z</time>
      </trkpt>
      <trkpt lat="44.29129" lon="5.03897">
        <ele>219</ele>
        <time>2018-02-21T13:57:47Z</time>
      </trkpt>
      <trkpt lat="44.29113" lon="5.03874">
        <ele>219</ele>
        <time>2018-02-21T13:57:50Z</time>
      </trkpt>
      <trkpt lat="44.29098" lon="5.03852">
        <ele>219</ele>
        <time>2018-02-21T13:57:53Z</time>
      </trkpt>
      <trkpt lat="44.29082" lon="5.03829">
        <ele>220</ele>
        <time>2018-02-21T13:57:56Z</time>
      </trkpt>
      <trkpt lat="44.29067" lon="5.03807">
        <ele>221</ele>
        <time>2018-02-21T13:57:59Z</time>
      </trkpt>
      <trkpt lat="44.29057" lon="5.03793">
        <ele>222</ele>
        <time>2018-02-21T13:58:01Z</time>
      </trkpt>
      <trkpt lat="44.29042" lon="5.03771">
        <ele>222</ele>
        <time>2018-02-21T13:58:04Z</time>
      </trkpt>
      <trkpt lat="44.29027" lon="5.0375">
        <ele>222</ele>
        <time>2018-02-21T13:58:07Z</time>
      </trkpt>
      <trkpt lat="44.29018" lon="5.03735">
        <ele>222</ele>
        <time>2018-02-21T13:58:09Z</time>
      </trkpt>
      <trkpt lat="44.29003" lon="5.03715">
        <ele>223</ele>
        <time>2018-02-21T13:58:12Z</time>
      </trkpt>
      <trkpt lat="44.28988" lon="5.03693">
        <ele>224</ele>
        <time>2018-02-21T13:58:15Z</time>
      </trkpt>
      <trkpt lat="44.28974" lon="5.03673">
        <ele>225</ele>
        <time>2018-02-21T13:58:18Z</time>
      </trkpt>
      <trkpt lat="44.2896" lon="5.03653">
        <ele>223</ele>
        <time>2018-02-21T13:58:21Z</time>
      </trkpt>
      <trkpt lat="44.28946" lon="5.03633">
        <ele>220</ele>
        <time>2018-02-21T13:58:24Z</time>
      </trkpt>
      <trkpt lat="44.28936" lon="5.0362">
        <ele>219</ele>
        <time>2018-02-21T13:58:26Z</time>
      </trkpt>
      <trkpt lat="44.28922" lon="5.036">
        <ele>219</ele>
        <time>2018-02-21T13:58:29Z</time>
      </trkpt>
      <trkpt lat="44.28909" lon="5.0358">
        <ele>219</ele>
        <time>2018-02-21T13:58:32Z</time>
      </trkpt>
      <trkpt lat="44.28896" lon="5.03561">
        <ele>221</ele>
        <time>2018-02-21T13:58:35Z</time>
      </trkpt>
      <trkpt lat="44.28883" lon="5.03543">
        <ele>221</ele>
        <time>2018-02-21T13:58:38Z</time>
      </trkpt>
      <trkpt lat="44.28875" lon="5.03531">
        <ele>220</ele>
        <time>2018-02-21T13:58:40Z</time>
      </trkpt>
      <trkpt lat="44.28867" lon="5.0352">
        <ele>220</ele>
        <time>2018-02-21T13:58:42Z</time>
      </trkpt>
      <trkpt lat="44.28857" lon="5.03504">
        <ele>219</ele>
        <time>2018-02-21T13:58:45Z</time>
      </trkpt>
      <trkpt lat="44.28854" lon="5.03491">
        <ele>219</ele>
        <time>2018-02-21T13:58:47Z</time>
      </trkpt>
      <trkpt lat="44.28862" lon="5.03474">
        <ele>220</ele>
        <time>2018-02-21T13:58:50Z</time>
      </trkpt>
      <trkpt lat="44.28871" lon="5.03466">
        <ele>221</ele>
        <time>2018-02-21T13:58:52Z</time>
      </trkpt>
      <trkpt lat="44.28881" lon="5.03457">
        <ele>223</ele>
        <time>2018-02-21T13:58:54Z</time>
      </trkpt>
      <trkpt lat="44.28899" lon="5.03446">
        <ele>224</ele>
        <time>2018-02-21T13:58:57Z</time>
      </trkpt>
      <trkpt lat="44.28917" lon="5.03436">
        <ele>224</ele>
        <time>2018-02-21T13:59:00Z</time>
      </trkpt>
      <trkpt lat="44.2893" lon="5.03429">
        <ele>222</ele>
        <time>2018-02-21T13:59:02Z</time>
      </trkpt>
      <trkpt lat="44.28943" lon="5.03422">
        <ele>221</ele>
        <time>2018-02-21T13:59:04Z</time>
      </trkpt>
      <trkpt lat="44.28957" lon="5.03415">
        <ele>221</ele>
        <time>2018-02-21T13:59:06Z</time>
      </trkpt>
      <trkpt lat="44.2897" lon="5.03408">
        <ele>219</ele>
        <time>2018-02-21T13:59:08Z</time>
      </trkpt>
      <trkpt lat="44.2899" lon="5.03399">
        <ele>219</ele>
        <time>2018-02-21T13:59:11Z</time>
      </trkpt>
      <trkpt lat="44.2901" lon="5.0339">
        <ele>218</ele>
        <time>2018-02-21T13:59:14Z</time>
      </trkpt>
      <trkpt lat="44.29023" lon="5.03382">
        <ele>219</ele>
        <time>2018-02-21T13:59:16Z</time>
      </trkpt>
      <trkpt lat="44.29033" lon="5.03371">
        <ele>220</ele>
        <time>2018-02-21T13:59:18Z</time>
      </trkpt>
      <trkpt lat="44.29039" lon="5.03345">
        <ele>218</ele>
        <time>2018-02-21T13:59:21Z</time>
      </trkpt>
      <trkpt lat="44.29037" lon="5.03327">
        <ele>217</ele>
        <time>2018-02-21T13:59:23Z</time>
      </trkpt>
      <trkpt lat="44.29033" lon="5.0331">
        <ele>216</ele>
        <time>2018-02-21T13:59:25Z</time>
      </trkpt>
      <trkpt lat="44.29029" lon="5.03293">
        <ele>214</ele>
        <time>2018-02-21T13:59:27Z</time>
      </trkpt>
      <trkpt lat="44.29025" lon="5.03275">
        <ele>213</ele>
        <time>2018-02-21T13:59:29Z</time>
      </trkpt>
      <trkpt lat="44.29018" lon="5.03248">
        <ele>213</ele>
        <time>2018-02-21T13:59:32Z</time>
      </trkpt>
      <trkpt lat="44.29012" lon="5.0322">
        <ele>212</ele>
        <time>2018-02-21T13:59:35Z</time>
      </trkpt>
      <trkpt lat="44.29007" lon="5.03201">
        <ele>211</ele>
        <time>2018-02-21T13:59:37Z</time>
      </trkpt>
      <trkpt lat="44.28999" lon="5.03171">
        <ele>210</ele>
        <time>2018-02-21T13:59:40Z</time>
      </trkpt>
      <trkpt lat="44.28994" lon="5.03151">
        <ele>210</ele>
        <time>2018-02-21T13:59:42Z</time>
      </trkpt>
      <trkpt lat="44.28989" lon="5.03132">
        <ele>210</ele>
        <time>2018-02-21T13:59:44Z</time>
      </trkpt>
      <trkpt lat="44.28981" lon="5.03101">
        <ele>210</ele>
        <time>2018-02-21T13:59:47Z</time>
      </trkpt>
      <trkpt lat="44.28973" lon="5.03071">
        <ele>210</ele>
        <time>2018-02-21T13:59:50Z</time>
      </trkpt>
      <trkpt lat="44.28967" lon="5.03051">
        <ele>210</ele>
        <time>2018-02-21T13:59:52Z</time>
      </trkpt>
      <trkpt lat="44.28962" lon="5.0303">
        <ele>210</ele>
        <time>2018-02-21T13:59:54Z</time>
      </trkpt>
      <trkpt lat="44.28954" lon="5.03">
        <ele>209</ele>
        <time>2018-02-21T13:59:57Z</time>
      </trkpt>
      <trkpt lat="44.28947" lon="5.02969">
        <ele>209</ele>
        <time>2018-02-21T14:00:00Z</time>
      </trkpt>
      <trkpt lat="44.28938" lon="5.02938">
        <ele>208</ele>
        <time>2018-02-21T14:00:03Z</time>
      </trkpt>
      <trkpt lat="44.28933" lon="5.02917">
        <ele>207</ele>
        <time>2018-02-21T14:00:05Z</time>
      </trkpt>
      <trkpt lat="44.28925" lon="5.02885">
        <ele>207</ele>
        <time>2018-02-21T14:00:08Z</time>
      </trkpt>
      <trkpt lat="44.2892" lon="5.02864">
        <ele>206</ele>
        <time>2018-02-21T14:00:10Z</time>
      </trkpt>
      <trkpt lat="44.28911" lon="5.02832">
        <ele>207</ele>
        <time>2018-02-21T14:00:13Z</time>
      </trkpt>
      <trkpt lat="44.28903" lon="5.02812">
        <ele>207</ele>
        <time>2018-02-21T14:00:15Z</time>
      </trkpt>
      <trkpt lat="44.28891" lon="5.02784">
        <ele>207</ele>
        <time>2018-02-21T14:00:18Z</time>
      </trkpt>
      <trkpt lat="44.28882" lon="5.02767">
        <ele>207</ele>
        <time>2018-02-21T14:00:20Z</time>
      </trkpt>
      <trkpt lat="44.2887" lon="5.0274">
        <ele>206</ele>
        <time>2018-02-21T14:00:23Z</time>
      </trkpt>
      <trkpt lat="44.28861" lon="5.02721">
        <ele>206</ele>
        <time>2018-02-21T14:00:25Z</time>
      </trkpt>
      <trkpt lat="44.28848" lon="5.02694">
        <ele>204</ele>
        <time>2018-02-21T14:00:28Z</time>
      </trkpt>
      <trkpt lat="44.2884" lon="5.02675">
        <ele>204</ele>
        <time>2018-02-21T14:00:30Z</time>
      </trkpt>
      <trkpt lat="44.28827" lon="5.02647">
        <ele>204</ele>
        <time>2018-02-21T14:00:33Z</time>
      </trkpt>
      <trkpt lat="44.28819" lon="5.02629">
        <ele>203</ele>
        <time>2018-02-21T14:00:35Z</time>
      </trkpt>
      <trkpt lat="44.28811" lon="5.02611">
        <ele>203</ele>
        <time>2018-02-21T14:00:37Z</time>
      </trkpt>
      <trkpt lat="44.28802" lon="5.02593">
        <ele>204</ele>
        <time>2018-02-21T14:00:39Z</time>
      </trkpt>
      <trkpt lat="44.28794" lon="5.02575">
        <ele>204</ele>
        <time>2018-02-21T14:00:41Z</time>
      </trkpt>
      <trkpt lat="44.28782" lon="5.02548">
        <ele>203</ele>
        <time>2018-02-21T14:00:44Z</time>
      </trkpt>
      <trkpt lat="44.28773" lon="5.0253">
        <ele>202</ele>
        <time>2018-02-21T14:00:46Z</time>
      </trkpt>
      <trkpt lat="44.28761" lon="5.02502">
        <ele>201</ele>
        <time>2018-02-21T14:00:49Z</time>
      </trkpt>
      <trkpt lat="44.28753" lon="5.02471">
        <ele>201</ele>
        <time>2018-02-21T14:00:52Z</time>
      </trkpt>
      <trkpt lat="44.28749" lon="5.02451">
        <ele>202</ele>
        <time>2018-02-21T14:00:54Z</time>
      </trkpt>
      <trkpt lat="44.28744" lon="5.0242">
        <ele>202</ele>
        <time>2018-02-21T14:00:57Z</time>
      </trkpt>
      <trkpt lat="44.28737" lon="5.0239">
        <ele>203</ele>
        <time>2018-02-21T14:01:00Z</time>
      </trkpt>
      <trkpt lat="44.28731" lon="5.02372">
        <ele>203</ele>
        <time>2018-02-21T14:01:02Z</time>
      </trkpt>
      <trkpt lat="44.28722" lon="5.02344">
        <ele>203</ele>
        <time>2018-02-21T14:01:05Z</time>
      </trkpt>
      <trkpt lat="44.28716" lon="5.02325">
        <ele>202</ele>
        <time>2018-02-21T14:01:07Z</time>
      </trkpt>
      <trkpt lat="44.28706" lon="5.02296">
        <ele>200</ele>
        <time>2018-02-21T14:01:10Z</time>
      </trkpt>
      <trkpt lat="44.28699" lon="5.02277">
        <ele>199</ele>
        <time>2018-02-21T14:01:12Z</time>
      </trkpt>
      <trkpt lat="44.28688" lon="5.02249">
        <ele>199</ele>
        <time>2018-02-21T14:01:15Z</time>
      </trkpt>
      <trkpt lat="44.28674" lon="5.02223">
        <ele>200</ele>
        <time>2018-02-21T14:01:18Z</time>
      </trkpt>
      <trkpt lat="44.2866" lon="5.02198">
        <ele>200</ele>
        <time>2018-02-21T14:01:21Z</time>
      </trkpt>
      <trkpt lat="44.28651" lon="5.02182">
        <ele>200</ele>
        <time>2018-02-21T14:01:23Z</time>
      </trkpt>
      <trkpt lat="44.28638" lon="5.02157">
        <ele>199</ele>
        <time>2018-02-21T14:01:26Z</time>
      </trkpt>
      <trkpt lat="44.28624" lon="5.02133">
        <ele>199</ele>
        <time>2018-02-21T14:01:29Z</time>
      </trkpt>
      <trkpt lat="44.2861" lon="5.02109">
        <ele>199</ele>
        <time>2018-02-21T14:01:32Z</time>
      </trkpt>
      <trkpt lat="44.28596" lon="5.02085">
        <ele>199</ele>
        <time>2018-02-21T14:01:35Z</time>
      </trkpt>
      <trkpt lat="44.28582" lon="5.02063">
        <ele>199</ele>
        <time>2018-02-21T14:01:38Z</time>
      </trkpt>
      <trkpt lat="44.28569" lon="5.02039">
        <ele>199</ele>
        <time>2018-02-21T14:01:41Z</time>
      </trkpt>
      <trkpt lat="44.2856" lon="5.02023">
        <ele>199</ele>
        <time>2018-02-21T14:01:43Z</time>
      </trkpt>
      <trkpt lat="44.28546" lon="5.02">
        <ele>199</ele>
        <time>2018-02-21T14:01:46Z</time>
      </trkpt>
      <trkpt lat="44.28537" lon="5.01984">
        <ele>199</ele>
        <time>2018-02-21T14:01:48Z</time>
      </trkpt>
      <trkpt lat="44.28526" lon="5.01958">
        <ele>199</ele>
        <time>2018-02-21T14:01:51Z</time>
      </trkpt>
      <trkpt lat="44.2852" lon="5.0194">
        <ele>199</ele>
        <time>2018-02-21T14:01:53Z</time>
      </trkpt>
      <trkpt lat="44.28512" lon="5.01912">
        <ele>199</ele>
        <time>2018-02-21T14:01:56Z</time>
      </trkpt>
      <trkpt lat="44.28505" lon="5.01884">
        <ele>201</ele>
        <time>2018-02-21T14:01:59Z</time>
      </trkpt>
      <trkpt lat="44.28498" lon="5.01858">
        <ele>202</ele>
        <time>2018-02-21T14:02:02Z</time>
      </trkpt>
      <trkpt lat="44.28493" lon="5.0184">
        <ele>203</ele>
        <time>2018-02-21T14:02:04Z</time>
      </trkpt>
      <trkpt lat="44.28487" lon="5.01813">
        <ele>202</ele>
        <time>2018-02-21T14:02:07Z</time>
      </trkpt>
      <trkpt lat="44.28481" lon="5.01787">
        <ele>203</ele>
        <time>2018-02-21T14:02:10Z</time>
      </trkpt>
      <trkpt lat="44.28476" lon="5.01763">
        <ele>202</ele>
        <time>2018-02-21T14:02:13Z</time>
      </trkpt>
      <trkpt lat="44.28471" lon="5.01736">
        <ele>201</ele>
        <time>2018-02-21T14:02:16Z</time>
      </trkpt>
      <trkpt lat="44.28469" lon="5.0171">
        <ele>198</ele>
        <time>2018-02-21T14:02:19Z</time>
      </trkpt>
      <trkpt lat="44.28466" lon="5.01683">
        <ele>197</ele>
        <time>2018-02-21T14:02:22Z</time>
      </trkpt>
      <trkpt lat="44.28464" lon="5.01655">
        <ele>197</ele>
        <time>2018-02-21T14:02:25Z</time>
      </trkpt>
      <trkpt lat="44.28461" lon="5.01629">
        <ele>199</ele>
        <time>2018-02-21T14:02:28Z</time>
      </trkpt>
      <trkpt lat="44.28457" lon="5.01612">
        <ele>199</ele>
        <time>2018-02-21T14:02:30Z</time>
      </trkpt>
      <trkpt lat="44.28448" lon="5.01587">
        <ele>199</ele>
        <time>2018-02-21T14:02:33Z</time>
      </trkpt>
      <trkpt lat="44.28439" lon="5.01563">
        <ele>198</ele>
        <time>2018-02-21T14:02:36Z</time>
      </trkpt>
      <trkpt lat="44.28432" lon="5.01549">
        <ele>198</ele>
        <time>2018-02-21T14:02:38Z</time>
      </trkpt>
      <trkpt lat="44.28423" lon="5.01529">
        <ele>198</ele>
        <time>2018-02-21T14:02:41Z</time>
      </trkpt>
      <trkpt lat="44.28414" lon="5.01509">
        <ele>197</ele>
        <time>2018-02-21T14:02:44Z</time>
      </trkpt>
      <trkpt lat="44.28408" lon="5.01497">
        <ele>195</ele>
        <time>2018-02-21T14:02:46Z</time>
      </trkpt>
      <trkpt lat="44.28402" lon="5.01477">
        <ele>194</ele>
        <time>2018-02-21T14:02:49Z</time>
      </trkpt>
      <trkpt lat="44.284" lon="5.01463">
        <ele>194</ele>
        <time>2018-02-21T14:02:51Z</time>
      </trkpt>
      <trkpt lat="44.284" lon="5.0144">
        <ele>195</ele>
        <time>2018-02-21T14:02:54Z</time>
      </trkpt>
      <trkpt lat="44.28401" lon="5.01426">
        <ele>196</ele>
        <time>2018-02-21T14:02:56Z</time>
      </trkpt>
      <trkpt lat="44.28404" lon="5.01412">
        <ele>197</ele>
        <time>2018-02-21T14:02:58Z</time>
      </trkpt>
      <trkpt lat="44.28407" lon="5.01392">
        <ele>199</ele>
        <time>2018-02-21T14:03:01Z</time>
      </trkpt>
      <trkpt lat="44.28407" lon="5.01371">
        <ele>199</ele>
        <time>2018-02-21T14:03:04Z</time>
      </trkpt>
      <trkpt lat="44.28403" lon="5.01351">
        <ele>199</ele>
        <time>2018-02-21T14:03:07Z</time>
      </trkpt>
      <trkpt lat="44.28399" lon="5.01334">
        <ele>197</ele>
        <time>2018-02-21T14:03:10Z</time>
      </trkpt>
      <trkpt lat="44.28396" lon="5.01322">
        <ele>198</ele>
        <time>2018-02-21T14:03:12Z</time>
      </trkpt>
      <trkpt lat="44.28394" lon="5.01311">
        <ele>198</ele>
        <time>2018-02-21T14:03:14Z</time>
      </trkpt>
      <trkpt lat="44.28392" lon="5.01299">
        <ele>198</ele>
        <time>2018-02-21T14:03:16Z</time>
      </trkpt>
      <trkpt lat="44.28391" lon="5.01288">
        <ele>198</ele>
        <time>2018-02-21T14:03:18Z</time>
      </trkpt>
      <trkpt lat="44.28392" lon="5.01267">
        <ele>198</ele>
        <time>2018-02-21T14:03:21Z</time>
      </trkpt>
      <trkpt lat="44.28394" lon="5.01244">
        <ele>198</ele>
        <time>2018-02-21T14:03:24Z</time>
      </trkpt>
      <trkpt lat="44.28397" lon="5.01231">
        <ele>199</ele>
        <time>2018-02-21T14:03:26Z</time>
      </trkpt>
      <trkpt lat="44.284" lon="5.01217">
        <ele>199</ele>
        <time>2018-02-21T14:03:28Z</time>
      </trkpt>
      <trkpt lat="44.28403" lon="5.01195">
        <ele>199</ele>
        <time>2018-02-21T14:03:31Z</time>
      </trkpt>
      <trkpt lat="44.28407" lon="5.01173">
        <ele>198</ele>
        <time>2018-02-21T14:03:34Z</time>
      </trkpt>
      <trkpt lat="44.28408" lon="5.01149">
        <ele>198</ele>
        <time>2018-02-21T14:03:37Z</time>
      </trkpt>
      <trkpt lat="44.28408" lon="5.01132">
        <ele>198</ele>
        <time>2018-02-21T14:03:39Z</time>
      </trkpt>
      <trkpt lat="44.28402" lon="5.01109">
        <ele>200</ele>
        <time>2018-02-21T14:03:42Z</time>
      </trkpt>
      <trkpt lat="44.28394" lon="5.01088">
        <ele>200</ele>
        <time>2018-02-21T14:03:45Z</time>
      </trkpt>
      <trkpt lat="44.28386" lon="5.01065">
        <ele>198</ele>
        <time>2018-02-21T14:03:48Z</time>
      </trkpt>
      <trkpt lat="44.28382" lon="5.01049">
        <ele>197</ele>
        <time>2018-02-21T14:03:50Z</time>
      </trkpt>
      <trkpt lat="44.2838" lon="5.01032">
        <ele>197</ele>
        <time>2018-02-21T14:03:52Z</time>
      </trkpt>
      <trkpt lat="44.28379" lon="5.01015">
        <ele>198</ele>
        <time>2018-02-21T14:03:54Z</time>
      </trkpt>
      <trkpt lat="44.28379" lon="5.00999">
        <ele>199</ele>
        <time>2018-02-21T14:03:56Z</time>
      </trkpt>
      <trkpt lat="44.28378" lon="5.00976">
        <ele>200</ele>
        <time>2018-02-21T14:03:59Z</time>
      </trkpt>
      <trkpt lat="44.28378" lon="5.0096">
        <ele>200</ele>
        <time>2018-02-21T14:04:01Z</time>
      </trkpt>
      <trkpt lat="44.28376" lon="5.00945">
        <ele>199</ele>
        <time>2018-02-21T14:04:03Z</time>
      </trkpt>
      <trkpt lat="44.28374" lon="5.00922">
        <ele>199</ele>
        <time>2018-02-21T14:04:06Z</time>
      </trkpt>
      <trkpt lat="44.28371" lon="5.00899">
        <ele>200</ele>
        <time>2018-02-21T14:04:09Z</time>
      </trkpt>
      <trkpt lat="44.28368" lon="5.00875">
        <ele>199</ele>
        <time>2018-02-21T14:04:12Z</time>
      </trkpt>
      <trkpt lat="44.28368" lon="5.0085">
        <ele>198</ele>
        <time>2018-02-21T14:04:15Z</time>
      </trkpt>
      <trkpt lat="44.28368" lon="5.00834">
        <ele>197</ele>
        <time>2018-02-21T14:04:17Z</time>
      </trkpt>
      <trkpt lat="44.28367" lon="5.00817">
        <ele>197</ele>
        <time>2018-02-21T14:04:19Z</time>
      </trkpt>
      <trkpt lat="44.28367" lon="5.00794">
        <ele>197</ele>
        <time>2018-02-21T14:04:22Z</time>
      </trkpt>
      <trkpt lat="44.28367" lon="5.00768">
        <ele>198</ele>
        <time>2018-02-21T14:04:25Z</time>
      </trkpt>
      <trkpt lat="44.28366" lon="5.00741">
        <ele>199</ele>
        <time>2018-02-21T14:04:28Z</time>
      </trkpt>
      <trkpt lat="44.28366" lon="5.00715">
        <ele>200</ele>
        <time>2018-02-21T14:04:31Z</time>
      </trkpt>
      <trkpt lat="44.28366" lon="5.00688">
        <ele>200</ele>
        <time>2018-02-21T14:04:34Z</time>
      </trkpt>
      <trkpt lat="44.28365" lon="5.00662">
        <ele>199</ele>
        <time>2018-02-21T14:04:37Z</time>
      </trkpt>
      <trkpt lat="44.28365" lon="5.00644">
        <ele>199</ele>
        <time>2018-02-21T14:04:39Z</time>
      </trkpt>
      <trkpt lat="44.28362" lon="5.00619">
        <ele>199</ele>
        <time>2018-02-21T14:04:42Z</time>
      </trkpt>
      <trkpt lat="44.28359" lon="5.00602">
        <ele>199</ele>
        <time>2018-02-21T14:04:44Z</time>
      </trkpt>
      <trkpt lat="44.28354" lon="5.00576">
        <ele>200</ele>
        <time>2018-02-21T14:04:47Z</time>
      </trkpt>
      <trkpt lat="44.28349" lon="5.00551">
        <ele>199</ele>
        <time>2018-02-21T14:04:50Z</time>
      </trkpt>
      <trkpt lat="44.28344" lon="5.00525">
        <ele>198</ele>
        <time>2018-02-21T14:04:53Z</time>
      </trkpt>
      <trkpt lat="44.28339" lon="5.00499">
        <ele>198</ele>
        <time>2018-02-21T14:04:56Z</time>
      </trkpt>
      <trkpt lat="44.28336" lon="5.00472">
        <ele>199</ele>
        <time>2018-02-21T14:04:59Z</time>
      </trkpt>
      <trkpt lat="44.28334" lon="5.00446">
        <ele>199</ele>
        <time>2018-02-21T14:05:02Z</time>
      </trkpt>
      <trkpt lat="44.28331" lon="5.00421">
        <ele>200</ele>
        <time>2018-02-21T14:05:05Z</time>
      </trkpt>
      <trkpt lat="44.2833" lon="5.00405">
        <ele>200</ele>
        <time>2018-02-21T14:05:07Z</time>
      </trkpt>
      <trkpt lat="44.28328" lon="5.00388">
        <ele>200</ele>
        <time>2018-02-21T14:05:09Z</time>
      </trkpt>
      <trkpt lat="44.28323" lon="5.00364">
        <ele>201</ele>
        <time>2018-02-21T14:05:12Z</time>
      </trkpt>
      <trkpt lat="44.28319" lon="5.00348">
        <ele>200</ele>
        <time>2018-02-21T14:05:14Z</time>
      </trkpt>
      <trkpt lat="44.28314" lon="5.00331">
        <ele>199</ele>
        <time>2018-02-21T14:05:16Z</time>
      </trkpt>
      <trkpt lat="44.28308" lon="5.00314">
        <ele>198</ele>
        <time>2018-02-21T14:05:18Z</time>
      </trkpt>
      <trkpt lat="44.283" lon="5.00288">
        <ele>197</ele>
        <time>2018-02-21T14:05:21Z</time>
      </trkpt>
      <trkpt lat="44.28295" lon="5.00271">
        <ele>197</ele>
        <time>2018-02-21T14:05:23Z</time>
      </trkpt>
      <trkpt lat="44.28291" lon="5.00253">
        <ele>197</ele>
        <time>2018-02-21T14:05:25Z</time>
      </trkpt>
      <trkpt lat="44.28286" lon="5.00226">
        <ele>197</ele>
        <time>2018-02-21T14:05:28Z</time>
      </trkpt>
      <trkpt lat="44.28281" lon="5.00199">
        <ele>197</ele>
        <time>2018-02-21T14:05:31Z</time>
      </trkpt>
      <trkpt lat="44.28277" lon="5.0018">
        <ele>198</ele>
        <time>2018-02-21T14:05:33Z</time>
      </trkpt>
      <trkpt lat="44.28268" lon="5.00152">
        <ele>198</ele>
        <time>2018-02-21T14:05:36Z</time>
      </trkpt>
      <trkpt lat="44.28261" lon="5.00124">
        <ele>198</ele>
        <time>2018-02-21T14:05:39Z</time>
      </trkpt>
      <trkpt lat="44.28258" lon="5.00104">
        <ele>197</ele>
        <time>2018-02-21T14:05:41Z</time>
      </trkpt>
      <trkpt lat="44.28254" lon="5.00073">
        <ele>198</ele>
        <time>2018-02-21T14:05:44Z</time>
      </trkpt>
      <trkpt lat="44.28251" lon="5.00054">
        <ele>198</ele>
        <time>2018-02-21T14:05:46Z</time>
      </trkpt>
      <trkpt lat="44.28247" lon="5.00024">
        <ele>200</ele>
        <time>2018-02-21T14:05:49Z</time>
      </trkpt>
      <trkpt lat="44.28244" lon="4.99995">
        <ele>199</ele>
        <time>2018-02-21T14:05:52Z</time>
      </trkpt>
      <trkpt lat="44.28241" lon="4.99975">
        <ele>198</ele>
        <time>2018-02-21T14:05:54Z</time>
      </trkpt>
      <trkpt lat="44.28239" lon="4.99956">
        <ele>197</ele>
        <time>2018-02-21T14:05:56Z</time>
      </trkpt>
      <trkpt lat="44.28235" lon="4.99927">
        <ele>196</ele>
        <time>2018-02-21T14:05:59Z</time>
      </trkpt>
      <trkpt lat="44.28231" lon="4.99897">
        <ele>195</ele>
        <time>2018-02-21T14:06:02Z</time>
      </trkpt>
      <trkpt lat="44.28227" lon="4.99868">
        <ele>196</ele>
        <time>2018-02-21T14:06:05Z</time>
      </trkpt>
      <trkpt lat="44.28225" lon="4.9985">
        <ele>197</ele>
        <time>2018-02-21T14:06:07Z</time>
      </trkpt>
      <trkpt lat="44.28222" lon="4.99823">
        <ele>197</ele>
        <time>2018-02-21T14:06:10Z</time>
      </trkpt>
      <trkpt lat="44.28218" lon="4.99795">
        <ele>196</ele>
        <time>2018-02-21T14:06:13Z</time>
      </trkpt>
      <trkpt lat="44.28216" lon="4.99766">
        <ele>197</ele>
        <time>2018-02-21T14:06:16Z</time>
      </trkpt>
      <trkpt lat="44.28215" lon="4.99734">
        <ele>196</ele>
        <time>2018-02-21T14:06:19Z</time>
      </trkpt>
      <trkpt lat="44.28214" lon="4.99703">
        <ele>196</ele>
        <time>2018-02-21T14:06:22Z</time>
      </trkpt>
      <trkpt lat="44.28212" lon="4.99682">
        <ele>195</ele>
        <time>2018-02-21T14:06:24Z</time>
      </trkpt>
      <trkpt lat="44.28207" lon="4.99661">
        <ele>193</ele>
        <time>2018-02-21T14:06:26Z</time>
      </trkpt>
      <trkpt lat="44.282" lon="4.99629">
        <ele>193</ele>
        <time>2018-02-21T14:06:29Z</time>
      </trkpt>
      <trkpt lat="44.28194" lon="4.99597">
        <ele>192</ele>
        <time>2018-02-21T14:06:32Z</time>
      </trkpt>
      <trkpt lat="44.28189" lon="4.99566">
        <ele>193</ele>
        <time>2018-02-21T14:06:35Z</time>
      </trkpt>
      <trkpt lat="44.28183" lon="4.99534">
        <ele>193</ele>
        <time>2018-02-21T14:06:38Z</time>
      </trkpt>
      <trkpt lat="44.28179" lon="4.99514">
        <ele>194</ele>
        <time>2018-02-21T14:06:40Z</time>
      </trkpt>
      <trkpt lat="44.28173" lon="4.99484">
        <ele>194</ele>
        <time>2018-02-21T14:06:43Z</time>
      </trkpt>
      <trkpt lat="44.28168" lon="4.99465">
        <ele>192</ele>
        <time>2018-02-21T14:06:45Z</time>
      </trkpt>
      <trkpt lat="44.28162" lon="4.99435">
        <ele>190</ele>
        <time>2018-02-21T14:06:48Z</time>
      </trkpt>
      <trkpt lat="44.28154" lon="4.99407">
        <ele>188</ele>
        <time>2018-02-21T14:06:51Z</time>
      </trkpt>
      <trkpt lat="44.28148" lon="4.99388">
        <ele>188</ele>
        <time>2018-02-21T14:06:53Z</time>
      </trkpt>
      <trkpt lat="44.28137" lon="4.9936">
        <ele>189</ele>
        <time>2018-02-21T14:06:56Z</time>
      </trkpt>
      <trkpt lat="44.2813" lon="4.99341">
        <ele>189</ele>
        <time>2018-02-21T14:06:58Z</time>
      </trkpt>
      <trkpt lat="44.28122" lon="4.99323">
        <ele>189</ele>
        <time>2018-02-21T14:07:00Z</time>
      </trkpt>
      <trkpt lat="44.28112" lon="4.99295">
        <ele>188</ele>
        <time>2018-02-21T14:07:03Z</time>
      </trkpt>
      <trkpt lat="44.28103" lon="4.99269">
        <ele>189</ele>
        <time>2018-02-21T14:07:06Z</time>
      </trkpt>
      <trkpt lat="44.28099" lon="4.99252">
        <ele>189</ele>
        <time>2018-02-21T14:07:08Z</time>
      </trkpt>
      <trkpt lat="44.28097" lon="4.99228">
        <ele>188</ele>
        <time>2018-02-21T14:07:11Z</time>
      </trkpt>
      <trkpt lat="44.28097" lon="4.99212">
        <ele>187</ele>
        <time>2018-02-21T14:07:13Z</time>
      </trkpt>
      <trkpt lat="44.28098" lon="4.9919">
        <ele>187</ele>
        <time>2018-02-21T14:07:16Z</time>
      </trkpt>
      <trkpt lat="44.28089" lon="4.99171">
        <ele>187</ele>
        <time>2018-02-21T14:07:19Z</time>
      </trkpt>
      <trkpt lat="44.28072" lon="4.99167">
        <ele>186</ele>
        <time>2018-02-21T14:07:22Z</time>
      </trkpt>
      <trkpt lat="44.28062" lon="4.99162">
        <ele>186</ele>
        <time>2018-02-21T14:07:24Z</time>
      </trkpt>
      <trkpt lat="44.28051" lon="4.99149">
        <ele>186</ele>
        <time>2018-02-21T14:07:27Z</time>
      </trkpt>
      <trkpt lat="44.28045" lon="4.99139">
        <ele>186</ele>
        <time>2018-02-21T14:07:29Z</time>
      </trkpt>
      <trkpt lat="44.28036" lon="4.99121">
        <ele>185</ele>
        <time>2018-02-21T14:07:32Z</time>
      </trkpt>
      <trkpt lat="44.28032" lon="4.99108">
        <ele>185</ele>
        <time>2018-02-21T14:07:34Z</time>
      </trkpt>
      <trkpt lat="44.28028" lon="4.99094">
        <ele>185</ele>
        <time>2018-02-21T14:07:36Z</time>
      </trkpt>
      <trkpt lat="44.28025" lon="4.9908">
        <ele>185</ele>
        <time>2018-02-21T14:07:38Z</time>
      </trkpt>
      <trkpt lat="44.28022" lon="4.99065">
        <ele>185</ele>
        <time>2018-02-21T14:07:40Z</time>
      </trkpt>
      <trkpt lat="44.28019" lon="4.9905">
        <ele>186</ele>
        <time>2018-02-21T14:07:42Z</time>
      </trkpt>
      <trkpt lat="44.28015" lon="4.99025">
        <ele>186</ele>
        <time>2018-02-21T14:07:45Z</time>
      </trkpt>
      <trkpt lat="44.28011" lon="4.99">
        <ele>187</ele>
        <time>2018-02-21T14:07:48Z</time>
      </trkpt>
      <trkpt lat="44.28006" lon="4.98975">
        <ele>186</ele>
        <time>2018-02-21T14:07:51Z</time>
      </trkpt>
      <trkpt lat="44.28002" lon="4.98949">
        <ele>186</ele>
        <time>2018-02-21T14:07:54Z</time>
      </trkpt>
      <trkpt lat="44.27996" lon="4.98922">
        <ele>185</ele>
        <time>2018-02-21T14:07:57Z</time>
      </trkpt>
      <trkpt lat="44.27991" lon="4.98894">
        <ele>186</ele>
        <time>2018-02-21T14:08:00Z</time>
      </trkpt>
      <trkpt lat="44.27988" lon="4.98875">
        <ele>185</ele>
        <time>2018-02-21T14:08:02Z</time>
      </trkpt>
      <trkpt lat="44.27981" lon="4.98847">
        <ele>186</ele>
        <time>2018-02-21T14:08:05Z</time>
      </trkpt>
      <trkpt lat="44.2797" lon="4.9882">
        <ele>186</ele>
        <time>2018-02-21T14:08:08Z</time>
      </trkpt>
      <trkpt lat="44.27958" lon="4.98794">
        <ele>186</ele>
        <time>2018-02-21T14:08:11Z</time>
      </trkpt>
      <trkpt lat="44.27945" lon="4.98769">
        <ele>186</ele>
        <time>2018-02-21T14:08:14Z</time>
      </trkpt>
      <trkpt lat="44.2793" lon="4.98746">
        <ele>186</ele>
        <time>2018-02-21T14:08:17Z</time>
      </trkpt>
      <trkpt lat="44.27914" lon="4.98725">
        <ele>186</ele>
        <time>2018-02-21T14:08:20Z</time>
      </trkpt>
      <trkpt lat="44.27897" lon="4.98705">
        <ele>186</ele>
        <time>2018-02-21T14:08:23Z</time>
      </trkpt>
      <trkpt lat="44.27881" lon="4.98683">
        <ele>186</ele>
        <time>2018-02-21T14:08:26Z</time>
      </trkpt>
      <trkpt lat="44.27872" lon="4.98666">
        <ele>187</ele>
        <time>2018-02-21T14:08:28Z</time>
      </trkpt>
      <trkpt lat="44.27863" lon="4.9864">
        <ele>188</ele>
        <time>2018-02-21T14:08:31Z</time>
      </trkpt>
      <trkpt lat="44.27859" lon="4.98622">
        <ele>189</ele>
        <time>2018-02-21T14:08:33Z</time>
      </trkpt>
      <trkpt lat="44.27858" lon="4.98596">
        <ele>190</ele>
        <time>2018-02-21T14:08:36Z</time>
      </trkpt>
      <trkpt lat="44.27859" lon="4.9857">
        <ele>192</ele>
        <time>2018-02-21T14:08:39Z</time>
      </trkpt>
      <trkpt lat="44.2786" lon="4.98554">
        <ele>192</ele>
        <time>2018-02-21T14:08:41Z</time>
      </trkpt>
      <trkpt lat="44.2786" lon="4.98537">
        <ele>191</ele>
        <time>2018-02-21T14:08:43Z</time>
      </trkpt>
      <trkpt lat="44.2786" lon="4.98523">
        <ele>190</ele>
        <time>2018-02-21T14:08:45Z</time>
      </trkpt>
      <trkpt lat="44.27861" lon="4.98508">
        <ele>189</ele>
        <time>2018-02-21T14:08:47Z</time>
      </trkpt>
      <trkpt lat="44.2786" lon="4.98482">
        <ele>188</ele>
        <time>2018-02-21T14:08:50Z</time>
      </trkpt>
      <trkpt lat="44.27859" lon="4.98464">
        <ele>187</ele>
        <time>2018-02-21T14:08:52Z</time>
      </trkpt>
      <trkpt lat="44.27856" lon="4.98447">
        <ele>187</ele>
        <time>2018-02-21T14:08:54Z</time>
      </trkpt>
      <trkpt lat="44.27852" lon="4.9842">
        <ele>186</ele>
        <time>2018-02-21T14:08:57Z</time>
      </trkpt>
      <trkpt lat="44.27848" lon="4.984">
        <ele>185</ele>
        <time>2018-02-21T14:08:59Z</time>
      </trkpt>
      <trkpt lat="44.2784" lon="4.9837">
        <ele>185</ele>
        <time>2018-02-21T14:09:02Z</time>
      </trkpt>
      <trkpt lat="44.27825" lon="4.98345">
        <ele>184</ele>
        <time>2018-02-21T14:09:05Z</time>
      </trkpt>
      <trkpt lat="44.27814" lon="4.98328">
        <ele>184</ele>
        <time>2018-02-21T14:09:07Z</time>
      </trkpt>
      <trkpt lat="44.27799" lon="4.98303">
        <ele>183</ele>
        <time>2018-02-21T14:09:10Z</time>
      </trkpt>
      <trkpt lat="44.27787" lon="4.98275">
        <ele>184</ele>
        <time>2018-02-21T14:09:13Z</time>
      </trkpt>
      <trkpt lat="44.27779" lon="4.98256">
        <ele>184</ele>
        <time>2018-02-21T14:09:15Z</time>
      </trkpt>
      <trkpt lat="44.27769" lon="4.98228">
        <ele>184</ele>
        <time>2018-02-21T14:09:18Z</time>
      </trkpt>
      <trkpt lat="44.27759" lon="4.98199">
        <ele>183</ele>
        <time>2018-02-21T14:09:21Z</time>
      </trkpt>
      <trkpt lat="44.27752" lon="4.98179">
        <ele>182</ele>
        <time>2018-02-21T14:09:23Z</time>
      </trkpt>
      <trkpt lat="44.27747" lon="4.98158">
        <ele>183</ele>
        <time>2018-02-21T14:09:25Z</time>
      </trkpt>
      <trkpt lat="44.27739" lon="4.98127">
        <ele>183</ele>
        <time>2018-02-21T14:09:28Z</time>
      </trkpt>
      <trkpt lat="44.27732" lon="4.98096">
        <ele>183</ele>
        <time>2018-02-21T14:09:31Z</time>
      </trkpt>
      <trkpt lat="44.27727" lon="4.98076">
        <ele>182</ele>
        <time>2018-02-21T14:09:33Z</time>
      </trkpt>
      <trkpt lat="44.2772" lon="4.98044">
        <ele>180</ele>
        <time>2018-02-21T14:09:36Z</time>
      </trkpt>
      <trkpt lat="44.27713" lon="4.98012">
        <ele>180</ele>
        <time>2018-02-21T14:09:39Z</time>
      </trkpt>
      <trkpt lat="44.27708" lon="4.97991">
        <ele>181</ele>
        <time>2018-02-21T14:09:41Z</time>
      </trkpt>
      <trkpt lat="44.27703" lon="4.97969">
        <ele>181</ele>
        <time>2018-02-21T14:09:43Z</time>
      </trkpt>
      <trkpt lat="44.27698" lon="4.97937">
        <ele>181</ele>
        <time>2018-02-21T14:09:46Z</time>
      </trkpt>
      <trkpt lat="44.27694" lon="4.97918">
        <ele>180</ele>
        <time>2018-02-21T14:09:48Z</time>
      </trkpt>
      <trkpt lat="44.27686" lon="4.97886">
        <ele>181</ele>
        <time>2018-02-21T14:09:51Z</time>
      </trkpt>
      <trkpt lat="44.27679" lon="4.97863">
        <ele>181</ele>
        <time>2018-02-21T14:09:53Z</time>
      </trkpt>
      <trkpt lat="44.27668" lon="4.97831">
        <ele>180</ele>
        <time>2018-02-21T14:09:56Z</time>
      </trkpt>
      <trkpt lat="44.27656" lon="4.97799">
        <ele>180</ele>
        <time>2018-02-21T14:09:59Z</time>
      </trkpt>
      <trkpt lat="44.27645" lon="4.97767">
        <ele>179</ele>
        <time>2018-02-21T14:10:02Z</time>
      </trkpt>
      <trkpt lat="44.27634" lon="4.97737">
        <ele>179</ele>
        <time>2018-02-21T14:10:05Z</time>
      </trkpt>
      <trkpt lat="44.27626" lon="4.97716">
        <ele>179</ele>
        <time>2018-02-21T14:10:07Z</time>
      </trkpt>
      <trkpt lat="44.27618" lon="4.97696">
        <ele>179</ele>
        <time>2018-02-21T14:10:09Z</time>
      </trkpt>
      <trkpt lat="44.27607" lon="4.97667">
        <ele>179</ele>
        <time>2018-02-21T14:10:12Z</time>
      </trkpt>
      <trkpt lat="44.27597" lon="4.97638">
        <ele>179</ele>
        <time>2018-02-21T14:10:15Z</time>
      </trkpt>
      <trkpt lat="44.27589" lon="4.97609">
        <ele>178</ele>
        <time>2018-02-21T14:10:18Z</time>
      </trkpt>
      <trkpt lat="44.27584" lon="4.97591">
        <ele>177</ele>
        <time>2018-02-21T14:10:20Z</time>
      </trkpt>
      <trkpt lat="44.27579" lon="4.97573">
        <ele>176</ele>
        <time>2018-02-21T14:10:22Z</time>
      </trkpt>
      <trkpt lat="44.27567" lon="4.97548">
        <ele>176</ele>
        <time>2018-02-21T14:10:25Z</time>
      </trkpt>
      <trkpt lat="44.27558" lon="4.97532">
        <ele>176</ele>
        <time>2018-02-21T14:10:27Z</time>
      </trkpt>
      <trkpt lat="44.27548" lon="4.97517">
        <ele>177</ele>
        <time>2018-02-21T14:10:29Z</time>
      </trkpt>
      <trkpt lat="44.27533" lon="4.97495">
        <ele>177</ele>
        <time>2018-02-21T14:10:32Z</time>
      </trkpt>
      <trkpt lat="44.27523" lon="4.97478">
        <ele>178</ele>
        <time>2018-02-21T14:10:34Z</time>
      </trkpt>
      <trkpt lat="44.27513" lon="4.9745">
        <ele>178</ele>
        <time>2018-02-21T14:10:37Z</time>
      </trkpt>
      <trkpt lat="44.27507" lon="4.97432">
        <ele>178</ele>
        <time>2018-02-21T14:10:39Z</time>
      </trkpt>
      <trkpt lat="44.27497" lon="4.97404">
        <ele>179</ele>
        <time>2018-02-21T14:10:42Z</time>
      </trkpt>
      <trkpt lat="44.27485" lon="4.97377">
        <ele>178</ele>
        <time>2018-02-21T14:10:45Z</time>
      </trkpt>
      <trkpt lat="44.27469" lon="4.9735">
        <ele>178</ele>
        <time>2018-02-21T14:10:48Z</time>
      </trkpt>
      <trkpt lat="44.27458" lon="4.97331">
        <ele>177</ele>
        <time>2018-02-21T14:10:50Z</time>
      </trkpt>
      <trkpt lat="44.27446" lon="4.97312">
        <ele>177</ele>
        <time>2018-02-21T14:10:52Z</time>
      </trkpt>
      <trkpt lat="44.27429" lon="4.97285">
        <ele>176</ele>
        <time>2018-02-21T14:10:55Z</time>
      </trkpt>
      <trkpt lat="44.27412" lon="4.97258">
        <ele>173</ele>
        <time>2018-02-21T14:10:58Z</time>
      </trkpt>
      <trkpt lat="44.27391" lon="4.97233">
        <ele>171</ele>
        <time>2018-02-21T14:11:01Z</time>
      </trkpt>
      <trkpt lat="44.2737" lon="4.97207">
        <ele>169</ele>
        <time>2018-02-21T14:11:04Z</time>
      </trkpt>
      <trkpt lat="44.27351" lon="4.97178">
        <ele>169</ele>
        <time>2018-02-21T14:11:07Z</time>
      </trkpt>
      <trkpt lat="44.27341" lon="4.97157">
        <ele>169</ele>
        <time>2018-02-21T14:11:09Z</time>
      </trkpt>
      <trkpt lat="44.27329" lon="4.97126">
        <ele>168</ele>
        <time>2018-02-21T14:11:12Z</time>
      </trkpt>
      <trkpt lat="44.27323" lon="4.97106">
        <ele>168</ele>
        <time>2018-02-21T14:11:14Z</time>
      </trkpt>
      <trkpt lat="44.27317" lon="4.97085">
        <ele>168</ele>
        <time>2018-02-21T14:11:16Z</time>
      </trkpt>
      <trkpt lat="44.27311" lon="4.97064">
        <ele>169</ele>
        <time>2018-02-21T14:11:18Z</time>
      </trkpt>
      <trkpt lat="44.27305" lon="4.97044">
        <ele>169</ele>
        <time>2018-02-21T14:11:20Z</time>
      </trkpt>
      <trkpt lat="44.27299" lon="4.97022">
        <ele>169</ele>
        <time>2018-02-21T14:11:22Z</time>
      </trkpt>
      <trkpt lat="44.27293" lon="4.97001">
        <ele>170</ele>
        <time>2018-02-21T14:11:24Z</time>
      </trkpt>
      <trkpt lat="44.27287" lon="4.9698">
        <ele>171</ele>
        <time>2018-02-21T14:11:26Z</time>
      </trkpt>
      <trkpt lat="44.27281" lon="4.96959">
        <ele>172</ele>
        <time>2018-02-21T14:11:28Z</time>
      </trkpt>
      <trkpt lat="44.27274" lon="4.96929">
        <ele>173</ele>
        <time>2018-02-21T14:11:31Z</time>
      </trkpt>
      <trkpt lat="44.27268" lon="4.9691">
        <ele>174</ele>
        <time>2018-02-21T14:11:33Z</time>
      </trkpt>
      <trkpt lat="44.27261" lon="4.96883">
        <ele>175</ele>
        <time>2018-02-21T14:11:36Z</time>
      </trkpt>
      <trkpt lat="44.27257" lon="4.96866">
        <ele>175</ele>
        <time>2018-02-21T14:11:38Z</time>
      </trkpt>
      <trkpt lat="44.27251" lon="4.96838">
        <ele>175</ele>
        <time>2018-02-21T14:11:41Z</time>
      </trkpt>
      <trkpt lat="44.27246" lon="4.96807">
        <ele>173</ele>
        <time>2018-02-21T14:11:44Z</time>
      </trkpt>
      <trkpt lat="44.27242" lon="4.96786">
        <ele>173</ele>
        <time>2018-02-21T14:11:46Z</time>
      </trkpt>
      <trkpt lat="44.27237" lon="4.96765">
        <ele>173</ele>
        <time>2018-02-21T14:11:48Z</time>
      </trkpt>
      <trkpt lat="44.27227" lon="4.96735">
        <ele>173</ele>
        <time>2018-02-21T14:11:51Z</time>
      </trkpt>
      <trkpt lat="44.27212" lon="4.96707">
        <ele>172</ele>
        <time>2018-02-21T14:11:54Z</time>
      </trkpt>
      <trkpt lat="44.27197" lon="4.96683">
        <ele>169</ele>
        <time>2018-02-21T14:11:57Z</time>
      </trkpt>
      <trkpt lat="44.27182" lon="4.9666">
        <ele>168</ele>
        <time>2018-02-21T14:12:00Z</time>
      </trkpt>
      <trkpt lat="44.27173" lon="4.96645">
        <ele>165</ele>
        <time>2018-02-21T14:12:02Z</time>
      </trkpt>
      <trkpt lat="44.27159" lon="4.96621">
        <ele>165</ele>
        <time>2018-02-21T14:12:05Z</time>
      </trkpt>
      <trkpt lat="44.2715" lon="4.96604">
        <ele>165</ele>
        <time>2018-02-21T14:12:07Z</time>
      </trkpt>
      <trkpt lat="44.27137" lon="4.96579">
        <ele>165</ele>
        <time>2018-02-21T14:12:10Z</time>
      </trkpt>
      <trkpt lat="44.2713" lon="4.96563">
        <ele>165</ele>
        <time>2018-02-21T14:12:12Z</time>
      </trkpt>
      <trkpt lat="44.27118" lon="4.96539">
        <ele>166</ele>
        <time>2018-02-21T14:12:15Z</time>
      </trkpt>
      <trkpt lat="44.2711" lon="4.96524">
        <ele>166</ele>
        <time>2018-02-21T14:12:17Z</time>
      </trkpt>
      <trkpt lat="44.27102" lon="4.96508">
        <ele>167</ele>
        <time>2018-02-21T14:12:19Z</time>
      </trkpt>
      <trkpt lat="44.27095" lon="4.96494">
        <ele>167</ele>
        <time>2018-02-21T14:12:21Z</time>
      </trkpt>
      <trkpt lat="44.27085" lon="4.96476">
        <ele>167</ele>
        <time>2018-02-21T14:12:24Z</time>
      </trkpt>
      <trkpt lat="44.27081" lon="4.96465">
        <ele>167</ele>
        <time>2018-02-21T14:12:26Z</time>
      </trkpt>
      <trkpt lat="44.27076" lon="4.96453">
        <ele>168</ele>
        <time>2018-02-21T14:12:29Z</time>
      </trkpt>
      <trkpt lat="44.27073" lon="4.96446">
        <ele>168</ele>
        <time>2018-02-21T14:12:31Z</time>
      </trkpt>
      <trkpt lat="44.27069" lon="4.96436">
        <ele>169</ele>
        <time>2018-02-21T14:12:34Z</time>
      </trkpt>
      <trkpt lat="44.27067" lon="4.96431">
        <ele>169</ele>
        <time>2018-02-21T14:12:36Z</time>
      </trkpt>
      <trkpt lat="44.27066" lon="4.96425">
        <ele>170</ele>
        <time>2018-02-21T14:12:38Z</time>
      </trkpt>
      <trkpt lat="44.27062" lon="4.96419">
        <ele>169</ele>
        <time>2018-02-21T14:12:41Z</time>
      </trkpt>
      <trkpt lat="44.27059" lon="4.96418">
        <ele>168</ele>
        <time>2018-02-21T14:12:43Z</time>
      </trkpt>
      <trkpt lat="44.27055" lon="4.96419">
        <ele>168</ele>
        <time>2018-02-21T14:12:46Z</time>
      </trkpt>
      <trkpt lat="44.27052" lon="4.96423">
        <ele>167</ele>
        <time>2018-02-21T14:12:49Z</time>
      </trkpt>
      <trkpt lat="44.2705" lon="4.96429">
        <ele>168</ele>
        <time>2018-02-21T14:12:52Z</time>
      </trkpt>
      <trkpt lat="44.2705" lon="4.96433">
        <ele>168</ele>
        <time>2018-02-21T14:12:55Z</time>
      </trkpt>
      <trkpt lat="44.27048" lon="4.96438">
        <ele>168</ele>
        <time>2018-02-21T14:12:58Z</time>
      </trkpt>
      <trkpt lat="44.27047" lon="4.96442">
        <ele>168</ele>
        <time>2018-02-21T14:13:01Z</time>
      </trkpt>
      <trkpt lat="44.27046" lon="4.96443">
        <ele>169</ele>
        <time>2018-02-21T14:13:03Z</time>
      </trkpt>
      <trkpt lat="44.27046" lon="4.96444">
        <ele>169</ele>
        <time>2018-02-21T14:13:05Z</time>
      </trkpt>
      <trkpt lat="44.27046" lon="4.96444">
        <ele>169</ele>
        <time>2018-02-21T14:13:09Z</time>
      </trkpt>
      <trkpt lat="44.27046" lon="4.96445">
        <ele>169</ele>
        <time>2018-02-21T14:13:12Z</time>
      </trkpt>
      <trkpt lat="44.27046" lon="4.96445">
        <ele>169</ele>
        <time>2018-02-21T14:13:15Z</time>
      </trkpt>
      <trkpt lat="44.27046" lon="4.96445">
        <ele>169</ele>
        <time>2018-02-21T14:13:17Z</time>
      </trkpt>
      <trkpt lat="44.27046" lon="4.96446">
        <ele>170</ele>
        <time>2018-02-21T14:13:20Z</time>
      </trkpt>
      <trkpt lat="44.27046" lon="4.96446">
        <ele>169</ele>
        <time>2018-02-21T14:13:22Z</time>
      </trkpt>
      <trkpt lat="44.27045" lon="4.96447">
        <ele>169</ele>
        <time>2018-02-21T14:13:24Z</time>
      </trkpt>
      <trkpt lat="44.27045" lon="4.96448">
        <ele>169</ele>
        <time>2018-02-21T14:13:27Z</time>
      </trkpt>
      <trkpt lat="44.27045" lon="4.96448">
        <ele>169</ele>
        <time>2018-02-21T14:13:31Z</time>
      </trkpt>
      <trkpt lat="44.27045" lon="4.96448">
        <ele>169</ele>
        <time>2018-02-21T14:13:34Z</time>
      </trkpt>
      <trkpt lat="44.27045" lon="4.96448">
        <ele>169</ele>
        <time>2018-02-21T14:13:38Z</time>
      </trkpt>
      <trkpt lat="44.27045" lon="4.96448">
        <ele>170</ele>
        <time>2018-02-21T14:13:41Z</time>
      </trkpt>
      <trkpt lat="44.27045" lon="4.96448">
        <ele>170</ele>
        <time>2018-02-21T14:13:43Z</time>
      </trkpt>
      <trkpt lat="44.27045" lon="4.96448">
        <ele>169</ele>
        <time>2018-02-21T14:13:46Z</time>
      </trkpt>
      <trkpt lat="44.27045" lon="4.96448">
        <ele>169</ele>
        <time>2018-02-21T14:13:48Z</time>
      </trkpt>
      <trkpt lat="44.27045" lon="4.96448">
        <ele>169</ele>
        <time>2018-02-21T14:13:50Z</time>
      </trkpt>
      <trkpt lat="44.27045" lon="4.96448">
        <ele>170</ele>
        <time>2018-02-21T14:13:52Z</time>
      </trkpt>
      <trkpt lat="44.27045" lon="4.96448">
        <ele>170</ele>
        <time>2018-02-21T14:13:54Z</time>
      </trkpt>
      <trkpt lat="44.27045" lon="4.96448">
        <ele>170</ele>
        <time>2018-02-21T14:13:56Z</time>
      </trkpt>
      <trkpt lat="44.27045" lon="4.96448">
        <ele>170</ele>
        <time>2018-02-21T14:14:01Z</time>
      </trkpt>
      <trkpt lat="44.27045" lon="4.96447">
        <ele>171</ele>
        <time>2018-02-21T14:14:03Z</time>
      </trkpt>
      <trkpt lat="44.27045" lon="4.96447">
        <ele>171</ele>
        <time>2018-02-21T14:14:05Z</time>
      </trkpt>
      <trkpt lat="44.27045" lon="4.96447">
        <ele>170</ele>
        <time>2018-02-21T14:14:08Z</time>
      </trkpt>
      <trkpt lat="44.27045" lon="4.96446">
        <ele>170</ele>
        <time>2018-02-21T14:14:12Z</time>
      </trkpt>
      <trkpt lat="44.27045" lon="4.96446">
        <ele>170</ele>
        <time>2018-02-21T14:14:14Z</time>
      </trkpt>
      <trkpt lat="44.27045" lon="4.96447">
        <ele>170</ele>
        <time>2018-02-21T14:14:18Z</time>
      </trkpt>
      <trkpt lat="44.27045" lon="4.96447">
        <ele>171</ele>
        <time>2018-02-21T14:14:20Z</time>
      </trkpt>
      <trkpt lat="44.27045" lon="4.96448">
        <ele>170</ele>
        <time>2018-02-21T14:14:22Z</time>
      </trkpt>
      <trkpt lat="44.27045" lon="4.96448">
        <ele>170</ele>
        <time>2018-02-21T14:14:24Z</time>
      </trkpt>
      <trkpt lat="44.27045" lon="4.96449">
        <ele>170</ele>
        <time>2018-02-21T14:14:27Z</time>
      </trkpt>
      <trkpt lat="44.27045" lon="4.96449">
        <ele>170</ele>
        <time>2018-02-21T14:14:29Z</time>
      </trkpt>
      <trkpt lat="44.27045" lon="4.96449">
        <ele>170</ele>
        <time>2018-02-21T14:14:31Z</time>
      </trkpt>
      <trkpt lat="44.27045" lon="4.9645">
        <ele>170</ele>
        <time>2018-02-21T14:14:35Z</time>
      </trkpt>
      <trkpt lat="44.27045" lon="4.9645">
        <ele>170</ele>
        <time>2018-02-21T14:14:37Z</time>
      </trkpt>
      <trkpt lat="44.27045" lon="4.9645">
        <ele>170</ele>
        <time>2018-02-21T14:14:40Z</time>
      </trkpt>
      <trkpt lat="44.27045" lon="4.9645">
        <ele>170</ele>
        <time>2018-02-21T14:14:42Z</time>
      </trkpt>
      <trkpt lat="44.27045" lon="4.9645">
        <ele>170</ele>
        <time>2018-02-21T14:14:51Z</time>
      </trkpt>
      <trkpt lat="44.27045" lon="4.9645">
        <ele>170</ele>
        <time>2018-02-21T14:14:53Z</time>
      </trkpt>
      <trkpt lat="44.27045" lon="4.96451">
        <ele>170</ele>
        <time>2018-02-21T14:14:57Z</time>
      </trkpt>
      <trkpt lat="44.27045" lon="4.9645">
        <ele>170</ele>
        <time>2018-02-21T14:15:01Z</time>
      </trkpt>
      <trkpt lat="44.27045" lon="4.9645">
        <ele>169</ele>
        <time>2018-02-21T14:15:04Z</time>
      </trkpt>
      <trkpt lat="44.27045" lon="4.9645">
        <ele>169</ele>
        <time>2018-02-21T14:15:06Z</time>
      </trkpt>
      <trkpt lat="44.27045" lon="4.9645">
        <ele>169</ele>
        <time>2018-02-21T14:15:09Z</time>
      </trkpt>
      <trkpt lat="44.27045" lon="4.9645">
        <ele>169</ele>
        <time>2018-02-21T14:15:11Z</time>
      </trkpt>
      <trkpt lat="44.27045" lon="4.9645">
        <ele>170</ele>
        <time>2018-02-21T14:15:14Z</time>
      </trkpt>
      <trkpt lat="44.27045" lon="4.96449">
        <ele>170</ele>
        <time>2018-02-21T14:15:16Z</time>
      </trkpt>
      <trkpt lat="44.27045" lon="4.96449">
        <ele>170</ele>
        <time>2018-02-21T14:15:19Z</time>
      </trkpt>
      <trkpt lat="44.27045" lon="4.96449">
        <ele>170</ele>
        <time>2018-02-21T14:15:22Z</time>
      </trkpt>
      <trkpt lat="44.27045" lon="4.96449">
        <ele>169</ele>
        <time>2018-02-21T14:15:27Z</time>
      </trkpt>
      <trkpt lat="44.27045" lon="4.96449">
        <ele>170</ele>
        <time>2018-02-21T14:15:32Z</time>
      </trkpt>
      <trkpt lat="44.27046" lon="4.96449">
        <ele>169</ele>
        <time>2018-02-21T14:15:39Z</time>
      </trkpt>
      <trkpt lat="44.27046" lon="4.96449">
        <ele>169</ele>
        <time>2018-02-21T14:15:42Z</time>
      </trkpt>
      <trkpt lat="44.27046" lon="4.96448">
        <ele>171</ele>
        <time>2018-02-21T14:15:48Z</time>
      </trkpt>
      <trkpt lat="44.27046" lon="4.96448">
        <ele>171</ele>
        <time>2018-02-21T14:15:50Z</time>
      </trkpt>
      <trkpt lat="44.27046" lon="4.96449">
        <ele>170</ele>
        <time>2018-02-21T14:15:53Z</time>
      </trkpt>
      <trkpt lat="44.27046" lon="4.96449">
        <ele>170</ele>
        <time>2018-02-21T14:15:57Z</time>
      </trkpt>
      <trkpt lat="44.27046" lon="4.96448">
        <ele>169</ele>
        <time>2018-02-21T14:16:00Z</time>
      </trkpt>
      <trkpt lat="44.27046" lon="4.96448">
        <ele>169</ele>
        <time>2018-02-21T14:16:03Z</time>
      </trkpt>
      <trkpt lat="44.27046" lon="4.96448">
        <ele>169</ele>
        <time>2018-02-21T14:16:06Z</time>
      </trkpt>
      <trkpt lat="44.27046" lon="4.96448">
        <ele>169</ele>
        <time>2018-02-21T14:16:08Z</time>
      </trkpt>
      <trkpt lat="44.27045" lon="4.96448">
        <ele>169</ele>
        <time>2018-02-21T14:16:10Z</time>
      </trkpt>
      <trkpt lat="44.27045" lon="4.96448">
        <ele>169</ele>
        <time>2018-02-21T14:16:13Z</time>
      </trkpt>
      <trkpt lat="44.27045" lon="4.96448">
        <ele>169</ele>
        <time>2018-02-21T14:16:15Z</time>
      </trkpt>
      <trkpt lat="44.27045" lon="4.96447">
        <ele>169</ele>
        <time>2018-02-21T14:16:17Z</time>
      </trkpt>
      <trkpt lat="44.27045" lon="4.96447">
        <ele>169</ele>
        <time>2018-02-21T14:16:20Z</time>
      </trkpt>
      <trkpt lat="44.27045" lon="4.96447">
        <ele>170</ele>
        <time>2018-02-21T14:16:23Z</time>
      </trkpt>
      <trkpt lat="44.27045" lon="4.96447">
        <ele>169</ele>
        <time>2018-02-21T14:16:25Z</time>
      </trkpt>
      <trkpt lat="44.27045" lon="4.96447">
        <ele>169</ele>
        <time>2018-02-21T14:16:31Z</time>
      </trkpt>
      <trkpt lat="44.27045" lon="4.96448">
        <ele>169</ele>
        <time>2018-02-21T14:16:35Z</time>
      </trkpt>
      <trkpt lat="44.27045" lon="4.96448">
        <ele>169</ele>
        <time>2018-02-21T14:16:41Z</time>
      </trkpt>
      <trkpt lat="44.27045" lon="4.96448">
        <ele>170</ele>
        <time>2018-02-21T14:16:45Z</time>
      </trkpt>
      <trkpt lat="44.27045" lon="4.96447">
        <ele>170</ele>
        <time>2018-02-21T14:16:48Z</time>
      </trkpt>
      <trkpt lat="44.27045" lon="4.96447">
        <ele>170</ele>
        <time>2018-02-21T14:16:52Z</time>
      </trkpt>
      <trkpt lat="44.27045" lon="4.96447">
        <ele>170</ele>
        <time>2018-02-21T14:16:54Z</time>
      </trkpt>
      <trkpt lat="44.27045" lon="4.96446">
        <ele>170</ele>
        <time>2018-02-21T14:16:58Z</time>
      </trkpt>
      <trkpt lat="44.27045" lon="4.96446">
        <ele>170</ele>
        <time>2018-02-21T14:17:00Z</time>
      </trkpt>
      <trkpt lat="44.27045" lon="4.96446">
        <ele>170</ele>
        <time>2018-02-21T14:17:03Z</time>
      </trkpt>
      <trkpt lat="44.27045" lon="4.96446">
        <ele>169</ele>
        <time>2018-02-21T14:17:05Z</time>
      </trkpt>
      <trkpt lat="44.27045" lon="4.96446">
        <ele>169</ele>
        <time>2018-02-21T14:17:07Z</time>
      </trkpt>
      <trkpt lat="44.27045" lon="4.96446">
        <ele>169</ele>
        <time>2018-02-21T14:17:09Z</time>
      </trkpt>
      <trkpt lat="44.27045" lon="4.96446">
        <ele>169</ele>
        <time>2018-02-21T14:17:12Z</time>
      </trkpt>
      <trkpt lat="44.27044" lon="4.96446">
        <ele>169</ele>
        <time>2018-02-21T14:17:14Z</time>
      </trkpt>
      <trkpt lat="44.27045" lon="4.96446">
        <ele>169</ele>
        <time>2018-02-21T14:17:16Z</time>
      </trkpt>
      <trkpt lat="44.27045" lon="4.96446">
        <ele>169</ele>
        <time>2018-02-21T14:17:19Z</time>
      </trkpt>
      <trkpt lat="44.27044" lon="4.96447">
        <ele>169</ele>
        <time>2018-02-21T14:17:23Z</time>
      </trkpt>
      <trkpt lat="44.27044" lon="4.96447">
        <ele>169</ele>
        <time>2018-02-21T14:17:26Z</time>
      </trkpt>
      <trkpt lat="44.27044" lon="4.96447">
        <ele>169</ele>
        <time>2018-02-21T14:17:29Z</time>
      </trkpt>
      <trkpt lat="44.27044" lon="4.96446">
        <ele>169</ele>
        <time>2018-02-21T14:17:32Z</time>
      </trkpt>
      <trkpt lat="44.27044" lon="4.96446">
        <ele>168</ele>
        <time>2018-02-21T14:17:36Z</time>
      </trkpt>
      <trkpt lat="44.27044" lon="4.96446">
        <ele>168</ele>
        <time>2018-02-21T14:17:39Z</time>
      </trkpt>
      <trkpt lat="44.27045" lon="4.96445">
        <ele>168</ele>
        <time>2018-02-21T14:17:41Z</time>
      </trkpt>
      <trkpt lat="44.27045" lon="4.96445">
        <ele>168</ele>
        <time>2018-02-21T14:17:44Z</time>
      </trkpt>
      <trkpt lat="44.27045" lon="4.96444">
        <ele>168</ele>
        <time>2018-02-21T14:17:47Z</time>
      </trkpt>
      <trkpt lat="44.27046" lon="4.96444">
        <ele>168</ele>
        <time>2018-02-21T14:17:49Z</time>
      </trkpt>
      <trkpt lat="44.27046" lon="4.96444">
        <ele>168</ele>
        <time>2018-02-21T14:17:51Z</time>
      </trkpt>
      <trkpt lat="44.27046" lon="4.96444">
        <ele>168</ele>
        <time>2018-02-21T14:17:54Z</time>
      </trkpt>
      <trkpt lat="44.27046" lon="4.96444">
        <ele>169</ele>
        <time>2018-02-21T14:17:56Z</time>
      </trkpt>
      <trkpt lat="44.27046" lon="4.96443">
        <ele>169</ele>
        <time>2018-02-21T14:17:59Z</time>
      </trkpt>
      <trkpt lat="44.27046" lon="4.96443">
        <ele>169</ele>
        <time>2018-02-21T14:18:03Z</time>
      </trkpt>
      <trkpt lat="44.27046" lon="4.96442">
        <ele>168</ele>
        <time>2018-02-21T14:18:06Z</time>
      </trkpt>
      <trkpt lat="44.27046" lon="4.96441">
        <ele>168</ele>
        <time>2018-02-21T14:18:09Z</time>
      </trkpt>
      <trkpt lat="44.27046" lon="4.96441">
        <ele>169</ele>
        <time>2018-02-21T14:18:11Z</time>
      </trkpt>
      <trkpt lat="44.27046" lon="4.9644">
        <ele>170</ele>
        <time>2018-02-21T14:18:15Z</time>
      </trkpt>
      <trkpt lat="44.27047" lon="4.9644">
        <ele>170</ele>
        <time>2018-02-21T14:18:18Z</time>
      </trkpt>
      <trkpt lat="44.27046" lon="4.9644">
        <ele>169</ele>
        <time>2018-02-21T14:18:21Z</time>
      </trkpt>
      <trkpt lat="44.27046" lon="4.9644">
        <ele>170</ele>
        <time>2018-02-21T14:18:24Z</time>
      </trkpt>
      <trkpt lat="44.27046" lon="4.96439">
        <ele>170</ele>
        <time>2018-02-21T14:18:27Z</time>
      </trkpt>
      <trkpt lat="44.27045" lon="4.96439">
        <ele>170</ele>
        <time>2018-02-21T14:18:30Z</time>
      </trkpt>
      <trkpt lat="44.27045" lon="4.96438">
        <ele>171</ele>
        <time>2018-02-21T14:18:32Z</time>
      </trkpt>
      <trkpt lat="44.27045" lon="4.96438">
        <ele>170</ele>
        <time>2018-02-21T14:18:34Z</time>
      </trkpt>
      <trkpt lat="44.27045" lon="4.96438">
        <ele>170</ele>
        <time>2018-02-21T14:18:36Z</time>
      </trkpt>
      <trkpt lat="44.27044" lon="4.96437">
        <ele>169</ele>
        <time>2018-02-21T14:18:39Z</time>
      </trkpt>
      <trkpt lat="44.27044" lon="4.96437">
        <ele>169</ele>
        <time>2018-02-21T14:18:42Z</time>
      </trkpt>
      <trkpt lat="44.27044" lon="4.96437">
        <ele>170</ele>
        <time>2018-02-21T14:18:48Z</time>
      </trkpt>
      <trkpt lat="44.27044" lon="4.96437">
        <ele>169</ele>
        <time>2018-02-21T14:18:51Z</time>
      </trkpt>
      <trkpt lat="44.27043" lon="4.96436">
        <ele>169</ele>
        <time>2018-02-21T14:18:54Z</time>
      </trkpt>
      <trkpt lat="44.27043" lon="4.96436">
        <ele>169</ele>
        <time>2018-02-21T14:18:56Z</time>
      </trkpt>
      <trkpt lat="44.27043" lon="4.96436">
        <ele>169</ele>
        <time>2018-02-21T14:18:58Z</time>
      </trkpt>
      <trkpt lat="44.27044" lon="4.96435">
        <ele>169</ele>
        <time>2018-02-21T14:19:00Z</time>
      </trkpt>
      <trkpt lat="44.27044" lon="4.96435">
        <ele>169</ele>
        <time>2018-02-21T14:19:02Z</time>
      </trkpt>
      <trkpt lat="44.27046" lon="4.96432">
        <ele>168</ele>
        <time>2018-02-21T14:19:05Z</time>
      </trkpt>
      <trkpt lat="44.27048" lon="4.9643">
        <ele>168</ele>
        <time>2018-02-21T14:19:07Z</time>
      </trkpt>
      <trkpt lat="44.27049" lon="4.96427">
        <ele>168</ele>
        <time>2018-02-21T14:19:09Z</time>
      </trkpt>
      <trkpt lat="44.27053" lon="4.96423">
        <ele>169</ele>
        <time>2018-02-21T14:19:12Z</time>
      </trkpt>
      <trkpt lat="44.27055" lon="4.96417">
        <ele>169</ele>
        <time>2018-02-21T14:19:15Z</time>
      </trkpt>
      <trkpt lat="44.27057" lon="4.96411">
        <ele>169</ele>
        <time>2018-02-21T14:19:18Z</time>
      </trkpt>
      <trkpt lat="44.27056" lon="4.96406">
        <ele>169</ele>
        <time>2018-02-21T14:19:21Z</time>
      </trkpt>
      <trkpt lat="44.27055" lon="4.96403">
        <ele>169</ele>
        <time>2018-02-21T14:19:23Z</time>
      </trkpt>
      <trkpt lat="44.27054" lon="4.96398">
        <ele>169</ele>
        <time>2018-02-21T14:19:26Z</time>
      </trkpt>
      <trkpt lat="44.27053" lon="4.96391">
        <ele>169</ele>
        <time>2018-02-21T14:19:29Z</time>
      </trkpt>
      <trkpt lat="44.2705" lon="4.96384">
        <ele>169</ele>
        <time>2018-02-21T14:19:32Z</time>
      </trkpt>
      <trkpt lat="44.27048" lon="4.96374">
        <ele>169</ele>
        <time>2018-02-21T14:19:35Z</time>
      </trkpt>
      <trkpt lat="44.27046" lon="4.96361">
        <ele>169</ele>
        <time>2018-02-21T14:19:38Z</time>
      </trkpt>
      <trkpt lat="44.27045" lon="4.96351">
        <ele>169</ele>
        <time>2018-02-21T14:19:40Z</time>
      </trkpt>
      <trkpt lat="44.27042" lon="4.96341">
        <ele>169</ele>
        <time>2018-02-21T14:19:42Z</time>
      </trkpt>
      <trkpt lat="44.27037" lon="4.96322">
        <ele>168</ele>
        <time>2018-02-21T14:19:45Z</time>
      </trkpt>
      <trkpt lat="44.27031" lon="4.96308">
        <ele>168</ele>
        <time>2018-02-21T14:19:47Z</time>
      </trkpt>
      <trkpt lat="44.2702" lon="4.96284">
        <ele>167</ele>
        <time>2018-02-21T14:19:50Z</time>
      </trkpt>
      <trkpt lat="44.27007" lon="4.96259">
        <ele>167</ele>
        <time>2018-02-21T14:19:53Z</time>
      </trkpt>
      <trkpt lat="44.26993" lon="4.96234">
        <ele>168</ele>
        <time>2018-02-21T14:19:56Z</time>
      </trkpt>
      <trkpt lat="44.2698" lon="4.96209">
        <ele>168</ele>
        <time>2018-02-21T14:19:59Z</time>
      </trkpt>
      <trkpt lat="44.26967" lon="4.96185">
        <ele>167</ele>
        <time>2018-02-21T14:20:02Z</time>
      </trkpt>
      <trkpt lat="44.26955" lon="4.96162">
        <ele>166</ele>
        <time>2018-02-21T14:20:05Z</time>
      </trkpt>
      <trkpt lat="44.26942" lon="4.96138">
        <ele>164</ele>
        <time>2018-02-21T14:20:08Z</time>
      </trkpt>
      <trkpt lat="44.26934" lon="4.96123">
        <ele>164</ele>
        <time>2018-02-21T14:20:10Z</time>
      </trkpt>
      <trkpt lat="44.26927" lon="4.96108">
        <ele>164</ele>
        <time>2018-02-21T14:20:12Z</time>
      </trkpt>
      <trkpt lat="44.26916" lon="4.96086">
        <ele>164</ele>
        <time>2018-02-21T14:20:15Z</time>
      </trkpt>
      <trkpt lat="44.26908" lon="4.96066">
        <ele>164</ele>
        <time>2018-02-21T14:20:18Z</time>
      </trkpt>
      <trkpt lat="44.269" lon="4.96046">
        <ele>163</ele>
        <time>2018-02-21T14:20:21Z</time>
      </trkpt>
      <trkpt lat="44.26895" lon="4.96032">
        <ele>163</ele>
        <time>2018-02-21T14:20:23Z</time>
      </trkpt>
      <trkpt lat="44.2689" lon="4.96019">
        <ele>162</ele>
        <time>2018-02-21T14:20:25Z</time>
      </trkpt>
      <trkpt lat="44.26882" lon="4.95998">
        <ele>162</ele>
        <time>2018-02-21T14:20:28Z</time>
      </trkpt>
      <trkpt lat="44.26878" lon="4.95984">
        <ele>162</ele>
        <time>2018-02-21T14:20:30Z</time>
      </trkpt>
      <trkpt lat="44.26871" lon="4.95963">
        <ele>163</ele>
        <time>2018-02-21T14:20:33Z</time>
      </trkpt>
      <trkpt lat="44.26867" lon="4.9595">
        <ele>163</ele>
        <time>2018-02-21T14:20:35Z</time>
      </trkpt>
      <trkpt lat="44.26863" lon="4.95937">
        <ele>164</ele>
        <time>2018-02-21T14:20:37Z</time>
      </trkpt>
      <trkpt lat="44.26857" lon="4.95918">
        <ele>164</ele>
        <time>2018-02-21T14:20:40Z</time>
      </trkpt>
      <trkpt lat="44.26852" lon="4.95906">
        <ele>165</ele>
        <time>2018-02-21T14:20:42Z</time>
      </trkpt>
      <trkpt lat="44.26849" lon="4.95894">
        <ele>165</ele>
        <time>2018-02-21T14:20:44Z</time>
      </trkpt>
      <trkpt lat="44.26842" lon="4.95877">
        <ele>166</ele>
        <time>2018-02-21T14:20:47Z</time>
      </trkpt>
      <trkpt lat="44.26839" lon="4.95866">
        <ele>167</ele>
        <time>2018-02-21T14:20:49Z</time>
      </trkpt>
      <trkpt lat="44.26839" lon="4.95854">
        <ele>167</ele>
        <time>2018-02-21T14:20:51Z</time>
      </trkpt>
      <trkpt lat="44.26848" lon="4.95839">
        <ele>168</ele>
        <time>2018-02-21T14:20:54Z</time>
      </trkpt>
      <trkpt lat="44.26861" lon="4.95829">
        <ele>169</ele>
        <time>2018-02-21T14:20:57Z</time>
      </trkpt>
      <trkpt lat="44.2687" lon="4.95821">
        <ele>168</ele>
        <time>2018-02-21T14:20:59Z</time>
      </trkpt>
      <trkpt lat="44.26886" lon="4.95808">
        <ele>168</ele>
        <time>2018-02-21T14:21:02Z</time>
      </trkpt>
      <trkpt lat="44.26903" lon="4.95796">
        <ele>167</ele>
        <time>2018-02-21T14:21:05Z</time>
      </trkpt>
      <trkpt lat="44.26915" lon="4.95787">
        <ele>167</ele>
        <time>2018-02-21T14:21:07Z</time>
      </trkpt>
      <trkpt lat="44.26934" lon="4.95773">
        <ele>166</ele>
        <time>2018-02-21T14:21:10Z</time>
      </trkpt>
      <trkpt lat="44.26953" lon="4.95758">
        <ele>166</ele>
        <time>2018-02-21T14:21:13Z</time>
      </trkpt>
      <trkpt lat="44.26972" lon="4.95743">
        <ele>165</ele>
        <time>2018-02-21T14:21:16Z</time>
      </trkpt>
      <trkpt lat="44.26985" lon="4.95732">
        <ele>164</ele>
        <time>2018-02-21T14:21:18Z</time>
      </trkpt>
      <trkpt lat="44.26999" lon="4.95722">
        <ele>163</ele>
        <time>2018-02-21T14:21:20Z</time>
      </trkpt>
      <trkpt lat="44.27012" lon="4.95712">
        <ele>165</ele>
        <time>2018-02-21T14:21:22Z</time>
      </trkpt>
      <trkpt lat="44.27024" lon="4.95703">
        <ele>165</ele>
        <time>2018-02-21T14:21:24Z</time>
      </trkpt>
      <trkpt lat="44.27039" lon="4.95688">
        <ele>163</ele>
        <time>2018-02-21T14:21:27Z</time>
      </trkpt>
      <trkpt lat="44.27055" lon="4.95678">
        <ele>159</ele>
        <time>2018-02-21T14:21:30Z</time>
      </trkpt>
      <trkpt lat="44.27066" lon="4.95671">
        <ele>158</ele>
        <time>2018-02-21T14:21:32Z</time>
      </trkpt>
      <trkpt lat="44.27082" lon="4.95659">
        <ele>157</ele>
        <time>2018-02-21T14:21:35Z</time>
      </trkpt>
      <trkpt lat="44.27092" lon="4.95651">
        <ele>158</ele>
        <time>2018-02-21T14:21:37Z</time>
      </trkpt>
      <trkpt lat="44.27107" lon="4.9564">
        <ele>158</ele>
        <time>2018-02-21T14:21:40Z</time>
      </trkpt>
      <trkpt lat="44.27118" lon="4.95632">
        <ele>158</ele>
        <time>2018-02-21T14:21:42Z</time>
      </trkpt>
      <trkpt lat="44.27128" lon="4.95624">
        <ele>157</ele>
        <time>2018-02-21T14:21:44Z</time>
      </trkpt>
      <trkpt lat="44.27138" lon="4.95616">
        <ele>157</ele>
        <time>2018-02-21T14:21:46Z</time>
      </trkpt>
      <trkpt lat="44.27148" lon="4.95609">
        <ele>157</ele>
        <time>2018-02-21T14:21:48Z</time>
      </trkpt>
      <trkpt lat="44.27163" lon="4.95597">
        <ele>158</ele>
        <time>2018-02-21T14:21:51Z</time>
      </trkpt>
      <trkpt lat="44.27179" lon="4.95585">
        <ele>160</ele>
        <time>2018-02-21T14:21:54Z</time>
      </trkpt>
      <trkpt lat="44.27193" lon="4.95574">
        <ele>163</ele>
        <time>2018-02-21T14:21:57Z</time>
      </trkpt>
      <trkpt lat="44.27207" lon="4.95564">
        <ele>163</ele>
        <time>2018-02-21T14:22:00Z</time>
      </trkpt>
      <trkpt lat="44.27221" lon="4.95552">
        <ele>162</ele>
        <time>2018-02-21T14:22:03Z</time>
      </trkpt>
      <trkpt lat="44.27235" lon="4.95541">
        <ele>161</ele>
        <time>2018-02-21T14:22:06Z</time>
      </trkpt>
      <trkpt lat="44.27244" lon="4.95535">
        <ele>162</ele>
        <time>2018-02-21T14:22:08Z</time>
      </trkpt>
      <trkpt lat="44.27258" lon="4.95525">
        <ele>164</ele>
        <time>2018-02-21T14:22:11Z</time>
      </trkpt>
      <trkpt lat="44.27266" lon="4.95518">
        <ele>164</ele>
        <time>2018-02-21T14:22:13Z</time>
      </trkpt>
      <trkpt lat="44.2728" lon="4.95507">
        <ele>162</ele>
        <time>2018-02-21T14:22:16Z</time>
      </trkpt>
      <trkpt lat="44.27289" lon="4.95501">
        <ele>162</ele>
        <time>2018-02-21T14:22:18Z</time>
      </trkpt>
      <trkpt lat="44.27298" lon="4.95494">
        <ele>162</ele>
        <time>2018-02-21T14:22:20Z</time>
      </trkpt>
      <trkpt lat="44.27312" lon="4.95484">
        <ele>163</ele>
        <time>2018-02-21T14:22:23Z</time>
      </trkpt>
      <trkpt lat="44.27326" lon="4.95474">
        <ele>162</ele>
        <time>2018-02-21T14:22:26Z</time>
      </trkpt>
      <trkpt lat="44.27336" lon="4.95467">
        <ele>161</ele>
        <time>2018-02-21T14:22:28Z</time>
      </trkpt>
      <trkpt lat="44.27346" lon="4.95459">
        <ele>160</ele>
        <time>2018-02-21T14:22:30Z</time>
      </trkpt>
      <trkpt lat="44.27362" lon="4.95447">
        <ele>161</ele>
        <time>2018-02-21T14:22:33Z</time>
      </trkpt>
      <trkpt lat="44.27377" lon="4.95435">
        <ele>162</ele>
        <time>2018-02-21T14:22:36Z</time>
      </trkpt>
      <trkpt lat="44.27393" lon="4.95424">
        <ele>162</ele>
        <time>2018-02-21T14:22:39Z</time>
      </trkpt>
      <trkpt lat="44.27407" lon="4.95412">
        <ele>161</ele>
        <time>2018-02-21T14:22:42Z</time>
      </trkpt>
      <trkpt lat="44.27417" lon="4.95404">
        <ele>160</ele>
        <time>2018-02-21T14:22:44Z</time>
      </trkpt>
      <trkpt lat="44.27432" lon="4.95394">
        <ele>162</ele>
        <time>2018-02-21T14:22:47Z</time>
      </trkpt>
      <trkpt lat="44.27446" lon="4.95383">
        <ele>164</ele>
        <time>2018-02-21T14:22:50Z</time>
      </trkpt>
      <trkpt lat="44.27459" lon="4.95373">
        <ele>166</ele>
        <time>2018-02-21T14:22:53Z</time>
      </trkpt>
      <trkpt lat="44.27471" lon="4.95363">
        <ele>166</ele>
        <time>2018-02-21T14:22:56Z</time>
      </trkpt>
      <trkpt lat="44.27484" lon="4.95353">
        <ele>164</ele>
        <time>2018-02-21T14:22:59Z</time>
      </trkpt>
      <trkpt lat="44.27491" lon="4.95347">
        <ele>163</ele>
        <time>2018-02-21T14:23:01Z</time>
      </trkpt>
      <trkpt lat="44.27504" lon="4.95339">
        <ele>163</ele>
        <time>2018-02-21T14:23:04Z</time>
      </trkpt>
      <trkpt lat="44.27515" lon="4.9533">
        <ele>162</ele>
        <time>2018-02-21T14:23:07Z</time>
      </trkpt>
      <trkpt lat="44.27527" lon="4.95322">
        <ele>165</ele>
        <time>2018-02-21T14:23:10Z</time>
      </trkpt>
      <trkpt lat="44.27539" lon="4.95312">
        <ele>165</ele>
        <time>2018-02-21T14:23:13Z</time>
      </trkpt>
      <trkpt lat="44.27551" lon="4.95303">
        <ele>164</ele>
        <time>2018-02-21T14:23:16Z</time>
      </trkpt>
      <trkpt lat="44.27563" lon="4.95294">
        <ele>162</ele>
        <time>2018-02-21T14:23:19Z</time>
      </trkpt>
      <trkpt lat="44.27576" lon="4.95284">
        <ele>160</ele>
        <time>2018-02-21T14:23:22Z</time>
      </trkpt>
      <trkpt lat="44.27587" lon="4.95275">
        <ele>162</ele>
        <time>2018-02-21T14:23:25Z</time>
      </trkpt>
      <trkpt lat="44.27595" lon="4.95269">
        <ele>162</ele>
        <time>2018-02-21T14:23:27Z</time>
      </trkpt>
      <trkpt lat="44.27603" lon="4.95263">
        <ele>163</ele>
        <time>2018-02-21T14:23:29Z</time>
      </trkpt>
      <trkpt lat="44.27614" lon="4.95254">
        <ele>162</ele>
        <time>2018-02-21T14:23:32Z</time>
      </trkpt>
      <trkpt lat="44.27626" lon="4.95245">
        <ele>162</ele>
        <time>2018-02-21T14:23:35Z</time>
      </trkpt>
      <trkpt lat="44.27634" lon="4.9524">
        <ele>162</ele>
        <time>2018-02-21T14:23:37Z</time>
      </trkpt>
      <trkpt lat="44.27646" lon="4.9523">
        <ele>162</ele>
        <time>2018-02-21T14:23:40Z</time>
      </trkpt>
      <trkpt lat="44.27654" lon="4.95224">
        <ele>161</ele>
        <time>2018-02-21T14:23:42Z</time>
      </trkpt>
      <trkpt lat="44.27665" lon="4.95215">
        <ele>162</ele>
        <time>2018-02-21T14:23:45Z</time>
      </trkpt>
      <trkpt lat="44.27677" lon="4.95205">
        <ele>164</ele>
        <time>2018-02-21T14:23:48Z</time>
      </trkpt>
      <trkpt lat="44.27688" lon="4.95197">
        <ele>165</ele>
        <time>2018-02-21T14:23:51Z</time>
      </trkpt>
      <trkpt lat="44.277" lon="4.95188">
        <ele>164</ele>
        <time>2018-02-21T14:23:54Z</time>
      </trkpt>
      <trkpt lat="44.27708" lon="4.95182">
        <ele>163</ele>
        <time>2018-02-21T14:23:56Z</time>
      </trkpt>
      <trkpt lat="44.27718" lon="4.95174">
        <ele>161</ele>
        <time>2018-02-21T14:23:59Z</time>
      </trkpt>
      <trkpt lat="44.2773" lon="4.95165">
        <ele>160</ele>
        <time>2018-02-21T14:24:02Z</time>
      </trkpt>
      <trkpt lat="44.27741" lon="4.95156">
        <ele>161</ele>
        <time>2018-02-21T14:24:05Z</time>
      </trkpt>
      <trkpt lat="44.27752" lon="4.95147">
        <ele>162</ele>
        <time>2018-02-21T14:24:08Z</time>
      </trkpt>
      <trkpt lat="44.27763" lon="4.95138">
        <ele>161</ele>
        <time>2018-02-21T14:24:11Z</time>
      </trkpt>
      <trkpt lat="44.27774" lon="4.95129">
        <ele>161</ele>
        <time>2018-02-21T14:24:14Z</time>
      </trkpt>
      <trkpt lat="44.27785" lon="4.95121">
        <ele>161</ele>
        <time>2018-02-21T14:24:17Z</time>
      </trkpt>
      <trkpt lat="44.27792" lon="4.95116">
        <ele>162</ele>
        <time>2018-02-21T14:24:19Z</time>
      </trkpt>
      <trkpt lat="44.27803" lon="4.95108">
        <ele>162</ele>
        <time>2018-02-21T14:24:22Z</time>
      </trkpt>
      <trkpt lat="44.27813" lon="4.951">
        <ele>162</ele>
        <time>2018-02-21T14:24:25Z</time>
      </trkpt>
      <trkpt lat="44.27821" lon="4.95094">
        <ele>161</ele>
        <time>2018-02-21T14:24:27Z</time>
      </trkpt>
      <trkpt lat="44.27832" lon="4.95085">
        <ele>159</ele>
        <time>2018-02-21T14:24:30Z</time>
      </trkpt>
      <trkpt lat="44.27844" lon="4.95077">
        <ele>160</ele>
        <time>2018-02-21T14:24:33Z</time>
      </trkpt>
      <trkpt lat="44.27855" lon="4.95068">
        <ele>162</ele>
        <time>2018-02-21T14:24:36Z</time>
      </trkpt>
      <trkpt lat="44.27866" lon="4.9506">
        <ele>163</ele>
        <time>2018-02-21T14:24:39Z</time>
      </trkpt>
      <trkpt lat="44.27876" lon="4.95052">
        <ele>163</ele>
        <time>2018-02-21T14:24:42Z</time>
      </trkpt>
      <trkpt lat="44.27883" lon="4.95046">
        <ele>163</ele>
        <time>2018-02-21T14:24:44Z</time>
      </trkpt>
      <trkpt lat="44.27894" lon="4.95038">
        <ele>163</ele>
        <time>2018-02-21T14:24:47Z</time>
      </trkpt>
      <trkpt lat="44.27905" lon="4.95029">
        <ele>162</ele>
        <time>2018-02-21T14:24:50Z</time>
      </trkpt>
      <trkpt lat="44.27915" lon="4.95021">
        <ele>161</ele>
        <time>2018-02-21T14:24:53Z</time>
      </trkpt>
      <trkpt lat="44.27925" lon="4.95013">
        <ele>159</ele>
        <time>2018-02-21T14:24:56Z</time>
      </trkpt>
      <trkpt lat="44.27933" lon="4.95008">
        <ele>159</ele>
        <time>2018-02-21T14:24:58Z</time>
      </trkpt>
      <trkpt lat="44.27944" lon="4.95">
        <ele>159</ele>
        <time>2018-02-21T14:25:01Z</time>
      </trkpt>
      <trkpt lat="44.27955" lon="4.94991">
        <ele>160</ele>
        <time>2018-02-21T14:25:04Z</time>
      </trkpt>
      <trkpt lat="44.27962" lon="4.94985">
        <ele>161</ele>
        <time>2018-02-21T14:25:06Z</time>
      </trkpt>
      <trkpt lat="44.27974" lon="4.94976">
        <ele>161</ele>
        <time>2018-02-21T14:25:09Z</time>
      </trkpt>
      <trkpt lat="44.27982" lon="4.9497">
        <ele>161</ele>
        <time>2018-02-21T14:25:11Z</time>
      </trkpt>
      <trkpt lat="44.27995" lon="4.9496">
        <ele>160</ele>
        <time>2018-02-21T14:25:14Z</time>
      </trkpt>
      <trkpt lat="44.28003" lon="4.94954">
        <ele>160</ele>
        <time>2018-02-21T14:25:16Z</time>
      </trkpt>
      <trkpt lat="44.28012" lon="4.94947">
        <ele>159</ele>
        <time>2018-02-21T14:25:18Z</time>
      </trkpt>
      <trkpt lat="44.28019" lon="4.94941">
        <ele>160</ele>
        <time>2018-02-21T14:25:20Z</time>
      </trkpt>
      <trkpt lat="44.2803" lon="4.94934">
        <ele>160</ele>
        <time>2018-02-21T14:25:23Z</time>
      </trkpt>
      <trkpt lat="44.28036" lon="4.94929">
        <ele>160</ele>
        <time>2018-02-21T14:25:25Z</time>
      </trkpt>
      <trkpt lat="44.28046" lon="4.94922">
        <ele>160</ele>
        <time>2018-02-21T14:25:28Z</time>
      </trkpt>
      <trkpt lat="44.28055" lon="4.94917">
        <ele>159</ele>
        <time>2018-02-21T14:25:31Z</time>
      </trkpt>
      <trkpt lat="44.28063" lon="4.94911">
        <ele>159</ele>
        <time>2018-02-21T14:25:34Z</time>
      </trkpt>
      <trkpt lat="44.28071" lon="4.94905">
        <ele>160</ele>
        <time>2018-02-21T14:25:37Z</time>
      </trkpt>
      <trkpt lat="44.28079" lon="4.94897">
        <ele>161</ele>
        <time>2018-02-21T14:25:40Z</time>
      </trkpt>
      <trkpt lat="44.28084" lon="4.94892">
        <ele>162</ele>
        <time>2018-02-21T14:25:42Z</time>
      </trkpt>
      <trkpt lat="44.28089" lon="4.94886">
        <ele>162</ele>
        <time>2018-02-21T14:25:44Z</time>
      </trkpt>
      <trkpt lat="44.28092" lon="4.94878">
        <ele>162</ele>
        <time>2018-02-21T14:25:46Z</time>
      </trkpt>
      <trkpt lat="44.28097" lon="4.94867">
        <ele>163</ele>
        <time>2018-02-21T14:25:49Z</time>
      </trkpt>
      <trkpt lat="44.28098" lon="4.94856">
        <ele>164</ele>
        <time>2018-02-21T14:25:52Z</time>
      </trkpt>
      <trkpt lat="44.28098" lon="4.94845">
        <ele>165</ele>
        <time>2018-02-21T14:25:55Z</time>
      </trkpt>
      <trkpt lat="44.28097" lon="4.94834">
        <ele>165</ele>
        <time>2018-02-21T14:25:58Z</time>
      </trkpt>
      <trkpt lat="44.28096" lon="4.94823">
        <ele>165</ele>
        <time>2018-02-21T14:26:01Z</time>
      </trkpt>
      <trkpt lat="44.28094" lon="4.94815">
        <ele>164</ele>
        <time>2018-02-21T14:26:03Z</time>
      </trkpt>
      <trkpt lat="44.28093" lon="4.94804">
        <ele>165</ele>
        <time>2018-02-21T14:26:06Z</time>
      </trkpt>
      <trkpt lat="44.28092" lon="4.94796">
        <ele>164</ele>
        <time>2018-02-21T14:26:08Z</time>
      </trkpt>
      <trkpt lat="44.28091" lon="4.94788">
        <ele>165</ele>
        <time>2018-02-21T14:26:10Z</time>
      </trkpt>
      <trkpt lat="44.28091" lon="4.94776">
        <ele>165</ele>
        <time>2018-02-21T14:26:13Z</time>
      </trkpt>
      <trkpt lat="44.28093" lon="4.94763">
        <ele>164</ele>
        <time>2018-02-21T14:26:16Z</time>
      </trkpt>
      <trkpt lat="44.28095" lon="4.9475">
        <ele>164</ele>
        <time>2018-02-21T14:26:19Z</time>
      </trkpt>
      <trkpt lat="44.28098" lon="4.94738">
        <ele>165</ele>
        <time>2018-02-21T14:26:22Z</time>
      </trkpt>
      <trkpt lat="44.28102" lon="4.94723">
        <ele>166</ele>
        <time>2018-02-21T14:26:25Z</time>
      </trkpt>
      <trkpt lat="44.28108" lon="4.94704">
        <ele>167</ele>
        <time>2018-02-21T14:26:28Z</time>
      </trkpt>
      <trkpt lat="44.28114" lon="4.94684">
        <ele>167</ele>
        <time>2018-02-21T14:26:31Z</time>
      </trkpt>
      <trkpt lat="44.28117" lon="4.94671">
        <ele>167</ele>
        <time>2018-02-21T14:26:33Z</time>
      </trkpt>
      <trkpt lat="44.28123" lon="4.94651">
        <ele>167</ele>
        <time>2018-02-21T14:26:36Z</time>
      </trkpt>
      <trkpt lat="44.28127" lon="4.94638">
        <ele>167</ele>
        <time>2018-02-21T14:26:38Z</time>
      </trkpt>
      <trkpt lat="44.28133" lon="4.94617">
        <ele>167</ele>
        <time>2018-02-21T14:26:41Z</time>
      </trkpt>
      <trkpt lat="44.2814" lon="4.94596">
        <ele>167</ele>
        <time>2018-02-21T14:26:44Z</time>
      </trkpt>
      <trkpt lat="44.28144" lon="4.94583">
        <ele>167</ele>
        <time>2018-02-21T14:26:46Z</time>
      </trkpt>
      <trkpt lat="44.2815" lon="4.94563">
        <ele>167</ele>
        <time>2018-02-21T14:26:49Z</time>
      </trkpt>
      <trkpt lat="44.28156" lon="4.94543">
        <ele>167</ele>
        <time>2018-02-21T14:26:52Z</time>
      </trkpt>
      <trkpt lat="44.2816" lon="4.94529">
        <ele>167</ele>
        <time>2018-02-21T14:26:54Z</time>
      </trkpt>
      <trkpt lat="44.28165" lon="4.94517">
        <ele>168</ele>
        <time>2018-02-21T14:26:56Z</time>
      </trkpt>
      <trkpt lat="44.28172" lon="4.94498">
        <ele>168</ele>
        <time>2018-02-21T14:26:59Z</time>
      </trkpt>
      <trkpt lat="44.2818" lon="4.9448">
        <ele>169</ele>
        <time>2018-02-21T14:27:02Z</time>
      </trkpt>
      <trkpt lat="44.28188" lon="4.94463">
        <ele>169</ele>
        <time>2018-02-21T14:27:05Z</time>
      </trkpt>
      <trkpt lat="44.28199" lon="4.94447">
        <ele>168</ele>
        <time>2018-02-21T14:27:08Z</time>
      </trkpt>
      <trkpt lat="44.28209" lon="4.94432">
        <ele>169</ele>
        <time>2018-02-21T14:27:11Z</time>
      </trkpt>
      <trkpt lat="44.2822" lon="4.94416">
        <ele>169</ele>
        <time>2018-02-21T14:27:14Z</time>
      </trkpt>
      <trkpt lat="44.28229" lon="4.94398">
        <ele>170</ele>
        <time>2018-02-21T14:27:17Z</time>
      </trkpt>
      <trkpt lat="44.28236" lon="4.94379">
        <ele>169</ele>
        <time>2018-02-21T14:27:20Z</time>
      </trkpt>
      <trkpt lat="44.2824" lon="4.94367">
        <ele>168</ele>
        <time>2018-02-21T14:27:22Z</time>
      </trkpt>
      <trkpt lat="44.28244" lon="4.94354">
        <ele>168</ele>
        <time>2018-02-21T14:27:24Z</time>
      </trkpt>
      <trkpt lat="44.28247" lon="4.94341">
        <ele>167</ele>
        <time>2018-02-21T14:27:26Z</time>
      </trkpt>
      <trkpt lat="44.28252" lon="4.94321">
        <ele>168</ele>
        <time>2018-02-21T14:27:29Z</time>
      </trkpt>
      <trkpt lat="44.28257" lon="4.94302">
        <ele>171</ele>
        <time>2018-02-21T14:27:32Z</time>
      </trkpt>
      <trkpt lat="44.28262" lon="4.94283">
        <ele>171</ele>
        <time>2018-02-21T14:27:35Z</time>
      </trkpt>
      <trkpt lat="44.28266" lon="4.94264">
        <ele>168</ele>
        <time>2018-02-21T14:27:38Z</time>
      </trkpt>
      <trkpt lat="44.28271" lon="4.94243">
        <ele>166</ele>
        <time>2018-02-21T14:27:41Z</time>
      </trkpt>
      <trkpt lat="44.28276" lon="4.94224">
        <ele>165</ele>
        <time>2018-02-21T14:27:44Z</time>
      </trkpt>
      <trkpt lat="44.2828" lon="4.94212">
        <ele>166</ele>
        <time>2018-02-21T14:27:46Z</time>
      </trkpt>
      <trkpt lat="44.28284" lon="4.94193">
        <ele>166</ele>
        <time>2018-02-21T14:27:49Z</time>
      </trkpt>
      <trkpt lat="44.2829" lon="4.94173">
        <ele>167</ele>
        <time>2018-02-21T14:27:52Z</time>
      </trkpt>
      <trkpt lat="44.28293" lon="4.94159">
        <ele>168</ele>
        <time>2018-02-21T14:27:54Z</time>
      </trkpt>
      <trkpt lat="44.28297" lon="4.94145">
        <ele>169</ele>
        <time>2018-02-21T14:27:56Z</time>
      </trkpt>
      <trkpt lat="44.28302" lon="4.94126">
        <ele>169</ele>
        <time>2018-02-21T14:27:59Z</time>
      </trkpt>
      <trkpt lat="44.28307" lon="4.94106">
        <ele>168</ele>
        <time>2018-02-21T14:28:02Z</time>
      </trkpt>
      <trkpt lat="44.28312" lon="4.94086">
        <ele>167</ele>
        <time>2018-02-21T14:28:05Z</time>
      </trkpt>
      <trkpt lat="44.28315" lon="4.94073">
        <ele>167</ele>
        <time>2018-02-21T14:28:07Z</time>
      </trkpt>
      <trkpt lat="44.2832" lon="4.94054">
        <ele>167</ele>
        <time>2018-02-21T14:28:10Z</time>
      </trkpt>
      <trkpt lat="44.28323" lon="4.94041">
        <ele>168</ele>
        <time>2018-02-21T14:28:12Z</time>
      </trkpt>
      <trkpt lat="44.28328" lon="4.94023">
        <ele>167</ele>
        <time>2018-02-21T14:28:15Z</time>
      </trkpt>
      <trkpt lat="44.28334" lon="4.94003">
        <ele>168</ele>
        <time>2018-02-21T14:28:18Z</time>
      </trkpt>
      <trkpt lat="44.28337" lon="4.9399">
        <ele>167</ele>
        <time>2018-02-21T14:28:20Z</time>
      </trkpt>
      <trkpt lat="44.28344" lon="4.9397">
        <ele>167</ele>
        <time>2018-02-21T14:28:23Z</time>
      </trkpt>
      <trkpt lat="44.2835" lon="4.9395">
        <ele>167</ele>
        <time>2018-02-21T14:28:26Z</time>
      </trkpt>
      <trkpt lat="44.28357" lon="4.9393">
        <ele>167</ele>
        <time>2018-02-21T14:28:29Z</time>
      </trkpt>
      <trkpt lat="44.28364" lon="4.93913">
        <ele>169</ele>
        <time>2018-02-21T14:28:32Z</time>
      </trkpt>
      <trkpt lat="44.2837" lon="4.93893">
        <ele>169</ele>
        <time>2018-02-21T14:28:35Z</time>
      </trkpt>
      <trkpt lat="44.28377" lon="4.93875">
        <ele>168</ele>
        <time>2018-02-21T14:28:38Z</time>
      </trkpt>
      <trkpt lat="44.28383" lon="4.93856">
        <ele>167</ele>
        <time>2018-02-21T14:28:41Z</time>
      </trkpt>
      <trkpt lat="44.28389" lon="4.93839">
        <ele>167</ele>
        <time>2018-02-21T14:28:44Z</time>
      </trkpt>
      <trkpt lat="44.28393" lon="4.93829">
        <ele>166</ele>
        <time>2018-02-21T14:28:46Z</time>
      </trkpt>
      <trkpt lat="44.28396" lon="4.9382">
        <ele>166</ele>
        <time>2018-02-21T14:28:48Z</time>
      </trkpt>
      <trkpt lat="44.284" lon="4.93809">
        <ele>165</ele>
        <time>2018-02-21T14:28:51Z</time>
      </trkpt>
      <trkpt lat="44.28405" lon="4.93796">
        <ele>166</ele>
        <time>2018-02-21T14:28:54Z</time>
      </trkpt>
      <trkpt lat="44.2841" lon="4.93783">
        <ele>168</ele>
        <time>2018-02-21T14:28:57Z</time>
      </trkpt>
      <trkpt lat="44.28415" lon="4.93771">
        <ele>169</ele>
        <time>2018-02-21T14:29:00Z</time>
      </trkpt>
      <trkpt lat="44.28419" lon="4.93757">
        <ele>166</ele>
        <time>2018-02-21T14:29:03Z</time>
      </trkpt>
      <trkpt lat="44.28424" lon="4.93743">
        <ele>164</ele>
        <time>2018-02-21T14:29:06Z</time>
      </trkpt>
      <trkpt lat="44.28429" lon="4.93728">
        <ele>163</ele>
        <time>2018-02-21T14:29:09Z</time>
      </trkpt>
      <trkpt lat="44.28434" lon="4.93713">
        <ele>165</ele>
        <time>2018-02-21T14:29:12Z</time>
      </trkpt>
      <trkpt lat="44.28436" lon="4.93703">
        <ele>165</ele>
        <time>2018-02-21T14:29:14Z</time>
      </trkpt>
      <trkpt lat="44.28438" lon="4.93689">
        <ele>166</ele>
        <time>2018-02-21T14:29:17Z</time>
      </trkpt>
      <trkpt lat="44.2844" lon="4.93673">
        <ele>166</ele>
        <time>2018-02-21T14:29:20Z</time>
      </trkpt>
      <trkpt lat="44.28443" lon="4.93656">
        <ele>165</ele>
        <time>2018-02-21T14:29:23Z</time>
      </trkpt>
      <trkpt lat="44.28446" lon="4.93645">
        <ele>166</ele>
        <time>2018-02-21T14:29:25Z</time>
      </trkpt>
      <trkpt lat="44.28451" lon="4.93634">
        <ele>167</ele>
        <time>2018-02-21T14:29:27Z</time>
      </trkpt>
      <trkpt lat="44.28456" lon="4.93623">
        <ele>167</ele>
        <time>2018-02-21T14:29:29Z</time>
      </trkpt>
      <trkpt lat="44.28461" lon="4.93612">
        <ele>167</ele>
        <time>2018-02-21T14:29:31Z</time>
      </trkpt>
      <trkpt lat="44.28466" lon="4.93601">
        <ele>168</ele>
        <time>2018-02-21T14:29:33Z</time>
      </trkpt>
      <trkpt lat="44.28474" lon="4.93584">
        <ele>167</ele>
        <time>2018-02-21T14:29:36Z</time>
      </trkpt>
      <trkpt lat="44.28479" lon="4.93572">
        <ele>166</ele>
        <time>2018-02-21T14:29:38Z</time>
      </trkpt>
      <trkpt lat="44.28484" lon="4.9356">
        <ele>166</ele>
        <time>2018-02-21T14:29:40Z</time>
      </trkpt>
      <trkpt lat="44.28492" lon="4.9354">
        <ele>164</ele>
        <time>2018-02-21T14:29:43Z</time>
      </trkpt>
      <trkpt lat="44.285" lon="4.93521">
        <ele>165</ele>
        <time>2018-02-21T14:29:46Z</time>
      </trkpt>
      <trkpt lat="44.28506" lon="4.93509">
        <ele>164</ele>
        <time>2018-02-21T14:29:48Z</time>
      </trkpt>
      <trkpt lat="44.28512" lon="4.93498">
        <ele>164</ele>
        <time>2018-02-21T14:29:50Z</time>
      </trkpt>
      <trkpt lat="44.28519" lon="4.93488">
        <ele>164</ele>
        <time>2018-02-21T14:29:52Z</time>
      </trkpt>
      <trkpt lat="44.28527" lon="4.9348">
        <ele>163</ele>
        <time>2018-02-21T14:29:54Z</time>
      </trkpt>
      <trkpt lat="44.28538" lon="4.93467">
        <ele>162</ele>
        <time>2018-02-21T14:29:57Z</time>
      </trkpt>
      <trkpt lat="44.2855" lon="4.93454">
        <ele>162</ele>
        <time>2018-02-21T14:30:00Z</time>
      </trkpt>
      <trkpt lat="44.28561" lon="4.93441">
        <ele>163</ele>
        <time>2018-02-21T14:30:03Z</time>
      </trkpt>
      <trkpt lat="44.28572" lon="4.93428">
        <ele>162</ele>
        <time>2018-02-21T14:30:06Z</time>
      </trkpt>
      <trkpt lat="44.28583" lon="4.93416">
        <ele>162</ele>
        <time>2018-02-21T14:30:09Z</time>
      </trkpt>
      <trkpt lat="44.2859" lon="4.93408">
        <ele>163</ele>
        <time>2018-02-21T14:30:11Z</time>
      </trkpt>
      <trkpt lat="44.28597" lon="4.93403">
        <ele>164</ele>
        <time>2018-02-21T14:30:13Z</time>
      </trkpt>
      <trkpt lat="44.28606" lon="4.93399">
        <ele>164</ele>
        <time>2018-02-21T14:30:16Z</time>
      </trkpt>
      <trkpt lat="44.28611" lon="4.93399">
        <ele>164</ele>
        <time>2018-02-21T14:30:18Z</time>
      </trkpt>
      <trkpt lat="44.28614" lon="4.93399">
        <ele>162</ele>
        <time>2018-02-21T14:30:20Z</time>
      </trkpt>
      <trkpt lat="44.28616" lon="4.93399">
        <ele>162</ele>
        <time>2018-02-21T14:30:23Z</time>
      </trkpt>
      <trkpt lat="44.28618" lon="4.93398">
        <ele>162</ele>
        <time>2018-02-21T14:30:25Z</time>
      </trkpt>
      <trkpt lat="44.28621" lon="4.93393">
        <ele>162</ele>
        <time>2018-02-21T14:30:27Z</time>
      </trkpt>
      <trkpt lat="44.28621" lon="4.93387">
        <ele>162</ele>
        <time>2018-02-21T14:30:29Z</time>
      </trkpt>
      <trkpt lat="44.2862" lon="4.93379">
        <ele>162</ele>
        <time>2018-02-21T14:30:31Z</time>
      </trkpt>
      <trkpt lat="44.2862" lon="4.93372">
        <ele>162</ele>
        <time>2018-02-21T14:30:33Z</time>
      </trkpt>
      <trkpt lat="44.2862" lon="4.93358">
        <ele>162</ele>
        <time>2018-02-21T14:30:36Z</time>
      </trkpt>
      <trkpt lat="44.28621" lon="4.93348">
        <ele>162</ele>
        <time>2018-02-21T14:30:38Z</time>
      </trkpt>
      <trkpt lat="44.28622" lon="4.93336">
        <ele>162</ele>
        <time>2018-02-21T14:30:40Z</time>
      </trkpt>
      <trkpt lat="44.28624" lon="4.93319">
        <ele>162</ele>
        <time>2018-02-21T14:30:43Z</time>
      </trkpt>
      <trkpt lat="44.28626" lon="4.933">
        <ele>162</ele>
        <time>2018-02-21T14:30:46Z</time>
      </trkpt>
      <trkpt lat="44.28627" lon="4.93288">
        <ele>163</ele>
        <time>2018-02-21T14:30:48Z</time>
      </trkpt>
      <trkpt lat="44.2863" lon="4.93272">
        <ele>163</ele>
        <time>2018-02-21T14:30:51Z</time>
      </trkpt>
      <trkpt lat="44.28631" lon="4.93258">
        <ele>164</ele>
        <time>2018-02-21T14:30:54Z</time>
      </trkpt>
      <trkpt lat="44.28634" lon="4.93244">
        <ele>164</ele>
        <time>2018-02-21T14:30:57Z</time>
      </trkpt>
      <trkpt lat="44.28638" lon="4.93229">
        <ele>165</ele>
        <time>2018-02-21T14:31:00Z</time>
      </trkpt>
      <trkpt lat="44.28643" lon="4.93213">
        <ele>165</ele>
        <time>2018-02-21T14:31:03Z</time>
      </trkpt>
      <trkpt lat="44.28648" lon="4.93197">
        <ele>165</ele>
        <time>2018-02-21T14:31:06Z</time>
      </trkpt>
      <trkpt lat="44.2865" lon="4.93186">
        <ele>163</ele>
        <time>2018-02-21T14:31:08Z</time>
      </trkpt>
      <trkpt lat="44.28653" lon="4.93174">
        <ele>161</ele>
        <time>2018-02-21T14:31:10Z</time>
      </trkpt>
      <trkpt lat="44.28653" lon="4.93161">
        <ele>158</ele>
        <time>2018-02-21T14:31:12Z</time>
      </trkpt>
      <trkpt lat="44.28651" lon="4.93139">
        <ele>156</ele>
        <time>2018-02-21T14:31:15Z</time>
      </trkpt>
      <trkpt lat="44.2864" lon="4.93119">
        <ele>156</ele>
        <time>2018-02-21T14:31:18Z</time>
      </trkpt>
      <trkpt lat="44.28625" lon="4.93101">
        <ele>157</ele>
        <time>2018-02-21T14:31:21Z</time>
      </trkpt>
      <trkpt lat="44.28615" lon="4.93076">
        <ele>157</ele>
        <time>2018-02-21T14:31:24Z</time>
      </trkpt>
      <trkpt lat="44.28608" lon="4.93052">
        <ele>155</ele>
        <time>2018-02-21T14:31:27Z</time>
      </trkpt>
      <trkpt lat="44.28606" lon="4.9304">
        <ele>154</ele>
        <time>2018-02-21T14:31:29Z</time>
      </trkpt>
      <trkpt lat="44.28601" lon="4.93035">
        <ele>153</ele>
        <time>2018-02-21T14:31:32Z</time>
      </trkpt>
      <trkpt lat="44.28597" lon="4.93035">
        <ele>153</ele>
        <time>2018-02-21T14:31:34Z</time>
      </trkpt>
      <trkpt lat="44.28591" lon="4.93029">
        <ele>154</ele>
        <time>2018-02-21T14:31:37Z</time>
      </trkpt>
      <trkpt lat="44.28589" lon="4.93017">
        <ele>154</ele>
        <time>2018-02-21T14:31:40Z</time>
      </trkpt>
      <trkpt lat="44.28588" lon="4.93003">
        <ele>153</ele>
        <time>2018-02-21T14:31:43Z</time>
      </trkpt>
      <trkpt lat="44.28587" lon="4.92994">
        <ele>152</ele>
        <time>2018-02-21T14:31:45Z</time>
      </trkpt>
      <trkpt lat="44.28587" lon="4.92981">
        <ele>151</ele>
        <time>2018-02-21T14:31:48Z</time>
      </trkpt>
      <trkpt lat="44.28585" lon="4.92974">
        <ele>150</ele>
        <time>2018-02-21T14:31:50Z</time>
      </trkpt>
      <trkpt lat="44.28585" lon="4.92962">
        <ele>151</ele>
        <time>2018-02-21T14:31:53Z</time>
      </trkpt>
      <trkpt lat="44.28585" lon="4.92952">
        <ele>151</ele>
        <time>2018-02-21T14:31:55Z</time>
      </trkpt>
      <trkpt lat="44.28585" lon="4.92938">
        <ele>151</ele>
        <time>2018-02-21T14:31:58Z</time>
      </trkpt>
      <trkpt lat="44.28585" lon="4.9292">
        <ele>151</ele>
        <time>2018-02-21T14:32:01Z</time>
      </trkpt>
      <trkpt lat="44.28585" lon="4.92901">
        <ele>150</ele>
        <time>2018-02-21T14:32:04Z</time>
      </trkpt>
      <trkpt lat="44.28586" lon="4.9288">
        <ele>150</ele>
        <time>2018-02-21T14:32:07Z</time>
      </trkpt>
      <trkpt lat="44.28587" lon="4.92867">
        <ele>150</ele>
        <time>2018-02-21T14:32:09Z</time>
      </trkpt>
      <trkpt lat="44.28588" lon="4.92848">
        <ele>150</ele>
        <time>2018-02-21T14:32:12Z</time>
      </trkpt>
      <trkpt lat="44.28592" lon="4.92829">
        <ele>150</ele>
        <time>2018-02-21T14:32:15Z</time>
      </trkpt>
      <trkpt lat="44.28595" lon="4.92816">
        <ele>150</ele>
        <time>2018-02-21T14:32:17Z</time>
      </trkpt>
      <trkpt lat="44.28599" lon="4.92804">
        <ele>150</ele>
        <time>2018-02-21T14:32:19Z</time>
      </trkpt>
      <trkpt lat="44.28611" lon="4.92792">
        <ele>150</ele>
        <time>2018-02-21T14:32:22Z</time>
      </trkpt>
      <trkpt lat="44.28623" lon="4.92786">
        <ele>151</ele>
        <time>2018-02-21T14:32:25Z</time>
      </trkpt>
      <trkpt lat="44.28635" lon="4.92778">
        <ele>151</ele>
        <time>2018-02-21T14:32:28Z</time>
      </trkpt>
      <trkpt lat="44.28647" lon="4.92771">
        <ele>151</ele>
        <time>2018-02-21T14:32:31Z</time>
      </trkpt>
      <trkpt lat="44.28658" lon="4.92762">
        <ele>151</ele>
        <time>2018-02-21T14:32:34Z</time>
      </trkpt>
      <trkpt lat="44.28669" lon="4.92753">
        <ele>152</ele>
        <time>2018-02-21T14:32:37Z</time>
      </trkpt>
      <trkpt lat="44.28676" lon="4.92746">
        <ele>152</ele>
        <time>2018-02-21T14:32:39Z</time>
      </trkpt>
      <trkpt lat="44.28684" lon="4.92739">
        <ele>152</ele>
        <time>2018-02-21T14:32:41Z</time>
      </trkpt>
      <trkpt lat="44.28692" lon="4.92732">
        <ele>152</ele>
        <time>2018-02-21T14:32:43Z</time>
      </trkpt>
      <trkpt lat="44.28706" lon="4.92721">
        <ele>153</ele>
        <time>2018-02-21T14:32:46Z</time>
      </trkpt>
      <trkpt lat="44.28716" lon="4.92713">
        <ele>154</ele>
        <time>2018-02-21T14:32:48Z</time>
      </trkpt>
      <trkpt lat="44.28728" lon="4.92706">
        <ele>153</ele>
        <time>2018-02-21T14:32:50Z</time>
      </trkpt>
      <trkpt lat="44.28745" lon="4.92695">
        <ele>152</ele>
        <time>2018-02-21T14:32:53Z</time>
      </trkpt>
      <trkpt lat="44.28762" lon="4.92684">
        <ele>149</ele>
        <time>2018-02-21T14:32:56Z</time>
      </trkpt>
      <trkpt lat="44.2878" lon="4.92672">
        <ele>147</ele>
        <time>2018-02-21T14:32:59Z</time>
      </trkpt>
      <trkpt lat="44.28792" lon="4.92664">
        <ele>146</ele>
        <time>2018-02-21T14:33:01Z</time>
      </trkpt>
      <trkpt lat="44.28805" lon="4.92657">
        <ele>147</ele>
        <time>2018-02-21T14:33:03Z</time>
      </trkpt>
      <trkpt lat="44.28823" lon="4.92647">
        <ele>147</ele>
        <time>2018-02-21T14:33:06Z</time>
      </trkpt>
      <trkpt lat="44.28842" lon="4.92636">
        <ele>149</ele>
        <time>2018-02-21T14:33:09Z</time>
      </trkpt>
      <trkpt lat="44.28853" lon="4.92628">
        <ele>149</ele>
        <time>2018-02-21T14:33:11Z</time>
      </trkpt>
      <trkpt lat="44.28869" lon="4.92613">
        <ele>147</ele>
        <time>2018-02-21T14:33:14Z</time>
      </trkpt>
      <trkpt lat="44.28883" lon="4.92594">
        <ele>144</ele>
        <time>2018-02-21T14:33:17Z</time>
      </trkpt>
      <trkpt lat="44.28891" lon="4.9258">
        <ele>141</ele>
        <time>2018-02-21T14:33:19Z</time>
      </trkpt>
      <trkpt lat="44.28898" lon="4.92564">
        <ele>139</ele>
        <time>2018-02-21T14:33:21Z</time>
      </trkpt>
      <trkpt lat="44.28906" lon="4.92549">
        <ele>139</ele>
        <time>2018-02-21T14:33:23Z</time>
      </trkpt>
      <trkpt lat="44.28913" lon="4.92534">
        <ele>137</ele>
        <time>2018-02-21T14:33:25Z</time>
      </trkpt>
      <trkpt lat="44.28924" lon="4.92511">
        <ele>137</ele>
        <time>2018-02-21T14:33:28Z</time>
      </trkpt>
      <trkpt lat="44.28933" lon="4.92487">
        <ele>138</ele>
        <time>2018-02-21T14:33:31Z</time>
      </trkpt>
      <trkpt lat="44.28941" lon="4.92472">
        <ele>136</ele>
        <time>2018-02-21T14:33:33Z</time>
      </trkpt>
      <trkpt lat="44.28947" lon="4.92456">
        <ele>135</ele>
        <time>2018-02-21T14:33:35Z</time>
      </trkpt>
      <trkpt lat="44.28957" lon="4.9243">
        <ele>132</ele>
        <time>2018-02-21T14:33:38Z</time>
      </trkpt>
      <trkpt lat="44.28967" lon="4.92404">
        <ele>132</ele>
        <time>2018-02-21T14:33:41Z</time>
      </trkpt>
      <trkpt lat="44.28979" lon="4.9238">
        <ele>133</ele>
        <time>2018-02-21T14:33:44Z</time>
      </trkpt>
      <trkpt lat="44.28987" lon="4.92364">
        <ele>134</ele>
        <time>2018-02-21T14:33:46Z</time>
      </trkpt>
      <trkpt lat="44.28999" lon="4.92342">
        <ele>134</ele>
        <time>2018-02-21T14:33:49Z</time>
      </trkpt>
      <trkpt lat="44.2901" lon="4.9232">
        <ele>136</ele>
        <time>2018-02-21T14:33:52Z</time>
      </trkpt>
      <trkpt lat="44.29017" lon="4.92306">
        <ele>136</ele>
        <time>2018-02-21T14:33:54Z</time>
      </trkpt>
      <trkpt lat="44.29028" lon="4.92284">
        <ele>137</ele>
        <time>2018-02-21T14:33:57Z</time>
      </trkpt>
      <trkpt lat="44.29036" lon="4.92271">
        <ele>136</ele>
        <time>2018-02-21T14:33:59Z</time>
      </trkpt>
      <trkpt lat="44.29047" lon="4.92249">
        <ele>134</ele>
        <time>2018-02-21T14:34:02Z</time>
      </trkpt>
      <trkpt lat="44.29058" lon="4.92228">
        <ele>133</ele>
        <time>2018-02-21T14:34:05Z</time>
      </trkpt>
      <trkpt lat="44.2907" lon="4.92206">
        <ele>132</ele>
        <time>2018-02-21T14:34:08Z</time>
      </trkpt>
      <trkpt lat="44.29077" lon="4.92192">
        <ele>132</ele>
        <time>2018-02-21T14:34:10Z</time>
      </trkpt>
      <trkpt lat="44.29084" lon="4.92178">
        <ele>131</ele>
        <time>2018-02-21T14:34:12Z</time>
      </trkpt>
      <trkpt lat="44.29095" lon="4.92157">
        <ele>131</ele>
        <time>2018-02-21T14:34:15Z</time>
      </trkpt>
      <trkpt lat="44.29106" lon="4.92136">
        <ele>131</ele>
        <time>2018-02-21T14:34:18Z</time>
      </trkpt>
      <trkpt lat="44.29118" lon="4.92116">
        <ele>130</ele>
        <time>2018-02-21T14:34:21Z</time>
      </trkpt>
      <trkpt lat="44.29129" lon="4.92096">
        <ele>130</ele>
        <time>2018-02-21T14:34:24Z</time>
      </trkpt>
      <trkpt lat="44.2914" lon="4.92077">
        <ele>129</ele>
        <time>2018-02-21T14:34:27Z</time>
      </trkpt>
      <trkpt lat="44.29146" lon="4.92063">
        <ele>129</ele>
        <time>2018-02-21T14:34:29Z</time>
      </trkpt>
      <trkpt lat="44.29156" lon="4.92042">
        <ele>130</ele>
        <time>2018-02-21T14:34:32Z</time>
      </trkpt>
      <trkpt lat="44.29161" lon="4.92028">
        <ele>130</ele>
        <time>2018-02-21T14:34:34Z</time>
      </trkpt>
      <trkpt lat="44.29167" lon="4.92014">
        <ele>130</ele>
        <time>2018-02-21T14:34:36Z</time>
      </trkpt>
      <trkpt lat="44.29175" lon="4.91993">
        <ele>129</ele>
        <time>2018-02-21T14:34:39Z</time>
      </trkpt>
      <trkpt lat="44.29183" lon="4.91972">
        <ele>127</ele>
        <time>2018-02-21T14:34:42Z</time>
      </trkpt>
      <trkpt lat="44.29188" lon="4.91951">
        <ele>128</ele>
        <time>2018-02-21T14:34:45Z</time>
      </trkpt>
      <trkpt lat="44.29187" lon="4.91929">
        <ele>128</ele>
        <time>2018-02-21T14:34:48Z</time>
      </trkpt>
      <trkpt lat="44.2918" lon="4.91908">
        <ele>128</ele>
        <time>2018-02-21T14:34:51Z</time>
      </trkpt>
      <trkpt lat="44.29171" lon="4.91886">
        <ele>128</ele>
        <time>2018-02-21T14:34:54Z</time>
      </trkpt>
      <trkpt lat="44.29163" lon="4.91864">
        <ele>128</ele>
        <time>2018-02-21T14:34:57Z</time>
      </trkpt>
      <trkpt lat="44.29157" lon="4.9184">
        <ele>129</ele>
        <time>2018-02-21T14:35:00Z</time>
      </trkpt>
      <trkpt lat="44.29155" lon="4.91823">
        <ele>128</ele>
        <time>2018-02-21T14:35:02Z</time>
      </trkpt>
      <trkpt lat="44.29154" lon="4.91806">
        <ele>128</ele>
        <time>2018-02-21T14:35:04Z</time>
      </trkpt>
      <trkpt lat="44.29156" lon="4.9178">
        <ele>127</ele>
        <time>2018-02-21T14:35:07Z</time>
      </trkpt>
      <trkpt lat="44.29164" lon="4.91756">
        <ele>127</ele>
        <time>2018-02-21T14:35:10Z</time>
      </trkpt>
      <trkpt lat="44.29176" lon="4.91736">
        <ele>128</ele>
        <time>2018-02-21T14:35:13Z</time>
      </trkpt>
      <trkpt lat="44.29189" lon="4.91718">
        <ele>131</ele>
        <time>2018-02-21T14:35:16Z</time>
      </trkpt>
      <trkpt lat="44.29201" lon="4.91702">
        <ele>132</ele>
        <time>2018-02-21T14:35:19Z</time>
      </trkpt>
      <trkpt lat="44.2921" lon="4.91691">
        <ele>133</ele>
        <time>2018-02-21T14:35:21Z</time>
      </trkpt>
      <trkpt lat="44.29218" lon="4.9168">
        <ele>132</ele>
        <time>2018-02-21T14:35:23Z</time>
      </trkpt>
      <trkpt lat="44.29227" lon="4.91669">
        <ele>132</ele>
        <time>2018-02-21T14:35:25Z</time>
      </trkpt>
      <trkpt lat="44.2924" lon="4.91652">
        <ele>133</ele>
        <time>2018-02-21T14:35:28Z</time>
      </trkpt>
      <trkpt lat="44.29248" lon="4.91642">
        <ele>132</ele>
        <time>2018-02-21T14:35:30Z</time>
      </trkpt>
      <trkpt lat="44.2926" lon="4.91627">
        <ele>129</ele>
        <time>2018-02-21T14:35:33Z</time>
      </trkpt>
      <trkpt lat="44.29272" lon="4.91612">
        <ele>127</ele>
        <time>2018-02-21T14:35:36Z</time>
      </trkpt>
      <trkpt lat="44.2928" lon="4.91604">
        <ele>126</ele>
        <time>2018-02-21T14:35:38Z</time>
      </trkpt>
      <trkpt lat="44.29291" lon="4.9159">
        <ele>125</ele>
        <time>2018-02-21T14:35:41Z</time>
      </trkpt>
      <trkpt lat="44.29298" lon="4.91579">
        <ele>125</ele>
        <time>2018-02-21T14:35:43Z</time>
      </trkpt>
      <trkpt lat="44.29305" lon="4.9156">
        <ele>125</ele>
        <time>2018-02-21T14:35:46Z</time>
      </trkpt>
      <trkpt lat="44.29309" lon="4.91545">
        <ele>126</ele>
        <time>2018-02-21T14:35:48Z</time>
      </trkpt>
      <trkpt lat="44.29311" lon="4.91523">
        <ele>126</ele>
        <time>2018-02-21T14:35:51Z</time>
      </trkpt>
      <trkpt lat="44.2931" lon="4.915">
        <ele>126</ele>
        <time>2018-02-21T14:35:54Z</time>
      </trkpt>
      <trkpt lat="44.29308" lon="4.91485">
        <ele>126</ele>
        <time>2018-02-21T14:35:56Z</time>
      </trkpt>
      <trkpt lat="44.29306" lon="4.91462">
        <ele>126</ele>
        <time>2018-02-21T14:35:59Z</time>
      </trkpt>
      <trkpt lat="44.29305" lon="4.91448">
        <ele>125</ele>
        <time>2018-02-21T14:36:01Z</time>
      </trkpt>
      <trkpt lat="44.293" lon="4.91425">
        <ele>126</ele>
        <time>2018-02-21T14:36:04Z</time>
      </trkpt>
      <trkpt lat="44.29297" lon="4.914">
        <ele>126</ele>
        <time>2018-02-21T14:36:07Z</time>
      </trkpt>
      <trkpt lat="44.29295" lon="4.91383">
        <ele>125</ele>
        <time>2018-02-21T14:36:09Z</time>
      </trkpt>
      <trkpt lat="44.29291" lon="4.91366">
        <ele>125</ele>
        <time>2018-02-21T14:36:11Z</time>
      </trkpt>
      <trkpt lat="44.29288" lon="4.91349">
        <ele>125</ele>
        <time>2018-02-21T14:36:13Z</time>
      </trkpt>
      <trkpt lat="44.29285" lon="4.91323">
        <ele>124</ele>
        <time>2018-02-21T14:36:16Z</time>
      </trkpt>
      <trkpt lat="44.29283" lon="4.91305">
        <ele>124</ele>
        <time>2018-02-21T14:36:18Z</time>
      </trkpt>
      <trkpt lat="44.29281" lon="4.91277">
        <ele>123</ele>
        <time>2018-02-21T14:36:21Z</time>
      </trkpt>
      <trkpt lat="44.29279" lon="4.9125">
        <ele>123</ele>
        <time>2018-02-21T14:36:24Z</time>
      </trkpt>
      <trkpt lat="44.29277" lon="4.91233">
        <ele>123</ele>
        <time>2018-02-21T14:36:26Z</time>
      </trkpt>
      <trkpt lat="44.29276" lon="4.91207">
        <ele>122</ele>
        <time>2018-02-21T14:36:29Z</time>
      </trkpt>
      <trkpt lat="44.29276" lon="4.91191">
        <ele>122</ele>
        <time>2018-02-21T14:36:31Z</time>
      </trkpt>
      <trkpt lat="44.29275" lon="4.91166">
        <ele>122</ele>
        <time>2018-02-21T14:36:34Z</time>
      </trkpt>
      <trkpt lat="44.29274" lon="4.91141">
        <ele>122</ele>
        <time>2018-02-21T14:36:37Z</time>
      </trkpt>
      <trkpt lat="44.2927" lon="4.91118">
        <ele>122</ele>
        <time>2018-02-21T14:36:40Z</time>
      </trkpt>
      <trkpt lat="44.29266" lon="4.91094">
        <ele>121</ele>
        <time>2018-02-21T14:36:43Z</time>
      </trkpt>
      <trkpt lat="44.29264" lon="4.91077">
        <ele>120</ele>
        <time>2018-02-21T14:36:45Z</time>
      </trkpt>
      <trkpt lat="44.29258" lon="4.91052">
        <ele>119</ele>
        <time>2018-02-21T14:36:48Z</time>
      </trkpt>
      <trkpt lat="44.29252" lon="4.91026">
        <ele>118</ele>
        <time>2018-02-21T14:36:51Z</time>
      </trkpt>
      <trkpt lat="44.29245" lon="4.91001">
        <ele>119</ele>
        <time>2018-02-21T14:36:54Z</time>
      </trkpt>
      <trkpt lat="44.29236" lon="4.90977">
        <ele>120</ele>
        <time>2018-02-21T14:36:57Z</time>
      </trkpt>
      <trkpt lat="44.2923" lon="4.90961">
        <ele>121</ele>
        <time>2018-02-21T14:36:59Z</time>
      </trkpt>
      <trkpt lat="44.29221" lon="4.90938">
        <ele>121</ele>
        <time>2018-02-21T14:37:02Z</time>
      </trkpt>
      <trkpt lat="44.29212" lon="4.90914">
        <ele>120</ele>
        <time>2018-02-21T14:37:05Z</time>
      </trkpt>
      <trkpt lat="44.29203" lon="4.9089">
        <ele>120</ele>
        <time>2018-02-21T14:37:08Z</time>
      </trkpt>
      <trkpt lat="44.29193" lon="4.90866">
        <ele>119</ele>
        <time>2018-02-21T14:37:11Z</time>
      </trkpt>
      <trkpt lat="44.29183" lon="4.90841">
        <ele>119</ele>
        <time>2018-02-21T14:37:14Z</time>
      </trkpt>
      <trkpt lat="44.29176" lon="4.90825">
        <ele>119</ele>
        <time>2018-02-21T14:37:16Z</time>
      </trkpt>
      <trkpt lat="44.29166" lon="4.90801">
        <ele>120</ele>
        <time>2018-02-21T14:37:19Z</time>
      </trkpt>
      <trkpt lat="44.29157" lon="4.90776">
        <ele>121</ele>
        <time>2018-02-21T14:37:22Z</time>
      </trkpt>
      <trkpt lat="44.29151" lon="4.9076">
        <ele>121</ele>
        <time>2018-02-21T14:37:24Z</time>
      </trkpt>
      <trkpt lat="44.29145" lon="4.90743">
        <ele>121</ele>
        <time>2018-02-21T14:37:26Z</time>
      </trkpt>
      <trkpt lat="44.29137" lon="4.90719">
        <ele>121</ele>
        <time>2018-02-21T14:37:29Z</time>
      </trkpt>
      <trkpt lat="44.29131" lon="4.90702">
        <ele>120</ele>
        <time>2018-02-21T14:37:31Z</time>
      </trkpt>
      <trkpt lat="44.29126" lon="4.90685">
        <ele>120</ele>
        <time>2018-02-21T14:37:33Z</time>
      </trkpt>
      <trkpt lat="44.2912" lon="4.90668">
        <ele>119</ele>
        <time>2018-02-21T14:37:35Z</time>
      </trkpt>
      <trkpt lat="44.29115" lon="4.90652">
        <ele>118</ele>
        <time>2018-02-21T14:37:37Z</time>
      </trkpt>
      <trkpt lat="44.29109" lon="4.90634">
        <ele>118</ele>
        <time>2018-02-21T14:37:39Z</time>
      </trkpt>
      <trkpt lat="44.29105" lon="4.90617">
        <ele>119</ele>
        <time>2018-02-21T14:37:41Z</time>
      </trkpt>
      <trkpt lat="44.29098" lon="4.9059">
        <ele>118</ele>
        <time>2018-02-21T14:37:44Z</time>
      </trkpt>
      <trkpt lat="44.29094" lon="4.90573">
        <ele>117</ele>
        <time>2018-02-21T14:37:46Z</time>
      </trkpt>
      <trkpt lat="44.29089" lon="4.90545">
        <ele>117</ele>
        <time>2018-02-21T14:37:49Z</time>
      </trkpt>
      <trkpt lat="44.29086" lon="4.90527">
        <ele>117</ele>
        <time>2018-02-21T14:37:51Z</time>
      </trkpt>
      <trkpt lat="44.29083" lon="4.90499">
        <ele>117</ele>
        <time>2018-02-21T14:37:54Z</time>
      </trkpt>
      <trkpt lat="44.2908" lon="4.90481">
        <ele>117</ele>
        <time>2018-02-21T14:37:56Z</time>
      </trkpt>
      <trkpt lat="44.29078" lon="4.90463">
        <ele>118</ele>
        <time>2018-02-21T14:37:58Z</time>
      </trkpt>
      <trkpt lat="44.29075" lon="4.90436">
        <ele>118</ele>
        <time>2018-02-21T14:38:01Z</time>
      </trkpt>
      <trkpt lat="44.29072" lon="4.90409">
        <ele>117</ele>
        <time>2018-02-21T14:38:04Z</time>
      </trkpt>
      <trkpt lat="44.2907" lon="4.90391">
        <ele>118</ele>
        <time>2018-02-21T14:38:06Z</time>
      </trkpt>
      <trkpt lat="44.29068" lon="4.90366">
        <ele>118</ele>
        <time>2018-02-21T14:38:09Z</time>
      </trkpt>
      <trkpt lat="44.29068" lon="4.9034">
        <ele>118</ele>
        <time>2018-02-21T14:38:12Z</time>
      </trkpt>
      <trkpt lat="44.2907" lon="4.90314">
        <ele>118</ele>
        <time>2018-02-21T14:38:15Z</time>
      </trkpt>
      <trkpt lat="44.29073" lon="4.90288">
        <ele>118</ele>
        <time>2018-02-21T14:38:18Z</time>
      </trkpt>
      <trkpt lat="44.29075" lon="4.90262">
        <ele>118</ele>
        <time>2018-02-21T14:38:21Z</time>
      </trkpt>
      <trkpt lat="44.29078" lon="4.90236">
        <ele>117</ele>
        <time>2018-02-21T14:38:24Z</time>
      </trkpt>
      <trkpt lat="44.2908" lon="4.90219">
        <ele>117</ele>
        <time>2018-02-21T14:38:26Z</time>
      </trkpt>
      <trkpt lat="44.29082" lon="4.90202">
        <ele>117</ele>
        <time>2018-02-21T14:38:28Z</time>
      </trkpt>
      <trkpt lat="44.29084" lon="4.90176">
        <ele>117</ele>
        <time>2018-02-21T14:38:31Z</time>
      </trkpt>
      <trkpt lat="44.29087" lon="4.9015">
        <ele>117</ele>
        <time>2018-02-21T14:38:34Z</time>
      </trkpt>
      <trkpt lat="44.2909" lon="4.90124">
        <ele>117</ele>
        <time>2018-02-21T14:38:37Z</time>
      </trkpt>
      <trkpt lat="44.29092" lon="4.90099">
        <ele>118</ele>
        <time>2018-02-21T14:38:40Z</time>
      </trkpt>
      <trkpt lat="44.29094" lon="4.90074">
        <ele>118</ele>
        <time>2018-02-21T14:38:43Z</time>
      </trkpt>
      <trkpt lat="44.29093" lon="4.90049">
        <ele>120</ele>
        <time>2018-02-21T14:38:46Z</time>
      </trkpt>
      <trkpt lat="44.2909" lon="4.90024">
        <ele>119</ele>
        <time>2018-02-21T14:38:49Z</time>
      </trkpt>
      <trkpt lat="44.29088" lon="4.90007">
        <ele>118</ele>
        <time>2018-02-21T14:38:51Z</time>
      </trkpt>
      <trkpt lat="44.29085" lon="4.89981">
        <ele>115</ele>
        <time>2018-02-21T14:38:54Z</time>
      </trkpt>
      <trkpt lat="44.29082" lon="4.89963">
        <ele>114</ele>
        <time>2018-02-21T14:38:56Z</time>
      </trkpt>
      <trkpt lat="44.29081" lon="4.89945">
        <ele>114</ele>
        <time>2018-02-21T14:38:58Z</time>
      </trkpt>
      <trkpt lat="44.29077" lon="4.89918">
        <ele>114</ele>
        <time>2018-02-21T14:39:01Z</time>
      </trkpt>
      <trkpt lat="44.29075" lon="4.89899">
        <ele>115</ele>
        <time>2018-02-21T14:39:03Z</time>
      </trkpt>
      <trkpt lat="44.29072" lon="4.89872">
        <ele>116</ele>
        <time>2018-02-21T14:39:06Z</time>
      </trkpt>
      <trkpt lat="44.2907" lon="4.89854">
        <ele>115</ele>
        <time>2018-02-21T14:39:08Z</time>
      </trkpt>
      <trkpt lat="44.29066" lon="4.89828">
        <ele>115</ele>
        <time>2018-02-21T14:39:11Z</time>
      </trkpt>
      <trkpt lat="44.29064" lon="4.8981">
        <ele>116</ele>
        <time>2018-02-21T14:39:13Z</time>
      </trkpt>
      <trkpt lat="44.29062" lon="4.89793">
        <ele>116</ele>
        <time>2018-02-21T14:39:15Z</time>
      </trkpt>
      <trkpt lat="44.2906" lon="4.89775">
        <ele>115</ele>
        <time>2018-02-21T14:39:17Z</time>
      </trkpt>
      <trkpt lat="44.29057" lon="4.89749">
        <ele>115</ele>
        <time>2018-02-21T14:39:20Z</time>
      </trkpt>
      <trkpt lat="44.29055" lon="4.89732">
        <ele>115</ele>
        <time>2018-02-21T14:39:22Z</time>
      </trkpt>
      <trkpt lat="44.29053" lon="4.89714">
        <ele>115</ele>
        <time>2018-02-21T14:39:24Z</time>
      </trkpt>
      <trkpt lat="44.2905" lon="4.89687">
        <ele>115</ele>
        <time>2018-02-21T14:39:27Z</time>
      </trkpt>
      <trkpt lat="44.29048" lon="4.8967">
        <ele>115</ele>
        <time>2018-02-21T14:39:29Z</time>
      </trkpt>
      <trkpt lat="44.29045" lon="4.89645">
        <ele>114</ele>
        <time>2018-02-21T14:39:32Z</time>
      </trkpt>
      <trkpt lat="44.29044" lon="4.89628">
        <ele>113</ele>
        <time>2018-02-21T14:39:34Z</time>
      </trkpt>
      <trkpt lat="44.29041" lon="4.89603">
        <ele>112</ele>
        <time>2018-02-21T14:39:37Z</time>
      </trkpt>
      <trkpt lat="44.29039" lon="4.89585">
        <ele>112</ele>
        <time>2018-02-21T14:39:39Z</time>
      </trkpt>
      <trkpt lat="44.29038" lon="4.89568">
        <ele>113</ele>
        <time>2018-02-21T14:39:41Z</time>
      </trkpt>
      <trkpt lat="44.29036" lon="4.89551">
        <ele>113</ele>
        <time>2018-02-21T14:39:43Z</time>
      </trkpt>
      <trkpt lat="44.29035" lon="4.89534">
        <ele>113</ele>
        <time>2018-02-21T14:39:45Z</time>
      </trkpt>
      <trkpt lat="44.29032" lon="4.8951">
        <ele>113</ele>
        <time>2018-02-21T14:39:48Z</time>
      </trkpt>
      <trkpt lat="44.29029" lon="4.89496">
        <ele>113</ele>
        <time>2018-02-21T14:39:50Z</time>
      </trkpt>
      <trkpt lat="44.29025" lon="4.89473">
        <ele>114</ele>
        <time>2018-02-21T14:39:53Z</time>
      </trkpt>
      <trkpt lat="44.2902" lon="4.89451">
        <ele>114</ele>
        <time>2018-02-21T14:39:56Z</time>
      </trkpt>
      <trkpt lat="44.29017" lon="4.89435">
        <ele>115</ele>
        <time>2018-02-21T14:39:58Z</time>
      </trkpt>
      <trkpt lat="44.29014" lon="4.8942">
        <ele>115</ele>
        <time>2018-02-21T14:40:00Z</time>
      </trkpt>
      <trkpt lat="44.2901" lon="4.89399">
        <ele>116</ele>
        <time>2018-02-21T14:40:03Z</time>
      </trkpt>
      <trkpt lat="44.29006" lon="4.89384">
        <ele>116</ele>
        <time>2018-02-21T14:40:05Z</time>
      </trkpt>
      <trkpt lat="44.29003" lon="4.8937">
        <ele>117</ele>
        <time>2018-02-21T14:40:07Z</time>
      </trkpt>
      <trkpt lat="44.28997" lon="4.89348">
        <ele>118</ele>
        <time>2018-02-21T14:40:10Z</time>
      </trkpt>
      <trkpt lat="44.28992" lon="4.89326">
        <ele>119</ele>
        <time>2018-02-21T14:40:13Z</time>
      </trkpt>
      <trkpt lat="44.28988" lon="4.89303">
        <ele>118</ele>
        <time>2018-02-21T14:40:16Z</time>
      </trkpt>
      <trkpt lat="44.28984" lon="4.89281">
        <ele>119</ele>
        <time>2018-02-21T14:40:19Z</time>
      </trkpt>
      <trkpt lat="44.28982" lon="4.89266">
        <ele>120</ele>
        <time>2018-02-21T14:40:21Z</time>
      </trkpt>
      <trkpt lat="44.28981" lon="4.89251">
        <ele>121</ele>
        <time>2018-02-21T14:40:23Z</time>
      </trkpt>
      <trkpt lat="44.28981" lon="4.89229">
        <ele>121</ele>
        <time>2018-02-21T14:40:26Z</time>
      </trkpt>
      <trkpt lat="44.28983" lon="4.89209">
        <ele>121</ele>
        <time>2018-02-21T14:40:29Z</time>
      </trkpt>
      <trkpt lat="44.28984" lon="4.89196">
        <ele>121</ele>
        <time>2018-02-21T14:40:31Z</time>
      </trkpt>
      <trkpt lat="44.28986" lon="4.89185">
        <ele>121</ele>
        <time>2018-02-21T14:40:33Z</time>
      </trkpt>
      <trkpt lat="44.28988" lon="4.89168">
        <ele>122</ele>
        <time>2018-02-21T14:40:36Z</time>
      </trkpt>
      <trkpt lat="44.2899" lon="4.89157">
        <ele>123</ele>
        <time>2018-02-21T14:40:38Z</time>
      </trkpt>
      <trkpt lat="44.28991" lon="4.89147">
        <ele>124</ele>
        <time>2018-02-21T14:40:40Z</time>
      </trkpt>
      <trkpt lat="44.28994" lon="4.89132">
        <ele>125</ele>
        <time>2018-02-21T14:40:43Z</time>
      </trkpt>
      <trkpt lat="44.28997" lon="4.89117">
        <ele>125</ele>
        <time>2018-02-21T14:40:46Z</time>
      </trkpt>
      <trkpt lat="44.28999" lon="4.89107">
        <ele>125</ele>
        <time>2018-02-21T14:40:48Z</time>
      </trkpt>
      <trkpt lat="44.29001" lon="4.89092">
        <ele>124</ele>
        <time>2018-02-21T14:40:51Z</time>
      </trkpt>
      <trkpt lat="44.29004" lon="4.89079">
        <ele>125</ele>
        <time>2018-02-21T14:40:54Z</time>
      </trkpt>
      <trkpt lat="44.29005" lon="4.8907">
        <ele>124</ele>
        <time>2018-02-21T14:40:56Z</time>
      </trkpt>
      <trkpt lat="44.29007" lon="4.89058">
        <ele>124</ele>
        <time>2018-02-21T14:40:59Z</time>
      </trkpt>
      <trkpt lat="44.29008" lon="4.89051">
        <ele>124</ele>
        <time>2018-02-21T14:41:01Z</time>
      </trkpt>
      <trkpt lat="44.2901" lon="4.89043">
        <ele>123</ele>
        <time>2018-02-21T14:41:03Z</time>
      </trkpt>
      <trkpt lat="44.29012" lon="4.8903">
        <ele>124</ele>
        <time>2018-02-21T14:41:06Z</time>
      </trkpt>
      <trkpt lat="44.29014" lon="4.89021">
        <ele>124</ele>
        <time>2018-02-21T14:41:08Z</time>
      </trkpt>
      <trkpt lat="44.29016" lon="4.89006">
        <ele>125</ele>
        <time>2018-02-21T14:41:11Z</time>
      </trkpt>
      <trkpt lat="44.29018" lon="4.88996">
        <ele>124</ele>
        <time>2018-02-21T14:41:13Z</time>
      </trkpt>
      <trkpt lat="44.2902" lon="4.8898">
        <ele>124</ele>
        <time>2018-02-21T14:41:16Z</time>
      </trkpt>
      <trkpt lat="44.29022" lon="4.8897">
        <ele>124</ele>
        <time>2018-02-21T14:41:18Z</time>
      </trkpt>
      <trkpt lat="44.29023" lon="4.8896">
        <ele>124</ele>
        <time>2018-02-21T14:41:20Z</time>
      </trkpt>
      <trkpt lat="44.29025" lon="4.8895">
        <ele>123</ele>
        <time>2018-02-21T14:41:22Z</time>
      </trkpt>
      <trkpt lat="44.29028" lon="4.88935">
        <ele>124</ele>
        <time>2018-02-21T14:41:25Z</time>
      </trkpt>
      <trkpt lat="44.29031" lon="4.88919">
        <ele>124</ele>
        <time>2018-02-21T14:41:28Z</time>
      </trkpt>
      <trkpt lat="44.29033" lon="4.88903">
        <ele>124</ele>
        <time>2018-02-21T14:41:31Z</time>
      </trkpt>
      <trkpt lat="44.29036" lon="4.88888">
        <ele>123</ele>
        <time>2018-02-21T14:41:34Z</time>
      </trkpt>
      <trkpt lat="44.29039" lon="4.88871">
        <ele>123</ele>
        <time>2018-02-21T14:41:37Z</time>
      </trkpt>
      <trkpt lat="44.29042" lon="4.88854">
        <ele>124</ele>
        <time>2018-02-21T14:41:40Z</time>
      </trkpt>
      <trkpt lat="44.29045" lon="4.88834">
        <ele>124</ele>
        <time>2018-02-21T14:41:43Z</time>
      </trkpt>
      <trkpt lat="44.29048" lon="4.88821">
        <ele>124</ele>
        <time>2018-02-21T14:41:45Z</time>
      </trkpt>
      <trkpt lat="44.29052" lon="4.888">
        <ele>124</ele>
        <time>2018-02-21T14:41:48Z</time>
      </trkpt>
      <trkpt lat="44.29055" lon="4.88779">
        <ele>124</ele>
        <time>2018-02-21T14:41:51Z</time>
      </trkpt>
      <trkpt lat="44.29059" lon="4.88757">
        <ele>124</ele>
        <time>2018-02-21T14:41:54Z</time>
      </trkpt>
      <trkpt lat="44.29062" lon="4.88735">
        <ele>125</ele>
        <time>2018-02-21T14:41:57Z</time>
      </trkpt>
      <trkpt lat="44.29065" lon="4.88714">
        <ele>125</ele>
        <time>2018-02-21T14:42:00Z</time>
      </trkpt>
      <trkpt lat="44.29067" lon="4.88693">
        <ele>124</ele>
        <time>2018-02-21T14:42:03Z</time>
      </trkpt>
      <trkpt lat="44.29068" lon="4.88679">
        <ele>123</ele>
        <time>2018-02-21T14:42:05Z</time>
      </trkpt>
      <trkpt lat="44.2907" lon="4.88665">
        <ele>124</ele>
        <time>2018-02-21T14:42:07Z</time>
      </trkpt>
      <trkpt lat="44.29071" lon="4.88644">
        <ele>123</ele>
        <time>2018-02-21T14:42:10Z</time>
      </trkpt>
      <trkpt lat="44.29072" lon="4.8863">
        <ele>122</ele>
        <time>2018-02-21T14:42:12Z</time>
      </trkpt>
      <trkpt lat="44.29073" lon="4.88616">
        <ele>122</ele>
        <time>2018-02-21T14:42:14Z</time>
      </trkpt>
      <trkpt lat="44.29074" lon="4.88595">
        <ele>121</ele>
        <time>2018-02-21T14:42:17Z</time>
      </trkpt>
      <trkpt lat="44.29076" lon="4.88574">
        <ele>121</ele>
        <time>2018-02-21T14:42:20Z</time>
      </trkpt>
      <trkpt lat="44.29078" lon="4.88551">
        <ele>122</ele>
        <time>2018-02-21T14:42:23Z</time>
      </trkpt>
      <trkpt lat="44.29081" lon="4.88529">
        <ele>123</ele>
        <time>2018-02-21T14:42:26Z</time>
      </trkpt>
      <trkpt lat="44.29088" lon="4.88509">
        <ele>126</ele>
        <time>2018-02-21T14:42:29Z</time>
      </trkpt>
      <trkpt lat="44.29093" lon="4.88496">
        <ele>126</ele>
        <time>2018-02-21T14:42:31Z</time>
      </trkpt>
      <trkpt lat="44.29102" lon="4.8848">
        <ele>126</ele>
        <time>2018-02-21T14:42:34Z</time>
      </trkpt>
      <trkpt lat="44.29113" lon="4.88467">
        <ele>127</ele>
        <time>2018-02-21T14:42:37Z</time>
      </trkpt>
      <trkpt lat="44.29123" lon="4.88455">
        <ele>128</ele>
        <time>2018-02-21T14:42:40Z</time>
      </trkpt>
      <trkpt lat="44.2913" lon="4.88448">
        <ele>130</ele>
        <time>2018-02-21T14:42:42Z</time>
      </trkpt>
      <trkpt lat="44.29141" lon="4.88436">
        <ele>131</ele>
        <time>2018-02-21T14:42:45Z</time>
      </trkpt>
      <trkpt lat="44.29149" lon="4.88428">
        <ele>131</ele>
        <time>2018-02-21T14:42:47Z</time>
      </trkpt>
      <trkpt lat="44.29156" lon="4.8842">
        <ele>131</ele>
        <time>2018-02-21T14:42:49Z</time>
      </trkpt>
      <trkpt lat="44.29163" lon="4.88413">
        <ele>131</ele>
        <time>2018-02-21T14:42:51Z</time>
      </trkpt>
      <trkpt lat="44.2917" lon="4.88405">
        <ele>130</ele>
        <time>2018-02-21T14:42:53Z</time>
      </trkpt>
      <trkpt lat="44.29182" lon="4.88393">
        <ele>130</ele>
        <time>2018-02-21T14:42:56Z</time>
      </trkpt>
      <trkpt lat="44.2919" lon="4.88384">
        <ele>130</ele>
        <time>2018-02-21T14:42:58Z</time>
      </trkpt>
      <trkpt lat="44.292" lon="4.88372">
        <ele>128</ele>
        <time>2018-02-21T14:43:01Z</time>
      </trkpt>
      <trkpt lat="44.2921" lon="4.88361">
        <ele>127</ele>
        <time>2018-02-21T14:43:04Z</time>
      </trkpt>
      <trkpt lat="44.29217" lon="4.88354">
        <ele>128</ele>
        <time>2018-02-21T14:43:06Z</time>
      </trkpt>
      <trkpt lat="44.29224" lon="4.88346">
        <ele>127</ele>
        <time>2018-02-21T14:43:08Z</time>
      </trkpt>
      <trkpt lat="44.29235" lon="4.88334">
        <ele>127</ele>
        <time>2018-02-21T14:43:11Z</time>
      </trkpt>
      <trkpt lat="44.29245" lon="4.8832">
        <ele>129</ele>
        <time>2018-02-21T14:43:14Z</time>
      </trkpt>
      <trkpt lat="44.29254" lon="4.88307">
        <ele>129</ele>
        <time>2018-02-21T14:43:17Z</time>
      </trkpt>
      <trkpt lat="44.29263" lon="4.88294">
        <ele>128</ele>
        <time>2018-02-21T14:43:20Z</time>
      </trkpt>
      <trkpt lat="44.29272" lon="4.8828">
        <ele>125</ele>
        <time>2018-02-21T14:43:23Z</time>
      </trkpt>
      <trkpt lat="44.29282" lon="4.88265">
        <ele>126</ele>
        <time>2018-02-21T14:43:26Z</time>
      </trkpt>
      <trkpt lat="44.29291" lon="4.88251">
        <ele>127</ele>
        <time>2018-02-21T14:43:29Z</time>
      </trkpt>
      <trkpt lat="44.29298" lon="4.88241">
        <ele>127</ele>
        <time>2018-02-21T14:43:31Z</time>
      </trkpt>
      <trkpt lat="44.29304" lon="4.88231">
        <ele>127</ele>
        <time>2018-02-21T14:43:33Z</time>
      </trkpt>
      <trkpt lat="44.29311" lon="4.88221">
        <ele>126</ele>
        <time>2018-02-21T14:43:35Z</time>
      </trkpt>
      <trkpt lat="44.29317" lon="4.88211">
        <ele>125</ele>
        <time>2018-02-21T14:43:37Z</time>
      </trkpt>
      <trkpt lat="44.29327" lon="4.88197">
        <ele>124</ele>
        <time>2018-02-21T14:43:40Z</time>
      </trkpt>
      <trkpt lat="44.29336" lon="4.88182">
        <ele>123</ele>
        <time>2018-02-21T14:43:43Z</time>
      </trkpt>
      <trkpt lat="44.29346" lon="4.88167">
        <ele>122</ele>
        <time>2018-02-21T14:43:46Z</time>
      </trkpt>
      <trkpt lat="44.29353" lon="4.88157">
        <ele>123</ele>
        <time>2018-02-21T14:43:48Z</time>
      </trkpt>
      <trkpt lat="44.29361" lon="4.88142">
        <ele>126</ele>
        <time>2018-02-21T14:43:51Z</time>
      </trkpt>
      <trkpt lat="44.29367" lon="4.88132">
        <ele>126</ele>
        <time>2018-02-21T14:43:53Z</time>
      </trkpt>
      <trkpt lat="44.29374" lon="4.88115">
        <ele>124</ele>
        <time>2018-02-21T14:43:56Z</time>
      </trkpt>
      <trkpt lat="44.29378" lon="4.88103">
        <ele>123</ele>
        <time>2018-02-21T14:43:58Z</time>
      </trkpt>
      <trkpt lat="44.29383" lon="4.88084">
        <ele>120</ele>
        <time>2018-02-21T14:44:01Z</time>
      </trkpt>
      <trkpt lat="44.29387" lon="4.8807">
        <ele>119</ele>
        <time>2018-02-21T14:44:03Z</time>
      </trkpt>
      <trkpt lat="44.29392" lon="4.88049">
        <ele>118</ele>
        <time>2018-02-21T14:44:06Z</time>
      </trkpt>
      <trkpt lat="44.29397" lon="4.88027">
        <ele>118</ele>
        <time>2018-02-21T14:44:09Z</time>
      </trkpt>
      <trkpt lat="44.29402" lon="4.88004">
        <ele>119</ele>
        <time>2018-02-21T14:44:12Z</time>
      </trkpt>
      <trkpt lat="44.29408" lon="4.87981">
        <ele>119</ele>
        <time>2018-02-21T14:44:15Z</time>
      </trkpt>
      <trkpt lat="44.29414" lon="4.87958">
        <ele>119</ele>
        <time>2018-02-21T14:44:18Z</time>
      </trkpt>
      <trkpt lat="44.29421" lon="4.87937">
        <ele>117</ele>
        <time>2018-02-21T14:44:21Z</time>
      </trkpt>
      <trkpt lat="44.29427" lon="4.87923">
        <ele>117</ele>
        <time>2018-02-21T14:44:23Z</time>
      </trkpt>
      <trkpt lat="44.29433" lon="4.8791">
        <ele>117</ele>
        <time>2018-02-21T14:44:25Z</time>
      </trkpt>
      <trkpt lat="44.29443" lon="4.87888">
        <ele>118</ele>
        <time>2018-02-21T14:44:28Z</time>
      </trkpt>
      <trkpt lat="44.29453" lon="4.87867">
        <ele>118</ele>
        <time>2018-02-21T14:44:31Z</time>
      </trkpt>
      <trkpt lat="44.29462" lon="4.87847">
        <ele>118</ele>
        <time>2018-02-21T14:44:34Z</time>
      </trkpt>
      <trkpt lat="44.29468" lon="4.87833">
        <ele>118</ele>
        <time>2018-02-21T14:44:36Z</time>
      </trkpt>
      <trkpt lat="44.29474" lon="4.87819">
        <ele>118</ele>
        <time>2018-02-21T14:44:38Z</time>
      </trkpt>
      <trkpt lat="44.29483" lon="4.87801">
        <ele>119</ele>
        <time>2018-02-21T14:44:41Z</time>
      </trkpt>
      <trkpt lat="44.29489" lon="4.87789">
        <ele>119</ele>
        <time>2018-02-21T14:44:43Z</time>
      </trkpt>
      <trkpt lat="44.29495" lon="4.87777">
        <ele>118</ele>
        <time>2018-02-21T14:44:45Z</time>
      </trkpt>
      <trkpt lat="44.29501" lon="4.87765">
        <ele>116</ele>
        <time>2018-02-21T14:44:47Z</time>
      </trkpt>
      <trkpt lat="44.29508" lon="4.87748">
        <ele>115</ele>
        <time>2018-02-21T14:44:50Z</time>
      </trkpt>
      <trkpt lat="44.29517" lon="4.87731">
        <ele>116</ele>
        <time>2018-02-21T14:44:53Z</time>
      </trkpt>
      <trkpt lat="44.29525" lon="4.87712">
        <ele>115</ele>
        <time>2018-02-21T14:44:56Z</time>
      </trkpt>
      <trkpt lat="44.29533" lon="4.87694">
        <ele>116</ele>
        <time>2018-02-21T14:44:59Z</time>
      </trkpt>
      <trkpt lat="44.2954" lon="4.87675">
        <ele>115</ele>
        <time>2018-02-21T14:45:02Z</time>
      </trkpt>
      <trkpt lat="44.29545" lon="4.87653">
        <ele>116</ele>
        <time>2018-02-21T14:45:05Z</time>
      </trkpt>
      <trkpt lat="44.29548" lon="4.87631">
        <ele>116</ele>
        <time>2018-02-21T14:45:08Z</time>
      </trkpt>
      <trkpt lat="44.29548" lon="4.87615">
        <ele>116</ele>
        <time>2018-02-21T14:45:10Z</time>
      </trkpt>
      <trkpt lat="44.29549" lon="4.87599">
        <ele>116</ele>
        <time>2018-02-21T14:45:12Z</time>
      </trkpt>
      <trkpt lat="44.29549" lon="4.87574">
        <ele>115</ele>
        <time>2018-02-21T14:45:15Z</time>
      </trkpt>
      <trkpt lat="44.29549" lon="4.87549">
        <ele>115</ele>
        <time>2018-02-21T14:45:18Z</time>
      </trkpt>
      <trkpt lat="44.29549" lon="4.87524">
        <ele>114</ele>
        <time>2018-02-21T14:45:21Z</time>
      </trkpt>
      <trkpt lat="44.2955" lon="4.87499">
        <ele>115</ele>
        <time>2018-02-21T14:45:24Z</time>
      </trkpt>
      <trkpt lat="44.29562" lon="4.87477">
        <ele>114</ele>
        <time>2018-02-21T14:45:27Z</time>
      </trkpt>
      <trkpt lat="44.2958" lon="4.8746">
        <ele>114</ele>
        <time>2018-02-21T14:45:30Z</time>
      </trkpt>
      <trkpt lat="44.29599" lon="4.8744">
        <ele>113</ele>
        <time>2018-02-21T14:45:33Z</time>
      </trkpt>
      <trkpt lat="44.29619" lon="4.87422">
        <ele>112</ele>
        <time>2018-02-21T14:45:36Z</time>
      </trkpt>
      <trkpt lat="44.2963" lon="4.87412">
        <ele>111</ele>
        <time>2018-02-21T14:45:38Z</time>
      </trkpt>
      <trkpt lat="44.29642" lon="4.874">
        <ele>109</ele>
        <time>2018-02-21T14:45:41Z</time>
      </trkpt>
      <trkpt lat="44.29648" lon="4.87392">
        <ele>106</ele>
        <time>2018-02-21T14:45:44Z</time>
      </trkpt>
      <trkpt lat="44.29648" lon="4.87382">
        <ele>104</ele>
        <time>2018-02-21T14:45:47Z</time>
      </trkpt>
      <trkpt lat="44.29644" lon="4.87375">
        <ele>103</ele>
        <time>2018-02-21T14:45:49Z</time>
      </trkpt>
      <trkpt lat="44.29638" lon="4.87364">
        <ele>103</ele>
        <time>2018-02-21T14:45:52Z</time>
      </trkpt>
      <trkpt lat="44.29632" lon="4.87354">
        <ele>104</ele>
        <time>2018-02-21T14:45:55Z</time>
      </trkpt>
      <trkpt lat="44.29625" lon="4.87342">
        <ele>104</ele>
        <time>2018-02-21T14:45:58Z</time>
      </trkpt>
      <trkpt lat="44.29618" lon="4.87329">
        <ele>104</ele>
        <time>2018-02-21T14:46:01Z</time>
      </trkpt>
      <trkpt lat="44.29613" lon="4.87321">
        <ele>104</ele>
        <time>2018-02-21T14:46:03Z</time>
      </trkpt>
      <trkpt lat="44.29608" lon="4.87313">
        <ele>105</ele>
        <time>2018-02-21T14:46:05Z</time>
      </trkpt>
      <trkpt lat="44.296" lon="4.873">
        <ele>105</ele>
        <time>2018-02-21T14:46:08Z</time>
      </trkpt>
      <trkpt lat="44.29592" lon="4.87287">
        <ele>106</ele>
        <time>2018-02-21T14:46:11Z</time>
      </trkpt>
      <trkpt lat="44.29587" lon="4.87279">
        <ele>106</ele>
        <time>2018-02-21T14:46:13Z</time>
      </trkpt>
      <trkpt lat="44.29578" lon="4.87265">
        <ele>106</ele>
        <time>2018-02-21T14:46:16Z</time>
      </trkpt>
      <trkpt lat="44.2957" lon="4.87252">
        <ele>107</ele>
        <time>2018-02-21T14:46:19Z</time>
      </trkpt>
      <trkpt lat="44.29561" lon="4.87239">
        <ele>108</ele>
        <time>2018-02-21T14:46:22Z</time>
      </trkpt>
      <trkpt lat="44.29556" lon="4.8723">
        <ele>109</ele>
        <time>2018-02-21T14:46:24Z</time>
      </trkpt>
      <trkpt lat="44.29547" lon="4.87217">
        <ele>109</ele>
        <time>2018-02-21T14:46:27Z</time>
      </trkpt>
      <trkpt lat="44.29539" lon="4.87204">
        <ele>110</ele>
        <time>2018-02-21T14:46:30Z</time>
      </trkpt>
      <trkpt lat="44.29534" lon="4.87195">
        <ele>110</ele>
        <time>2018-02-21T14:46:32Z</time>
      </trkpt>
      <trkpt lat="44.29528" lon="4.87186">
        <ele>111</ele>
        <time>2018-02-21T14:46:34Z</time>
      </trkpt>
      <trkpt lat="44.2952" lon="4.87173">
        <ele>111</ele>
        <time>2018-02-21T14:46:37Z</time>
      </trkpt>
      <trkpt lat="44.29512" lon="4.87159">
        <ele>112</ele>
        <time>2018-02-21T14:46:40Z</time>
      </trkpt>
      <trkpt lat="44.29504" lon="4.87145">
        <ele>111</ele>
        <time>2018-02-21T14:46:43Z</time>
      </trkpt>
      <trkpt lat="44.29496" lon="4.87132">
        <ele>112</ele>
        <time>2018-02-21T14:46:46Z</time>
      </trkpt>
      <trkpt lat="44.29487" lon="4.87119">
        <ele>113</ele>
        <time>2018-02-21T14:46:49Z</time>
      </trkpt>
      <trkpt lat="44.29479" lon="4.87106">
        <ele>114</ele>
        <time>2018-02-21T14:46:52Z</time>
      </trkpt>
      <trkpt lat="44.2947" lon="4.87092">
        <ele>115</ele>
        <time>2018-02-21T14:46:55Z</time>
      </trkpt>
      <trkpt lat="44.29465" lon="4.87083">
        <ele>115</ele>
        <time>2018-02-21T14:46:57Z</time>
      </trkpt>
      <trkpt lat="44.29457" lon="4.87068">
        <ele>116</ele>
        <time>2018-02-21T14:47:00Z</time>
      </trkpt>
      <trkpt lat="44.29453" lon="4.87056">
        <ele>115</ele>
        <time>2018-02-21T14:47:02Z</time>
      </trkpt>
      <trkpt lat="44.29449" lon="4.87044">
        <ele>115</ele>
        <time>2018-02-21T14:47:04Z</time>
      </trkpt>
      <trkpt lat="44.29446" lon="4.87025">
        <ele>115</ele>
        <time>2018-02-21T14:47:07Z</time>
      </trkpt>
      <trkpt lat="44.29445" lon="4.87007">
        <ele>115</ele>
        <time>2018-02-21T14:47:10Z</time>
      </trkpt>
      <trkpt lat="44.29445" lon="4.86994">
        <ele>115</ele>
        <time>2018-02-21T14:47:12Z</time>
      </trkpt>
      <trkpt lat="44.29449" lon="4.86976">
        <ele>115</ele>
        <time>2018-02-21T14:47:15Z</time>
      </trkpt>
      <trkpt lat="44.29452" lon="4.86959">
        <ele>115</ele>
        <time>2018-02-21T14:47:18Z</time>
      </trkpt>
      <trkpt lat="44.29456" lon="4.86942">
        <ele>115</ele>
        <time>2018-02-21T14:47:21Z</time>
      </trkpt>
      <trkpt lat="44.29459" lon="4.8693">
        <ele>115</ele>
        <time>2018-02-21T14:47:23Z</time>
      </trkpt>
      <trkpt lat="44.29462" lon="4.86918">
        <ele>114</ele>
        <time>2018-02-21T14:47:25Z</time>
      </trkpt>
      <trkpt lat="44.29465" lon="4.86905">
        <ele>113</ele>
        <time>2018-02-21T14:47:27Z</time>
      </trkpt>
      <trkpt lat="44.2947" lon="4.86887">
        <ele>113</ele>
        <time>2018-02-21T14:47:30Z</time>
      </trkpt>
      <trkpt lat="44.29475" lon="4.86867">
        <ele>113</ele>
        <time>2018-02-21T14:47:33Z</time>
      </trkpt>
      <trkpt lat="44.29478" lon="4.86854">
        <ele>113</ele>
        <time>2018-02-21T14:47:35Z</time>
      </trkpt>
      <trkpt lat="44.29483" lon="4.86834">
        <ele>115</ele>
        <time>2018-02-21T14:47:38Z</time>
      </trkpt>
      <trkpt lat="44.29488" lon="4.86815">
        <ele>115</ele>
        <time>2018-02-21T14:47:41Z</time>
      </trkpt>
      <trkpt lat="44.29491" lon="4.86801">
        <ele>115</ele>
        <time>2018-02-21T14:47:43Z</time>
      </trkpt>
      <trkpt lat="44.29494" lon="4.8678">
        <ele>115</ele>
        <time>2018-02-21T14:47:46Z</time>
      </trkpt>
      <trkpt lat="44.29494" lon="4.86759">
        <ele>115</ele>
        <time>2018-02-21T14:47:49Z</time>
      </trkpt>
      <trkpt lat="44.29493" lon="4.86744">
        <ele>115</ele>
        <time>2018-02-21T14:47:51Z</time>
      </trkpt>
      <trkpt lat="44.29491" lon="4.8673">
        <ele>115</ele>
        <time>2018-02-21T14:47:53Z</time>
      </trkpt>
      <trkpt lat="44.29487" lon="4.86708">
        <ele>115</ele>
        <time>2018-02-21T14:47:56Z</time>
      </trkpt>
      <trkpt lat="44.29481" lon="4.86688">
        <ele>114</ele>
        <time>2018-02-21T14:47:59Z</time>
      </trkpt>
      <trkpt lat="44.29475" lon="4.86667">
        <ele>114</ele>
        <time>2018-02-21T14:48:02Z</time>
      </trkpt>
      <trkpt lat="44.29469" lon="4.86646">
        <ele>113</ele>
        <time>2018-02-21T14:48:05Z</time>
      </trkpt>
      <trkpt lat="44.29462" lon="4.86624">
        <ele>113</ele>
        <time>2018-02-21T14:48:08Z</time>
      </trkpt>
      <trkpt lat="44.29456" lon="4.86603">
        <ele>113</ele>
        <time>2018-02-21T14:48:11Z</time>
      </trkpt>
      <trkpt lat="44.29449" lon="4.86582">
        <ele>112</ele>
        <time>2018-02-21T14:48:14Z</time>
      </trkpt>
      <trkpt lat="44.29443" lon="4.86561">
        <ele>111</ele>
        <time>2018-02-21T14:48:17Z</time>
      </trkpt>
      <trkpt lat="44.29439" lon="4.86548">
        <ele>110</ele>
        <time>2018-02-21T14:48:19Z</time>
      </trkpt>
      <trkpt lat="44.29433" lon="4.86526">
        <ele>110</ele>
        <time>2018-02-21T14:48:22Z</time>
      </trkpt>
      <trkpt lat="44.29427" lon="4.86505">
        <ele>110</ele>
        <time>2018-02-21T14:48:25Z</time>
      </trkpt>
      <trkpt lat="44.29421" lon="4.86484">
        <ele>110</ele>
        <time>2018-02-21T14:48:28Z</time>
      </trkpt>
      <trkpt lat="44.29415" lon="4.86463">
        <ele>110</ele>
        <time>2018-02-21T14:48:31Z</time>
      </trkpt>
      <trkpt lat="44.29408" lon="4.86441">
        <ele>110</ele>
        <time>2018-02-21T14:48:34Z</time>
      </trkpt>
      <trkpt lat="44.29404" lon="4.86426">
        <ele>110</ele>
        <time>2018-02-21T14:48:36Z</time>
      </trkpt>
      <trkpt lat="44.29397" lon="4.86404">
        <ele>110</ele>
        <time>2018-02-21T14:48:39Z</time>
      </trkpt>
      <trkpt lat="44.29387" lon="4.86384">
        <ele>110</ele>
        <time>2018-02-21T14:48:42Z</time>
      </trkpt>
      <trkpt lat="44.29375" lon="4.86365">
        <ele>109</ele>
        <time>2018-02-21T14:48:45Z</time>
      </trkpt>
      <trkpt lat="44.29367" lon="4.86352">
        <ele>108</ele>
        <time>2018-02-21T14:48:47Z</time>
      </trkpt>
      <trkpt lat="44.29359" lon="4.8634">
        <ele>108</ele>
        <time>2018-02-21T14:48:49Z</time>
      </trkpt>
      <trkpt lat="44.29348" lon="4.8632">
        <ele>108</ele>
        <time>2018-02-21T14:48:52Z</time>
      </trkpt>
      <trkpt lat="44.2934" lon="4.86298">
        <ele>108</ele>
        <time>2018-02-21T14:48:55Z</time>
      </trkpt>
      <trkpt lat="44.29334" lon="4.86275">
        <ele>110</ele>
        <time>2018-02-21T14:48:58Z</time>
      </trkpt>
      <trkpt lat="44.2933" lon="4.86256">
        <ele>110</ele>
        <time>2018-02-21T14:49:01Z</time>
      </trkpt>
      <trkpt lat="44.29327" lon="4.86236">
        <ele>110</ele>
        <time>2018-02-21T14:49:04Z</time>
      </trkpt>
      <trkpt lat="44.29325" lon="4.86223">
        <ele>109</ele>
        <time>2018-02-21T14:49:06Z</time>
      </trkpt>
      <trkpt lat="44.29323" lon="4.8621">
        <ele>109</ele>
        <time>2018-02-21T14:49:08Z</time>
      </trkpt>
      <trkpt lat="44.29319" lon="4.8619">
        <ele>109</ele>
        <time>2018-02-21T14:49:11Z</time>
      </trkpt>
      <trkpt lat="44.29316" lon="4.86177">
        <ele>110</ele>
        <time>2018-02-21T14:49:13Z</time>
      </trkpt>
      <trkpt lat="44.29311" lon="4.86158">
        <ele>111</ele>
        <time>2018-02-21T14:49:16Z</time>
      </trkpt>
      <trkpt lat="44.29306" lon="4.8614">
        <ele>111</ele>
        <time>2018-02-21T14:49:19Z</time>
      </trkpt>
      <trkpt lat="44.293" lon="4.86119">
        <ele>111</ele>
        <time>2018-02-21T14:49:22Z</time>
      </trkpt>
      <trkpt lat="44.29293" lon="4.86098">
        <ele>111</ele>
        <time>2018-02-21T14:49:25Z</time>
      </trkpt>
      <trkpt lat="44.29289" lon="4.86084">
        <ele>112</ele>
        <time>2018-02-21T14:49:27Z</time>
      </trkpt>
      <trkpt lat="44.29284" lon="4.86069">
        <ele>112</ele>
        <time>2018-02-21T14:49:29Z</time>
      </trkpt>
      <trkpt lat="44.29277" lon="4.86047">
        <ele>111</ele>
        <time>2018-02-21T14:49:32Z</time>
      </trkpt>
      <trkpt lat="44.29271" lon="4.86024">
        <ele>110</ele>
        <time>2018-02-21T14:49:35Z</time>
      </trkpt>
      <trkpt lat="44.29264" lon="4.86002">
        <ele>110</ele>
        <time>2018-02-21T14:49:38Z</time>
      </trkpt>
      <trkpt lat="44.29257" lon="4.85979">
        <ele>110</ele>
        <time>2018-02-21T14:49:41Z</time>
      </trkpt>
      <trkpt lat="44.2925" lon="4.85956">
        <ele>111</ele>
        <time>2018-02-21T14:49:44Z</time>
      </trkpt>
      <trkpt lat="44.29244" lon="4.85934">
        <ele>111</ele>
        <time>2018-02-21T14:49:47Z</time>
      </trkpt>
      <trkpt lat="44.29236" lon="4.85911">
        <ele>111</ele>
        <time>2018-02-21T14:49:50Z</time>
      </trkpt>
      <trkpt lat="44.29227" lon="4.85887">
        <ele>110</ele>
        <time>2018-02-21T14:49:53Z</time>
      </trkpt>
      <trkpt lat="44.29216" lon="4.85865">
        <ele>111</ele>
        <time>2018-02-21T14:49:56Z</time>
      </trkpt>
      <trkpt lat="44.29208" lon="4.85852">
        <ele>112</ele>
        <time>2018-02-21T14:49:58Z</time>
      </trkpt>
      <trkpt lat="44.29199" lon="4.85841">
        <ele>112</ele>
        <time>2018-02-21T14:50:00Z</time>
      </trkpt>
      <trkpt lat="44.29185" lon="4.85825">
        <ele>112</ele>
        <time>2018-02-21T14:50:03Z</time>
      </trkpt>
      <trkpt lat="44.29171" lon="4.85811">
        <ele>112</ele>
        <time>2018-02-21T14:50:06Z</time>
      </trkpt>
      <trkpt lat="44.29157" lon="4.85795">
        <ele>109</ele>
        <time>2018-02-21T14:50:09Z</time>
      </trkpt>
      <trkpt lat="44.29141" lon="4.85778">
        <ele>109</ele>
        <time>2018-02-21T14:50:12Z</time>
      </trkpt>
      <trkpt lat="44.29125" lon="4.8576">
        <ele>108</ele>
        <time>2018-02-21T14:50:15Z</time>
      </trkpt>
      <trkpt lat="44.29111" lon="4.85738">
        <ele>108</ele>
        <time>2018-02-21T14:50:18Z</time>
      </trkpt>
      <trkpt lat="44.29099" lon="4.85713">
        <ele>109</ele>
        <time>2018-02-21T14:50:21Z</time>
      </trkpt>
      <trkpt lat="44.29089" lon="4.85686">
        <ele>109</ele>
        <time>2018-02-21T14:50:24Z</time>
      </trkpt>
      <trkpt lat="44.29083" lon="4.85659">
        <ele>110</ele>
        <time>2018-02-21T14:50:27Z</time>
      </trkpt>
      <trkpt lat="44.29079" lon="4.85632">
        <ele>110</ele>
        <time>2018-02-21T14:50:30Z</time>
      </trkpt>
      <trkpt lat="44.29079" lon="4.85614">
        <ele>111</ele>
        <time>2018-02-21T14:50:32Z</time>
      </trkpt>
      <trkpt lat="44.2908" lon="4.85597">
        <ele>111</ele>
        <time>2018-02-21T14:50:34Z</time>
      </trkpt>
      <trkpt lat="44.29082" lon="4.8557">
        <ele>111</ele>
        <time>2018-02-21T14:50:37Z</time>
      </trkpt>
      <trkpt lat="44.29083" lon="4.85553">
        <ele>111</ele>
        <time>2018-02-21T14:50:39Z</time>
      </trkpt>
      <trkpt lat="44.29084" lon="4.85536">
        <ele>111</ele>
        <time>2018-02-21T14:50:41Z</time>
      </trkpt>
      <trkpt lat="44.29085" lon="4.85519">
        <ele>110</ele>
        <time>2018-02-21T14:50:43Z</time>
      </trkpt>
      <trkpt lat="44.29086" lon="4.85493">
        <ele>110</ele>
        <time>2018-02-21T14:50:46Z</time>
      </trkpt>
      <trkpt lat="44.29088" lon="4.85467">
        <ele>110</ele>
        <time>2018-02-21T14:50:49Z</time>
      </trkpt>
      <trkpt lat="44.29089" lon="4.85441">
        <ele>110</ele>
        <time>2018-02-21T14:50:52Z</time>
      </trkpt>
      <trkpt lat="44.2909" lon="4.85416">
        <ele>110</ele>
        <time>2018-02-21T14:50:55Z</time>
      </trkpt>
      <trkpt lat="44.29089" lon="4.8539">
        <ele>108</ele>
        <time>2018-02-21T14:50:58Z</time>
      </trkpt>
      <trkpt lat="44.29086" lon="4.85365">
        <ele>107</ele>
        <time>2018-02-21T14:51:01Z</time>
      </trkpt>
      <trkpt lat="44.29082" lon="4.85349">
        <ele>107</ele>
        <time>2018-02-21T14:51:03Z</time>
      </trkpt>
      <trkpt lat="44.29074" lon="4.85326">
        <ele>107</ele>
        <time>2018-02-21T14:51:06Z</time>
      </trkpt>
      <trkpt lat="44.29069" lon="4.8531">
        <ele>106</ele>
        <time>2018-02-21T14:51:08Z</time>
      </trkpt>
      <trkpt lat="44.29064" lon="4.85295">
        <ele>105</ele>
        <time>2018-02-21T14:51:10Z</time>
      </trkpt>
      <trkpt lat="44.29056" lon="4.85271">
        <ele>106</ele>
        <time>2018-02-21T14:51:13Z</time>
      </trkpt>
      <trkpt lat="44.29048" lon="4.85245">
        <ele>106</ele>
        <time>2018-02-21T14:51:16Z</time>
      </trkpt>
      <trkpt lat="44.29042" lon="4.85219">
        <ele>107</ele>
        <time>2018-02-21T14:51:19Z</time>
      </trkpt>
      <trkpt lat="44.29039" lon="4.85202">
        <ele>107</ele>
        <time>2018-02-21T14:51:21Z</time>
      </trkpt>
      <trkpt lat="44.29038" lon="4.85184">
        <ele>108</ele>
        <time>2018-02-21T14:51:23Z</time>
      </trkpt>
      <trkpt lat="44.29039" lon="4.85158">
        <ele>108</ele>
        <time>2018-02-21T14:51:26Z</time>
      </trkpt>
      <trkpt lat="44.29041" lon="4.85141">
        <ele>108</ele>
        <time>2018-02-21T14:51:28Z</time>
      </trkpt>
      <trkpt lat="44.29044" lon="4.85117">
        <ele>108</ele>
        <time>2018-02-21T14:51:31Z</time>
      </trkpt>
      <trkpt lat="44.29049" lon="4.85092">
        <ele>108</ele>
        <time>2018-02-21T14:51:34Z</time>
      </trkpt>
      <trkpt lat="44.29053" lon="4.85067">
        <ele>109</ele>
        <time>2018-02-21T14:51:37Z</time>
      </trkpt>
      <trkpt lat="44.29054" lon="4.85041">
        <ele>111</ele>
        <time>2018-02-21T14:51:40Z</time>
      </trkpt>
      <trkpt lat="44.29052" lon="4.85016">
        <ele>111</ele>
        <time>2018-02-21T14:51:43Z</time>
      </trkpt>
      <trkpt lat="44.2905" lon="4.85001">
        <ele>111</ele>
        <time>2018-02-21T14:51:45Z</time>
      </trkpt>
      <trkpt lat="44.29048" lon="4.84984">
        <ele>110</ele>
        <time>2018-02-21T14:51:47Z</time>
      </trkpt>
      <trkpt lat="44.29044" lon="4.84961">
        <ele>109</ele>
        <time>2018-02-21T14:51:50Z</time>
      </trkpt>
      <trkpt lat="44.29041" lon="4.84937">
        <ele>109</ele>
        <time>2018-02-21T14:51:53Z</time>
      </trkpt>
      <trkpt lat="44.29038" lon="4.84922">
        <ele>108</ele>
        <time>2018-02-21T14:51:55Z</time>
      </trkpt>
      <trkpt lat="44.29033" lon="4.84898">
        <ele>108</ele>
        <time>2018-02-21T14:51:58Z</time>
      </trkpt>
      <trkpt lat="44.29029" lon="4.84882">
        <ele>107</ele>
        <time>2018-02-21T14:52:00Z</time>
      </trkpt>
      <trkpt lat="44.29023" lon="4.84868">
        <ele>108</ele>
        <time>2018-02-21T14:52:02Z</time>
      </trkpt>
      <trkpt lat="44.29013" lon="4.84847">
        <ele>108</ele>
        <time>2018-02-21T14:52:05Z</time>
      </trkpt>
      <trkpt lat="44.29005" lon="4.84835">
        <ele>108</ele>
        <time>2018-02-21T14:52:07Z</time>
      </trkpt>
      <trkpt lat="44.28997" lon="4.84823">
        <ele>108</ele>
        <time>2018-02-21T14:52:09Z</time>
      </trkpt>
      <trkpt lat="44.28984" lon="4.84805">
        <ele>108</ele>
        <time>2018-02-21T14:52:12Z</time>
      </trkpt>
      <trkpt lat="44.2897" lon="4.84785">
        <ele>107</ele>
        <time>2018-02-21T14:52:15Z</time>
      </trkpt>
      <trkpt lat="44.28961" lon="4.84772">
        <ele>107</ele>
        <time>2018-02-21T14:52:17Z</time>
      </trkpt>
      <trkpt lat="44.28947" lon="4.84752">
        <ele>106</ele>
        <time>2018-02-21T14:52:20Z</time>
      </trkpt>
      <trkpt lat="44.28933" lon="4.84731">
        <ele>106</ele>
        <time>2018-02-21T14:52:23Z</time>
      </trkpt>
      <trkpt lat="44.28919" lon="4.84712">
        <ele>105</ele>
        <time>2018-02-21T14:52:26Z</time>
      </trkpt>
      <trkpt lat="44.2891" lon="4.84699">
        <ele>105</ele>
        <time>2018-02-21T14:52:28Z</time>
      </trkpt>
      <trkpt lat="44.28896" lon="4.8468">
        <ele>104</ele>
        <time>2018-02-21T14:52:31Z</time>
      </trkpt>
      <trkpt lat="44.28886" lon="4.84666">
        <ele>104</ele>
        <time>2018-02-21T14:52:33Z</time>
      </trkpt>
      <trkpt lat="44.28872" lon="4.84645">
        <ele>104</ele>
        <time>2018-02-21T14:52:36Z</time>
      </trkpt>
      <trkpt lat="44.28857" lon="4.84624">
        <ele>104</ele>
        <time>2018-02-21T14:52:39Z</time>
      </trkpt>
      <trkpt lat="44.28844" lon="4.84605">
        <ele>103</ele>
        <time>2018-02-21T14:52:42Z</time>
      </trkpt>
      <trkpt lat="44.28832" lon="4.84588">
        <ele>104</ele>
        <time>2018-02-21T14:52:45Z</time>
      </trkpt>
      <trkpt lat="44.28825" lon="4.84579">
        <ele>104</ele>
        <time>2018-02-21T14:52:47Z</time>
      </trkpt>
      <trkpt lat="44.28816" lon="4.84565">
        <ele>105</ele>
        <time>2018-02-21T14:52:50Z</time>
      </trkpt>
      <trkpt lat="44.28811" lon="4.84551">
        <ele>105</ele>
        <time>2018-02-21T14:52:53Z</time>
      </trkpt>
      <trkpt lat="44.2881" lon="4.84532">
        <ele>106</ele>
        <time>2018-02-21T14:52:56Z</time>
      </trkpt>
      <trkpt lat="44.28809" lon="4.84519">
        <ele>106</ele>
        <time>2018-02-21T14:52:58Z</time>
      </trkpt>
      <trkpt lat="44.28809" lon="4.845">
        <ele>107</ele>
        <time>2018-02-21T14:53:01Z</time>
      </trkpt>
      <trkpt lat="44.28808" lon="4.84488">
        <ele>106</ele>
        <time>2018-02-21T14:53:03Z</time>
      </trkpt>
      <trkpt lat="44.28808" lon="4.84468">
        <ele>105</ele>
        <time>2018-02-21T14:53:06Z</time>
      </trkpt>
      <trkpt lat="44.28809" lon="4.84452">
        <ele>105</ele>
        <time>2018-02-21T14:53:08Z</time>
      </trkpt>
      <trkpt lat="44.2881" lon="4.84428">
        <ele>106</ele>
        <time>2018-02-21T14:53:11Z</time>
      </trkpt>
      <trkpt lat="44.28811" lon="4.84405">
        <ele>107</ele>
        <time>2018-02-21T14:53:14Z</time>
      </trkpt>
      <trkpt lat="44.28814" lon="4.84382">
        <ele>107</ele>
        <time>2018-02-21T14:53:17Z</time>
      </trkpt>
      <trkpt lat="44.28815" lon="4.84367">
        <ele>106</ele>
        <time>2018-02-21T14:53:19Z</time>
      </trkpt>
      <trkpt lat="44.28816" lon="4.84351">
        <ele>107</ele>
        <time>2018-02-21T14:53:21Z</time>
      </trkpt>
      <trkpt lat="44.28819" lon="4.84329">
        <ele>107</ele>
        <time>2018-02-21T14:53:24Z</time>
      </trkpt>
      <trkpt lat="44.2882" lon="4.84307">
        <ele>108</ele>
        <time>2018-02-21T14:53:27Z</time>
      </trkpt>
      <trkpt lat="44.28824" lon="4.84283">
        <ele>107</ele>
        <time>2018-02-21T14:53:30Z</time>
      </trkpt>
      <trkpt lat="44.2883" lon="4.84259">
        <ele>106</ele>
        <time>2018-02-21T14:53:33Z</time>
      </trkpt>
      <trkpt lat="44.28836" lon="4.84235">
        <ele>105</ele>
        <time>2018-02-21T14:53:36Z</time>
      </trkpt>
      <trkpt lat="44.28843" lon="4.84211">
        <ele>106</ele>
        <time>2018-02-21T14:53:39Z</time>
      </trkpt>
      <trkpt lat="44.28849" lon="4.8419">
        <ele>108</ele>
        <time>2018-02-21T14:53:42Z</time>
      </trkpt>
      <trkpt lat="44.28857" lon="4.84167">
        <ele>107</ele>
        <time>2018-02-21T14:53:45Z</time>
      </trkpt>
      <trkpt lat="44.28863" lon="4.84152">
        <ele>106</ele>
        <time>2018-02-21T14:53:47Z</time>
      </trkpt>
      <trkpt lat="44.28868" lon="4.84137">
        <ele>104</ele>
        <time>2018-02-21T14:53:49Z</time>
      </trkpt>
      <trkpt lat="44.28875" lon="4.84113">
        <ele>102</ele>
        <time>2018-02-21T14:53:52Z</time>
      </trkpt>
      <trkpt lat="44.28884" lon="4.84089">
        <ele>101</ele>
        <time>2018-02-21T14:53:55Z</time>
      </trkpt>
      <trkpt lat="44.28893" lon="4.84064">
        <ele>102</ele>
        <time>2018-02-21T14:53:58Z</time>
      </trkpt>
      <trkpt lat="44.28902" lon="4.8404">
        <ele>102</ele>
        <time>2018-02-21T14:54:01Z</time>
      </trkpt>
      <trkpt lat="44.28913" lon="4.84015">
        <ele>102</ele>
        <time>2018-02-21T14:54:04Z</time>
      </trkpt>
      <trkpt lat="44.28925" lon="4.83993">
        <ele>104</ele>
        <time>2018-02-21T14:54:07Z</time>
      </trkpt>
      <trkpt lat="44.28939" lon="4.83982">
        <ele>102</ele>
        <time>2018-02-21T14:54:10Z</time>
      </trkpt>
      <trkpt lat="44.28949" lon="4.83979">
        <ele>101</ele>
        <time>2018-02-21T14:54:12Z</time>
      </trkpt>
      <trkpt lat="44.28961" lon="4.83979">
        <ele>100</ele>
        <time>2018-02-21T14:54:14Z</time>
      </trkpt>
      <trkpt lat="44.28978" lon="4.83984">
        <ele>100</ele>
        <time>2018-02-21T14:54:17Z</time>
      </trkpt>
      <trkpt lat="44.28996" lon="4.83983">
        <ele>100</ele>
        <time>2018-02-21T14:54:20Z</time>
      </trkpt>
      <trkpt lat="44.29014" lon="4.83971">
        <ele>100</ele>
        <time>2018-02-21T14:54:23Z</time>
      </trkpt>
      <trkpt lat="44.2903" lon="4.8396">
        <ele>100</ele>
        <time>2018-02-21T14:54:26Z</time>
      </trkpt>
      <trkpt lat="44.29039" lon="4.83951">
        <ele>99</ele>
        <time>2018-02-21T14:54:28Z</time>
      </trkpt>
      <trkpt lat="44.29053" lon="4.83933">
        <ele>97</ele>
        <time>2018-02-21T14:54:31Z</time>
      </trkpt>
      <trkpt lat="44.29067" lon="4.83912">
        <ele>97</ele>
        <time>2018-02-21T14:54:34Z</time>
      </trkpt>
      <trkpt lat="44.29077" lon="4.83891">
        <ele>97</ele>
        <time>2018-02-21T14:54:37Z</time>
      </trkpt>
      <trkpt lat="44.29084" lon="4.83878">
        <ele>96</ele>
        <time>2018-02-21T14:54:39Z</time>
      </trkpt>
      <trkpt lat="44.29096" lon="4.8386">
        <ele>95</ele>
        <time>2018-02-21T14:54:42Z</time>
      </trkpt>
      <trkpt lat="44.29113" lon="4.83847">
        <ele>92</ele>
        <time>2018-02-21T14:54:45Z</time>
      </trkpt>
      <trkpt lat="44.29131" lon="4.83841">
        <ele>91</ele>
        <time>2018-02-21T14:54:48Z</time>
      </trkpt>
      <trkpt lat="44.29149" lon="4.8384">
        <ele>90</ele>
        <time>2018-02-21T14:54:51Z</time>
      </trkpt>
      <trkpt lat="44.29166" lon="4.83839">
        <ele>90</ele>
        <time>2018-02-21T14:54:54Z</time>
      </trkpt>
      <trkpt lat="44.29182" lon="4.83839">
        <ele>90</ele>
        <time>2018-02-21T14:54:57Z</time>
      </trkpt>
      <trkpt lat="44.29198" lon="4.83836">
        <ele>90</ele>
        <time>2018-02-21T14:55:00Z</time>
      </trkpt>
      <trkpt lat="44.29214" lon="4.83827">
        <ele>90</ele>
        <time>2018-02-21T14:55:03Z</time>
      </trkpt>
      <trkpt lat="44.29225" lon="4.83819">
        <ele>90</ele>
        <time>2018-02-21T14:55:05Z</time>
      </trkpt>
      <trkpt lat="44.29241" lon="4.83808">
        <ele>89</ele>
        <time>2018-02-21T14:55:08Z</time>
      </trkpt>
      <trkpt lat="44.29257" lon="4.83794">
        <ele>88</ele>
        <time>2018-02-21T14:55:11Z</time>
      </trkpt>
      <trkpt lat="44.29274" lon="4.83782">
        <ele>88</ele>
        <time>2018-02-21T14:55:14Z</time>
      </trkpt>
      <trkpt lat="44.29289" lon="4.83771">
        <ele>88</ele>
        <time>2018-02-21T14:55:17Z</time>
      </trkpt>
      <trkpt lat="44.29304" lon="4.83757">
        <ele>88</ele>
        <time>2018-02-21T14:55:20Z</time>
      </trkpt>
      <trkpt lat="44.29319" lon="4.83745">
        <ele>89</ele>
        <time>2018-02-21T14:55:23Z</time>
      </trkpt>
      <trkpt lat="44.29331" lon="4.83734">
        <ele>89</ele>
        <time>2018-02-21T14:55:26Z</time>
      </trkpt>
      <trkpt lat="44.2934" lon="4.83723">
        <ele>89</ele>
        <time>2018-02-21T14:55:29Z</time>
      </trkpt>
      <trkpt lat="44.29345" lon="4.83715">
        <ele>88</ele>
        <time>2018-02-21T14:55:31Z</time>
      </trkpt>
      <trkpt lat="44.29346" lon="4.837">
        <ele>89</ele>
        <time>2018-02-21T14:55:34Z</time>
      </trkpt>
      <trkpt lat="44.29345" lon="4.83686">
        <ele>90</ele>
        <time>2018-02-21T14:55:36Z</time>
      </trkpt>
      <trkpt lat="44.29347" lon="4.83666">
        <ele>90</ele>
        <time>2018-02-21T14:55:39Z</time>
      </trkpt>
      <trkpt lat="44.29351" lon="4.83645">
        <ele>91</ele>
        <time>2018-02-21T14:55:42Z</time>
      </trkpt>
      <trkpt lat="44.29352" lon="4.83632">
        <ele>91</ele>
        <time>2018-02-21T14:55:44Z</time>
      </trkpt>
      <trkpt lat="44.29353" lon="4.83618">
        <ele>91</ele>
        <time>2018-02-21T14:55:46Z</time>
      </trkpt>
      <trkpt lat="44.29353" lon="4.83596">
        <ele>90</ele>
        <time>2018-02-21T14:55:49Z</time>
      </trkpt>
      <trkpt lat="44.29354" lon="4.83582">
        <ele>90</ele>
        <time>2018-02-21T14:55:51Z</time>
      </trkpt>
      <trkpt lat="44.29356" lon="4.83567">
        <ele>91</ele>
        <time>2018-02-21T14:55:53Z</time>
      </trkpt>
      <trkpt lat="44.29358" lon="4.83546">
        <ele>91</ele>
        <time>2018-02-21T14:55:56Z</time>
      </trkpt>
      <trkpt lat="44.29361" lon="4.83524">
        <ele>91</ele>
        <time>2018-02-21T14:55:59Z</time>
      </trkpt>
      <trkpt lat="44.29364" lon="4.83509">
        <ele>89</ele>
        <time>2018-02-21T14:56:01Z</time>
      </trkpt>
      <trkpt lat="44.29369" lon="4.83487">
        <ele>89</ele>
        <time>2018-02-21T14:56:04Z</time>
      </trkpt>
      <trkpt lat="44.29376" lon="4.83465">
        <ele>90</ele>
        <time>2018-02-21T14:56:07Z</time>
      </trkpt>
      <trkpt lat="44.29383" lon="4.83444">
        <ele>89</ele>
        <time>2018-02-21T14:56:10Z</time>
      </trkpt>
      <trkpt lat="44.29386" lon="4.83429">
        <ele>89</ele>
        <time>2018-02-21T14:56:12Z</time>
      </trkpt>
      <trkpt lat="44.29389" lon="4.83405">
        <ele>88</ele>
        <time>2018-02-21T14:56:15Z</time>
      </trkpt>
      <trkpt lat="44.29388" lon="4.83381">
        <ele>88</ele>
        <time>2018-02-21T14:56:18Z</time>
      </trkpt>
      <trkpt lat="44.29385" lon="4.83365">
        <ele>88</ele>
        <time>2018-02-21T14:56:20Z</time>
      </trkpt>
      <trkpt lat="44.29382" lon="4.83342">
        <ele>88</ele>
        <time>2018-02-21T14:56:23Z</time>
      </trkpt>
      <trkpt lat="44.2938" lon="4.83326">
        <ele>88</ele>
        <time>2018-02-21T14:56:25Z</time>
      </trkpt>
      <trkpt lat="44.29378" lon="4.83303">
        <ele>88</ele>
        <time>2018-02-21T14:56:28Z</time>
      </trkpt>
      <trkpt lat="44.29376" lon="4.83287">
        <ele>88</ele>
        <time>2018-02-21T14:56:30Z</time>
      </trkpt>
      <trkpt lat="44.29375" lon="4.83271">
        <ele>88</ele>
        <time>2018-02-21T14:56:32Z</time>
      </trkpt>
      <trkpt lat="44.29377" lon="4.83248">
        <ele>88</ele>
        <time>2018-02-21T14:56:35Z</time>
      </trkpt>
      <trkpt lat="44.29382" lon="4.83225">
        <ele>88</ele>
        <time>2018-02-21T14:56:38Z</time>
      </trkpt>
      <trkpt lat="44.29387" lon="4.83211">
        <ele>87</ele>
        <time>2018-02-21T14:56:40Z</time>
      </trkpt>
      <trkpt lat="44.2939" lon="4.83197">
        <ele>87</ele>
        <time>2018-02-21T14:56:42Z</time>
      </trkpt>
      <trkpt lat="44.29394" lon="4.83175">
        <ele>87</ele>
        <time>2018-02-21T14:56:45Z</time>
      </trkpt>
      <trkpt lat="44.29398" lon="4.83151">
        <ele>87</ele>
        <time>2018-02-21T14:56:48Z</time>
      </trkpt>
      <trkpt lat="44.294" lon="4.83126">
        <ele>87</ele>
        <time>2018-02-21T14:56:51Z</time>
      </trkpt>
      <trkpt lat="44.29401" lon="4.83101">
        <ele>87</ele>
        <time>2018-02-21T14:56:54Z</time>
      </trkpt>
      <trkpt lat="44.29402" lon="4.83076">
        <ele>87</ele>
        <time>2018-02-21T14:56:57Z</time>
      </trkpt>
      <trkpt lat="44.29403" lon="4.83051">
        <ele>87</ele>
        <time>2018-02-21T14:57:00Z</time>
      </trkpt>
      <trkpt lat="44.29403" lon="4.83036">
        <ele>87</ele>
        <time>2018-02-21T14:57:02Z</time>
      </trkpt>
      <trkpt lat="44.29404" lon="4.8302">
        <ele>87</ele>
        <time>2018-02-21T14:57:04Z</time>
      </trkpt>
      <trkpt lat="44.29405" lon="4.83005">
        <ele>87</ele>
        <time>2018-02-21T14:57:06Z</time>
      </trkpt>
      <trkpt lat="44.29408" lon="4.82982">
        <ele>87</ele>
        <time>2018-02-21T14:57:09Z</time>
      </trkpt>
      <trkpt lat="44.29411" lon="4.82966">
        <ele>87</ele>
        <time>2018-02-21T14:57:11Z</time>
      </trkpt>
      <trkpt lat="44.29415" lon="4.82951">
        <ele>88</ele>
        <time>2018-02-21T14:57:13Z</time>
      </trkpt>
      <trkpt lat="44.29419" lon="4.82936">
        <ele>88</ele>
        <time>2018-02-21T14:57:15Z</time>
      </trkpt>
      <trkpt lat="44.29425" lon="4.82915">
        <ele>88</ele>
        <time>2018-02-21T14:57:18Z</time>
      </trkpt>
      <trkpt lat="44.29431" lon="4.82894">
        <ele>87</ele>
        <time>2018-02-21T14:57:21Z</time>
      </trkpt>
      <trkpt lat="44.29438" lon="4.82873">
        <ele>88</ele>
        <time>2018-02-21T14:57:24Z</time>
      </trkpt>
      <trkpt lat="44.29443" lon="4.82861">
        <ele>88</ele>
        <time>2018-02-21T14:57:26Z</time>
      </trkpt>
      <trkpt lat="44.29451" lon="4.82841">
        <ele>89</ele>
        <time>2018-02-21T14:57:29Z</time>
      </trkpt>
      <trkpt lat="44.29459" lon="4.82823">
        <ele>88</ele>
        <time>2018-02-21T14:57:32Z</time>
      </trkpt>
      <trkpt lat="44.29467" lon="4.82803">
        <ele>86</ele>
        <time>2018-02-21T14:57:35Z</time>
      </trkpt>
      <trkpt lat="44.29475" lon="4.82783">
        <ele>85</ele>
        <time>2018-02-21T14:57:38Z</time>
      </trkpt>
      <trkpt lat="44.2948" lon="4.82761">
        <ele>85</ele>
        <time>2018-02-21T14:57:41Z</time>
      </trkpt>
      <trkpt lat="44.29482" lon="4.82747">
        <ele>85</ele>
        <time>2018-02-21T14:57:43Z</time>
      </trkpt>
      <trkpt lat="44.29484" lon="4.82724">
        <ele>85</ele>
        <time>2018-02-21T14:57:46Z</time>
      </trkpt>
      <trkpt lat="44.29485" lon="4.82701">
        <ele>86</ele>
        <time>2018-02-21T14:57:49Z</time>
      </trkpt>
      <trkpt lat="44.29486" lon="4.82679">
        <ele>86</ele>
        <time>2018-02-21T14:57:52Z</time>
      </trkpt>
      <trkpt lat="44.29487" lon="4.82663">
        <ele>85</ele>
        <time>2018-02-21T14:57:54Z</time>
      </trkpt>
      <trkpt lat="44.29488" lon="4.82641">
        <ele>85</ele>
        <time>2018-02-21T14:57:57Z</time>
      </trkpt>
      <trkpt lat="44.2949" lon="4.82618">
        <ele>84</ele>
        <time>2018-02-21T14:58:00Z</time>
      </trkpt>
      <trkpt lat="44.29492" lon="4.82603">
        <ele>84</ele>
        <time>2018-02-21T14:58:02Z</time>
      </trkpt>
      <trkpt lat="44.29495" lon="4.8258">
        <ele>83</ele>
        <time>2018-02-21T14:58:05Z</time>
      </trkpt>
      <trkpt lat="44.29498" lon="4.82558">
        <ele>85</ele>
        <time>2018-02-21T14:58:08Z</time>
      </trkpt>
      <trkpt lat="44.29501" lon="4.82535">
        <ele>85</ele>
        <time>2018-02-21T14:58:11Z</time>
      </trkpt>
      <trkpt lat="44.29504" lon="4.82512">
        <ele>86</ele>
        <time>2018-02-21T14:58:14Z</time>
      </trkpt>
      <trkpt lat="44.29507" lon="4.82489">
        <ele>86</ele>
        <time>2018-02-21T14:58:17Z</time>
      </trkpt>
      <trkpt lat="44.29509" lon="4.82466">
        <ele>87</ele>
        <time>2018-02-21T14:58:20Z</time>
      </trkpt>
      <trkpt lat="44.29511" lon="4.82451">
        <ele>87</ele>
        <time>2018-02-21T14:58:22Z</time>
      </trkpt>
      <trkpt lat="44.29513" lon="4.82429">
        <ele>87</ele>
        <time>2018-02-21T14:58:25Z</time>
      </trkpt>
      <trkpt lat="44.29514" lon="4.82407">
        <ele>87</ele>
        <time>2018-02-21T14:58:28Z</time>
      </trkpt>
      <trkpt lat="44.29514" lon="4.82384">
        <ele>87</ele>
        <time>2018-02-21T14:58:31Z</time>
      </trkpt>
      <trkpt lat="44.29513" lon="4.82369">
        <ele>88</ele>
        <time>2018-02-21T14:58:33Z</time>
      </trkpt>
      <trkpt lat="44.29511" lon="4.82346">
        <ele>89</ele>
        <time>2018-02-21T14:58:36Z</time>
      </trkpt>
      <trkpt lat="44.29509" lon="4.82331">
        <ele>89</ele>
        <time>2018-02-21T14:58:38Z</time>
      </trkpt>
      <trkpt lat="44.29508" lon="4.82317">
        <ele>89</ele>
        <time>2018-02-21T14:58:40Z</time>
      </trkpt>
      <trkpt lat="44.29507" lon="4.82301">
        <ele>88</ele>
        <time>2018-02-21T14:58:42Z</time>
      </trkpt>
      <trkpt lat="44.29505" lon="4.82278">
        <ele>87</ele>
        <time>2018-02-21T14:58:45Z</time>
      </trkpt>
      <trkpt lat="44.29504" lon="4.82262">
        <ele>86</ele>
        <time>2018-02-21T14:58:47Z</time>
      </trkpt>
      <trkpt lat="44.29502" lon="4.82247">
        <ele>86</ele>
        <time>2018-02-21T14:58:49Z</time>
      </trkpt>
      <trkpt lat="44.29501" lon="4.82231">
        <ele>86</ele>
        <time>2018-02-21T14:58:51Z</time>
      </trkpt>
      <trkpt lat="44.29499" lon="4.82216">
        <ele>86</ele>
        <time>2018-02-21T14:58:53Z</time>
      </trkpt>
      <trkpt lat="44.29495" lon="4.82193">
        <ele>87</ele>
        <time>2018-02-21T14:58:56Z</time>
      </trkpt>
      <trkpt lat="44.29493" lon="4.82177">
        <ele>87</ele>
        <time>2018-02-21T14:58:58Z</time>
      </trkpt>
      <trkpt lat="44.29489" lon="4.82155">
        <ele>86</ele>
        <time>2018-02-21T14:59:01Z</time>
      </trkpt>
      <trkpt lat="44.29487" lon="4.82139">
        <ele>86</ele>
        <time>2018-02-21T14:59:03Z</time>
      </trkpt>
      <trkpt lat="44.29483" lon="4.82115">
        <ele>86</ele>
        <time>2018-02-21T14:59:06Z</time>
      </trkpt>
      <trkpt lat="44.29481" lon="4.82098">
        <ele>86</ele>
        <time>2018-02-21T14:59:08Z</time>
      </trkpt>
      <trkpt lat="44.29479" lon="4.82082">
        <ele>86</ele>
        <time>2018-02-21T14:59:10Z</time>
      </trkpt>
      <trkpt lat="44.29476" lon="4.8206">
        <ele>86</ele>
        <time>2018-02-21T14:59:13Z</time>
      </trkpt>
      <trkpt lat="44.29472" lon="4.82039">
        <ele>86</ele>
        <time>2018-02-21T14:59:16Z</time>
      </trkpt>
      <trkpt lat="44.29469" lon="4.82024">
        <ele>86</ele>
        <time>2018-02-21T14:59:18Z</time>
      </trkpt>
      <trkpt lat="44.29465" lon="4.8201">
        <ele>87</ele>
        <time>2018-02-21T14:59:20Z</time>
      </trkpt>
      <trkpt lat="44.29461" lon="4.81995">
        <ele>87</ele>
        <time>2018-02-21T14:59:22Z</time>
      </trkpt>
      <trkpt lat="44.29456" lon="4.81973">
        <ele>88</ele>
        <time>2018-02-21T14:59:25Z</time>
      </trkpt>
      <trkpt lat="44.29451" lon="4.81951">
        <ele>88</ele>
        <time>2018-02-21T14:59:28Z</time>
      </trkpt>
      <trkpt lat="44.29446" lon="4.81929">
        <ele>87</ele>
        <time>2018-02-21T14:59:31Z</time>
      </trkpt>
      <trkpt lat="44.2944" lon="4.81907">
        <ele>86</ele>
        <time>2018-02-21T14:59:34Z</time>
      </trkpt>
      <trkpt lat="44.29435" lon="4.81885">
        <ele>85</ele>
        <time>2018-02-21T14:59:37Z</time>
      </trkpt>
      <trkpt lat="44.2943" lon="4.81862">
        <ele>85</ele>
        <time>2018-02-21T14:59:40Z</time>
      </trkpt>
      <trkpt lat="44.29428" lon="4.81847">
        <ele>86</ele>
        <time>2018-02-21T14:59:42Z</time>
      </trkpt>
      <trkpt lat="44.29427" lon="4.81833">
        <ele>86</ele>
        <time>2018-02-21T14:59:44Z</time>
      </trkpt>
      <trkpt lat="44.29424" lon="4.81812">
        <ele>87</ele>
        <time>2018-02-21T14:59:47Z</time>
      </trkpt>
      <trkpt lat="44.29422" lon="4.81797">
        <ele>86</ele>
        <time>2018-02-21T14:59:49Z</time>
      </trkpt>
      <trkpt lat="44.29418" lon="4.81775">
        <ele>85</ele>
        <time>2018-02-21T14:59:52Z</time>
      </trkpt>
      <trkpt lat="44.29414" lon="4.81759">
        <ele>85</ele>
        <time>2018-02-21T14:59:54Z</time>
      </trkpt>
      <trkpt lat="44.29409" lon="4.81736">
        <ele>85</ele>
        <time>2018-02-21T14:59:57Z</time>
      </trkpt>
      <trkpt lat="44.29404" lon="4.81715">
        <ele>86</ele>
        <time>2018-02-21T15:00:00Z</time>
      </trkpt>
      <trkpt lat="44.29401" lon="4.81701">
        <ele>85</ele>
        <time>2018-02-21T15:00:02Z</time>
      </trkpt>
      <trkpt lat="44.29396" lon="4.81681">
        <ele>85</ele>
        <time>2018-02-21T15:00:05Z</time>
      </trkpt>
      <trkpt lat="44.2939" lon="4.8166">
        <ele>86</ele>
        <time>2018-02-21T15:00:08Z</time>
      </trkpt>
      <trkpt lat="44.29387" lon="4.81646">
        <ele>87</ele>
        <time>2018-02-21T15:00:10Z</time>
      </trkpt>
      <trkpt lat="44.29383" lon="4.81632">
        <ele>87</ele>
        <time>2018-02-21T15:00:12Z</time>
      </trkpt>
      <trkpt lat="44.29379" lon="4.8161">
        <ele>87</ele>
        <time>2018-02-21T15:00:15Z</time>
      </trkpt>
      <trkpt lat="44.29374" lon="4.81589">
        <ele>86</ele>
        <time>2018-02-21T15:00:18Z</time>
      </trkpt>
      <trkpt lat="44.29372" lon="4.81574">
        <ele>86</ele>
        <time>2018-02-21T15:00:20Z</time>
      </trkpt>
      <trkpt lat="44.29368" lon="4.81553">
        <ele>86</ele>
        <time>2018-02-21T15:00:23Z</time>
      </trkpt>
      <trkpt lat="44.29364" lon="4.81532">
        <ele>87</ele>
        <time>2018-02-21T15:00:26Z</time>
      </trkpt>
      <trkpt lat="44.29361" lon="4.81517">
        <ele>87</ele>
        <time>2018-02-21T15:00:28Z</time>
      </trkpt>
      <trkpt lat="44.29356" lon="4.81496">
        <ele>87</ele>
        <time>2018-02-21T15:00:31Z</time>
      </trkpt>
      <trkpt lat="44.29349" lon="4.81477">
        <ele>86</ele>
        <time>2018-02-21T15:00:34Z</time>
      </trkpt>
      <trkpt lat="44.29344" lon="4.81464">
        <ele>86</ele>
        <time>2018-02-21T15:00:36Z</time>
      </trkpt>
      <trkpt lat="44.29336" lon="4.81445">
        <ele>86</ele>
        <time>2018-02-21T15:00:39Z</time>
      </trkpt>
      <trkpt lat="44.29329" lon="4.81426">
        <ele>86</ele>
        <time>2018-02-21T15:00:42Z</time>
      </trkpt>
      <trkpt lat="44.29324" lon="4.81412">
        <ele>86</ele>
        <time>2018-02-21T15:00:44Z</time>
      </trkpt>
      <trkpt lat="44.29317" lon="4.81392">
        <ele>86</ele>
        <time>2018-02-21T15:00:47Z</time>
      </trkpt>
      <trkpt lat="44.2931" lon="4.81369">
        <ele>86</ele>
        <time>2018-02-21T15:00:50Z</time>
      </trkpt>
      <trkpt lat="44.29302" lon="4.81347">
        <ele>86</ele>
        <time>2018-02-21T15:00:53Z</time>
      </trkpt>
      <trkpt lat="44.29294" lon="4.81325">
        <ele>85</ele>
        <time>2018-02-21T15:00:56Z</time>
      </trkpt>
      <trkpt lat="44.29285" lon="4.81304">
        <ele>84</ele>
        <time>2018-02-21T15:00:59Z</time>
      </trkpt>
      <trkpt lat="44.29278" lon="4.81283">
        <ele>83</ele>
        <time>2018-02-21T15:01:02Z</time>
      </trkpt>
      <trkpt lat="44.29274" lon="4.81269">
        <ele>83</ele>
        <time>2018-02-21T15:01:04Z</time>
      </trkpt>
      <trkpt lat="44.2927" lon="4.81247">
        <ele>82</ele>
        <time>2018-02-21T15:01:07Z</time>
      </trkpt>
      <trkpt lat="44.29266" lon="4.81224">
        <ele>81</ele>
        <time>2018-02-21T15:01:10Z</time>
      </trkpt>
      <trkpt lat="44.29259" lon="4.81205">
        <ele>81</ele>
        <time>2018-02-21T15:01:13Z</time>
      </trkpt>
      <trkpt lat="44.29247" lon="4.8119">
        <ele>82</ele>
        <time>2018-02-21T15:01:16Z</time>
      </trkpt>
      <trkpt lat="44.29233" lon="4.81178">
        <ele>83</ele>
        <time>2018-02-21T15:01:19Z</time>
      </trkpt>
      <trkpt lat="44.29218" lon="4.81165">
        <ele>84</ele>
        <time>2018-02-21T15:01:22Z</time>
      </trkpt>
      <trkpt lat="44.29204" lon="4.81151">
        <ele>84</ele>
        <time>2018-02-21T15:01:25Z</time>
      </trkpt>
      <trkpt lat="44.29195" lon="4.81141">
        <ele>83</ele>
        <time>2018-02-21T15:01:27Z</time>
      </trkpt>
      <trkpt lat="44.29182" lon="4.81124">
        <ele>82</ele>
        <time>2018-02-21T15:01:30Z</time>
      </trkpt>
      <trkpt lat="44.29174" lon="4.81113">
        <ele>82</ele>
        <time>2018-02-21T15:01:32Z</time>
      </trkpt>
      <trkpt lat="44.29167" lon="4.81102">
        <ele>83</ele>
        <time>2018-02-21T15:01:34Z</time>
      </trkpt>
      <trkpt lat="44.29156" lon="4.81086">
        <ele>83</ele>
        <time>2018-02-21T15:01:37Z</time>
      </trkpt>
      <trkpt lat="44.29146" lon="4.81071">
        <ele>82</ele>
        <time>2018-02-21T15:01:40Z</time>
      </trkpt>
      <trkpt lat="44.29139" lon="4.81061">
        <ele>83</ele>
        <time>2018-02-21T15:01:42Z</time>
      </trkpt>
      <trkpt lat="44.29128" lon="4.81046">
        <ele>84</ele>
        <time>2018-02-21T15:01:45Z</time>
      </trkpt>
      <trkpt lat="44.29117" lon="4.81031">
        <ele>85</ele>
        <time>2018-02-21T15:01:48Z</time>
      </trkpt>
      <trkpt lat="44.29106" lon="4.81014">
        <ele>85</ele>
        <time>2018-02-21T15:01:51Z</time>
      </trkpt>
      <trkpt lat="44.29097" lon="4.80996">
        <ele>86</ele>
        <time>2018-02-21T15:01:54Z</time>
      </trkpt>
      <trkpt lat="44.29089" lon="4.80977">
        <ele>86</ele>
        <time>2018-02-21T15:01:57Z</time>
      </trkpt>
      <trkpt lat="44.29081" lon="4.80959">
        <ele>86</ele>
        <time>2018-02-21T15:02:00Z</time>
      </trkpt>
      <trkpt lat="44.29076" lon="4.80946">
        <ele>87</ele>
        <time>2018-02-21T15:02:02Z</time>
      </trkpt>
      <trkpt lat="44.29072" lon="4.80933">
        <ele>87</ele>
        <time>2018-02-21T15:02:04Z</time>
      </trkpt>
      <trkpt lat="44.29067" lon="4.8092">
        <ele>87</ele>
        <time>2018-02-21T15:02:06Z</time>
      </trkpt>
      <trkpt lat="44.29061" lon="4.80899">
        <ele>88</ele>
        <time>2018-02-21T15:02:09Z</time>
      </trkpt>
      <trkpt lat="44.29058" lon="4.80885">
        <ele>88</ele>
        <time>2018-02-21T15:02:11Z</time>
      </trkpt>
      <trkpt lat="44.29055" lon="4.80871">
        <ele>89</ele>
        <time>2018-02-21T15:02:13Z</time>
      </trkpt>
      <trkpt lat="44.29052" lon="4.80857">
        <ele>89</ele>
        <time>2018-02-21T15:02:15Z</time>
      </trkpt>
      <trkpt lat="44.29048" lon="4.80836">
        <ele>89</ele>
        <time>2018-02-21T15:02:18Z</time>
      </trkpt>
      <trkpt lat="44.29045" lon="4.80823">
        <ele>90</ele>
        <time>2018-02-21T15:02:20Z</time>
      </trkpt>
      <trkpt lat="44.29041" lon="4.80809">
        <ele>91</ele>
        <time>2018-02-21T15:02:22Z</time>
      </trkpt>
      <trkpt lat="44.29036" lon="4.80797">
        <ele>92</ele>
        <time>2018-02-21T15:02:24Z</time>
      </trkpt>
      <trkpt lat="44.29031" lon="4.80786">
        <ele>92</ele>
        <time>2018-02-21T15:02:26Z</time>
      </trkpt>
      <trkpt lat="44.29023" lon="4.80771">
        <ele>92</ele>
        <time>2018-02-21T15:02:29Z</time>
      </trkpt>
      <trkpt lat="44.29013" lon="4.80758">
        <ele>91</ele>
        <time>2018-02-21T15:02:32Z</time>
      </trkpt>
      <trkpt lat="44.29001" lon="4.80744">
        <ele>91</ele>
        <time>2018-02-21T15:02:35Z</time>
      </trkpt>
      <trkpt lat="44.28989" lon="4.80729">
        <ele>90</ele>
        <time>2018-02-21T15:02:38Z</time>
      </trkpt>
      <trkpt lat="44.28976" lon="4.80711">
        <ele>88</ele>
        <time>2018-02-21T15:02:41Z</time>
      </trkpt>
      <trkpt lat="44.28967" lon="4.80697">
        <ele>88</ele>
        <time>2018-02-21T15:02:43Z</time>
      </trkpt>
      <trkpt lat="44.28959" lon="4.80681">
        <ele>88</ele>
        <time>2018-02-21T15:02:45Z</time>
      </trkpt>
      <trkpt lat="44.28951" lon="4.8065">
        <ele>87</ele>
        <time>2018-02-21T15:02:48Z</time>
      </trkpt>
      <trkpt lat="44.28944" lon="4.80618">
        <ele>86</ele>
        <time>2018-02-21T15:02:51Z</time>
      </trkpt>
      <trkpt lat="44.28941" lon="4.80596">
        <ele>86</ele>
        <time>2018-02-21T15:02:53Z</time>
      </trkpt>
      <trkpt lat="44.28934" lon="4.80558">
        <ele>85</ele>
        <time>2018-02-21T15:02:56Z</time>
      </trkpt>
      <trkpt lat="44.28929" lon="4.80519">
        <ele>85</ele>
        <time>2018-02-21T15:02:59Z</time>
      </trkpt>
      <trkpt lat="44.28928" lon="4.80493">
        <ele>84</ele>
        <time>2018-02-21T15:03:01Z</time>
      </trkpt>
      <trkpt lat="44.2893" lon="4.80458">
        <ele>84</ele>
        <time>2018-02-21T15:03:04Z</time>
      </trkpt>
      <trkpt lat="44.28931" lon="4.80429">
        <ele>82</ele>
        <time>2018-02-21T15:03:07Z</time>
      </trkpt>
      <trkpt lat="44.28927" lon="4.80401">
        <ele>83</ele>
        <time>2018-02-21T15:03:10Z</time>
      </trkpt>
      <trkpt lat="44.28918" lon="4.80374">
        <ele>83</ele>
        <time>2018-02-21T15:03:13Z</time>
      </trkpt>
      <trkpt lat="44.28911" lon="4.80347">
        <ele>84</ele>
        <time>2018-02-21T15:03:16Z</time>
      </trkpt>
      <trkpt lat="44.28905" lon="4.80329">
        <ele>85</ele>
        <time>2018-02-21T15:03:18Z</time>
      </trkpt>
      <trkpt lat="44.289" lon="4.80302">
        <ele>85</ele>
        <time>2018-02-21T15:03:21Z</time>
      </trkpt>
      <trkpt lat="44.28894" lon="4.80277">
        <ele>84</ele>
        <time>2018-02-21T15:03:24Z</time>
      </trkpt>
      <trkpt lat="44.28891" lon="4.80251">
        <ele>86</ele>
        <time>2018-02-21T15:03:27Z</time>
      </trkpt>
      <trkpt lat="44.28889" lon="4.80233">
        <ele>85</ele>
        <time>2018-02-21T15:03:29Z</time>
      </trkpt>
      <trkpt lat="44.28885" lon="4.80204">
        <ele>84</ele>
        <time>2018-02-21T15:03:32Z</time>
      </trkpt>
      <trkpt lat="44.28879" lon="4.80177">
        <ele>80</ele>
        <time>2018-02-21T15:03:35Z</time>
      </trkpt>
      <trkpt lat="44.28874" lon="4.80162">
        <ele>81</ele>
        <time>2018-02-21T15:03:37Z</time>
      </trkpt>
      <trkpt lat="44.28868" lon="4.80138">
        <ele>81</ele>
        <time>2018-02-21T15:03:40Z</time>
      </trkpt>
      <trkpt lat="44.28865" lon="4.80123">
        <ele>82</ele>
        <time>2018-02-21T15:03:42Z</time>
      </trkpt>
      <trkpt lat="44.28862" lon="4.80106">
        <ele>82</ele>
        <time>2018-02-21T15:03:44Z</time>
      </trkpt>
      <trkpt lat="44.28858" lon="4.80082">
        <ele>81</ele>
        <time>2018-02-21T15:03:47Z</time>
      </trkpt>
      <trkpt lat="44.28856" lon="4.80067">
        <ele>80</ele>
        <time>2018-02-21T15:03:49Z</time>
      </trkpt>
      <trkpt lat="44.28854" lon="4.80051">
        <ele>80</ele>
        <time>2018-02-21T15:03:51Z</time>
      </trkpt>
      <trkpt lat="44.28852" lon="4.80034">
        <ele>80</ele>
        <time>2018-02-21T15:03:53Z</time>
      </trkpt>
      <trkpt lat="44.28849" lon="4.80008">
        <ele>80</ele>
        <time>2018-02-21T15:03:56Z</time>
      </trkpt>
      <trkpt lat="44.28847" lon="4.79989">
        <ele>80</ele>
        <time>2018-02-21T15:03:58Z</time>
      </trkpt>
      <trkpt lat="44.28846" lon="4.79971">
        <ele>80</ele>
        <time>2018-02-21T15:04:00Z</time>
      </trkpt>
      <trkpt lat="44.28844" lon="4.79953">
        <ele>79</ele>
        <time>2018-02-21T15:04:02Z</time>
      </trkpt>
      <trkpt lat="44.28843" lon="4.79926">
        <ele>79</ele>
        <time>2018-02-21T15:04:05Z</time>
      </trkpt>
      <trkpt lat="44.28841" lon="4.79908">
        <ele>80</ele>
        <time>2018-02-21T15:04:07Z</time>
      </trkpt>
      <trkpt lat="44.28836" lon="4.79892">
        <ele>81</ele>
        <time>2018-02-21T15:04:09Z</time>
      </trkpt>
      <trkpt lat="44.28831" lon="4.79878">
        <ele>82</ele>
        <time>2018-02-21T15:04:11Z</time>
      </trkpt>
      <trkpt lat="44.28822" lon="4.79857">
        <ele>82</ele>
        <time>2018-02-21T15:04:14Z</time>
      </trkpt>
      <trkpt lat="44.28816" lon="4.79836">
        <ele>82</ele>
        <time>2018-02-21T15:04:17Z</time>
      </trkpt>
      <trkpt lat="44.28812" lon="4.79822">
        <ele>81</ele>
        <time>2018-02-21T15:04:19Z</time>
      </trkpt>
      <trkpt lat="44.28808" lon="4.79807">
        <ele>80</ele>
        <time>2018-02-21T15:04:21Z</time>
      </trkpt>
      <trkpt lat="44.288" lon="4.79782">
        <ele>79</ele>
        <time>2018-02-21T15:04:24Z</time>
      </trkpt>
      <trkpt lat="44.28792" lon="4.79755">
        <ele>79</ele>
        <time>2018-02-21T15:04:27Z</time>
      </trkpt>
      <trkpt lat="44.28785" lon="4.79727">
        <ele>79</ele>
        <time>2018-02-21T15:04:30Z</time>
      </trkpt>
      <trkpt lat="44.28781" lon="4.79697">
        <ele>79</ele>
        <time>2018-02-21T15:04:33Z</time>
      </trkpt>
      <trkpt lat="44.28778" lon="4.79676">
        <ele>78</ele>
        <time>2018-02-21T15:04:35Z</time>
      </trkpt>
      <trkpt lat="44.28772" lon="4.79645">
        <ele>78</ele>
        <time>2018-02-21T15:04:38Z</time>
      </trkpt>
      <trkpt lat="44.28764" lon="4.79617">
        <ele>76</ele>
        <time>2018-02-21T15:04:41Z</time>
      </trkpt>
      <trkpt lat="44.28759" lon="4.79598">
        <ele>76</ele>
        <time>2018-02-21T15:04:43Z</time>
      </trkpt>
      <trkpt lat="44.28752" lon="4.79572">
        <ele>75</ele>
        <time>2018-02-21T15:04:46Z</time>
      </trkpt>
      <trkpt lat="44.28748" lon="4.79555">
        <ele>74</ele>
        <time>2018-02-21T15:04:48Z</time>
      </trkpt>
      <trkpt lat="44.28743" lon="4.7953">
        <ele>74</ele>
        <time>2018-02-21T15:04:51Z</time>
      </trkpt>
      <trkpt lat="44.2874" lon="4.79514">
        <ele>74</ele>
        <time>2018-02-21T15:04:53Z</time>
      </trkpt>
      <trkpt lat="44.28736" lon="4.79487">
        <ele>74</ele>
        <time>2018-02-21T15:04:56Z</time>
      </trkpt>
      <trkpt lat="44.28734" lon="4.79461">
        <ele>73</ele>
        <time>2018-02-21T15:04:59Z</time>
      </trkpt>
      <trkpt lat="44.28733" lon="4.79436">
        <ele>72</ele>
        <time>2018-02-21T15:05:02Z</time>
      </trkpt>
      <trkpt lat="44.28734" lon="4.79411">
        <ele>72</ele>
        <time>2018-02-21T15:05:05Z</time>
      </trkpt>
      <trkpt lat="44.28738" lon="4.79386">
        <ele>73</ele>
        <time>2018-02-21T15:05:08Z</time>
      </trkpt>
      <trkpt lat="44.28742" lon="4.79362">
        <ele>73</ele>
        <time>2018-02-21T15:05:11Z</time>
      </trkpt>
      <trkpt lat="44.28746" lon="4.79337">
        <ele>73</ele>
        <time>2018-02-21T15:05:14Z</time>
      </trkpt>
      <trkpt lat="44.28748" lon="4.79322">
        <ele>73</ele>
        <time>2018-02-21T15:05:16Z</time>
      </trkpt>
      <trkpt lat="44.28748" lon="4.79308">
        <ele>74</ele>
        <time>2018-02-21T15:05:18Z</time>
      </trkpt>
      <trkpt lat="44.28745" lon="4.79287">
        <ele>74</ele>
        <time>2018-02-21T15:05:21Z</time>
      </trkpt>
      <trkpt lat="44.2874" lon="4.79268">
        <ele>74</ele>
        <time>2018-02-21T15:05:24Z</time>
      </trkpt>
      <trkpt lat="44.28734" lon="4.7925">
        <ele>74</ele>
        <time>2018-02-21T15:05:27Z</time>
      </trkpt>
      <trkpt lat="44.28732" lon="4.79237">
        <ele>75</ele>
        <time>2018-02-21T15:05:29Z</time>
      </trkpt>
      <trkpt lat="44.2873" lon="4.79216">
        <ele>75</ele>
        <time>2018-02-21T15:05:32Z</time>
      </trkpt>
      <trkpt lat="44.28729" lon="4.79195">
        <ele>75</ele>
        <time>2018-02-21T15:05:35Z</time>
      </trkpt>
      <trkpt lat="44.28728" lon="4.79181">
        <ele>75</ele>
        <time>2018-02-21T15:05:37Z</time>
      </trkpt>
      <trkpt lat="44.28727" lon="4.7916">
        <ele>76</ele>
        <time>2018-02-21T15:05:40Z</time>
      </trkpt>
      <trkpt lat="44.28726" lon="4.79146">
        <ele>76</ele>
        <time>2018-02-21T15:05:42Z</time>
      </trkpt>
      <trkpt lat="44.28725" lon="4.79124">
        <ele>74</ele>
        <time>2018-02-21T15:05:45Z</time>
      </trkpt>
      <trkpt lat="44.28724" lon="4.79101">
        <ele>73</ele>
        <time>2018-02-21T15:05:48Z</time>
      </trkpt>
      <trkpt lat="44.28723" lon="4.79086">
        <ele>73</ele>
        <time>2018-02-21T15:05:50Z</time>
      </trkpt>
      <trkpt lat="44.28721" lon="4.79063">
        <ele>74</ele>
        <time>2018-02-21T15:05:53Z</time>
      </trkpt>
      <trkpt lat="44.2872" lon="4.79048">
        <ele>74</ele>
        <time>2018-02-21T15:05:55Z</time>
      </trkpt>
      <trkpt lat="44.28719" lon="4.79026">
        <ele>74</ele>
        <time>2018-02-21T15:05:58Z</time>
      </trkpt>
      <trkpt lat="44.28717" lon="4.7901">
        <ele>73</ele>
        <time>2018-02-21T15:06:00Z</time>
      </trkpt>
      <trkpt lat="44.28716" lon="4.78994">
        <ele>73</ele>
        <time>2018-02-21T15:06:02Z</time>
      </trkpt>
      <trkpt lat="44.28714" lon="4.78978">
        <ele>72</ele>
        <time>2018-02-21T15:06:04Z</time>
      </trkpt>
      <trkpt lat="44.28712" lon="4.78954">
        <ele>70</ele>
        <time>2018-02-21T15:06:07Z</time>
      </trkpt>
      <trkpt lat="44.28709" lon="4.78938">
        <ele>70</ele>
        <time>2018-02-21T15:06:09Z</time>
      </trkpt>
      <trkpt lat="44.28704" lon="4.78913">
        <ele>69</ele>
        <time>2018-02-21T15:06:12Z</time>
      </trkpt>
      <trkpt lat="44.28702" lon="4.78899">
        <ele>69</ele>
        <time>2018-02-21T15:06:14Z</time>
      </trkpt>
      <trkpt lat="44.28699" lon="4.78885">
        <ele>69</ele>
        <time>2018-02-21T15:06:16Z</time>
      </trkpt>
      <trkpt lat="44.28695" lon="4.78862">
        <ele>70</ele>
        <time>2018-02-21T15:06:19Z</time>
      </trkpt>
      <trkpt lat="44.28693" lon="4.78846">
        <ele>70</ele>
        <time>2018-02-21T15:06:21Z</time>
      </trkpt>
      <trkpt lat="44.28692" lon="4.78829">
        <ele>70</ele>
        <time>2018-02-21T15:06:23Z</time>
      </trkpt>
      <trkpt lat="44.2869" lon="4.78813">
        <ele>70</ele>
        <time>2018-02-21T15:06:25Z</time>
      </trkpt>
      <trkpt lat="44.28688" lon="4.78789">
        <ele>70</ele>
        <time>2018-02-21T15:06:28Z</time>
      </trkpt>
      <trkpt lat="44.28686" lon="4.78771">
        <ele>70</ele>
        <time>2018-02-21T15:06:30Z</time>
      </trkpt>
      <trkpt lat="44.28683" lon="4.78747">
        <ele>71</ele>
        <time>2018-02-21T15:06:33Z</time>
      </trkpt>
      <trkpt lat="44.28682" lon="4.7873">
        <ele>70</ele>
        <time>2018-02-21T15:06:35Z</time>
      </trkpt>
      <trkpt lat="44.2868" lon="4.78713">
        <ele>70</ele>
        <time>2018-02-21T15:06:37Z</time>
      </trkpt>
      <trkpt lat="44.28678" lon="4.78687">
        <ele>69</ele>
        <time>2018-02-21T15:06:40Z</time>
      </trkpt>
      <trkpt lat="44.28677" lon="4.78662">
        <ele>69</ele>
        <time>2018-02-21T15:06:43Z</time>
      </trkpt>
      <trkpt lat="44.28677" lon="4.78636">
        <ele>69</ele>
        <time>2018-02-21T15:06:46Z</time>
      </trkpt>
      <trkpt lat="44.28676" lon="4.78612">
        <ele>70</ele>
        <time>2018-02-21T15:06:49Z</time>
      </trkpt>
      <trkpt lat="44.28675" lon="4.78587">
        <ele>71</ele>
        <time>2018-02-21T15:06:52Z</time>
      </trkpt>
      <trkpt lat="44.28675" lon="4.78562">
        <ele>71</ele>
        <time>2018-02-21T15:06:55Z</time>
      </trkpt>
      <trkpt lat="44.28674" lon="4.78546">
        <ele>71</ele>
        <time>2018-02-21T15:06:57Z</time>
      </trkpt>
      <trkpt lat="44.28674" lon="4.78521">
        <ele>71</ele>
        <time>2018-02-21T15:07:00Z</time>
      </trkpt>
      <trkpt lat="44.28673" lon="4.78496">
        <ele>71</ele>
        <time>2018-02-21T15:07:03Z</time>
      </trkpt>
      <trkpt lat="44.28672" lon="4.78471">
        <ele>70</ele>
        <time>2018-02-21T15:07:06Z</time>
      </trkpt>
      <trkpt lat="44.28671" lon="4.78445">
        <ele>70</ele>
        <time>2018-02-21T15:07:09Z</time>
      </trkpt>
      <trkpt lat="44.2867" lon="4.78419">
        <ele>71</ele>
        <time>2018-02-21T15:07:12Z</time>
      </trkpt>
      <trkpt lat="44.2867" lon="4.78394">
        <ele>72</ele>
        <time>2018-02-21T15:07:15Z</time>
      </trkpt>
      <trkpt lat="44.28669" lon="4.78377">
        <ele>71</ele>
        <time>2018-02-21T15:07:17Z</time>
      </trkpt>
      <trkpt lat="44.28669" lon="4.78361">
        <ele>69</ele>
        <time>2018-02-21T15:07:19Z</time>
      </trkpt>
      <trkpt lat="44.28669" lon="4.78336">
        <ele>68</ele>
        <time>2018-02-21T15:07:22Z</time>
      </trkpt>
      <trkpt lat="44.28668" lon="4.78318">
        <ele>68</ele>
        <time>2018-02-21T15:07:24Z</time>
      </trkpt>
      <trkpt lat="44.28668" lon="4.78293">
        <ele>69</ele>
        <time>2018-02-21T15:07:27Z</time>
      </trkpt>
      <trkpt lat="44.28666" lon="4.78269">
        <ele>70</ele>
        <time>2018-02-21T15:07:30Z</time>
      </trkpt>
      <trkpt lat="44.28665" lon="4.78252">
        <ele>72</ele>
        <time>2018-02-21T15:07:32Z</time>
      </trkpt>
      <trkpt lat="44.28663" lon="4.78228">
        <ele>71</ele>
        <time>2018-02-21T15:07:35Z</time>
      </trkpt>
      <trkpt lat="44.28661" lon="4.78212">
        <ele>71</ele>
        <time>2018-02-21T15:07:37Z</time>
      </trkpt>
      <trkpt lat="44.28659" lon="4.78196">
        <ele>72</ele>
        <time>2018-02-21T15:07:39Z</time>
      </trkpt>
      <trkpt lat="44.28657" lon="4.7818">
        <ele>71</ele>
        <time>2018-02-21T15:07:41Z</time>
      </trkpt>
      <trkpt lat="44.28654" lon="4.78154">
        <ele>73</ele>
        <time>2018-02-21T15:07:44Z</time>
      </trkpt>
      <trkpt lat="44.28652" lon="4.78137">
        <ele>73</ele>
        <time>2018-02-21T15:07:46Z</time>
      </trkpt>
      <trkpt lat="44.28649" lon="4.7812">
        <ele>73</ele>
        <time>2018-02-21T15:07:48Z</time>
      </trkpt>
      <trkpt lat="44.28646" lon="4.78093">
        <ele>72</ele>
        <time>2018-02-21T15:07:51Z</time>
      </trkpt>
      <trkpt lat="44.28643" lon="4.78075">
        <ele>72</ele>
        <time>2018-02-21T15:07:53Z</time>
      </trkpt>
      <trkpt lat="44.2864" lon="4.7805">
        <ele>73</ele>
        <time>2018-02-21T15:07:56Z</time>
      </trkpt>
      <trkpt lat="44.28637" lon="4.78033">
        <ele>72</ele>
        <time>2018-02-21T15:07:58Z</time>
      </trkpt>
      <trkpt lat="44.28632" lon="4.78007">
        <ele>70</ele>
        <time>2018-02-21T15:08:01Z</time>
      </trkpt>
      <trkpt lat="44.28627" lon="4.7798">
        <ele>70</ele>
        <time>2018-02-21T15:08:04Z</time>
      </trkpt>
      <trkpt lat="44.2862" lon="4.77953">
        <ele>70</ele>
        <time>2018-02-21T15:08:07Z</time>
      </trkpt>
      <trkpt lat="44.28613" lon="4.77928">
        <ele>71</ele>
        <time>2018-02-21T15:08:10Z</time>
      </trkpt>
      <trkpt lat="44.28607" lon="4.77903">
        <ele>72</ele>
        <time>2018-02-21T15:08:13Z</time>
      </trkpt>
      <trkpt lat="44.286" lon="4.7788">
        <ele>70</ele>
        <time>2018-02-21T15:08:16Z</time>
      </trkpt>
      <trkpt lat="44.28593" lon="4.77856">
        <ele>69</ele>
        <time>2018-02-21T15:08:19Z</time>
      </trkpt>
      <trkpt lat="44.28589" lon="4.77841">
        <ele>68</ele>
        <time>2018-02-21T15:08:21Z</time>
      </trkpt>
      <trkpt lat="44.28585" lon="4.77825">
        <ele>69</ele>
        <time>2018-02-21T15:08:23Z</time>
      </trkpt>
      <trkpt lat="44.28578" lon="4.77803">
        <ele>70</ele>
        <time>2018-02-21T15:08:26Z</time>
      </trkpt>
      <trkpt lat="44.28573" lon="4.77779">
        <ele>69</ele>
        <time>2018-02-21T15:08:29Z</time>
      </trkpt>
      <trkpt lat="44.28569" lon="4.77755">
        <ele>68</ele>
        <time>2018-02-21T15:08:32Z</time>
      </trkpt>
      <trkpt lat="44.28567" lon="4.7773">
        <ele>67</ele>
        <time>2018-02-21T15:08:35Z</time>
      </trkpt>
      <trkpt lat="44.28566" lon="4.77713">
        <ele>67</ele>
        <time>2018-02-21T15:08:37Z</time>
      </trkpt>
      <trkpt lat="44.28568" lon="4.77688">
        <ele>68</ele>
        <time>2018-02-21T15:08:40Z</time>
      </trkpt>
      <trkpt lat="44.28569" lon="4.77672">
        <ele>68</ele>
        <time>2018-02-21T15:08:42Z</time>
      </trkpt>
      <trkpt lat="44.28571" lon="4.77656">
        <ele>69</ele>
        <time>2018-02-21T15:08:44Z</time>
      </trkpt>
      <trkpt lat="44.28574" lon="4.77631">
        <ele>69</ele>
        <time>2018-02-21T15:08:47Z</time>
      </trkpt>
      <trkpt lat="44.28576" lon="4.77607">
        <ele>69</ele>
        <time>2018-02-21T15:08:50Z</time>
      </trkpt>
      <trkpt lat="44.28577" lon="4.7759">
        <ele>70</ele>
        <time>2018-02-21T15:08:52Z</time>
      </trkpt>
      <trkpt lat="44.28578" lon="4.77574">
        <ele>70</ele>
        <time>2018-02-21T15:08:54Z</time>
      </trkpt>
      <trkpt lat="44.28578" lon="4.77557">
        <ele>70</ele>
        <time>2018-02-21T15:08:56Z</time>
      </trkpt>
      <trkpt lat="44.28577" lon="4.7754">
        <ele>69</ele>
        <time>2018-02-21T15:08:58Z</time>
      </trkpt>
      <trkpt lat="44.28576" lon="4.77523">
        <ele>68</ele>
        <time>2018-02-21T15:09:00Z</time>
      </trkpt>
      <trkpt lat="44.28574" lon="4.77498">
        <ele>68</ele>
        <time>2018-02-21T15:09:03Z</time>
      </trkpt>
      <trkpt lat="44.28573" lon="4.77472">
        <ele>67</ele>
        <time>2018-02-21T15:09:06Z</time>
      </trkpt>
      <trkpt lat="44.28572" lon="4.77446">
        <ele>68</ele>
        <time>2018-02-21T15:09:09Z</time>
      </trkpt>
      <trkpt lat="44.2857" lon="4.7742">
        <ele>68</ele>
        <time>2018-02-21T15:09:12Z</time>
      </trkpt>
      <trkpt lat="44.28569" lon="4.77402">
        <ele>69</ele>
        <time>2018-02-21T15:09:14Z</time>
      </trkpt>
      <trkpt lat="44.28566" lon="4.77376">
        <ele>68</ele>
        <time>2018-02-21T15:09:17Z</time>
      </trkpt>
      <trkpt lat="44.28564" lon="4.77359">
        <ele>67</ele>
        <time>2018-02-21T15:09:19Z</time>
      </trkpt>
      <trkpt lat="44.28562" lon="4.77341">
        <ele>67</ele>
        <time>2018-02-21T15:09:21Z</time>
      </trkpt>
      <trkpt lat="44.28559" lon="4.77323">
        <ele>67</ele>
        <time>2018-02-21T15:09:23Z</time>
      </trkpt>
      <trkpt lat="44.28554" lon="4.77297">
        <ele>68</ele>
        <time>2018-02-21T15:09:26Z</time>
      </trkpt>
      <trkpt lat="44.28548" lon="4.77273">
        <ele>68</ele>
        <time>2018-02-21T15:09:29Z</time>
      </trkpt>
      <trkpt lat="44.28542" lon="4.77256">
        <ele>68</ele>
        <time>2018-02-21T15:09:31Z</time>
      </trkpt>
      <trkpt lat="44.28535" lon="4.77232">
        <ele>67</ele>
        <time>2018-02-21T15:09:34Z</time>
      </trkpt>
      <trkpt lat="44.28526" lon="4.77208">
        <ele>66</ele>
        <time>2018-02-21T15:09:37Z</time>
      </trkpt>
      <trkpt lat="44.28516" lon="4.77185">
        <ele>65</ele>
        <time>2018-02-21T15:09:40Z</time>
      </trkpt>
      <trkpt lat="44.28509" lon="4.7717">
        <ele>64</ele>
        <time>2018-02-21T15:09:42Z</time>
      </trkpt>
      <trkpt lat="44.28501" lon="4.77155">
        <ele>64</ele>
        <time>2018-02-21T15:09:44Z</time>
      </trkpt>
      <trkpt lat="44.28493" lon="4.77141">
        <ele>65</ele>
        <time>2018-02-21T15:09:46Z</time>
      </trkpt>
      <trkpt lat="44.28483" lon="4.77119">
        <ele>66</ele>
        <time>2018-02-21T15:09:49Z</time>
      </trkpt>
      <trkpt lat="44.28474" lon="4.77096">
        <ele>66</ele>
        <time>2018-02-21T15:09:52Z</time>
      </trkpt>
      <trkpt lat="44.28464" lon="4.77072">
        <ele>67</ele>
        <time>2018-02-21T15:09:55Z</time>
      </trkpt>
      <trkpt lat="44.28458" lon="4.77057">
        <ele>67</ele>
        <time>2018-02-21T15:09:57Z</time>
      </trkpt>
      <trkpt lat="44.28449" lon="4.77035">
        <ele>67</ele>
        <time>2018-02-21T15:10:00Z</time>
      </trkpt>
      <trkpt lat="44.2844" lon="4.77013">
        <ele>67</ele>
        <time>2018-02-21T15:10:03Z</time>
      </trkpt>
      <trkpt lat="44.28431" lon="4.76991">
        <ele>67</ele>
        <time>2018-02-21T15:10:06Z</time>
      </trkpt>
      <trkpt lat="44.28425" lon="4.76976">
        <ele>67</ele>
        <time>2018-02-21T15:10:08Z</time>
      </trkpt>
      <trkpt lat="44.28419" lon="4.76962">
        <ele>66</ele>
        <time>2018-02-21T15:10:10Z</time>
      </trkpt>
      <trkpt lat="44.28414" lon="4.76947">
        <ele>66</ele>
        <time>2018-02-21T15:10:12Z</time>
      </trkpt>
      <trkpt lat="44.28406" lon="4.76923">
        <ele>66</ele>
        <time>2018-02-21T15:10:15Z</time>
      </trkpt>
      <trkpt lat="44.284" lon="4.76898">
        <ele>66</ele>
        <time>2018-02-21T15:10:18Z</time>
      </trkpt>
      <trkpt lat="44.28395" lon="4.76874">
        <ele>65</ele>
        <time>2018-02-21T15:10:21Z</time>
      </trkpt>
      <trkpt lat="44.28391" lon="4.7685">
        <ele>65</ele>
        <time>2018-02-21T15:10:24Z</time>
      </trkpt>
      <trkpt lat="44.28389" lon="4.76833">
        <ele>65</ele>
        <time>2018-02-21T15:10:26Z</time>
      </trkpt>
      <trkpt lat="44.28387" lon="4.76816">
        <ele>66</ele>
        <time>2018-02-21T15:10:28Z</time>
      </trkpt>
      <trkpt lat="44.28382" lon="4.76792">
        <ele>66</ele>
        <time>2018-02-21T15:10:31Z</time>
      </trkpt>
      <trkpt lat="44.28378" lon="4.76776">
        <ele>67</ele>
        <time>2018-02-21T15:10:33Z</time>
      </trkpt>
      <trkpt lat="44.28374" lon="4.7676">
        <ele>66</ele>
        <time>2018-02-21T15:10:35Z</time>
      </trkpt>
      <trkpt lat="44.2837" lon="4.76744">
        <ele>65</ele>
        <time>2018-02-21T15:10:37Z</time>
      </trkpt>
      <trkpt lat="44.28366" lon="4.76728">
        <ele>65</ele>
        <time>2018-02-21T15:10:39Z</time>
      </trkpt>
      <trkpt lat="44.28362" lon="4.76705">
        <ele>65</ele>
        <time>2018-02-21T15:10:42Z</time>
      </trkpt>
      <trkpt lat="44.28359" lon="4.76683">
        <ele>65</ele>
        <time>2018-02-21T15:10:45Z</time>
      </trkpt>
      <trkpt lat="44.28358" lon="4.76661">
        <ele>66</ele>
        <time>2018-02-21T15:10:48Z</time>
      </trkpt>
      <trkpt lat="44.28358" lon="4.76638">
        <ele>66</ele>
        <time>2018-02-21T15:10:51Z</time>
      </trkpt>
      <trkpt lat="44.28357" lon="4.76613">
        <ele>65</ele>
        <time>2018-02-21T15:10:54Z</time>
      </trkpt>
      <trkpt lat="44.28356" lon="4.76588">
        <ele>64</ele>
        <time>2018-02-21T15:10:57Z</time>
      </trkpt>
      <trkpt lat="44.28355" lon="4.76565">
        <ele>65</ele>
        <time>2018-02-21T15:11:00Z</time>
      </trkpt>
      <trkpt lat="44.28355" lon="4.76543">
        <ele>64</ele>
        <time>2018-02-21T15:11:03Z</time>
      </trkpt>
      <trkpt lat="44.28355" lon="4.76529">
        <ele>64</ele>
        <time>2018-02-21T15:11:05Z</time>
      </trkpt>
      <trkpt lat="44.28355" lon="4.76516">
        <ele>64</ele>
        <time>2018-02-21T15:11:07Z</time>
      </trkpt>
      <trkpt lat="44.2836" lon="4.76501">
        <ele>64</ele>
        <time>2018-02-21T15:11:10Z</time>
      </trkpt>
      <trkpt lat="44.28366" lon="4.76492">
        <ele>63</ele>
        <time>2018-02-21T15:11:13Z</time>
      </trkpt>
      <trkpt lat="44.28365" lon="4.76483">
        <ele>63</ele>
        <time>2018-02-21T15:11:16Z</time>
      </trkpt>
      <trkpt lat="44.28362" lon="4.7648">
        <ele>63</ele>
        <time>2018-02-21T15:11:18Z</time>
      </trkpt>
      <trkpt lat="44.28356" lon="4.76482">
        <ele>63</ele>
        <time>2018-02-21T15:11:21Z</time>
      </trkpt>
      <trkpt lat="44.28354" lon="4.76489">
        <ele>62</ele>
        <time>2018-02-21T15:11:24Z</time>
      </trkpt>
      <trkpt lat="44.28354" lon="4.76493">
        <ele>63</ele>
        <time>2018-02-21T15:11:27Z</time>
      </trkpt>
      <trkpt lat="44.28357" lon="4.76496">
        <ele>63</ele>
        <time>2018-02-21T15:11:30Z</time>
      </trkpt>
      <trkpt lat="44.28361" lon="4.76497">
        <ele>63</ele>
        <time>2018-02-21T15:11:33Z</time>
      </trkpt>
      <trkpt lat="44.28366" lon="4.76494">
        <ele>64</ele>
        <time>2018-02-21T15:11:36Z</time>
      </trkpt>
      <trkpt lat="44.28369" lon="4.76489">
        <ele>65</ele>
        <time>2018-02-21T15:11:38Z</time>
      </trkpt>
      <trkpt lat="44.28375" lon="4.76484">
        <ele>65</ele>
        <time>2018-02-21T15:11:41Z</time>
      </trkpt>
      <trkpt lat="44.28383" lon="4.76478">
        <ele>66</ele>
        <time>2018-02-21T15:11:44Z</time>
      </trkpt>
      <trkpt lat="44.28388" lon="4.76473">
        <ele>66</ele>
        <time>2018-02-21T15:11:46Z</time>
      </trkpt>
      <trkpt lat="44.28397" lon="4.76466">
        <ele>66</ele>
        <time>2018-02-21T15:11:49Z</time>
      </trkpt>
      <trkpt lat="44.28406" lon="4.76459">
        <ele>67</ele>
        <time>2018-02-21T15:11:52Z</time>
      </trkpt>
      <trkpt lat="44.28414" lon="4.76451">
        <ele>68</ele>
        <time>2018-02-21T15:11:55Z</time>
      </trkpt>
      <trkpt lat="44.28419" lon="4.76446">
        <ele>69</ele>
        <time>2018-02-21T15:11:57Z</time>
      </trkpt>
      <trkpt lat="44.28425" lon="4.7644">
        <ele>69</ele>
        <time>2018-02-21T15:12:00Z</time>
      </trkpt>
      <trkpt lat="44.28431" lon="4.76435">
        <ele>68</ele>
        <time>2018-02-21T15:12:03Z</time>
      </trkpt>
      <trkpt lat="44.28438" lon="4.76428">
        <ele>67</ele>
        <time>2018-02-21T15:12:06Z</time>
      </trkpt>
      <trkpt lat="44.28447" lon="4.76419">
        <ele>67</ele>
        <time>2018-02-21T15:12:09Z</time>
      </trkpt>
      <trkpt lat="44.28457" lon="4.7641">
        <ele>68</ele>
        <time>2018-02-21T15:12:12Z</time>
      </trkpt>
      <trkpt lat="44.28467" lon="4.764">
        <ele>69</ele>
        <time>2018-02-21T15:12:15Z</time>
      </trkpt>
      <trkpt lat="44.28478" lon="4.76391">
        <ele>69</ele>
        <time>2018-02-21T15:12:18Z</time>
      </trkpt>
      <trkpt lat="44.28488" lon="4.76382">
        <ele>69</ele>
        <time>2018-02-21T15:12:21Z</time>
      </trkpt>
      <trkpt lat="44.28494" lon="4.76375">
        <ele>67</ele>
        <time>2018-02-21T15:12:23Z</time>
      </trkpt>
      <trkpt lat="44.28501" lon="4.76369">
        <ele>67</ele>
        <time>2018-02-21T15:12:25Z</time>
      </trkpt>
      <trkpt lat="44.28511" lon="4.76359">
        <ele>69</ele>
        <time>2018-02-21T15:12:28Z</time>
      </trkpt>
      <trkpt lat="44.28523" lon="4.76348">
        <ele>70</ele>
        <time>2018-02-21T15:12:31Z</time>
      </trkpt>
      <trkpt lat="44.2853" lon="4.76341">
        <ele>70</ele>
        <time>2018-02-21T15:12:33Z</time>
      </trkpt>
      <trkpt lat="44.28542" lon="4.76331">
        <ele>70</ele>
        <time>2018-02-21T15:12:36Z</time>
      </trkpt>
      <trkpt lat="44.28551" lon="4.7632">
        <ele>72</ele>
        <time>2018-02-21T15:12:39Z</time>
      </trkpt>
      <trkpt lat="44.28558" lon="4.76314">
        <ele>71</ele>
        <time>2018-02-21T15:12:41Z</time>
      </trkpt>
      <trkpt lat="44.28566" lon="4.76307">
        <ele>72</ele>
        <time>2018-02-21T15:12:44Z</time>
      </trkpt>
      <trkpt lat="44.28574" lon="4.763">
        <ele>69</ele>
        <time>2018-02-21T15:12:47Z</time>
      </trkpt>
      <trkpt lat="44.2858" lon="4.76295">
        <ele>68</ele>
        <time>2018-02-21T15:12:49Z</time>
      </trkpt>
      <trkpt lat="44.28589" lon="4.76286">
        <ele>67</ele>
        <time>2018-02-21T15:12:52Z</time>
      </trkpt>
      <trkpt lat="44.28598" lon="4.76276">
        <ele>66</ele>
        <time>2018-02-21T15:12:55Z</time>
      </trkpt>
      <trkpt lat="44.28608" lon="4.76267">
        <ele>66</ele>
        <time>2018-02-21T15:12:58Z</time>
      </trkpt>
      <trkpt lat="44.28619" lon="4.76257">
        <ele>66</ele>
        <time>2018-02-21T15:13:01Z</time>
      </trkpt>
      <trkpt lat="44.2863" lon="4.76246">
        <ele>65</ele>
        <time>2018-02-21T15:13:04Z</time>
      </trkpt>
      <trkpt lat="44.28641" lon="4.76236">
        <ele>66</ele>
        <time>2018-02-21T15:13:07Z</time>
      </trkpt>
      <trkpt lat="44.28649" lon="4.76228">
        <ele>66</ele>
        <time>2018-02-21T15:13:09Z</time>
      </trkpt>
      <trkpt lat="44.28661" lon="4.76218">
        <ele>66</ele>
        <time>2018-02-21T15:13:12Z</time>
      </trkpt>
      <trkpt lat="44.28672" lon="4.76207">
        <ele>66</ele>
        <time>2018-02-21T15:13:15Z</time>
      </trkpt>
      <trkpt lat="44.28683" lon="4.76196">
        <ele>65</ele>
        <time>2018-02-21T15:13:18Z</time>
      </trkpt>
      <trkpt lat="44.28695" lon="4.76185">
        <ele>66</ele>
        <time>2018-02-21T15:13:21Z</time>
      </trkpt>
      <trkpt lat="44.28706" lon="4.76174">
        <ele>66</ele>
        <time>2018-02-21T15:13:24Z</time>
      </trkpt>
      <trkpt lat="44.28717" lon="4.76161">
        <ele>66</ele>
        <time>2018-02-21T15:13:27Z</time>
      </trkpt>
      <trkpt lat="44.28726" lon="4.76153">
        <ele>66</ele>
        <time>2018-02-21T15:13:29Z</time>
      </trkpt>
      <trkpt lat="44.28738" lon="4.76141">
        <ele>65</ele>
        <time>2018-02-21T15:13:32Z</time>
      </trkpt>
      <trkpt lat="44.28749" lon="4.76131">
        <ele>65</ele>
        <time>2018-02-21T15:13:35Z</time>
      </trkpt>
      <trkpt lat="44.2876" lon="4.7612">
        <ele>65</ele>
        <time>2018-02-21T15:13:38Z</time>
      </trkpt>
      <trkpt lat="44.28772" lon="4.76108">
        <ele>65</ele>
        <time>2018-02-21T15:13:41Z</time>
      </trkpt>
      <trkpt lat="44.28784" lon="4.76098">
        <ele>66</ele>
        <time>2018-02-21T15:13:44Z</time>
      </trkpt>
      <trkpt lat="44.28792" lon="4.7609">
        <ele>66</ele>
        <time>2018-02-21T15:13:46Z</time>
      </trkpt>
      <trkpt lat="44.28806" lon="4.76077">
        <ele>66</ele>
        <time>2018-02-21T15:13:49Z</time>
      </trkpt>
      <trkpt lat="44.28817" lon="4.76066">
        <ele>65</ele>
        <time>2018-02-21T15:13:52Z</time>
      </trkpt>
      <trkpt lat="44.28828" lon="4.76055">
        <ele>64</ele>
        <time>2018-02-21T15:13:55Z</time>
      </trkpt>
      <trkpt lat="44.28836" lon="4.76048">
        <ele>64</ele>
        <time>2018-02-21T15:13:57Z</time>
      </trkpt>
      <trkpt lat="44.28843" lon="4.76041">
        <ele>64</ele>
        <time>2018-02-21T15:13:59Z</time>
      </trkpt>
      <trkpt lat="44.28855" lon="4.7603">
        <ele>65</ele>
        <time>2018-02-21T15:14:02Z</time>
      </trkpt>
      <trkpt lat="44.28865" lon="4.7602">
        <ele>65</ele>
        <time>2018-02-21T15:14:05Z</time>
      </trkpt>
      <trkpt lat="44.28876" lon="4.76009">
        <ele>65</ele>
        <time>2018-02-21T15:14:08Z</time>
      </trkpt>
      <trkpt lat="44.28889" lon="4.75997">
        <ele>66</ele>
        <time>2018-02-21T15:14:11Z</time>
      </trkpt>
      <trkpt lat="44.28902" lon="4.75985">
        <ele>66</ele>
        <time>2018-02-21T15:14:14Z</time>
      </trkpt>
      <trkpt lat="44.28915" lon="4.75972">
        <ele>66</ele>
        <time>2018-02-21T15:14:17Z</time>
      </trkpt>
      <trkpt lat="44.28923" lon="4.75964">
        <ele>66</ele>
        <time>2018-02-21T15:14:19Z</time>
      </trkpt>
      <trkpt lat="44.28935" lon="4.75954">
        <ele>66</ele>
        <time>2018-02-21T15:14:22Z</time>
      </trkpt>
      <trkpt lat="44.28942" lon="4.75947">
        <ele>66</ele>
        <time>2018-02-21T15:14:24Z</time>
      </trkpt>
      <trkpt lat="44.28955" lon="4.75936">
        <ele>66</ele>
        <time>2018-02-21T15:14:27Z</time>
      </trkpt>
      <trkpt lat="44.28967" lon="4.75924">
        <ele>66</ele>
        <time>2018-02-21T15:14:30Z</time>
      </trkpt>
      <trkpt lat="44.28979" lon="4.75913">
        <ele>66</ele>
        <time>2018-02-21T15:14:33Z</time>
      </trkpt>
      <trkpt lat="44.28991" lon="4.75902">
        <ele>66</ele>
        <time>2018-02-21T15:14:36Z</time>
      </trkpt>
      <trkpt lat="44.29003" lon="4.75891">
        <ele>67</ele>
        <time>2018-02-21T15:14:39Z</time>
      </trkpt>
      <trkpt lat="44.29014" lon="4.7588">
        <ele>67</ele>
        <time>2018-02-21T15:14:42Z</time>
      </trkpt>
      <trkpt lat="44.29024" lon="4.7587">
        <ele>66</ele>
        <time>2018-02-21T15:14:45Z</time>
      </trkpt>
      <trkpt lat="44.29031" lon="4.75863">
        <ele>67</ele>
        <time>2018-02-21T15:14:47Z</time>
      </trkpt>
      <trkpt lat="44.29038" lon="4.75856">
        <ele>67</ele>
        <time>2018-02-21T15:14:49Z</time>
      </trkpt>
      <trkpt lat="44.29048" lon="4.75845">
        <ele>67</ele>
        <time>2018-02-21T15:14:52Z</time>
      </trkpt>
      <trkpt lat="44.29057" lon="4.75836">
        <ele>67</ele>
        <time>2018-02-21T15:14:55Z</time>
      </trkpt>
      <trkpt lat="44.29066" lon="4.75829">
        <ele>68</ele>
        <time>2018-02-21T15:14:58Z</time>
      </trkpt>
      <trkpt lat="44.2907" lon="4.75826">
        <ele>67</ele>
        <time>2018-02-21T15:15:01Z</time>
      </trkpt>
      <trkpt lat="44.2907" lon="4.75825">
        <ele>67</ele>
        <time>2018-02-21T15:15:03Z</time>
      </trkpt>
      <trkpt lat="44.29074" lon="4.75823">
        <ele>67</ele>
        <time>2018-02-21T15:15:06Z</time>
      </trkpt>
      <trkpt lat="44.29078" lon="4.75821">
        <ele>68</ele>
        <time>2018-02-21T15:15:08Z</time>
      </trkpt>
      <trkpt lat="44.29084" lon="4.75815">
        <ele>71</ele>
        <time>2018-02-21T15:15:11Z</time>
      </trkpt>
      <trkpt lat="44.29089" lon="4.7581">
        <ele>71</ele>
        <time>2018-02-21T15:15:13Z</time>
      </trkpt>
      <trkpt lat="44.29097" lon="4.75802">
        <ele>70</ele>
        <time>2018-02-21T15:15:16Z</time>
      </trkpt>
      <trkpt lat="44.29103" lon="4.75795">
        <ele>69</ele>
        <time>2018-02-21T15:15:18Z</time>
      </trkpt>
      <trkpt lat="44.29109" lon="4.7579">
        <ele>68</ele>
        <time>2018-02-21T15:15:20Z</time>
      </trkpt>
      <trkpt lat="44.29115" lon="4.75784">
        <ele>67</ele>
        <time>2018-02-21T15:15:22Z</time>
      </trkpt>
      <trkpt lat="44.29124" lon="4.75776">
        <ele>67</ele>
        <time>2018-02-21T15:15:25Z</time>
      </trkpt>
      <trkpt lat="44.29131" lon="4.7577">
        <ele>67</ele>
        <time>2018-02-21T15:15:27Z</time>
      </trkpt>
      <trkpt lat="44.29141" lon="4.75761">
        <ele>67</ele>
        <time>2018-02-21T15:15:30Z</time>
      </trkpt>
      <trkpt lat="44.29147" lon="4.75754">
        <ele>68</ele>
        <time>2018-02-21T15:15:32Z</time>
      </trkpt>
      <trkpt lat="44.29157" lon="4.75744">
        <ele>69</ele>
        <time>2018-02-21T15:15:35Z</time>
      </trkpt>
      <trkpt lat="44.29168" lon="4.75734">
        <ele>69</ele>
        <time>2018-02-21T15:15:38Z</time>
      </trkpt>
      <trkpt lat="44.29179" lon="4.75724">
        <ele>68</ele>
        <time>2018-02-21T15:15:41Z</time>
      </trkpt>
      <trkpt lat="44.2919" lon="4.75712">
        <ele>67</ele>
        <time>2018-02-21T15:15:44Z</time>
      </trkpt>
      <trkpt lat="44.29198" lon="4.75705">
        <ele>68</ele>
        <time>2018-02-21T15:15:46Z</time>
      </trkpt>
      <trkpt lat="44.2921" lon="4.75694">
        <ele>68</ele>
        <time>2018-02-21T15:15:49Z</time>
      </trkpt>
      <trkpt lat="44.2922" lon="4.7568">
        <ele>68</ele>
        <time>2018-02-21T15:15:52Z</time>
      </trkpt>
      <trkpt lat="44.29228" lon="4.75673">
        <ele>68</ele>
        <time>2018-02-21T15:15:54Z</time>
      </trkpt>
      <trkpt lat="44.2924" lon="4.75662">
        <ele>69</ele>
        <time>2018-02-21T15:15:57Z</time>
      </trkpt>
      <trkpt lat="44.29253" lon="4.75655">
        <ele>70</ele>
        <time>2018-02-21T15:16:00Z</time>
      </trkpt>
      <trkpt lat="44.2926" lon="4.75649">
        <ele>70</ele>
        <time>2018-02-21T15:16:02Z</time>
      </trkpt>
      <trkpt lat="44.2927" lon="4.75639">
        <ele>69</ele>
        <time>2018-02-21T15:16:05Z</time>
      </trkpt>
      <trkpt lat="44.2928" lon="4.75629">
        <ele>68</ele>
        <time>2018-02-21T15:16:08Z</time>
      </trkpt>
      <trkpt lat="44.29291" lon="4.75619">
        <ele>68</ele>
        <time>2018-02-21T15:16:11Z</time>
      </trkpt>
      <trkpt lat="44.29301" lon="4.75609">
        <ele>69</ele>
        <time>2018-02-21T15:16:14Z</time>
      </trkpt>
      <trkpt lat="44.29308" lon="4.75603">
        <ele>70</ele>
        <time>2018-02-21T15:16:16Z</time>
      </trkpt>
      <trkpt lat="44.29315" lon="4.75596">
        <ele>70</ele>
        <time>2018-02-21T15:16:18Z</time>
      </trkpt>
      <trkpt lat="44.29326" lon="4.75586">
        <ele>70</ele>
        <time>2018-02-21T15:16:21Z</time>
      </trkpt>
      <trkpt lat="44.29333" lon="4.75579">
        <ele>69</ele>
        <time>2018-02-21T15:16:23Z</time>
      </trkpt>
      <trkpt lat="44.29341" lon="4.75572">
        <ele>68</ele>
        <time>2018-02-21T15:16:25Z</time>
      </trkpt>
      <trkpt lat="44.29353" lon="4.75561">
        <ele>68</ele>
        <time>2018-02-21T15:16:28Z</time>
      </trkpt>
      <trkpt lat="44.29365" lon="4.75549">
        <ele>68</ele>
        <time>2018-02-21T15:16:31Z</time>
      </trkpt>
      <trkpt lat="44.29377" lon="4.75538">
        <ele>68</ele>
        <time>2018-02-21T15:16:34Z</time>
      </trkpt>
      <trkpt lat="44.29384" lon="4.75531">
        <ele>68</ele>
        <time>2018-02-21T15:16:36Z</time>
      </trkpt>
      <trkpt lat="44.29396" lon="4.7552">
        <ele>68</ele>
        <time>2018-02-21T15:16:39Z</time>
      </trkpt>
      <trkpt lat="44.29408" lon="4.75508">
        <ele>68</ele>
        <time>2018-02-21T15:16:42Z</time>
      </trkpt>
      <trkpt lat="44.2942" lon="4.75496">
        <ele>68</ele>
        <time>2018-02-21T15:16:45Z</time>
      </trkpt>
      <trkpt lat="44.29433" lon="4.75485">
        <ele>68</ele>
        <time>2018-02-21T15:16:48Z</time>
      </trkpt>
      <trkpt lat="44.29441" lon="4.75478">
        <ele>67</ele>
        <time>2018-02-21T15:16:50Z</time>
      </trkpt>
      <trkpt lat="44.29452" lon="4.75467">
        <ele>68</ele>
        <time>2018-02-21T15:16:53Z</time>
      </trkpt>
      <trkpt lat="44.29464" lon="4.75456">
        <ele>69</ele>
        <time>2018-02-21T15:16:56Z</time>
      </trkpt>
      <trkpt lat="44.29475" lon="4.75445">
        <ele>69</ele>
        <time>2018-02-21T15:16:59Z</time>
      </trkpt>
      <trkpt lat="44.29483" lon="4.75437">
        <ele>69</ele>
        <time>2018-02-21T15:17:01Z</time>
      </trkpt>
      <trkpt lat="44.29494" lon="4.75426">
        <ele>68</ele>
        <time>2018-02-21T15:17:04Z</time>
      </trkpt>
      <trkpt lat="44.29505" lon="4.75415">
        <ele>68</ele>
        <time>2018-02-21T15:17:07Z</time>
      </trkpt>
      <trkpt lat="44.29516" lon="4.75405">
        <ele>68</ele>
        <time>2018-02-21T15:17:10Z</time>
      </trkpt>
      <trkpt lat="44.29527" lon="4.75394">
        <ele>68</ele>
        <time>2018-02-21T15:17:13Z</time>
      </trkpt>
      <trkpt lat="44.29538" lon="4.75386">
        <ele>67</ele>
        <time>2018-02-21T15:17:16Z</time>
      </trkpt>
      <trkpt lat="44.29546" lon="4.7538">
        <ele>67</ele>
        <time>2018-02-21T15:17:18Z</time>
      </trkpt>
      <trkpt lat="44.29559" lon="4.75376">
        <ele>66</ele>
        <time>2018-02-21T15:17:21Z</time>
      </trkpt>
      <trkpt lat="44.29568" lon="4.75375">
        <ele>67</ele>
        <time>2018-02-21T15:17:23Z</time>
      </trkpt>
      <trkpt lat="44.29583" lon="4.75375">
        <ele>67</ele>
        <time>2018-02-21T15:17:26Z</time>
      </trkpt>
      <trkpt lat="44.29592" lon="4.75375">
        <ele>68</ele>
        <time>2018-02-21T15:17:28Z</time>
      </trkpt>
      <trkpt lat="44.29602" lon="4.75375">
        <ele>67</ele>
        <time>2018-02-21T15:17:30Z</time>
      </trkpt>
      <trkpt lat="44.29618" lon="4.75375">
        <ele>67</ele>
        <time>2018-02-21T15:17:33Z</time>
      </trkpt>
      <trkpt lat="44.29633" lon="4.75375">
        <ele>68</ele>
        <time>2018-02-21T15:17:36Z</time>
      </trkpt>
      <trkpt lat="44.29649" lon="4.75375">
        <ele>68</ele>
        <time>2018-02-21T15:17:39Z</time>
      </trkpt>
      <trkpt lat="44.29663" lon="4.75376">
        <ele>68</ele>
        <time>2018-02-21T15:17:42Z</time>
      </trkpt>
      <trkpt lat="44.29676" lon="4.75376">
        <ele>67</ele>
        <time>2018-02-21T15:17:45Z</time>
      </trkpt>
      <trkpt lat="44.2969" lon="4.75377">
        <ele>66</ele>
        <time>2018-02-21T15:17:48Z</time>
      </trkpt>
      <trkpt lat="44.29705" lon="4.75378">
        <ele>66</ele>
        <time>2018-02-21T15:17:51Z</time>
      </trkpt>
      <trkpt lat="44.29718" lon="4.75379">
        <ele>65</ele>
        <time>2018-02-21T15:17:54Z</time>
      </trkpt>
      <trkpt lat="44.29728" lon="4.75379">
        <ele>65</ele>
        <time>2018-02-21T15:17:56Z</time>
      </trkpt>
      <trkpt lat="44.29742" lon="4.7538">
        <ele>66</ele>
        <time>2018-02-21T15:17:59Z</time>
      </trkpt>
      <trkpt lat="44.2975" lon="4.75381">
        <ele>66</ele>
        <time>2018-02-21T15:18:01Z</time>
      </trkpt>
      <trkpt lat="44.29765" lon="4.75382">
        <ele>65</ele>
        <time>2018-02-21T15:18:04Z</time>
      </trkpt>
      <trkpt lat="44.29779" lon="4.75382">
        <ele>65</ele>
        <time>2018-02-21T15:18:07Z</time>
      </trkpt>
      <trkpt lat="44.29793" lon="4.75384">
        <ele>65</ele>
        <time>2018-02-21T15:18:10Z</time>
      </trkpt>
      <trkpt lat="44.29807" lon="4.75385">
        <ele>65</ele>
        <time>2018-02-21T15:18:13Z</time>
      </trkpt>
      <trkpt lat="44.29822" lon="4.75386">
        <ele>65</ele>
        <time>2018-02-21T15:18:16Z</time>
      </trkpt>
      <trkpt lat="44.29837" lon="4.75386">
        <ele>65</ele>
        <time>2018-02-21T15:18:19Z</time>
      </trkpt>
      <trkpt lat="44.29852" lon="4.75386">
        <ele>66</ele>
        <time>2018-02-21T15:18:22Z</time>
      </trkpt>
      <trkpt lat="44.29861" lon="4.75385">
        <ele>67</ele>
        <time>2018-02-21T15:18:24Z</time>
      </trkpt>
      <trkpt lat="44.29871" lon="4.75383">
        <ele>67</ele>
        <time>2018-02-21T15:18:26Z</time>
      </trkpt>
      <trkpt lat="44.29884" lon="4.75382">
        <ele>66</ele>
        <time>2018-02-21T15:18:29Z</time>
      </trkpt>
      <trkpt lat="44.29893" lon="4.75382">
        <ele>66</ele>
        <time>2018-02-21T15:18:31Z</time>
      </trkpt>
      <trkpt lat="44.29907" lon="4.7538">
        <ele>65</ele>
        <time>2018-02-21T15:18:34Z</time>
      </trkpt>
      <trkpt lat="44.29916" lon="4.75379">
        <ele>65</ele>
        <time>2018-02-21T15:18:36Z</time>
      </trkpt>
      <trkpt lat="44.2993" lon="4.75378">
        <ele>65</ele>
        <time>2018-02-21T15:18:39Z</time>
      </trkpt>
      <trkpt lat="44.2994" lon="4.75377">
        <ele>64</ele>
        <time>2018-02-21T15:18:41Z</time>
      </trkpt>
      <trkpt lat="44.29949" lon="4.75376">
        <ele>65</ele>
        <time>2018-02-21T15:18:43Z</time>
      </trkpt>
      <trkpt lat="44.29959" lon="4.75375">
        <ele>65</ele>
        <time>2018-02-21T15:18:45Z</time>
      </trkpt>
      <trkpt lat="44.29973" lon="4.75373">
        <ele>65</ele>
        <time>2018-02-21T15:18:48Z</time>
      </trkpt>
      <trkpt lat="44.29987" lon="4.75372">
        <ele>65</ele>
        <time>2018-02-21T15:18:51Z</time>
      </trkpt>
      <trkpt lat="44.3" lon="4.7537">
        <ele>65</ele>
        <time>2018-02-21T15:18:54Z</time>
      </trkpt>
      <trkpt lat="44.30013" lon="4.75369">
        <ele>66</ele>
        <time>2018-02-21T15:18:57Z</time>
      </trkpt>
      <trkpt lat="44.30026" lon="4.75366">
        <ele>66</ele>
        <time>2018-02-21T15:19:00Z</time>
      </trkpt>
      <trkpt lat="44.30038" lon="4.75362">
        <ele>66</ele>
        <time>2018-02-21T15:19:03Z</time>
      </trkpt>
      <trkpt lat="44.30051" lon="4.75358">
        <ele>65</ele>
        <time>2018-02-21T15:19:06Z</time>
      </trkpt>
      <trkpt lat="44.30061" lon="4.75355">
        <ele>65</ele>
        <time>2018-02-21T15:19:09Z</time>
      </trkpt>
      <trkpt lat="44.30071" lon="4.75362">
        <ele>65</ele>
        <time>2018-02-21T15:19:12Z</time>
      </trkpt>
      <trkpt lat="44.30081" lon="4.75374">
        <ele>65</ele>
        <time>2018-02-21T15:19:15Z</time>
      </trkpt>
      <trkpt lat="44.30087" lon="4.75381">
        <ele>65</ele>
        <time>2018-02-21T15:19:17Z</time>
      </trkpt>
      <trkpt lat="44.30097" lon="4.75391">
        <ele>65</ele>
        <time>2018-02-21T15:19:20Z</time>
      </trkpt>
      <trkpt lat="44.30103" lon="4.754">
        <ele>65</ele>
        <time>2018-02-21T15:19:22Z</time>
      </trkpt>
      <trkpt lat="44.30112" lon="4.75412">
        <ele>66</ele>
        <time>2018-02-21T15:19:25Z</time>
      </trkpt>
      <trkpt lat="44.30122" lon="4.75423">
        <ele>68</ele>
        <time>2018-02-21T15:19:28Z</time>
      </trkpt>
      <trkpt lat="44.30132" lon="4.75433">
        <ele>68</ele>
        <time>2018-02-21T15:19:31Z</time>
      </trkpt>
      <trkpt lat="44.30139" lon="4.75435">
        <ele>67</ele>
        <time>2018-02-21T15:19:33Z</time>
      </trkpt>
      <trkpt lat="44.30147" lon="4.75434">
        <ele>64</ele>
        <time>2018-02-21T15:19:35Z</time>
      </trkpt>
      <trkpt lat="44.3016" lon="4.75434">
        <ele>64</ele>
        <time>2018-02-21T15:19:38Z</time>
      </trkpt>
      <trkpt lat="44.30173" lon="4.75432">
        <ele>63</ele>
        <time>2018-02-21T15:19:41Z</time>
      </trkpt>
      <trkpt lat="44.30186" lon="4.75431">
        <ele>62</ele>
        <time>2018-02-21T15:19:44Z</time>
      </trkpt>
      <trkpt lat="44.30194" lon="4.7543">
        <ele>62</ele>
        <time>2018-02-21T15:19:46Z</time>
      </trkpt>
      <trkpt lat="44.30206" lon="4.7543">
        <ele>64</ele>
        <time>2018-02-21T15:19:49Z</time>
      </trkpt>
      <trkpt lat="44.30215" lon="4.75428">
        <ele>66</ele>
        <time>2018-02-21T15:19:52Z</time>
      </trkpt>
      <trkpt lat="44.30219" lon="4.7542">
        <ele>66</ele>
        <time>2018-02-21T15:19:55Z</time>
      </trkpt>
      <trkpt lat="44.30217" lon="4.75408">
        <ele>65</ele>
        <time>2018-02-21T15:19:58Z</time>
      </trkpt>
      <trkpt lat="44.30213" lon="4.75394">
        <ele>65</ele>
        <time>2018-02-21T15:20:01Z</time>
      </trkpt>
      <trkpt lat="44.3021" lon="4.75377">
        <ele>65</ele>
        <time>2018-02-21T15:20:04Z</time>
      </trkpt>
      <trkpt lat="44.30209" lon="4.75365">
        <ele>66</ele>
        <time>2018-02-21T15:20:06Z</time>
      </trkpt>
      <trkpt lat="44.30209" lon="4.75353">
        <ele>66</ele>
        <time>2018-02-21T15:20:08Z</time>
      </trkpt>
      <trkpt lat="44.30209" lon="4.75335">
        <ele>66</ele>
        <time>2018-02-21T15:20:11Z</time>
      </trkpt>
      <trkpt lat="44.30209" lon="4.75323">
        <ele>66</ele>
        <time>2018-02-21T15:20:13Z</time>
      </trkpt>
      <trkpt lat="44.30209" lon="4.75311">
        <ele>64</ele>
        <time>2018-02-21T15:20:15Z</time>
      </trkpt>
      <trkpt lat="44.30209" lon="4.753">
        <ele>64</ele>
        <time>2018-02-21T15:20:17Z</time>
      </trkpt>
      <trkpt lat="44.30218" lon="4.75292">
        <ele>64</ele>
        <time>2018-02-21T15:20:20Z</time>
      </trkpt>
      <trkpt lat="44.30229" lon="4.75292">
        <ele>66</ele>
        <time>2018-02-21T15:20:23Z</time>
      </trkpt>
      <trkpt lat="44.3024" lon="4.7529">
        <ele>68</ele>
        <time>2018-02-21T15:20:26Z</time>
      </trkpt>
      <trkpt lat="44.30251" lon="4.75289">
        <ele>68</ele>
        <time>2018-02-21T15:20:29Z</time>
      </trkpt>
      <trkpt lat="44.30263" lon="4.75288">
        <ele>67</ele>
        <time>2018-02-21T15:20:32Z</time>
      </trkpt>
      <trkpt lat="44.30275" lon="4.75287">
        <ele>67</ele>
        <time>2018-02-21T15:20:35Z</time>
      </trkpt>
      <trkpt lat="44.30287" lon="4.75288">
        <ele>67</ele>
        <time>2018-02-21T15:20:38Z</time>
      </trkpt>
      <trkpt lat="44.30299" lon="4.75288">
        <ele>67</ele>
        <time>2018-02-21T15:20:41Z</time>
      </trkpt>
      <trkpt lat="44.30307" lon="4.75287">
        <ele>68</ele>
        <time>2018-02-21T15:20:43Z</time>
      </trkpt>
      <trkpt lat="44.30313" lon="4.75287">
        <ele>69</ele>
        <time>2018-02-21T15:20:45Z</time>
      </trkpt>
      <trkpt lat="44.30326" lon="4.75285">
        <ele>69</ele>
        <time>2018-02-21T15:20:48Z</time>
      </trkpt>
      <trkpt lat="44.30338" lon="4.75285">
        <ele>69</ele>
        <time>2018-02-21T15:20:51Z</time>
      </trkpt>
      <trkpt lat="44.30349" lon="4.7529">
        <ele>68</ele>
        <time>2018-02-21T15:20:54Z</time>
      </trkpt>
      <trkpt lat="44.30358" lon="4.75294">
        <ele>70</ele>
        <time>2018-02-21T15:20:57Z</time>
      </trkpt>
      <trkpt lat="44.30368" lon="4.753">
        <ele>70</ele>
        <time>2018-02-21T15:21:00Z</time>
      </trkpt>
      <trkpt lat="44.30375" lon="4.75309">
        <ele>71</ele>
        <time>2018-02-21T15:21:03Z</time>
      </trkpt>
      <trkpt lat="44.30381" lon="4.75318">
        <ele>71</ele>
        <time>2018-02-21T15:21:06Z</time>
      </trkpt>
      <trkpt lat="44.30387" lon="4.75327">
        <ele>72</ele>
        <time>2018-02-21T15:21:09Z</time>
      </trkpt>
      <trkpt lat="44.3039" lon="4.75333">
        <ele>73</ele>
        <time>2018-02-21T15:21:11Z</time>
      </trkpt>
      <trkpt lat="44.30394" lon="4.75341">
        <ele>73</ele>
        <time>2018-02-21T15:21:13Z</time>
      </trkpt>
      <trkpt lat="44.30398" lon="4.75351">
        <ele>73</ele>
        <time>2018-02-21T15:21:16Z</time>
      </trkpt>
      <trkpt lat="44.30404" lon="4.75361">
        <ele>74</ele>
        <time>2018-02-21T15:21:19Z</time>
      </trkpt>
      <trkpt lat="44.30412" lon="4.75364">
        <ele>75</ele>
        <time>2018-02-21T15:21:22Z</time>
      </trkpt>
      <trkpt lat="44.3042" lon="4.75364">
        <ele>76</ele>
        <time>2018-02-21T15:21:25Z</time>
      </trkpt>
      <trkpt lat="44.30428" lon="4.75367">
        <ele>78</ele>
        <time>2018-02-21T15:21:28Z</time>
      </trkpt>
      <trkpt lat="44.30437" lon="4.7537">
        <ele>79</ele>
        <time>2018-02-21T15:21:31Z</time>
      </trkpt>
      <trkpt lat="44.30442" lon="4.75379">
        <ele>80</ele>
        <time>2018-02-21T15:21:34Z</time>
      </trkpt>
      <trkpt lat="44.30442" lon="4.7539">
        <ele>81</ele>
        <time>2018-02-21T15:21:37Z</time>
      </trkpt>
      <trkpt lat="44.30443" lon="4.754">
        <ele>81</ele>
        <time>2018-02-21T15:21:40Z</time>
      </trkpt>
      <trkpt lat="44.30446" lon="4.75411">
        <ele>82</ele>
        <time>2018-02-21T15:21:43Z</time>
      </trkpt>
      <trkpt lat="44.3045" lon="4.7542">
        <ele>82</ele>
        <time>2018-02-21T15:21:46Z</time>
      </trkpt>
      <trkpt lat="44.30453" lon="4.75428">
        <ele>83</ele>
        <time>2018-02-21T15:21:49Z</time>
      </trkpt>
      <trkpt lat="44.30453" lon="4.75433">
        <ele>83</ele>
        <time>2018-02-21T15:21:52Z</time>
      </trkpt>
      <trkpt lat="44.30454" lon="4.75437">
        <ele>83</ele>
        <time>2018-02-21T15:21:54Z</time>
      </trkpt>
      <trkpt lat="44.30454" lon="4.75439">
        <ele>82</ele>
        <time>2018-02-21T15:21:56Z</time>
      </trkpt>
      <trkpt lat="44.30454" lon="4.7544">
        <ele>82</ele>
        <time>2018-02-21T15:21:59Z</time>
      </trkpt>
      <trkpt lat="44.30454" lon="4.7544">
        <ele>82</ele>
        <time>2018-02-21T15:22:01Z</time>
      </trkpt>
      <trkpt lat="44.30454" lon="4.75443">
        <ele>82</ele>
        <time>2018-02-21T15:22:03Z</time>
      </trkpt>
      <trkpt lat="44.30452" lon="4.75446">
        <ele>82</ele>
        <time>2018-02-21T15:22:05Z</time>
      </trkpt>
      <trkpt lat="44.30448" lon="4.75449">
        <ele>82</ele>
        <time>2018-02-21T15:22:07Z</time>
      </trkpt>
      <trkpt lat="44.30442" lon="4.75451">
        <ele>82</ele>
        <time>2018-02-21T15:22:10Z</time>
      </trkpt>
      <trkpt lat="44.30437" lon="4.75461">
        <ele>81</ele>
        <time>2018-02-21T15:22:13Z</time>
      </trkpt>
      <trkpt lat="44.30434" lon="4.75481">
        <ele>80</ele>
        <time>2018-02-21T15:22:16Z</time>
      </trkpt>
      <trkpt lat="44.30433" lon="4.75493">
        <ele>80</ele>
        <time>2018-02-21T15:22:18Z</time>
      </trkpt>
      <trkpt lat="44.30431" lon="4.75499">
        <ele>79</ele>
        <time>2018-02-21T15:22:20Z</time>
      </trkpt>
      <trkpt lat="44.30427" lon="4.75497">
        <ele>78</ele>
        <time>2018-02-21T15:22:23Z</time>
      </trkpt>
      <trkpt lat="44.30426" lon="4.75491">
        <ele>77</ele>
        <time>2018-02-21T15:22:25Z</time>
      </trkpt>
      <trkpt lat="44.30424" lon="4.75485">
        <ele>76</ele>
        <time>2018-02-21T15:22:28Z</time>
      </trkpt>
      <trkpt lat="44.30424" lon="4.75485">
        <ele>77</ele>
        <time>2018-02-21T15:22:31Z</time>
      </trkpt>
      <trkpt lat="44.30424" lon="4.75485">
        <ele>77</ele>
        <time>2018-02-21T15:22:34Z</time>
      </trkpt>
    </trkseg>
  </trk>
</gpx>